<?xml version="1.0" encoding="utf-8" standalone="yes"?>
<gpx version="1.1" creator="Locus Map, Android"
 xmlns="http://www.topografix.com/GPX/1/1"
 xmlns:xsi="http://www.w3.org/2001/XMLSchema-instance"
 xsi:schemaLocation="http://www.topografix.com/GPX/1/1 http://www.topografix.com/GPX/1/1/gpx.xsd"
 xmlns:gpxx="http://www.garmin.com/xmlschemas/GpxExtensions/v3"
 xmlns:gpxtrkx="http://www.garmin.com/xmlschemas/TrackStatsExtension/v1"
 xmlns:gpxtpx="http://www.garmin.com/xmlschemas/TrackPointExtension/v2"
 xmlns:locus="http://www.locusmap.eu">
	<metadata>
		<desc>File with points/tracks from Locus Map Classic/3.70.16</desc>
		<time>2025-07-30T12:50:08.028Z</time>
	</metadata>
<trk>
<name>Bivacco Adamone</name>
	<extensions>
		<line xmlns="http://www.topografix.com/GPX/gpx_style/0/2">
			<color>0000FF</color>
			<opacity>0.59</opacity>
			<width>6.0</width>
			<extensions>
				<locus:lsColorBase>#960000FF</locus:lsColorBase>
				<locus:lsWidth>6.0</locus:lsWidth>
				<locus:lsUnits>PIXELS</locus:lsUnits>
			</extensions>
		</line>
		<locus:activity>hiking</locus:activity>
	</extensions>
<trkseg>
<trkpt lat="46.0329170" lon="10.3282010">
	<ele>651.40</ele>
	<time>2025-07-30T05:27:42.000Z</time>
</trkpt>
<trkpt lat="46.0329220" lon="10.3282060">
	<ele>651.40</ele>
	<time>2025-07-30T05:27:43.000Z</time>
</trkpt>
<trkpt lat="46.0329290" lon="10.3282030">
	<ele>651.40</ele>
	<time>2025-07-30T05:27:44.000Z</time>
</trkpt>
<trkpt lat="46.0329420" lon="10.3281970">
	<ele>651.40</ele>
	<time>2025-07-30T05:27:45.000Z</time>
</trkpt>
<trkpt lat="46.0329530" lon="10.3281990">
	<ele>651.40</ele>
	<time>2025-07-30T05:27:46.000Z</time>
</trkpt>
<trkpt lat="46.0329630" lon="10.3282010">
	<ele>651.40</ele>
	<time>2025-07-30T05:27:47.000Z</time>
</trkpt>
<trkpt lat="46.0329760" lon="10.3282040">
	<ele>651.40</ele>
	<time>2025-07-30T05:27:48.000Z</time>
</trkpt>
<trkpt lat="46.0329850" lon="10.3282030">
	<ele>651.40</ele>
	<time>2025-07-30T05:27:49.000Z</time>
</trkpt>
<trkpt lat="46.0329910" lon="10.3281960">
	<ele>651.40</ele>
	<time>2025-07-30T05:27:50.000Z</time>
</trkpt>
<trkpt lat="46.0329890" lon="10.3281900">
	<ele>651.40</ele>
	<time>2025-07-30T05:27:51.000Z</time>
</trkpt>
<trkpt lat="46.0329860" lon="10.3281810">
	<ele>651.40</ele>
	<time>2025-07-30T05:27:52.000Z</time>
</trkpt>
<trkpt lat="46.0329840" lon="10.3281840">
	<ele>651.40</ele>
	<time>2025-07-30T05:27:53.000Z</time>
</trkpt>
<trkpt lat="46.0329840" lon="10.3281970">
	<ele>651.40</ele>
	<time>2025-07-30T05:27:54.000Z</time>
</trkpt>
<trkpt lat="46.0329830" lon="10.3282010">
	<ele>651.40</ele>
	<time>2025-07-30T05:27:55.000Z</time>
</trkpt>
<trkpt lat="46.0329830" lon="10.3282020">
	<ele>651.40</ele>
	<time>2025-07-30T05:27:56.000Z</time>
</trkpt>
<trkpt lat="46.0329790" lon="10.3282090">
	<ele>651.40</ele>
	<time>2025-07-30T05:27:57.000Z</time>
</trkpt>
<trkpt lat="46.0329770" lon="10.3282190">
	<ele>651.40</ele>
	<time>2025-07-30T05:27:58.000Z</time>
</trkpt>
<trkpt lat="46.0329720" lon="10.3282320">
	<ele>651.40</ele>
	<time>2025-07-30T05:27:59.000Z</time>
</trkpt>
<trkpt lat="46.0329710" lon="10.3282440">
	<ele>651.40</ele>
	<time>2025-07-30T05:28:00.000Z</time>
</trkpt>
<trkpt lat="46.0329720" lon="10.3282560">
	<ele>651.40</ele>
	<time>2025-07-30T05:28:01.000Z</time>
</trkpt>
<trkpt lat="46.0329730" lon="10.3282720">
	<ele>651.40</ele>
	<time>2025-07-30T05:28:02.000Z</time>
</trkpt>
<trkpt lat="46.0329740" lon="10.3282850">
	<ele>651.40</ele>
	<time>2025-07-30T05:28:03.000Z</time>
</trkpt>
<trkpt lat="46.0329770" lon="10.3282940">
	<ele>651.40</ele>
	<time>2025-07-30T05:28:04.000Z</time>
</trkpt>
<trkpt lat="46.0329790" lon="10.3283080">
	<ele>651.40</ele>
	<time>2025-07-30T05:28:05.000Z</time>
</trkpt>
<trkpt lat="46.0329780" lon="10.3283270">
	<ele>651.40</ele>
	<time>2025-07-30T05:28:06.000Z</time>
</trkpt>
<trkpt lat="46.0329790" lon="10.3283420">
	<ele>651.40</ele>
	<time>2025-07-30T05:28:07.000Z</time>
</trkpt>
<trkpt lat="46.0329780" lon="10.3283580">
	<ele>651.40</ele>
	<time>2025-07-30T05:28:08.000Z</time>
</trkpt>
<trkpt lat="46.0329760" lon="10.3283730">
	<ele>651.40</ele>
	<time>2025-07-30T05:28:09.000Z</time>
</trkpt>
<trkpt lat="46.0329710" lon="10.3283870">
	<ele>651.40</ele>
	<time>2025-07-30T05:28:10.000Z</time>
</trkpt>
<trkpt lat="46.0329680" lon="10.3284040">
	<ele>651.40</ele>
	<time>2025-07-30T05:28:11.000Z</time>
</trkpt>
<trkpt lat="46.0329690" lon="10.3284220">
	<ele>651.40</ele>
	<time>2025-07-30T05:28:12.000Z</time>
</trkpt>
<trkpt lat="46.0329710" lon="10.3284380">
	<ele>651.40</ele>
	<time>2025-07-30T05:28:13.000Z</time>
</trkpt>
<trkpt lat="46.0329710" lon="10.3284580">
	<ele>651.40</ele>
	<time>2025-07-30T05:28:14.000Z</time>
</trkpt>
<trkpt lat="46.0329690" lon="10.3284780">
	<ele>651.40</ele>
	<time>2025-07-30T05:28:15.000Z</time>
</trkpt>
<trkpt lat="46.0329660" lon="10.3284940">
	<ele>651.40</ele>
	<time>2025-07-30T05:28:16.000Z</time>
</trkpt>
<trkpt lat="46.0329630" lon="10.3285090">
	<ele>651.40</ele>
	<time>2025-07-30T05:28:17.000Z</time>
</trkpt>
<trkpt lat="46.0329610" lon="10.3285250">
	<ele>651.40</ele>
	<time>2025-07-30T05:28:18.000Z</time>
</trkpt>
<trkpt lat="46.0329650" lon="10.3285420">
	<ele>651.40</ele>
	<time>2025-07-30T05:28:19.000Z</time>
</trkpt>
<trkpt lat="46.0329770" lon="10.3285540">
	<ele>652.20</ele>
	<time>2025-07-30T05:28:20.000Z</time>
</trkpt>
<trkpt lat="46.0329820" lon="10.3285540">
	<ele>652.60</ele>
	<time>2025-07-30T05:28:21.000Z</time>
</trkpt>
<trkpt lat="46.0329870" lon="10.3285460">
	<ele>653.00</ele>
	<time>2025-07-30T05:28:22.000Z</time>
</trkpt>
<trkpt lat="46.0329920" lon="10.3285380">
	<ele>653.20</ele>
	<time>2025-07-30T05:28:23.000Z</time>
</trkpt>
<trkpt lat="46.0329940" lon="10.3285310">
	<ele>653.40</ele>
	<time>2025-07-30T05:28:24.000Z</time>
</trkpt>
<trkpt lat="46.0329940" lon="10.3285210">
	<ele>653.40</ele>
	<time>2025-07-30T05:28:25.000Z</time>
</trkpt>
<trkpt lat="46.0330020" lon="10.3285140">
	<ele>653.60</ele>
	<time>2025-07-30T05:28:26.000Z</time>
</trkpt>
<trkpt lat="46.0330050" lon="10.3284990">
	<ele>653.60</ele>
	<time>2025-07-30T05:28:27.000Z</time>
</trkpt>
<trkpt lat="46.0330080" lon="10.3284850">
	<ele>653.80</ele>
	<time>2025-07-30T05:28:28.000Z</time>
</trkpt>
<trkpt lat="46.0330070" lon="10.3284710">
	<ele>654.00</ele>
	<time>2025-07-30T05:28:29.000Z</time>
</trkpt>
<trkpt lat="46.0330130" lon="10.3284660">
	<ele>654.00</ele>
	<time>2025-07-30T05:28:30.000Z</time>
</trkpt>
<trkpt lat="46.0330180" lon="10.3284590">
	<ele>654.20</ele>
	<time>2025-07-30T05:28:31.000Z</time>
</trkpt>
<trkpt lat="46.0330220" lon="10.3284540">
	<ele>654.40</ele>
	<time>2025-07-30T05:28:32.000Z</time>
</trkpt>
<trkpt lat="46.0330260" lon="10.3284470">
	<ele>654.40</ele>
	<time>2025-07-30T05:28:33.000Z</time>
</trkpt>
<trkpt lat="46.0330290" lon="10.3284370">
	<ele>654.60</ele>
	<time>2025-07-30T05:28:34.000Z</time>
</trkpt>
<trkpt lat="46.0330330" lon="10.3284280">
	<ele>654.80</ele>
	<time>2025-07-30T05:28:35.000Z</time>
</trkpt>
<trkpt lat="46.0330360" lon="10.3284110">
	<ele>655.00</ele>
	<time>2025-07-30T05:28:36.000Z</time>
</trkpt>
<trkpt lat="46.0330390" lon="10.3283940">
	<ele>655.00</ele>
	<time>2025-07-30T05:28:37.000Z</time>
</trkpt>
<trkpt lat="46.0330440" lon="10.3283790">
	<ele>655.00</ele>
	<time>2025-07-30T05:28:38.000Z</time>
</trkpt>
<trkpt lat="46.0330510" lon="10.3283660">
	<ele>655.20</ele>
	<time>2025-07-30T05:28:39.000Z</time>
</trkpt>
<trkpt lat="46.0330580" lon="10.3283590">
	<ele>655.40</ele>
	<time>2025-07-30T05:28:40.000Z</time>
</trkpt>
<trkpt lat="46.0330630" lon="10.3283530">
	<ele>655.60</ele>
	<time>2025-07-30T05:28:41.000Z</time>
</trkpt>
<trkpt lat="46.0330650" lon="10.3283410">
	<ele>655.80</ele>
	<time>2025-07-30T05:28:42.000Z</time>
</trkpt>
<trkpt lat="46.0330640" lon="10.3283300">
	<ele>656.00</ele>
	<time>2025-07-30T05:28:43.000Z</time>
</trkpt>
<trkpt lat="46.0330630" lon="10.3283180">
	<ele>656.20</ele>
	<time>2025-07-30T05:28:44.000Z</time>
</trkpt>
<trkpt lat="46.0330630" lon="10.3283020">
	<ele>656.40</ele>
	<time>2025-07-30T05:28:45.000Z</time>
</trkpt>
<trkpt lat="46.0330690" lon="10.3282960">
	<ele>656.60</ele>
	<time>2025-07-30T05:28:46.000Z</time>
</trkpt>
<trkpt lat="46.0330750" lon="10.3282840">
	<ele>656.60</ele>
	<time>2025-07-30T05:28:47.000Z</time>
</trkpt>
<trkpt lat="46.0330800" lon="10.3282710">
	<ele>656.80</ele>
	<time>2025-07-30T05:28:48.000Z</time>
</trkpt>
<trkpt lat="46.0330810" lon="10.3282610">
	<ele>656.80</ele>
	<time>2025-07-30T05:28:49.000Z</time>
</trkpt>
<trkpt lat="46.0330840" lon="10.3282440">
	<ele>656.80</ele>
	<time>2025-07-30T05:28:50.000Z</time>
</trkpt>
<trkpt lat="46.0330900" lon="10.3282340">
	<ele>657.00</ele>
	<time>2025-07-30T05:28:51.000Z</time>
</trkpt>
<trkpt lat="46.0330930" lon="10.3282230">
	<ele>657.20</ele>
	<time>2025-07-30T05:28:52.000Z</time>
</trkpt>
<trkpt lat="46.0330970" lon="10.3282080">
	<ele>657.20</ele>
	<time>2025-07-30T05:28:53.000Z</time>
</trkpt>
<trkpt lat="46.0331020" lon="10.3281890">
	<ele>657.40</ele>
	<time>2025-07-30T05:28:54.000Z</time>
</trkpt>
<trkpt lat="46.0331040" lon="10.3281680">
	<ele>657.60</ele>
	<time>2025-07-30T05:28:55.000Z</time>
</trkpt>
<trkpt lat="46.0331080" lon="10.3281500">
	<ele>657.80</ele>
	<time>2025-07-30T05:28:56.000Z</time>
</trkpt>
<trkpt lat="46.0331140" lon="10.3281400">
	<ele>657.80</ele>
	<time>2025-07-30T05:28:57.000Z</time>
</trkpt>
<trkpt lat="46.0331160" lon="10.3281250">
	<ele>658.00</ele>
	<time>2025-07-30T05:28:58.000Z</time>
</trkpt>
<trkpt lat="46.0331130" lon="10.3281220">
	<ele>658.00</ele>
	<time>2025-07-30T05:28:59.000Z</time>
</trkpt>
<trkpt lat="46.0331120" lon="10.3281210">
	<ele>658.00</ele>
	<time>2025-07-30T05:29:00.000Z</time>
</trkpt>
<trkpt lat="46.0331120" lon="10.3281290">
	<ele>658.00</ele>
	<time>2025-07-30T05:29:01.000Z</time>
</trkpt>
<trkpt lat="46.0331150" lon="10.3281310">
	<ele>658.20</ele>
	<time>2025-07-30T05:29:02.000Z</time>
</trkpt>
<trkpt lat="46.0331170" lon="10.3281320">
	<ele>658.20</ele>
	<time>2025-07-30T05:29:03.000Z</time>
</trkpt>
<trkpt lat="46.0331140" lon="10.3281230">
	<ele>658.20</ele>
	<time>2025-07-30T05:29:04.000Z</time>
</trkpt>
<trkpt lat="46.0331160" lon="10.3281110">
	<ele>658.20</ele>
	<time>2025-07-30T05:29:05.000Z</time>
</trkpt>
<trkpt lat="46.0331130" lon="10.3281070">
	<ele>658.40</ele>
	<time>2025-07-30T05:29:06.000Z</time>
</trkpt>
<trkpt lat="46.0331110" lon="10.3281060">
	<ele>658.40</ele>
	<time>2025-07-30T05:29:07.000Z</time>
</trkpt>
<trkpt lat="46.0331110" lon="10.3281070">
	<ele>658.60</ele>
	<time>2025-07-30T05:29:08.000Z</time>
</trkpt>
<trkpt lat="46.0331150" lon="10.3281060">
	<ele>658.60</ele>
	<time>2025-07-30T05:29:09.000Z</time>
</trkpt>
<trkpt lat="46.0331150" lon="10.3281000">
	<ele>658.60</ele>
	<time>2025-07-30T05:29:10.000Z</time>
</trkpt>
<trkpt lat="46.0331160" lon="10.3281010">
	<ele>658.60</ele>
	<time>2025-07-30T05:29:11.000Z</time>
</trkpt>
<trkpt lat="46.0331160" lon="10.3281010">
	<ele>658.60</ele>
	<time>2025-07-30T05:29:12.000Z</time>
</trkpt>
<trkpt lat="46.0331150" lon="10.3281000">
	<ele>658.40</ele>
	<time>2025-07-30T05:29:13.000Z</time>
</trkpt>
<trkpt lat="46.0331150" lon="10.3281050">
	<ele>658.40</ele>
	<time>2025-07-30T05:29:14.000Z</time>
</trkpt>
<trkpt lat="46.0331070" lon="10.3281090">
	<ele>658.40</ele>
	<time>2025-07-30T05:29:15.000Z</time>
</trkpt>
<trkpt lat="46.0331040" lon="10.3281130">
	<ele>658.40</ele>
	<time>2025-07-30T05:29:16.000Z</time>
</trkpt>
<trkpt lat="46.0331050" lon="10.3281200">
	<ele>658.40</ele>
	<time>2025-07-30T05:29:17.000Z</time>
</trkpt>
<trkpt lat="46.0331070" lon="10.3281170">
	<ele>658.40</ele>
	<time>2025-07-30T05:29:18.000Z</time>
</trkpt>
<trkpt lat="46.0331070" lon="10.3281170">
	<ele>658.40</ele>
	<time>2025-07-30T05:29:19.000Z</time>
</trkpt>
<trkpt lat="46.0331040" lon="10.3280970">
	<ele>658.40</ele>
	<time>2025-07-30T05:29:20.000Z</time>
</trkpt>
<trkpt lat="46.0331050" lon="10.3280870">
	<ele>658.40</ele>
	<time>2025-07-30T05:29:21.000Z</time>
</trkpt>
<trkpt lat="46.0331040" lon="10.3280660">
	<ele>658.40</ele>
	<time>2025-07-30T05:29:22.000Z</time>
</trkpt>
<trkpt lat="46.0331020" lon="10.3280460">
	<ele>658.40</ele>
	<time>2025-07-30T05:29:23.000Z</time>
</trkpt>
<trkpt lat="46.0330990" lon="10.3280250">
	<ele>658.40</ele>
	<time>2025-07-30T05:29:24.000Z</time>
</trkpt>
<trkpt lat="46.0330960" lon="10.3280040">
	<ele>658.40</ele>
	<time>2025-07-30T05:29:25.000Z</time>
</trkpt>
<trkpt lat="46.0330970" lon="10.3279910">
	<ele>658.40</ele>
	<time>2025-07-30T05:29:26.000Z</time>
</trkpt>
<trkpt lat="46.0331000" lon="10.3279800">
	<ele>658.40</ele>
	<time>2025-07-30T05:29:27.000Z</time>
</trkpt>
<trkpt lat="46.0331040" lon="10.3279620">
	<ele>658.20</ele>
	<time>2025-07-30T05:29:28.000Z</time>
</trkpt>
<trkpt lat="46.0331060" lon="10.3279540">
	<ele>658.20</ele>
	<time>2025-07-30T05:29:29.000Z</time>
</trkpt>
<trkpt lat="46.0331070" lon="10.3279420">
	<ele>658.20</ele>
	<time>2025-07-30T05:29:30.000Z</time>
</trkpt>
<trkpt lat="46.0331100" lon="10.3279430">
	<ele>658.20</ele>
	<time>2025-07-30T05:29:31.000Z</time>
</trkpt>
<trkpt lat="46.0331090" lon="10.3279350">
	<ele>658.20</ele>
	<time>2025-07-30T05:29:32.000Z</time>
</trkpt>
<trkpt lat="46.0331090" lon="10.3279220">
	<ele>658.20</ele>
	<time>2025-07-30T05:29:33.000Z</time>
</trkpt>
<trkpt lat="46.0331120" lon="10.3279120">
	<ele>658.20</ele>
	<time>2025-07-30T05:29:34.000Z</time>
</trkpt>
<trkpt lat="46.0331130" lon="10.3279000">
	<ele>658.40</ele>
	<time>2025-07-30T05:29:35.000Z</time>
</trkpt>
<trkpt lat="46.0331070" lon="10.3278770">
	<ele>658.40</ele>
	<time>2025-07-30T05:29:36.000Z</time>
</trkpt>
<trkpt lat="46.0331070" lon="10.3278570">
	<ele>658.40</ele>
	<time>2025-07-30T05:29:37.000Z</time>
</trkpt>
<trkpt lat="46.0331040" lon="10.3278390">
	<ele>658.40</ele>
	<time>2025-07-30T05:29:38.000Z</time>
</trkpt>
<trkpt lat="46.0330970" lon="10.3278280">
	<ele>658.40</ele>
	<time>2025-07-30T05:29:39.000Z</time>
</trkpt>
<trkpt lat="46.0330940" lon="10.3278200">
	<ele>658.40</ele>
	<time>2025-07-30T05:29:40.000Z</time>
</trkpt>
<trkpt lat="46.0330870" lon="10.3278070">
	<ele>658.40</ele>
	<time>2025-07-30T05:29:41.000Z</time>
</trkpt>
<trkpt lat="46.0330820" lon="10.3278000">
	<ele>658.40</ele>
	<time>2025-07-30T05:29:42.000Z</time>
</trkpt>
<trkpt lat="46.0330700" lon="10.3277760">
	<ele>658.40</ele>
	<time>2025-07-30T05:29:43.000Z</time>
</trkpt>
<trkpt lat="46.0330660" lon="10.3277720">
	<ele>658.40</ele>
	<time>2025-07-30T05:29:44.000Z</time>
</trkpt>
<trkpt lat="46.0330630" lon="10.3277640">
	<ele>658.40</ele>
	<time>2025-07-30T05:29:45.000Z</time>
</trkpt>
<trkpt lat="46.0330630" lon="10.3277600">
	<ele>658.40</ele>
	<time>2025-07-30T05:29:46.000Z</time>
</trkpt>
<trkpt lat="46.0330640" lon="10.3277440">
	<ele>658.40</ele>
	<time>2025-07-30T05:29:47.000Z</time>
</trkpt>
<trkpt lat="46.0330640" lon="10.3277330">
	<ele>658.40</ele>
	<time>2025-07-30T05:29:48.000Z</time>
</trkpt>
<trkpt lat="46.0330600" lon="10.3277250">
	<ele>658.40</ele>
	<time>2025-07-30T05:29:49.000Z</time>
</trkpt>
<trkpt lat="46.0330570" lon="10.3277130">
	<ele>658.20</ele>
	<time>2025-07-30T05:29:50.000Z</time>
</trkpt>
<trkpt lat="46.0330560" lon="10.3276970">
	<ele>658.20</ele>
	<time>2025-07-30T05:29:51.000Z</time>
</trkpt>
<trkpt lat="46.0330550" lon="10.3276810">
	<ele>658.20</ele>
	<time>2025-07-30T05:29:52.000Z</time>
</trkpt>
<trkpt lat="46.0330490" lon="10.3276660">
	<ele>658.20</ele>
	<time>2025-07-30T05:29:53.000Z</time>
</trkpt>
<trkpt lat="46.0330440" lon="10.3276520">
	<ele>658.20</ele>
	<time>2025-07-30T05:29:54.000Z</time>
</trkpt>
<trkpt lat="46.0330400" lon="10.3276330">
	<ele>658.20</ele>
	<time>2025-07-30T05:29:55.000Z</time>
</trkpt>
<trkpt lat="46.0330370" lon="10.3276130">
	<ele>658.20</ele>
	<time>2025-07-30T05:29:56.000Z</time>
</trkpt>
<trkpt lat="46.0330330" lon="10.3275950">
	<ele>658.20</ele>
	<time>2025-07-30T05:29:57.000Z</time>
</trkpt>
<trkpt lat="46.0330270" lon="10.3275760">
	<ele>658.20</ele>
	<time>2025-07-30T05:29:58.000Z</time>
</trkpt>
<trkpt lat="46.0330180" lon="10.3275530">
	<ele>658.00</ele>
	<time>2025-07-30T05:29:59.000Z</time>
</trkpt>
<trkpt lat="46.0330140" lon="10.3275390">
	<ele>658.00</ele>
	<time>2025-07-30T05:30:00.000Z</time>
</trkpt>
<trkpt lat="46.0330100" lon="10.3275290">
	<ele>658.00</ele>
	<time>2025-07-30T05:30:01.000Z</time>
</trkpt>
<trkpt lat="46.0330070" lon="10.3275230">
	<ele>658.00</ele>
	<time>2025-07-30T05:30:02.000Z</time>
</trkpt>
<trkpt lat="46.0330030" lon="10.3275200">
	<ele>658.00</ele>
	<time>2025-07-30T05:30:03.000Z</time>
</trkpt>
<trkpt lat="46.0329980" lon="10.3275160">
	<ele>658.00</ele>
	<time>2025-07-30T05:30:04.000Z</time>
</trkpt>
<trkpt lat="46.0329930" lon="10.3275140">
	<ele>658.00</ele>
	<time>2025-07-30T05:30:05.000Z</time>
</trkpt>
<trkpt lat="46.0329890" lon="10.3275090">
	<ele>658.00</ele>
	<time>2025-07-30T05:30:06.000Z</time>
</trkpt>
<trkpt lat="46.0329810" lon="10.3275020">
	<ele>658.00</ele>
	<time>2025-07-30T05:30:07.000Z</time>
</trkpt>
<trkpt lat="46.0329710" lon="10.3274930">
	<ele>658.00</ele>
	<time>2025-07-30T05:30:08.000Z</time>
</trkpt>
<trkpt lat="46.0329670" lon="10.3274760">
	<ele>658.00</ele>
	<time>2025-07-30T05:30:09.000Z</time>
</trkpt>
<trkpt lat="46.0329640" lon="10.3274630">
	<ele>658.00</ele>
	<time>2025-07-30T05:30:10.000Z</time>
</trkpt>
<trkpt lat="46.0329590" lon="10.3274520">
	<ele>658.00</ele>
	<time>2025-07-30T05:30:11.000Z</time>
</trkpt>
<trkpt lat="46.0329540" lon="10.3274410">
	<ele>657.80</ele>
	<time>2025-07-30T05:30:12.000Z</time>
</trkpt>
<trkpt lat="46.0329440" lon="10.3274380">
	<ele>657.80</ele>
	<time>2025-07-30T05:30:13.000Z</time>
</trkpt>
<trkpt lat="46.0329370" lon="10.3274270">
	<ele>657.60</ele>
	<time>2025-07-30T05:30:14.000Z</time>
</trkpt>
<trkpt lat="46.0329250" lon="10.3274180">
	<ele>657.60</ele>
	<time>2025-07-30T05:30:15.000Z</time>
</trkpt>
<trkpt lat="46.0329140" lon="10.3274000">
	<ele>657.40</ele>
	<time>2025-07-30T05:30:16.000Z</time>
</trkpt>
<trkpt lat="46.0329080" lon="10.3273820">
	<ele>657.20</ele>
	<time>2025-07-30T05:30:17.000Z</time>
</trkpt>
<trkpt lat="46.0329090" lon="10.3273720">
	<ele>657.20</ele>
	<time>2025-07-30T05:30:18.000Z</time>
</trkpt>
<trkpt lat="46.0329060" lon="10.3273640">
	<ele>657.20</ele>
	<time>2025-07-30T05:30:19.000Z</time>
</trkpt>
<trkpt lat="46.0328960" lon="10.3273560">
	<ele>657.00</ele>
	<time>2025-07-30T05:30:20.000Z</time>
</trkpt>
<trkpt lat="46.0328850" lon="10.3273480">
	<ele>657.00</ele>
	<time>2025-07-30T05:30:21.000Z</time>
</trkpt>
<trkpt lat="46.0328730" lon="10.3273340">
	<ele>657.00</ele>
	<time>2025-07-30T05:30:22.000Z</time>
</trkpt>
<trkpt lat="46.0328560" lon="10.3273260">
	<ele>656.80</ele>
	<time>2025-07-30T05:30:23.000Z</time>
</trkpt>
<trkpt lat="46.0328510" lon="10.3273170">
	<ele>656.80</ele>
	<time>2025-07-30T05:30:24.000Z</time>
</trkpt>
<trkpt lat="46.0328480" lon="10.3273120">
	<ele>656.80</ele>
	<time>2025-07-30T05:30:25.000Z</time>
</trkpt>
<trkpt lat="46.0328420" lon="10.3273040">
	<ele>656.60</ele>
	<time>2025-07-30T05:30:26.000Z</time>
</trkpt>
<trkpt lat="46.0328400" lon="10.3272950">
	<ele>656.60</ele>
	<time>2025-07-30T05:30:27.000Z</time>
</trkpt>
<trkpt lat="46.0328330" lon="10.3272910">
	<ele>656.40</ele>
	<time>2025-07-30T05:30:28.000Z</time>
</trkpt>
<trkpt lat="46.0328260" lon="10.3272820">
	<ele>656.20</ele>
	<time>2025-07-30T05:30:29.000Z</time>
</trkpt>
<trkpt lat="46.0328370" lon="10.3272700">
	<ele>656.20</ele>
	<time>2025-07-30T05:30:30.000Z</time>
</trkpt>
<trkpt lat="46.0328390" lon="10.3272670">
	<ele>656.00</ele>
	<time>2025-07-30T05:30:31.000Z</time>
</trkpt>
<trkpt lat="46.0328320" lon="10.3272610">
	<ele>656.00</ele>
	<time>2025-07-30T05:30:32.000Z</time>
</trkpt>
<trkpt lat="46.0328280" lon="10.3272670">
	<ele>655.80</ele>
	<time>2025-07-30T05:30:33.000Z</time>
</trkpt>
<trkpt lat="46.0328180" lon="10.3272690">
	<ele>655.80</ele>
	<time>2025-07-30T05:30:34.000Z</time>
</trkpt>
<trkpt lat="46.0328110" lon="10.3272690">
	<ele>655.80</ele>
	<time>2025-07-30T05:30:35.000Z</time>
</trkpt>
<trkpt lat="46.0328080" lon="10.3272560">
	<ele>656.00</ele>
	<time>2025-07-30T05:30:36.000Z</time>
</trkpt>
<trkpt lat="46.0328040" lon="10.3272410">
	<ele>656.00</ele>
	<time>2025-07-30T05:30:37.000Z</time>
</trkpt>
<trkpt lat="46.0328290" lon="10.3272130">
	<ele>656.20</ele>
	<time>2025-07-30T05:30:38.000Z</time>
</trkpt>
<trkpt lat="46.0328320" lon="10.3271990">
	<ele>656.20</ele>
	<time>2025-07-30T05:30:39.000Z</time>
</trkpt>
<trkpt lat="46.0328310" lon="10.3271860">
	<ele>656.20</ele>
	<time>2025-07-30T05:30:40.000Z</time>
</trkpt>
<trkpt lat="46.0328280" lon="10.3271740">
	<ele>656.40</ele>
	<time>2025-07-30T05:30:41.000Z</time>
</trkpt>
<trkpt lat="46.0328130" lon="10.3271570">
	<ele>656.20</ele>
	<time>2025-07-30T05:30:42.000Z</time>
</trkpt>
<trkpt lat="46.0328070" lon="10.3271370">
	<ele>656.00</ele>
	<time>2025-07-30T05:30:43.000Z</time>
</trkpt>
<trkpt lat="46.0328050" lon="10.3271190">
	<ele>656.00</ele>
	<time>2025-07-30T05:30:44.000Z</time>
</trkpt>
<trkpt lat="46.0328020" lon="10.3271090">
	<ele>655.80</ele>
	<time>2025-07-30T05:30:45.000Z</time>
</trkpt>
<trkpt lat="46.0328020" lon="10.3270930">
	<ele>655.80</ele>
	<time>2025-07-30T05:30:46.000Z</time>
</trkpt>
<trkpt lat="46.0327980" lon="10.3270840">
	<ele>655.80</ele>
	<time>2025-07-30T05:30:47.000Z</time>
</trkpt>
<trkpt lat="46.0327890" lon="10.3270540">
	<ele>655.80</ele>
	<time>2025-07-30T05:30:48.000Z</time>
</trkpt>
<trkpt lat="46.0327910" lon="10.3270310">
	<ele>655.80</ele>
	<time>2025-07-30T05:30:49.000Z</time>
</trkpt>
<trkpt lat="46.0327950" lon="10.3270150">
	<ele>655.80</ele>
	<time>2025-07-30T05:30:50.000Z</time>
</trkpt>
<trkpt lat="46.0328060" lon="10.3270060">
	<ele>655.80</ele>
	<time>2025-07-30T05:30:51.000Z</time>
</trkpt>
<trkpt lat="46.0328120" lon="10.3269930">
	<ele>655.80</ele>
	<time>2025-07-30T05:30:52.000Z</time>
</trkpt>
<trkpt lat="46.0328100" lon="10.3269760">
	<ele>655.80</ele>
	<time>2025-07-30T05:30:53.000Z</time>
</trkpt>
<trkpt lat="46.0328090" lon="10.3269590">
	<ele>655.80</ele>
	<time>2025-07-30T05:30:54.000Z</time>
</trkpt>
<trkpt lat="46.0328110" lon="10.3269540">
	<ele>655.80</ele>
	<time>2025-07-30T05:30:55.000Z</time>
</trkpt>
<trkpt lat="46.0328050" lon="10.3269330">
	<ele>655.80</ele>
	<time>2025-07-30T05:30:56.000Z</time>
</trkpt>
<trkpt lat="46.0328010" lon="10.3269270">
	<ele>655.80</ele>
	<time>2025-07-30T05:30:57.000Z</time>
</trkpt>
<trkpt lat="46.0327930" lon="10.3269400">
	<ele>655.80</ele>
	<time>2025-07-30T05:30:58.000Z</time>
</trkpt>
<trkpt lat="46.0327870" lon="10.3269380">
	<ele>655.80</ele>
	<time>2025-07-30T05:30:59.000Z</time>
</trkpt>
<trkpt lat="46.0327900" lon="10.3269530">
	<ele>655.80</ele>
	<time>2025-07-30T05:31:00.000Z</time>
</trkpt>
<trkpt lat="46.0327920" lon="10.3269370">
	<ele>655.80</ele>
	<time>2025-07-30T05:31:01.000Z</time>
</trkpt>
<trkpt lat="46.0327930" lon="10.3269200">
	<ele>655.80</ele>
	<time>2025-07-30T05:31:02.000Z</time>
</trkpt>
<trkpt lat="46.0327920" lon="10.3269110">
	<ele>655.80</ele>
	<time>2025-07-30T05:31:03.000Z</time>
</trkpt>
<trkpt lat="46.0327900" lon="10.3269040">
	<ele>655.80</ele>
	<time>2025-07-30T05:31:04.000Z</time>
</trkpt>
<trkpt lat="46.0327900" lon="10.3268970">
	<ele>655.80</ele>
	<time>2025-07-30T05:31:05.000Z</time>
</trkpt>
<trkpt lat="46.0327870" lon="10.3268900">
	<ele>655.80</ele>
	<time>2025-07-30T05:31:06.000Z</time>
</trkpt>
<trkpt lat="46.0327880" lon="10.3268900">
	<ele>655.80</ele>
	<time>2025-07-30T05:31:07.000Z</time>
</trkpt>
<trkpt lat="46.0327880" lon="10.3268890">
	<ele>655.80</ele>
	<time>2025-07-30T05:31:08.000Z</time>
</trkpt>
<trkpt lat="46.0327860" lon="10.3268850">
	<ele>655.80</ele>
	<time>2025-07-30T05:31:09.000Z</time>
</trkpt>
<trkpt lat="46.0327830" lon="10.3268810">
	<ele>656.00</ele>
	<time>2025-07-30T05:31:10.000Z</time>
</trkpt>
<trkpt lat="46.0327810" lon="10.3268810">
	<ele>656.00</ele>
	<time>2025-07-30T05:31:11.000Z</time>
</trkpt>
<trkpt lat="46.0327770" lon="10.3268830">
	<ele>656.00</ele>
	<time>2025-07-30T05:31:12.000Z</time>
</trkpt>
<trkpt lat="46.0327730" lon="10.3268820">
	<ele>656.00</ele>
	<time>2025-07-30T05:31:13.000Z</time>
</trkpt>
<trkpt lat="46.0327700" lon="10.3268780">
	<ele>656.00</ele>
	<time>2025-07-30T05:31:14.000Z</time>
</trkpt>
<trkpt lat="46.0327610" lon="10.3268770">
	<ele>655.80</ele>
	<time>2025-07-30T05:31:15.000Z</time>
</trkpt>
<trkpt lat="46.0327440" lon="10.3268740">
	<ele>655.40</ele>
	<time>2025-07-30T05:31:16.000Z</time>
</trkpt>
<trkpt lat="46.0327260" lon="10.3268750">
	<ele>655.20</ele>
	<time>2025-07-30T05:31:17.000Z</time>
</trkpt>
<trkpt lat="46.0327040" lon="10.3268830">
	<ele>655.20</ele>
	<time>2025-07-30T05:31:18.000Z</time>
</trkpt>
<trkpt lat="46.0326940" lon="10.3268820">
	<ele>655.00</ele>
	<time>2025-07-30T05:31:19.000Z</time>
</trkpt>
<trkpt lat="46.0327010" lon="10.3268660">
	<ele>655.00</ele>
	<time>2025-07-30T05:31:20.000Z</time>
</trkpt>
<trkpt lat="46.0327050" lon="10.3268500">
	<ele>654.80</ele>
	<time>2025-07-30T05:31:21.000Z</time>
</trkpt>
<trkpt lat="46.0327090" lon="10.3268350">
	<ele>655.00</ele>
	<time>2025-07-30T05:31:22.000Z</time>
</trkpt>
<trkpt lat="46.0327020" lon="10.3268260">
	<ele>655.00</ele>
	<time>2025-07-30T05:31:23.000Z</time>
</trkpt>
<trkpt lat="46.0326890" lon="10.3268230">
	<ele>655.00</ele>
	<time>2025-07-30T05:31:24.000Z</time>
</trkpt>
<trkpt lat="46.0326840" lon="10.3268130">
	<ele>655.20</ele>
	<time>2025-07-30T05:31:25.000Z</time>
</trkpt>
<trkpt lat="46.0326700" lon="10.3268080">
	<ele>655.20</ele>
	<time>2025-07-30T05:31:26.000Z</time>
</trkpt>
<trkpt lat="46.0326680" lon="10.3267880">
	<ele>655.20</ele>
	<time>2025-07-30T05:31:27.000Z</time>
</trkpt>
<trkpt lat="46.0326540" lon="10.3267750">
	<ele>655.20</ele>
	<time>2025-07-30T05:31:28.000Z</time>
</trkpt>
<trkpt lat="46.0326420" lon="10.3267730">
	<ele>655.40</ele>
	<time>2025-07-30T05:31:29.000Z</time>
</trkpt>
<trkpt lat="46.0326250" lon="10.3267710">
	<ele>655.40</ele>
	<time>2025-07-30T05:31:30.000Z</time>
</trkpt>
<trkpt lat="46.0326070" lon="10.3267670">
	<ele>655.40</ele>
	<time>2025-07-30T05:31:31.000Z</time>
</trkpt>
<trkpt lat="46.0325880" lon="10.3267650">
	<ele>655.60</ele>
	<time>2025-07-30T05:31:32.000Z</time>
</trkpt>
<trkpt lat="46.0325700" lon="10.3267590">
	<ele>655.80</ele>
	<time>2025-07-30T05:31:33.000Z</time>
</trkpt>
<trkpt lat="46.0325830" lon="10.3267330">
	<ele>656.00</ele>
	<time>2025-07-30T05:31:34.000Z</time>
</trkpt>
<trkpt lat="46.0325860" lon="10.3267100">
	<ele>656.00</ele>
	<time>2025-07-30T05:31:35.000Z</time>
</trkpt>
<trkpt lat="46.0325910" lon="10.3266830">
	<ele>656.20</ele>
	<time>2025-07-30T05:31:36.000Z</time>
</trkpt>
<trkpt lat="46.0325920" lon="10.3266600">
	<ele>656.20</ele>
	<time>2025-07-30T05:31:37.000Z</time>
</trkpt>
<trkpt lat="46.0325890" lon="10.3266390">
	<ele>656.40</ele>
	<time>2025-07-30T05:31:38.000Z</time>
</trkpt>
<trkpt lat="46.0325880" lon="10.3266210">
	<ele>656.40</ele>
	<time>2025-07-30T05:31:39.000Z</time>
</trkpt>
<trkpt lat="46.0325800" lon="10.3266040">
	<ele>656.80</ele>
	<time>2025-07-30T05:31:40.000Z</time>
</trkpt>
<trkpt lat="46.0325680" lon="10.3265950">
	<ele>657.00</ele>
	<time>2025-07-30T05:31:41.000Z</time>
</trkpt>
<trkpt lat="46.0325760" lon="10.3265790">
	<ele>657.20</ele>
	<time>2025-07-30T05:31:42.000Z</time>
</trkpt>
<trkpt lat="46.0325860" lon="10.3265650">
	<ele>657.40</ele>
	<time>2025-07-30T05:31:43.000Z</time>
</trkpt>
<trkpt lat="46.0325860" lon="10.3265620">
	<ele>657.60</ele>
	<time>2025-07-30T05:31:44.000Z</time>
</trkpt>
<trkpt lat="46.0325930" lon="10.3265580">
	<ele>657.60</ele>
	<time>2025-07-30T05:31:45.000Z</time>
</trkpt>
<trkpt lat="46.0325980" lon="10.3265520">
	<ele>657.80</ele>
	<time>2025-07-30T05:31:46.000Z</time>
</trkpt>
<trkpt lat="46.0326010" lon="10.3265470">
	<ele>657.80</ele>
	<time>2025-07-30T05:31:47.000Z</time>
</trkpt>
<trkpt lat="46.0326040" lon="10.3265390">
	<ele>657.80</ele>
	<time>2025-07-30T05:31:48.000Z</time>
</trkpt>
<trkpt lat="46.0326100" lon="10.3265230">
	<ele>657.80</ele>
	<time>2025-07-30T05:31:49.000Z</time>
</trkpt>
<trkpt lat="46.0326110" lon="10.3265060">
	<ele>657.60</ele>
	<time>2025-07-30T05:31:50.000Z</time>
</trkpt>
<trkpt lat="46.0326120" lon="10.3264910">
	<ele>657.40</ele>
	<time>2025-07-30T05:31:51.000Z</time>
</trkpt>
<trkpt lat="46.0326170" lon="10.3264760">
	<ele>657.40</ele>
	<time>2025-07-30T05:31:52.000Z</time>
</trkpt>
<trkpt lat="46.0326210" lon="10.3264620">
	<ele>657.40</ele>
	<time>2025-07-30T05:31:53.000Z</time>
</trkpt>
<trkpt lat="46.0326250" lon="10.3264450">
	<ele>657.40</ele>
	<time>2025-07-30T05:31:54.000Z</time>
</trkpt>
<trkpt lat="46.0326320" lon="10.3264210">
	<ele>657.60</ele>
	<time>2025-07-30T05:31:55.000Z</time>
</trkpt>
<trkpt lat="46.0326330" lon="10.3264030">
	<ele>657.60</ele>
	<time>2025-07-30T05:31:56.000Z</time>
</trkpt>
<trkpt lat="46.0326240" lon="10.3263920">
	<ele>657.80</ele>
	<time>2025-07-30T05:31:57.000Z</time>
</trkpt>
<trkpt lat="46.0326240" lon="10.3263770">
	<ele>658.00</ele>
	<time>2025-07-30T05:31:58.000Z</time>
</trkpt>
<trkpt lat="46.0326270" lon="10.3263630">
	<ele>658.00</ele>
	<time>2025-07-30T05:31:59.000Z</time>
</trkpt>
<trkpt lat="46.0326290" lon="10.3263440">
	<ele>658.20</ele>
	<time>2025-07-30T05:32:00.000Z</time>
</trkpt>
<trkpt lat="46.0326310" lon="10.3263230">
	<ele>658.40</ele>
	<time>2025-07-30T05:32:01.000Z</time>
</trkpt>
<trkpt lat="46.0326250" lon="10.3262990">
	<ele>658.60</ele>
	<time>2025-07-30T05:32:02.000Z</time>
</trkpt>
<trkpt lat="46.0326010" lon="10.3262840">
	<ele>658.60</ele>
	<time>2025-07-30T05:32:03.000Z</time>
</trkpt>
<trkpt lat="46.0325710" lon="10.3262660">
	<ele>658.80</ele>
	<time>2025-07-30T05:32:04.000Z</time>
</trkpt>
<trkpt lat="46.0325440" lon="10.3262420">
	<ele>659.00</ele>
	<time>2025-07-30T05:32:05.000Z</time>
</trkpt>
<trkpt lat="46.0325500" lon="10.3262140">
	<ele>659.20</ele>
	<time>2025-07-30T05:32:06.000Z</time>
</trkpt>
<trkpt lat="46.0325570" lon="10.3261790">
	<ele>659.40</ele>
	<time>2025-07-30T05:32:07.000Z</time>
</trkpt>
<trkpt lat="46.0325700" lon="10.3261720">
	<ele>659.60</ele>
	<time>2025-07-30T05:32:08.000Z</time>
</trkpt>
<trkpt lat="46.0325730" lon="10.3261650">
	<ele>659.80</ele>
	<time>2025-07-30T05:32:09.000Z</time>
</trkpt>
<trkpt lat="46.0325750" lon="10.3261570">
	<ele>660.00</ele>
	<time>2025-07-30T05:32:10.000Z</time>
</trkpt>
<trkpt lat="46.0325810" lon="10.3261500">
	<ele>660.20</ele>
	<time>2025-07-30T05:32:11.000Z</time>
</trkpt>
<trkpt lat="46.0325930" lon="10.3261240">
	<ele>660.20</ele>
	<time>2025-07-30T05:32:12.000Z</time>
</trkpt>
<trkpt lat="46.0326190" lon="10.3260990">
	<ele>660.40</ele>
	<time>2025-07-30T05:32:13.000Z</time>
</trkpt>
<trkpt lat="46.0326280" lon="10.3260870">
	<ele>660.60</ele>
	<time>2025-07-30T05:32:14.000Z</time>
</trkpt>
<trkpt lat="46.0326330" lon="10.3260810">
	<ele>661.00</ele>
	<time>2025-07-30T05:32:15.000Z</time>
</trkpt>
<trkpt lat="46.0326300" lon="10.3260690">
	<ele>661.20</ele>
	<time>2025-07-30T05:32:16.000Z</time>
</trkpt>
<trkpt lat="46.0326260" lon="10.3260510">
	<ele>661.40</ele>
	<time>2025-07-30T05:32:17.000Z</time>
</trkpt>
<trkpt lat="46.0326200" lon="10.3260330">
	<ele>661.40</ele>
	<time>2025-07-30T05:32:18.000Z</time>
</trkpt>
<trkpt lat="46.0326190" lon="10.3260190">
	<ele>661.60</ele>
	<time>2025-07-30T05:32:19.000Z</time>
</trkpt>
<trkpt lat="46.0326210" lon="10.3259980">
	<ele>661.80</ele>
	<time>2025-07-30T05:32:20.000Z</time>
</trkpt>
<trkpt lat="46.0326210" lon="10.3259920">
	<ele>662.00</ele>
	<time>2025-07-30T05:32:21.000Z</time>
</trkpt>
<trkpt lat="46.0326210" lon="10.3259790">
	<ele>662.20</ele>
	<time>2025-07-30T05:32:22.000Z</time>
</trkpt>
<trkpt lat="46.0326230" lon="10.3259640">
	<ele>662.40</ele>
	<time>2025-07-30T05:32:23.000Z</time>
</trkpt>
<trkpt lat="46.0326200" lon="10.3259530">
	<ele>663.00</ele>
	<time>2025-07-30T05:32:24.000Z</time>
</trkpt>
<trkpt lat="46.0326200" lon="10.3259450">
	<ele>663.20</ele>
	<time>2025-07-30T05:32:25.000Z</time>
</trkpt>
<trkpt lat="46.0326170" lon="10.3259400">
	<ele>663.20</ele>
	<time>2025-07-30T05:32:26.000Z</time>
</trkpt>
<trkpt lat="46.0326170" lon="10.3259380">
	<ele>663.40</ele>
	<time>2025-07-30T05:32:27.000Z</time>
</trkpt>
<trkpt lat="46.0326160" lon="10.3259350">
	<ele>663.20</ele>
	<time>2025-07-30T05:32:28.000Z</time>
</trkpt>
<trkpt lat="46.0326150" lon="10.3259250">
	<ele>663.00</ele>
	<time>2025-07-30T05:32:29.000Z</time>
</trkpt>
<trkpt lat="46.0326130" lon="10.3259200">
	<ele>663.00</ele>
	<time>2025-07-30T05:32:30.000Z</time>
</trkpt>
<trkpt lat="46.0326160" lon="10.3259130">
	<ele>663.00</ele>
	<time>2025-07-30T05:32:31.000Z</time>
</trkpt>
<trkpt lat="46.0326270" lon="10.3259170">
	<ele>663.00</ele>
	<time>2025-07-30T05:32:32.000Z</time>
</trkpt>
<trkpt lat="46.0326350" lon="10.3259190">
	<ele>663.20</ele>
	<time>2025-07-30T05:32:33.000Z</time>
</trkpt>
<trkpt lat="46.0326400" lon="10.3259280">
	<ele>663.40</ele>
	<time>2025-07-30T05:32:34.000Z</time>
</trkpt>
<trkpt lat="46.0326450" lon="10.3259360">
	<ele>663.60</ele>
	<time>2025-07-30T05:32:35.000Z</time>
</trkpt>
<trkpt lat="46.0326530" lon="10.3259360">
	<ele>663.80</ele>
	<time>2025-07-30T05:32:36.000Z</time>
</trkpt>
<trkpt lat="46.0326560" lon="10.3259390">
	<ele>663.80</ele>
	<time>2025-07-30T05:32:37.000Z</time>
</trkpt>
<trkpt lat="46.0326590" lon="10.3259420">
	<ele>664.20</ele>
	<time>2025-07-30T05:32:38.000Z</time>
</trkpt>
<trkpt lat="46.0326640" lon="10.3259390">
	<ele>664.40</ele>
	<time>2025-07-30T05:32:39.000Z</time>
</trkpt>
<trkpt lat="46.0326640" lon="10.3259380">
	<ele>664.60</ele>
	<time>2025-07-30T05:32:40.000Z</time>
</trkpt>
<trkpt lat="46.0326670" lon="10.3259420">
	<ele>665.00</ele>
	<time>2025-07-30T05:32:41.000Z</time>
</trkpt>
<trkpt lat="46.0326710" lon="10.3259310">
	<ele>665.00</ele>
	<time>2025-07-30T05:32:42.000Z</time>
</trkpt>
<trkpt lat="46.0326840" lon="10.3259260">
	<ele>665.20</ele>
	<time>2025-07-30T05:32:43.000Z</time>
</trkpt>
<trkpt lat="46.0327000" lon="10.3258960">
	<ele>665.40</ele>
	<time>2025-07-30T05:32:44.000Z</time>
</trkpt>
<trkpt lat="46.0327100" lon="10.3258690">
	<ele>665.60</ele>
	<time>2025-07-30T05:32:45.000Z</time>
</trkpt>
<trkpt lat="46.0327150" lon="10.3258410">
	<ele>665.80</ele>
	<time>2025-07-30T05:32:46.000Z</time>
</trkpt>
<trkpt lat="46.0327150" lon="10.3258320">
	<ele>666.00</ele>
	<time>2025-07-30T05:32:47.000Z</time>
</trkpt>
<trkpt lat="46.0327050" lon="10.3258070">
	<ele>666.20</ele>
	<time>2025-07-30T05:32:48.000Z</time>
</trkpt>
<trkpt lat="46.0326980" lon="10.3257760">
	<ele>666.40</ele>
	<time>2025-07-30T05:32:49.000Z</time>
</trkpt>
<trkpt lat="46.0326990" lon="10.3257430">
	<ele>666.60</ele>
	<time>2025-07-30T05:32:50.000Z</time>
</trkpt>
<trkpt lat="46.0326770" lon="10.3257190">
	<ele>666.80</ele>
	<time>2025-07-30T05:32:51.000Z</time>
</trkpt>
<trkpt lat="46.0326570" lon="10.3257060">
	<ele>667.20</ele>
	<time>2025-07-30T05:32:52.000Z</time>
</trkpt>
<trkpt lat="46.0326390" lon="10.3256980">
	<ele>667.40</ele>
	<time>2025-07-30T05:32:53.000Z</time>
</trkpt>
<trkpt lat="46.0326240" lon="10.3256930">
	<ele>667.60</ele>
	<time>2025-07-30T05:32:54.000Z</time>
</trkpt>
<trkpt lat="46.0326170" lon="10.3256760">
	<ele>668.00</ele>
	<time>2025-07-30T05:32:55.000Z</time>
</trkpt>
<trkpt lat="46.0326070" lon="10.3256630">
	<ele>668.20</ele>
	<time>2025-07-30T05:32:56.000Z</time>
</trkpt>
<trkpt lat="46.0325970" lon="10.3256540">
	<ele>668.20</ele>
	<time>2025-07-30T05:32:57.000Z</time>
</trkpt>
<trkpt lat="46.0326040" lon="10.3256350">
	<ele>668.40</ele>
	<time>2025-07-30T05:32:58.000Z</time>
</trkpt>
<trkpt lat="46.0326080" lon="10.3256100">
	<ele>668.80</ele>
	<time>2025-07-30T05:32:59.000Z</time>
</trkpt>
<trkpt lat="46.0325790" lon="10.3256060">
	<ele>669.00</ele>
	<time>2025-07-30T05:33:00.000Z</time>
</trkpt>
<trkpt lat="46.0325470" lon="10.3255840">
	<ele>669.20</ele>
	<time>2025-07-30T05:33:01.000Z</time>
</trkpt>
<trkpt lat="46.0325200" lon="10.3255720">
	<ele>669.40</ele>
	<time>2025-07-30T05:33:02.000Z</time>
</trkpt>
<trkpt lat="46.0325070" lon="10.3255540">
	<ele>669.40</ele>
	<time>2025-07-30T05:33:03.000Z</time>
</trkpt>
<trkpt lat="46.0325190" lon="10.3255340">
	<ele>669.60</ele>
	<time>2025-07-30T05:33:04.000Z</time>
</trkpt>
<trkpt lat="46.0325380" lon="10.3255080">
	<ele>669.80</ele>
	<time>2025-07-30T05:33:05.000Z</time>
</trkpt>
<trkpt lat="46.0325480" lon="10.3254830">
	<ele>670.00</ele>
	<time>2025-07-30T05:33:06.000Z</time>
</trkpt>
<trkpt lat="46.0325560" lon="10.3254620">
	<ele>670.20</ele>
	<time>2025-07-30T05:33:07.000Z</time>
</trkpt>
<trkpt lat="46.0325670" lon="10.3254420">
	<ele>670.20</ele>
	<time>2025-07-30T05:33:08.000Z</time>
</trkpt>
<trkpt lat="46.0325740" lon="10.3254270">
	<ele>670.40</ele>
	<time>2025-07-30T05:33:09.000Z</time>
</trkpt>
<trkpt lat="46.0325780" lon="10.3254240">
	<ele>670.80</ele>
	<time>2025-07-30T05:33:10.000Z</time>
</trkpt>
<trkpt lat="46.0325860" lon="10.3254230">
	<ele>671.20</ele>
	<time>2025-07-30T05:33:11.000Z</time>
</trkpt>
<trkpt lat="46.0325970" lon="10.3254160">
	<ele>671.40</ele>
	<time>2025-07-30T05:33:12.000Z</time>
</trkpt>
<trkpt lat="46.0326090" lon="10.3254070">
	<ele>671.60</ele>
	<time>2025-07-30T05:33:13.000Z</time>
</trkpt>
<trkpt lat="46.0326120" lon="10.3254050">
	<ele>671.60</ele>
	<time>2025-07-30T05:33:14.000Z</time>
</trkpt>
<trkpt lat="46.0326110" lon="10.3254090">
	<ele>671.60</ele>
	<time>2025-07-30T05:33:15.000Z</time>
</trkpt>
<trkpt lat="46.0326130" lon="10.3254120">
	<ele>671.40</ele>
	<time>2025-07-30T05:33:16.000Z</time>
</trkpt>
<trkpt lat="46.0326080" lon="10.3254100">
	<ele>671.20</ele>
	<time>2025-07-30T05:33:17.000Z</time>
</trkpt>
<trkpt lat="46.0326060" lon="10.3254120">
	<ele>671.20</ele>
	<time>2025-07-30T05:33:18.000Z</time>
</trkpt>
<trkpt lat="46.0326150" lon="10.3254040">
	<ele>671.00</ele>
	<time>2025-07-30T05:33:19.000Z</time>
</trkpt>
<trkpt lat="46.0326220" lon="10.3253950">
	<ele>671.20</ele>
	<time>2025-07-30T05:33:20.000Z</time>
</trkpt>
<trkpt lat="46.0326180" lon="10.3253890">
	<ele>671.40</ele>
	<time>2025-07-30T05:33:21.000Z</time>
</trkpt>
<trkpt lat="46.0326190" lon="10.3253770">
	<ele>671.60</ele>
	<time>2025-07-30T05:33:22.000Z</time>
</trkpt>
<trkpt lat="46.0326220" lon="10.3253690">
	<ele>671.60</ele>
	<time>2025-07-30T05:33:23.000Z</time>
</trkpt>
<trkpt lat="46.0326280" lon="10.3253620">
	<ele>671.60</ele>
	<time>2025-07-30T05:33:24.000Z</time>
</trkpt>
<trkpt lat="46.0326360" lon="10.3253570">
	<ele>671.60</ele>
	<time>2025-07-30T05:33:25.000Z</time>
</trkpt>
<trkpt lat="46.0326440" lon="10.3253570">
	<ele>671.40</ele>
	<time>2025-07-30T05:33:26.000Z</time>
</trkpt>
<trkpt lat="46.0326500" lon="10.3253640">
	<ele>671.20</ele>
	<time>2025-07-30T05:33:27.000Z</time>
</trkpt>
<trkpt lat="46.0326530" lon="10.3253640">
	<ele>671.20</ele>
	<time>2025-07-30T05:33:28.000Z</time>
</trkpt>
<trkpt lat="46.0326550" lon="10.3253690">
	<ele>671.20</ele>
	<time>2025-07-30T05:33:29.000Z</time>
</trkpt>
<trkpt lat="46.0326550" lon="10.3253700">
	<ele>671.20</ele>
	<time>2025-07-30T05:33:30.000Z</time>
</trkpt>
<trkpt lat="46.0326490" lon="10.3253720">
	<ele>671.40</ele>
	<time>2025-07-30T05:33:31.000Z</time>
</trkpt>
<trkpt lat="46.0326470" lon="10.3253760">
	<ele>671.20</ele>
	<time>2025-07-30T05:33:32.000Z</time>
</trkpt>
<trkpt lat="46.0326430" lon="10.3253750">
	<ele>671.20</ele>
	<time>2025-07-30T05:33:33.000Z</time>
</trkpt>
<trkpt lat="46.0326400" lon="10.3253770">
	<ele>671.40</ele>
	<time>2025-07-30T05:33:34.000Z</time>
</trkpt>
<trkpt lat="46.0326380" lon="10.3253750">
	<ele>671.20</ele>
	<time>2025-07-30T05:33:35.000Z</time>
</trkpt>
<trkpt lat="46.0326410" lon="10.3253780">
	<ele>671.20</ele>
	<time>2025-07-30T05:33:36.000Z</time>
</trkpt>
<trkpt lat="46.0326520" lon="10.3253820">
	<ele>671.20</ele>
	<time>2025-07-30T05:33:37.000Z</time>
</trkpt>
<trkpt lat="46.0326500" lon="10.3253820">
	<ele>671.20</ele>
	<time>2025-07-30T05:33:38.000Z</time>
</trkpt>
<trkpt lat="46.0326420" lon="10.3253800">
	<ele>671.20</ele>
	<time>2025-07-30T05:33:39.000Z</time>
</trkpt>
<trkpt lat="46.0326350" lon="10.3253730">
	<ele>671.20</ele>
	<time>2025-07-30T05:33:40.000Z</time>
</trkpt>
<trkpt lat="46.0326290" lon="10.3253680">
	<ele>671.20</ele>
	<time>2025-07-30T05:33:41.000Z</time>
</trkpt>
<trkpt lat="46.0326220" lon="10.3253560">
	<ele>671.40</ele>
	<time>2025-07-30T05:33:42.000Z</time>
</trkpt>
<trkpt lat="46.0326180" lon="10.3253370">
	<ele>671.40</ele>
	<time>2025-07-30T05:33:43.000Z</time>
</trkpt>
<trkpt lat="46.0326110" lon="10.3253200">
	<ele>671.40</ele>
	<time>2025-07-30T05:33:44.000Z</time>
</trkpt>
<trkpt lat="46.0326040" lon="10.3253070">
	<ele>671.80</ele>
	<time>2025-07-30T05:33:45.000Z</time>
</trkpt>
<trkpt lat="46.0325920" lon="10.3253260">
	<ele>672.20</ele>
	<time>2025-07-30T05:33:46.000Z</time>
</trkpt>
<trkpt lat="46.0325800" lon="10.3253450">
	<ele>672.40</ele>
	<time>2025-07-30T05:33:47.000Z</time>
</trkpt>
<trkpt lat="46.0325650" lon="10.3253560">
	<ele>672.40</ele>
	<time>2025-07-30T05:33:48.000Z</time>
</trkpt>
<trkpt lat="46.0325580" lon="10.3253480">
	<ele>672.60</ele>
	<time>2025-07-30T05:33:49.000Z</time>
</trkpt>
<trkpt lat="46.0325460" lon="10.3253430">
	<ele>672.60</ele>
	<time>2025-07-30T05:33:50.000Z</time>
</trkpt>
<trkpt lat="46.0325460" lon="10.3253240">
	<ele>672.60</ele>
	<time>2025-07-30T05:33:51.000Z</time>
</trkpt>
<trkpt lat="46.0325370" lon="10.3253040">
	<ele>672.80</ele>
	<time>2025-07-30T05:33:52.000Z</time>
</trkpt>
<trkpt lat="46.0325270" lon="10.3252880">
	<ele>672.80</ele>
	<time>2025-07-30T05:33:53.000Z</time>
</trkpt>
<trkpt lat="46.0325130" lon="10.3252620">
	<ele>672.80</ele>
	<time>2025-07-30T05:33:54.000Z</time>
</trkpt>
<trkpt lat="46.0325040" lon="10.3252490">
	<ele>672.80</ele>
	<time>2025-07-30T05:33:55.000Z</time>
</trkpt>
<trkpt lat="46.0324960" lon="10.3252410">
	<ele>673.00</ele>
	<time>2025-07-30T05:33:56.000Z</time>
</trkpt>
<trkpt lat="46.0324790" lon="10.3252320">
	<ele>673.20</ele>
	<time>2025-07-30T05:33:57.000Z</time>
</trkpt>
<trkpt lat="46.0324640" lon="10.3252280">
	<ele>673.40</ele>
	<time>2025-07-30T05:33:58.000Z</time>
</trkpt>
<trkpt lat="46.0324490" lon="10.3252200">
	<ele>673.60</ele>
	<time>2025-07-30T05:33:59.000Z</time>
</trkpt>
<trkpt lat="46.0324350" lon="10.3252120">
	<ele>673.80</ele>
	<time>2025-07-30T05:34:00.000Z</time>
</trkpt>
<trkpt lat="46.0324210" lon="10.3252010">
	<ele>674.00</ele>
	<time>2025-07-30T05:34:01.000Z</time>
</trkpt>
<trkpt lat="46.0324110" lon="10.3251920">
	<ele>674.20</ele>
	<time>2025-07-30T05:34:02.000Z</time>
</trkpt>
<trkpt lat="46.0324040" lon="10.3251840">
	<ele>674.40</ele>
	<time>2025-07-30T05:34:03.000Z</time>
</trkpt>
<trkpt lat="46.0323930" lon="10.3251700">
	<ele>674.40</ele>
	<time>2025-07-30T05:34:04.000Z</time>
</trkpt>
<trkpt lat="46.0323830" lon="10.3251610">
	<ele>674.80</ele>
	<time>2025-07-30T05:34:05.000Z</time>
</trkpt>
<trkpt lat="46.0323740" lon="10.3251550">
	<ele>675.00</ele>
	<time>2025-07-30T05:34:06.000Z</time>
</trkpt>
<trkpt lat="46.0323650" lon="10.3251480">
	<ele>675.20</ele>
	<time>2025-07-30T05:34:07.000Z</time>
</trkpt>
<trkpt lat="46.0323530" lon="10.3251400">
	<ele>675.40</ele>
	<time>2025-07-30T05:34:08.000Z</time>
</trkpt>
<trkpt lat="46.0323430" lon="10.3251260">
	<ele>675.60</ele>
	<time>2025-07-30T05:34:09.000Z</time>
</trkpt>
<trkpt lat="46.0323300" lon="10.3251140">
	<ele>675.80</ele>
	<time>2025-07-30T05:34:10.000Z</time>
</trkpt>
<trkpt lat="46.0323180" lon="10.3251030">
	<ele>675.80</ele>
	<time>2025-07-30T05:34:11.000Z</time>
</trkpt>
<trkpt lat="46.0323080" lon="10.3250920">
	<ele>676.00</ele>
	<time>2025-07-30T05:34:12.000Z</time>
</trkpt>
<trkpt lat="46.0323000" lon="10.3250760">
	<ele>676.20</ele>
	<time>2025-07-30T05:34:13.000Z</time>
</trkpt>
<trkpt lat="46.0322910" lon="10.3250640">
	<ele>676.20</ele>
	<time>2025-07-30T05:34:14.000Z</time>
</trkpt>
<trkpt lat="46.0322840" lon="10.3250570">
	<ele>676.40</ele>
	<time>2025-07-30T05:34:15.000Z</time>
</trkpt>
<trkpt lat="46.0322800" lon="10.3250480">
	<ele>676.60</ele>
	<time>2025-07-30T05:34:16.000Z</time>
</trkpt>
<trkpt lat="46.0322770" lon="10.3250410">
	<ele>676.60</ele>
	<time>2025-07-30T05:34:17.000Z</time>
</trkpt>
<trkpt lat="46.0322760" lon="10.3250320">
	<ele>676.80</ele>
	<time>2025-07-30T05:34:18.000Z</time>
</trkpt>
<trkpt lat="46.0322730" lon="10.3250250">
	<ele>676.80</ele>
	<time>2025-07-30T05:34:19.000Z</time>
</trkpt>
<trkpt lat="46.0322690" lon="10.3250060">
	<ele>676.80</ele>
	<time>2025-07-30T05:34:20.000Z</time>
</trkpt>
<trkpt lat="46.0322640" lon="10.3249940">
	<ele>677.00</ele>
	<time>2025-07-30T05:34:21.000Z</time>
</trkpt>
<trkpt lat="46.0322560" lon="10.3249860">
	<ele>677.00</ele>
	<time>2025-07-30T05:34:22.000Z</time>
</trkpt>
<trkpt lat="46.0322520" lon="10.3249810">
	<ele>677.20</ele>
	<time>2025-07-30T05:34:23.000Z</time>
</trkpt>
<trkpt lat="46.0322540" lon="10.3249760">
	<ele>677.20</ele>
	<time>2025-07-30T05:34:24.000Z</time>
</trkpt>
<trkpt lat="46.0322420" lon="10.3249870">
	<ele>677.20</ele>
	<time>2025-07-30T05:34:25.000Z</time>
</trkpt>
<trkpt lat="46.0322410" lon="10.3249870">
	<ele>677.40</ele>
	<time>2025-07-30T05:34:26.000Z</time>
</trkpt>
<trkpt lat="46.0322370" lon="10.3249870">
	<ele>677.40</ele>
	<time>2025-07-30T05:34:27.000Z</time>
</trkpt>
<trkpt lat="46.0322340" lon="10.3249870">
	<ele>677.40</ele>
	<time>2025-07-30T05:34:28.000Z</time>
</trkpt>
<trkpt lat="46.0322340" lon="10.3249870">
	<ele>677.40</ele>
	<time>2025-07-30T05:34:29.000Z</time>
</trkpt>
<trkpt lat="46.0322340" lon="10.3249870">
	<ele>677.40</ele>
	<time>2025-07-30T05:34:30.000Z</time>
</trkpt>
<trkpt lat="46.0322340" lon="10.3249850">
	<ele>677.60</ele>
	<time>2025-07-30T05:34:31.000Z</time>
</trkpt>
<trkpt lat="46.0322330" lon="10.3249870">
	<ele>677.60</ele>
	<time>2025-07-30T05:34:32.000Z</time>
</trkpt>
<trkpt lat="46.0322320" lon="10.3249880">
	<ele>677.60</ele>
	<time>2025-07-30T05:34:33.000Z</time>
</trkpt>
<trkpt lat="46.0322300" lon="10.3249890">
	<ele>677.60</ele>
	<time>2025-07-30T05:34:34.000Z</time>
</trkpt>
<trkpt lat="46.0322290" lon="10.3249890">
	<ele>677.60</ele>
	<time>2025-07-30T05:34:35.000Z</time>
</trkpt>
<trkpt lat="46.0322290" lon="10.3249890">
	<ele>677.60</ele>
	<time>2025-07-30T05:34:36.000Z</time>
</trkpt>
<trkpt lat="46.0322290" lon="10.3249890">
	<ele>677.60</ele>
	<time>2025-07-30T05:34:37.000Z</time>
</trkpt>
<trkpt lat="46.0322290" lon="10.3249890">
	<ele>677.60</ele>
	<time>2025-07-30T05:34:38.000Z</time>
</trkpt>
<trkpt lat="46.0322290" lon="10.3249890">
	<ele>677.60</ele>
	<time>2025-07-30T05:34:39.000Z</time>
</trkpt>
<trkpt lat="46.0322290" lon="10.3249890">
	<ele>677.60</ele>
	<time>2025-07-30T05:34:40.000Z</time>
</trkpt>
<trkpt lat="46.0322290" lon="10.3249890">
	<ele>677.60</ele>
	<time>2025-07-30T05:34:41.000Z</time>
</trkpt>
<trkpt lat="46.0322290" lon="10.3249890">
	<ele>677.60</ele>
	<time>2025-07-30T05:34:42.000Z</time>
</trkpt>
<trkpt lat="46.0322290" lon="10.3249890">
	<ele>677.60</ele>
	<time>2025-07-30T05:34:43.000Z</time>
</trkpt>
<trkpt lat="46.0322290" lon="10.3249890">
	<ele>677.60</ele>
	<time>2025-07-30T05:34:44.000Z</time>
</trkpt>
<trkpt lat="46.0322290" lon="10.3249890">
	<ele>677.60</ele>
	<time>2025-07-30T05:34:45.000Z</time>
</trkpt>
<trkpt lat="46.0322290" lon="10.3249890">
	<ele>677.60</ele>
	<time>2025-07-30T05:34:46.000Z</time>
</trkpt>
<trkpt lat="46.0322290" lon="10.3249890">
	<ele>677.60</ele>
	<time>2025-07-30T05:34:47.000Z</time>
</trkpt>
<trkpt lat="46.0322290" lon="10.3249890">
	<ele>677.60</ele>
	<time>2025-07-30T05:34:48.000Z</time>
</trkpt>
<trkpt lat="46.0322290" lon="10.3249890">
	<ele>677.60</ele>
	<time>2025-07-30T05:34:49.000Z</time>
</trkpt>
<trkpt lat="46.0322290" lon="10.3249890">
	<ele>677.60</ele>
	<time>2025-07-30T05:34:50.000Z</time>
</trkpt>
<trkpt lat="46.0322290" lon="10.3249890">
	<ele>677.60</ele>
	<time>2025-07-30T05:34:51.000Z</time>
</trkpt>
<trkpt lat="46.0322290" lon="10.3249890">
	<ele>677.60</ele>
	<time>2025-07-30T05:34:52.000Z</time>
</trkpt>
<trkpt lat="46.0322290" lon="10.3249890">
	<ele>677.60</ele>
	<time>2025-07-30T05:34:53.000Z</time>
</trkpt>
<trkpt lat="46.0322290" lon="10.3249910">
	<ele>677.60</ele>
	<time>2025-07-30T05:34:54.000Z</time>
</trkpt>
<trkpt lat="46.0322280" lon="10.3249930">
	<ele>677.60</ele>
	<time>2025-07-30T05:34:55.000Z</time>
</trkpt>
<trkpt lat="46.0322280" lon="10.3249940">
	<ele>677.60</ele>
	<time>2025-07-30T05:34:56.000Z</time>
</trkpt>
<trkpt lat="46.0322280" lon="10.3249950">
	<ele>677.60</ele>
	<time>2025-07-30T05:34:57.000Z</time>
</trkpt>
<trkpt lat="46.0322280" lon="10.3249950">
	<ele>677.60</ele>
	<time>2025-07-30T05:34:58.000Z</time>
</trkpt>
<trkpt lat="46.0322290" lon="10.3249910">
	<ele>677.60</ele>
	<time>2025-07-30T05:34:59.000Z</time>
</trkpt>
<trkpt lat="46.0322250" lon="10.3249850">
	<ele>677.60</ele>
	<time>2025-07-30T05:35:00.000Z</time>
</trkpt>
<trkpt lat="46.0322290" lon="10.3249700">
	<ele>677.60</ele>
	<time>2025-07-30T05:35:01.000Z</time>
</trkpt>
<trkpt lat="46.0322310" lon="10.3249560">
	<ele>677.60</ele>
	<time>2025-07-30T05:35:02.000Z</time>
</trkpt>
<trkpt lat="46.0322320" lon="10.3249400">
	<ele>677.60</ele>
	<time>2025-07-30T05:35:03.000Z</time>
</trkpt>
<trkpt lat="46.0322320" lon="10.3249260">
	<ele>677.60</ele>
	<time>2025-07-30T05:35:04.000Z</time>
</trkpt>
<trkpt lat="46.0322300" lon="10.3249110">
	<ele>677.80</ele>
	<time>2025-07-30T05:35:05.000Z</time>
</trkpt>
<trkpt lat="46.0322300" lon="10.3248950">
	<ele>677.80</ele>
	<time>2025-07-30T05:35:06.000Z</time>
</trkpt>
<trkpt lat="46.0322330" lon="10.3248790">
	<ele>678.00</ele>
	<time>2025-07-30T05:35:07.000Z</time>
</trkpt>
<trkpt lat="46.0322370" lon="10.3248610">
	<ele>678.00</ele>
	<time>2025-07-30T05:35:08.000Z</time>
</trkpt>
<trkpt lat="46.0322430" lon="10.3248520">
	<ele>678.00</ele>
	<time>2025-07-30T05:35:09.000Z</time>
</trkpt>
<trkpt lat="46.0322370" lon="10.3248480">
	<ele>678.00</ele>
	<time>2025-07-30T05:35:10.000Z</time>
</trkpt>
<trkpt lat="46.0322330" lon="10.3248550">
	<ele>678.20</ele>
	<time>2025-07-30T05:35:11.000Z</time>
</trkpt>
<trkpt lat="46.0322290" lon="10.3248540">
	<ele>678.20</ele>
	<time>2025-07-30T05:35:12.000Z</time>
</trkpt>
<trkpt lat="46.0322200" lon="10.3248410">
	<ele>678.40</ele>
	<time>2025-07-30T05:35:13.000Z</time>
</trkpt>
<trkpt lat="46.0322150" lon="10.3248230">
	<ele>678.40</ele>
	<time>2025-07-30T05:35:14.000Z</time>
</trkpt>
<trkpt lat="46.0322120" lon="10.3248080">
	<ele>678.60</ele>
	<time>2025-07-30T05:35:15.000Z</time>
</trkpt>
<trkpt lat="46.0322220" lon="10.3247970">
	<ele>678.60</ele>
	<time>2025-07-30T05:35:16.000Z</time>
</trkpt>
<trkpt lat="46.0322300" lon="10.3247850">
	<ele>678.60</ele>
	<time>2025-07-30T05:35:17.000Z</time>
</trkpt>
<trkpt lat="46.0322330" lon="10.3247810">
	<ele>678.80</ele>
	<time>2025-07-30T05:35:18.000Z</time>
</trkpt>
<trkpt lat="46.0322420" lon="10.3247690">
	<ele>678.80</ele>
	<time>2025-07-30T05:35:19.000Z</time>
</trkpt>
<trkpt lat="46.0322410" lon="10.3247570">
	<ele>679.00</ele>
	<time>2025-07-30T05:35:20.000Z</time>
</trkpt>
<trkpt lat="46.0322330" lon="10.3247440">
	<ele>679.00</ele>
	<time>2025-07-30T05:35:21.000Z</time>
</trkpt>
<trkpt lat="46.0322300" lon="10.3247380">
	<ele>679.00</ele>
	<time>2025-07-30T05:35:22.000Z</time>
</trkpt>
<trkpt lat="46.0322340" lon="10.3247340">
	<ele>679.00</ele>
	<time>2025-07-30T05:35:23.000Z</time>
</trkpt>
<trkpt lat="46.0322450" lon="10.3247280">
	<ele>679.00</ele>
	<time>2025-07-30T05:35:24.000Z</time>
</trkpt>
<trkpt lat="46.0322540" lon="10.3247210">
	<ele>679.00</ele>
	<time>2025-07-30T05:35:25.000Z</time>
</trkpt>
<trkpt lat="46.0322680" lon="10.3247120">
	<ele>679.00</ele>
	<time>2025-07-30T05:35:26.000Z</time>
</trkpt>
<trkpt lat="46.0322880" lon="10.3247030">
	<ele>679.00</ele>
	<time>2025-07-30T05:35:27.000Z</time>
</trkpt>
<trkpt lat="46.0323070" lon="10.3246920">
	<ele>679.20</ele>
	<time>2025-07-30T05:35:28.000Z</time>
</trkpt>
<trkpt lat="46.0323180" lon="10.3246830">
	<ele>679.20</ele>
	<time>2025-07-30T05:35:29.000Z</time>
</trkpt>
<trkpt lat="46.0323300" lon="10.3246730">
	<ele>679.20</ele>
	<time>2025-07-30T05:35:30.000Z</time>
</trkpt>
<trkpt lat="46.0323420" lon="10.3246640">
	<ele>679.20</ele>
	<time>2025-07-30T05:35:31.000Z</time>
</trkpt>
<trkpt lat="46.0323540" lon="10.3246580">
	<ele>679.20</ele>
	<time>2025-07-30T05:35:32.000Z</time>
</trkpt>
<trkpt lat="46.0323660" lon="10.3246520">
	<ele>679.20</ele>
	<time>2025-07-30T05:35:33.000Z</time>
</trkpt>
<trkpt lat="46.0323660" lon="10.3246520">
	<ele>679.40</ele>
	<time>2025-07-30T05:35:34.000Z</time>
</trkpt>
<trkpt lat="46.0323930" lon="10.3246220">
	<ele>679.40</ele>
	<time>2025-07-30T05:35:35.000Z</time>
</trkpt>
<trkpt lat="46.0324020" lon="10.3246100">
	<ele>679.40</ele>
	<time>2025-07-30T05:35:36.000Z</time>
</trkpt>
<trkpt lat="46.0324140" lon="10.3245970">
	<ele>679.60</ele>
	<time>2025-07-30T05:35:37.000Z</time>
</trkpt>
<trkpt lat="46.0324280" lon="10.3245800">
	<ele>679.60</ele>
	<time>2025-07-30T05:35:38.000Z</time>
</trkpt>
<trkpt lat="46.0324440" lon="10.3245650">
	<ele>679.60</ele>
	<time>2025-07-30T05:35:39.000Z</time>
</trkpt>
<trkpt lat="46.0324530" lon="10.3245450">
	<ele>679.60</ele>
	<time>2025-07-30T05:35:40.000Z</time>
</trkpt>
<trkpt lat="46.0324630" lon="10.3245260">
	<ele>679.80</ele>
	<time>2025-07-30T05:35:41.000Z</time>
</trkpt>
<trkpt lat="46.0324790" lon="10.3245150">
	<ele>679.80</ele>
	<time>2025-07-30T05:35:42.000Z</time>
</trkpt>
<trkpt lat="46.0324910" lon="10.3245040">
	<ele>680.00</ele>
	<time>2025-07-30T05:35:43.000Z</time>
</trkpt>
<trkpt lat="46.0325030" lon="10.3244930">
	<ele>680.00</ele>
	<time>2025-07-30T05:35:44.000Z</time>
</trkpt>
<trkpt lat="46.0325140" lon="10.3244860">
	<ele>680.20</ele>
	<time>2025-07-30T05:35:45.000Z</time>
</trkpt>
<trkpt lat="46.0325270" lon="10.3244690">
	<ele>680.40</ele>
	<time>2025-07-30T05:35:46.000Z</time>
</trkpt>
<trkpt lat="46.0325410" lon="10.3244530">
	<ele>680.60</ele>
	<time>2025-07-30T05:35:47.000Z</time>
</trkpt>
<trkpt lat="46.0325560" lon="10.3244390">
	<ele>680.80</ele>
	<time>2025-07-30T05:35:48.000Z</time>
</trkpt>
<trkpt lat="46.0325670" lon="10.3244360">
	<ele>681.00</ele>
	<time>2025-07-30T05:35:49.000Z</time>
</trkpt>
<trkpt lat="46.0325780" lon="10.3244320">
	<ele>681.00</ele>
	<time>2025-07-30T05:35:50.000Z</time>
</trkpt>
<trkpt lat="46.0325900" lon="10.3244270">
	<ele>681.00</ele>
	<time>2025-07-30T05:35:51.000Z</time>
</trkpt>
<trkpt lat="46.0326010" lon="10.3244160">
	<ele>681.20</ele>
	<time>2025-07-30T05:35:52.000Z</time>
</trkpt>
<trkpt lat="46.0326130" lon="10.3244020">
	<ele>681.20</ele>
	<time>2025-07-30T05:35:53.000Z</time>
</trkpt>
<trkpt lat="46.0326220" lon="10.3243900">
	<ele>681.40</ele>
	<time>2025-07-30T05:35:54.000Z</time>
</trkpt>
<trkpt lat="46.0326310" lon="10.3243830">
	<ele>681.40</ele>
	<time>2025-07-30T05:35:55.000Z</time>
</trkpt>
<trkpt lat="46.0326420" lon="10.3243720">
	<ele>681.40</ele>
	<time>2025-07-30T05:35:56.000Z</time>
</trkpt>
<trkpt lat="46.0326580" lon="10.3243650">
	<ele>681.60</ele>
	<time>2025-07-30T05:35:57.000Z</time>
</trkpt>
<trkpt lat="46.0326730" lon="10.3243520">
	<ele>681.60</ele>
	<time>2025-07-30T05:35:58.000Z</time>
</trkpt>
<trkpt lat="46.0326870" lon="10.3243390">
	<ele>681.60</ele>
	<time>2025-07-30T05:35:59.000Z</time>
</trkpt>
<trkpt lat="46.0327000" lon="10.3243350">
	<ele>681.60</ele>
	<time>2025-07-30T05:36:00.000Z</time>
</trkpt>
<trkpt lat="46.0327120" lon="10.3243280">
	<ele>681.80</ele>
	<time>2025-07-30T05:36:01.000Z</time>
</trkpt>
<trkpt lat="46.0327210" lon="10.3243150">
	<ele>681.80</ele>
	<time>2025-07-30T05:36:02.000Z</time>
</trkpt>
<trkpt lat="46.0327330" lon="10.3242940">
	<ele>681.80</ele>
	<time>2025-07-30T05:36:03.000Z</time>
</trkpt>
<trkpt lat="46.0327470" lon="10.3242760">
	<ele>681.80</ele>
	<time>2025-07-30T05:36:04.000Z</time>
</trkpt>
<trkpt lat="46.0327570" lon="10.3242530">
	<ele>682.00</ele>
	<time>2025-07-30T05:36:05.000Z</time>
</trkpt>
<trkpt lat="46.0327670" lon="10.3242470">
	<ele>682.20</ele>
	<time>2025-07-30T05:36:06.000Z</time>
</trkpt>
<trkpt lat="46.0327760" lon="10.3242420">
	<ele>682.40</ele>
	<time>2025-07-30T05:36:07.000Z</time>
</trkpt>
<trkpt lat="46.0327870" lon="10.3242300">
	<ele>682.60</ele>
	<time>2025-07-30T05:36:08.000Z</time>
</trkpt>
<trkpt lat="46.0327970" lon="10.3242240">
	<ele>682.80</ele>
	<time>2025-07-30T05:36:09.000Z</time>
</trkpt>
<trkpt lat="46.0328040" lon="10.3242150">
	<ele>682.80</ele>
	<time>2025-07-30T05:36:10.000Z</time>
</trkpt>
<trkpt lat="46.0328070" lon="10.3242020">
	<ele>683.00</ele>
	<time>2025-07-30T05:36:11.000Z</time>
</trkpt>
<trkpt lat="46.0328010" lon="10.3241900">
	<ele>683.00</ele>
	<time>2025-07-30T05:36:12.000Z</time>
</trkpt>
<trkpt lat="46.0327970" lon="10.3241880">
	<ele>683.00</ele>
	<time>2025-07-30T05:36:13.000Z</time>
</trkpt>
<trkpt lat="46.0327950" lon="10.3241870">
	<ele>683.20</ele>
	<time>2025-07-30T05:36:14.000Z</time>
</trkpt>
<trkpt lat="46.0327930" lon="10.3241870">
	<ele>683.40</ele>
	<time>2025-07-30T05:36:15.000Z</time>
</trkpt>
<trkpt lat="46.0327910" lon="10.3241900">
	<ele>683.40</ele>
	<time>2025-07-30T05:36:16.000Z</time>
</trkpt>
<trkpt lat="46.0327890" lon="10.3241900">
	<ele>683.40</ele>
	<time>2025-07-30T05:36:17.000Z</time>
</trkpt>
<trkpt lat="46.0327860" lon="10.3241900">
	<ele>683.40</ele>
	<time>2025-07-30T05:36:18.000Z</time>
</trkpt>
<trkpt lat="46.0327860" lon="10.3241880">
	<ele>683.40</ele>
	<time>2025-07-30T05:36:19.000Z</time>
</trkpt>
<trkpt lat="46.0327870" lon="10.3241860">
	<ele>683.40</ele>
	<time>2025-07-30T05:36:20.000Z</time>
</trkpt>
<trkpt lat="46.0327900" lon="10.3241910">
	<ele>683.40</ele>
	<time>2025-07-30T05:36:21.000Z</time>
</trkpt>
<trkpt lat="46.0327930" lon="10.3241910">
	<ele>683.40</ele>
	<time>2025-07-30T05:36:22.000Z</time>
</trkpt>
<trkpt lat="46.0327960" lon="10.3241840">
	<ele>683.40</ele>
	<time>2025-07-30T05:36:23.000Z</time>
</trkpt>
<trkpt lat="46.0327990" lon="10.3241820">
	<ele>683.40</ele>
	<time>2025-07-30T05:36:24.000Z</time>
</trkpt>
<trkpt lat="46.0328020" lon="10.3241850">
	<ele>683.40</ele>
	<time>2025-07-30T05:36:25.000Z</time>
</trkpt>
<trkpt lat="46.0328080" lon="10.3241880">
	<ele>683.40</ele>
	<time>2025-07-30T05:36:26.000Z</time>
</trkpt>
<trkpt lat="46.0328160" lon="10.3241940">
	<ele>683.40</ele>
	<time>2025-07-30T05:36:27.000Z</time>
</trkpt>
<trkpt lat="46.0328200" lon="10.3241940">
	<ele>683.40</ele>
	<time>2025-07-30T05:36:28.000Z</time>
</trkpt>
<trkpt lat="46.0328280" lon="10.3241930">
	<ele>683.40</ele>
	<time>2025-07-30T05:36:29.000Z</time>
</trkpt>
<trkpt lat="46.0328360" lon="10.3241840">
	<ele>683.60</ele>
	<time>2025-07-30T05:36:30.000Z</time>
</trkpt>
<trkpt lat="46.0328470" lon="10.3241750">
	<ele>683.60</ele>
	<time>2025-07-30T05:36:31.000Z</time>
</trkpt>
<trkpt lat="46.0328590" lon="10.3241700">
	<ele>683.60</ele>
	<time>2025-07-30T05:36:32.000Z</time>
</trkpt>
<trkpt lat="46.0328690" lon="10.3241660">
	<ele>683.80</ele>
	<time>2025-07-30T05:36:33.000Z</time>
</trkpt>
<trkpt lat="46.0328770" lon="10.3241610">
	<ele>684.00</ele>
	<time>2025-07-30T05:36:34.000Z</time>
</trkpt>
<trkpt lat="46.0328930" lon="10.3241590">
	<ele>684.20</ele>
	<time>2025-07-30T05:36:35.000Z</time>
</trkpt>
<trkpt lat="46.0329050" lon="10.3241530">
	<ele>684.20</ele>
	<time>2025-07-30T05:36:36.000Z</time>
</trkpt>
<trkpt lat="46.0329160" lon="10.3241450">
	<ele>684.40</ele>
	<time>2025-07-30T05:36:37.000Z</time>
</trkpt>
<trkpt lat="46.0329250" lon="10.3241400">
	<ele>684.60</ele>
	<time>2025-07-30T05:36:38.000Z</time>
</trkpt>
<trkpt lat="46.0329320" lon="10.3241330">
	<ele>684.60</ele>
	<time>2025-07-30T05:36:39.000Z</time>
</trkpt>
<trkpt lat="46.0329370" lon="10.3241230">
	<ele>684.80</ele>
	<time>2025-07-30T05:36:40.000Z</time>
</trkpt>
<trkpt lat="46.0329410" lon="10.3241140">
	<ele>685.00</ele>
	<time>2025-07-30T05:36:41.000Z</time>
</trkpt>
<trkpt lat="46.0329490" lon="10.3241070">
	<ele>685.00</ele>
	<time>2025-07-30T05:36:42.000Z</time>
</trkpt>
<trkpt lat="46.0329510" lon="10.3241020">
	<ele>685.20</ele>
	<time>2025-07-30T05:36:43.000Z</time>
</trkpt>
<trkpt lat="46.0329570" lon="10.3240960">
	<ele>685.40</ele>
	<time>2025-07-30T05:36:44.000Z</time>
</trkpt>
<trkpt lat="46.0329580" lon="10.3240940">
	<ele>685.60</ele>
	<time>2025-07-30T05:36:45.000Z</time>
</trkpt>
<trkpt lat="46.0329600" lon="10.3240910">
	<ele>685.80</ele>
	<time>2025-07-30T05:36:46.000Z</time>
</trkpt>
<trkpt lat="46.0329630" lon="10.3240880">
	<ele>686.00</ele>
	<time>2025-07-30T05:36:47.000Z</time>
</trkpt>
<trkpt lat="46.0329650" lon="10.3240870">
	<ele>686.00</ele>
	<time>2025-07-30T05:36:48.000Z</time>
</trkpt>
<trkpt lat="46.0329640" lon="10.3240910">
	<ele>686.20</ele>
	<time>2025-07-30T05:36:49.000Z</time>
</trkpt>
<trkpt lat="46.0329680" lon="10.3240800">
	<ele>686.20</ele>
	<time>2025-07-30T05:36:50.000Z</time>
</trkpt>
<trkpt lat="46.0329690" lon="10.3240760">
	<ele>686.20</ele>
	<time>2025-07-30T05:36:51.000Z</time>
</trkpt>
<trkpt lat="46.0329670" lon="10.3240740">
	<ele>686.20</ele>
	<time>2025-07-30T05:36:52.000Z</time>
</trkpt>
<trkpt lat="46.0329650" lon="10.3240760">
	<ele>686.40</ele>
	<time>2025-07-30T05:36:53.000Z</time>
</trkpt>
<trkpt lat="46.0329610" lon="10.3240760">
	<ele>686.40</ele>
	<time>2025-07-30T05:36:54.000Z</time>
</trkpt>
<trkpt lat="46.0329570" lon="10.3240720">
	<ele>686.40</ele>
	<time>2025-07-30T05:36:55.000Z</time>
</trkpt>
<trkpt lat="46.0329560" lon="10.3240700">
	<ele>686.80</ele>
	<time>2025-07-30T05:36:56.000Z</time>
</trkpt>
<trkpt lat="46.0329560" lon="10.3240690">
	<ele>686.80</ele>
	<time>2025-07-30T05:36:57.000Z</time>
</trkpt>
<trkpt lat="46.0329530" lon="10.3240630">
	<ele>687.00</ele>
	<time>2025-07-30T05:36:58.000Z</time>
</trkpt>
<trkpt lat="46.0329450" lon="10.3240630">
	<ele>687.20</ele>
	<time>2025-07-30T05:36:59.000Z</time>
</trkpt>
<trkpt lat="46.0329380" lon="10.3240600">
	<ele>687.40</ele>
	<time>2025-07-30T05:37:00.000Z</time>
</trkpt>
<trkpt lat="46.0329280" lon="10.3240530">
	<ele>687.60</ele>
	<time>2025-07-30T05:37:01.000Z</time>
</trkpt>
<trkpt lat="46.0329160" lon="10.3240520">
	<ele>687.80</ele>
	<time>2025-07-30T05:37:02.000Z</time>
</trkpt>
<trkpt lat="46.0329070" lon="10.3240520">
	<ele>688.20</ele>
	<time>2025-07-30T05:37:03.000Z</time>
</trkpt>
<trkpt lat="46.0328970" lon="10.3240510">
	<ele>688.60</ele>
	<time>2025-07-30T05:37:04.000Z</time>
</trkpt>
<trkpt lat="46.0328860" lon="10.3240470">
	<ele>688.80</ele>
	<time>2025-07-30T05:37:05.000Z</time>
</trkpt>
<trkpt lat="46.0328750" lon="10.3240360">
	<ele>689.00</ele>
	<time>2025-07-30T05:37:06.000Z</time>
</trkpt>
<trkpt lat="46.0328640" lon="10.3240230">
	<ele>689.40</ele>
	<time>2025-07-30T05:37:07.000Z</time>
</trkpt>
<trkpt lat="46.0328560" lon="10.3240140">
	<ele>689.80</ele>
	<time>2025-07-30T05:37:08.000Z</time>
</trkpt>
<trkpt lat="46.0328480" lon="10.3240110">
	<ele>690.00</ele>
	<time>2025-07-30T05:37:09.000Z</time>
</trkpt>
<trkpt lat="46.0328340" lon="10.3240140">
	<ele>690.20</ele>
	<time>2025-07-30T05:37:10.000Z</time>
</trkpt>
<trkpt lat="46.0328270" lon="10.3240050">
	<ele>690.40</ele>
	<time>2025-07-30T05:37:11.000Z</time>
</trkpt>
<trkpt lat="46.0328250" lon="10.3239870">
	<ele>690.60</ele>
	<time>2025-07-30T05:37:12.000Z</time>
</trkpt>
<trkpt lat="46.0328230" lon="10.3239660">
	<ele>690.60</ele>
	<time>2025-07-30T05:37:13.000Z</time>
</trkpt>
<trkpt lat="46.0328180" lon="10.3239530">
	<ele>690.80</ele>
	<time>2025-07-30T05:37:14.000Z</time>
</trkpt>
<trkpt lat="46.0328110" lon="10.3239460">
	<ele>690.80</ele>
	<time>2025-07-30T05:37:15.000Z</time>
</trkpt>
<trkpt lat="46.0327950" lon="10.3239390">
	<ele>691.00</ele>
	<time>2025-07-30T05:37:16.000Z</time>
</trkpt>
<trkpt lat="46.0327870" lon="10.3239270">
	<ele>691.20</ele>
	<time>2025-07-30T05:37:17.000Z</time>
</trkpt>
<trkpt lat="46.0327760" lon="10.3239170">
	<ele>691.20</ele>
	<time>2025-07-30T05:37:18.000Z</time>
</trkpt>
<trkpt lat="46.0327600" lon="10.3239070">
	<ele>691.40</ele>
	<time>2025-07-30T05:37:19.000Z</time>
</trkpt>
<trkpt lat="46.0327470" lon="10.3238990">
	<ele>691.40</ele>
	<time>2025-07-30T05:37:20.000Z</time>
</trkpt>
<trkpt lat="46.0327390" lon="10.3238830">
	<ele>691.40</ele>
	<time>2025-07-30T05:37:21.000Z</time>
</trkpt>
<trkpt lat="46.0327270" lon="10.3238710">
	<ele>691.60</ele>
	<time>2025-07-30T05:37:22.000Z</time>
</trkpt>
<trkpt lat="46.0327180" lon="10.3238590">
	<ele>691.60</ele>
	<time>2025-07-30T05:37:23.000Z</time>
</trkpt>
<trkpt lat="46.0327090" lon="10.3238440">
	<ele>691.60</ele>
	<time>2025-07-30T05:37:24.000Z</time>
</trkpt>
<trkpt lat="46.0326990" lon="10.3238320">
	<ele>691.80</ele>
	<time>2025-07-30T05:37:25.000Z</time>
</trkpt>
<trkpt lat="46.0326840" lon="10.3238190">
	<ele>691.80</ele>
	<time>2025-07-30T05:37:26.000Z</time>
</trkpt>
<trkpt lat="46.0326730" lon="10.3238130">
	<ele>691.80</ele>
	<time>2025-07-30T05:37:27.000Z</time>
</trkpt>
<trkpt lat="46.0326590" lon="10.3238020">
	<ele>691.80</ele>
	<time>2025-07-30T05:37:28.000Z</time>
</trkpt>
<trkpt lat="46.0326500" lon="10.3237890">
	<ele>691.80</ele>
	<time>2025-07-30T05:37:29.000Z</time>
</trkpt>
<trkpt lat="46.0326420" lon="10.3237790">
	<ele>691.80</ele>
	<time>2025-07-30T05:37:30.000Z</time>
</trkpt>
<trkpt lat="46.0326310" lon="10.3237670">
	<ele>691.80</ele>
	<time>2025-07-30T05:37:31.000Z</time>
</trkpt>
<trkpt lat="46.0326200" lon="10.3237540">
	<ele>691.80</ele>
	<time>2025-07-30T05:37:32.000Z</time>
</trkpt>
<trkpt lat="46.0326110" lon="10.3237500">
	<ele>692.00</ele>
	<time>2025-07-30T05:37:33.000Z</time>
</trkpt>
<trkpt lat="46.0326070" lon="10.3237420">
	<ele>692.00</ele>
	<time>2025-07-30T05:37:34.000Z</time>
</trkpt>
<trkpt lat="46.0326000" lon="10.3237410">
	<ele>692.00</ele>
	<time>2025-07-30T05:37:35.000Z</time>
</trkpt>
<trkpt lat="46.0325970" lon="10.3237420">
	<ele>692.00</ele>
	<time>2025-07-30T05:37:36.000Z</time>
</trkpt>
<trkpt lat="46.0325960" lon="10.3237430">
	<ele>692.00</ele>
	<time>2025-07-30T05:37:37.000Z</time>
</trkpt>
<trkpt lat="46.0325930" lon="10.3237460">
	<ele>692.00</ele>
	<time>2025-07-30T05:37:38.000Z</time>
</trkpt>
<trkpt lat="46.0325920" lon="10.3237450">
	<ele>692.20</ele>
	<time>2025-07-30T05:37:39.000Z</time>
</trkpt>
<trkpt lat="46.0325770" lon="10.3237580">
	<ele>692.20</ele>
	<time>2025-07-30T05:37:40.000Z</time>
</trkpt>
<trkpt lat="46.0325800" lon="10.3237600">
	<ele>692.20</ele>
	<time>2025-07-30T05:37:41.000Z</time>
</trkpt>
<trkpt lat="46.0325780" lon="10.3237560">
	<ele>692.20</ele>
	<time>2025-07-30T05:37:42.000Z</time>
</trkpt>
<trkpt lat="46.0325730" lon="10.3237490">
	<ele>692.20</ele>
	<time>2025-07-30T05:37:43.000Z</time>
</trkpt>
<trkpt lat="46.0325720" lon="10.3237390">
	<ele>692.20</ele>
	<time>2025-07-30T05:37:44.000Z</time>
</trkpt>
<trkpt lat="46.0325720" lon="10.3237300">
	<ele>692.20</ele>
	<time>2025-07-30T05:37:45.000Z</time>
</trkpt>
<trkpt lat="46.0325700" lon="10.3237240">
	<ele>692.40</ele>
	<time>2025-07-30T05:37:46.000Z</time>
</trkpt>
<trkpt lat="46.0325690" lon="10.3237240">
	<ele>692.40</ele>
	<time>2025-07-30T05:37:47.000Z</time>
</trkpt>
<trkpt lat="46.0325720" lon="10.3237270">
	<ele>692.40</ele>
	<time>2025-07-30T05:37:48.000Z</time>
</trkpt>
<trkpt lat="46.0325720" lon="10.3237300">
	<ele>692.40</ele>
	<time>2025-07-30T05:37:49.000Z</time>
</trkpt>
<trkpt lat="46.0325720" lon="10.3237230">
	<ele>692.40</ele>
	<time>2025-07-30T05:37:50.000Z</time>
</trkpt>
<trkpt lat="46.0325790" lon="10.3237070">
	<ele>692.40</ele>
	<time>2025-07-30T05:37:51.000Z</time>
</trkpt>
<trkpt lat="46.0325810" lon="10.3237030">
	<ele>692.40</ele>
	<time>2025-07-30T05:37:52.000Z</time>
</trkpt>
<trkpt lat="46.0325830" lon="10.3236990">
	<ele>692.60</ele>
	<time>2025-07-30T05:37:53.000Z</time>
</trkpt>
<trkpt lat="46.0325860" lon="10.3236980">
	<ele>692.60</ele>
	<time>2025-07-30T05:37:54.000Z</time>
</trkpt>
<trkpt lat="46.0325900" lon="10.3236920">
	<ele>692.60</ele>
	<time>2025-07-30T05:37:55.000Z</time>
</trkpt>
<trkpt lat="46.0325880" lon="10.3236800">
	<ele>692.60</ele>
	<time>2025-07-30T05:37:56.000Z</time>
</trkpt>
<trkpt lat="46.0325850" lon="10.3236710">
	<ele>692.60</ele>
	<time>2025-07-30T05:37:57.000Z</time>
</trkpt>
<trkpt lat="46.0325810" lon="10.3236560">
	<ele>692.60</ele>
	<time>2025-07-30T05:37:58.000Z</time>
</trkpt>
<trkpt lat="46.0325770" lon="10.3236400">
	<ele>692.60</ele>
	<time>2025-07-30T05:37:59.000Z</time>
</trkpt>
<trkpt lat="46.0325750" lon="10.3236260">
	<ele>692.60</ele>
	<time>2025-07-30T05:38:00.000Z</time>
</trkpt>
<trkpt lat="46.0325750" lon="10.3236040">
	<ele>692.60</ele>
	<time>2025-07-30T05:38:01.000Z</time>
</trkpt>
<trkpt lat="46.0325780" lon="10.3235810">
	<ele>692.60</ele>
	<time>2025-07-30T05:38:02.000Z</time>
</trkpt>
<trkpt lat="46.0325840" lon="10.3235620">
	<ele>692.80</ele>
	<time>2025-07-30T05:38:03.000Z</time>
</trkpt>
<trkpt lat="46.0325910" lon="10.3235410">
	<ele>692.80</ele>
	<time>2025-07-30T05:38:04.000Z</time>
</trkpt>
<trkpt lat="46.0325970" lon="10.3235260">
	<ele>693.00</ele>
	<time>2025-07-30T05:38:05.000Z</time>
</trkpt>
<trkpt lat="46.0326050" lon="10.3235060">
	<ele>693.00</ele>
	<time>2025-07-30T05:38:06.000Z</time>
</trkpt>
<trkpt lat="46.0326180" lon="10.3234920">
	<ele>693.20</ele>
	<time>2025-07-30T05:38:07.000Z</time>
</trkpt>
<trkpt lat="46.0326230" lon="10.3234780">
	<ele>693.20</ele>
	<time>2025-07-30T05:38:08.000Z</time>
</trkpt>
<trkpt lat="46.0326260" lon="10.3234650">
	<ele>693.20</ele>
	<time>2025-07-30T05:38:09.000Z</time>
</trkpt>
<trkpt lat="46.0326290" lon="10.3234490">
	<ele>693.40</ele>
	<time>2025-07-30T05:38:10.000Z</time>
</trkpt>
<trkpt lat="46.0326310" lon="10.3234370">
	<ele>693.60</ele>
	<time>2025-07-30T05:38:11.000Z</time>
</trkpt>
<trkpt lat="46.0326310" lon="10.3234250">
	<ele>693.80</ele>
	<time>2025-07-30T05:38:12.000Z</time>
</trkpt>
<trkpt lat="46.0326340" lon="10.3234130">
	<ele>693.80</ele>
	<time>2025-07-30T05:38:13.000Z</time>
</trkpt>
<trkpt lat="46.0326400" lon="10.3233950">
	<ele>694.00</ele>
	<time>2025-07-30T05:38:14.000Z</time>
</trkpt>
<trkpt lat="46.0326520" lon="10.3233800">
	<ele>694.00</ele>
	<time>2025-07-30T05:38:15.000Z</time>
</trkpt>
<trkpt lat="46.0326520" lon="10.3233670">
	<ele>694.20</ele>
	<time>2025-07-30T05:38:16.000Z</time>
</trkpt>
<trkpt lat="46.0326630" lon="10.3233460">
	<ele>694.40</ele>
	<time>2025-07-30T05:38:17.000Z</time>
</trkpt>
<trkpt lat="46.0326730" lon="10.3233320">
	<ele>694.40</ele>
	<time>2025-07-30T05:38:18.000Z</time>
</trkpt>
<trkpt lat="46.0326790" lon="10.3233230">
	<ele>694.80</ele>
	<time>2025-07-30T05:38:19.000Z</time>
</trkpt>
<trkpt lat="46.0326930" lon="10.3233080">
	<ele>695.00</ele>
	<time>2025-07-30T05:38:20.000Z</time>
</trkpt>
<trkpt lat="46.0327120" lon="10.3232880">
	<ele>695.20</ele>
	<time>2025-07-30T05:38:21.000Z</time>
</trkpt>
<trkpt lat="46.0327250" lon="10.3232750">
	<ele>695.20</ele>
	<time>2025-07-30T05:38:22.000Z</time>
</trkpt>
<trkpt lat="46.0327370" lon="10.3232600">
	<ele>695.40</ele>
	<time>2025-07-30T05:38:23.000Z</time>
</trkpt>
<trkpt lat="46.0327510" lon="10.3232450">
	<ele>695.60</ele>
	<time>2025-07-30T05:38:24.000Z</time>
</trkpt>
<trkpt lat="46.0327550" lon="10.3232360">
	<ele>695.60</ele>
	<time>2025-07-30T05:38:25.000Z</time>
</trkpt>
<trkpt lat="46.0327580" lon="10.3232230">
	<ele>695.80</ele>
	<time>2025-07-30T05:38:26.000Z</time>
</trkpt>
<trkpt lat="46.0327630" lon="10.3232090">
	<ele>696.00</ele>
	<time>2025-07-30T05:38:27.000Z</time>
</trkpt>
<trkpt lat="46.0327730" lon="10.3231880">
	<ele>696.00</ele>
	<time>2025-07-30T05:38:28.000Z</time>
</trkpt>
<trkpt lat="46.0327820" lon="10.3231610">
	<ele>696.00</ele>
	<time>2025-07-30T05:38:29.000Z</time>
</trkpt>
<trkpt lat="46.0327910" lon="10.3231360">
	<ele>696.20</ele>
	<time>2025-07-30T05:38:30.000Z</time>
</trkpt>
<trkpt lat="46.0328020" lon="10.3231160">
	<ele>696.20</ele>
	<time>2025-07-30T05:38:31.000Z</time>
</trkpt>
<trkpt lat="46.0328010" lon="10.3231100">
	<ele>696.20</ele>
	<time>2025-07-30T05:38:32.000Z</time>
</trkpt>
<trkpt lat="46.0327970" lon="10.3231000">
	<ele>696.40</ele>
	<time>2025-07-30T05:38:33.000Z</time>
</trkpt>
<trkpt lat="46.0327960" lon="10.3230870">
	<ele>696.40</ele>
	<time>2025-07-30T05:38:34.000Z</time>
</trkpt>
<trkpt lat="46.0327900" lon="10.3230750">
	<ele>696.40</ele>
	<time>2025-07-30T05:38:35.000Z</time>
</trkpt>
<trkpt lat="46.0327990" lon="10.3230500">
	<ele>696.40</ele>
	<time>2025-07-30T05:38:36.000Z</time>
</trkpt>
<trkpt lat="46.0328150" lon="10.3230190">
	<ele>696.60</ele>
	<time>2025-07-30T05:38:37.000Z</time>
</trkpt>
<trkpt lat="46.0328170" lon="10.3230000">
	<ele>696.60</ele>
	<time>2025-07-30T05:38:38.000Z</time>
</trkpt>
<trkpt lat="46.0328130" lon="10.3229890">
	<ele>696.60</ele>
	<time>2025-07-30T05:38:39.000Z</time>
</trkpt>
<trkpt lat="46.0328070" lon="10.3229750">
	<ele>696.60</ele>
	<time>2025-07-30T05:38:40.000Z</time>
</trkpt>
<trkpt lat="46.0328040" lon="10.3229550">
	<ele>696.60</ele>
	<time>2025-07-30T05:38:41.000Z</time>
</trkpt>
<trkpt lat="46.0328020" lon="10.3229380">
	<ele>696.60</ele>
	<time>2025-07-30T05:38:42.000Z</time>
</trkpt>
<trkpt lat="46.0327950" lon="10.3229260">
	<ele>696.60</ele>
	<time>2025-07-30T05:38:43.000Z</time>
</trkpt>
<trkpt lat="46.0327920" lon="10.3229120">
	<ele>696.60</ele>
	<time>2025-07-30T05:38:44.000Z</time>
</trkpt>
<trkpt lat="46.0327860" lon="10.3229050">
	<ele>696.80</ele>
	<time>2025-07-30T05:38:45.000Z</time>
</trkpt>
<trkpt lat="46.0327780" lon="10.3229010">
	<ele>696.80</ele>
	<time>2025-07-30T05:38:46.000Z</time>
</trkpt>
<trkpt lat="46.0327670" lon="10.3228910">
	<ele>697.00</ele>
	<time>2025-07-30T05:38:47.000Z</time>
</trkpt>
<trkpt lat="46.0327570" lon="10.3228800">
	<ele>697.00</ele>
	<time>2025-07-30T05:38:48.000Z</time>
</trkpt>
<trkpt lat="46.0327540" lon="10.3228660">
	<ele>697.20</ele>
	<time>2025-07-30T05:38:49.000Z</time>
</trkpt>
<trkpt lat="46.0327560" lon="10.3228400">
	<ele>697.40</ele>
	<time>2025-07-30T05:38:50.000Z</time>
</trkpt>
<trkpt lat="46.0327590" lon="10.3228180">
	<ele>697.40</ele>
	<time>2025-07-30T05:38:51.000Z</time>
</trkpt>
<trkpt lat="46.0327580" lon="10.3228020">
	<ele>697.40</ele>
	<time>2025-07-30T05:38:52.000Z</time>
</trkpt>
<trkpt lat="46.0327580" lon="10.3227900">
	<ele>697.40</ele>
	<time>2025-07-30T05:38:53.000Z</time>
</trkpt>
<trkpt lat="46.0327600" lon="10.3227740">
	<ele>697.60</ele>
	<time>2025-07-30T05:38:54.000Z</time>
</trkpt>
<trkpt lat="46.0327620" lon="10.3227650">
	<ele>697.60</ele>
	<time>2025-07-30T05:38:55.000Z</time>
</trkpt>
<trkpt lat="46.0327590" lon="10.3227580">
	<ele>697.60</ele>
	<time>2025-07-30T05:38:56.000Z</time>
</trkpt>
<trkpt lat="46.0327550" lon="10.3227440">
	<ele>697.80</ele>
	<time>2025-07-30T05:38:57.000Z</time>
</trkpt>
<trkpt lat="46.0327530" lon="10.3227320">
	<ele>698.00</ele>
	<time>2025-07-30T05:38:58.000Z</time>
</trkpt>
<trkpt lat="46.0327480" lon="10.3227140">
	<ele>698.00</ele>
	<time>2025-07-30T05:38:59.000Z</time>
</trkpt>
<trkpt lat="46.0327480" lon="10.3227050">
	<ele>698.00</ele>
	<time>2025-07-30T05:39:00.000Z</time>
</trkpt>
<trkpt lat="46.0327500" lon="10.3226930">
	<ele>698.20</ele>
	<time>2025-07-30T05:39:01.000Z</time>
</trkpt>
<trkpt lat="46.0327550" lon="10.3226800">
	<ele>698.40</ele>
	<time>2025-07-30T05:39:02.000Z</time>
</trkpt>
<trkpt lat="46.0327530" lon="10.3226720">
	<ele>698.60</ele>
	<time>2025-07-30T05:39:03.000Z</time>
</trkpt>
<trkpt lat="46.0327440" lon="10.3226700">
	<ele>698.80</ele>
	<time>2025-07-30T05:39:04.000Z</time>
</trkpt>
<trkpt lat="46.0327360" lon="10.3226630">
	<ele>699.00</ele>
	<time>2025-07-30T05:39:05.000Z</time>
</trkpt>
<trkpt lat="46.0327280" lon="10.3226580">
	<ele>699.00</ele>
	<time>2025-07-30T05:39:06.000Z</time>
</trkpt>
<trkpt lat="46.0327240" lon="10.3226490">
	<ele>699.20</ele>
	<time>2025-07-30T05:39:07.000Z</time>
</trkpt>
<trkpt lat="46.0327210" lon="10.3226210">
	<ele>699.40</ele>
	<time>2025-07-30T05:39:08.000Z</time>
</trkpt>
<trkpt lat="46.0327220" lon="10.3225950">
	<ele>699.60</ele>
	<time>2025-07-30T05:39:09.000Z</time>
</trkpt>
<trkpt lat="46.0327280" lon="10.3225740">
	<ele>699.60</ele>
	<time>2025-07-30T05:39:10.000Z</time>
</trkpt>
<trkpt lat="46.0327270" lon="10.3225550">
	<ele>700.00</ele>
	<time>2025-07-30T05:39:11.000Z</time>
</trkpt>
<trkpt lat="46.0327270" lon="10.3225410">
	<ele>700.00</ele>
	<time>2025-07-30T05:39:12.000Z</time>
</trkpt>
<trkpt lat="46.0327220" lon="10.3225350">
	<ele>700.20</ele>
	<time>2025-07-30T05:39:13.000Z</time>
</trkpt>
<trkpt lat="46.0327150" lon="10.3225250">
	<ele>700.20</ele>
	<time>2025-07-30T05:39:14.000Z</time>
</trkpt>
<trkpt lat="46.0327120" lon="10.3225180">
	<ele>700.20</ele>
	<time>2025-07-30T05:39:15.000Z</time>
</trkpt>
<trkpt lat="46.0327010" lon="10.3225050">
	<ele>700.40</ele>
	<time>2025-07-30T05:39:16.000Z</time>
</trkpt>
<trkpt lat="46.0326960" lon="10.3225040">
	<ele>700.40</ele>
	<time>2025-07-30T05:39:17.000Z</time>
</trkpt>
<trkpt lat="46.0326960" lon="10.3225050">
	<ele>700.40</ele>
	<time>2025-07-30T05:39:18.000Z</time>
</trkpt>
<trkpt lat="46.0326960" lon="10.3225050">
	<ele>700.40</ele>
	<time>2025-07-30T05:39:19.000Z</time>
</trkpt>
<trkpt lat="46.0326990" lon="10.3224960">
	<ele>700.60</ele>
	<time>2025-07-30T05:39:20.000Z</time>
</trkpt>
<trkpt lat="46.0327000" lon="10.3224860">
	<ele>700.60</ele>
	<time>2025-07-30T05:39:21.000Z</time>
</trkpt>
<trkpt lat="46.0327060" lon="10.3224780">
	<ele>700.60</ele>
	<time>2025-07-30T05:39:22.000Z</time>
</trkpt>
<trkpt lat="46.0327070" lon="10.3224710">
	<ele>700.60</ele>
	<time>2025-07-30T05:39:23.000Z</time>
</trkpt>
<trkpt lat="46.0327030" lon="10.3224530">
	<ele>700.60</ele>
	<time>2025-07-30T05:39:24.000Z</time>
</trkpt>
<trkpt lat="46.0326970" lon="10.3224420">
	<ele>700.60</ele>
	<time>2025-07-30T05:39:25.000Z</time>
</trkpt>
<trkpt lat="46.0326940" lon="10.3224370">
	<ele>700.80</ele>
	<time>2025-07-30T05:39:26.000Z</time>
</trkpt>
<trkpt lat="46.0326880" lon="10.3224220">
	<ele>700.80</ele>
	<time>2025-07-30T05:39:27.000Z</time>
</trkpt>
<trkpt lat="46.0326820" lon="10.3224100">
	<ele>700.80</ele>
	<time>2025-07-30T05:39:28.000Z</time>
</trkpt>
<trkpt lat="46.0326760" lon="10.3223930">
	<ele>701.00</ele>
	<time>2025-07-30T05:39:29.000Z</time>
</trkpt>
<trkpt lat="46.0326730" lon="10.3223730">
	<ele>701.00</ele>
	<time>2025-07-30T05:39:30.000Z</time>
</trkpt>
<trkpt lat="46.0326750" lon="10.3223510">
	<ele>701.00</ele>
	<time>2025-07-30T05:39:31.000Z</time>
</trkpt>
<trkpt lat="46.0326780" lon="10.3223360">
	<ele>701.20</ele>
	<time>2025-07-30T05:39:32.000Z</time>
</trkpt>
<trkpt lat="46.0326750" lon="10.3223210">
	<ele>701.40</ele>
	<time>2025-07-30T05:39:33.000Z</time>
</trkpt>
<trkpt lat="46.0326750" lon="10.3223070">
	<ele>701.60</ele>
	<time>2025-07-30T05:39:34.000Z</time>
</trkpt>
<trkpt lat="46.0326700" lon="10.3222900">
	<ele>701.60</ele>
	<time>2025-07-30T05:39:35.000Z</time>
</trkpt>
<trkpt lat="46.0326630" lon="10.3222830">
	<ele>701.80</ele>
	<time>2025-07-30T05:39:36.000Z</time>
</trkpt>
<trkpt lat="46.0326570" lon="10.3222780">
	<ele>702.00</ele>
	<time>2025-07-30T05:39:37.000Z</time>
</trkpt>
<trkpt lat="46.0326510" lon="10.3222710">
	<ele>702.40</ele>
	<time>2025-07-30T05:39:38.000Z</time>
</trkpt>
<trkpt lat="46.0326410" lon="10.3222660">
	<ele>702.60</ele>
	<time>2025-07-30T05:39:39.000Z</time>
</trkpt>
<trkpt lat="46.0326300" lon="10.3222620">
	<ele>702.80</ele>
	<time>2025-07-30T05:39:40.000Z</time>
</trkpt>
<trkpt lat="46.0326250" lon="10.3222530">
	<ele>702.80</ele>
	<time>2025-07-30T05:39:41.000Z</time>
</trkpt>
<trkpt lat="46.0326340" lon="10.3222240">
	<ele>703.00</ele>
	<time>2025-07-30T05:39:42.000Z</time>
</trkpt>
<trkpt lat="46.0326340" lon="10.3222050">
	<ele>703.20</ele>
	<time>2025-07-30T05:39:43.000Z</time>
</trkpt>
<trkpt lat="46.0326280" lon="10.3221980">
	<ele>703.40</ele>
	<time>2025-07-30T05:39:44.000Z</time>
</trkpt>
<trkpt lat="46.0326270" lon="10.3221900">
	<ele>703.60</ele>
	<time>2025-07-30T05:39:45.000Z</time>
</trkpt>
<trkpt lat="46.0326260" lon="10.3221760">
	<ele>703.80</ele>
	<time>2025-07-30T05:39:46.000Z</time>
</trkpt>
<trkpt lat="46.0326240" lon="10.3221680">
	<ele>704.00</ele>
	<time>2025-07-30T05:39:47.000Z</time>
</trkpt>
<trkpt lat="46.0326230" lon="10.3221570">
	<ele>704.00</ele>
	<time>2025-07-30T05:39:48.000Z</time>
</trkpt>
<trkpt lat="46.0326240" lon="10.3221330">
	<ele>704.20</ele>
	<time>2025-07-30T05:39:49.000Z</time>
</trkpt>
<trkpt lat="46.0326300" lon="10.3221010">
	<ele>704.40</ele>
	<time>2025-07-30T05:39:50.000Z</time>
</trkpt>
<trkpt lat="46.0326310" lon="10.3220750">
	<ele>704.80</ele>
	<time>2025-07-30T05:39:51.000Z</time>
</trkpt>
<trkpt lat="46.0326310" lon="10.3220510">
	<ele>705.00</ele>
	<time>2025-07-30T05:39:52.000Z</time>
</trkpt>
<trkpt lat="46.0326310" lon="10.3220350">
	<ele>705.00</ele>
	<time>2025-07-30T05:39:53.000Z</time>
</trkpt>
<trkpt lat="46.0326320" lon="10.3220260">
	<ele>705.40</ele>
	<time>2025-07-30T05:39:54.000Z</time>
</trkpt>
<trkpt lat="46.0326280" lon="10.3220170">
	<ele>705.60</ele>
	<time>2025-07-30T05:39:55.000Z</time>
</trkpt>
<trkpt lat="46.0326240" lon="10.3220040">
	<ele>705.80</ele>
	<time>2025-07-30T05:39:56.000Z</time>
</trkpt>
<trkpt lat="46.0326260" lon="10.3219860">
	<ele>706.00</ele>
	<time>2025-07-30T05:39:57.000Z</time>
</trkpt>
<trkpt lat="46.0326230" lon="10.3219780">
	<ele>706.20</ele>
	<time>2025-07-30T05:39:58.000Z</time>
</trkpt>
<trkpt lat="46.0326170" lon="10.3219950">
	<ele>706.40</ele>
	<time>2025-07-30T05:39:59.000Z</time>
</trkpt>
<trkpt lat="46.0326130" lon="10.3219950">
	<ele>706.60</ele>
	<time>2025-07-30T05:40:00.000Z</time>
</trkpt>
<trkpt lat="46.0326090" lon="10.3219880">
	<ele>706.80</ele>
	<time>2025-07-30T05:40:01.000Z</time>
</trkpt>
<trkpt lat="46.0325980" lon="10.3219720">
	<ele>707.00</ele>
	<time>2025-07-30T05:40:02.000Z</time>
</trkpt>
<trkpt lat="46.0325960" lon="10.3219460">
	<ele>707.00</ele>
	<time>2025-07-30T05:40:03.000Z</time>
</trkpt>
<trkpt lat="46.0325940" lon="10.3219220">
	<ele>707.40</ele>
	<time>2025-07-30T05:40:04.000Z</time>
</trkpt>
<trkpt lat="46.0325910" lon="10.3218890">
	<ele>707.60</ele>
	<time>2025-07-30T05:40:05.000Z</time>
</trkpt>
<trkpt lat="46.0325940" lon="10.3218650">
	<ele>707.80</ele>
	<time>2025-07-30T05:40:06.000Z</time>
</trkpt>
<trkpt lat="46.0325950" lon="10.3218440">
	<ele>707.80</ele>
	<time>2025-07-30T05:40:07.000Z</time>
</trkpt>
<trkpt lat="46.0325920" lon="10.3218260">
	<ele>707.80</ele>
	<time>2025-07-30T05:40:08.000Z</time>
</trkpt>
<trkpt lat="46.0325880" lon="10.3218060">
	<ele>707.80</ele>
	<time>2025-07-30T05:40:09.000Z</time>
</trkpt>
<trkpt lat="46.0325860" lon="10.3217870">
	<ele>708.00</ele>
	<time>2025-07-30T05:40:10.000Z</time>
</trkpt>
<trkpt lat="46.0325810" lon="10.3217710">
	<ele>708.00</ele>
	<time>2025-07-30T05:40:11.000Z</time>
</trkpt>
<trkpt lat="46.0325740" lon="10.3217520">
	<ele>708.00</ele>
	<time>2025-07-30T05:40:12.000Z</time>
</trkpt>
<trkpt lat="46.0325670" lon="10.3217370">
	<ele>708.00</ele>
	<time>2025-07-30T05:40:13.000Z</time>
</trkpt>
<trkpt lat="46.0325610" lon="10.3217210">
	<ele>708.20</ele>
	<time>2025-07-30T05:40:14.000Z</time>
</trkpt>
<trkpt lat="46.0325560" lon="10.3217010">
	<ele>708.20</ele>
	<time>2025-07-30T05:40:15.000Z</time>
</trkpt>
<trkpt lat="46.0325520" lon="10.3216850">
	<ele>708.20</ele>
	<time>2025-07-30T05:40:16.000Z</time>
</trkpt>
<trkpt lat="46.0325480" lon="10.3216730">
	<ele>708.40</ele>
	<time>2025-07-30T05:40:17.000Z</time>
</trkpt>
<trkpt lat="46.0325480" lon="10.3216430">
	<ele>708.40</ele>
	<time>2025-07-30T05:40:18.000Z</time>
</trkpt>
<trkpt lat="46.0325480" lon="10.3216200">
	<ele>708.60</ele>
	<time>2025-07-30T05:40:19.000Z</time>
</trkpt>
<trkpt lat="46.0325450" lon="10.3216030">
	<ele>708.60</ele>
	<time>2025-07-30T05:40:20.000Z</time>
</trkpt>
<trkpt lat="46.0325470" lon="10.3215850">
	<ele>708.60</ele>
	<time>2025-07-30T05:40:21.000Z</time>
</trkpt>
<trkpt lat="46.0325480" lon="10.3215690">
	<ele>708.60</ele>
	<time>2025-07-30T05:40:22.000Z</time>
</trkpt>
<trkpt lat="46.0325500" lon="10.3215590">
	<ele>708.80</ele>
	<time>2025-07-30T05:40:23.000Z</time>
</trkpt>
<trkpt lat="46.0325470" lon="10.3215440">
	<ele>708.80</ele>
	<time>2025-07-30T05:40:24.000Z</time>
</trkpt>
<trkpt lat="46.0325500" lon="10.3215260">
	<ele>708.80</ele>
	<time>2025-07-30T05:40:25.000Z</time>
</trkpt>
<trkpt lat="46.0325540" lon="10.3214990">
	<ele>708.80</ele>
	<time>2025-07-30T05:40:26.000Z</time>
</trkpt>
<trkpt lat="46.0325590" lon="10.3214680">
	<ele>708.80</ele>
	<time>2025-07-30T05:40:27.000Z</time>
</trkpt>
<trkpt lat="46.0325700" lon="10.3214380">
	<ele>708.80</ele>
	<time>2025-07-30T05:40:28.000Z</time>
</trkpt>
<trkpt lat="46.0325800" lon="10.3214240">
	<ele>709.00</ele>
	<time>2025-07-30T05:40:29.000Z</time>
</trkpt>
<trkpt lat="46.0325920" lon="10.3214080">
	<ele>709.20</ele>
	<time>2025-07-30T05:40:30.000Z</time>
</trkpt>
<trkpt lat="46.0325970" lon="10.3213890">
	<ele>709.20</ele>
	<time>2025-07-30T05:40:31.000Z</time>
</trkpt>
<trkpt lat="46.0326020" lon="10.3213730">
	<ele>709.40</ele>
	<time>2025-07-30T05:40:32.000Z</time>
</trkpt>
<trkpt lat="46.0326100" lon="10.3213560">
	<ele>709.40</ele>
	<time>2025-07-30T05:40:33.000Z</time>
</trkpt>
<trkpt lat="46.0326170" lon="10.3213460">
	<ele>709.40</ele>
	<time>2025-07-30T05:40:34.000Z</time>
</trkpt>
<trkpt lat="46.0326240" lon="10.3213310">
	<ele>709.60</ele>
	<time>2025-07-30T05:40:35.000Z</time>
</trkpt>
<trkpt lat="46.0326310" lon="10.3213190">
	<ele>709.80</ele>
	<time>2025-07-30T05:40:36.000Z</time>
</trkpt>
<trkpt lat="46.0326410" lon="10.3213160">
	<ele>709.80</ele>
	<time>2025-07-30T05:40:37.000Z</time>
</trkpt>
<trkpt lat="46.0326520" lon="10.3213110">
	<ele>709.80</ele>
	<time>2025-07-30T05:40:38.000Z</time>
</trkpt>
<trkpt lat="46.0326620" lon="10.3213030">
	<ele>710.00</ele>
	<time>2025-07-30T05:40:39.000Z</time>
</trkpt>
<trkpt lat="46.0326670" lon="10.3213010">
	<ele>710.00</ele>
	<time>2025-07-30T05:40:40.000Z</time>
</trkpt>
<trkpt lat="46.0326780" lon="10.3212910">
	<ele>710.00</ele>
	<time>2025-07-30T05:40:41.000Z</time>
</trkpt>
<trkpt lat="46.0326840" lon="10.3212780">
	<ele>710.20</ele>
	<time>2025-07-30T05:40:42.000Z</time>
</trkpt>
<trkpt lat="46.0326910" lon="10.3212530">
	<ele>710.20</ele>
	<time>2025-07-30T05:40:43.000Z</time>
</trkpt>
<trkpt lat="46.0326990" lon="10.3212430">
	<ele>710.40</ele>
	<time>2025-07-30T05:40:44.000Z</time>
</trkpt>
<trkpt lat="46.0327060" lon="10.3212360">
	<ele>710.40</ele>
	<time>2025-07-30T05:40:45.000Z</time>
</trkpt>
<trkpt lat="46.0327080" lon="10.3212300">
	<ele>710.60</ele>
	<time>2025-07-30T05:40:46.000Z</time>
</trkpt>
<trkpt lat="46.0327060" lon="10.3211960">
	<ele>710.60</ele>
	<time>2025-07-30T05:40:47.000Z</time>
</trkpt>
<trkpt lat="46.0327060" lon="10.3211740">
	<ele>710.80</ele>
	<time>2025-07-30T05:40:48.000Z</time>
</trkpt>
<trkpt lat="46.0327170" lon="10.3211590">
	<ele>710.80</ele>
	<time>2025-07-30T05:40:49.000Z</time>
</trkpt>
<trkpt lat="46.0327210" lon="10.3211560">
	<ele>711.00</ele>
	<time>2025-07-30T05:40:50.000Z</time>
</trkpt>
<trkpt lat="46.0327260" lon="10.3211580">
	<ele>711.20</ele>
	<time>2025-07-30T05:40:51.000Z</time>
</trkpt>
<trkpt lat="46.0327300" lon="10.3211570">
	<ele>711.20</ele>
	<time>2025-07-30T05:40:52.000Z</time>
</trkpt>
<trkpt lat="46.0327330" lon="10.3211470">
	<ele>711.40</ele>
	<time>2025-07-30T05:40:53.000Z</time>
</trkpt>
<trkpt lat="46.0327340" lon="10.3211220">
	<ele>711.60</ele>
	<time>2025-07-30T05:40:54.000Z</time>
</trkpt>
<trkpt lat="46.0327410" lon="10.3211160">
	<ele>711.80</ele>
	<time>2025-07-30T05:40:55.000Z</time>
</trkpt>
<trkpt lat="46.0327420" lon="10.3211110">
	<ele>711.80</ele>
	<time>2025-07-30T05:40:56.000Z</time>
</trkpt>
<trkpt lat="46.0327450" lon="10.3211050">
	<ele>712.00</ele>
	<time>2025-07-30T05:40:57.000Z</time>
</trkpt>
<trkpt lat="46.0327510" lon="10.3211010">
	<ele>712.20</ele>
	<time>2025-07-30T05:40:58.000Z</time>
</trkpt>
<trkpt lat="46.0327590" lon="10.3210940">
	<ele>712.20</ele>
	<time>2025-07-30T05:40:59.000Z</time>
</trkpt>
<trkpt lat="46.0327650" lon="10.3210830">
	<ele>712.60</ele>
	<time>2025-07-30T05:41:00.000Z</time>
</trkpt>
<trkpt lat="46.0327690" lon="10.3210730">
	<ele>712.80</ele>
	<time>2025-07-30T05:41:01.000Z</time>
</trkpt>
<trkpt lat="46.0327780" lon="10.3210550">
	<ele>713.00</ele>
	<time>2025-07-30T05:41:02.000Z</time>
</trkpt>
<trkpt lat="46.0327870" lon="10.3210490">
	<ele>713.00</ele>
	<time>2025-07-30T05:41:03.000Z</time>
</trkpt>
<trkpt lat="46.0328030" lon="10.3210330">
	<ele>713.20</ele>
	<time>2025-07-30T05:41:04.000Z</time>
</trkpt>
<trkpt lat="46.0328200" lon="10.3210140">
	<ele>713.40</ele>
	<time>2025-07-30T05:41:05.000Z</time>
</trkpt>
<trkpt lat="46.0328320" lon="10.3209980">
	<ele>713.60</ele>
	<time>2025-07-30T05:41:06.000Z</time>
</trkpt>
<trkpt lat="46.0328370" lon="10.3209780">
	<ele>713.80</ele>
	<time>2025-07-30T05:41:07.000Z</time>
</trkpt>
<trkpt lat="46.0328450" lon="10.3209560">
	<ele>714.00</ele>
	<time>2025-07-30T05:41:08.000Z</time>
</trkpt>
<trkpt lat="46.0328570" lon="10.3209530">
	<ele>714.20</ele>
	<time>2025-07-30T05:41:09.000Z</time>
</trkpt>
<trkpt lat="46.0328680" lon="10.3209420">
	<ele>714.20</ele>
	<time>2025-07-30T05:41:10.000Z</time>
</trkpt>
<trkpt lat="46.0328770" lon="10.3209330">
	<ele>714.40</ele>
	<time>2025-07-30T05:41:11.000Z</time>
</trkpt>
<trkpt lat="46.0328800" lon="10.3209170">
	<ele>714.60</ele>
	<time>2025-07-30T05:41:12.000Z</time>
</trkpt>
<trkpt lat="46.0328840" lon="10.3209040">
	<ele>714.80</ele>
	<time>2025-07-30T05:41:13.000Z</time>
</trkpt>
<trkpt lat="46.0328870" lon="10.3208850">
	<ele>715.00</ele>
	<time>2025-07-30T05:41:14.000Z</time>
</trkpt>
<trkpt lat="46.0328890" lon="10.3208700">
	<ele>715.00</ele>
	<time>2025-07-30T05:41:15.000Z</time>
</trkpt>
<trkpt lat="46.0328900" lon="10.3208620">
	<ele>715.20</ele>
	<time>2025-07-30T05:41:16.000Z</time>
</trkpt>
<trkpt lat="46.0328910" lon="10.3208520">
	<ele>715.40</ele>
	<time>2025-07-30T05:41:17.000Z</time>
</trkpt>
<trkpt lat="46.0328940" lon="10.3208390">
	<ele>715.60</ele>
	<time>2025-07-30T05:41:18.000Z</time>
</trkpt>
<trkpt lat="46.0328930" lon="10.3208240">
	<ele>715.80</ele>
	<time>2025-07-30T05:41:19.000Z</time>
</trkpt>
<trkpt lat="46.0328940" lon="10.3208170">
	<ele>716.00</ele>
	<time>2025-07-30T05:41:20.000Z</time>
</trkpt>
<trkpt lat="46.0328920" lon="10.3208070">
	<ele>716.00</ele>
	<time>2025-07-30T05:41:21.000Z</time>
</trkpt>
<trkpt lat="46.0328930" lon="10.3207970">
	<ele>716.20</ele>
	<time>2025-07-30T05:41:22.000Z</time>
</trkpt>
<trkpt lat="46.0328990" lon="10.3207810">
	<ele>716.40</ele>
	<time>2025-07-30T05:41:23.000Z</time>
</trkpt>
<trkpt lat="46.0329030" lon="10.3207750">
	<ele>716.40</ele>
	<time>2025-07-30T05:41:24.000Z</time>
</trkpt>
<trkpt lat="46.0329050" lon="10.3207710">
	<ele>716.60</ele>
	<time>2025-07-30T05:41:25.000Z</time>
</trkpt>
<trkpt lat="46.0329070" lon="10.3207610">
	<ele>716.80</ele>
	<time>2025-07-30T05:41:26.000Z</time>
</trkpt>
<trkpt lat="46.0329120" lon="10.3207510">
	<ele>717.00</ele>
	<time>2025-07-30T05:41:27.000Z</time>
</trkpt>
<trkpt lat="46.0329170" lon="10.3207410">
	<ele>717.20</ele>
	<time>2025-07-30T05:41:28.000Z</time>
</trkpt>
<trkpt lat="46.0329200" lon="10.3207340">
	<ele>717.40</ele>
	<time>2025-07-30T05:41:29.000Z</time>
</trkpt>
<trkpt lat="46.0329240" lon="10.3207250">
	<ele>717.60</ele>
	<time>2025-07-30T05:41:30.000Z</time>
</trkpt>
<trkpt lat="46.0329320" lon="10.3207120">
	<ele>717.60</ele>
	<time>2025-07-30T05:41:31.000Z</time>
</trkpt>
<trkpt lat="46.0329350" lon="10.3207010">
	<ele>718.00</ele>
	<time>2025-07-30T05:41:32.000Z</time>
</trkpt>
<trkpt lat="46.0329410" lon="10.3206910">
	<ele>718.20</ele>
	<time>2025-07-30T05:41:33.000Z</time>
</trkpt>
<trkpt lat="46.0329460" lon="10.3206780">
	<ele>718.20</ele>
	<time>2025-07-30T05:41:34.000Z</time>
</trkpt>
<trkpt lat="46.0329510" lon="10.3206770">
	<ele>718.60</ele>
	<time>2025-07-30T05:41:35.000Z</time>
</trkpt>
<trkpt lat="46.0329540" lon="10.3206740">
	<ele>718.60</ele>
	<time>2025-07-30T05:41:36.000Z</time>
</trkpt>
<trkpt lat="46.0329610" lon="10.3206610">
	<ele>718.80</ele>
	<time>2025-07-30T05:41:37.000Z</time>
</trkpt>
<trkpt lat="46.0329640" lon="10.3206570">
	<ele>719.00</ele>
	<time>2025-07-30T05:41:38.000Z</time>
</trkpt>
<trkpt lat="46.0329730" lon="10.3206530">
	<ele>719.00</ele>
	<time>2025-07-30T05:41:39.000Z</time>
</trkpt>
<trkpt lat="46.0329820" lon="10.3206440">
	<ele>719.20</ele>
	<time>2025-07-30T05:41:40.000Z</time>
</trkpt>
<trkpt lat="46.0329820" lon="10.3206400">
	<ele>719.40</ele>
	<time>2025-07-30T05:41:41.000Z</time>
</trkpt>
<trkpt lat="46.0329800" lon="10.3206380">
	<ele>719.60</ele>
	<time>2025-07-30T05:41:42.000Z</time>
</trkpt>
<trkpt lat="46.0329800" lon="10.3206140">
	<ele>719.80</ele>
	<time>2025-07-30T05:41:43.000Z</time>
</trkpt>
<trkpt lat="46.0329740" lon="10.3205980">
	<ele>720.00</ele>
	<time>2025-07-30T05:41:44.000Z</time>
</trkpt>
<trkpt lat="46.0329700" lon="10.3205890">
	<ele>720.00</ele>
	<time>2025-07-30T05:41:45.000Z</time>
</trkpt>
<trkpt lat="46.0329650" lon="10.3205750">
	<ele>720.20</ele>
	<time>2025-07-30T05:41:46.000Z</time>
</trkpt>
<trkpt lat="46.0329590" lon="10.3205640">
	<ele>720.20</ele>
	<time>2025-07-30T05:41:47.000Z</time>
</trkpt>
<trkpt lat="46.0329600" lon="10.3205480">
	<ele>720.40</ele>
	<time>2025-07-30T05:41:48.000Z</time>
</trkpt>
<trkpt lat="46.0329620" lon="10.3205300">
	<ele>720.40</ele>
	<time>2025-07-30T05:41:49.000Z</time>
</trkpt>
<trkpt lat="46.0329650" lon="10.3205080">
	<ele>720.40</ele>
	<time>2025-07-30T05:41:50.000Z</time>
</trkpt>
<trkpt lat="46.0329660" lon="10.3204850">
	<ele>720.60</ele>
	<time>2025-07-30T05:41:51.000Z</time>
</trkpt>
<trkpt lat="46.0329730" lon="10.3204620">
	<ele>720.80</ele>
	<time>2025-07-30T05:41:52.000Z</time>
</trkpt>
<trkpt lat="46.0329760" lon="10.3204410">
	<ele>720.80</ele>
	<time>2025-07-30T05:41:53.000Z</time>
</trkpt>
<trkpt lat="46.0329840" lon="10.3204160">
	<ele>720.80</ele>
	<time>2025-07-30T05:41:54.000Z</time>
</trkpt>
<trkpt lat="46.0329960" lon="10.3203980">
	<ele>720.80</ele>
	<time>2025-07-30T05:41:55.000Z</time>
</trkpt>
<trkpt lat="46.0330030" lon="10.3203800">
	<ele>721.00</ele>
	<time>2025-07-30T05:41:56.000Z</time>
</trkpt>
<trkpt lat="46.0330100" lon="10.3203570">
	<ele>721.00</ele>
	<time>2025-07-30T05:41:57.000Z</time>
</trkpt>
<trkpt lat="46.0330190" lon="10.3203360">
	<ele>721.20</ele>
	<time>2025-07-30T05:41:58.000Z</time>
</trkpt>
<trkpt lat="46.0330230" lon="10.3203130">
	<ele>721.20</ele>
	<time>2025-07-30T05:41:59.000Z</time>
</trkpt>
<trkpt lat="46.0330250" lon="10.3202920">
	<ele>721.40</ele>
	<time>2025-07-30T05:42:00.000Z</time>
</trkpt>
<trkpt lat="46.0330300" lon="10.3202720">
	<ele>721.40</ele>
	<time>2025-07-30T05:42:01.000Z</time>
</trkpt>
<trkpt lat="46.0330330" lon="10.3202530">
	<ele>721.60</ele>
	<time>2025-07-30T05:42:02.000Z</time>
</trkpt>
<trkpt lat="46.0330400" lon="10.3202340">
	<ele>721.60</ele>
	<time>2025-07-30T05:42:03.000Z</time>
</trkpt>
<trkpt lat="46.0330480" lon="10.3202180">
	<ele>721.80</ele>
	<time>2025-07-30T05:42:04.000Z</time>
</trkpt>
<trkpt lat="46.0330510" lon="10.3202020">
	<ele>722.00</ele>
	<time>2025-07-30T05:42:05.000Z</time>
</trkpt>
<trkpt lat="46.0330560" lon="10.3201810">
	<ele>722.20</ele>
	<time>2025-07-30T05:42:06.000Z</time>
</trkpt>
<trkpt lat="46.0330590" lon="10.3201640">
	<ele>722.40</ele>
	<time>2025-07-30T05:42:07.000Z</time>
</trkpt>
<trkpt lat="46.0330660" lon="10.3201540">
	<ele>722.40</ele>
	<time>2025-07-30T05:42:08.000Z</time>
</trkpt>
<trkpt lat="46.0330720" lon="10.3201410">
	<ele>722.60</ele>
	<time>2025-07-30T05:42:09.000Z</time>
</trkpt>
<trkpt lat="46.0330790" lon="10.3201360">
	<ele>723.00</ele>
	<time>2025-07-30T05:42:10.000Z</time>
</trkpt>
<trkpt lat="46.0330870" lon="10.3201310">
	<ele>723.20</ele>
	<time>2025-07-30T05:42:11.000Z</time>
</trkpt>
<trkpt lat="46.0330950" lon="10.3201240">
	<ele>723.40</ele>
	<time>2025-07-30T05:42:12.000Z</time>
</trkpt>
<trkpt lat="46.0331030" lon="10.3201240">
	<ele>723.60</ele>
	<time>2025-07-30T05:42:13.000Z</time>
</trkpt>
<trkpt lat="46.0331130" lon="10.3201180">
	<ele>723.80</ele>
	<time>2025-07-30T05:42:14.000Z</time>
</trkpt>
<trkpt lat="46.0331220" lon="10.3201070">
	<ele>724.00</ele>
	<time>2025-07-30T05:42:15.000Z</time>
</trkpt>
<trkpt lat="46.0331270" lon="10.3200960">
	<ele>724.20</ele>
	<time>2025-07-30T05:42:16.000Z</time>
</trkpt>
<trkpt lat="46.0331330" lon="10.3200920">
	<ele>724.60</ele>
	<time>2025-07-30T05:42:17.000Z</time>
</trkpt>
<trkpt lat="46.0331360" lon="10.3200910">
	<ele>724.80</ele>
	<time>2025-07-30T05:42:18.000Z</time>
</trkpt>
<trkpt lat="46.0331370" lon="10.3200910">
	<ele>725.00</ele>
	<time>2025-07-30T05:42:19.000Z</time>
</trkpt>
<trkpt lat="46.0331390" lon="10.3200900">
	<ele>725.20</ele>
	<time>2025-07-30T05:42:20.000Z</time>
</trkpt>
<trkpt lat="46.0331460" lon="10.3200850">
	<ele>725.40</ele>
	<time>2025-07-30T05:42:21.000Z</time>
</trkpt>
<trkpt lat="46.0331520" lon="10.3200790">
	<ele>725.60</ele>
	<time>2025-07-30T05:42:22.000Z</time>
</trkpt>
<trkpt lat="46.0331530" lon="10.3200840">
	<ele>725.80</ele>
	<time>2025-07-30T05:42:23.000Z</time>
</trkpt>
<trkpt lat="46.0331540" lon="10.3200860">
	<ele>726.00</ele>
	<time>2025-07-30T05:42:24.000Z</time>
</trkpt>
<trkpt lat="46.0331570" lon="10.3200830">
	<ele>726.20</ele>
	<time>2025-07-30T05:42:25.000Z</time>
</trkpt>
<trkpt lat="46.0331630" lon="10.3200750">
	<ele>726.40</ele>
	<time>2025-07-30T05:42:26.000Z</time>
</trkpt>
<trkpt lat="46.0331690" lon="10.3200730">
	<ele>726.60</ele>
	<time>2025-07-30T05:42:27.000Z</time>
</trkpt>
<trkpt lat="46.0331740" lon="10.3200730">
	<ele>726.80</ele>
	<time>2025-07-30T05:42:28.000Z</time>
</trkpt>
<trkpt lat="46.0331740" lon="10.3200730">
	<ele>727.00</ele>
	<time>2025-07-30T05:42:29.000Z</time>
</trkpt>
<trkpt lat="46.0331810" lon="10.3200700">
	<ele>727.20</ele>
	<time>2025-07-30T05:42:30.000Z</time>
</trkpt>
<trkpt lat="46.0331860" lon="10.3200660">
	<ele>727.40</ele>
	<time>2025-07-30T05:42:31.000Z</time>
</trkpt>
<trkpt lat="46.0331900" lon="10.3200690">
	<ele>727.60</ele>
	<time>2025-07-30T05:42:32.000Z</time>
</trkpt>
<trkpt lat="46.0331930" lon="10.3200740">
	<ele>727.80</ele>
	<time>2025-07-30T05:42:33.000Z</time>
</trkpt>
<trkpt lat="46.0331950" lon="10.3200770">
	<ele>728.20</ele>
	<time>2025-07-30T05:42:34.000Z</time>
</trkpt>
<trkpt lat="46.0332000" lon="10.3200790">
	<ele>728.40</ele>
	<time>2025-07-30T05:42:35.000Z</time>
</trkpt>
<trkpt lat="46.0332100" lon="10.3200760">
	<ele>728.40</ele>
	<time>2025-07-30T05:42:36.000Z</time>
</trkpt>
<trkpt lat="46.0332180" lon="10.3200740">
	<ele>728.80</ele>
	<time>2025-07-30T05:42:37.000Z</time>
</trkpt>
<trkpt lat="46.0332240" lon="10.3200720">
	<ele>729.00</ele>
	<time>2025-07-30T05:42:38.000Z</time>
</trkpt>
<trkpt lat="46.0332300" lon="10.3200720">
	<ele>729.20</ele>
	<time>2025-07-30T05:42:39.000Z</time>
</trkpt>
<trkpt lat="46.0332360" lon="10.3200680">
	<ele>729.20</ele>
	<time>2025-07-30T05:42:40.000Z</time>
</trkpt>
<trkpt lat="46.0332420" lon="10.3200680">
	<ele>729.40</ele>
	<time>2025-07-30T05:42:41.000Z</time>
</trkpt>
<trkpt lat="46.0332490" lon="10.3200640">
	<ele>729.40</ele>
	<time>2025-07-30T05:42:42.000Z</time>
</trkpt>
<trkpt lat="46.0332600" lon="10.3200510">
	<ele>729.60</ele>
	<time>2025-07-30T05:42:43.000Z</time>
</trkpt>
<trkpt lat="46.0332740" lon="10.3200330">
	<ele>729.60</ele>
	<time>2025-07-30T05:42:44.000Z</time>
</trkpt>
<trkpt lat="46.0332870" lon="10.3200210">
	<ele>729.80</ele>
	<time>2025-07-30T05:42:45.000Z</time>
</trkpt>
<trkpt lat="46.0333010" lon="10.3200110">
	<ele>730.20</ele>
	<time>2025-07-30T05:42:46.000Z</time>
</trkpt>
<trkpt lat="46.0333130" lon="10.3200030">
	<ele>730.20</ele>
	<time>2025-07-30T05:42:47.000Z</time>
</trkpt>
<trkpt lat="46.0333250" lon="10.3200020">
	<ele>730.40</ele>
	<time>2025-07-30T05:42:48.000Z</time>
</trkpt>
<trkpt lat="46.0333390" lon="10.3200040">
	<ele>730.40</ele>
	<time>2025-07-30T05:42:49.000Z</time>
</trkpt>
<trkpt lat="46.0333490" lon="10.3200030">
	<ele>730.60</ele>
	<time>2025-07-30T05:42:50.000Z</time>
</trkpt>
<trkpt lat="46.0333590" lon="10.3200020">
	<ele>730.80</ele>
	<time>2025-07-30T05:42:51.000Z</time>
</trkpt>
<trkpt lat="46.0333630" lon="10.3199960">
	<ele>731.00</ele>
	<time>2025-07-30T05:42:52.000Z</time>
</trkpt>
<trkpt lat="46.0333640" lon="10.3199920">
	<ele>731.00</ele>
	<time>2025-07-30T05:42:53.000Z</time>
</trkpt>
<trkpt lat="46.0333730" lon="10.3199890">
	<ele>731.20</ele>
	<time>2025-07-30T05:42:54.000Z</time>
</trkpt>
<trkpt lat="46.0333860" lon="10.3199790">
	<ele>731.20</ele>
	<time>2025-07-30T05:42:55.000Z</time>
</trkpt>
<trkpt lat="46.0333920" lon="10.3199750">
	<ele>731.40</ele>
	<time>2025-07-30T05:42:56.000Z</time>
</trkpt>
<trkpt lat="46.0334010" lon="10.3199750">
	<ele>731.40</ele>
	<time>2025-07-30T05:42:57.000Z</time>
</trkpt>
<trkpt lat="46.0334100" lon="10.3199720">
	<ele>731.60</ele>
	<time>2025-07-30T05:42:58.000Z</time>
</trkpt>
<trkpt lat="46.0334180" lon="10.3199670">
	<ele>731.60</ele>
	<time>2025-07-30T05:42:59.000Z</time>
</trkpt>
<trkpt lat="46.0334230" lon="10.3199600">
	<ele>731.60</ele>
	<time>2025-07-30T05:43:00.000Z</time>
</trkpt>
<trkpt lat="46.0334250" lon="10.3199560">
	<ele>731.80</ele>
	<time>2025-07-30T05:43:01.000Z</time>
</trkpt>
<trkpt lat="46.0334260" lon="10.3199500">
	<ele>732.00</ele>
	<time>2025-07-30T05:43:02.000Z</time>
</trkpt>
<trkpt lat="46.0334360" lon="10.3199380">
	<ele>732.00</ele>
	<time>2025-07-30T05:43:03.000Z</time>
</trkpt>
<trkpt lat="46.0334450" lon="10.3199280">
	<ele>732.20</ele>
	<time>2025-07-30T05:43:04.000Z</time>
</trkpt>
<trkpt lat="46.0334530" lon="10.3199180">
	<ele>732.40</ele>
	<time>2025-07-30T05:43:05.000Z</time>
</trkpt>
<trkpt lat="46.0334610" lon="10.3199200">
	<ele>732.60</ele>
	<time>2025-07-30T05:43:06.000Z</time>
</trkpt>
<trkpt lat="46.0334690" lon="10.3199260">
	<ele>732.80</ele>
	<time>2025-07-30T05:43:07.000Z</time>
</trkpt>
<trkpt lat="46.0334760" lon="10.3199330">
	<ele>732.80</ele>
	<time>2025-07-30T05:43:08.000Z</time>
</trkpt>
<trkpt lat="46.0334800" lon="10.3199350">
	<ele>733.00</ele>
	<time>2025-07-30T05:43:09.000Z</time>
</trkpt>
<trkpt lat="46.0334840" lon="10.3199350">
	<ele>733.40</ele>
	<time>2025-07-30T05:43:10.000Z</time>
</trkpt>
<trkpt lat="46.0334870" lon="10.3199390">
	<ele>733.60</ele>
	<time>2025-07-30T05:43:11.000Z</time>
</trkpt>
<trkpt lat="46.0334890" lon="10.3199280">
	<ele>733.80</ele>
	<time>2025-07-30T05:43:12.000Z</time>
</trkpt>
<trkpt lat="46.0334940" lon="10.3199160">
	<ele>734.00</ele>
	<time>2025-07-30T05:43:13.000Z</time>
</trkpt>
<trkpt lat="46.0334970" lon="10.3198960">
	<ele>734.20</ele>
	<time>2025-07-30T05:43:14.000Z</time>
</trkpt>
<trkpt lat="46.0335020" lon="10.3198740">
	<ele>734.40</ele>
	<time>2025-07-30T05:43:15.000Z</time>
</trkpt>
<trkpt lat="46.0335020" lon="10.3198650">
	<ele>734.40</ele>
	<time>2025-07-30T05:43:16.000Z</time>
</trkpt>
<trkpt lat="46.0335090" lon="10.3198560">
	<ele>734.60</ele>
	<time>2025-07-30T05:43:17.000Z</time>
</trkpt>
<trkpt lat="46.0335140" lon="10.3198520">
	<ele>734.80</ele>
	<time>2025-07-30T05:43:18.000Z</time>
</trkpt>
<trkpt lat="46.0335290" lon="10.3198620">
	<ele>735.00</ele>
	<time>2025-07-30T05:43:19.000Z</time>
</trkpt>
<trkpt lat="46.0335360" lon="10.3198600">
	<ele>735.20</ele>
	<time>2025-07-30T05:43:20.000Z</time>
</trkpt>
<trkpt lat="46.0335360" lon="10.3198570">
	<ele>735.40</ele>
	<time>2025-07-30T05:43:21.000Z</time>
</trkpt>
<trkpt lat="46.0335330" lon="10.3198460">
	<ele>735.60</ele>
	<time>2025-07-30T05:43:22.000Z</time>
</trkpt>
<trkpt lat="46.0335380" lon="10.3198390">
	<ele>736.00</ele>
	<time>2025-07-30T05:43:23.000Z</time>
</trkpt>
<trkpt lat="46.0335470" lon="10.3198320">
	<ele>736.20</ele>
	<time>2025-07-30T05:43:24.000Z</time>
</trkpt>
<trkpt lat="46.0335570" lon="10.3198270">
	<ele>736.40</ele>
	<time>2025-07-30T05:43:25.000Z</time>
</trkpt>
<trkpt lat="46.0335580" lon="10.3198240">
	<ele>736.60</ele>
	<time>2025-07-30T05:43:26.000Z</time>
</trkpt>
<trkpt lat="46.0335600" lon="10.3198240">
	<ele>736.80</ele>
	<time>2025-07-30T05:43:27.000Z</time>
</trkpt>
<trkpt lat="46.0335630" lon="10.3198240">
	<ele>737.20</ele>
	<time>2025-07-30T05:43:28.000Z</time>
</trkpt>
<trkpt lat="46.0335760" lon="10.3198400">
	<ele>737.40</ele>
	<time>2025-07-30T05:43:29.000Z</time>
</trkpt>
<trkpt lat="46.0335880" lon="10.3198520">
	<ele>737.60</ele>
	<time>2025-07-30T05:43:30.000Z</time>
</trkpt>
<trkpt lat="46.0335970" lon="10.3198540">
	<ele>738.00</ele>
	<time>2025-07-30T05:43:31.000Z</time>
</trkpt>
<trkpt lat="46.0336060" lon="10.3198570">
	<ele>738.20</ele>
	<time>2025-07-30T05:43:32.000Z</time>
</trkpt>
<trkpt lat="46.0336120" lon="10.3198590">
	<ele>738.40</ele>
	<time>2025-07-30T05:43:33.000Z</time>
</trkpt>
<trkpt lat="46.0336160" lon="10.3198760">
	<ele>738.60</ele>
	<time>2025-07-30T05:43:34.000Z</time>
</trkpt>
<trkpt lat="46.0336190" lon="10.3198820">
	<ele>739.00</ele>
	<time>2025-07-30T05:43:35.000Z</time>
</trkpt>
<trkpt lat="46.0336180" lon="10.3198860">
	<ele>739.20</ele>
	<time>2025-07-30T05:43:36.000Z</time>
</trkpt>
<trkpt lat="46.0336240" lon="10.3198890">
	<ele>739.40</ele>
	<time>2025-07-30T05:43:37.000Z</time>
</trkpt>
<trkpt lat="46.0336250" lon="10.3198930">
	<ele>739.60</ele>
	<time>2025-07-30T05:43:38.000Z</time>
</trkpt>
<trkpt lat="46.0336240" lon="10.3198990">
	<ele>739.60</ele>
	<time>2025-07-30T05:43:39.000Z</time>
</trkpt>
<trkpt lat="46.0336090" lon="10.3198850">
	<ele>739.60</ele>
	<time>2025-07-30T05:43:40.000Z</time>
</trkpt>
<trkpt lat="46.0335820" lon="10.3198590">
	<ele>739.60</ele>
	<time>2025-07-30T05:43:41.000Z</time>
</trkpt>
<trkpt lat="46.0335670" lon="10.3198370">
	<ele>739.40</ele>
	<time>2025-07-30T05:43:42.000Z</time>
</trkpt>
<trkpt lat="46.0335580" lon="10.3198300">
	<ele>739.40</ele>
	<time>2025-07-30T05:43:43.000Z</time>
</trkpt>
<trkpt lat="46.0335540" lon="10.3198300">
	<ele>739.20</ele>
	<time>2025-07-30T05:43:44.000Z</time>
</trkpt>
<trkpt lat="46.0335540" lon="10.3198380">
	<ele>739.20</ele>
	<time>2025-07-30T05:43:45.000Z</time>
</trkpt>
<trkpt lat="46.0335540" lon="10.3198410">
	<ele>739.40</ele>
	<time>2025-07-30T05:43:46.000Z</time>
</trkpt>
<trkpt lat="46.0335440" lon="10.3198360">
	<ele>739.40</ele>
	<time>2025-07-30T05:43:47.000Z</time>
</trkpt>
<trkpt lat="46.0335530" lon="10.3198530">
	<ele>739.40</ele>
	<time>2025-07-30T05:43:48.000Z</time>
</trkpt>
<trkpt lat="46.0335560" lon="10.3198580">
	<ele>739.40</ele>
	<time>2025-07-30T05:43:49.000Z</time>
</trkpt>
<trkpt lat="46.0335580" lon="10.3198590">
	<ele>739.40</ele>
	<time>2025-07-30T05:43:50.000Z</time>
</trkpt>
<trkpt lat="46.0335600" lon="10.3198320">
	<ele>739.40</ele>
	<time>2025-07-30T05:43:51.000Z</time>
</trkpt>
<trkpt lat="46.0335590" lon="10.3198220">
	<ele>739.40</ele>
	<time>2025-07-30T05:43:52.000Z</time>
</trkpt>
<trkpt lat="46.0335570" lon="10.3198120">
	<ele>739.40</ele>
	<time>2025-07-30T05:43:53.000Z</time>
</trkpt>
<trkpt lat="46.0335590" lon="10.3197990">
	<ele>739.40</ele>
	<time>2025-07-30T05:43:54.000Z</time>
</trkpt>
<trkpt lat="46.0335640" lon="10.3198080">
	<ele>739.40</ele>
	<time>2025-07-30T05:43:55.000Z</time>
</trkpt>
<trkpt lat="46.0335650" lon="10.3197930">
	<ele>739.40</ele>
	<time>2025-07-30T05:43:56.000Z</time>
</trkpt>
<trkpt lat="46.0335610" lon="10.3197720">
	<ele>739.40</ele>
	<time>2025-07-30T05:43:57.000Z</time>
</trkpt>
<trkpt lat="46.0335610" lon="10.3197680">
	<ele>739.40</ele>
	<time>2025-07-30T05:43:58.000Z</time>
</trkpt>
<trkpt lat="46.0335610" lon="10.3197680">
	<ele>739.40</ele>
	<time>2025-07-30T05:43:59.000Z</time>
</trkpt>
<trkpt lat="46.0335660" lon="10.3197490">
	<ele>739.40</ele>
	<time>2025-07-30T05:44:00.000Z</time>
</trkpt>
<trkpt lat="46.0335690" lon="10.3197370">
	<ele>739.40</ele>
	<time>2025-07-30T05:44:01.000Z</time>
</trkpt>
<trkpt lat="46.0335720" lon="10.3197080">
	<ele>739.40</ele>
	<time>2025-07-30T05:44:02.000Z</time>
</trkpt>
<trkpt lat="46.0335790" lon="10.3196960">
	<ele>739.40</ele>
	<time>2025-07-30T05:44:03.000Z</time>
</trkpt>
<trkpt lat="46.0335820" lon="10.3196880">
	<ele>739.40</ele>
	<time>2025-07-30T05:44:04.000Z</time>
</trkpt>
<trkpt lat="46.0335880" lon="10.3196840">
	<ele>739.40</ele>
	<time>2025-07-30T05:44:05.000Z</time>
</trkpt>
<trkpt lat="46.0336020" lon="10.3196840">
	<ele>739.40</ele>
	<time>2025-07-30T05:44:06.000Z</time>
</trkpt>
<trkpt lat="46.0336120" lon="10.3196710">
	<ele>739.40</ele>
	<time>2025-07-30T05:44:07.000Z</time>
</trkpt>
<trkpt lat="46.0336210" lon="10.3196650">
	<ele>739.40</ele>
	<time>2025-07-30T05:44:08.000Z</time>
</trkpt>
<trkpt lat="46.0336230" lon="10.3196580">
	<ele>739.40</ele>
	<time>2025-07-30T05:44:09.000Z</time>
</trkpt>
<trkpt lat="46.0336220" lon="10.3196520">
	<ele>739.40</ele>
	<time>2025-07-30T05:44:10.000Z</time>
</trkpt>
<trkpt lat="46.0336170" lon="10.3196450">
	<ele>739.40</ele>
	<time>2025-07-30T05:44:11.000Z</time>
</trkpt>
<trkpt lat="46.0336090" lon="10.3196660">
	<ele>739.40</ele>
	<time>2025-07-30T05:44:12.000Z</time>
</trkpt>
<trkpt lat="46.0336080" lon="10.3196780">
	<ele>739.40</ele>
	<time>2025-07-30T05:44:13.000Z</time>
</trkpt>
<trkpt lat="46.0335990" lon="10.3196760">
	<ele>739.40</ele>
	<time>2025-07-30T05:44:14.000Z</time>
</trkpt>
<trkpt lat="46.0335860" lon="10.3196520">
	<ele>739.40</ele>
	<time>2025-07-30T05:44:15.000Z</time>
</trkpt>
<trkpt lat="46.0335710" lon="10.3196540">
	<ele>739.40</ele>
	<time>2025-07-30T05:44:16.000Z</time>
</trkpt>
<trkpt lat="46.0335580" lon="10.3196520">
	<ele>739.40</ele>
	<time>2025-07-30T05:44:17.000Z</time>
</trkpt>
<trkpt lat="46.0335280" lon="10.3195920">
	<ele>739.40</ele>
	<time>2025-07-30T05:44:18.000Z</time>
</trkpt>
<trkpt lat="46.0334960" lon="10.3194930">
	<ele>739.40</ele>
	<time>2025-07-30T05:44:19.000Z</time>
</trkpt>
<trkpt lat="46.0334730" lon="10.3194080">
	<ele>739.40</ele>
	<time>2025-07-30T05:44:20.000Z</time>
</trkpt>
<trkpt lat="46.0334600" lon="10.3193530">
	<ele>739.60</ele>
	<time>2025-07-30T05:44:21.000Z</time>
</trkpt>
<trkpt lat="46.0334580" lon="10.3193640">
	<ele>739.80</ele>
	<time>2025-07-30T05:44:22.000Z</time>
</trkpt>
<trkpt lat="46.0334550" lon="10.3194230">
	<ele>740.20</ele>
	<time>2025-07-30T05:44:23.000Z</time>
</trkpt>
<trkpt lat="46.0334450" lon="10.3194210">
	<ele>740.40</ele>
	<time>2025-07-30T05:44:24.000Z</time>
</trkpt>
<trkpt lat="46.0334410" lon="10.3194380">
	<ele>740.80</ele>
	<time>2025-07-30T05:44:25.000Z</time>
</trkpt>
<trkpt lat="46.0334380" lon="10.3194510">
	<ele>741.00</ele>
	<time>2025-07-30T05:44:26.000Z</time>
</trkpt>
<trkpt lat="46.0334320" lon="10.3194580">
	<ele>741.20</ele>
	<time>2025-07-30T05:44:27.000Z</time>
</trkpt>
<trkpt lat="46.0334310" lon="10.3194790">
	<ele>741.40</ele>
	<time>2025-07-30T05:44:28.000Z</time>
</trkpt>
<trkpt lat="46.0334290" lon="10.3194960">
	<ele>741.60</ele>
	<time>2025-07-30T05:44:29.000Z</time>
</trkpt>
<trkpt lat="46.0334250" lon="10.3195010">
	<ele>741.80</ele>
	<time>2025-07-30T05:44:30.000Z</time>
</trkpt>
<trkpt lat="46.0334280" lon="10.3195170">
	<ele>742.00</ele>
	<time>2025-07-30T05:44:31.000Z</time>
</trkpt>
<trkpt lat="46.0334260" lon="10.3195180">
	<ele>742.20</ele>
	<time>2025-07-30T05:44:32.000Z</time>
</trkpt>
<trkpt lat="46.0334250" lon="10.3195300">
	<ele>742.20</ele>
	<time>2025-07-30T05:44:33.000Z</time>
</trkpt>
<trkpt lat="46.0334250" lon="10.3195490">
	<ele>742.40</ele>
	<time>2025-07-30T05:44:34.000Z</time>
</trkpt>
<trkpt lat="46.0334240" lon="10.3195620">
	<ele>742.40</ele>
	<time>2025-07-30T05:44:35.000Z</time>
</trkpt>
<trkpt lat="46.0334200" lon="10.3195650">
	<ele>742.60</ele>
	<time>2025-07-30T05:44:36.000Z</time>
</trkpt>
<trkpt lat="46.0334150" lon="10.3195810">
	<ele>742.80</ele>
	<time>2025-07-30T05:44:37.000Z</time>
</trkpt>
<trkpt lat="46.0334130" lon="10.3196000">
	<ele>743.00</ele>
	<time>2025-07-30T05:44:38.000Z</time>
</trkpt>
<trkpt lat="46.0334110" lon="10.3196130">
	<ele>743.20</ele>
	<time>2025-07-30T05:44:39.000Z</time>
</trkpt>
<trkpt lat="46.0334070" lon="10.3196300">
	<ele>743.40</ele>
	<time>2025-07-30T05:44:40.000Z</time>
</trkpt>
<trkpt lat="46.0334050" lon="10.3196300">
	<ele>743.60</ele>
	<time>2025-07-30T05:44:41.000Z</time>
</trkpt>
<trkpt lat="46.0334030" lon="10.3196330">
	<ele>743.80</ele>
	<time>2025-07-30T05:44:42.000Z</time>
</trkpt>
<trkpt lat="46.0334020" lon="10.3196480">
	<ele>744.20</ele>
	<time>2025-07-30T05:44:43.000Z</time>
</trkpt>
<trkpt lat="46.0334040" lon="10.3196670">
	<ele>744.20</ele>
	<time>2025-07-30T05:44:44.000Z</time>
</trkpt>
<trkpt lat="46.0334010" lon="10.3196840">
	<ele>744.40</ele>
	<time>2025-07-30T05:44:45.000Z</time>
</trkpt>
<trkpt lat="46.0334000" lon="10.3197030">
	<ele>744.60</ele>
	<time>2025-07-30T05:44:46.000Z</time>
</trkpt>
<trkpt lat="46.0333950" lon="10.3197320">
	<ele>745.00</ele>
	<time>2025-07-30T05:44:47.000Z</time>
</trkpt>
<trkpt lat="46.0333940" lon="10.3197600">
	<ele>745.20</ele>
	<time>2025-07-30T05:44:48.000Z</time>
</trkpt>
<trkpt lat="46.0333980" lon="10.3197780">
	<ele>745.40</ele>
	<time>2025-07-30T05:44:49.000Z</time>
</trkpt>
<trkpt lat="46.0333990" lon="10.3197890">
	<ele>745.60</ele>
	<time>2025-07-30T05:44:50.000Z</time>
</trkpt>
<trkpt lat="46.0334000" lon="10.3198030">
	<ele>746.00</ele>
	<time>2025-07-30T05:44:51.000Z</time>
</trkpt>
<trkpt lat="46.0333920" lon="10.3198000">
	<ele>746.20</ele>
	<time>2025-07-30T05:44:52.000Z</time>
</trkpt>
<trkpt lat="46.0333780" lon="10.3197970">
	<ele>746.60</ele>
	<time>2025-07-30T05:44:53.000Z</time>
</trkpt>
<trkpt lat="46.0333660" lon="10.3198010">
	<ele>746.60</ele>
	<time>2025-07-30T05:44:54.000Z</time>
</trkpt>
<trkpt lat="46.0333560" lon="10.3198140">
	<ele>747.00</ele>
	<time>2025-07-30T05:44:55.000Z</time>
</trkpt>
<trkpt lat="46.0333500" lon="10.3198290">
	<ele>747.20</ele>
	<time>2025-07-30T05:44:56.000Z</time>
</trkpt>
<trkpt lat="46.0333450" lon="10.3198490">
	<ele>747.40</ele>
	<time>2025-07-30T05:44:57.000Z</time>
</trkpt>
<trkpt lat="46.0333400" lon="10.3198650">
	<ele>747.80</ele>
	<time>2025-07-30T05:44:58.000Z</time>
</trkpt>
<trkpt lat="46.0333360" lon="10.3198850">
	<ele>748.00</ele>
	<time>2025-07-30T05:44:59.000Z</time>
</trkpt>
<trkpt lat="46.0333290" lon="10.3199100">
	<ele>748.20</ele>
	<time>2025-07-30T05:45:00.000Z</time>
</trkpt>
<trkpt lat="46.0333240" lon="10.3199350">
	<ele>748.40</ele>
	<time>2025-07-30T05:45:01.000Z</time>
</trkpt>
<trkpt lat="46.0333180" lon="10.3199570">
	<ele>748.60</ele>
	<time>2025-07-30T05:45:02.000Z</time>
</trkpt>
<trkpt lat="46.0333170" lon="10.3199810">
	<ele>748.80</ele>
	<time>2025-07-30T05:45:03.000Z</time>
</trkpt>
<trkpt lat="46.0333200" lon="10.3200170">
	<ele>748.80</ele>
	<time>2025-07-30T05:45:04.000Z</time>
</trkpt>
<trkpt lat="46.0333190" lon="10.3200520">
	<ele>749.00</ele>
	<time>2025-07-30T05:45:05.000Z</time>
</trkpt>
<trkpt lat="46.0333190" lon="10.3200810">
	<ele>749.00</ele>
	<time>2025-07-30T05:45:06.000Z</time>
</trkpt>
<trkpt lat="46.0333180" lon="10.3201020">
	<ele>749.20</ele>
	<time>2025-07-30T05:45:07.000Z</time>
</trkpt>
<trkpt lat="46.0333200" lon="10.3201320">
	<ele>749.20</ele>
	<time>2025-07-30T05:45:08.000Z</time>
</trkpt>
<trkpt lat="46.0333190" lon="10.3201610">
	<ele>749.20</ele>
	<time>2025-07-30T05:45:09.000Z</time>
</trkpt>
<trkpt lat="46.0333170" lon="10.3201860">
	<ele>749.40</ele>
	<time>2025-07-30T05:45:10.000Z</time>
</trkpt>
<trkpt lat="46.0333160" lon="10.3202110">
	<ele>749.40</ele>
	<time>2025-07-30T05:45:11.000Z</time>
</trkpt>
<trkpt lat="46.0333140" lon="10.3202350">
	<ele>749.40</ele>
	<time>2025-07-30T05:45:12.000Z</time>
</trkpt>
<trkpt lat="46.0333090" lon="10.3202610">
	<ele>749.60</ele>
	<time>2025-07-30T05:45:13.000Z</time>
</trkpt>
<trkpt lat="46.0333060" lon="10.3202780">
	<ele>749.60</ele>
	<time>2025-07-30T05:45:14.000Z</time>
</trkpt>
<trkpt lat="46.0333060" lon="10.3203040">
	<ele>749.80</ele>
	<time>2025-07-30T05:45:15.000Z</time>
</trkpt>
<trkpt lat="46.0333050" lon="10.3203280">
	<ele>749.80</ele>
	<time>2025-07-30T05:45:16.000Z</time>
</trkpt>
<trkpt lat="46.0333070" lon="10.3203490">
	<ele>750.00</ele>
	<time>2025-07-30T05:45:17.000Z</time>
</trkpt>
<trkpt lat="46.0333060" lon="10.3203700">
	<ele>750.20</ele>
	<time>2025-07-30T05:45:18.000Z</time>
</trkpt>
<trkpt lat="46.0333060" lon="10.3203910">
	<ele>750.20</ele>
	<time>2025-07-30T05:45:19.000Z</time>
</trkpt>
<trkpt lat="46.0333040" lon="10.3204100">
	<ele>750.40</ele>
	<time>2025-07-30T05:45:20.000Z</time>
</trkpt>
<trkpt lat="46.0333070" lon="10.3204310">
	<ele>750.40</ele>
	<time>2025-07-30T05:45:21.000Z</time>
</trkpt>
<trkpt lat="46.0333100" lon="10.3204500">
	<ele>750.60</ele>
	<time>2025-07-30T05:45:22.000Z</time>
</trkpt>
<trkpt lat="46.0333060" lon="10.3204660">
	<ele>750.80</ele>
	<time>2025-07-30T05:45:23.000Z</time>
</trkpt>
<trkpt lat="46.0333070" lon="10.3204880">
	<ele>750.80</ele>
	<time>2025-07-30T05:45:24.000Z</time>
</trkpt>
<trkpt lat="46.0333060" lon="10.3205130">
	<ele>750.80</ele>
	<time>2025-07-30T05:45:25.000Z</time>
</trkpt>
<trkpt lat="46.0333030" lon="10.3205410">
	<ele>750.80</ele>
	<time>2025-07-30T05:45:26.000Z</time>
</trkpt>
<trkpt lat="46.0333030" lon="10.3205570">
	<ele>751.00</ele>
	<time>2025-07-30T05:45:27.000Z</time>
</trkpt>
<trkpt lat="46.0333040" lon="10.3205740">
	<ele>751.20</ele>
	<time>2025-07-30T05:45:28.000Z</time>
</trkpt>
<trkpt lat="46.0333050" lon="10.3205930">
	<ele>751.20</ele>
	<time>2025-07-30T05:45:29.000Z</time>
</trkpt>
<trkpt lat="46.0333060" lon="10.3205980">
	<ele>751.40</ele>
	<time>2025-07-30T05:45:30.000Z</time>
</trkpt>
<trkpt lat="46.0333100" lon="10.3206090">
	<ele>751.60</ele>
	<time>2025-07-30T05:45:31.000Z</time>
</trkpt>
<trkpt lat="46.0333110" lon="10.3206200">
	<ele>751.80</ele>
	<time>2025-07-30T05:45:32.000Z</time>
</trkpt>
<trkpt lat="46.0333120" lon="10.3206360">
	<ele>752.00</ele>
	<time>2025-07-30T05:45:33.000Z</time>
</trkpt>
<trkpt lat="46.0333140" lon="10.3206510">
	<ele>752.00</ele>
	<time>2025-07-30T05:45:34.000Z</time>
</trkpt>
<trkpt lat="46.0333150" lon="10.3206670">
	<ele>752.20</ele>
	<time>2025-07-30T05:45:35.000Z</time>
</trkpt>
<trkpt lat="46.0333200" lon="10.3206790">
	<ele>752.40</ele>
	<time>2025-07-30T05:45:36.000Z</time>
</trkpt>
<trkpt lat="46.0333230" lon="10.3206920">
	<ele>752.80</ele>
	<time>2025-07-30T05:45:37.000Z</time>
</trkpt>
<trkpt lat="46.0333260" lon="10.3207070">
	<ele>753.00</ele>
	<time>2025-07-30T05:45:38.000Z</time>
</trkpt>
<trkpt lat="46.0333320" lon="10.3207220">
	<ele>753.00</ele>
	<time>2025-07-30T05:45:39.000Z</time>
</trkpt>
<trkpt lat="46.0333370" lon="10.3207340">
	<ele>753.40</ele>
	<time>2025-07-30T05:45:40.000Z</time>
</trkpt>
<trkpt lat="46.0333430" lon="10.3207450">
	<ele>753.60</ele>
	<time>2025-07-30T05:45:41.000Z</time>
</trkpt>
<trkpt lat="46.0333470" lon="10.3207580">
	<ele>754.00</ele>
	<time>2025-07-30T05:45:42.000Z</time>
</trkpt>
<trkpt lat="46.0333500" lon="10.3207730">
	<ele>754.00</ele>
	<time>2025-07-30T05:45:43.000Z</time>
</trkpt>
<trkpt lat="46.0333550" lon="10.3207850">
	<ele>754.20</ele>
	<time>2025-07-30T05:45:44.000Z</time>
</trkpt>
<trkpt lat="46.0333580" lon="10.3207960">
	<ele>754.40</ele>
	<time>2025-07-30T05:45:45.000Z</time>
</trkpt>
<trkpt lat="46.0333590" lon="10.3208060">
	<ele>754.80</ele>
	<time>2025-07-30T05:45:46.000Z</time>
</trkpt>
<trkpt lat="46.0333590" lon="10.3208120">
	<ele>755.00</ele>
	<time>2025-07-30T05:45:47.000Z</time>
</trkpt>
<trkpt lat="46.0333600" lon="10.3208190">
	<ele>755.20</ele>
	<time>2025-07-30T05:45:48.000Z</time>
</trkpt>
<trkpt lat="46.0333650" lon="10.3208240">
	<ele>755.40</ele>
	<time>2025-07-30T05:45:49.000Z</time>
</trkpt>
<trkpt lat="46.0333680" lon="10.3208330">
	<ele>755.60</ele>
	<time>2025-07-30T05:45:50.000Z</time>
</trkpt>
<trkpt lat="46.0333700" lon="10.3208430">
	<ele>755.80</ele>
	<time>2025-07-30T05:45:51.000Z</time>
</trkpt>
<trkpt lat="46.0333700" lon="10.3208550">
	<ele>756.00</ele>
	<time>2025-07-30T05:45:52.000Z</time>
</trkpt>
<trkpt lat="46.0333710" lon="10.3208620">
	<ele>756.20</ele>
	<time>2025-07-30T05:45:53.000Z</time>
</trkpt>
<trkpt lat="46.0333740" lon="10.3208740">
	<ele>756.40</ele>
	<time>2025-07-30T05:45:54.000Z</time>
</trkpt>
<trkpt lat="46.0333770" lon="10.3208820">
	<ele>756.60</ele>
	<time>2025-07-30T05:45:55.000Z</time>
</trkpt>
<trkpt lat="46.0333750" lon="10.3208910">
	<ele>756.80</ele>
	<time>2025-07-30T05:45:56.000Z</time>
</trkpt>
<trkpt lat="46.0333750" lon="10.3209040">
	<ele>757.20</ele>
	<time>2025-07-30T05:45:57.000Z</time>
</trkpt>
<trkpt lat="46.0333770" lon="10.3209120">
	<ele>757.40</ele>
	<time>2025-07-30T05:45:58.000Z</time>
</trkpt>
<trkpt lat="46.0333790" lon="10.3209210">
	<ele>757.80</ele>
	<time>2025-07-30T05:45:59.000Z</time>
</trkpt>
<trkpt lat="46.0333810" lon="10.3209300">
	<ele>757.80</ele>
	<time>2025-07-30T05:46:00.000Z</time>
</trkpt>
<trkpt lat="46.0333820" lon="10.3209420">
	<ele>758.00</ele>
	<time>2025-07-30T05:46:01.000Z</time>
</trkpt>
<trkpt lat="46.0333830" lon="10.3209460">
	<ele>758.20</ele>
	<time>2025-07-30T05:46:02.000Z</time>
</trkpt>
<trkpt lat="46.0333820" lon="10.3209450">
	<ele>758.40</ele>
	<time>2025-07-30T05:46:03.000Z</time>
</trkpt>
<trkpt lat="46.0333810" lon="10.3209490">
	<ele>758.60</ele>
	<time>2025-07-30T05:46:04.000Z</time>
</trkpt>
<trkpt lat="46.0333800" lon="10.3209520">
	<ele>758.80</ele>
	<time>2025-07-30T05:46:05.000Z</time>
</trkpt>
<trkpt lat="46.0333820" lon="10.3209570">
	<ele>759.00</ele>
	<time>2025-07-30T05:46:06.000Z</time>
</trkpt>
<trkpt lat="46.0333830" lon="10.3209690">
	<ele>759.40</ele>
	<time>2025-07-30T05:46:07.000Z</time>
</trkpt>
<trkpt lat="46.0333830" lon="10.3209700">
	<ele>759.60</ele>
	<time>2025-07-30T05:46:08.000Z</time>
</trkpt>
<trkpt lat="46.0333840" lon="10.3209810">
	<ele>759.80</ele>
	<time>2025-07-30T05:46:09.000Z</time>
</trkpt>
<trkpt lat="46.0333850" lon="10.3209890">
	<ele>759.80</ele>
	<time>2025-07-30T05:46:10.000Z</time>
</trkpt>
<trkpt lat="46.0333890" lon="10.3210010">
	<ele>760.00</ele>
	<time>2025-07-30T05:46:11.000Z</time>
</trkpt>
<trkpt lat="46.0333940" lon="10.3210130">
	<ele>760.20</ele>
	<time>2025-07-30T05:46:12.000Z</time>
</trkpt>
<trkpt lat="46.0333940" lon="10.3210250">
	<ele>760.60</ele>
	<time>2025-07-30T05:46:13.000Z</time>
</trkpt>
<trkpt lat="46.0333920" lon="10.3210360">
	<ele>761.00</ele>
	<time>2025-07-30T05:46:14.000Z</time>
</trkpt>
<trkpt lat="46.0333940" lon="10.3210530">
	<ele>761.20</ele>
	<time>2025-07-30T05:46:15.000Z</time>
</trkpt>
<trkpt lat="46.0333950" lon="10.3210690">
	<ele>761.40</ele>
	<time>2025-07-30T05:46:16.000Z</time>
</trkpt>
<trkpt lat="46.0333960" lon="10.3210850">
	<ele>761.60</ele>
	<time>2025-07-30T05:46:17.000Z</time>
</trkpt>
<trkpt lat="46.0333990" lon="10.3211010">
	<ele>761.80</ele>
	<time>2025-07-30T05:46:18.000Z</time>
</trkpt>
<trkpt lat="46.0334030" lon="10.3211070">
	<ele>762.20</ele>
	<time>2025-07-30T05:46:19.000Z</time>
</trkpt>
<trkpt lat="46.0334090" lon="10.3211270">
	<ele>762.40</ele>
	<time>2025-07-30T05:46:20.000Z</time>
</trkpt>
<trkpt lat="46.0334140" lon="10.3211360">
	<ele>762.40</ele>
	<time>2025-07-30T05:46:21.000Z</time>
</trkpt>
<trkpt lat="46.0334150" lon="10.3211380">
	<ele>762.60</ele>
	<time>2025-07-30T05:46:22.000Z</time>
</trkpt>
<trkpt lat="46.0334170" lon="10.3211440">
	<ele>762.60</ele>
	<time>2025-07-30T05:46:23.000Z</time>
</trkpt>
<trkpt lat="46.0334220" lon="10.3211520">
	<ele>762.60</ele>
	<time>2025-07-30T05:46:24.000Z</time>
</trkpt>
<trkpt lat="46.0334220" lon="10.3211720">
	<ele>762.80</ele>
	<time>2025-07-30T05:46:25.000Z</time>
</trkpt>
<trkpt lat="46.0334240" lon="10.3211850">
	<ele>762.80</ele>
	<time>2025-07-30T05:46:26.000Z</time>
</trkpt>
<trkpt lat="46.0334290" lon="10.3211930">
	<ele>763.00</ele>
	<time>2025-07-30T05:46:27.000Z</time>
</trkpt>
<trkpt lat="46.0334340" lon="10.3211940">
	<ele>763.20</ele>
	<time>2025-07-30T05:46:28.000Z</time>
</trkpt>
<trkpt lat="46.0334370" lon="10.3211950">
	<ele>763.40</ele>
	<time>2025-07-30T05:46:29.000Z</time>
</trkpt>
<trkpt lat="46.0334390" lon="10.3211970">
	<ele>763.60</ele>
	<time>2025-07-30T05:46:30.000Z</time>
</trkpt>
<trkpt lat="46.0334400" lon="10.3212130">
	<ele>763.60</ele>
	<time>2025-07-30T05:46:31.000Z</time>
</trkpt>
<trkpt lat="46.0334410" lon="10.3212190">
	<ele>763.80</ele>
	<time>2025-07-30T05:46:32.000Z</time>
</trkpt>
<trkpt lat="46.0334410" lon="10.3212220">
	<ele>764.00</ele>
	<time>2025-07-30T05:46:33.000Z</time>
</trkpt>
<trkpt lat="46.0334400" lon="10.3212260">
	<ele>764.20</ele>
	<time>2025-07-30T05:46:34.000Z</time>
</trkpt>
<trkpt lat="46.0334400" lon="10.3212270">
	<ele>764.40</ele>
	<time>2025-07-30T05:46:35.000Z</time>
</trkpt>
<trkpt lat="46.0334350" lon="10.3212360">
	<ele>764.60</ele>
	<time>2025-07-30T05:46:36.000Z</time>
</trkpt>
<trkpt lat="46.0334340" lon="10.3212380">
	<ele>764.60</ele>
	<time>2025-07-30T05:46:37.000Z</time>
</trkpt>
<trkpt lat="46.0334350" lon="10.3212480">
	<ele>764.60</ele>
	<time>2025-07-30T05:46:38.000Z</time>
</trkpt>
<trkpt lat="46.0334380" lon="10.3212590">
	<ele>764.60</ele>
	<time>2025-07-30T05:46:39.000Z</time>
</trkpt>
<trkpt lat="46.0334390" lon="10.3212720">
	<ele>764.60</ele>
	<time>2025-07-30T05:46:40.000Z</time>
</trkpt>
<trkpt lat="46.0334370" lon="10.3212930">
	<ele>764.60</ele>
	<time>2025-07-30T05:46:41.000Z</time>
</trkpt>
<trkpt lat="46.0334390" lon="10.3213030">
	<ele>764.60</ele>
	<time>2025-07-30T05:46:42.000Z</time>
</trkpt>
<trkpt lat="46.0334430" lon="10.3213150">
	<ele>764.80</ele>
	<time>2025-07-30T05:46:43.000Z</time>
</trkpt>
<trkpt lat="46.0334440" lon="10.3213240">
	<ele>765.00</ele>
	<time>2025-07-30T05:46:44.000Z</time>
</trkpt>
<trkpt lat="46.0334360" lon="10.3213540">
	<ele>765.00</ele>
	<time>2025-07-30T05:46:45.000Z</time>
</trkpt>
<trkpt lat="46.0334300" lon="10.3213820">
	<ele>765.20</ele>
	<time>2025-07-30T05:46:46.000Z</time>
</trkpt>
<trkpt lat="46.0334260" lon="10.3214110">
	<ele>765.20</ele>
	<time>2025-07-30T05:46:47.000Z</time>
</trkpt>
<trkpt lat="46.0334250" lon="10.3214300">
	<ele>765.40</ele>
	<time>2025-07-30T05:46:48.000Z</time>
</trkpt>
<trkpt lat="46.0334310" lon="10.3214430">
	<ele>765.60</ele>
	<time>2025-07-30T05:46:49.000Z</time>
</trkpt>
<trkpt lat="46.0334320" lon="10.3214630">
	<ele>765.60</ele>
	<time>2025-07-30T05:46:50.000Z</time>
</trkpt>
<trkpt lat="46.0334350" lon="10.3214880">
	<ele>765.60</ele>
	<time>2025-07-30T05:46:51.000Z</time>
</trkpt>
<trkpt lat="46.0334340" lon="10.3215140">
	<ele>765.60</ele>
	<time>2025-07-30T05:46:52.000Z</time>
</trkpt>
<trkpt lat="46.0334340" lon="10.3215360">
	<ele>765.80</ele>
	<time>2025-07-30T05:46:53.000Z</time>
</trkpt>
<trkpt lat="46.0334400" lon="10.3215510">
	<ele>766.00</ele>
	<time>2025-07-30T05:46:54.000Z</time>
</trkpt>
<trkpt lat="46.0334480" lon="10.3215640">
	<ele>766.00</ele>
	<time>2025-07-30T05:46:55.000Z</time>
</trkpt>
<trkpt lat="46.0334570" lon="10.3215750">
	<ele>766.20</ele>
	<time>2025-07-30T05:46:56.000Z</time>
</trkpt>
<trkpt lat="46.0334690" lon="10.3215810">
	<ele>766.40</ele>
	<time>2025-07-30T05:46:57.000Z</time>
</trkpt>
<trkpt lat="46.0334740" lon="10.3215940">
	<ele>766.40</ele>
	<time>2025-07-30T05:46:58.000Z</time>
</trkpt>
<trkpt lat="46.0334800" lon="10.3216070">
	<ele>766.40</ele>
	<time>2025-07-30T05:46:59.000Z</time>
</trkpt>
<trkpt lat="46.0334830" lon="10.3216250">
	<ele>766.60</ele>
	<time>2025-07-30T05:47:00.000Z</time>
</trkpt>
<trkpt lat="46.0334850" lon="10.3216480">
	<ele>766.60</ele>
	<time>2025-07-30T05:47:01.000Z</time>
</trkpt>
<trkpt lat="46.0334890" lon="10.3216710">
	<ele>766.80</ele>
	<time>2025-07-30T05:47:02.000Z</time>
</trkpt>
<trkpt lat="46.0334980" lon="10.3216850">
	<ele>767.00</ele>
	<time>2025-07-30T05:47:03.000Z</time>
</trkpt>
<trkpt lat="46.0335040" lon="10.3216970">
	<ele>767.00</ele>
	<time>2025-07-30T05:47:04.000Z</time>
</trkpt>
<trkpt lat="46.0335120" lon="10.3217160">
	<ele>767.00</ele>
	<time>2025-07-30T05:47:05.000Z</time>
</trkpt>
<trkpt lat="46.0335190" lon="10.3217230">
	<ele>767.40</ele>
	<time>2025-07-30T05:47:06.000Z</time>
</trkpt>
<trkpt lat="46.0335350" lon="10.3217230">
	<ele>767.40</ele>
	<time>2025-07-30T05:47:07.000Z</time>
</trkpt>
<trkpt lat="46.0335540" lon="10.3217180">
	<ele>767.60</ele>
	<time>2025-07-30T05:47:08.000Z</time>
</trkpt>
<trkpt lat="46.0335680" lon="10.3217190">
	<ele>767.80</ele>
	<time>2025-07-30T05:47:09.000Z</time>
</trkpt>
<trkpt lat="46.0335770" lon="10.3217180">
	<ele>767.80</ele>
	<time>2025-07-30T05:47:10.000Z</time>
</trkpt>
<trkpt lat="46.0335830" lon="10.3217210">
	<ele>768.00</ele>
	<time>2025-07-30T05:47:11.000Z</time>
</trkpt>
<trkpt lat="46.0335920" lon="10.3217150">
	<ele>768.00</ele>
	<time>2025-07-30T05:47:12.000Z</time>
</trkpt>
<trkpt lat="46.0336110" lon="10.3217020">
	<ele>768.00</ele>
	<time>2025-07-30T05:47:13.000Z</time>
</trkpt>
<trkpt lat="46.0336200" lon="10.3217000">
	<ele>768.20</ele>
	<time>2025-07-30T05:47:14.000Z</time>
</trkpt>
<trkpt lat="46.0336340" lon="10.3216960">
	<ele>768.40</ele>
	<time>2025-07-30T05:47:15.000Z</time>
</trkpt>
<trkpt lat="46.0336310" lon="10.3217080">
	<ele>768.60</ele>
	<time>2025-07-30T05:47:16.000Z</time>
</trkpt>
<trkpt lat="46.0336310" lon="10.3217210">
	<ele>768.60</ele>
	<time>2025-07-30T05:47:17.000Z</time>
</trkpt>
<trkpt lat="46.0336410" lon="10.3217160">
	<ele>768.60</ele>
	<time>2025-07-30T05:47:18.000Z</time>
</trkpt>
<trkpt lat="46.0336490" lon="10.3217170">
	<ele>768.80</ele>
	<time>2025-07-30T05:47:19.000Z</time>
</trkpt>
<trkpt lat="46.0336560" lon="10.3217170">
	<ele>769.00</ele>
	<time>2025-07-30T05:47:20.000Z</time>
</trkpt>
<trkpt lat="46.0336690" lon="10.3217120">
	<ele>769.00</ele>
	<time>2025-07-30T05:47:21.000Z</time>
</trkpt>
<trkpt lat="46.0336780" lon="10.3217120">
	<ele>769.20</ele>
	<time>2025-07-30T05:47:22.000Z</time>
</trkpt>
<trkpt lat="46.0336890" lon="10.3217070">
	<ele>769.20</ele>
	<time>2025-07-30T05:47:23.000Z</time>
</trkpt>
<trkpt lat="46.0337020" lon="10.3217010">
	<ele>769.20</ele>
	<time>2025-07-30T05:47:24.000Z</time>
</trkpt>
<trkpt lat="46.0337120" lon="10.3217000">
	<ele>769.40</ele>
	<time>2025-07-30T05:47:25.000Z</time>
</trkpt>
<trkpt lat="46.0337220" lon="10.3216910">
	<ele>769.60</ele>
	<time>2025-07-30T05:47:26.000Z</time>
</trkpt>
<trkpt lat="46.0337280" lon="10.3216850">
	<ele>769.80</ele>
	<time>2025-07-30T05:47:27.000Z</time>
</trkpt>
<trkpt lat="46.0337370" lon="10.3216810">
	<ele>769.80</ele>
	<time>2025-07-30T05:47:28.000Z</time>
</trkpt>
<trkpt lat="46.0337440" lon="10.3216750">
	<ele>770.00</ele>
	<time>2025-07-30T05:47:29.000Z</time>
</trkpt>
<trkpt lat="46.0337590" lon="10.3216650">
	<ele>770.00</ele>
	<time>2025-07-30T05:47:30.000Z</time>
</trkpt>
<trkpt lat="46.0337720" lon="10.3216570">
	<ele>770.20</ele>
	<time>2025-07-30T05:47:31.000Z</time>
</trkpt>
<trkpt lat="46.0337870" lon="10.3216440">
	<ele>770.20</ele>
	<time>2025-07-30T05:47:32.000Z</time>
</trkpt>
<trkpt lat="46.0337900" lon="10.3216420">
	<ele>770.40</ele>
	<time>2025-07-30T05:47:33.000Z</time>
</trkpt>
<trkpt lat="46.0337930" lon="10.3216320">
	<ele>770.60</ele>
	<time>2025-07-30T05:47:34.000Z</time>
</trkpt>
<trkpt lat="46.0337990" lon="10.3216210">
	<ele>770.60</ele>
	<time>2025-07-30T05:47:35.000Z</time>
</trkpt>
<trkpt lat="46.0338100" lon="10.3216080">
	<ele>770.60</ele>
	<time>2025-07-30T05:47:36.000Z</time>
</trkpt>
<trkpt lat="46.0338150" lon="10.3216010">
	<ele>771.00</ele>
	<time>2025-07-30T05:47:37.000Z</time>
</trkpt>
<trkpt lat="46.0338270" lon="10.3216000">
	<ele>771.00</ele>
	<time>2025-07-30T05:47:38.000Z</time>
</trkpt>
<trkpt lat="46.0338450" lon="10.3215880">
	<ele>771.20</ele>
	<time>2025-07-30T05:47:39.000Z</time>
</trkpt>
<trkpt lat="46.0338630" lon="10.3215720">
	<ele>771.20</ele>
	<time>2025-07-30T05:47:40.000Z</time>
</trkpt>
<trkpt lat="46.0338740" lon="10.3215540">
	<ele>771.40</ele>
	<time>2025-07-30T05:47:41.000Z</time>
</trkpt>
<trkpt lat="46.0338860" lon="10.3215390">
	<ele>771.60</ele>
	<time>2025-07-30T05:47:42.000Z</time>
</trkpt>
<trkpt lat="46.0339040" lon="10.3215190">
	<ele>771.80</ele>
	<time>2025-07-30T05:47:43.000Z</time>
</trkpt>
<trkpt lat="46.0339210" lon="10.3215030">
	<ele>772.00</ele>
	<time>2025-07-30T05:47:44.000Z</time>
</trkpt>
<trkpt lat="46.0339470" lon="10.3214930">
	<ele>772.00</ele>
	<time>2025-07-30T05:47:45.000Z</time>
</trkpt>
<trkpt lat="46.0339760" lon="10.3214780">
	<ele>772.20</ele>
	<time>2025-07-30T05:47:46.000Z</time>
</trkpt>
<trkpt lat="46.0340030" lon="10.3214630">
	<ele>772.60</ele>
	<time>2025-07-30T05:47:47.000Z</time>
</trkpt>
<trkpt lat="46.0340240" lon="10.3214490">
	<ele>772.80</ele>
	<time>2025-07-30T05:47:48.000Z</time>
</trkpt>
<trkpt lat="46.0340420" lon="10.3214360">
	<ele>773.00</ele>
	<time>2025-07-30T05:47:49.000Z</time>
</trkpt>
<trkpt lat="46.0340450" lon="10.3214280">
	<ele>773.20</ele>
	<time>2025-07-30T05:47:50.000Z</time>
</trkpt>
<trkpt lat="46.0340500" lon="10.3214170">
	<ele>773.40</ele>
	<time>2025-07-30T05:47:51.000Z</time>
</trkpt>
<trkpt lat="46.0340580" lon="10.3214120">
	<ele>773.60</ele>
	<time>2025-07-30T05:47:52.000Z</time>
</trkpt>
<trkpt lat="46.0340740" lon="10.3214000">
	<ele>773.80</ele>
	<time>2025-07-30T05:47:53.000Z</time>
</trkpt>
<trkpt lat="46.0340750" lon="10.3213910">
	<ele>774.00</ele>
	<time>2025-07-30T05:47:54.000Z</time>
</trkpt>
<trkpt lat="46.0340840" lon="10.3213790">
	<ele>774.00</ele>
	<time>2025-07-30T05:47:55.000Z</time>
</trkpt>
<trkpt lat="46.0340910" lon="10.3213640">
	<ele>774.40</ele>
	<time>2025-07-30T05:47:56.000Z</time>
</trkpt>
<trkpt lat="46.0340920" lon="10.3213540">
	<ele>774.40</ele>
	<time>2025-07-30T05:47:57.000Z</time>
</trkpt>
<trkpt lat="46.0340900" lon="10.3213390">
	<ele>774.60</ele>
	<time>2025-07-30T05:47:58.000Z</time>
</trkpt>
<trkpt lat="46.0341030" lon="10.3213280">
	<ele>774.80</ele>
	<time>2025-07-30T05:47:59.000Z</time>
</trkpt>
<trkpt lat="46.0341150" lon="10.3213160">
	<ele>775.00</ele>
	<time>2025-07-30T05:48:00.000Z</time>
</trkpt>
<trkpt lat="46.0341360" lon="10.3213010">
	<ele>775.20</ele>
	<time>2025-07-30T05:48:01.000Z</time>
</trkpt>
<trkpt lat="46.0341390" lon="10.3212930">
	<ele>775.40</ele>
	<time>2025-07-30T05:48:02.000Z</time>
</trkpt>
<trkpt lat="46.0341400" lon="10.3212760">
	<ele>775.60</ele>
	<time>2025-07-30T05:48:03.000Z</time>
</trkpt>
<trkpt lat="46.0341450" lon="10.3212660">
	<ele>775.80</ele>
	<time>2025-07-30T05:48:04.000Z</time>
</trkpt>
<trkpt lat="46.0341560" lon="10.3212480">
	<ele>776.00</ele>
	<time>2025-07-30T05:48:05.000Z</time>
</trkpt>
<trkpt lat="46.0341700" lon="10.3212300">
	<ele>776.20</ele>
	<time>2025-07-30T05:48:06.000Z</time>
</trkpt>
<trkpt lat="46.0341760" lon="10.3212200">
	<ele>776.20</ele>
	<time>2025-07-30T05:48:07.000Z</time>
</trkpt>
<trkpt lat="46.0341700" lon="10.3212100">
	<ele>776.60</ele>
	<time>2025-07-30T05:48:08.000Z</time>
</trkpt>
<trkpt lat="46.0341730" lon="10.3211980">
	<ele>776.60</ele>
	<time>2025-07-30T05:48:09.000Z</time>
</trkpt>
<trkpt lat="46.0341780" lon="10.3211840">
	<ele>776.80</ele>
	<time>2025-07-30T05:48:10.000Z</time>
</trkpt>
<trkpt lat="46.0341850" lon="10.3211720">
	<ele>777.00</ele>
	<time>2025-07-30T05:48:11.000Z</time>
</trkpt>
<trkpt lat="46.0341940" lon="10.3211650">
	<ele>777.40</ele>
	<time>2025-07-30T05:48:12.000Z</time>
</trkpt>
<trkpt lat="46.0341970" lon="10.3211600">
	<ele>777.60</ele>
	<time>2025-07-30T05:48:13.000Z</time>
</trkpt>
<trkpt lat="46.0342040" lon="10.3211450">
	<ele>777.60</ele>
	<time>2025-07-30T05:48:14.000Z</time>
</trkpt>
<trkpt lat="46.0342010" lon="10.3211290">
	<ele>777.80</ele>
	<time>2025-07-30T05:48:15.000Z</time>
</trkpt>
<trkpt lat="46.0342100" lon="10.3211130">
	<ele>778.00</ele>
	<time>2025-07-30T05:48:16.000Z</time>
</trkpt>
<trkpt lat="46.0342210" lon="10.3210980">
	<ele>778.00</ele>
	<time>2025-07-30T05:48:17.000Z</time>
</trkpt>
<trkpt lat="46.0342320" lon="10.3210810">
	<ele>778.20</ele>
	<time>2025-07-30T05:48:18.000Z</time>
</trkpt>
<trkpt lat="46.0342530" lon="10.3210620">
	<ele>778.20</ele>
	<time>2025-07-30T05:48:19.000Z</time>
</trkpt>
<trkpt lat="46.0342600" lon="10.3210510">
	<ele>778.20</ele>
	<time>2025-07-30T05:48:20.000Z</time>
</trkpt>
<trkpt lat="46.0342570" lon="10.3210350">
	<ele>778.40</ele>
	<time>2025-07-30T05:48:21.000Z</time>
</trkpt>
<trkpt lat="46.0342560" lon="10.3210230">
	<ele>778.40</ele>
	<time>2025-07-30T05:48:22.000Z</time>
</trkpt>
<trkpt lat="46.0342400" lon="10.3209970">
	<ele>778.60</ele>
	<time>2025-07-30T05:48:23.000Z</time>
</trkpt>
<trkpt lat="46.0342380" lon="10.3209870">
	<ele>778.80</ele>
	<time>2025-07-30T05:48:24.000Z</time>
</trkpt>
<trkpt lat="46.0342340" lon="10.3209790">
	<ele>779.00</ele>
	<time>2025-07-30T05:48:25.000Z</time>
</trkpt>
<trkpt lat="46.0342310" lon="10.3209710">
	<ele>779.00</ele>
	<time>2025-07-30T05:48:26.000Z</time>
</trkpt>
<trkpt lat="46.0342320" lon="10.3209550">
	<ele>779.20</ele>
	<time>2025-07-30T05:48:27.000Z</time>
</trkpt>
<trkpt lat="46.0342340" lon="10.3209460">
	<ele>779.40</ele>
	<time>2025-07-30T05:48:28.000Z</time>
</trkpt>
<trkpt lat="46.0342340" lon="10.3209370">
	<ele>779.40</ele>
	<time>2025-07-30T05:48:29.000Z</time>
</trkpt>
<trkpt lat="46.0342310" lon="10.3209300">
	<ele>779.60</ele>
	<time>2025-07-30T05:48:30.000Z</time>
</trkpt>
<trkpt lat="46.0342300" lon="10.3209220">
	<ele>779.80</ele>
	<time>2025-07-30T05:48:31.000Z</time>
</trkpt>
<trkpt lat="46.0342330" lon="10.3209120">
	<ele>779.80</ele>
	<time>2025-07-30T05:48:32.000Z</time>
</trkpt>
<trkpt lat="46.0342320" lon="10.3209000">
	<ele>780.00</ele>
	<time>2025-07-30T05:48:33.000Z</time>
</trkpt>
<trkpt lat="46.0342330" lon="10.3208900">
	<ele>780.20</ele>
	<time>2025-07-30T05:48:34.000Z</time>
</trkpt>
<trkpt lat="46.0342420" lon="10.3208780">
	<ele>780.60</ele>
	<time>2025-07-30T05:48:35.000Z</time>
</trkpt>
<trkpt lat="46.0342440" lon="10.3208740">
	<ele>780.80</ele>
	<time>2025-07-30T05:48:36.000Z</time>
</trkpt>
<trkpt lat="46.0342420" lon="10.3208640">
	<ele>781.00</ele>
	<time>2025-07-30T05:48:37.000Z</time>
</trkpt>
<trkpt lat="46.0342400" lon="10.3208600">
	<ele>781.20</ele>
	<time>2025-07-30T05:48:38.000Z</time>
</trkpt>
<trkpt lat="46.0342440" lon="10.3208610">
	<ele>781.40</ele>
	<time>2025-07-30T05:48:39.000Z</time>
</trkpt>
<trkpt lat="46.0342480" lon="10.3208600">
	<ele>781.40</ele>
	<time>2025-07-30T05:48:40.000Z</time>
</trkpt>
<trkpt lat="46.0342630" lon="10.3208450">
	<ele>781.80</ele>
	<time>2025-07-30T05:48:41.000Z</time>
</trkpt>
<trkpt lat="46.0342830" lon="10.3208230">
	<ele>781.80</ele>
	<time>2025-07-30T05:48:42.000Z</time>
</trkpt>
<trkpt lat="46.0342920" lon="10.3208150">
	<ele>782.00</ele>
	<time>2025-07-30T05:48:43.000Z</time>
</trkpt>
<trkpt lat="46.0342940" lon="10.3208010">
	<ele>782.00</ele>
	<time>2025-07-30T05:48:44.000Z</time>
</trkpt>
<trkpt lat="46.0342990" lon="10.3207970">
	<ele>782.20</ele>
	<time>2025-07-30T05:48:45.000Z</time>
</trkpt>
<trkpt lat="46.0343060" lon="10.3207960">
	<ele>782.40</ele>
	<time>2025-07-30T05:48:46.000Z</time>
</trkpt>
<trkpt lat="46.0343170" lon="10.3207920">
	<ele>782.60</ele>
	<time>2025-07-30T05:48:47.000Z</time>
</trkpt>
<trkpt lat="46.0343280" lon="10.3207910">
	<ele>782.80</ele>
	<time>2025-07-30T05:48:48.000Z</time>
</trkpt>
<trkpt lat="46.0343420" lon="10.3207820">
	<ele>782.80</ele>
	<time>2025-07-30T05:48:49.000Z</time>
</trkpt>
<trkpt lat="46.0343500" lon="10.3207720">
	<ele>783.00</ele>
	<time>2025-07-30T05:48:50.000Z</time>
</trkpt>
<trkpt lat="46.0343580" lon="10.3207740">
	<ele>783.00</ele>
	<time>2025-07-30T05:48:51.000Z</time>
</trkpt>
<trkpt lat="46.0343630" lon="10.3207760">
	<ele>783.20</ele>
	<time>2025-07-30T05:48:52.000Z</time>
</trkpt>
<trkpt lat="46.0343590" lon="10.3207740">
	<ele>783.20</ele>
	<time>2025-07-30T05:48:53.000Z</time>
</trkpt>
<trkpt lat="46.0343510" lon="10.3207760">
	<ele>783.20</ele>
	<time>2025-07-30T05:48:54.000Z</time>
</trkpt>
<trkpt lat="46.0343440" lon="10.3207760">
	<ele>783.40</ele>
	<time>2025-07-30T05:48:55.000Z</time>
</trkpt>
<trkpt lat="46.0343360" lon="10.3207780">
	<ele>783.40</ele>
	<time>2025-07-30T05:48:56.000Z</time>
</trkpt>
<trkpt lat="46.0343330" lon="10.3207820">
	<ele>783.40</ele>
	<time>2025-07-30T05:48:57.000Z</time>
</trkpt>
<trkpt lat="46.0343300" lon="10.3207860">
	<ele>783.20</ele>
	<time>2025-07-30T05:48:58.000Z</time>
</trkpt>
<trkpt lat="46.0343290" lon="10.3207890">
	<ele>783.20</ele>
	<time>2025-07-30T05:48:59.000Z</time>
</trkpt>
<trkpt lat="46.0343280" lon="10.3207890">
	<ele>783.20</ele>
	<time>2025-07-30T05:49:00.000Z</time>
</trkpt>
<trkpt lat="46.0343270" lon="10.3207890">
	<ele>783.20</ele>
	<time>2025-07-30T05:49:01.000Z</time>
</trkpt>
<trkpt lat="46.0343230" lon="10.3207850">
	<ele>783.20</ele>
	<time>2025-07-30T05:49:02.000Z</time>
</trkpt>
<trkpt lat="46.0343250" lon="10.3207900">
	<ele>783.20</ele>
	<time>2025-07-30T05:49:03.000Z</time>
</trkpt>
<trkpt lat="46.0343220" lon="10.3208010">
	<ele>783.20</ele>
	<time>2025-07-30T05:49:04.000Z</time>
</trkpt>
<trkpt lat="46.0343180" lon="10.3208060">
	<ele>783.40</ele>
	<time>2025-07-30T05:49:05.000Z</time>
</trkpt>
<trkpt lat="46.0343130" lon="10.3208140">
	<ele>783.40</ele>
	<time>2025-07-30T05:49:06.000Z</time>
</trkpt>
<trkpt lat="46.0343120" lon="10.3208170">
	<ele>783.40</ele>
	<time>2025-07-30T05:49:07.000Z</time>
</trkpt>
<trkpt lat="46.0343100" lon="10.3208190">
	<ele>783.40</ele>
	<time>2025-07-30T05:49:08.000Z</time>
</trkpt>
<trkpt lat="46.0343120" lon="10.3208110">
	<ele>783.40</ele>
	<time>2025-07-30T05:49:09.000Z</time>
</trkpt>
<trkpt lat="46.0343200" lon="10.3208020">
	<ele>783.40</ele>
	<time>2025-07-30T05:49:10.000Z</time>
</trkpt>
<trkpt lat="46.0343310" lon="10.3207950">
	<ele>783.40</ele>
	<time>2025-07-30T05:49:11.000Z</time>
</trkpt>
<trkpt lat="46.0343430" lon="10.3207780">
	<ele>783.40</ele>
	<time>2025-07-30T05:49:12.000Z</time>
</trkpt>
<trkpt lat="46.0343510" lon="10.3207610">
	<ele>783.40</ele>
	<time>2025-07-30T05:49:13.000Z</time>
</trkpt>
<trkpt lat="46.0343630" lon="10.3207410">
	<ele>783.40</ele>
	<time>2025-07-30T05:49:14.000Z</time>
</trkpt>
<trkpt lat="46.0343790" lon="10.3207290">
	<ele>783.60</ele>
	<time>2025-07-30T05:49:15.000Z</time>
</trkpt>
<trkpt lat="46.0343890" lon="10.3207180">
	<ele>783.80</ele>
	<time>2025-07-30T05:49:16.000Z</time>
</trkpt>
<trkpt lat="46.0343940" lon="10.3207150">
	<ele>783.80</ele>
	<time>2025-07-30T05:49:17.000Z</time>
</trkpt>
<trkpt lat="46.0343990" lon="10.3207110">
	<ele>784.00</ele>
	<time>2025-07-30T05:49:18.000Z</time>
</trkpt>
<trkpt lat="46.0344030" lon="10.3206980">
	<ele>784.20</ele>
	<time>2025-07-30T05:49:19.000Z</time>
</trkpt>
<trkpt lat="46.0344100" lon="10.3206920">
	<ele>784.40</ele>
	<time>2025-07-30T05:49:20.000Z</time>
</trkpt>
<trkpt lat="46.0344170" lon="10.3206780">
	<ele>784.60</ele>
	<time>2025-07-30T05:49:21.000Z</time>
</trkpt>
<trkpt lat="46.0344270" lon="10.3206660">
	<ele>784.60</ele>
	<time>2025-07-30T05:49:22.000Z</time>
</trkpt>
<trkpt lat="46.0344340" lon="10.3206490">
	<ele>784.80</ele>
	<time>2025-07-30T05:49:23.000Z</time>
</trkpt>
<trkpt lat="46.0344440" lon="10.3206510">
	<ele>785.00</ele>
	<time>2025-07-30T05:49:24.000Z</time>
</trkpt>
<trkpt lat="46.0344580" lon="10.3206520">
	<ele>785.20</ele>
	<time>2025-07-30T05:49:25.000Z</time>
</trkpt>
<trkpt lat="46.0344690" lon="10.3206540">
	<ele>785.40</ele>
	<time>2025-07-30T05:49:26.000Z</time>
</trkpt>
<trkpt lat="46.0344780" lon="10.3206650">
	<ele>785.60</ele>
	<time>2025-07-30T05:49:27.000Z</time>
</trkpt>
<trkpt lat="46.0344820" lon="10.3206660">
	<ele>785.80</ele>
	<time>2025-07-30T05:49:28.000Z</time>
</trkpt>
<trkpt lat="46.0344850" lon="10.3206680">
	<ele>786.00</ele>
	<time>2025-07-30T05:49:29.000Z</time>
</trkpt>
<trkpt lat="46.0344870" lon="10.3206670">
	<ele>786.20</ele>
	<time>2025-07-30T05:49:30.000Z</time>
</trkpt>
<trkpt lat="46.0344890" lon="10.3206680">
	<ele>786.20</ele>
	<time>2025-07-30T05:49:31.000Z</time>
</trkpt>
<trkpt lat="46.0344900" lon="10.3206690">
	<ele>786.40</ele>
	<time>2025-07-30T05:49:32.000Z</time>
</trkpt>
<trkpt lat="46.0344920" lon="10.3206720">
	<ele>786.60</ele>
	<time>2025-07-30T05:49:33.000Z</time>
</trkpt>
<trkpt lat="46.0344930" lon="10.3206730">
	<ele>786.60</ele>
	<time>2025-07-30T05:49:34.000Z</time>
</trkpt>
<trkpt lat="46.0344940" lon="10.3206730">
	<ele>786.80</ele>
	<time>2025-07-30T05:49:35.000Z</time>
</trkpt>
<trkpt lat="46.0344940" lon="10.3206710">
	<ele>786.80</ele>
	<time>2025-07-30T05:49:36.000Z</time>
</trkpt>
<trkpt lat="46.0344950" lon="10.3206690">
	<ele>787.00</ele>
	<time>2025-07-30T05:49:37.000Z</time>
</trkpt>
<trkpt lat="46.0344930" lon="10.3206660">
	<ele>787.00</ele>
	<time>2025-07-30T05:49:38.000Z</time>
</trkpt>
<trkpt lat="46.0344930" lon="10.3206600">
	<ele>787.00</ele>
	<time>2025-07-30T05:49:39.000Z</time>
</trkpt>
<trkpt lat="46.0344950" lon="10.3206490">
	<ele>787.00</ele>
	<time>2025-07-30T05:49:40.000Z</time>
</trkpt>
<trkpt lat="46.0344980" lon="10.3206400">
	<ele>787.00</ele>
	<time>2025-07-30T05:49:41.000Z</time>
</trkpt>
<trkpt lat="46.0345010" lon="10.3206310">
	<ele>787.00</ele>
	<time>2025-07-30T05:49:42.000Z</time>
</trkpt>
<trkpt lat="46.0345030" lon="10.3206190">
	<ele>787.20</ele>
	<time>2025-07-30T05:49:43.000Z</time>
</trkpt>
<trkpt lat="46.0345080" lon="10.3206070">
	<ele>787.20</ele>
	<time>2025-07-30T05:49:44.000Z</time>
</trkpt>
<trkpt lat="46.0345120" lon="10.3205930">
	<ele>787.60</ele>
	<time>2025-07-30T05:49:45.000Z</time>
</trkpt>
<trkpt lat="46.0345140" lon="10.3205800">
	<ele>787.80</ele>
	<time>2025-07-30T05:49:46.000Z</time>
</trkpt>
<trkpt lat="46.0345160" lon="10.3205680">
	<ele>788.00</ele>
	<time>2025-07-30T05:49:47.000Z</time>
</trkpt>
<trkpt lat="46.0345190" lon="10.3205580">
	<ele>788.00</ele>
	<time>2025-07-30T05:49:48.000Z</time>
</trkpt>
<trkpt lat="46.0345250" lon="10.3205460">
	<ele>788.20</ele>
	<time>2025-07-30T05:49:49.000Z</time>
</trkpt>
<trkpt lat="46.0345340" lon="10.3205360">
	<ele>788.20</ele>
	<time>2025-07-30T05:49:50.000Z</time>
</trkpt>
<trkpt lat="46.0345440" lon="10.3205260">
	<ele>788.40</ele>
	<time>2025-07-30T05:49:51.000Z</time>
</trkpt>
<trkpt lat="46.0345530" lon="10.3205140">
	<ele>788.60</ele>
	<time>2025-07-30T05:49:52.000Z</time>
</trkpt>
<trkpt lat="46.0345640" lon="10.3205040">
	<ele>788.60</ele>
	<time>2025-07-30T05:49:53.000Z</time>
</trkpt>
<trkpt lat="46.0345750" lon="10.3204900">
	<ele>788.80</ele>
	<time>2025-07-30T05:49:54.000Z</time>
</trkpt>
<trkpt lat="46.0345870" lon="10.3204700">
	<ele>788.80</ele>
	<time>2025-07-30T05:49:55.000Z</time>
</trkpt>
<trkpt lat="46.0345960" lon="10.3204520">
	<ele>788.80</ele>
	<time>2025-07-30T05:49:56.000Z</time>
</trkpt>
<trkpt lat="46.0346040" lon="10.3204340">
	<ele>789.00</ele>
	<time>2025-07-30T05:49:57.000Z</time>
</trkpt>
<trkpt lat="46.0346090" lon="10.3204190">
	<ele>789.00</ele>
	<time>2025-07-30T05:49:58.000Z</time>
</trkpt>
<trkpt lat="46.0346170" lon="10.3204060">
	<ele>789.00</ele>
	<time>2025-07-30T05:49:59.000Z</time>
</trkpt>
<trkpt lat="46.0346170" lon="10.3203930">
	<ele>789.00</ele>
	<time>2025-07-30T05:50:00.000Z</time>
</trkpt>
<trkpt lat="46.0346250" lon="10.3203810">
	<ele>789.00</ele>
	<time>2025-07-30T05:50:01.000Z</time>
</trkpt>
<trkpt lat="46.0346320" lon="10.3203670">
	<ele>789.20</ele>
	<time>2025-07-30T05:50:02.000Z</time>
</trkpt>
<trkpt lat="46.0346380" lon="10.3203570">
	<ele>789.20</ele>
	<time>2025-07-30T05:50:03.000Z</time>
</trkpt>
<trkpt lat="46.0346420" lon="10.3203480">
	<ele>789.40</ele>
	<time>2025-07-30T05:50:04.000Z</time>
</trkpt>
<trkpt lat="46.0346450" lon="10.3203380">
	<ele>789.40</ele>
	<time>2025-07-30T05:50:05.000Z</time>
</trkpt>
<trkpt lat="46.0346530" lon="10.3203270">
	<ele>789.40</ele>
	<time>2025-07-30T05:50:06.000Z</time>
</trkpt>
<trkpt lat="46.0346640" lon="10.3203150">
	<ele>789.40</ele>
	<time>2025-07-30T05:50:07.000Z</time>
</trkpt>
<trkpt lat="46.0346740" lon="10.3203020">
	<ele>789.40</ele>
	<time>2025-07-30T05:50:08.000Z</time>
</trkpt>
<trkpt lat="46.0346810" lon="10.3202880">
	<ele>789.60</ele>
	<time>2025-07-30T05:50:09.000Z</time>
</trkpt>
<trkpt lat="46.0346870" lon="10.3202780">
	<ele>789.60</ele>
	<time>2025-07-30T05:50:10.000Z</time>
</trkpt>
<trkpt lat="46.0346920" lon="10.3202670">
	<ele>789.80</ele>
	<time>2025-07-30T05:50:11.000Z</time>
</trkpt>
<trkpt lat="46.0346990" lon="10.3202560">
	<ele>790.00</ele>
	<time>2025-07-30T05:50:12.000Z</time>
</trkpt>
<trkpt lat="46.0347070" lon="10.3202400">
	<ele>790.20</ele>
	<time>2025-07-30T05:50:13.000Z</time>
</trkpt>
<trkpt lat="46.0347220" lon="10.3202250">
	<ele>790.20</ele>
	<time>2025-07-30T05:50:14.000Z</time>
</trkpt>
<trkpt lat="46.0347290" lon="10.3202220">
	<ele>790.40</ele>
	<time>2025-07-30T05:50:15.000Z</time>
</trkpt>
<trkpt lat="46.0347340" lon="10.3202180">
	<ele>790.40</ele>
	<time>2025-07-30T05:50:16.000Z</time>
</trkpt>
<trkpt lat="46.0347540" lon="10.3201920">
	<ele>790.60</ele>
	<time>2025-07-30T05:50:17.000Z</time>
</trkpt>
<trkpt lat="46.0347580" lon="10.3201750">
	<ele>790.60</ele>
	<time>2025-07-30T05:50:18.000Z</time>
</trkpt>
<trkpt lat="46.0347550" lon="10.3201610">
	<ele>790.80</ele>
	<time>2025-07-30T05:50:19.000Z</time>
</trkpt>
<trkpt lat="46.0347540" lon="10.3201430">
	<ele>790.80</ele>
	<time>2025-07-30T05:50:20.000Z</time>
</trkpt>
<trkpt lat="46.0347560" lon="10.3201300">
	<ele>791.20</ele>
	<time>2025-07-30T05:50:21.000Z</time>
</trkpt>
<trkpt lat="46.0347570" lon="10.3201180">
	<ele>791.40</ele>
	<time>2025-07-30T05:50:22.000Z</time>
</trkpt>
<trkpt lat="46.0347560" lon="10.3201050">
	<ele>791.40</ele>
	<time>2025-07-30T05:50:23.000Z</time>
</trkpt>
<trkpt lat="46.0347550" lon="10.3200940">
	<ele>791.60</ele>
	<time>2025-07-30T05:50:24.000Z</time>
</trkpt>
<trkpt lat="46.0347580" lon="10.3200780">
	<ele>791.80</ele>
	<time>2025-07-30T05:50:25.000Z</time>
</trkpt>
<trkpt lat="46.0347580" lon="10.3200670">
	<ele>791.80</ele>
	<time>2025-07-30T05:50:26.000Z</time>
</trkpt>
<trkpt lat="46.0347510" lon="10.3200570">
	<ele>792.00</ele>
	<time>2025-07-30T05:50:27.000Z</time>
</trkpt>
<trkpt lat="46.0347450" lon="10.3200530">
	<ele>792.20</ele>
	<time>2025-07-30T05:50:28.000Z</time>
</trkpt>
<trkpt lat="46.0347430" lon="10.3200430">
	<ele>792.20</ele>
	<time>2025-07-30T05:50:29.000Z</time>
</trkpt>
<trkpt lat="46.0347380" lon="10.3200350">
	<ele>792.40</ele>
	<time>2025-07-30T05:50:30.000Z</time>
</trkpt>
<trkpt lat="46.0347350" lon="10.3200300">
	<ele>792.60</ele>
	<time>2025-07-30T05:50:31.000Z</time>
</trkpt>
<trkpt lat="46.0347370" lon="10.3200200">
	<ele>792.80</ele>
	<time>2025-07-30T05:50:32.000Z</time>
</trkpt>
<trkpt lat="46.0347440" lon="10.3200080">
	<ele>793.00</ele>
	<time>2025-07-30T05:50:33.000Z</time>
</trkpt>
<trkpt lat="46.0347440" lon="10.3199990">
	<ele>793.20</ele>
	<time>2025-07-30T05:50:34.000Z</time>
</trkpt>
<trkpt lat="46.0347500" lon="10.3199850">
	<ele>793.20</ele>
	<time>2025-07-30T05:50:35.000Z</time>
</trkpt>
<trkpt lat="46.0347570" lon="10.3199630">
	<ele>793.40</ele>
	<time>2025-07-30T05:50:36.000Z</time>
</trkpt>
<trkpt lat="46.0347630" lon="10.3199510">
	<ele>793.40</ele>
	<time>2025-07-30T05:50:37.000Z</time>
</trkpt>
<trkpt lat="46.0347770" lon="10.3199300">
	<ele>793.60</ele>
	<time>2025-07-30T05:50:38.000Z</time>
</trkpt>
<trkpt lat="46.0347850" lon="10.3199160">
	<ele>793.80</ele>
	<time>2025-07-30T05:50:39.000Z</time>
</trkpt>
<trkpt lat="46.0347780" lon="10.3199110">
	<ele>794.00</ele>
	<time>2025-07-30T05:50:40.000Z</time>
</trkpt>
<trkpt lat="46.0347740" lon="10.3199090">
	<ele>794.20</ele>
	<time>2025-07-30T05:50:41.000Z</time>
</trkpt>
<trkpt lat="46.0347730" lon="10.3199040">
	<ele>794.40</ele>
	<time>2025-07-30T05:50:42.000Z</time>
</trkpt>
<trkpt lat="46.0347740" lon="10.3198900">
	<ele>794.60</ele>
	<time>2025-07-30T05:50:43.000Z</time>
</trkpt>
<trkpt lat="46.0347810" lon="10.3198730">
	<ele>794.80</ele>
	<time>2025-07-30T05:50:44.000Z</time>
</trkpt>
<trkpt lat="46.0347860" lon="10.3198630">
	<ele>795.00</ele>
	<time>2025-07-30T05:50:45.000Z</time>
</trkpt>
<trkpt lat="46.0347920" lon="10.3198540">
	<ele>795.20</ele>
	<time>2025-07-30T05:50:46.000Z</time>
</trkpt>
<trkpt lat="46.0347960" lon="10.3198460">
	<ele>795.40</ele>
	<time>2025-07-30T05:50:47.000Z</time>
</trkpt>
<trkpt lat="46.0347930" lon="10.3198410">
	<ele>795.40</ele>
	<time>2025-07-30T05:50:48.000Z</time>
</trkpt>
<trkpt lat="46.0347850" lon="10.3198370">
	<ele>795.60</ele>
	<time>2025-07-30T05:50:49.000Z</time>
</trkpt>
<trkpt lat="46.0347840" lon="10.3198340">
	<ele>796.00</ele>
	<time>2025-07-30T05:50:50.000Z</time>
</trkpt>
<trkpt lat="46.0347930" lon="10.3198220">
	<ele>796.20</ele>
	<time>2025-07-30T05:50:51.000Z</time>
</trkpt>
<trkpt lat="46.0347930" lon="10.3198120">
	<ele>796.40</ele>
	<time>2025-07-30T05:50:52.000Z</time>
</trkpt>
<trkpt lat="46.0347980" lon="10.3197960">
	<ele>796.40</ele>
	<time>2025-07-30T05:50:53.000Z</time>
</trkpt>
<trkpt lat="46.0348020" lon="10.3197820">
	<ele>796.60</ele>
	<time>2025-07-30T05:50:54.000Z</time>
</trkpt>
<trkpt lat="46.0348050" lon="10.3197660">
	<ele>796.80</ele>
	<time>2025-07-30T05:50:55.000Z</time>
</trkpt>
<trkpt lat="46.0348030" lon="10.3197530">
	<ele>797.00</ele>
	<time>2025-07-30T05:50:56.000Z</time>
</trkpt>
<trkpt lat="46.0348000" lon="10.3197480">
	<ele>797.20</ele>
	<time>2025-07-30T05:50:57.000Z</time>
</trkpt>
<trkpt lat="46.0347990" lon="10.3197440">
	<ele>797.40</ele>
	<time>2025-07-30T05:50:58.000Z</time>
</trkpt>
<trkpt lat="46.0348010" lon="10.3197380">
	<ele>797.60</ele>
	<time>2025-07-30T05:50:59.000Z</time>
</trkpt>
<trkpt lat="46.0348040" lon="10.3197310">
	<ele>797.80</ele>
	<time>2025-07-30T05:51:00.000Z</time>
</trkpt>
<trkpt lat="46.0348100" lon="10.3197170">
	<ele>798.00</ele>
	<time>2025-07-30T05:51:01.000Z</time>
</trkpt>
<trkpt lat="46.0348210" lon="10.3196990">
	<ele>798.20</ele>
	<time>2025-07-30T05:51:02.000Z</time>
</trkpt>
<trkpt lat="46.0348350" lon="10.3196770">
	<ele>798.40</ele>
	<time>2025-07-30T05:51:03.000Z</time>
</trkpt>
<trkpt lat="46.0348480" lon="10.3196540">
	<ele>798.40</ele>
	<time>2025-07-30T05:51:04.000Z</time>
</trkpt>
<trkpt lat="46.0348580" lon="10.3196340">
	<ele>798.60</ele>
	<time>2025-07-30T05:51:05.000Z</time>
</trkpt>
<trkpt lat="46.0348580" lon="10.3196230">
	<ele>798.80</ele>
	<time>2025-07-30T05:51:06.000Z</time>
</trkpt>
<trkpt lat="46.0348600" lon="10.3196130">
	<ele>799.00</ele>
	<time>2025-07-30T05:51:07.000Z</time>
</trkpt>
<trkpt lat="46.0348640" lon="10.3196000">
	<ele>799.00</ele>
	<time>2025-07-30T05:51:08.000Z</time>
</trkpt>
<trkpt lat="46.0348650" lon="10.3195940">
	<ele>799.20</ele>
	<time>2025-07-30T05:51:09.000Z</time>
</trkpt>
<trkpt lat="46.0348660" lon="10.3195900">
	<ele>799.20</ele>
	<time>2025-07-30T05:51:10.000Z</time>
</trkpt>
<trkpt lat="46.0348650" lon="10.3195840">
	<ele>799.60</ele>
	<time>2025-07-30T05:51:11.000Z</time>
</trkpt>
<trkpt lat="46.0348650" lon="10.3195740">
	<ele>799.80</ele>
	<time>2025-07-30T05:51:12.000Z</time>
</trkpt>
<trkpt lat="46.0348680" lon="10.3195620">
	<ele>800.00</ele>
	<time>2025-07-30T05:51:13.000Z</time>
</trkpt>
<trkpt lat="46.0348740" lon="10.3195450">
	<ele>800.20</ele>
	<time>2025-07-30T05:51:14.000Z</time>
</trkpt>
<trkpt lat="46.0348760" lon="10.3195290">
	<ele>800.40</ele>
	<time>2025-07-30T05:51:15.000Z</time>
</trkpt>
<trkpt lat="46.0348720" lon="10.3195160">
	<ele>800.60</ele>
	<time>2025-07-30T05:51:16.000Z</time>
</trkpt>
<trkpt lat="46.0348720" lon="10.3195040">
	<ele>800.80</ele>
	<time>2025-07-30T05:51:17.000Z</time>
</trkpt>
<trkpt lat="46.0348770" lon="10.3194950">
	<ele>800.80</ele>
	<time>2025-07-30T05:51:18.000Z</time>
</trkpt>
<trkpt lat="46.0348760" lon="10.3194890">
	<ele>801.00</ele>
	<time>2025-07-30T05:51:19.000Z</time>
</trkpt>
<trkpt lat="46.0348760" lon="10.3194830">
	<ele>801.40</ele>
	<time>2025-07-30T05:51:20.000Z</time>
</trkpt>
<trkpt lat="46.0348760" lon="10.3194720">
	<ele>801.60</ele>
	<time>2025-07-30T05:51:21.000Z</time>
</trkpt>
<trkpt lat="46.0348860" lon="10.3194590">
	<ele>801.60</ele>
	<time>2025-07-30T05:51:22.000Z</time>
</trkpt>
<trkpt lat="46.0348910" lon="10.3194570">
	<ele>802.00</ele>
	<time>2025-07-30T05:51:23.000Z</time>
</trkpt>
<trkpt lat="46.0348870" lon="10.3194580">
	<ele>802.20</ele>
	<time>2025-07-30T05:51:24.000Z</time>
</trkpt>
<trkpt lat="46.0348870" lon="10.3194540">
	<ele>802.20</ele>
	<time>2025-07-30T05:51:25.000Z</time>
</trkpt>
<trkpt lat="46.0348940" lon="10.3194410">
	<ele>802.40</ele>
	<time>2025-07-30T05:51:26.000Z</time>
</trkpt>
<trkpt lat="46.0349060" lon="10.3194230">
	<ele>802.60</ele>
	<time>2025-07-30T05:51:27.000Z</time>
</trkpt>
<trkpt lat="46.0349120" lon="10.3194060">
	<ele>802.80</ele>
	<time>2025-07-30T05:51:28.000Z</time>
</trkpt>
<trkpt lat="46.0349140" lon="10.3193940">
	<ele>803.00</ele>
	<time>2025-07-30T05:51:29.000Z</time>
</trkpt>
<trkpt lat="46.0349150" lon="10.3193870">
	<ele>803.20</ele>
	<time>2025-07-30T05:51:30.000Z</time>
</trkpt>
<trkpt lat="46.0349140" lon="10.3193820">
	<ele>803.40</ele>
	<time>2025-07-30T05:51:31.000Z</time>
</trkpt>
<trkpt lat="46.0349120" lon="10.3193710">
	<ele>803.60</ele>
	<time>2025-07-30T05:51:32.000Z</time>
</trkpt>
<trkpt lat="46.0349160" lon="10.3193580">
	<ele>803.80</ele>
	<time>2025-07-30T05:51:33.000Z</time>
</trkpt>
<trkpt lat="46.0349140" lon="10.3193390">
	<ele>804.00</ele>
	<time>2025-07-30T05:51:34.000Z</time>
</trkpt>
<trkpt lat="46.0349000" lon="10.3193220">
	<ele>804.00</ele>
	<time>2025-07-30T05:51:35.000Z</time>
</trkpt>
<trkpt lat="46.0348910" lon="10.3193010">
	<ele>804.40</ele>
	<time>2025-07-30T05:51:36.000Z</time>
</trkpt>
<trkpt lat="46.0348890" lon="10.3192860">
	<ele>804.40</ele>
	<time>2025-07-30T05:51:37.000Z</time>
</trkpt>
<trkpt lat="46.0348840" lon="10.3192690">
	<ele>804.60</ele>
	<time>2025-07-30T05:51:38.000Z</time>
</trkpt>
<trkpt lat="46.0348810" lon="10.3192560">
	<ele>804.80</ele>
	<time>2025-07-30T05:51:39.000Z</time>
</trkpt>
<trkpt lat="46.0348800" lon="10.3192470">
	<ele>805.00</ele>
	<time>2025-07-30T05:51:40.000Z</time>
</trkpt>
<trkpt lat="46.0348730" lon="10.3192340">
	<ele>805.20</ele>
	<time>2025-07-30T05:51:41.000Z</time>
</trkpt>
<trkpt lat="46.0348720" lon="10.3192250">
	<ele>805.40</ele>
	<time>2025-07-30T05:51:42.000Z</time>
</trkpt>
<trkpt lat="46.0348780" lon="10.3192180">
	<ele>805.60</ele>
	<time>2025-07-30T05:51:43.000Z</time>
</trkpt>
<trkpt lat="46.0348810" lon="10.3192100">
	<ele>805.80</ele>
	<time>2025-07-30T05:51:44.000Z</time>
</trkpt>
<trkpt lat="46.0348820" lon="10.3192000">
	<ele>805.80</ele>
	<time>2025-07-30T05:51:45.000Z</time>
</trkpt>
<trkpt lat="46.0348860" lon="10.3191880">
	<ele>805.80</ele>
	<time>2025-07-30T05:51:46.000Z</time>
</trkpt>
<trkpt lat="46.0348900" lon="10.3191790">
	<ele>806.00</ele>
	<time>2025-07-30T05:51:47.000Z</time>
</trkpt>
<trkpt lat="46.0348870" lon="10.3191670">
	<ele>806.00</ele>
	<time>2025-07-30T05:51:48.000Z</time>
</trkpt>
<trkpt lat="46.0348880" lon="10.3191540">
	<ele>806.20</ele>
	<time>2025-07-30T05:51:49.000Z</time>
</trkpt>
<trkpt lat="46.0348880" lon="10.3191430">
	<ele>806.20</ele>
	<time>2025-07-30T05:51:50.000Z</time>
</trkpt>
<trkpt lat="46.0348870" lon="10.3191300">
	<ele>806.40</ele>
	<time>2025-07-30T05:51:51.000Z</time>
</trkpt>
<trkpt lat="46.0348850" lon="10.3191170">
	<ele>806.80</ele>
	<time>2025-07-30T05:51:52.000Z</time>
</trkpt>
<trkpt lat="46.0348750" lon="10.3191000">
	<ele>807.00</ele>
	<time>2025-07-30T05:51:53.000Z</time>
</trkpt>
<trkpt lat="46.0348660" lon="10.3190820">
	<ele>807.20</ele>
	<time>2025-07-30T05:51:54.000Z</time>
</trkpt>
<trkpt lat="46.0348630" lon="10.3190730">
	<ele>807.20</ele>
	<time>2025-07-30T05:51:55.000Z</time>
</trkpt>
<trkpt lat="46.0348620" lon="10.3190690">
	<ele>807.40</ele>
	<time>2025-07-30T05:51:56.000Z</time>
</trkpt>
<trkpt lat="46.0348650" lon="10.3190560">
	<ele>807.40</ele>
	<time>2025-07-30T05:51:57.000Z</time>
</trkpt>
<trkpt lat="46.0348740" lon="10.3190410">
	<ele>807.60</ele>
	<time>2025-07-30T05:51:58.000Z</time>
</trkpt>
<trkpt lat="46.0348830" lon="10.3190240">
	<ele>807.80</ele>
	<time>2025-07-30T05:51:59.000Z</time>
</trkpt>
<trkpt lat="46.0348790" lon="10.3190390">
	<ele>808.00</ele>
	<time>2025-07-30T05:52:00.000Z</time>
</trkpt>
<trkpt lat="46.0348770" lon="10.3190340">
	<ele>808.00</ele>
	<time>2025-07-30T05:52:01.000Z</time>
</trkpt>
<trkpt lat="46.0348770" lon="10.3190310">
	<ele>808.20</ele>
	<time>2025-07-30T05:52:02.000Z</time>
</trkpt>
<trkpt lat="46.0348780" lon="10.3190230">
	<ele>808.40</ele>
	<time>2025-07-30T05:52:03.000Z</time>
</trkpt>
<trkpt lat="46.0348790" lon="10.3190110">
	<ele>808.60</ele>
	<time>2025-07-30T05:52:04.000Z</time>
</trkpt>
<trkpt lat="46.0348820" lon="10.3189930">
	<ele>808.60</ele>
	<time>2025-07-30T05:52:05.000Z</time>
</trkpt>
<trkpt lat="46.0348860" lon="10.3189730">
	<ele>808.80</ele>
	<time>2025-07-30T05:52:06.000Z</time>
</trkpt>
<trkpt lat="46.0348890" lon="10.3189640">
	<ele>809.00</ele>
	<time>2025-07-30T05:52:07.000Z</time>
</trkpt>
<trkpt lat="46.0348910" lon="10.3189460">
	<ele>809.20</ele>
	<time>2025-07-30T05:52:08.000Z</time>
</trkpt>
<trkpt lat="46.0348910" lon="10.3189390">
	<ele>809.40</ele>
	<time>2025-07-30T05:52:09.000Z</time>
</trkpt>
<trkpt lat="46.0348880" lon="10.3189340">
	<ele>809.40</ele>
	<time>2025-07-30T05:52:10.000Z</time>
</trkpt>
<trkpt lat="46.0348870" lon="10.3189350">
	<ele>809.60</ele>
	<time>2025-07-30T05:52:11.000Z</time>
</trkpt>
<trkpt lat="46.0348910" lon="10.3189140">
	<ele>809.60</ele>
	<time>2025-07-30T05:52:12.000Z</time>
</trkpt>
<trkpt lat="46.0348910" lon="10.3188950">
	<ele>810.00</ele>
	<time>2025-07-30T05:52:13.000Z</time>
</trkpt>
<trkpt lat="46.0348860" lon="10.3188780">
	<ele>810.00</ele>
	<time>2025-07-30T05:52:14.000Z</time>
</trkpt>
<trkpt lat="46.0348810" lon="10.3188590">
	<ele>810.20</ele>
	<time>2025-07-30T05:52:15.000Z</time>
</trkpt>
<trkpt lat="46.0348830" lon="10.3188380">
	<ele>810.40</ele>
	<time>2025-07-30T05:52:16.000Z</time>
</trkpt>
<trkpt lat="46.0348900" lon="10.3188250">
	<ele>810.60</ele>
	<time>2025-07-30T05:52:17.000Z</time>
</trkpt>
<trkpt lat="46.0348990" lon="10.3188050">
	<ele>810.80</ele>
	<time>2025-07-30T05:52:18.000Z</time>
</trkpt>
<trkpt lat="46.0349020" lon="10.3187920">
	<ele>811.00</ele>
	<time>2025-07-30T05:52:19.000Z</time>
</trkpt>
<trkpt lat="46.0349030" lon="10.3187960">
	<ele>811.20</ele>
	<time>2025-07-30T05:52:20.000Z</time>
</trkpt>
<trkpt lat="46.0349030" lon="10.3188010">
	<ele>811.40</ele>
	<time>2025-07-30T05:52:21.000Z</time>
</trkpt>
<trkpt lat="46.0349080" lon="10.3187890">
	<ele>811.60</ele>
	<time>2025-07-30T05:52:22.000Z</time>
</trkpt>
<trkpt lat="46.0349110" lon="10.3187850">
	<ele>811.80</ele>
	<time>2025-07-30T05:52:23.000Z</time>
</trkpt>
<trkpt lat="46.0349110" lon="10.3187690">
	<ele>812.00</ele>
	<time>2025-07-30T05:52:24.000Z</time>
</trkpt>
<trkpt lat="46.0349100" lon="10.3187540">
	<ele>812.40</ele>
	<time>2025-07-30T05:52:25.000Z</time>
</trkpt>
<trkpt lat="46.0349140" lon="10.3187320">
	<ele>812.60</ele>
	<time>2025-07-30T05:52:26.000Z</time>
</trkpt>
<trkpt lat="46.0349210" lon="10.3187280">
	<ele>812.60</ele>
	<time>2025-07-30T05:52:27.000Z</time>
</trkpt>
<trkpt lat="46.0349320" lon="10.3187310">
	<ele>812.80</ele>
	<time>2025-07-30T05:52:28.000Z</time>
</trkpt>
<trkpt lat="46.0349390" lon="10.3187240">
	<ele>813.00</ele>
	<time>2025-07-30T05:52:29.000Z</time>
</trkpt>
<trkpt lat="46.0349400" lon="10.3187100">
	<ele>813.20</ele>
	<time>2025-07-30T05:52:30.000Z</time>
</trkpt>
<trkpt lat="46.0349430" lon="10.3187070">
	<ele>813.40</ele>
	<time>2025-07-30T05:52:31.000Z</time>
</trkpt>
<trkpt lat="46.0349470" lon="10.3186910">
	<ele>813.60</ele>
	<time>2025-07-30T05:52:32.000Z</time>
</trkpt>
<trkpt lat="46.0349520" lon="10.3186710">
	<ele>813.80</ele>
	<time>2025-07-30T05:52:33.000Z</time>
</trkpt>
<trkpt lat="46.0349580" lon="10.3186700">
	<ele>814.00</ele>
	<time>2025-07-30T05:52:34.000Z</time>
</trkpt>
<trkpt lat="46.0349590" lon="10.3186710">
	<ele>814.20</ele>
	<time>2025-07-30T05:52:35.000Z</time>
</trkpt>
<trkpt lat="46.0349620" lon="10.3186720">
	<ele>814.40</ele>
	<time>2025-07-30T05:52:36.000Z</time>
</trkpt>
<trkpt lat="46.0349660" lon="10.3186640">
	<ele>814.60</ele>
	<time>2025-07-30T05:52:37.000Z</time>
</trkpt>
<trkpt lat="46.0349700" lon="10.3186490">
	<ele>814.80</ele>
	<time>2025-07-30T05:52:38.000Z</time>
</trkpt>
<trkpt lat="46.0349780" lon="10.3186420">
	<ele>815.00</ele>
	<time>2025-07-30T05:52:39.000Z</time>
</trkpt>
<trkpt lat="46.0349920" lon="10.3186400">
	<ele>815.20</ele>
	<time>2025-07-30T05:52:40.000Z</time>
</trkpt>
<trkpt lat="46.0349960" lon="10.3186390">
	<ele>815.20</ele>
	<time>2025-07-30T05:52:41.000Z</time>
</trkpt>
<trkpt lat="46.0349970" lon="10.3186450">
	<ele>815.60</ele>
	<time>2025-07-30T05:52:42.000Z</time>
</trkpt>
<trkpt lat="46.0349970" lon="10.3186400">
	<ele>816.00</ele>
	<time>2025-07-30T05:52:43.000Z</time>
</trkpt>
<trkpt lat="46.0350010" lon="10.3186410">
	<ele>816.20</ele>
	<time>2025-07-30T05:52:44.000Z</time>
</trkpt>
<trkpt lat="46.0350050" lon="10.3186390">
	<ele>816.40</ele>
	<time>2025-07-30T05:52:45.000Z</time>
</trkpt>
<trkpt lat="46.0350090" lon="10.3186180">
	<ele>816.60</ele>
	<time>2025-07-30T05:52:46.000Z</time>
</trkpt>
<trkpt lat="46.0350120" lon="10.3185980">
	<ele>816.80</ele>
	<time>2025-07-30T05:52:47.000Z</time>
</trkpt>
<trkpt lat="46.0350170" lon="10.3185790">
	<ele>816.80</ele>
	<time>2025-07-30T05:52:48.000Z</time>
</trkpt>
<trkpt lat="46.0350190" lon="10.3185730">
	<ele>817.00</ele>
	<time>2025-07-30T05:52:49.000Z</time>
</trkpt>
<trkpt lat="46.0350220" lon="10.3185680">
	<ele>817.20</ele>
	<time>2025-07-30T05:52:50.000Z</time>
</trkpt>
<trkpt lat="46.0350220" lon="10.3185620">
	<ele>817.20</ele>
	<time>2025-07-30T05:52:51.000Z</time>
</trkpt>
<trkpt lat="46.0350230" lon="10.3185640">
	<ele>817.60</ele>
	<time>2025-07-30T05:52:52.000Z</time>
</trkpt>
<trkpt lat="46.0350260" lon="10.3185490">
	<ele>817.80</ele>
	<time>2025-07-30T05:52:53.000Z</time>
</trkpt>
<trkpt lat="46.0350290" lon="10.3185400">
	<ele>818.00</ele>
	<time>2025-07-30T05:52:54.000Z</time>
</trkpt>
<trkpt lat="46.0350340" lon="10.3185470">
	<ele>818.00</ele>
	<time>2025-07-30T05:52:55.000Z</time>
</trkpt>
<trkpt lat="46.0350410" lon="10.3185510">
	<ele>818.20</ele>
	<time>2025-07-30T05:52:56.000Z</time>
</trkpt>
<trkpt lat="46.0350450" lon="10.3185530">
	<ele>818.40</ele>
	<time>2025-07-30T05:52:57.000Z</time>
</trkpt>
<trkpt lat="46.0350480" lon="10.3185450">
	<ele>818.60</ele>
	<time>2025-07-30T05:52:58.000Z</time>
</trkpt>
<trkpt lat="46.0350540" lon="10.3185400">
	<ele>818.80</ele>
	<time>2025-07-30T05:52:59.000Z</time>
</trkpt>
<trkpt lat="46.0350600" lon="10.3185340">
	<ele>819.00</ele>
	<time>2025-07-30T05:53:00.000Z</time>
</trkpt>
<trkpt lat="46.0350620" lon="10.3185360">
	<ele>819.20</ele>
	<time>2025-07-30T05:53:01.000Z</time>
</trkpt>
<trkpt lat="46.0350610" lon="10.3185410">
	<ele>819.60</ele>
	<time>2025-07-30T05:53:02.000Z</time>
</trkpt>
<trkpt lat="46.0350590" lon="10.3185410">
	<ele>819.80</ele>
	<time>2025-07-30T05:53:03.000Z</time>
</trkpt>
<trkpt lat="46.0350600" lon="10.3185300">
	<ele>819.80</ele>
	<time>2025-07-30T05:53:04.000Z</time>
</trkpt>
<trkpt lat="46.0350630" lon="10.3185240">
	<ele>820.20</ele>
	<time>2025-07-30T05:53:05.000Z</time>
</trkpt>
<trkpt lat="46.0350670" lon="10.3185020">
	<ele>820.40</ele>
	<time>2025-07-30T05:53:06.000Z</time>
</trkpt>
<trkpt lat="46.0350650" lon="10.3184810">
	<ele>820.60</ele>
	<time>2025-07-30T05:53:07.000Z</time>
</trkpt>
<trkpt lat="46.0350680" lon="10.3184590">
	<ele>820.80</ele>
	<time>2025-07-30T05:53:08.000Z</time>
</trkpt>
<trkpt lat="46.0350730" lon="10.3184520">
	<ele>821.00</ele>
	<time>2025-07-30T05:53:09.000Z</time>
</trkpt>
<trkpt lat="46.0350760" lon="10.3184350">
	<ele>821.20</ele>
	<time>2025-07-30T05:53:10.000Z</time>
</trkpt>
<trkpt lat="46.0350800" lon="10.3184150">
	<ele>821.40</ele>
	<time>2025-07-30T05:53:11.000Z</time>
</trkpt>
<trkpt lat="46.0350810" lon="10.3183940">
	<ele>821.60</ele>
	<time>2025-07-30T05:53:12.000Z</time>
</trkpt>
<trkpt lat="46.0350820" lon="10.3183900">
	<ele>821.80</ele>
	<time>2025-07-30T05:53:13.000Z</time>
</trkpt>
<trkpt lat="46.0350780" lon="10.3183720">
	<ele>822.00</ele>
	<time>2025-07-30T05:53:14.000Z</time>
</trkpt>
<trkpt lat="46.0350770" lon="10.3183680">
	<ele>822.00</ele>
	<time>2025-07-30T05:53:15.000Z</time>
</trkpt>
<trkpt lat="46.0350730" lon="10.3183670">
	<ele>822.20</ele>
	<time>2025-07-30T05:53:16.000Z</time>
</trkpt>
<trkpt lat="46.0350720" lon="10.3183650">
	<ele>822.60</ele>
	<time>2025-07-30T05:53:17.000Z</time>
</trkpt>
<trkpt lat="46.0350750" lon="10.3183450">
	<ele>822.80</ele>
	<time>2025-07-30T05:53:18.000Z</time>
</trkpt>
<trkpt lat="46.0350770" lon="10.3183230">
	<ele>823.00</ele>
	<time>2025-07-30T05:53:19.000Z</time>
</trkpt>
<trkpt lat="46.0350780" lon="10.3183070">
	<ele>823.20</ele>
	<time>2025-07-30T05:53:20.000Z</time>
</trkpt>
<trkpt lat="46.0350790" lon="10.3183010">
	<ele>823.60</ele>
	<time>2025-07-30T05:53:21.000Z</time>
</trkpt>
<trkpt lat="46.0350760" lon="10.3183020">
	<ele>823.60</ele>
	<time>2025-07-30T05:53:22.000Z</time>
</trkpt>
<trkpt lat="46.0350760" lon="10.3183080">
	<ele>823.80</ele>
	<time>2025-07-30T05:53:23.000Z</time>
</trkpt>
<trkpt lat="46.0350770" lon="10.3182960">
	<ele>824.00</ele>
	<time>2025-07-30T05:53:24.000Z</time>
</trkpt>
<trkpt lat="46.0350800" lon="10.3182840">
	<ele>824.20</ele>
	<time>2025-07-30T05:53:25.000Z</time>
</trkpt>
<trkpt lat="46.0350840" lon="10.3182750">
	<ele>824.20</ele>
	<time>2025-07-30T05:53:26.000Z</time>
</trkpt>
<trkpt lat="46.0350860" lon="10.3182720">
	<ele>824.60</ele>
	<time>2025-07-30T05:53:27.000Z</time>
</trkpt>
<trkpt lat="46.0350890" lon="10.3182650">
	<ele>824.80</ele>
	<time>2025-07-30T05:53:28.000Z</time>
</trkpt>
<trkpt lat="46.0350870" lon="10.3182540">
	<ele>825.00</ele>
	<time>2025-07-30T05:53:29.000Z</time>
</trkpt>
<trkpt lat="46.0350870" lon="10.3182460">
	<ele>825.20</ele>
	<time>2025-07-30T05:53:30.000Z</time>
</trkpt>
<trkpt lat="46.0350860" lon="10.3182370">
	<ele>825.40</ele>
	<time>2025-07-30T05:53:31.000Z</time>
</trkpt>
<trkpt lat="46.0350860" lon="10.3182190">
	<ele>825.60</ele>
	<time>2025-07-30T05:53:32.000Z</time>
</trkpt>
<trkpt lat="46.0350900" lon="10.3182070">
	<ele>825.80</ele>
	<time>2025-07-30T05:53:33.000Z</time>
</trkpt>
<trkpt lat="46.0350950" lon="10.3181920">
	<ele>826.00</ele>
	<time>2025-07-30T05:53:34.000Z</time>
</trkpt>
<trkpt lat="46.0350980" lon="10.3181740">
	<ele>826.20</ele>
	<time>2025-07-30T05:53:35.000Z</time>
</trkpt>
<trkpt lat="46.0351020" lon="10.3181690">
	<ele>826.40</ele>
	<time>2025-07-30T05:53:36.000Z</time>
</trkpt>
<trkpt lat="46.0351080" lon="10.3181520">
	<ele>826.60</ele>
	<time>2025-07-30T05:53:37.000Z</time>
</trkpt>
<trkpt lat="46.0351150" lon="10.3181380">
	<ele>827.00</ele>
	<time>2025-07-30T05:53:38.000Z</time>
</trkpt>
<trkpt lat="46.0351200" lon="10.3181290">
	<ele>827.00</ele>
	<time>2025-07-30T05:53:39.000Z</time>
</trkpt>
<trkpt lat="46.0351260" lon="10.3181240">
	<ele>827.20</ele>
	<time>2025-07-30T05:53:40.000Z</time>
</trkpt>
<trkpt lat="46.0351310" lon="10.3181220">
	<ele>827.40</ele>
	<time>2025-07-30T05:53:41.000Z</time>
</trkpt>
<trkpt lat="46.0351410" lon="10.3181160">
	<ele>827.80</ele>
	<time>2025-07-30T05:53:42.000Z</time>
</trkpt>
<trkpt lat="46.0351490" lon="10.3181120">
	<ele>828.00</ele>
	<time>2025-07-30T05:53:43.000Z</time>
</trkpt>
<trkpt lat="46.0351520" lon="10.3181110">
	<ele>828.20</ele>
	<time>2025-07-30T05:53:44.000Z</time>
</trkpt>
<trkpt lat="46.0351500" lon="10.3181130">
	<ele>828.40</ele>
	<time>2025-07-30T05:53:45.000Z</time>
</trkpt>
<trkpt lat="46.0351530" lon="10.3181110">
	<ele>828.40</ele>
	<time>2025-07-30T05:53:46.000Z</time>
</trkpt>
<trkpt lat="46.0351570" lon="10.3181100">
	<ele>828.60</ele>
	<time>2025-07-30T05:53:47.000Z</time>
</trkpt>
<trkpt lat="46.0351600" lon="10.3181080">
	<ele>828.80</ele>
	<time>2025-07-30T05:53:48.000Z</time>
</trkpt>
<trkpt lat="46.0351620" lon="10.3181020">
	<ele>828.80</ele>
	<time>2025-07-30T05:53:49.000Z</time>
</trkpt>
<trkpt lat="46.0351630" lon="10.3180970">
	<ele>829.00</ele>
	<time>2025-07-30T05:53:50.000Z</time>
</trkpt>
<trkpt lat="46.0351640" lon="10.3180970">
	<ele>829.20</ele>
	<time>2025-07-30T05:53:51.000Z</time>
</trkpt>
<trkpt lat="46.0351690" lon="10.3180960">
	<ele>829.60</ele>
	<time>2025-07-30T05:53:52.000Z</time>
</trkpt>
<trkpt lat="46.0351680" lon="10.3180950">
	<ele>829.80</ele>
	<time>2025-07-30T05:53:53.000Z</time>
</trkpt>
<trkpt lat="46.0351730" lon="10.3180910">
	<ele>830.00</ele>
	<time>2025-07-30T05:53:54.000Z</time>
</trkpt>
<trkpt lat="46.0351730" lon="10.3180980">
	<ele>830.20</ele>
	<time>2025-07-30T05:53:55.000Z</time>
</trkpt>
<trkpt lat="46.0351800" lon="10.3181000">
	<ele>830.20</ele>
	<time>2025-07-30T05:53:56.000Z</time>
</trkpt>
<trkpt lat="46.0351890" lon="10.3180900">
	<ele>830.60</ele>
	<time>2025-07-30T05:53:57.000Z</time>
</trkpt>
<trkpt lat="46.0351870" lon="10.3181060">
	<ele>830.80</ele>
	<time>2025-07-30T05:53:58.000Z</time>
</trkpt>
<trkpt lat="46.0351870" lon="10.3181110">
	<ele>831.00</ele>
	<time>2025-07-30T05:53:59.000Z</time>
</trkpt>
<trkpt lat="46.0351890" lon="10.3181070">
	<ele>831.00</ele>
	<time>2025-07-30T05:54:00.000Z</time>
</trkpt>
<trkpt lat="46.0351890" lon="10.3181070">
	<ele>831.20</ele>
	<time>2025-07-30T05:54:01.000Z</time>
</trkpt>
<trkpt lat="46.0351860" lon="10.3181110">
	<ele>831.40</ele>
	<time>2025-07-30T05:54:02.000Z</time>
</trkpt>
<trkpt lat="46.0351810" lon="10.3181150">
	<ele>831.60</ele>
	<time>2025-07-30T05:54:03.000Z</time>
</trkpt>
<trkpt lat="46.0351750" lon="10.3181300">
	<ele>832.00</ele>
	<time>2025-07-30T05:54:04.000Z</time>
</trkpt>
<trkpt lat="46.0351750" lon="10.3181370">
	<ele>832.20</ele>
	<time>2025-07-30T05:54:05.000Z</time>
</trkpt>
<trkpt lat="46.0351730" lon="10.3181420">
	<ele>832.40</ele>
	<time>2025-07-30T05:54:06.000Z</time>
</trkpt>
<trkpt lat="46.0351720" lon="10.3181470">
	<ele>832.60</ele>
	<time>2025-07-30T05:54:07.000Z</time>
</trkpt>
<trkpt lat="46.0351740" lon="10.3181530">
	<ele>832.80</ele>
	<time>2025-07-30T05:54:08.000Z</time>
</trkpt>
<trkpt lat="46.0351690" lon="10.3181620">
	<ele>833.00</ele>
	<time>2025-07-30T05:54:09.000Z</time>
</trkpt>
<trkpt lat="46.0351710" lon="10.3181790">
	<ele>833.20</ele>
	<time>2025-07-30T05:54:10.000Z</time>
</trkpt>
<trkpt lat="46.0351740" lon="10.3182010">
	<ele>833.60</ele>
	<time>2025-07-30T05:54:11.000Z</time>
</trkpt>
<trkpt lat="46.0351800" lon="10.3182090">
	<ele>833.80</ele>
	<time>2025-07-30T05:54:12.000Z</time>
</trkpt>
<trkpt lat="46.0351840" lon="10.3182100">
	<ele>834.00</ele>
	<time>2025-07-30T05:54:13.000Z</time>
</trkpt>
<trkpt lat="46.0351850" lon="10.3182110">
	<ele>834.20</ele>
	<time>2025-07-30T05:54:14.000Z</time>
</trkpt>
<trkpt lat="46.0351870" lon="10.3182080">
	<ele>834.60</ele>
	<time>2025-07-30T05:54:15.000Z</time>
</trkpt>
<trkpt lat="46.0351900" lon="10.3182110">
	<ele>834.80</ele>
	<time>2025-07-30T05:54:16.000Z</time>
</trkpt>
<trkpt lat="46.0351910" lon="10.3182110">
	<ele>834.80</ele>
	<time>2025-07-30T05:54:17.000Z</time>
</trkpt>
<trkpt lat="46.0351930" lon="10.3182120">
	<ele>835.00</ele>
	<time>2025-07-30T05:54:18.000Z</time>
</trkpt>
<trkpt lat="46.0351960" lon="10.3182130">
	<ele>835.00</ele>
	<time>2025-07-30T05:54:19.000Z</time>
</trkpt>
<trkpt lat="46.0351980" lon="10.3182180">
	<ele>835.20</ele>
	<time>2025-07-30T05:54:20.000Z</time>
</trkpt>
<trkpt lat="46.0351990" lon="10.3182170">
	<ele>835.40</ele>
	<time>2025-07-30T05:54:21.000Z</time>
</trkpt>
<trkpt lat="46.0352030" lon="10.3182160">
	<ele>835.60</ele>
	<time>2025-07-30T05:54:22.000Z</time>
</trkpt>
<trkpt lat="46.0352050" lon="10.3182170">
	<ele>835.80</ele>
	<time>2025-07-30T05:54:23.000Z</time>
</trkpt>
<trkpt lat="46.0352100" lon="10.3182170">
	<ele>836.00</ele>
	<time>2025-07-30T05:54:24.000Z</time>
</trkpt>
<trkpt lat="46.0352140" lon="10.3182180">
	<ele>836.20</ele>
	<time>2025-07-30T05:54:25.000Z</time>
</trkpt>
<trkpt lat="46.0352140" lon="10.3182210">
	<ele>836.40</ele>
	<time>2025-07-30T05:54:26.000Z</time>
</trkpt>
<trkpt lat="46.0352180" lon="10.3182230">
	<ele>836.60</ele>
	<time>2025-07-30T05:54:27.000Z</time>
</trkpt>
<trkpt lat="46.0352180" lon="10.3182270">
	<ele>836.80</ele>
	<time>2025-07-30T05:54:28.000Z</time>
</trkpt>
<trkpt lat="46.0352200" lon="10.3182290">
	<ele>837.00</ele>
	<time>2025-07-30T05:54:29.000Z</time>
</trkpt>
<trkpt lat="46.0352220" lon="10.3182260">
	<ele>837.20</ele>
	<time>2025-07-30T05:54:30.000Z</time>
</trkpt>
<trkpt lat="46.0352180" lon="10.3182330">
	<ele>837.40</ele>
	<time>2025-07-30T05:54:31.000Z</time>
</trkpt>
<trkpt lat="46.0352160" lon="10.3182400">
	<ele>837.60</ele>
	<time>2025-07-30T05:54:32.000Z</time>
</trkpt>
<trkpt lat="46.0352110" lon="10.3182420">
	<ele>837.80</ele>
	<time>2025-07-30T05:54:33.000Z</time>
</trkpt>
<trkpt lat="46.0352090" lon="10.3182470">
	<ele>838.00</ele>
	<time>2025-07-30T05:54:34.000Z</time>
</trkpt>
<trkpt lat="46.0352090" lon="10.3182600">
	<ele>838.40</ele>
	<time>2025-07-30T05:54:35.000Z</time>
</trkpt>
<trkpt lat="46.0352160" lon="10.3182620">
	<ele>838.60</ele>
	<time>2025-07-30T05:54:36.000Z</time>
</trkpt>
<trkpt lat="46.0352210" lon="10.3182540">
	<ele>838.80</ele>
	<time>2025-07-30T05:54:37.000Z</time>
</trkpt>
<trkpt lat="46.0352210" lon="10.3182470">
	<ele>838.80</ele>
	<time>2025-07-30T05:54:38.000Z</time>
</trkpt>
<trkpt lat="46.0352200" lon="10.3182460">
	<ele>839.00</ele>
	<time>2025-07-30T05:54:39.000Z</time>
</trkpt>
<trkpt lat="46.0352190" lon="10.3182480">
	<ele>839.20</ele>
	<time>2025-07-30T05:54:40.000Z</time>
</trkpt>
<trkpt lat="46.0352190" lon="10.3182540">
	<ele>839.40</ele>
	<time>2025-07-30T05:54:41.000Z</time>
</trkpt>
<trkpt lat="46.0352210" lon="10.3182680">
	<ele>839.60</ele>
	<time>2025-07-30T05:54:42.000Z</time>
</trkpt>
<trkpt lat="46.0352230" lon="10.3182800">
	<ele>839.60</ele>
	<time>2025-07-30T05:54:43.000Z</time>
</trkpt>
<trkpt lat="46.0352210" lon="10.3182910">
	<ele>840.00</ele>
	<time>2025-07-30T05:54:44.000Z</time>
</trkpt>
<trkpt lat="46.0352280" lon="10.3182900">
	<ele>840.20</ele>
	<time>2025-07-30T05:54:45.000Z</time>
</trkpt>
<trkpt lat="46.0352330" lon="10.3182940">
	<ele>840.40</ele>
	<time>2025-07-30T05:54:46.000Z</time>
</trkpt>
<trkpt lat="46.0352380" lon="10.3183010">
	<ele>840.60</ele>
	<time>2025-07-30T05:54:47.000Z</time>
</trkpt>
<trkpt lat="46.0352420" lon="10.3183110">
	<ele>840.80</ele>
	<time>2025-07-30T05:54:48.000Z</time>
</trkpt>
<trkpt lat="46.0352450" lon="10.3183240">
	<ele>840.80</ele>
	<time>2025-07-30T05:54:49.000Z</time>
</trkpt>
<trkpt lat="46.0352490" lon="10.3183400">
	<ele>841.00</ele>
	<time>2025-07-30T05:54:50.000Z</time>
</trkpt>
<trkpt lat="46.0352510" lon="10.3183450">
	<ele>841.20</ele>
	<time>2025-07-30T05:54:51.000Z</time>
</trkpt>
<trkpt lat="46.0352550" lon="10.3183540">
	<ele>841.20</ele>
	<time>2025-07-30T05:54:52.000Z</time>
</trkpt>
<trkpt lat="46.0352600" lon="10.3183660">
	<ele>841.40</ele>
	<time>2025-07-30T05:54:53.000Z</time>
</trkpt>
<trkpt lat="46.0352600" lon="10.3183810">
	<ele>841.60</ele>
	<time>2025-07-30T05:54:54.000Z</time>
</trkpt>
<trkpt lat="46.0352620" lon="10.3183890">
	<ele>841.80</ele>
	<time>2025-07-30T05:54:55.000Z</time>
</trkpt>
<trkpt lat="46.0352630" lon="10.3183970">
	<ele>841.80</ele>
	<time>2025-07-30T05:54:56.000Z</time>
</trkpt>
<trkpt lat="46.0352670" lon="10.3184060">
	<ele>842.20</ele>
	<time>2025-07-30T05:54:57.000Z</time>
</trkpt>
<trkpt lat="46.0352680" lon="10.3184210">
	<ele>842.40</ele>
	<time>2025-07-30T05:54:58.000Z</time>
</trkpt>
<trkpt lat="46.0352690" lon="10.3184290">
	<ele>842.40</ele>
	<time>2025-07-30T05:54:59.000Z</time>
</trkpt>
<trkpt lat="46.0352690" lon="10.3184450">
	<ele>842.80</ele>
	<time>2025-07-30T05:55:00.000Z</time>
</trkpt>
<trkpt lat="46.0352700" lon="10.3184610">
	<ele>843.00</ele>
	<time>2025-07-30T05:55:01.000Z</time>
</trkpt>
<trkpt lat="46.0352700" lon="10.3184760">
	<ele>843.00</ele>
	<time>2025-07-30T05:55:02.000Z</time>
</trkpt>
<trkpt lat="46.0352730" lon="10.3184860">
	<ele>843.20</ele>
	<time>2025-07-30T05:55:03.000Z</time>
</trkpt>
<trkpt lat="46.0352820" lon="10.3184920">
	<ele>843.40</ele>
	<time>2025-07-30T05:55:04.000Z</time>
</trkpt>
<trkpt lat="46.0352840" lon="10.3185010">
	<ele>843.60</ele>
	<time>2025-07-30T05:55:05.000Z</time>
</trkpt>
<trkpt lat="46.0352830" lon="10.3185050">
	<ele>843.80</ele>
	<time>2025-07-30T05:55:06.000Z</time>
</trkpt>
<trkpt lat="46.0352840" lon="10.3185140">
	<ele>843.80</ele>
	<time>2025-07-30T05:55:07.000Z</time>
</trkpt>
<trkpt lat="46.0352830" lon="10.3185370">
	<ele>844.00</ele>
	<time>2025-07-30T05:55:08.000Z</time>
</trkpt>
<trkpt lat="46.0352860" lon="10.3185470">
	<ele>844.40</ele>
	<time>2025-07-30T05:55:09.000Z</time>
</trkpt>
<trkpt lat="46.0352940" lon="10.3185530">
	<ele>844.60</ele>
	<time>2025-07-30T05:55:10.000Z</time>
</trkpt>
<trkpt lat="46.0353030" lon="10.3185540">
	<ele>845.00</ele>
	<time>2025-07-30T05:55:11.000Z</time>
</trkpt>
<trkpt lat="46.0353180" lon="10.3185610">
	<ele>845.20</ele>
	<time>2025-07-30T05:55:12.000Z</time>
</trkpt>
<trkpt lat="46.0353270" lon="10.3185670">
	<ele>845.60</ele>
	<time>2025-07-30T05:55:13.000Z</time>
</trkpt>
<trkpt lat="46.0353320" lon="10.3185750">
	<ele>845.80</ele>
	<time>2025-07-30T05:55:14.000Z</time>
</trkpt>
<trkpt lat="46.0353360" lon="10.3185880">
	<ele>846.00</ele>
	<time>2025-07-30T05:55:15.000Z</time>
</trkpt>
<trkpt lat="46.0353360" lon="10.3185980">
	<ele>846.20</ele>
	<time>2025-07-30T05:55:16.000Z</time>
</trkpt>
<trkpt lat="46.0353340" lon="10.3186060">
	<ele>846.40</ele>
	<time>2025-07-30T05:55:17.000Z</time>
</trkpt>
<trkpt lat="46.0353340" lon="10.3186170">
	<ele>846.60</ele>
	<time>2025-07-30T05:55:18.000Z</time>
</trkpt>
<trkpt lat="46.0353310" lon="10.3186370">
	<ele>847.00</ele>
	<time>2025-07-30T05:55:19.000Z</time>
</trkpt>
<trkpt lat="46.0353290" lon="10.3186500">
	<ele>847.20</ele>
	<time>2025-07-30T05:55:20.000Z</time>
</trkpt>
<trkpt lat="46.0353260" lon="10.3186670">
	<ele>847.40</ele>
	<time>2025-07-30T05:55:21.000Z</time>
</trkpt>
<trkpt lat="46.0353260" lon="10.3186720">
	<ele>847.40</ele>
	<time>2025-07-30T05:55:22.000Z</time>
</trkpt>
<trkpt lat="46.0353260" lon="10.3186800">
	<ele>847.60</ele>
	<time>2025-07-30T05:55:23.000Z</time>
</trkpt>
<trkpt lat="46.0353280" lon="10.3186860">
	<ele>847.60</ele>
	<time>2025-07-30T05:55:24.000Z</time>
</trkpt>
<trkpt lat="46.0353310" lon="10.3186920">
	<ele>847.80</ele>
	<time>2025-07-30T05:55:25.000Z</time>
</trkpt>
<trkpt lat="46.0353340" lon="10.3186960">
	<ele>847.80</ele>
	<time>2025-07-30T05:55:26.000Z</time>
</trkpt>
<trkpt lat="46.0353350" lon="10.3186940">
	<ele>848.00</ele>
	<time>2025-07-30T05:55:27.000Z</time>
</trkpt>
<trkpt lat="46.0353370" lon="10.3187010">
	<ele>848.20</ele>
	<time>2025-07-30T05:55:28.000Z</time>
</trkpt>
<trkpt lat="46.0353390" lon="10.3187100">
	<ele>848.40</ele>
	<time>2025-07-30T05:55:29.000Z</time>
</trkpt>
<trkpt lat="46.0353410" lon="10.3187210">
	<ele>848.60</ele>
	<time>2025-07-30T05:55:30.000Z</time>
</trkpt>
<trkpt lat="46.0353440" lon="10.3187310">
	<ele>848.80</ele>
	<time>2025-07-30T05:55:31.000Z</time>
</trkpt>
<trkpt lat="46.0353510" lon="10.3187360">
	<ele>849.00</ele>
	<time>2025-07-30T05:55:32.000Z</time>
</trkpt>
<trkpt lat="46.0353570" lon="10.3187460">
	<ele>849.20</ele>
	<time>2025-07-30T05:55:33.000Z</time>
</trkpt>
<trkpt lat="46.0353590" lon="10.3187610">
	<ele>849.40</ele>
	<time>2025-07-30T05:55:34.000Z</time>
</trkpt>
<trkpt lat="46.0353590" lon="10.3187800">
	<ele>849.60</ele>
	<time>2025-07-30T05:55:35.000Z</time>
</trkpt>
<trkpt lat="46.0353600" lon="10.3187850">
	<ele>849.80</ele>
	<time>2025-07-30T05:55:36.000Z</time>
</trkpt>
<trkpt lat="46.0353700" lon="10.3187940">
	<ele>850.00</ele>
	<time>2025-07-30T05:55:37.000Z</time>
</trkpt>
<trkpt lat="46.0353730" lon="10.3188000">
	<ele>850.40</ele>
	<time>2025-07-30T05:55:38.000Z</time>
</trkpt>
<trkpt lat="46.0353750" lon="10.3188050">
	<ele>850.40</ele>
	<time>2025-07-30T05:55:39.000Z</time>
</trkpt>
<trkpt lat="46.0353760" lon="10.3188130">
	<ele>850.60</ele>
	<time>2025-07-30T05:55:40.000Z</time>
</trkpt>
<trkpt lat="46.0353810" lon="10.3188260">
	<ele>850.80</ele>
	<time>2025-07-30T05:55:41.000Z</time>
</trkpt>
<trkpt lat="46.0353890" lon="10.3188390">
	<ele>850.80</ele>
	<time>2025-07-30T05:55:42.000Z</time>
</trkpt>
<trkpt lat="46.0353910" lon="10.3188450">
	<ele>851.20</ele>
	<time>2025-07-30T05:55:43.000Z</time>
</trkpt>
<trkpt lat="46.0353940" lon="10.3188650">
	<ele>851.40</ele>
	<time>2025-07-30T05:55:44.000Z</time>
</trkpt>
<trkpt lat="46.0354020" lon="10.3188830">
	<ele>851.80</ele>
	<time>2025-07-30T05:55:45.000Z</time>
</trkpt>
<trkpt lat="46.0354070" lon="10.3189070">
	<ele>852.00</ele>
	<time>2025-07-30T05:55:46.000Z</time>
</trkpt>
<trkpt lat="46.0354140" lon="10.3189290">
	<ele>852.00</ele>
	<time>2025-07-30T05:55:47.000Z</time>
</trkpt>
<trkpt lat="46.0354190" lon="10.3189470">
	<ele>852.40</ele>
	<time>2025-07-30T05:55:48.000Z</time>
</trkpt>
<trkpt lat="46.0354200" lon="10.3189510">
	<ele>852.40</ele>
	<time>2025-07-30T05:55:49.000Z</time>
</trkpt>
<trkpt lat="46.0354210" lon="10.3189580">
	<ele>852.60</ele>
	<time>2025-07-30T05:55:50.000Z</time>
</trkpt>
<trkpt lat="46.0354180" lon="10.3189690">
	<ele>852.80</ele>
	<time>2025-07-30T05:55:51.000Z</time>
</trkpt>
<trkpt lat="46.0354210" lon="10.3189760">
	<ele>853.20</ele>
	<time>2025-07-30T05:55:52.000Z</time>
</trkpt>
<trkpt lat="46.0354290" lon="10.3189810">
	<ele>853.40</ele>
	<time>2025-07-30T05:55:53.000Z</time>
</trkpt>
<trkpt lat="46.0354350" lon="10.3189900">
	<ele>853.40</ele>
	<time>2025-07-30T05:55:54.000Z</time>
</trkpt>
<trkpt lat="46.0354380" lon="10.3189970">
	<ele>853.60</ele>
	<time>2025-07-30T05:55:55.000Z</time>
</trkpt>
<trkpt lat="46.0354450" lon="10.3190030">
	<ele>853.60</ele>
	<time>2025-07-30T05:55:56.000Z</time>
</trkpt>
<trkpt lat="46.0354490" lon="10.3190140">
	<ele>853.80</ele>
	<time>2025-07-30T05:55:57.000Z</time>
</trkpt>
<trkpt lat="46.0354510" lon="10.3190290">
	<ele>853.80</ele>
	<time>2025-07-30T05:55:58.000Z</time>
</trkpt>
<trkpt lat="46.0354520" lon="10.3190510">
	<ele>854.00</ele>
	<time>2025-07-30T05:55:59.000Z</time>
</trkpt>
<trkpt lat="46.0354540" lon="10.3190790">
	<ele>854.00</ele>
	<time>2025-07-30T05:56:00.000Z</time>
</trkpt>
<trkpt lat="46.0354550" lon="10.3191010">
	<ele>854.20</ele>
	<time>2025-07-30T05:56:01.000Z</time>
</trkpt>
<trkpt lat="46.0354580" lon="10.3191200">
	<ele>854.40</ele>
	<time>2025-07-30T05:56:02.000Z</time>
</trkpt>
<trkpt lat="46.0354580" lon="10.3191350">
	<ele>854.40</ele>
	<time>2025-07-30T05:56:03.000Z</time>
</trkpt>
<trkpt lat="46.0354590" lon="10.3191440">
	<ele>854.60</ele>
	<time>2025-07-30T05:56:04.000Z</time>
</trkpt>
<trkpt lat="46.0354620" lon="10.3191580">
	<ele>854.60</ele>
	<time>2025-07-30T05:56:05.000Z</time>
</trkpt>
<trkpt lat="46.0354620" lon="10.3191790">
	<ele>854.80</ele>
	<time>2025-07-30T05:56:06.000Z</time>
</trkpt>
<trkpt lat="46.0354530" lon="10.3192030">
	<ele>854.80</ele>
	<time>2025-07-30T05:56:07.000Z</time>
</trkpt>
<trkpt lat="46.0354500" lon="10.3192210">
	<ele>855.00</ele>
	<time>2025-07-30T05:56:08.000Z</time>
</trkpt>
<trkpt lat="46.0354490" lon="10.3192370">
	<ele>855.00</ele>
	<time>2025-07-30T05:56:09.000Z</time>
</trkpt>
<trkpt lat="46.0354520" lon="10.3192500">
	<ele>855.20</ele>
	<time>2025-07-30T05:56:10.000Z</time>
</trkpt>
<trkpt lat="46.0354580" lon="10.3192630">
	<ele>855.40</ele>
	<time>2025-07-30T05:56:11.000Z</time>
</trkpt>
<trkpt lat="46.0354630" lon="10.3192820">
	<ele>855.40</ele>
	<time>2025-07-30T05:56:12.000Z</time>
</trkpt>
<trkpt lat="46.0354720" lon="10.3192940">
	<ele>855.60</ele>
	<time>2025-07-30T05:56:13.000Z</time>
</trkpt>
<trkpt lat="46.0354810" lon="10.3193010">
	<ele>855.80</ele>
	<time>2025-07-30T05:56:14.000Z</time>
</trkpt>
<trkpt lat="46.0354900" lon="10.3193130">
	<ele>855.80</ele>
	<time>2025-07-30T05:56:15.000Z</time>
</trkpt>
<trkpt lat="46.0354860" lon="10.3193280">
	<ele>856.00</ele>
	<time>2025-07-30T05:56:16.000Z</time>
</trkpt>
<trkpt lat="46.0354890" lon="10.3193360">
	<ele>856.00</ele>
	<time>2025-07-30T05:56:17.000Z</time>
</trkpt>
<trkpt lat="46.0354990" lon="10.3193430">
	<ele>856.20</ele>
	<time>2025-07-30T05:56:18.000Z</time>
</trkpt>
<trkpt lat="46.0355110" lon="10.3193550">
	<ele>856.40</ele>
	<time>2025-07-30T05:56:19.000Z</time>
</trkpt>
<trkpt lat="46.0355180" lon="10.3193700">
	<ele>856.40</ele>
	<time>2025-07-30T05:56:20.000Z</time>
</trkpt>
<trkpt lat="46.0355250" lon="10.3193810">
	<ele>856.60</ele>
	<time>2025-07-30T05:56:21.000Z</time>
</trkpt>
<trkpt lat="46.0355260" lon="10.3193920">
	<ele>856.80</ele>
	<time>2025-07-30T05:56:22.000Z</time>
</trkpt>
<trkpt lat="46.0355330" lon="10.3194030">
	<ele>857.20</ele>
	<time>2025-07-30T05:56:23.000Z</time>
</trkpt>
<trkpt lat="46.0355320" lon="10.3194180">
	<ele>857.20</ele>
	<time>2025-07-30T05:56:24.000Z</time>
</trkpt>
<trkpt lat="46.0355320" lon="10.3194330">
	<ele>857.60</ele>
	<time>2025-07-30T05:56:25.000Z</time>
</trkpt>
<trkpt lat="46.0355370" lon="10.3194410">
	<ele>857.80</ele>
	<time>2025-07-30T05:56:26.000Z</time>
</trkpt>
<trkpt lat="46.0355400" lon="10.3194570">
	<ele>858.00</ele>
	<time>2025-07-30T05:56:27.000Z</time>
</trkpt>
<trkpt lat="46.0355460" lon="10.3194620">
	<ele>858.00</ele>
	<time>2025-07-30T05:56:28.000Z</time>
</trkpt>
<trkpt lat="46.0355550" lon="10.3194710">
	<ele>858.40</ele>
	<time>2025-07-30T05:56:29.000Z</time>
</trkpt>
<trkpt lat="46.0355560" lon="10.3194880">
	<ele>858.60</ele>
	<time>2025-07-30T05:56:30.000Z</time>
</trkpt>
<trkpt lat="46.0355590" lon="10.3194990">
	<ele>858.80</ele>
	<time>2025-07-30T05:56:31.000Z</time>
</trkpt>
<trkpt lat="46.0355620" lon="10.3195120">
	<ele>859.00</ele>
	<time>2025-07-30T05:56:32.000Z</time>
</trkpt>
<trkpt lat="46.0355650" lon="10.3195210">
	<ele>859.20</ele>
	<time>2025-07-30T05:56:33.000Z</time>
</trkpt>
<trkpt lat="46.0355660" lon="10.3195370">
	<ele>859.20</ele>
	<time>2025-07-30T05:56:34.000Z</time>
</trkpt>
<trkpt lat="46.0355640" lon="10.3195420">
	<ele>859.40</ele>
	<time>2025-07-30T05:56:35.000Z</time>
</trkpt>
<trkpt lat="46.0355630" lon="10.3195490">
	<ele>859.60</ele>
	<time>2025-07-30T05:56:36.000Z</time>
</trkpt>
<trkpt lat="46.0355690" lon="10.3195580">
	<ele>859.80</ele>
	<time>2025-07-30T05:56:37.000Z</time>
</trkpt>
<trkpt lat="46.0355740" lon="10.3195660">
	<ele>860.00</ele>
	<time>2025-07-30T05:56:38.000Z</time>
</trkpt>
<trkpt lat="46.0355820" lon="10.3195730">
	<ele>860.40</ele>
	<time>2025-07-30T05:56:39.000Z</time>
</trkpt>
<trkpt lat="46.0355900" lon="10.3195850">
	<ele>860.60</ele>
	<time>2025-07-30T05:56:40.000Z</time>
</trkpt>
<trkpt lat="46.0355940" lon="10.3195920">
	<ele>860.80</ele>
	<time>2025-07-30T05:56:41.000Z</time>
</trkpt>
<trkpt lat="46.0356000" lon="10.3195970">
	<ele>861.00</ele>
	<time>2025-07-30T05:56:42.000Z</time>
</trkpt>
<trkpt lat="46.0356120" lon="10.3195940">
	<ele>861.20</ele>
	<time>2025-07-30T05:56:43.000Z</time>
</trkpt>
<trkpt lat="46.0356210" lon="10.3195990">
	<ele>861.20</ele>
	<time>2025-07-30T05:56:44.000Z</time>
</trkpt>
<trkpt lat="46.0356220" lon="10.3196040">
	<ele>861.40</ele>
	<time>2025-07-30T05:56:45.000Z</time>
</trkpt>
<trkpt lat="46.0356310" lon="10.3196040">
	<ele>861.60</ele>
	<time>2025-07-30T05:56:46.000Z</time>
</trkpt>
<trkpt lat="46.0356360" lon="10.3196060">
	<ele>861.60</ele>
	<time>2025-07-30T05:56:47.000Z</time>
</trkpt>
<trkpt lat="46.0356470" lon="10.3196060">
	<ele>861.80</ele>
	<time>2025-07-30T05:56:48.000Z</time>
</trkpt>
<trkpt lat="46.0356580" lon="10.3196130">
	<ele>861.80</ele>
	<time>2025-07-30T05:56:49.000Z</time>
</trkpt>
<trkpt lat="46.0356620" lon="10.3196210">
	<ele>862.00</ele>
	<time>2025-07-30T05:56:50.000Z</time>
</trkpt>
<trkpt lat="46.0356690" lon="10.3196300">
	<ele>862.20</ele>
	<time>2025-07-30T05:56:51.000Z</time>
</trkpt>
<trkpt lat="46.0356750" lon="10.3196370">
	<ele>862.40</ele>
	<time>2025-07-30T05:56:52.000Z</time>
</trkpt>
<trkpt lat="46.0356800" lon="10.3196350">
	<ele>862.60</ele>
	<time>2025-07-30T05:56:53.000Z</time>
</trkpt>
<trkpt lat="46.0356850" lon="10.3196380">
	<ele>862.80</ele>
	<time>2025-07-30T05:56:54.000Z</time>
</trkpt>
<trkpt lat="46.0356810" lon="10.3196500">
	<ele>863.00</ele>
	<time>2025-07-30T05:56:55.000Z</time>
</trkpt>
<trkpt lat="46.0356760" lon="10.3196700">
	<ele>863.20</ele>
	<time>2025-07-30T05:56:56.000Z</time>
</trkpt>
<trkpt lat="46.0356770" lon="10.3196870">
	<ele>863.20</ele>
	<time>2025-07-30T05:56:57.000Z</time>
</trkpt>
<trkpt lat="46.0356930" lon="10.3196830">
	<ele>863.60</ele>
	<time>2025-07-30T05:56:58.000Z</time>
</trkpt>
<trkpt lat="46.0356990" lon="10.3196920">
	<ele>863.60</ele>
	<time>2025-07-30T05:56:59.000Z</time>
</trkpt>
<trkpt lat="46.0357020" lon="10.3196970">
	<ele>863.80</ele>
	<time>2025-07-30T05:57:00.000Z</time>
</trkpt>
<trkpt lat="46.0357040" lon="10.3197000">
	<ele>864.00</ele>
	<time>2025-07-30T05:57:01.000Z</time>
</trkpt>
<trkpt lat="46.0357080" lon="10.3197070">
	<ele>864.40</ele>
	<time>2025-07-30T05:57:02.000Z</time>
</trkpt>
<trkpt lat="46.0357110" lon="10.3197080">
	<ele>864.60</ele>
	<time>2025-07-30T05:57:03.000Z</time>
</trkpt>
<trkpt lat="46.0357150" lon="10.3197080">
	<ele>864.60</ele>
	<time>2025-07-30T05:57:04.000Z</time>
</trkpt>
<trkpt lat="46.0357240" lon="10.3197010">
	<ele>864.80</ele>
	<time>2025-07-30T05:57:05.000Z</time>
</trkpt>
<trkpt lat="46.0357300" lon="10.3197070">
	<ele>865.00</ele>
	<time>2025-07-30T05:57:06.000Z</time>
</trkpt>
<trkpt lat="46.0357390" lon="10.3197120">
	<ele>865.20</ele>
	<time>2025-07-30T05:57:07.000Z</time>
</trkpt>
<trkpt lat="46.0357490" lon="10.3197120">
	<ele>865.40</ele>
	<time>2025-07-30T05:57:08.000Z</time>
</trkpt>
<trkpt lat="46.0357610" lon="10.3197140">
	<ele>865.40</ele>
	<time>2025-07-30T05:57:09.000Z</time>
</trkpt>
<trkpt lat="46.0357700" lon="10.3197170">
	<ele>865.80</ele>
	<time>2025-07-30T05:57:10.000Z</time>
</trkpt>
<trkpt lat="46.0357740" lon="10.3197280">
	<ele>865.80</ele>
	<time>2025-07-30T05:57:11.000Z</time>
</trkpt>
<trkpt lat="46.0357780" lon="10.3197400">
	<ele>866.00</ele>
	<time>2025-07-30T05:57:12.000Z</time>
</trkpt>
<trkpt lat="46.0357830" lon="10.3197500">
	<ele>866.20</ele>
	<time>2025-07-30T05:57:13.000Z</time>
</trkpt>
<trkpt lat="46.0357900" lon="10.3197600">
	<ele>866.60</ele>
	<time>2025-07-30T05:57:14.000Z</time>
</trkpt>
<trkpt lat="46.0358030" lon="10.3197710">
	<ele>866.60</ele>
	<time>2025-07-30T05:57:15.000Z</time>
</trkpt>
<trkpt lat="46.0358150" lon="10.3197680">
	<ele>866.80</ele>
	<time>2025-07-30T05:57:16.000Z</time>
</trkpt>
<trkpt lat="46.0358210" lon="10.3197740">
	<ele>867.00</ele>
	<time>2025-07-30T05:57:17.000Z</time>
</trkpt>
<trkpt lat="46.0358230" lon="10.3197980">
	<ele>867.20</ele>
	<time>2025-07-30T05:57:18.000Z</time>
</trkpt>
<trkpt lat="46.0358390" lon="10.3198070">
	<ele>867.40</ele>
	<time>2025-07-30T05:57:19.000Z</time>
</trkpt>
<trkpt lat="46.0358510" lon="10.3198130">
	<ele>867.60</ele>
	<time>2025-07-30T05:57:20.000Z</time>
</trkpt>
<trkpt lat="46.0358540" lon="10.3198070">
	<ele>867.80</ele>
	<time>2025-07-30T05:57:21.000Z</time>
</trkpt>
<trkpt lat="46.0358590" lon="10.3198100">
	<ele>868.00</ele>
	<time>2025-07-30T05:57:22.000Z</time>
</trkpt>
<trkpt lat="46.0358650" lon="10.3198210">
	<ele>868.20</ele>
	<time>2025-07-30T05:57:23.000Z</time>
</trkpt>
<trkpt lat="46.0358690" lon="10.3198280">
	<ele>868.40</ele>
	<time>2025-07-30T05:57:24.000Z</time>
</trkpt>
<trkpt lat="46.0358720" lon="10.3198310">
	<ele>868.60</ele>
	<time>2025-07-30T05:57:25.000Z</time>
</trkpt>
<trkpt lat="46.0358770" lon="10.3198360">
	<ele>868.80</ele>
	<time>2025-07-30T05:57:26.000Z</time>
</trkpt>
<trkpt lat="46.0358850" lon="10.3198330">
	<ele>869.00</ele>
	<time>2025-07-30T05:57:27.000Z</time>
</trkpt>
<trkpt lat="46.0358910" lon="10.3198390">
	<ele>869.20</ele>
	<time>2025-07-30T05:57:28.000Z</time>
</trkpt>
<trkpt lat="46.0358990" lon="10.3198410">
	<ele>869.40</ele>
	<time>2025-07-30T05:57:29.000Z</time>
</trkpt>
<trkpt lat="46.0359080" lon="10.3198460">
	<ele>869.60</ele>
	<time>2025-07-30T05:57:30.000Z</time>
</trkpt>
<trkpt lat="46.0359160" lon="10.3198510">
	<ele>870.00</ele>
	<time>2025-07-30T05:57:31.000Z</time>
</trkpt>
<trkpt lat="46.0359210" lon="10.3198530">
	<ele>870.00</ele>
	<time>2025-07-30T05:57:32.000Z</time>
</trkpt>
<trkpt lat="46.0359330" lon="10.3198550">
	<ele>870.40</ele>
	<time>2025-07-30T05:57:33.000Z</time>
</trkpt>
<trkpt lat="46.0359380" lon="10.3198540">
	<ele>870.60</ele>
	<time>2025-07-30T05:57:34.000Z</time>
</trkpt>
<trkpt lat="46.0359520" lon="10.3198510">
	<ele>870.80</ele>
	<time>2025-07-30T05:57:35.000Z</time>
</trkpt>
<trkpt lat="46.0359630" lon="10.3198470">
	<ele>871.00</ele>
	<time>2025-07-30T05:57:36.000Z</time>
</trkpt>
<trkpt lat="46.0359700" lon="10.3198420">
	<ele>871.20</ele>
	<time>2025-07-30T05:57:37.000Z</time>
</trkpt>
<trkpt lat="46.0359710" lon="10.3198410">
	<ele>871.20</ele>
	<time>2025-07-30T05:57:38.000Z</time>
</trkpt>
<trkpt lat="46.0359700" lon="10.3198380">
	<ele>871.40</ele>
	<time>2025-07-30T05:57:39.000Z</time>
</trkpt>
<trkpt lat="46.0359870" lon="10.3198360">
	<ele>871.80</ele>
	<time>2025-07-30T05:57:40.000Z</time>
</trkpt>
<trkpt lat="46.0360050" lon="10.3198340">
	<ele>872.00</ele>
	<time>2025-07-30T05:57:41.000Z</time>
</trkpt>
<trkpt lat="46.0360200" lon="10.3198420">
	<ele>872.00</ele>
	<time>2025-07-30T05:57:42.000Z</time>
</trkpt>
<trkpt lat="46.0360250" lon="10.3198440">
	<ele>872.20</ele>
	<time>2025-07-30T05:57:43.000Z</time>
</trkpt>
<trkpt lat="46.0360350" lon="10.3198480">
	<ele>872.40</ele>
	<time>2025-07-30T05:57:44.000Z</time>
</trkpt>
<trkpt lat="46.0360440" lon="10.3198520">
	<ele>872.60</ele>
	<time>2025-07-30T05:57:45.000Z</time>
</trkpt>
<trkpt lat="46.0360530" lon="10.3198520">
	<ele>872.80</ele>
	<time>2025-07-30T05:57:46.000Z</time>
</trkpt>
<trkpt lat="46.0360660" lon="10.3198550">
	<ele>872.80</ele>
	<time>2025-07-30T05:57:47.000Z</time>
</trkpt>
<trkpt lat="46.0360800" lon="10.3198630">
	<ele>872.80</ele>
	<time>2025-07-30T05:57:48.000Z</time>
</trkpt>
<trkpt lat="46.0360870" lon="10.3198650">
	<ele>873.00</ele>
	<time>2025-07-30T05:57:49.000Z</time>
</trkpt>
<trkpt lat="46.0360930" lon="10.3198680">
	<ele>873.00</ele>
	<time>2025-07-30T05:57:50.000Z</time>
</trkpt>
<trkpt lat="46.0360960" lon="10.3198690">
	<ele>873.20</ele>
	<time>2025-07-30T05:57:51.000Z</time>
</trkpt>
<trkpt lat="46.0360980" lon="10.3198680">
	<ele>873.20</ele>
	<time>2025-07-30T05:57:52.000Z</time>
</trkpt>
<trkpt lat="46.0361020" lon="10.3198720">
	<ele>873.40</ele>
	<time>2025-07-30T05:57:53.000Z</time>
</trkpt>
<trkpt lat="46.0361100" lon="10.3198680">
	<ele>873.60</ele>
	<time>2025-07-30T05:57:54.000Z</time>
</trkpt>
<trkpt lat="46.0361190" lon="10.3198610">
	<ele>873.60</ele>
	<time>2025-07-30T05:57:55.000Z</time>
</trkpt>
<trkpt lat="46.0361280" lon="10.3198610">
	<ele>873.80</ele>
	<time>2025-07-30T05:57:56.000Z</time>
</trkpt>
<trkpt lat="46.0361310" lon="10.3198660">
	<ele>874.20</ele>
	<time>2025-07-30T05:57:57.000Z</time>
</trkpt>
<trkpt lat="46.0361340" lon="10.3198700">
	<ele>874.40</ele>
	<time>2025-07-30T05:57:58.000Z</time>
</trkpt>
<trkpt lat="46.0361410" lon="10.3198780">
	<ele>874.60</ele>
	<time>2025-07-30T05:57:59.000Z</time>
</trkpt>
<trkpt lat="46.0361480" lon="10.3198920">
	<ele>874.60</ele>
	<time>2025-07-30T05:58:00.000Z</time>
</trkpt>
<trkpt lat="46.0361560" lon="10.3198970">
	<ele>875.00</ele>
	<time>2025-07-30T05:58:01.000Z</time>
</trkpt>
<trkpt lat="46.0361640" lon="10.3198950">
	<ele>875.20</ele>
	<time>2025-07-30T05:58:02.000Z</time>
</trkpt>
<trkpt lat="46.0361720" lon="10.3199010">
	<ele>875.40</ele>
	<time>2025-07-30T05:58:03.000Z</time>
</trkpt>
<trkpt lat="46.0361800" lon="10.3199020">
	<ele>875.60</ele>
	<time>2025-07-30T05:58:04.000Z</time>
</trkpt>
<trkpt lat="46.0361910" lon="10.3199000">
	<ele>875.80</ele>
	<time>2025-07-30T05:58:05.000Z</time>
</trkpt>
<trkpt lat="46.0361980" lon="10.3198950">
	<ele>876.00</ele>
	<time>2025-07-30T05:58:06.000Z</time>
</trkpt>
<trkpt lat="46.0361980" lon="10.3199090">
	<ele>876.20</ele>
	<time>2025-07-30T05:58:07.000Z</time>
</trkpt>
<trkpt lat="46.0362020" lon="10.3199210">
	<ele>876.40</ele>
	<time>2025-07-30T05:58:08.000Z</time>
</trkpt>
<trkpt lat="46.0362050" lon="10.3199260">
	<ele>876.60</ele>
	<time>2025-07-30T05:58:09.000Z</time>
</trkpt>
<trkpt lat="46.0362090" lon="10.3199290">
	<ele>876.80</ele>
	<time>2025-07-30T05:58:10.000Z</time>
</trkpt>
<trkpt lat="46.0362150" lon="10.3199320">
	<ele>877.00</ele>
	<time>2025-07-30T05:58:11.000Z</time>
</trkpt>
<trkpt lat="46.0362220" lon="10.3199370">
	<ele>877.20</ele>
	<time>2025-07-30T05:58:12.000Z</time>
</trkpt>
<trkpt lat="46.0362310" lon="10.3199450">
	<ele>877.40</ele>
	<time>2025-07-30T05:58:13.000Z</time>
</trkpt>
<trkpt lat="46.0362390" lon="10.3199480">
	<ele>877.60</ele>
	<time>2025-07-30T05:58:14.000Z</time>
</trkpt>
<trkpt lat="46.0362480" lon="10.3199450">
	<ele>877.60</ele>
	<time>2025-07-30T05:58:15.000Z</time>
</trkpt>
<trkpt lat="46.0362560" lon="10.3199370">
	<ele>877.80</ele>
	<time>2025-07-30T05:58:16.000Z</time>
</trkpt>
<trkpt lat="46.0362620" lon="10.3199280">
	<ele>878.00</ele>
	<time>2025-07-30T05:58:17.000Z</time>
</trkpt>
<trkpt lat="46.0362720" lon="10.3199250">
	<ele>878.20</ele>
	<time>2025-07-30T05:58:18.000Z</time>
</trkpt>
<trkpt lat="46.0362790" lon="10.3199180">
	<ele>878.40</ele>
	<time>2025-07-30T05:58:19.000Z</time>
</trkpt>
<trkpt lat="46.0362870" lon="10.3199200">
	<ele>878.60</ele>
	<time>2025-07-30T05:58:20.000Z</time>
</trkpt>
<trkpt lat="46.0362950" lon="10.3199270">
	<ele>878.60</ele>
	<time>2025-07-30T05:58:21.000Z</time>
</trkpt>
<trkpt lat="46.0363020" lon="10.3199320">
	<ele>879.00</ele>
	<time>2025-07-30T05:58:22.000Z</time>
</trkpt>
<trkpt lat="46.0363100" lon="10.3199350">
	<ele>879.20</ele>
	<time>2025-07-30T05:58:23.000Z</time>
</trkpt>
<trkpt lat="46.0363160" lon="10.3199380">
	<ele>879.20</ele>
	<time>2025-07-30T05:58:24.000Z</time>
</trkpt>
<trkpt lat="46.0363240" lon="10.3199380">
	<ele>879.40</ele>
	<time>2025-07-30T05:58:25.000Z</time>
</trkpt>
<trkpt lat="46.0363320" lon="10.3199390">
	<ele>879.60</ele>
	<time>2025-07-30T05:58:26.000Z</time>
</trkpt>
<trkpt lat="46.0363430" lon="10.3199340">
	<ele>879.80</ele>
	<time>2025-07-30T05:58:27.000Z</time>
</trkpt>
<trkpt lat="46.0363560" lon="10.3199320">
	<ele>880.00</ele>
	<time>2025-07-30T05:58:28.000Z</time>
</trkpt>
<trkpt lat="46.0363660" lon="10.3199290">
	<ele>880.00</ele>
	<time>2025-07-30T05:58:29.000Z</time>
</trkpt>
<trkpt lat="46.0363790" lon="10.3199290">
	<ele>880.20</ele>
	<time>2025-07-30T05:58:30.000Z</time>
</trkpt>
<trkpt lat="46.0363900" lon="10.3199320">
	<ele>880.60</ele>
	<time>2025-07-30T05:58:31.000Z</time>
</trkpt>
<trkpt lat="46.0363950" lon="10.3199300">
	<ele>880.80</ele>
	<time>2025-07-30T05:58:32.000Z</time>
</trkpt>
<trkpt lat="46.0364000" lon="10.3199270">
	<ele>881.00</ele>
	<time>2025-07-30T05:58:33.000Z</time>
</trkpt>
<trkpt lat="46.0364030" lon="10.3199300">
	<ele>881.00</ele>
	<time>2025-07-30T05:58:34.000Z</time>
</trkpt>
<trkpt lat="46.0364160" lon="10.3199270">
	<ele>881.20</ele>
	<time>2025-07-30T05:58:35.000Z</time>
</trkpt>
<trkpt lat="46.0364180" lon="10.3199300">
	<ele>881.40</ele>
	<time>2025-07-30T05:58:36.000Z</time>
</trkpt>
<trkpt lat="46.0364190" lon="10.3199340">
	<ele>881.40</ele>
	<time>2025-07-30T05:58:37.000Z</time>
</trkpt>
<trkpt lat="46.0364190" lon="10.3199350">
	<ele>881.60</ele>
	<time>2025-07-30T05:58:38.000Z</time>
</trkpt>
<trkpt lat="46.0364330" lon="10.3199210">
	<ele>881.80</ele>
	<time>2025-07-30T05:58:39.000Z</time>
</trkpt>
<trkpt lat="46.0364480" lon="10.3199060">
	<ele>882.00</ele>
	<time>2025-07-30T05:58:40.000Z</time>
</trkpt>
<trkpt lat="46.0364670" lon="10.3198900">
	<ele>882.00</ele>
	<time>2025-07-30T05:58:41.000Z</time>
</trkpt>
<trkpt lat="46.0365040" lon="10.3198690">
	<ele>882.20</ele>
	<time>2025-07-30T05:58:42.000Z</time>
</trkpt>
<trkpt lat="46.0365290" lon="10.3198650">
	<ele>882.40</ele>
	<time>2025-07-30T05:58:43.000Z</time>
</trkpt>
<trkpt lat="46.0365310" lon="10.3198660">
	<ele>882.80</ele>
	<time>2025-07-30T05:58:44.000Z</time>
</trkpt>
<trkpt lat="46.0365330" lon="10.3198690">
	<ele>883.00</ele>
	<time>2025-07-30T05:58:45.000Z</time>
</trkpt>
<trkpt lat="46.0365390" lon="10.3198610">
	<ele>883.00</ele>
	<time>2025-07-30T05:58:46.000Z</time>
</trkpt>
<trkpt lat="46.0365450" lon="10.3198540">
	<ele>883.20</ele>
	<time>2025-07-30T05:58:47.000Z</time>
</trkpt>
<trkpt lat="46.0365510" lon="10.3198480">
	<ele>883.20</ele>
	<time>2025-07-30T05:58:48.000Z</time>
</trkpt>
<trkpt lat="46.0365610" lon="10.3198400">
	<ele>883.20</ele>
	<time>2025-07-30T05:58:49.000Z</time>
</trkpt>
<trkpt lat="46.0365660" lon="10.3198350">
	<ele>883.20</ele>
	<time>2025-07-30T05:58:50.000Z</time>
</trkpt>
<trkpt lat="46.0365700" lon="10.3198260">
	<ele>883.20</ele>
	<time>2025-07-30T05:58:51.000Z</time>
</trkpt>
<trkpt lat="46.0365740" lon="10.3198200">
	<ele>883.20</ele>
	<time>2025-07-30T05:58:52.000Z</time>
</trkpt>
<trkpt lat="46.0365880" lon="10.3198060">
	<ele>883.40</ele>
	<time>2025-07-30T05:58:53.000Z</time>
</trkpt>
<trkpt lat="46.0366040" lon="10.3197940">
	<ele>883.40</ele>
	<time>2025-07-30T05:58:54.000Z</time>
</trkpt>
<trkpt lat="46.0366050" lon="10.3197790">
	<ele>883.40</ele>
	<time>2025-07-30T05:58:55.000Z</time>
</trkpt>
<trkpt lat="46.0366050" lon="10.3197640">
	<ele>883.60</ele>
	<time>2025-07-30T05:58:56.000Z</time>
</trkpt>
<trkpt lat="46.0366050" lon="10.3197520">
	<ele>883.60</ele>
	<time>2025-07-30T05:58:57.000Z</time>
</trkpt>
<trkpt lat="46.0366080" lon="10.3197470">
	<ele>884.00</ele>
	<time>2025-07-30T05:58:58.000Z</time>
</trkpt>
<trkpt lat="46.0366100" lon="10.3197450">
	<ele>884.20</ele>
	<time>2025-07-30T05:58:59.000Z</time>
</trkpt>
<trkpt lat="46.0365590" lon="10.3197420">
	<ele>884.20</ele>
	<time>2025-07-30T05:59:00.000Z</time>
</trkpt>
<trkpt lat="46.0365500" lon="10.3197290">
	<ele>884.40</ele>
	<time>2025-07-30T05:59:01.000Z</time>
</trkpt>
<trkpt lat="46.0365480" lon="10.3197150">
	<ele>884.40</ele>
	<time>2025-07-30T05:59:02.000Z</time>
</trkpt>
<trkpt lat="46.0365520" lon="10.3197070">
	<ele>884.40</ele>
	<time>2025-07-30T05:59:03.000Z</time>
</trkpt>
<trkpt lat="46.0365500" lon="10.3197050">
	<ele>884.40</ele>
	<time>2025-07-30T05:59:04.000Z</time>
</trkpt>
<trkpt lat="46.0365440" lon="10.3197060">
	<ele>884.40</ele>
	<time>2025-07-30T05:59:05.000Z</time>
</trkpt>
<trkpt lat="46.0365450" lon="10.3197070">
	<ele>884.40</ele>
	<time>2025-07-30T05:59:06.000Z</time>
</trkpt>
<trkpt lat="46.0365600" lon="10.3197010">
	<ele>884.40</ele>
	<time>2025-07-30T05:59:07.000Z</time>
</trkpt>
<trkpt lat="46.0365720" lon="10.3196990">
	<ele>884.60</ele>
	<time>2025-07-30T05:59:08.000Z</time>
</trkpt>
<trkpt lat="46.0365750" lon="10.3196950">
	<ele>884.60</ele>
	<time>2025-07-30T05:59:09.000Z</time>
</trkpt>
<trkpt lat="46.0365860" lon="10.3196870">
	<ele>884.60</ele>
	<time>2025-07-30T05:59:10.000Z</time>
</trkpt>
<trkpt lat="46.0365940" lon="10.3196790">
	<ele>884.80</ele>
	<time>2025-07-30T05:59:11.000Z</time>
</trkpt>
<trkpt lat="46.0366050" lon="10.3196710">
	<ele>885.00</ele>
	<time>2025-07-30T05:59:12.000Z</time>
</trkpt>
<trkpt lat="46.0366090" lon="10.3196700">
	<ele>885.20</ele>
	<time>2025-07-30T05:59:13.000Z</time>
</trkpt>
<trkpt lat="46.0366160" lon="10.3196700">
	<ele>885.20</ele>
	<time>2025-07-30T05:59:14.000Z</time>
</trkpt>
<trkpt lat="46.0366190" lon="10.3196710">
	<ele>885.40</ele>
	<time>2025-07-30T05:59:15.000Z</time>
</trkpt>
<trkpt lat="46.0366190" lon="10.3196720">
	<ele>885.40</ele>
	<time>2025-07-30T05:59:16.000Z</time>
</trkpt>
<trkpt lat="46.0366210" lon="10.3196730">
	<ele>885.40</ele>
	<time>2025-07-30T05:59:17.000Z</time>
</trkpt>
<trkpt lat="46.0366230" lon="10.3196710">
	<ele>885.40</ele>
	<time>2025-07-30T05:59:18.000Z</time>
</trkpt>
<trkpt lat="46.0366280" lon="10.3196680">
	<ele>885.40</ele>
	<time>2025-07-30T05:59:19.000Z</time>
</trkpt>
<trkpt lat="46.0366370" lon="10.3196660">
	<ele>885.40</ele>
	<time>2025-07-30T05:59:20.000Z</time>
</trkpt>
<trkpt lat="46.0366490" lon="10.3196610">
	<ele>885.20</ele>
	<time>2025-07-30T05:59:21.000Z</time>
</trkpt>
<trkpt lat="46.0366590" lon="10.3196510">
	<ele>885.20</ele>
	<time>2025-07-30T05:59:22.000Z</time>
</trkpt>
<trkpt lat="46.0366690" lon="10.3196420">
	<ele>885.20</ele>
	<time>2025-07-30T05:59:23.000Z</time>
</trkpt>
<trkpt lat="46.0366710" lon="10.3196400">
	<ele>885.20</ele>
	<time>2025-07-30T05:59:24.000Z</time>
</trkpt>
<trkpt lat="46.0366730" lon="10.3196390">
	<ele>885.20</ele>
	<time>2025-07-30T05:59:25.000Z</time>
</trkpt>
<trkpt lat="46.0366800" lon="10.3196450">
	<ele>885.20</ele>
	<time>2025-07-30T05:59:26.000Z</time>
</trkpt>
<trkpt lat="46.0366870" lon="10.3196480">
	<ele>885.20</ele>
	<time>2025-07-30T05:59:27.000Z</time>
</trkpt>
<trkpt lat="46.0366940" lon="10.3196530">
	<ele>885.20</ele>
	<time>2025-07-30T05:59:28.000Z</time>
</trkpt>
<trkpt lat="46.0366970" lon="10.3196530">
	<ele>885.20</ele>
	<time>2025-07-30T05:59:29.000Z</time>
</trkpt>
<trkpt lat="46.0366990" lon="10.3196500">
	<ele>885.20</ele>
	<time>2025-07-30T05:59:30.000Z</time>
</trkpt>
<trkpt lat="46.0367080" lon="10.3196440">
	<ele>885.60</ele>
	<time>2025-07-30T05:59:31.000Z</time>
</trkpt>
<trkpt lat="46.0367160" lon="10.3196370">
	<ele>885.60</ele>
	<time>2025-07-30T05:59:32.000Z</time>
</trkpt>
<trkpt lat="46.0367280" lon="10.3196280">
	<ele>885.80</ele>
	<time>2025-07-30T05:59:33.000Z</time>
</trkpt>
<trkpt lat="46.0367400" lon="10.3196250">
	<ele>885.80</ele>
	<time>2025-07-30T05:59:34.000Z</time>
</trkpt>
<trkpt lat="46.0367450" lon="10.3196200">
	<ele>886.00</ele>
	<time>2025-07-30T05:59:35.000Z</time>
</trkpt>
<trkpt lat="46.0367480" lon="10.3196180">
	<ele>886.00</ele>
	<time>2025-07-30T05:59:36.000Z</time>
</trkpt>
<trkpt lat="46.0367590" lon="10.3196140">
	<ele>886.20</ele>
	<time>2025-07-30T05:59:37.000Z</time>
</trkpt>
<trkpt lat="46.0367710" lon="10.3196110">
	<ele>886.60</ele>
	<time>2025-07-30T05:59:38.000Z</time>
</trkpt>
<trkpt lat="46.0367720" lon="10.3196120">
	<ele>886.80</ele>
	<time>2025-07-30T05:59:39.000Z</time>
</trkpt>
<trkpt lat="46.0367760" lon="10.3196140">
	<ele>886.80</ele>
	<time>2025-07-30T05:59:40.000Z</time>
</trkpt>
<trkpt lat="46.0367810" lon="10.3196170">
	<ele>887.00</ele>
	<time>2025-07-30T05:59:41.000Z</time>
</trkpt>
<trkpt lat="46.0367900" lon="10.3196150">
	<ele>887.20</ele>
	<time>2025-07-30T05:59:42.000Z</time>
</trkpt>
<trkpt lat="46.0367980" lon="10.3196060">
	<ele>887.40</ele>
	<time>2025-07-30T05:59:43.000Z</time>
</trkpt>
<trkpt lat="46.0368080" lon="10.3195920">
	<ele>887.40</ele>
	<time>2025-07-30T05:59:44.000Z</time>
</trkpt>
<trkpt lat="46.0368200" lon="10.3195780">
	<ele>887.40</ele>
	<time>2025-07-30T05:59:45.000Z</time>
</trkpt>
<trkpt lat="46.0368310" lon="10.3195750">
	<ele>887.60</ele>
	<time>2025-07-30T05:59:46.000Z</time>
</trkpt>
<trkpt lat="46.0368330" lon="10.3195740">
	<ele>887.60</ele>
	<time>2025-07-30T05:59:47.000Z</time>
</trkpt>
<trkpt lat="46.0368330" lon="10.3195740">
	<ele>887.80</ele>
	<time>2025-07-30T05:59:48.000Z</time>
</trkpt>
<trkpt lat="46.0368340" lon="10.3195720">
	<ele>887.80</ele>
	<time>2025-07-30T05:59:49.000Z</time>
</trkpt>
<trkpt lat="46.0368360" lon="10.3195740">
	<ele>887.80</ele>
	<time>2025-07-30T05:59:50.000Z</time>
</trkpt>
<trkpt lat="46.0368270" lon="10.3195860">
	<ele>887.80</ele>
	<time>2025-07-30T05:59:51.000Z</time>
</trkpt>
<trkpt lat="46.0368250" lon="10.3195870">
	<ele>887.80</ele>
	<time>2025-07-30T05:59:52.000Z</time>
</trkpt>
<trkpt lat="46.0368200" lon="10.3195800">
	<ele>888.00</ele>
	<time>2025-07-30T05:59:53.000Z</time>
</trkpt>
<trkpt lat="46.0368150" lon="10.3195750">
	<ele>888.00</ele>
	<time>2025-07-30T05:59:54.000Z</time>
</trkpt>
<trkpt lat="46.0368140" lon="10.3195700">
	<ele>888.00</ele>
	<time>2025-07-30T05:59:55.000Z</time>
</trkpt>
<trkpt lat="46.0368150" lon="10.3195680">
	<ele>888.20</ele>
	<time>2025-07-30T05:59:56.000Z</time>
</trkpt>
<trkpt lat="46.0368150" lon="10.3195680">
	<ele>888.20</ele>
	<time>2025-07-30T05:59:57.000Z</time>
</trkpt>
<trkpt lat="46.0368090" lon="10.3195690">
	<ele>888.20</ele>
	<time>2025-07-30T05:59:58.000Z</time>
</trkpt>
<trkpt lat="46.0368010" lon="10.3195700">
	<ele>888.00</ele>
	<time>2025-07-30T05:59:59.000Z</time>
</trkpt>
<trkpt lat="46.0367890" lon="10.3195680">
	<ele>887.80</ele>
	<time>2025-07-30T06:00:00.000Z</time>
</trkpt>
<trkpt lat="46.0367780" lon="10.3195740">
	<ele>887.60</ele>
	<time>2025-07-30T06:00:01.000Z</time>
</trkpt>
<trkpt lat="46.0367720" lon="10.3195770">
	<ele>887.60</ele>
	<time>2025-07-30T06:00:02.000Z</time>
</trkpt>
<trkpt lat="46.0367700" lon="10.3195830">
	<ele>887.60</ele>
	<time>2025-07-30T06:00:03.000Z</time>
</trkpt>
<trkpt lat="46.0367680" lon="10.3195860">
	<ele>887.60</ele>
	<time>2025-07-30T06:00:04.000Z</time>
</trkpt>
<trkpt lat="46.0367680" lon="10.3195880">
	<ele>887.60</ele>
	<time>2025-07-30T06:00:05.000Z</time>
</trkpt>
<trkpt lat="46.0367690" lon="10.3195870">
	<ele>887.60</ele>
	<time>2025-07-30T06:00:06.000Z</time>
</trkpt>
<trkpt lat="46.0367690" lon="10.3195880">
	<ele>887.60</ele>
	<time>2025-07-30T06:00:07.000Z</time>
</trkpt>
<trkpt lat="46.0367690" lon="10.3195900">
	<ele>887.60</ele>
	<time>2025-07-30T06:00:08.000Z</time>
</trkpt>
<trkpt lat="46.0367700" lon="10.3195920">
	<ele>887.60</ele>
	<time>2025-07-30T06:00:09.000Z</time>
</trkpt>
<trkpt lat="46.0367690" lon="10.3195940">
	<ele>887.60</ele>
	<time>2025-07-30T06:00:10.000Z</time>
</trkpt>
<trkpt lat="46.0367710" lon="10.3195940">
	<ele>887.60</ele>
	<time>2025-07-30T06:00:11.000Z</time>
</trkpt>
<trkpt lat="46.0367800" lon="10.3195890">
	<ele>887.60</ele>
	<time>2025-07-30T06:00:12.000Z</time>
</trkpt>
<trkpt lat="46.0367880" lon="10.3195850">
	<ele>887.60</ele>
	<time>2025-07-30T06:00:13.000Z</time>
</trkpt>
<trkpt lat="46.0367960" lon="10.3195810">
	<ele>887.60</ele>
	<time>2025-07-30T06:00:14.000Z</time>
</trkpt>
<trkpt lat="46.0368040" lon="10.3195790">
	<ele>887.60</ele>
	<time>2025-07-30T06:00:15.000Z</time>
</trkpt>
<trkpt lat="46.0368140" lon="10.3195680">
	<ele>887.60</ele>
	<time>2025-07-30T06:00:16.000Z</time>
</trkpt>
<trkpt lat="46.0368240" lon="10.3195610">
	<ele>887.40</ele>
	<time>2025-07-30T06:00:17.000Z</time>
</trkpt>
<trkpt lat="46.0368360" lon="10.3195590">
	<ele>887.40</ele>
	<time>2025-07-30T06:00:18.000Z</time>
</trkpt>
<trkpt lat="46.0368430" lon="10.3195670">
	<ele>887.60</ele>
	<time>2025-07-30T06:00:19.000Z</time>
</trkpt>
<trkpt lat="46.0368480" lon="10.3195710">
	<ele>887.60</ele>
	<time>2025-07-30T06:00:20.000Z</time>
</trkpt>
<trkpt lat="46.0368530" lon="10.3195730">
	<ele>887.80</ele>
	<time>2025-07-30T06:00:21.000Z</time>
</trkpt>
<trkpt lat="46.0368580" lon="10.3195670">
	<ele>887.80</ele>
	<time>2025-07-30T06:00:22.000Z</time>
</trkpt>
<trkpt lat="46.0368610" lon="10.3195640">
	<ele>888.00</ele>
	<time>2025-07-30T06:00:23.000Z</time>
</trkpt>
<trkpt lat="46.0368670" lon="10.3195570">
	<ele>888.00</ele>
	<time>2025-07-30T06:00:24.000Z</time>
</trkpt>
<trkpt lat="46.0368760" lon="10.3195540">
	<ele>888.20</ele>
	<time>2025-07-30T06:00:25.000Z</time>
</trkpt>
<trkpt lat="46.0368860" lon="10.3195430">
	<ele>888.20</ele>
	<time>2025-07-30T06:00:26.000Z</time>
</trkpt>
<trkpt lat="46.0368970" lon="10.3195270">
	<ele>888.20</ele>
	<time>2025-07-30T06:00:27.000Z</time>
</trkpt>
<trkpt lat="46.0369050" lon="10.3195150">
	<ele>888.20</ele>
	<time>2025-07-30T06:00:28.000Z</time>
</trkpt>
<trkpt lat="46.0369240" lon="10.3194990">
	<ele>888.40</ele>
	<time>2025-07-30T06:00:29.000Z</time>
</trkpt>
<trkpt lat="46.0369380" lon="10.3194860">
	<ele>888.40</ele>
	<time>2025-07-30T06:00:30.000Z</time>
</trkpt>
<trkpt lat="46.0369420" lon="10.3194780">
	<ele>888.60</ele>
	<time>2025-07-30T06:00:31.000Z</time>
</trkpt>
<trkpt lat="46.0369420" lon="10.3194780">
	<ele>888.80</ele>
	<time>2025-07-30T06:00:32.000Z</time>
</trkpt>
<trkpt lat="46.0369510" lon="10.3194720">
	<ele>888.80</ele>
	<time>2025-07-30T06:00:33.000Z</time>
</trkpt>
<trkpt lat="46.0369520" lon="10.3194720">
	<ele>889.00</ele>
	<time>2025-07-30T06:00:34.000Z</time>
</trkpt>
<trkpt lat="46.0369500" lon="10.3194720">
	<ele>889.00</ele>
	<time>2025-07-30T06:00:35.000Z</time>
</trkpt>
<trkpt lat="46.0369560" lon="10.3194700">
	<ele>889.40</ele>
	<time>2025-07-30T06:00:36.000Z</time>
</trkpt>
<trkpt lat="46.0369570" lon="10.3194680">
	<ele>889.40</ele>
	<time>2025-07-30T06:00:37.000Z</time>
</trkpt>
<trkpt lat="46.0369670" lon="10.3194620">
	<ele>889.60</ele>
	<time>2025-07-30T06:00:38.000Z</time>
</trkpt>
<trkpt lat="46.0369710" lon="10.3194620">
	<ele>889.60</ele>
	<time>2025-07-30T06:00:39.000Z</time>
</trkpt>
<trkpt lat="46.0369840" lon="10.3194600">
	<ele>889.80</ele>
	<time>2025-07-30T06:00:40.000Z</time>
</trkpt>
<trkpt lat="46.0369970" lon="10.3194540">
	<ele>889.80</ele>
	<time>2025-07-30T06:00:41.000Z</time>
</trkpt>
<trkpt lat="46.0369970" lon="10.3194500">
	<ele>890.00</ele>
	<time>2025-07-30T06:00:42.000Z</time>
</trkpt>
<trkpt lat="46.0370010" lon="10.3194480">
	<ele>890.20</ele>
	<time>2025-07-30T06:00:43.000Z</time>
</trkpt>
<trkpt lat="46.0370020" lon="10.3194460">
	<ele>890.20</ele>
	<time>2025-07-30T06:00:44.000Z</time>
</trkpt>
<trkpt lat="46.0370140" lon="10.3194390">
	<ele>890.40</ele>
	<time>2025-07-30T06:00:45.000Z</time>
</trkpt>
<trkpt lat="46.0370290" lon="10.3194400">
	<ele>890.60</ele>
	<time>2025-07-30T06:00:46.000Z</time>
</trkpt>
<trkpt lat="46.0370320" lon="10.3194440">
	<ele>890.80</ele>
	<time>2025-07-30T06:00:47.000Z</time>
</trkpt>
<trkpt lat="46.0370320" lon="10.3194480">
	<ele>890.80</ele>
	<time>2025-07-30T06:00:48.000Z</time>
</trkpt>
<trkpt lat="46.0370500" lon="10.3194360">
	<ele>891.00</ele>
	<time>2025-07-30T06:00:49.000Z</time>
</trkpt>
<trkpt lat="46.0370730" lon="10.3194270">
	<ele>891.00</ele>
	<time>2025-07-30T06:00:50.000Z</time>
</trkpt>
<trkpt lat="46.0370910" lon="10.3194210">
	<ele>891.40</ele>
	<time>2025-07-30T06:00:51.000Z</time>
</trkpt>
<trkpt lat="46.0371090" lon="10.3194120">
	<ele>891.60</ele>
	<time>2025-07-30T06:00:52.000Z</time>
</trkpt>
<trkpt lat="46.0371260" lon="10.3194020">
	<ele>891.80</ele>
	<time>2025-07-30T06:00:53.000Z</time>
</trkpt>
<trkpt lat="46.0371420" lon="10.3193910">
	<ele>892.00</ele>
	<time>2025-07-30T06:00:54.000Z</time>
</trkpt>
<trkpt lat="46.0371410" lon="10.3193890">
	<ele>892.00</ele>
	<time>2025-07-30T06:00:55.000Z</time>
</trkpt>
<trkpt lat="46.0371490" lon="10.3193910">
	<ele>892.20</ele>
	<time>2025-07-30T06:00:56.000Z</time>
</trkpt>
<trkpt lat="46.0371600" lon="10.3193860">
	<ele>892.20</ele>
	<time>2025-07-30T06:00:57.000Z</time>
</trkpt>
<trkpt lat="46.0371740" lon="10.3193800">
	<ele>892.60</ele>
	<time>2025-07-30T06:00:58.000Z</time>
</trkpt>
<trkpt lat="46.0371890" lon="10.3193770">
	<ele>893.00</ele>
	<time>2025-07-30T06:00:59.000Z</time>
</trkpt>
<trkpt lat="46.0371930" lon="10.3193810">
	<ele>893.00</ele>
	<time>2025-07-30T06:01:00.000Z</time>
</trkpt>
<trkpt lat="46.0371950" lon="10.3193830">
	<ele>893.20</ele>
	<time>2025-07-30T06:01:01.000Z</time>
</trkpt>
<trkpt lat="46.0371960" lon="10.3193850">
	<ele>893.20</ele>
	<time>2025-07-30T06:01:02.000Z</time>
</trkpt>
<trkpt lat="46.0371980" lon="10.3193860">
	<ele>893.40</ele>
	<time>2025-07-30T06:01:03.000Z</time>
</trkpt>
<trkpt lat="46.0371970" lon="10.3193850">
	<ele>893.40</ele>
	<time>2025-07-30T06:01:04.000Z</time>
</trkpt>
<trkpt lat="46.0371980" lon="10.3193870">
	<ele>893.40</ele>
	<time>2025-07-30T06:01:05.000Z</time>
</trkpt>
<trkpt lat="46.0372100" lon="10.3193850">
	<ele>893.20</ele>
	<time>2025-07-30T06:01:06.000Z</time>
</trkpt>
<trkpt lat="46.0372220" lon="10.3193900">
	<ele>893.20</ele>
	<time>2025-07-30T06:01:07.000Z</time>
</trkpt>
<trkpt lat="46.0372340" lon="10.3193900">
	<ele>893.20</ele>
	<time>2025-07-30T06:01:08.000Z</time>
</trkpt>
<trkpt lat="46.0372480" lon="10.3193990">
	<ele>893.20</ele>
	<time>2025-07-30T06:01:09.000Z</time>
</trkpt>
<trkpt lat="46.0372490" lon="10.3194030">
	<ele>893.40</ele>
	<time>2025-07-30T06:01:10.000Z</time>
</trkpt>
<trkpt lat="46.0372490" lon="10.3194060">
	<ele>893.60</ele>
	<time>2025-07-30T06:01:11.000Z</time>
</trkpt>
<trkpt lat="46.0372670" lon="10.3194090">
	<ele>893.80</ele>
	<time>2025-07-30T06:01:12.000Z</time>
</trkpt>
<trkpt lat="46.0372840" lon="10.3194110">
	<ele>893.80</ele>
	<time>2025-07-30T06:01:13.000Z</time>
</trkpt>
<trkpt lat="46.0372930" lon="10.3194260">
	<ele>894.00</ele>
	<time>2025-07-30T06:01:14.000Z</time>
</trkpt>
<trkpt lat="46.0373020" lon="10.3194350">
	<ele>894.20</ele>
	<time>2025-07-30T06:01:15.000Z</time>
</trkpt>
<trkpt lat="46.0373160" lon="10.3194470">
	<ele>894.20</ele>
	<time>2025-07-30T06:01:16.000Z</time>
</trkpt>
<trkpt lat="46.0373390" lon="10.3194610">
	<ele>894.40</ele>
	<time>2025-07-30T06:01:17.000Z</time>
</trkpt>
<trkpt lat="46.0373570" lon="10.3194650">
	<ele>894.60</ele>
	<time>2025-07-30T06:01:18.000Z</time>
</trkpt>
<trkpt lat="46.0373730" lon="10.3194700">
	<ele>894.80</ele>
	<time>2025-07-30T06:01:19.000Z</time>
</trkpt>
<trkpt lat="46.0373910" lon="10.3194770">
	<ele>894.80</ele>
	<time>2025-07-30T06:01:20.000Z</time>
</trkpt>
<trkpt lat="46.0374030" lon="10.3194840">
	<ele>895.00</ele>
	<time>2025-07-30T06:01:21.000Z</time>
</trkpt>
<trkpt lat="46.0374110" lon="10.3194830">
	<ele>895.00</ele>
	<time>2025-07-30T06:01:22.000Z</time>
</trkpt>
<trkpt lat="46.0374210" lon="10.3194750">
	<ele>895.20</ele>
	<time>2025-07-30T06:01:23.000Z</time>
</trkpt>
<trkpt lat="46.0374340" lon="10.3194670">
	<ele>895.20</ele>
	<time>2025-07-30T06:01:24.000Z</time>
</trkpt>
<trkpt lat="46.0374490" lon="10.3194670">
	<ele>895.40</ele>
	<time>2025-07-30T06:01:25.000Z</time>
</trkpt>
<trkpt lat="46.0374600" lon="10.3194720">
	<ele>895.40</ele>
	<time>2025-07-30T06:01:26.000Z</time>
</trkpt>
<trkpt lat="46.0374710" lon="10.3194800">
	<ele>895.40</ele>
	<time>2025-07-30T06:01:27.000Z</time>
</trkpt>
<trkpt lat="46.0374840" lon="10.3194860">
	<ele>895.20</ele>
	<time>2025-07-30T06:01:28.000Z</time>
</trkpt>
<trkpt lat="46.0375010" lon="10.3194770">
	<ele>895.20</ele>
	<time>2025-07-30T06:01:29.000Z</time>
</trkpt>
<trkpt lat="46.0375150" lon="10.3194730">
	<ele>895.20</ele>
	<time>2025-07-30T06:01:30.000Z</time>
</trkpt>
<trkpt lat="46.0375320" lon="10.3194750">
	<ele>895.00</ele>
	<time>2025-07-30T06:01:31.000Z</time>
</trkpt>
<trkpt lat="46.0375440" lon="10.3194880">
	<ele>894.80</ele>
	<time>2025-07-30T06:01:32.000Z</time>
</trkpt>
<trkpt lat="46.0375490" lon="10.3195150">
	<ele>894.60</ele>
	<time>2025-07-30T06:01:33.000Z</time>
</trkpt>
<trkpt lat="46.0375570" lon="10.3195340">
	<ele>894.40</ele>
	<time>2025-07-30T06:01:34.000Z</time>
</trkpt>
<trkpt lat="46.0375730" lon="10.3195490">
	<ele>894.40</ele>
	<time>2025-07-30T06:01:35.000Z</time>
</trkpt>
<trkpt lat="46.0375870" lon="10.3195480">
	<ele>894.20</ele>
	<time>2025-07-30T06:01:36.000Z</time>
</trkpt>
<trkpt lat="46.0376020" lon="10.3195470">
	<ele>894.20</ele>
	<time>2025-07-30T06:01:37.000Z</time>
</trkpt>
<trkpt lat="46.0376330" lon="10.3195330">
	<ele>894.00</ele>
	<time>2025-07-30T06:01:38.000Z</time>
</trkpt>
<trkpt lat="46.0376450" lon="10.3195390">
	<ele>894.00</ele>
	<time>2025-07-30T06:01:39.000Z</time>
</trkpt>
<trkpt lat="46.0376580" lon="10.3195390">
	<ele>893.80</ele>
	<time>2025-07-30T06:01:40.000Z</time>
</trkpt>
<trkpt lat="46.0376760" lon="10.3195430">
	<ele>893.80</ele>
	<time>2025-07-30T06:01:41.000Z</time>
</trkpt>
<trkpt lat="46.0376910" lon="10.3195490">
	<ele>893.60</ele>
	<time>2025-07-30T06:01:42.000Z</time>
</trkpt>
<trkpt lat="46.0377100" lon="10.3195510">
	<ele>893.40</ele>
	<time>2025-07-30T06:01:43.000Z</time>
</trkpt>
<trkpt lat="46.0377140" lon="10.3195660">
	<ele>893.40</ele>
	<time>2025-07-30T06:01:44.000Z</time>
</trkpt>
<trkpt lat="46.0377210" lon="10.3195790">
	<ele>893.40</ele>
	<time>2025-07-30T06:01:45.000Z</time>
</trkpt>
<trkpt lat="46.0377330" lon="10.3195930">
	<ele>893.20</ele>
	<time>2025-07-30T06:01:46.000Z</time>
</trkpt>
<trkpt lat="46.0377470" lon="10.3196040">
	<ele>893.00</ele>
	<time>2025-07-30T06:01:47.000Z</time>
</trkpt>
<trkpt lat="46.0377600" lon="10.3196200">
	<ele>893.00</ele>
	<time>2025-07-30T06:01:48.000Z</time>
</trkpt>
<trkpt lat="46.0377740" lon="10.3196350">
	<ele>892.80</ele>
	<time>2025-07-30T06:01:49.000Z</time>
</trkpt>
<trkpt lat="46.0377820" lon="10.3196450">
	<ele>892.60</ele>
	<time>2025-07-30T06:01:50.000Z</time>
</trkpt>
<trkpt lat="46.0377970" lon="10.3196420">
	<ele>892.60</ele>
	<time>2025-07-30T06:01:51.000Z</time>
</trkpt>
<trkpt lat="46.0378080" lon="10.3196440">
	<ele>892.60</ele>
	<time>2025-07-30T06:01:52.000Z</time>
</trkpt>
<trkpt lat="46.0378240" lon="10.3196590">
	<ele>892.60</ele>
	<time>2025-07-30T06:01:53.000Z</time>
</trkpt>
<trkpt lat="46.0378360" lon="10.3196720">
	<ele>892.60</ele>
	<time>2025-07-30T06:01:54.000Z</time>
</trkpt>
<trkpt lat="46.0378380" lon="10.3196840">
	<ele>892.60</ele>
	<time>2025-07-30T06:01:55.000Z</time>
</trkpt>
<trkpt lat="46.0378480" lon="10.3196890">
	<ele>892.60</ele>
	<time>2025-07-30T06:01:56.000Z</time>
</trkpt>
<trkpt lat="46.0378590" lon="10.3196960">
	<ele>892.60</ele>
	<time>2025-07-30T06:01:57.000Z</time>
</trkpt>
<trkpt lat="46.0378650" lon="10.3196990">
	<ele>892.60</ele>
	<time>2025-07-30T06:01:58.000Z</time>
</trkpt>
<trkpt lat="46.0378670" lon="10.3197220">
	<ele>892.60</ele>
	<time>2025-07-30T06:01:59.000Z</time>
</trkpt>
<trkpt lat="46.0378680" lon="10.3197360">
	<ele>892.40</ele>
	<time>2025-07-30T06:02:00.000Z</time>
</trkpt>
<trkpt lat="46.0378760" lon="10.3197430">
	<ele>892.40</ele>
	<time>2025-07-30T06:02:01.000Z</time>
</trkpt>
<trkpt lat="46.0378970" lon="10.3197330">
	<ele>892.00</ele>
	<time>2025-07-30T06:02:02.000Z</time>
</trkpt>
<trkpt lat="46.0379100" lon="10.3197270">
	<ele>891.80</ele>
	<time>2025-07-30T06:02:03.000Z</time>
</trkpt>
<trkpt lat="46.0379230" lon="10.3197300">
	<ele>891.80</ele>
	<time>2025-07-30T06:02:04.000Z</time>
</trkpt>
<trkpt lat="46.0379320" lon="10.3197390">
	<ele>891.60</ele>
	<time>2025-07-30T06:02:05.000Z</time>
</trkpt>
<trkpt lat="46.0379500" lon="10.3197420">
	<ele>891.40</ele>
	<time>2025-07-30T06:02:06.000Z</time>
</trkpt>
<trkpt lat="46.0379700" lon="10.3197420">
	<ele>891.40</ele>
	<time>2025-07-30T06:02:07.000Z</time>
</trkpt>
<trkpt lat="46.0379840" lon="10.3197450">
	<ele>891.20</ele>
	<time>2025-07-30T06:02:08.000Z</time>
</trkpt>
<trkpt lat="46.0379960" lon="10.3197580">
	<ele>891.00</ele>
	<time>2025-07-30T06:02:09.000Z</time>
</trkpt>
<trkpt lat="46.0380050" lon="10.3197820">
	<ele>890.80</ele>
	<time>2025-07-30T06:02:10.000Z</time>
</trkpt>
<trkpt lat="46.0380160" lon="10.3197920">
	<ele>890.80</ele>
	<time>2025-07-30T06:02:11.000Z</time>
</trkpt>
<trkpt lat="46.0380320" lon="10.3197950">
	<ele>890.80</ele>
	<time>2025-07-30T06:02:12.000Z</time>
</trkpt>
<trkpt lat="46.0380490" lon="10.3198030">
	<ele>890.80</ele>
	<time>2025-07-30T06:02:13.000Z</time>
</trkpt>
<trkpt lat="46.0380580" lon="10.3198140">
	<ele>890.80</ele>
	<time>2025-07-30T06:02:14.000Z</time>
</trkpt>
<trkpt lat="46.0380730" lon="10.3198110">
	<ele>890.80</ele>
	<time>2025-07-30T06:02:15.000Z</time>
</trkpt>
<trkpt lat="46.0380840" lon="10.3198110">
	<ele>890.80</ele>
	<time>2025-07-30T06:02:16.000Z</time>
</trkpt>
<trkpt lat="46.0380940" lon="10.3198160">
	<ele>890.80</ele>
	<time>2025-07-30T06:02:17.000Z</time>
</trkpt>
<trkpt lat="46.0381050" lon="10.3198200">
	<ele>890.80</ele>
	<time>2025-07-30T06:02:18.000Z</time>
</trkpt>
<trkpt lat="46.0381180" lon="10.3198320">
	<ele>890.80</ele>
	<time>2025-07-30T06:02:19.000Z</time>
</trkpt>
<trkpt lat="46.0381300" lon="10.3198360">
	<ele>890.80</ele>
	<time>2025-07-30T06:02:20.000Z</time>
</trkpt>
<trkpt lat="46.0381390" lon="10.3198460">
	<ele>890.80</ele>
	<time>2025-07-30T06:02:21.000Z</time>
</trkpt>
<trkpt lat="46.0381500" lon="10.3198530">
	<ele>890.80</ele>
	<time>2025-07-30T06:02:22.000Z</time>
</trkpt>
<trkpt lat="46.0381610" lon="10.3198540">
	<ele>890.80</ele>
	<time>2025-07-30T06:02:23.000Z</time>
</trkpt>
<trkpt lat="46.0381770" lon="10.3198460">
	<ele>890.60</ele>
	<time>2025-07-30T06:02:24.000Z</time>
</trkpt>
<trkpt lat="46.0381910" lon="10.3198510">
	<ele>890.60</ele>
	<time>2025-07-30T06:02:25.000Z</time>
</trkpt>
<trkpt lat="46.0382080" lon="10.3198550">
	<ele>890.40</ele>
	<time>2025-07-30T06:02:26.000Z</time>
</trkpt>
<trkpt lat="46.0382220" lon="10.3198740">
	<ele>890.20</ele>
	<time>2025-07-30T06:02:27.000Z</time>
</trkpt>
<trkpt lat="46.0382320" lon="10.3198950">
	<ele>890.20</ele>
	<time>2025-07-30T06:02:28.000Z</time>
</trkpt>
<trkpt lat="46.0382440" lon="10.3199060">
	<ele>890.00</ele>
	<time>2025-07-30T06:02:29.000Z</time>
</trkpt>
<trkpt lat="46.0382590" lon="10.3199040">
	<ele>889.60</ele>
	<time>2025-07-30T06:02:30.000Z</time>
</trkpt>
<trkpt lat="46.0382780" lon="10.3198980">
	<ele>889.40</ele>
	<time>2025-07-30T06:02:31.000Z</time>
</trkpt>
<trkpt lat="46.0382980" lon="10.3198860">
	<ele>889.20</ele>
	<time>2025-07-30T06:02:32.000Z</time>
</trkpt>
<trkpt lat="46.0383170" lon="10.3198680">
	<ele>889.00</ele>
	<time>2025-07-30T06:02:33.000Z</time>
</trkpt>
<trkpt lat="46.0383310" lon="10.3198750">
	<ele>888.80</ele>
	<time>2025-07-30T06:02:34.000Z</time>
</trkpt>
<trkpt lat="46.0383410" lon="10.3198860">
	<ele>888.60</ele>
	<time>2025-07-30T06:02:35.000Z</time>
</trkpt>
<trkpt lat="46.0383510" lon="10.3198990">
	<ele>888.40</ele>
	<time>2025-07-30T06:02:36.000Z</time>
</trkpt>
<trkpt lat="46.0383690" lon="10.3199180">
	<ele>888.20</ele>
	<time>2025-07-30T06:02:37.000Z</time>
</trkpt>
<trkpt lat="46.0383780" lon="10.3199430">
	<ele>888.20</ele>
	<time>2025-07-30T06:02:38.000Z</time>
</trkpt>
<trkpt lat="46.0383860" lon="10.3199590">
	<ele>888.00</ele>
	<time>2025-07-30T06:02:39.000Z</time>
</trkpt>
<trkpt lat="46.0383970" lon="10.3199640">
	<ele>888.00</ele>
	<time>2025-07-30T06:02:40.000Z</time>
</trkpt>
<trkpt lat="46.0384080" lon="10.3199740">
	<ele>888.00</ele>
	<time>2025-07-30T06:02:41.000Z</time>
</trkpt>
<trkpt lat="46.0384180" lon="10.3199920">
	<ele>888.00</ele>
	<time>2025-07-30T06:02:42.000Z</time>
</trkpt>
<trkpt lat="46.0384330" lon="10.3200030">
	<ele>888.00</ele>
	<time>2025-07-30T06:02:43.000Z</time>
</trkpt>
<trkpt lat="46.0384470" lon="10.3200150">
	<ele>888.00</ele>
	<time>2025-07-30T06:02:44.000Z</time>
</trkpt>
<trkpt lat="46.0384570" lon="10.3200260">
	<ele>888.00</ele>
	<time>2025-07-30T06:02:45.000Z</time>
</trkpt>
<trkpt lat="46.0384670" lon="10.3200360">
	<ele>888.00</ele>
	<time>2025-07-30T06:02:46.000Z</time>
</trkpt>
<trkpt lat="46.0384840" lon="10.3200450">
	<ele>888.00</ele>
	<time>2025-07-30T06:02:47.000Z</time>
</trkpt>
<trkpt lat="46.0385010" lon="10.3200540">
	<ele>888.00</ele>
	<time>2025-07-30T06:02:48.000Z</time>
</trkpt>
<trkpt lat="46.0385180" lon="10.3200610">
	<ele>888.20</ele>
	<time>2025-07-30T06:02:49.000Z</time>
</trkpt>
<trkpt lat="46.0385380" lon="10.3200680">
	<ele>888.20</ele>
	<time>2025-07-30T06:02:50.000Z</time>
</trkpt>
<trkpt lat="46.0385570" lon="10.3200830">
	<ele>888.20</ele>
	<time>2025-07-30T06:02:51.000Z</time>
</trkpt>
<trkpt lat="46.0385680" lon="10.3201030">
	<ele>888.20</ele>
	<time>2025-07-30T06:02:52.000Z</time>
</trkpt>
<trkpt lat="46.0385750" lon="10.3201050">
	<ele>888.20</ele>
	<time>2025-07-30T06:02:53.000Z</time>
</trkpt>
<trkpt lat="46.0385900" lon="10.3201020">
	<ele>888.20</ele>
	<time>2025-07-30T06:02:54.000Z</time>
</trkpt>
<trkpt lat="46.0385980" lon="10.3201180">
	<ele>888.20</ele>
	<time>2025-07-30T06:02:55.000Z</time>
</trkpt>
<trkpt lat="46.0386060" lon="10.3201430">
	<ele>888.20</ele>
	<time>2025-07-30T06:02:56.000Z</time>
</trkpt>
<trkpt lat="46.0386160" lon="10.3201680">
	<ele>888.20</ele>
	<time>2025-07-30T06:02:57.000Z</time>
</trkpt>
<trkpt lat="46.0386230" lon="10.3201930">
	<ele>888.00</ele>
	<time>2025-07-30T06:02:58.000Z</time>
</trkpt>
<trkpt lat="46.0386340" lon="10.3202120">
	<ele>888.00</ele>
	<time>2025-07-30T06:02:59.000Z</time>
</trkpt>
<trkpt lat="46.0386460" lon="10.3202270">
	<ele>888.00</ele>
	<time>2025-07-30T06:03:00.000Z</time>
</trkpt>
<trkpt lat="46.0386570" lon="10.3202480">
	<ele>888.00</ele>
	<time>2025-07-30T06:03:01.000Z</time>
</trkpt>
<trkpt lat="46.0386700" lon="10.3202550">
	<ele>887.80</ele>
	<time>2025-07-30T06:03:02.000Z</time>
</trkpt>
<trkpt lat="46.0386810" lon="10.3202550">
	<ele>887.60</ele>
	<time>2025-07-30T06:03:03.000Z</time>
</trkpt>
<trkpt lat="46.0386930" lon="10.3202700">
	<ele>887.60</ele>
	<time>2025-07-30T06:03:04.000Z</time>
</trkpt>
<trkpt lat="46.0387090" lon="10.3202710">
	<ele>887.40</ele>
	<time>2025-07-30T06:03:05.000Z</time>
</trkpt>
<trkpt lat="46.0387150" lon="10.3202950">
	<ele>887.40</ele>
	<time>2025-07-30T06:03:06.000Z</time>
</trkpt>
<trkpt lat="46.0387220" lon="10.3203150">
	<ele>887.20</ele>
	<time>2025-07-30T06:03:07.000Z</time>
</trkpt>
<trkpt lat="46.0387240" lon="10.3203470">
	<ele>887.00</ele>
	<time>2025-07-30T06:03:08.000Z</time>
</trkpt>
<trkpt lat="46.0387270" lon="10.3203500">
	<ele>886.60</ele>
	<time>2025-07-30T06:03:09.000Z</time>
</trkpt>
<trkpt lat="46.0387370" lon="10.3203500">
	<ele>886.40</ele>
	<time>2025-07-30T06:03:10.000Z</time>
</trkpt>
<trkpt lat="46.0387420" lon="10.3203590">
	<ele>886.20</ele>
	<time>2025-07-30T06:03:11.000Z</time>
</trkpt>
<trkpt lat="46.0387520" lon="10.3203680">
	<ele>886.00</ele>
	<time>2025-07-30T06:03:12.000Z</time>
</trkpt>
<trkpt lat="46.0387570" lon="10.3203840">
	<ele>885.80</ele>
	<time>2025-07-30T06:03:13.000Z</time>
</trkpt>
<trkpt lat="46.0387660" lon="10.3204010">
	<ele>885.60</ele>
	<time>2025-07-30T06:03:14.000Z</time>
</trkpt>
<trkpt lat="46.0387720" lon="10.3204130">
	<ele>885.40</ele>
	<time>2025-07-30T06:03:15.000Z</time>
</trkpt>
<trkpt lat="46.0387810" lon="10.3204370">
	<ele>885.20</ele>
	<time>2025-07-30T06:03:16.000Z</time>
</trkpt>
<trkpt lat="46.0387930" lon="10.3204550">
	<ele>885.20</ele>
	<time>2025-07-30T06:03:17.000Z</time>
</trkpt>
<trkpt lat="46.0388020" lon="10.3204700">
	<ele>885.00</ele>
	<time>2025-07-30T06:03:18.000Z</time>
</trkpt>
<trkpt lat="46.0388350" lon="10.3204300">
	<ele>884.80</ele>
	<time>2025-07-30T06:03:19.000Z</time>
</trkpt>
<trkpt lat="46.0388260" lon="10.3204400">
	<ele>884.60</ele>
	<time>2025-07-30T06:03:20.000Z</time>
</trkpt>
<trkpt lat="46.0388390" lon="10.3204360">
	<ele>884.60</ele>
	<time>2025-07-30T06:03:21.000Z</time>
</trkpt>
<trkpt lat="46.0388440" lon="10.3204330">
	<ele>884.60</ele>
	<time>2025-07-30T06:03:22.000Z</time>
</trkpt>
<trkpt lat="46.0388540" lon="10.3204530">
	<ele>884.40</ele>
	<time>2025-07-30T06:03:23.000Z</time>
</trkpt>
<trkpt lat="46.0388640" lon="10.3204710">
	<ele>884.40</ele>
	<time>2025-07-30T06:03:24.000Z</time>
</trkpt>
<trkpt lat="46.0388790" lon="10.3204880">
	<ele>884.20</ele>
	<time>2025-07-30T06:03:25.000Z</time>
</trkpt>
<trkpt lat="46.0389030" lon="10.3205210">
	<ele>884.20</ele>
	<time>2025-07-30T06:03:26.000Z</time>
</trkpt>
<trkpt lat="46.0389280" lon="10.3205360">
	<ele>884.20</ele>
	<time>2025-07-30T06:03:27.000Z</time>
</trkpt>
<trkpt lat="46.0389160" lon="10.3205720">
	<ele>884.00</ele>
	<time>2025-07-30T06:03:28.000Z</time>
</trkpt>
<trkpt lat="46.0389220" lon="10.3205900">
	<ele>884.00</ele>
	<time>2025-07-30T06:03:29.000Z</time>
</trkpt>
<trkpt lat="46.0389230" lon="10.3206040">
	<ele>883.80</ele>
	<time>2025-07-30T06:03:30.000Z</time>
</trkpt>
<trkpt lat="46.0389340" lon="10.3205970">
	<ele>883.80</ele>
	<time>2025-07-30T06:03:31.000Z</time>
</trkpt>
<trkpt lat="46.0389400" lon="10.3205920">
	<ele>883.60</ele>
	<time>2025-07-30T06:03:32.000Z</time>
</trkpt>
<trkpt lat="46.0389460" lon="10.3205910">
	<ele>883.60</ele>
	<time>2025-07-30T06:03:33.000Z</time>
</trkpt>
<trkpt lat="46.0389590" lon="10.3205890">
	<ele>883.40</ele>
	<time>2025-07-30T06:03:34.000Z</time>
</trkpt>
<trkpt lat="46.0389660" lon="10.3205870">
	<ele>883.40</ele>
	<time>2025-07-30T06:03:35.000Z</time>
</trkpt>
<trkpt lat="46.0389710" lon="10.3205840">
	<ele>883.00</ele>
	<time>2025-07-30T06:03:36.000Z</time>
</trkpt>
<trkpt lat="46.0389800" lon="10.3205800">
	<ele>882.80</ele>
	<time>2025-07-30T06:03:37.000Z</time>
</trkpt>
<trkpt lat="46.0389890" lon="10.3205850">
	<ele>882.60</ele>
	<time>2025-07-30T06:03:38.000Z</time>
</trkpt>
<trkpt lat="46.0390010" lon="10.3205880">
	<ele>882.40</ele>
	<time>2025-07-30T06:03:39.000Z</time>
</trkpt>
<trkpt lat="46.0390180" lon="10.3205840">
	<ele>882.00</ele>
	<time>2025-07-30T06:03:40.000Z</time>
</trkpt>
<trkpt lat="46.0390360" lon="10.3205790">
	<ele>881.80</ele>
	<time>2025-07-30T06:03:41.000Z</time>
</trkpt>
<trkpt lat="46.0390600" lon="10.3205620">
	<ele>881.60</ele>
	<time>2025-07-30T06:03:42.000Z</time>
</trkpt>
<trkpt lat="46.0390750" lon="10.3205520">
	<ele>881.20</ele>
	<time>2025-07-30T06:03:43.000Z</time>
</trkpt>
<trkpt lat="46.0390950" lon="10.3205390">
	<ele>881.00</ele>
	<time>2025-07-30T06:03:44.000Z</time>
</trkpt>
<trkpt lat="46.0391060" lon="10.3205210">
	<ele>880.80</ele>
	<time>2025-07-30T06:03:45.000Z</time>
</trkpt>
<trkpt lat="46.0391150" lon="10.3205050">
	<ele>880.60</ele>
	<time>2025-07-30T06:03:46.000Z</time>
</trkpt>
<trkpt lat="46.0391100" lon="10.3205120">
	<ele>880.20</ele>
	<time>2025-07-30T06:03:47.000Z</time>
</trkpt>
<trkpt lat="46.0391090" lon="10.3205060">
	<ele>880.00</ele>
	<time>2025-07-30T06:03:48.000Z</time>
</trkpt>
<trkpt lat="46.0391080" lon="10.3205020">
	<ele>880.00</ele>
	<time>2025-07-30T06:03:49.000Z</time>
</trkpt>
<trkpt lat="46.0391210" lon="10.3204920">
	<ele>879.80</ele>
	<time>2025-07-30T06:03:50.000Z</time>
</trkpt>
<trkpt lat="46.0391260" lon="10.3204910">
	<ele>879.60</ele>
	<time>2025-07-30T06:03:51.000Z</time>
</trkpt>
<trkpt lat="46.0391420" lon="10.3204880">
	<ele>879.40</ele>
	<time>2025-07-30T06:03:52.000Z</time>
</trkpt>
<trkpt lat="46.0391460" lon="10.3204790">
	<ele>879.20</ele>
	<time>2025-07-30T06:03:53.000Z</time>
</trkpt>
<trkpt lat="46.0391440" lon="10.3204770">
	<ele>879.00</ele>
	<time>2025-07-30T06:03:54.000Z</time>
</trkpt>
<trkpt lat="46.0391370" lon="10.3204760">
	<ele>878.80</ele>
	<time>2025-07-30T06:03:55.000Z</time>
</trkpt>
<trkpt lat="46.0391380" lon="10.3204720">
	<ele>878.60</ele>
	<time>2025-07-30T06:03:56.000Z</time>
</trkpt>
<trkpt lat="46.0391390" lon="10.3204600">
	<ele>878.60</ele>
	<time>2025-07-30T06:03:57.000Z</time>
</trkpt>
<trkpt lat="46.0391390" lon="10.3204540">
	<ele>878.40</ele>
	<time>2025-07-30T06:03:58.000Z</time>
</trkpt>
<trkpt lat="46.0391430" lon="10.3204560">
	<ele>878.20</ele>
	<time>2025-07-30T06:03:59.000Z</time>
</trkpt>
<trkpt lat="46.0391450" lon="10.3204680">
	<ele>877.80</ele>
	<time>2025-07-30T06:04:00.000Z</time>
</trkpt>
<trkpt lat="46.0391460" lon="10.3204730">
	<ele>877.80</ele>
	<time>2025-07-30T06:04:01.000Z</time>
</trkpt>
<trkpt lat="46.0391470" lon="10.3204630">
	<ele>877.60</ele>
	<time>2025-07-30T06:04:02.000Z</time>
</trkpt>
<trkpt lat="46.0391460" lon="10.3204500">
	<ele>877.60</ele>
	<time>2025-07-30T06:04:03.000Z</time>
</trkpt>
<trkpt lat="46.0391480" lon="10.3204420">
	<ele>877.60</ele>
	<time>2025-07-30T06:04:04.000Z</time>
</trkpt>
<trkpt lat="46.0391430" lon="10.3204400">
	<ele>877.80</ele>
	<time>2025-07-30T06:04:05.000Z</time>
</trkpt>
<trkpt lat="46.0391380" lon="10.3204360">
	<ele>877.80</ele>
	<time>2025-07-30T06:04:06.000Z</time>
</trkpt>
<trkpt lat="46.0391330" lon="10.3204330">
	<ele>877.80</ele>
	<time>2025-07-30T06:04:07.000Z</time>
</trkpt>
<trkpt lat="46.0391290" lon="10.3204340">
	<ele>877.80</ele>
	<time>2025-07-30T06:04:08.000Z</time>
</trkpt>
<trkpt lat="46.0391240" lon="10.3204370">
	<ele>878.00</ele>
	<time>2025-07-30T06:04:09.000Z</time>
</trkpt>
<trkpt lat="46.0391200" lon="10.3204440">
	<ele>878.20</ele>
	<time>2025-07-30T06:04:10.000Z</time>
</trkpt>
<trkpt lat="46.0391170" lon="10.3204510">
	<ele>878.40</ele>
	<time>2025-07-30T06:04:11.000Z</time>
</trkpt>
<trkpt lat="46.0391140" lon="10.3204570">
	<ele>878.40</ele>
	<time>2025-07-30T06:04:12.000Z</time>
</trkpt>
<trkpt lat="46.0391080" lon="10.3204550">
	<ele>878.80</ele>
	<time>2025-07-30T06:04:13.000Z</time>
</trkpt>
<trkpt lat="46.0391000" lon="10.3204550">
	<ele>878.80</ele>
	<time>2025-07-30T06:04:14.000Z</time>
</trkpt>
<trkpt lat="46.0390920" lon="10.3204520">
	<ele>879.00</ele>
	<time>2025-07-30T06:04:15.000Z</time>
</trkpt>
<trkpt lat="46.0390870" lon="10.3204510">
	<ele>879.20</ele>
	<time>2025-07-30T06:04:16.000Z</time>
</trkpt>
<trkpt lat="46.0390840" lon="10.3204420">
	<ele>879.40</ele>
	<time>2025-07-30T06:04:17.000Z</time>
</trkpt>
<trkpt lat="46.0390790" lon="10.3204390">
	<ele>879.40</ele>
	<time>2025-07-30T06:04:18.000Z</time>
</trkpt>
<trkpt lat="46.0390720" lon="10.3204440">
	<ele>879.60</ele>
	<time>2025-07-30T06:04:19.000Z</time>
</trkpt>
<trkpt lat="46.0390670" lon="10.3204430">
	<ele>879.60</ele>
	<time>2025-07-30T06:04:20.000Z</time>
</trkpt>
<trkpt lat="46.0390570" lon="10.3204440">
	<ele>879.80</ele>
	<time>2025-07-30T06:04:21.000Z</time>
</trkpt>
<trkpt lat="46.0390520" lon="10.3204490">
	<ele>879.80</ele>
	<time>2025-07-30T06:04:22.000Z</time>
</trkpt>
<trkpt lat="46.0390420" lon="10.3204400">
	<ele>879.80</ele>
	<time>2025-07-30T06:04:23.000Z</time>
</trkpt>
<trkpt lat="46.0390300" lon="10.3204300">
	<ele>879.80</ele>
	<time>2025-07-30T06:04:24.000Z</time>
</trkpt>
<trkpt lat="46.0390270" lon="10.3204270">
	<ele>880.00</ele>
	<time>2025-07-30T06:04:25.000Z</time>
</trkpt>
<trkpt lat="46.0390180" lon="10.3204310">
	<ele>880.00</ele>
	<time>2025-07-30T06:04:26.000Z</time>
</trkpt>
<trkpt lat="46.0390080" lon="10.3204340">
	<ele>880.00</ele>
	<time>2025-07-30T06:04:27.000Z</time>
</trkpt>
<trkpt lat="46.0389970" lon="10.3204170">
	<ele>880.00</ele>
	<time>2025-07-30T06:04:28.000Z</time>
</trkpt>
<trkpt lat="46.0389870" lon="10.3204030">
	<ele>880.00</ele>
	<time>2025-07-30T06:04:29.000Z</time>
</trkpt>
<trkpt lat="46.0389730" lon="10.3203950">
	<ele>880.20</ele>
	<time>2025-07-30T06:04:30.000Z</time>
</trkpt>
<trkpt lat="46.0389610" lon="10.3203860">
	<ele>880.20</ele>
	<time>2025-07-30T06:04:31.000Z</time>
</trkpt>
<trkpt lat="46.0389490" lon="10.3203870">
	<ele>880.40</ele>
	<time>2025-07-30T06:04:32.000Z</time>
</trkpt>
<trkpt lat="46.0389420" lon="10.3203870">
	<ele>880.40</ele>
	<time>2025-07-30T06:04:33.000Z</time>
</trkpt>
<trkpt lat="46.0389330" lon="10.3203840">
	<ele>880.60</ele>
	<time>2025-07-30T06:04:34.000Z</time>
</trkpt>
<trkpt lat="46.0389190" lon="10.3203780">
	<ele>880.60</ele>
	<time>2025-07-30T06:04:35.000Z</time>
</trkpt>
<trkpt lat="46.0389090" lon="10.3203760">
	<ele>880.60</ele>
	<time>2025-07-30T06:04:36.000Z</time>
</trkpt>
<trkpt lat="46.0389000" lon="10.3203860">
	<ele>880.80</ele>
	<time>2025-07-30T06:04:37.000Z</time>
</trkpt>
<trkpt lat="46.0388910" lon="10.3203870">
	<ele>881.00</ele>
	<time>2025-07-30T06:04:38.000Z</time>
</trkpt>
<trkpt lat="46.0388840" lon="10.3203890">
	<ele>881.00</ele>
	<time>2025-07-30T06:04:39.000Z</time>
</trkpt>
<trkpt lat="46.0388740" lon="10.3203890">
	<ele>881.00</ele>
	<time>2025-07-30T06:04:40.000Z</time>
</trkpt>
<trkpt lat="46.0388670" lon="10.3203910">
	<ele>881.20</ele>
	<time>2025-07-30T06:04:41.000Z</time>
</trkpt>
<trkpt lat="46.0388560" lon="10.3203900">
	<ele>881.40</ele>
	<time>2025-07-30T06:04:42.000Z</time>
</trkpt>
<trkpt lat="46.0388490" lon="10.3203850">
	<ele>881.60</ele>
	<time>2025-07-30T06:04:43.000Z</time>
</trkpt>
<trkpt lat="46.0388370" lon="10.3203680">
	<ele>881.60</ele>
	<time>2025-07-30T06:04:44.000Z</time>
</trkpt>
<trkpt lat="46.0388310" lon="10.3203620">
	<ele>882.00</ele>
	<time>2025-07-30T06:04:45.000Z</time>
</trkpt>
<trkpt lat="46.0388270" lon="10.3203530">
	<ele>882.20</ele>
	<time>2025-07-30T06:04:46.000Z</time>
</trkpt>
<trkpt lat="46.0388270" lon="10.3203530">
	<ele>882.20</ele>
	<time>2025-07-30T06:04:47.000Z</time>
</trkpt>
<trkpt lat="46.0388180" lon="10.3203420">
	<ele>882.40</ele>
	<time>2025-07-30T06:04:48.000Z</time>
</trkpt>
<trkpt lat="46.0388100" lon="10.3203360">
	<ele>882.60</ele>
	<time>2025-07-30T06:04:49.000Z</time>
</trkpt>
<trkpt lat="46.0388070" lon="10.3203280">
	<ele>882.80</ele>
	<time>2025-07-30T06:04:50.000Z</time>
</trkpt>
<trkpt lat="46.0388050" lon="10.3203290">
	<ele>883.00</ele>
	<time>2025-07-30T06:04:51.000Z</time>
</trkpt>
<trkpt lat="46.0388010" lon="10.3203480">
	<ele>883.20</ele>
	<time>2025-07-30T06:04:52.000Z</time>
</trkpt>
<trkpt lat="46.0387930" lon="10.3203560">
	<ele>883.60</ele>
	<time>2025-07-30T06:04:53.000Z</time>
</trkpt>
<trkpt lat="46.0387830" lon="10.3203550">
	<ele>883.60</ele>
	<time>2025-07-30T06:04:54.000Z</time>
</trkpt>
<trkpt lat="46.0387700" lon="10.3203570">
	<ele>883.80</ele>
	<time>2025-07-30T06:04:55.000Z</time>
</trkpt>
<trkpt lat="46.0387610" lon="10.3203610">
	<ele>883.80</ele>
	<time>2025-07-30T06:04:56.000Z</time>
</trkpt>
<trkpt lat="46.0387530" lon="10.3203630">
	<ele>884.20</ele>
	<time>2025-07-30T06:04:57.000Z</time>
</trkpt>
<trkpt lat="46.0387460" lon="10.3203720">
	<ele>884.40</ele>
	<time>2025-07-30T06:04:58.000Z</time>
</trkpt>
<trkpt lat="46.0387380" lon="10.3203870">
	<ele>884.60</ele>
	<time>2025-07-30T06:04:59.000Z</time>
</trkpt>
<trkpt lat="46.0387350" lon="10.3204020">
	<ele>884.60</ele>
	<time>2025-07-30T06:05:00.000Z</time>
</trkpt>
<trkpt lat="46.0387320" lon="10.3204110">
	<ele>885.00</ele>
	<time>2025-07-30T06:05:01.000Z</time>
</trkpt>
<trkpt lat="46.0387260" lon="10.3204180">
	<ele>885.20</ele>
	<time>2025-07-30T06:05:02.000Z</time>
</trkpt>
<trkpt lat="46.0387200" lon="10.3204170">
	<ele>885.40</ele>
	<time>2025-07-30T06:05:03.000Z</time>
</trkpt>
<trkpt lat="46.0387160" lon="10.3204210">
	<ele>885.60</ele>
	<time>2025-07-30T06:05:04.000Z</time>
</trkpt>
<trkpt lat="46.0387130" lon="10.3204290">
	<ele>885.80</ele>
	<time>2025-07-30T06:05:05.000Z</time>
</trkpt>
<trkpt lat="46.0387120" lon="10.3204440">
	<ele>886.00</ele>
	<time>2025-07-30T06:05:06.000Z</time>
</trkpt>
<trkpt lat="46.0387090" lon="10.3204530">
	<ele>886.00</ele>
	<time>2025-07-30T06:05:07.000Z</time>
</trkpt>
<trkpt lat="46.0387030" lon="10.3204660">
	<ele>886.00</ele>
	<time>2025-07-30T06:05:08.000Z</time>
</trkpt>
<trkpt lat="46.0386990" lon="10.3204760">
	<ele>886.20</ele>
	<time>2025-07-30T06:05:09.000Z</time>
</trkpt>
<trkpt lat="46.0386960" lon="10.3204960">
	<ele>886.40</ele>
	<time>2025-07-30T06:05:10.000Z</time>
</trkpt>
<trkpt lat="46.0386930" lon="10.3205240">
	<ele>886.60</ele>
	<time>2025-07-30T06:05:11.000Z</time>
</trkpt>
<trkpt lat="46.0386860" lon="10.3205290">
	<ele>886.60</ele>
	<time>2025-07-30T06:05:12.000Z</time>
</trkpt>
<trkpt lat="46.0386720" lon="10.3205410">
	<ele>886.80</ele>
	<time>2025-07-30T06:05:13.000Z</time>
</trkpt>
<trkpt lat="46.0386660" lon="10.3205570">
	<ele>887.00</ele>
	<time>2025-07-30T06:05:14.000Z</time>
</trkpt>
<trkpt lat="46.0386580" lon="10.3205840">
	<ele>887.00</ele>
	<time>2025-07-30T06:05:15.000Z</time>
</trkpt>
<trkpt lat="46.0386530" lon="10.3206220">
	<ele>887.20</ele>
	<time>2025-07-30T06:05:16.000Z</time>
</trkpt>
<trkpt lat="46.0386510" lon="10.3206580">
	<ele>887.40</ele>
	<time>2025-07-30T06:05:17.000Z</time>
</trkpt>
<trkpt lat="46.0386430" lon="10.3206890">
	<ele>887.60</ele>
	<time>2025-07-30T06:05:18.000Z</time>
</trkpt>
<trkpt lat="46.0386290" lon="10.3207070">
	<ele>887.80</ele>
	<time>2025-07-30T06:05:19.000Z</time>
</trkpt>
<trkpt lat="46.0386200" lon="10.3207290">
	<ele>887.80</ele>
	<time>2025-07-30T06:05:20.000Z</time>
</trkpt>
<trkpt lat="46.0386100" lon="10.3207550">
	<ele>887.80</ele>
	<time>2025-07-30T06:05:21.000Z</time>
</trkpt>
<trkpt lat="46.0386060" lon="10.3207880">
	<ele>888.00</ele>
	<time>2025-07-30T06:05:22.000Z</time>
</trkpt>
<trkpt lat="46.0385980" lon="10.3208310">
	<ele>888.00</ele>
	<time>2025-07-30T06:05:23.000Z</time>
</trkpt>
<trkpt lat="46.0385970" lon="10.3208390">
	<ele>888.00</ele>
	<time>2025-07-30T06:05:24.000Z</time>
</trkpt>
<trkpt lat="46.0385940" lon="10.3208430">
	<ele>888.00</ele>
	<time>2025-07-30T06:05:25.000Z</time>
</trkpt>
<trkpt lat="46.0385920" lon="10.3208220">
	<ele>888.20</ele>
	<time>2025-07-30T06:05:26.000Z</time>
</trkpt>
<trkpt lat="46.0385940" lon="10.3208130">
	<ele>888.20</ele>
	<time>2025-07-30T06:05:27.000Z</time>
</trkpt>
<trkpt lat="46.0385930" lon="10.3207970">
	<ele>888.40</ele>
	<time>2025-07-30T06:05:28.000Z</time>
</trkpt>
<trkpt lat="46.0385930" lon="10.3208060">
	<ele>888.40</ele>
	<time>2025-07-30T06:05:29.000Z</time>
</trkpt>
<trkpt lat="46.0386010" lon="10.3208140">
	<ele>888.40</ele>
	<time>2025-07-30T06:05:30.000Z</time>
</trkpt>
<trkpt lat="46.0385950" lon="10.3208240">
	<ele>888.60</ele>
	<time>2025-07-30T06:05:31.000Z</time>
</trkpt>
<trkpt lat="46.0385870" lon="10.3208280">
	<ele>888.60</ele>
	<time>2025-07-30T06:05:32.000Z</time>
</trkpt>
<trkpt lat="46.0385830" lon="10.3208280">
	<ele>888.80</ele>
	<time>2025-07-30T06:05:33.000Z</time>
</trkpt>
<trkpt lat="46.0385680" lon="10.3208400">
	<ele>888.80</ele>
	<time>2025-07-30T06:05:34.000Z</time>
</trkpt>
<trkpt lat="46.0385610" lon="10.3208440">
	<ele>889.00</ele>
	<time>2025-07-30T06:05:35.000Z</time>
</trkpt>
<trkpt lat="46.0385570" lon="10.3208620">
	<ele>889.20</ele>
	<time>2025-07-30T06:05:36.000Z</time>
</trkpt>
<trkpt lat="46.0385550" lon="10.3208710">
	<ele>889.40</ele>
	<time>2025-07-30T06:05:37.000Z</time>
</trkpt>
<trkpt lat="46.0385530" lon="10.3208710">
	<ele>889.40</ele>
	<time>2025-07-30T06:05:38.000Z</time>
</trkpt>
<trkpt lat="46.0385520" lon="10.3208750">
	<ele>889.40</ele>
	<time>2025-07-30T06:05:39.000Z</time>
</trkpt>
<trkpt lat="46.0385480" lon="10.3208830">
	<ele>889.60</ele>
	<time>2025-07-30T06:05:40.000Z</time>
</trkpt>
<trkpt lat="46.0385420" lon="10.3208870">
	<ele>889.60</ele>
	<time>2025-07-30T06:05:41.000Z</time>
</trkpt>
<trkpt lat="46.0385350" lon="10.3208880">
	<ele>889.60</ele>
	<time>2025-07-30T06:05:42.000Z</time>
</trkpt>
<trkpt lat="46.0385230" lon="10.3208870">
	<ele>889.80</ele>
	<time>2025-07-30T06:05:43.000Z</time>
</trkpt>
<trkpt lat="46.0385200" lon="10.3208940">
	<ele>890.00</ele>
	<time>2025-07-30T06:05:44.000Z</time>
</trkpt>
<trkpt lat="46.0385210" lon="10.3208970">
	<ele>890.40</ele>
	<time>2025-07-30T06:05:45.000Z</time>
</trkpt>
<trkpt lat="46.0385200" lon="10.3208970">
	<ele>890.60</ele>
	<time>2025-07-30T06:05:46.000Z</time>
</trkpt>
<trkpt lat="46.0385180" lon="10.3209000">
	<ele>890.80</ele>
	<time>2025-07-30T06:05:47.000Z</time>
</trkpt>
<trkpt lat="46.0385080" lon="10.3209030">
	<ele>891.20</ele>
	<time>2025-07-30T06:05:48.000Z</time>
</trkpt>
<trkpt lat="46.0384980" lon="10.3209070">
	<ele>891.40</ele>
	<time>2025-07-30T06:05:49.000Z</time>
</trkpt>
<trkpt lat="46.0384860" lon="10.3209130">
	<ele>891.60</ele>
	<time>2025-07-30T06:05:50.000Z</time>
</trkpt>
<trkpt lat="46.0384740" lon="10.3209330">
	<ele>892.00</ele>
	<time>2025-07-30T06:05:51.000Z</time>
</trkpt>
<trkpt lat="46.0384650" lon="10.3209400">
	<ele>892.20</ele>
	<time>2025-07-30T06:05:52.000Z</time>
</trkpt>
<trkpt lat="46.0384600" lon="10.3209580">
	<ele>892.40</ele>
	<time>2025-07-30T06:05:53.000Z</time>
</trkpt>
<trkpt lat="46.0384590" lon="10.3209710">
	<ele>892.60</ele>
	<time>2025-07-30T06:05:54.000Z</time>
</trkpt>
<trkpt lat="46.0384580" lon="10.3209770">
	<ele>892.80</ele>
	<time>2025-07-30T06:05:55.000Z</time>
</trkpt>
<trkpt lat="46.0384590" lon="10.3209800">
	<ele>893.20</ele>
	<time>2025-07-30T06:05:56.000Z</time>
</trkpt>
<trkpt lat="46.0384580" lon="10.3209840">
	<ele>893.40</ele>
	<time>2025-07-30T06:05:57.000Z</time>
</trkpt>
<trkpt lat="46.0384610" lon="10.3209980">
	<ele>893.60</ele>
	<time>2025-07-30T06:05:58.000Z</time>
</trkpt>
<trkpt lat="46.0384590" lon="10.3210080">
	<ele>893.80</ele>
	<time>2025-07-30T06:05:59.000Z</time>
</trkpt>
<trkpt lat="46.0384520" lon="10.3210120">
	<ele>893.80</ele>
	<time>2025-07-30T06:06:00.000Z</time>
</trkpt>
<trkpt lat="46.0384450" lon="10.3210150">
	<ele>894.00</ele>
	<time>2025-07-30T06:06:01.000Z</time>
</trkpt>
<trkpt lat="46.0384400" lon="10.3210170">
	<ele>894.20</ele>
	<time>2025-07-30T06:06:02.000Z</time>
</trkpt>
<trkpt lat="46.0384340" lon="10.3210210">
	<ele>894.40</ele>
	<time>2025-07-30T06:06:03.000Z</time>
</trkpt>
<trkpt lat="46.0384270" lon="10.3210260">
	<ele>894.40</ele>
	<time>2025-07-30T06:06:04.000Z</time>
</trkpt>
<trkpt lat="46.0384200" lon="10.3210220">
	<ele>894.80</ele>
	<time>2025-07-30T06:06:05.000Z</time>
</trkpt>
<trkpt lat="46.0384160" lon="10.3210280">
	<ele>895.00</ele>
	<time>2025-07-30T06:06:06.000Z</time>
</trkpt>
<trkpt lat="46.0384150" lon="10.3210330">
	<ele>895.20</ele>
	<time>2025-07-30T06:06:07.000Z</time>
</trkpt>
<trkpt lat="46.0384100" lon="10.3210270">
	<ele>895.20</ele>
	<time>2025-07-30T06:06:08.000Z</time>
</trkpt>
<trkpt lat="46.0384070" lon="10.3210300">
	<ele>895.60</ele>
	<time>2025-07-30T06:06:09.000Z</time>
</trkpt>
<trkpt lat="46.0384140" lon="10.3210290">
	<ele>895.80</ele>
	<time>2025-07-30T06:06:10.000Z</time>
</trkpt>
<trkpt lat="46.0384080" lon="10.3210380">
	<ele>896.00</ele>
	<time>2025-07-30T06:06:11.000Z</time>
</trkpt>
<trkpt lat="46.0383970" lon="10.3210350">
	<ele>896.20</ele>
	<time>2025-07-30T06:06:12.000Z</time>
</trkpt>
<trkpt lat="46.0383830" lon="10.3210310">
	<ele>896.40</ele>
	<time>2025-07-30T06:06:13.000Z</time>
</trkpt>
<trkpt lat="46.0383670" lon="10.3210320">
	<ele>896.60</ele>
	<time>2025-07-30T06:06:14.000Z</time>
</trkpt>
<trkpt lat="46.0383570" lon="10.3210450">
	<ele>897.00</ele>
	<time>2025-07-30T06:06:15.000Z</time>
</trkpt>
<trkpt lat="46.0383540" lon="10.3210490">
	<ele>897.20</ele>
	<time>2025-07-30T06:06:16.000Z</time>
</trkpt>
<trkpt lat="46.0383460" lon="10.3210740">
	<ele>897.40</ele>
	<time>2025-07-30T06:06:17.000Z</time>
</trkpt>
<trkpt lat="46.0383450" lon="10.3210900">
	<ele>897.60</ele>
	<time>2025-07-30T06:06:18.000Z</time>
</trkpt>
<trkpt lat="46.0383370" lon="10.3210950">
	<ele>897.80</ele>
	<time>2025-07-30T06:06:19.000Z</time>
</trkpt>
<trkpt lat="46.0383300" lon="10.3211020">
	<ele>898.00</ele>
	<time>2025-07-30T06:06:20.000Z</time>
</trkpt>
<trkpt lat="46.0383130" lon="10.3211120">
	<ele>898.20</ele>
	<time>2025-07-30T06:06:21.000Z</time>
</trkpt>
<trkpt lat="46.0382970" lon="10.3211240">
	<ele>898.20</ele>
	<time>2025-07-30T06:06:22.000Z</time>
</trkpt>
<trkpt lat="46.0382930" lon="10.3211300">
	<ele>898.40</ele>
	<time>2025-07-30T06:06:23.000Z</time>
</trkpt>
<trkpt lat="46.0382830" lon="10.3211310">
	<ele>898.60</ele>
	<time>2025-07-30T06:06:24.000Z</time>
</trkpt>
<trkpt lat="46.0382760" lon="10.3211200">
	<ele>898.80</ele>
	<time>2025-07-30T06:06:25.000Z</time>
</trkpt>
<trkpt lat="46.0382780" lon="10.3211150">
	<ele>899.20</ele>
	<time>2025-07-30T06:06:26.000Z</time>
</trkpt>
<trkpt lat="46.0382750" lon="10.3211190">
	<ele>899.40</ele>
	<time>2025-07-30T06:06:27.000Z</time>
</trkpt>
<trkpt lat="46.0382570" lon="10.3211150">
	<ele>899.60</ele>
	<time>2025-07-30T06:06:28.000Z</time>
</trkpt>
<trkpt lat="46.0382410" lon="10.3211420">
	<ele>899.80</ele>
	<time>2025-07-30T06:06:29.000Z</time>
</trkpt>
<trkpt lat="46.0382320" lon="10.3211600">
	<ele>900.00</ele>
	<time>2025-07-30T06:06:30.000Z</time>
</trkpt>
<trkpt lat="46.0382240" lon="10.3211790">
	<ele>900.20</ele>
	<time>2025-07-30T06:06:31.000Z</time>
</trkpt>
<trkpt lat="46.0382060" lon="10.3211830">
	<ele>900.40</ele>
	<time>2025-07-30T06:06:32.000Z</time>
</trkpt>
<trkpt lat="46.0381910" lon="10.3212040">
	<ele>900.60</ele>
	<time>2025-07-30T06:06:33.000Z</time>
</trkpt>
<trkpt lat="46.0381830" lon="10.3212120">
	<ele>900.60</ele>
	<time>2025-07-30T06:06:34.000Z</time>
</trkpt>
<trkpt lat="46.0381860" lon="10.3212170">
	<ele>901.00</ele>
	<time>2025-07-30T06:06:35.000Z</time>
</trkpt>
<trkpt lat="46.0381850" lon="10.3212190">
	<ele>901.20</ele>
	<time>2025-07-30T06:06:36.000Z</time>
</trkpt>
<trkpt lat="46.0381860" lon="10.3212260">
	<ele>901.60</ele>
	<time>2025-07-30T06:06:37.000Z</time>
</trkpt>
<trkpt lat="46.0381840" lon="10.3212290">
	<ele>901.60</ele>
	<time>2025-07-30T06:06:38.000Z</time>
</trkpt>
<trkpt lat="46.0381870" lon="10.3212320">
	<ele>902.00</ele>
	<time>2025-07-30T06:06:39.000Z</time>
</trkpt>
<trkpt lat="46.0381830" lon="10.3212330">
	<ele>902.00</ele>
	<time>2025-07-30T06:06:40.000Z</time>
</trkpt>
<trkpt lat="46.0381980" lon="10.3212560">
	<ele>902.00</ele>
	<time>2025-07-30T06:06:41.000Z</time>
</trkpt>
<trkpt lat="46.0381960" lon="10.3212720">
	<ele>902.40</ele>
	<time>2025-07-30T06:06:42.000Z</time>
</trkpt>
<trkpt lat="46.0381970" lon="10.3212830">
	<ele>902.60</ele>
	<time>2025-07-30T06:06:43.000Z</time>
</trkpt>
<trkpt lat="46.0381930" lon="10.3212920">
	<ele>902.80</ele>
	<time>2025-07-30T06:06:44.000Z</time>
</trkpt>
<trkpt lat="46.0381890" lon="10.3213030">
	<ele>903.00</ele>
	<time>2025-07-30T06:06:45.000Z</time>
</trkpt>
<trkpt lat="46.0381850" lon="10.3213190">
	<ele>903.20</ele>
	<time>2025-07-30T06:06:46.000Z</time>
</trkpt>
<trkpt lat="46.0381830" lon="10.3213260">
	<ele>903.40</ele>
	<time>2025-07-30T06:06:47.000Z</time>
</trkpt>
<trkpt lat="46.0381830" lon="10.3213330">
	<ele>903.60</ele>
	<time>2025-07-30T06:06:48.000Z</time>
</trkpt>
<trkpt lat="46.0381800" lon="10.3213460">
	<ele>903.60</ele>
	<time>2025-07-30T06:06:49.000Z</time>
</trkpt>
<trkpt lat="46.0381770" lon="10.3213610">
	<ele>903.80</ele>
	<time>2025-07-30T06:06:50.000Z</time>
</trkpt>
<trkpt lat="46.0381750" lon="10.3213750">
	<ele>904.20</ele>
	<time>2025-07-30T06:06:51.000Z</time>
</trkpt>
<trkpt lat="46.0381720" lon="10.3213870">
	<ele>904.40</ele>
	<time>2025-07-30T06:06:52.000Z</time>
</trkpt>
<trkpt lat="46.0381670" lon="10.3214000">
	<ele>904.60</ele>
	<time>2025-07-30T06:06:53.000Z</time>
</trkpt>
<trkpt lat="46.0381610" lon="10.3214150">
	<ele>904.80</ele>
	<time>2025-07-30T06:06:54.000Z</time>
</trkpt>
<trkpt lat="46.0381590" lon="10.3214220">
	<ele>905.00</ele>
	<time>2025-07-30T06:06:55.000Z</time>
</trkpt>
<trkpt lat="46.0381580" lon="10.3214300">
	<ele>905.40</ele>
	<time>2025-07-30T06:06:56.000Z</time>
</trkpt>
<trkpt lat="46.0381590" lon="10.3214380">
	<ele>905.60</ele>
	<time>2025-07-30T06:06:57.000Z</time>
</trkpt>
<trkpt lat="46.0381590" lon="10.3214440">
	<ele>905.80</ele>
	<time>2025-07-30T06:06:58.000Z</time>
</trkpt>
<trkpt lat="46.0381540" lon="10.3214560">
	<ele>906.00</ele>
	<time>2025-07-30T06:06:59.000Z</time>
</trkpt>
<trkpt lat="46.0381520" lon="10.3214630">
	<ele>906.20</ele>
	<time>2025-07-30T06:07:00.000Z</time>
</trkpt>
<trkpt lat="46.0381460" lon="10.3214680">
	<ele>906.40</ele>
	<time>2025-07-30T06:07:01.000Z</time>
</trkpt>
<trkpt lat="46.0381410" lon="10.3214670">
	<ele>906.60</ele>
	<time>2025-07-30T06:07:02.000Z</time>
</trkpt>
<trkpt lat="46.0381330" lon="10.3214660">
	<ele>906.80</ele>
	<time>2025-07-30T06:07:03.000Z</time>
</trkpt>
<trkpt lat="46.0381250" lon="10.3214710">
	<ele>907.00</ele>
	<time>2025-07-30T06:07:04.000Z</time>
</trkpt>
<trkpt lat="46.0381160" lon="10.3214770">
	<ele>907.20</ele>
	<time>2025-07-30T06:07:05.000Z</time>
</trkpt>
<trkpt lat="46.0380950" lon="10.3214790">
	<ele>907.40</ele>
	<time>2025-07-30T06:07:06.000Z</time>
</trkpt>
<trkpt lat="46.0380920" lon="10.3214830">
	<ele>907.40</ele>
	<time>2025-07-30T06:07:07.000Z</time>
</trkpt>
<trkpt lat="46.0380890" lon="10.3214910">
	<ele>907.60</ele>
	<time>2025-07-30T06:07:08.000Z</time>
</trkpt>
<trkpt lat="46.0380910" lon="10.3215070">
	<ele>907.80</ele>
	<time>2025-07-30T06:07:09.000Z</time>
</trkpt>
<trkpt lat="46.0380910" lon="10.3215170">
	<ele>908.00</ele>
	<time>2025-07-30T06:07:10.000Z</time>
</trkpt>
<trkpt lat="46.0380860" lon="10.3215320">
	<ele>908.20</ele>
	<time>2025-07-30T06:07:11.000Z</time>
</trkpt>
<trkpt lat="46.0380860" lon="10.3215440">
	<ele>908.40</ele>
	<time>2025-07-30T06:07:12.000Z</time>
</trkpt>
<trkpt lat="46.0380860" lon="10.3215590">
	<ele>908.60</ele>
	<time>2025-07-30T06:07:13.000Z</time>
</trkpt>
<trkpt lat="46.0380740" lon="10.3215880">
	<ele>908.80</ele>
	<time>2025-07-30T06:07:14.000Z</time>
</trkpt>
<trkpt lat="46.0380750" lon="10.3215950">
	<ele>909.00</ele>
	<time>2025-07-30T06:07:15.000Z</time>
</trkpt>
<trkpt lat="46.0380770" lon="10.3215980">
	<ele>909.20</ele>
	<time>2025-07-30T06:07:16.000Z</time>
</trkpt>
<trkpt lat="46.0380790" lon="10.3216020">
	<ele>909.40</ele>
	<time>2025-07-30T06:07:17.000Z</time>
</trkpt>
<trkpt lat="46.0380810" lon="10.3216020">
	<ele>909.40</ele>
	<time>2025-07-30T06:07:18.000Z</time>
</trkpt>
<trkpt lat="46.0380830" lon="10.3216050">
	<ele>909.80</ele>
	<time>2025-07-30T06:07:19.000Z</time>
</trkpt>
<trkpt lat="46.0380820" lon="10.3216290">
	<ele>910.00</ele>
	<time>2025-07-30T06:07:20.000Z</time>
</trkpt>
<trkpt lat="46.0380810" lon="10.3216280">
	<ele>910.00</ele>
	<time>2025-07-30T06:07:21.000Z</time>
</trkpt>
<trkpt lat="46.0380810" lon="10.3216250">
	<ele>910.00</ele>
	<time>2025-07-30T06:07:22.000Z</time>
</trkpt>
<trkpt lat="46.0380830" lon="10.3216260">
	<ele>910.20</ele>
	<time>2025-07-30T06:07:23.000Z</time>
</trkpt>
<trkpt lat="46.0380760" lon="10.3216320">
	<ele>910.20</ele>
	<time>2025-07-30T06:07:24.000Z</time>
</trkpt>
<trkpt lat="46.0380730" lon="10.3216350">
	<ele>910.20</ele>
	<time>2025-07-30T06:07:25.000Z</time>
</trkpt>
<trkpt lat="46.0380730" lon="10.3216360">
	<ele>910.20</ele>
	<time>2025-07-30T06:07:26.000Z</time>
</trkpt>
<trkpt lat="46.0380750" lon="10.3216370">
	<ele>910.20</ele>
	<time>2025-07-30T06:07:27.000Z</time>
</trkpt>
<trkpt lat="46.0380760" lon="10.3216560">
	<ele>910.40</ele>
	<time>2025-07-30T06:07:28.000Z</time>
</trkpt>
<trkpt lat="46.0380780" lon="10.3216690">
	<ele>910.40</ele>
	<time>2025-07-30T06:07:29.000Z</time>
</trkpt>
<trkpt lat="46.0380800" lon="10.3216780">
	<ele>910.40</ele>
	<time>2025-07-30T06:07:30.000Z</time>
</trkpt>
<trkpt lat="46.0380840" lon="10.3216970">
	<ele>910.80</ele>
	<time>2025-07-30T06:07:31.000Z</time>
</trkpt>
<trkpt lat="46.0380880" lon="10.3217100">
	<ele>911.00</ele>
	<time>2025-07-30T06:07:32.000Z</time>
</trkpt>
<trkpt lat="46.0380930" lon="10.3217140">
	<ele>911.20</ele>
	<time>2025-07-30T06:07:33.000Z</time>
</trkpt>
<trkpt lat="46.0380970" lon="10.3217170">
	<ele>911.40</ele>
	<time>2025-07-30T06:07:34.000Z</time>
</trkpt>
<trkpt lat="46.0381010" lon="10.3217220">
	<ele>911.40</ele>
	<time>2025-07-30T06:07:35.000Z</time>
</trkpt>
<trkpt lat="46.0381060" lon="10.3217200">
	<ele>911.60</ele>
	<time>2025-07-30T06:07:36.000Z</time>
</trkpt>
<trkpt lat="46.0381090" lon="10.3217210">
	<ele>911.80</ele>
	<time>2025-07-30T06:07:37.000Z</time>
</trkpt>
<trkpt lat="46.0381110" lon="10.3217230">
	<ele>912.00</ele>
	<time>2025-07-30T06:07:38.000Z</time>
</trkpt>
<trkpt lat="46.0381160" lon="10.3217260">
	<ele>912.20</ele>
	<time>2025-07-30T06:07:39.000Z</time>
</trkpt>
<trkpt lat="46.0381220" lon="10.3217340">
	<ele>912.40</ele>
	<time>2025-07-30T06:07:40.000Z</time>
</trkpt>
<trkpt lat="46.0381260" lon="10.3217360">
	<ele>912.80</ele>
	<time>2025-07-30T06:07:41.000Z</time>
</trkpt>
<trkpt lat="46.0381300" lon="10.3217470">
	<ele>912.80</ele>
	<time>2025-07-30T06:07:42.000Z</time>
</trkpt>
<trkpt lat="46.0381380" lon="10.3217540">
	<ele>913.00</ele>
	<time>2025-07-30T06:07:43.000Z</time>
</trkpt>
<trkpt lat="46.0381440" lon="10.3217590">
	<ele>913.20</ele>
	<time>2025-07-30T06:07:44.000Z</time>
</trkpt>
<trkpt lat="46.0381480" lon="10.3217600">
	<ele>913.40</ele>
	<time>2025-07-30T06:07:45.000Z</time>
</trkpt>
<trkpt lat="46.0381520" lon="10.3217580">
	<ele>913.60</ele>
	<time>2025-07-30T06:07:46.000Z</time>
</trkpt>
<trkpt lat="46.0381510" lon="10.3217680">
	<ele>913.60</ele>
	<time>2025-07-30T06:07:47.000Z</time>
</trkpt>
<trkpt lat="46.0381500" lon="10.3217710">
	<ele>913.80</ele>
	<time>2025-07-30T06:07:48.000Z</time>
</trkpt>
<trkpt lat="46.0381450" lon="10.3217880">
	<ele>913.80</ele>
	<time>2025-07-30T06:07:49.000Z</time>
</trkpt>
<trkpt lat="46.0381400" lon="10.3218030">
	<ele>914.00</ele>
	<time>2025-07-30T06:07:50.000Z</time>
</trkpt>
<trkpt lat="46.0381340" lon="10.3218170">
	<ele>914.00</ele>
	<time>2025-07-30T06:07:51.000Z</time>
</trkpt>
<trkpt lat="46.0381320" lon="10.3218210">
	<ele>914.20</ele>
	<time>2025-07-30T06:07:52.000Z</time>
</trkpt>
<trkpt lat="46.0381190" lon="10.3218340">
	<ele>914.20</ele>
	<time>2025-07-30T06:07:53.000Z</time>
</trkpt>
<trkpt lat="46.0381020" lon="10.3218530">
	<ele>914.20</ele>
	<time>2025-07-30T06:07:54.000Z</time>
</trkpt>
<trkpt lat="46.0380910" lon="10.3218770">
	<ele>914.40</ele>
	<time>2025-07-30T06:07:55.000Z</time>
</trkpt>
<trkpt lat="46.0380680" lon="10.3218970">
	<ele>914.40</ele>
	<time>2025-07-30T06:07:56.000Z</time>
</trkpt>
<trkpt lat="46.0380640" lon="10.3218960">
	<ele>914.40</ele>
	<time>2025-07-30T06:07:57.000Z</time>
</trkpt>
<trkpt lat="46.0380480" lon="10.3219290">
	<ele>914.40</ele>
	<time>2025-07-30T06:07:58.000Z</time>
</trkpt>
<trkpt lat="46.0380410" lon="10.3219550">
	<ele>914.60</ele>
	<time>2025-07-30T06:07:59.000Z</time>
</trkpt>
<trkpt lat="46.0380320" lon="10.3219770">
	<ele>914.80</ele>
	<time>2025-07-30T06:08:00.000Z</time>
</trkpt>
<trkpt lat="46.0380200" lon="10.3219960">
	<ele>914.80</ele>
	<time>2025-07-30T06:08:01.000Z</time>
</trkpt>
<trkpt lat="46.0380080" lon="10.3220130">
	<ele>914.80</ele>
	<time>2025-07-30T06:08:02.000Z</time>
</trkpt>
<trkpt lat="46.0380020" lon="10.3220340">
	<ele>915.00</ele>
	<time>2025-07-30T06:08:03.000Z</time>
</trkpt>
<trkpt lat="46.0379920" lon="10.3220660">
	<ele>915.20</ele>
	<time>2025-07-30T06:08:04.000Z</time>
</trkpt>
<trkpt lat="46.0379780" lon="10.3221040">
	<ele>915.40</ele>
	<time>2025-07-30T06:08:05.000Z</time>
</trkpt>
<trkpt lat="46.0379610" lon="10.3221270">
	<ele>915.60</ele>
	<time>2025-07-30T06:08:06.000Z</time>
</trkpt>
<trkpt lat="46.0379410" lon="10.3221350">
	<ele>915.80</ele>
	<time>2025-07-30T06:08:07.000Z</time>
</trkpt>
<trkpt lat="46.0379230" lon="10.3221410">
	<ele>916.00</ele>
	<time>2025-07-30T06:08:08.000Z</time>
</trkpt>
<trkpt lat="46.0379180" lon="10.3221420">
	<ele>916.00</ele>
	<time>2025-07-30T06:08:09.000Z</time>
</trkpt>
<trkpt lat="46.0379090" lon="10.3221520">
	<ele>916.00</ele>
	<time>2025-07-30T06:08:10.000Z</time>
</trkpt>
<trkpt lat="46.0379040" lon="10.3221570">
	<ele>916.20</ele>
	<time>2025-07-30T06:08:11.000Z</time>
</trkpt>
<trkpt lat="46.0378930" lon="10.3221730">
	<ele>916.20</ele>
	<time>2025-07-30T06:08:12.000Z</time>
</trkpt>
<trkpt lat="46.0378830" lon="10.3221900">
	<ele>916.20</ele>
	<time>2025-07-30T06:08:13.000Z</time>
</trkpt>
<trkpt lat="46.0378770" lon="10.3222040">
	<ele>916.20</ele>
	<time>2025-07-30T06:08:14.000Z</time>
</trkpt>
<trkpt lat="46.0378680" lon="10.3222190">
	<ele>916.20</ele>
	<time>2025-07-30T06:08:15.000Z</time>
</trkpt>
<trkpt lat="46.0378590" lon="10.3222480">
	<ele>916.20</ele>
	<time>2025-07-30T06:08:16.000Z</time>
</trkpt>
<trkpt lat="46.0378500" lon="10.3222670">
	<ele>916.20</ele>
	<time>2025-07-30T06:08:17.000Z</time>
</trkpt>
<trkpt lat="46.0378370" lon="10.3222790">
	<ele>916.20</ele>
	<time>2025-07-30T06:08:18.000Z</time>
</trkpt>
<trkpt lat="46.0378260" lon="10.3222980">
	<ele>916.20</ele>
	<time>2025-07-30T06:08:19.000Z</time>
</trkpt>
<trkpt lat="46.0378230" lon="10.3223140">
	<ele>916.20</ele>
	<time>2025-07-30T06:08:20.000Z</time>
</trkpt>
<trkpt lat="46.0378230" lon="10.3223300">
	<ele>916.00</ele>
	<time>2025-07-30T06:08:21.000Z</time>
</trkpt>
<trkpt lat="46.0378220" lon="10.3223430">
	<ele>916.00</ele>
	<time>2025-07-30T06:08:22.000Z</time>
</trkpt>
<trkpt lat="46.0378210" lon="10.3223530">
	<ele>915.80</ele>
	<time>2025-07-30T06:08:23.000Z</time>
</trkpt>
<trkpt lat="46.0378180" lon="10.3223560">
	<ele>915.60</ele>
	<time>2025-07-30T06:08:24.000Z</time>
</trkpt>
<trkpt lat="46.0378160" lon="10.3223730">
	<ele>915.60</ele>
	<time>2025-07-30T06:08:25.000Z</time>
</trkpt>
<trkpt lat="46.0378040" lon="10.3223920">
	<ele>915.60</ele>
	<time>2025-07-30T06:08:26.000Z</time>
</trkpt>
<trkpt lat="46.0378000" lon="10.3223950">
	<ele>915.40</ele>
	<time>2025-07-30T06:08:27.000Z</time>
</trkpt>
<trkpt lat="46.0377900" lon="10.3224200">
	<ele>915.40</ele>
	<time>2025-07-30T06:08:28.000Z</time>
</trkpt>
<trkpt lat="46.0377800" lon="10.3224490">
	<ele>915.20</ele>
	<time>2025-07-30T06:08:29.000Z</time>
</trkpt>
<trkpt lat="46.0377750" lon="10.3224640">
	<ele>915.20</ele>
	<time>2025-07-30T06:08:30.000Z</time>
</trkpt>
<trkpt lat="46.0377730" lon="10.3224850">
	<ele>915.20</ele>
	<time>2025-07-30T06:08:31.000Z</time>
</trkpt>
<trkpt lat="46.0377630" lon="10.3225070">
	<ele>915.20</ele>
	<time>2025-07-30T06:08:32.000Z</time>
</trkpt>
<trkpt lat="46.0377570" lon="10.3225280">
	<ele>915.20</ele>
	<time>2025-07-30T06:08:33.000Z</time>
</trkpt>
<trkpt lat="46.0377500" lon="10.3225500">
	<ele>915.20</ele>
	<time>2025-07-30T06:08:34.000Z</time>
</trkpt>
<trkpt lat="46.0377450" lon="10.3225790">
	<ele>915.20</ele>
	<time>2025-07-30T06:08:35.000Z</time>
</trkpt>
<trkpt lat="46.0377420" lon="10.3226060">
	<ele>915.20</ele>
	<time>2025-07-30T06:08:36.000Z</time>
</trkpt>
<trkpt lat="46.0377420" lon="10.3226230">
	<ele>915.20</ele>
	<time>2025-07-30T06:08:37.000Z</time>
</trkpt>
<trkpt lat="46.0377430" lon="10.3226350">
	<ele>915.20</ele>
	<time>2025-07-30T06:08:38.000Z</time>
</trkpt>
<trkpt lat="46.0377410" lon="10.3226550">
	<ele>915.00</ele>
	<time>2025-07-30T06:08:39.000Z</time>
</trkpt>
<trkpt lat="46.0377430" lon="10.3226640">
	<ele>915.00</ele>
	<time>2025-07-30T06:08:40.000Z</time>
</trkpt>
<trkpt lat="46.0377450" lon="10.3226840">
	<ele>914.80</ele>
	<time>2025-07-30T06:08:41.000Z</time>
</trkpt>
<trkpt lat="46.0377460" lon="10.3227030">
	<ele>914.80</ele>
	<time>2025-07-30T06:08:42.000Z</time>
</trkpt>
<trkpt lat="46.0377470" lon="10.3227230">
	<ele>914.60</ele>
	<time>2025-07-30T06:08:43.000Z</time>
</trkpt>
<trkpt lat="46.0377460" lon="10.3227430">
	<ele>914.60</ele>
	<time>2025-07-30T06:08:44.000Z</time>
</trkpt>
<trkpt lat="46.0377470" lon="10.3227510">
	<ele>914.60</ele>
	<time>2025-07-30T06:08:45.000Z</time>
</trkpt>
<trkpt lat="46.0377450" lon="10.3227550">
	<ele>914.40</ele>
	<time>2025-07-30T06:08:46.000Z</time>
</trkpt>
<trkpt lat="46.0377430" lon="10.3227550">
	<ele>914.40</ele>
	<time>2025-07-30T06:08:47.000Z</time>
</trkpt>
<trkpt lat="46.0377390" lon="10.3227670">
	<ele>914.20</ele>
	<time>2025-07-30T06:08:48.000Z</time>
</trkpt>
<trkpt lat="46.0377390" lon="10.3227720">
	<ele>914.00</ele>
	<time>2025-07-30T06:08:49.000Z</time>
</trkpt>
<trkpt lat="46.0377400" lon="10.3227720">
	<ele>914.00</ele>
	<time>2025-07-30T06:08:50.000Z</time>
</trkpt>
<trkpt lat="46.0377430" lon="10.3227720">
	<ele>914.00</ele>
	<time>2025-07-30T06:08:51.000Z</time>
</trkpt>
<trkpt lat="46.0377460" lon="10.3227720">
	<ele>913.80</ele>
	<time>2025-07-30T06:08:52.000Z</time>
</trkpt>
<trkpt lat="46.0377500" lon="10.3227960">
	<ele>913.80</ele>
	<time>2025-07-30T06:08:53.000Z</time>
</trkpt>
<trkpt lat="46.0377510" lon="10.3228090">
	<ele>914.00</ele>
	<time>2025-07-30T06:08:54.000Z</time>
</trkpt>
<trkpt lat="46.0377540" lon="10.3228110">
	<ele>913.80</ele>
	<time>2025-07-30T06:08:55.000Z</time>
</trkpt>
<trkpt lat="46.0377600" lon="10.3228260">
	<ele>913.80</ele>
	<time>2025-07-30T06:08:56.000Z</time>
</trkpt>
<trkpt lat="46.0377640" lon="10.3228450">
	<ele>913.80</ele>
	<time>2025-07-30T06:08:57.000Z</time>
</trkpt>
<trkpt lat="46.0377720" lon="10.3228820">
	<ele>913.80</ele>
	<time>2025-07-30T06:08:58.000Z</time>
</trkpt>
<trkpt lat="46.0377810" lon="10.3229080">
	<ele>913.80</ele>
	<time>2025-07-30T06:08:59.000Z</time>
</trkpt>
<trkpt lat="46.0377880" lon="10.3229240">
	<ele>913.80</ele>
	<time>2025-07-30T06:09:00.000Z</time>
</trkpt>
<trkpt lat="46.0377910" lon="10.3229270">
	<ele>913.80</ele>
	<time>2025-07-30T06:09:01.000Z</time>
</trkpt>
<trkpt lat="46.0377930" lon="10.3229300">
	<ele>913.80</ele>
	<time>2025-07-30T06:09:02.000Z</time>
</trkpt>
<trkpt lat="46.0377970" lon="10.3229320">
	<ele>914.00</ele>
	<time>2025-07-30T06:09:03.000Z</time>
</trkpt>
<trkpt lat="46.0378020" lon="10.3229400">
	<ele>914.20</ele>
	<time>2025-07-30T06:09:04.000Z</time>
</trkpt>
<trkpt lat="46.0378090" lon="10.3229490">
	<ele>914.20</ele>
	<time>2025-07-30T06:09:05.000Z</time>
</trkpt>
<trkpt lat="46.0378120" lon="10.3229480">
	<ele>914.40</ele>
	<time>2025-07-30T06:09:06.000Z</time>
</trkpt>
<trkpt lat="46.0378150" lon="10.3229470">
	<ele>914.60</ele>
	<time>2025-07-30T06:09:07.000Z</time>
</trkpt>
<trkpt lat="46.0378180" lon="10.3229480">
	<ele>914.80</ele>
	<time>2025-07-30T06:09:08.000Z</time>
</trkpt>
<trkpt lat="46.0378280" lon="10.3229610">
	<ele>915.00</ele>
	<time>2025-07-30T06:09:09.000Z</time>
</trkpt>
<trkpt lat="46.0378350" lon="10.3229800">
	<ele>915.00</ele>
	<time>2025-07-30T06:09:10.000Z</time>
</trkpt>
<trkpt lat="46.0378410" lon="10.3229900">
	<ele>915.40</ele>
	<time>2025-07-30T06:09:11.000Z</time>
</trkpt>
<trkpt lat="46.0378480" lon="10.3229980">
	<ele>915.60</ele>
	<time>2025-07-30T06:09:12.000Z</time>
</trkpt>
<trkpt lat="46.0378560" lon="10.3230020">
	<ele>915.80</ele>
	<time>2025-07-30T06:09:13.000Z</time>
</trkpt>
<trkpt lat="46.0378640" lon="10.3230010">
	<ele>916.00</ele>
	<time>2025-07-30T06:09:14.000Z</time>
</trkpt>
<trkpt lat="46.0378710" lon="10.3230050">
	<ele>916.20</ele>
	<time>2025-07-30T06:09:15.000Z</time>
</trkpt>
<trkpt lat="46.0378810" lon="10.3230100">
	<ele>916.40</ele>
	<time>2025-07-30T06:09:16.000Z</time>
</trkpt>
<trkpt lat="46.0378890" lon="10.3230040">
	<ele>916.80</ele>
	<time>2025-07-30T06:09:17.000Z</time>
</trkpt>
<trkpt lat="46.0378920" lon="10.3229980">
	<ele>917.00</ele>
	<time>2025-07-30T06:09:18.000Z</time>
</trkpt>
<trkpt lat="46.0379020" lon="10.3229950">
	<ele>917.20</ele>
	<time>2025-07-30T06:09:19.000Z</time>
</trkpt>
<trkpt lat="46.0379140" lon="10.3229920">
	<ele>917.40</ele>
	<time>2025-07-30T06:09:20.000Z</time>
</trkpt>
<trkpt lat="46.0379170" lon="10.3229870">
	<ele>917.80</ele>
	<time>2025-07-30T06:09:21.000Z</time>
</trkpt>
<trkpt lat="46.0379240" lon="10.3229950">
	<ele>918.00</ele>
	<time>2025-07-30T06:09:22.000Z</time>
</trkpt>
<trkpt lat="46.0379340" lon="10.3229950">
	<ele>918.20</ele>
	<time>2025-07-30T06:09:23.000Z</time>
</trkpt>
<trkpt lat="46.0379410" lon="10.3229980">
	<ele>918.40</ele>
	<time>2025-07-30T06:09:24.000Z</time>
</trkpt>
<trkpt lat="46.0379470" lon="10.3229970">
	<ele>918.60</ele>
	<time>2025-07-30T06:09:25.000Z</time>
</trkpt>
<trkpt lat="46.0379550" lon="10.3230000">
	<ele>918.60</ele>
	<time>2025-07-30T06:09:26.000Z</time>
</trkpt>
<trkpt lat="46.0379630" lon="10.3230040">
	<ele>918.80</ele>
	<time>2025-07-30T06:09:27.000Z</time>
</trkpt>
<trkpt lat="46.0379740" lon="10.3230080">
	<ele>919.00</ele>
	<time>2025-07-30T06:09:28.000Z</time>
</trkpt>
<trkpt lat="46.0379860" lon="10.3229980">
	<ele>919.20</ele>
	<time>2025-07-30T06:09:29.000Z</time>
</trkpt>
<trkpt lat="46.0379910" lon="10.3229860">
	<ele>919.20</ele>
	<time>2025-07-30T06:09:30.000Z</time>
</trkpt>
<trkpt lat="46.0379950" lon="10.3229780">
	<ele>919.40</ele>
	<time>2025-07-30T06:09:31.000Z</time>
</trkpt>
<trkpt lat="46.0380010" lon="10.3229630">
	<ele>919.40</ele>
	<time>2025-07-30T06:09:32.000Z</time>
</trkpt>
<trkpt lat="46.0380080" lon="10.3229550">
	<ele>919.60</ele>
	<time>2025-07-30T06:09:33.000Z</time>
</trkpt>
<trkpt lat="46.0380130" lon="10.3229500">
	<ele>919.80</ele>
	<time>2025-07-30T06:09:34.000Z</time>
</trkpt>
<trkpt lat="46.0380170" lon="10.3229450">
	<ele>920.00</ele>
	<time>2025-07-30T06:09:35.000Z</time>
</trkpt>
<trkpt lat="46.0380270" lon="10.3229440">
	<ele>920.20</ele>
	<time>2025-07-30T06:09:36.000Z</time>
</trkpt>
<trkpt lat="46.0380340" lon="10.3229420">
	<ele>920.40</ele>
	<time>2025-07-30T06:09:37.000Z</time>
</trkpt>
<trkpt lat="46.0380420" lon="10.3229350">
	<ele>920.60</ele>
	<time>2025-07-30T06:09:38.000Z</time>
</trkpt>
<trkpt lat="46.0380540" lon="10.3229250">
	<ele>920.80</ele>
	<time>2025-07-30T06:09:39.000Z</time>
</trkpt>
<trkpt lat="46.0380700" lon="10.3229090">
	<ele>921.00</ele>
	<time>2025-07-30T06:09:40.000Z</time>
</trkpt>
<trkpt lat="46.0380870" lon="10.3228910">
	<ele>921.20</ele>
	<time>2025-07-30T06:09:41.000Z</time>
</trkpt>
<trkpt lat="46.0380970" lon="10.3228700">
	<ele>921.20</ele>
	<time>2025-07-30T06:09:42.000Z</time>
</trkpt>
<trkpt lat="46.0381030" lon="10.3228490">
	<ele>921.40</ele>
	<time>2025-07-30T06:09:43.000Z</time>
</trkpt>
<trkpt lat="46.0381030" lon="10.3228320">
	<ele>921.60</ele>
	<time>2025-07-30T06:09:44.000Z</time>
</trkpt>
<trkpt lat="46.0381080" lon="10.3228220">
	<ele>921.80</ele>
	<time>2025-07-30T06:09:45.000Z</time>
</trkpt>
<trkpt lat="46.0381100" lon="10.3228140">
	<ele>922.00</ele>
	<time>2025-07-30T06:09:46.000Z</time>
</trkpt>
<trkpt lat="46.0381130" lon="10.3228050">
	<ele>922.20</ele>
	<time>2025-07-30T06:09:47.000Z</time>
</trkpt>
<trkpt lat="46.0381340" lon="10.3227810">
	<ele>922.40</ele>
	<time>2025-07-30T06:09:48.000Z</time>
</trkpt>
<trkpt lat="46.0381480" lon="10.3227560">
	<ele>922.60</ele>
	<time>2025-07-30T06:09:49.000Z</time>
</trkpt>
<trkpt lat="46.0381650" lon="10.3227410">
	<ele>922.80</ele>
	<time>2025-07-30T06:09:50.000Z</time>
</trkpt>
<trkpt lat="46.0381780" lon="10.3227340">
	<ele>922.80</ele>
	<time>2025-07-30T06:09:51.000Z</time>
</trkpt>
<trkpt lat="46.0381850" lon="10.3227480">
	<ele>923.00</ele>
	<time>2025-07-30T06:09:52.000Z</time>
</trkpt>
<trkpt lat="46.0381980" lon="10.3227640">
	<ele>923.20</ele>
	<time>2025-07-30T06:09:53.000Z</time>
</trkpt>
<trkpt lat="46.0382080" lon="10.3227890">
	<ele>923.40</ele>
	<time>2025-07-30T06:09:54.000Z</time>
</trkpt>
<trkpt lat="46.0382200" lon="10.3227970">
	<ele>923.60</ele>
	<time>2025-07-30T06:09:55.000Z</time>
</trkpt>
<trkpt lat="46.0382330" lon="10.3227890">
	<ele>924.00</ele>
	<time>2025-07-30T06:09:56.000Z</time>
</trkpt>
<trkpt lat="46.0382390" lon="10.3227900">
	<ele>924.00</ele>
	<time>2025-07-30T06:09:57.000Z</time>
</trkpt>
<trkpt lat="46.0382390" lon="10.3227920">
	<ele>924.20</ele>
	<time>2025-07-30T06:09:58.000Z</time>
</trkpt>
<trkpt lat="46.0382420" lon="10.3227630">
	<ele>924.40</ele>
	<time>2025-07-30T06:09:59.000Z</time>
</trkpt>
<trkpt lat="46.0382440" lon="10.3227410">
	<ele>924.60</ele>
	<time>2025-07-30T06:10:00.000Z</time>
</trkpt>
<trkpt lat="46.0382430" lon="10.3227150">
	<ele>924.60</ele>
	<time>2025-07-30T06:10:01.000Z</time>
</trkpt>
<trkpt lat="46.0382460" lon="10.3227050">
	<ele>925.00</ele>
	<time>2025-07-30T06:10:02.000Z</time>
</trkpt>
<trkpt lat="46.0382610" lon="10.3227090">
	<ele>925.20</ele>
	<time>2025-07-30T06:10:03.000Z</time>
</trkpt>
<trkpt lat="46.0382740" lon="10.3227290">
	<ele>925.40</ele>
	<time>2025-07-30T06:10:04.000Z</time>
</trkpt>
<trkpt lat="46.0382830" lon="10.3227440">
	<ele>925.60</ele>
	<time>2025-07-30T06:10:05.000Z</time>
</trkpt>
<trkpt lat="46.0382900" lon="10.3227420">
	<ele>925.60</ele>
	<time>2025-07-30T06:10:06.000Z</time>
</trkpt>
<trkpt lat="46.0382940" lon="10.3227410">
	<ele>925.80</ele>
	<time>2025-07-30T06:10:07.000Z</time>
</trkpt>
<trkpt lat="46.0382950" lon="10.3227340">
	<ele>926.00</ele>
	<time>2025-07-30T06:10:08.000Z</time>
</trkpt>
<trkpt lat="46.0383000" lon="10.3227280">
	<ele>926.20</ele>
	<time>2025-07-30T06:10:09.000Z</time>
</trkpt>
<trkpt lat="46.0383090" lon="10.3227170">
	<ele>926.40</ele>
	<time>2025-07-30T06:10:10.000Z</time>
</trkpt>
<trkpt lat="46.0383100" lon="10.3227220">
	<ele>926.60</ele>
	<time>2025-07-30T06:10:11.000Z</time>
</trkpt>
<trkpt lat="46.0383140" lon="10.3227210">
	<ele>926.80</ele>
	<time>2025-07-30T06:10:12.000Z</time>
</trkpt>
<trkpt lat="46.0383160" lon="10.3227180">
	<ele>926.80</ele>
	<time>2025-07-30T06:10:13.000Z</time>
</trkpt>
<trkpt lat="46.0383230" lon="10.3227110">
	<ele>927.20</ele>
	<time>2025-07-30T06:10:14.000Z</time>
</trkpt>
<trkpt lat="46.0383320" lon="10.3226970">
	<ele>927.20</ele>
	<time>2025-07-30T06:10:15.000Z</time>
</trkpt>
<trkpt lat="46.0383430" lon="10.3226820">
	<ele>927.40</ele>
	<time>2025-07-30T06:10:16.000Z</time>
</trkpt>
<trkpt lat="46.0383460" lon="10.3226790">
	<ele>927.40</ele>
	<time>2025-07-30T06:10:17.000Z</time>
</trkpt>
<trkpt lat="46.0383560" lon="10.3226670">
	<ele>927.60</ele>
	<time>2025-07-30T06:10:18.000Z</time>
</trkpt>
<trkpt lat="46.0383650" lon="10.3226660">
	<ele>927.80</ele>
	<time>2025-07-30T06:10:19.000Z</time>
</trkpt>
<trkpt lat="46.0383710" lon="10.3226680">
	<ele>928.00</ele>
	<time>2025-07-30T06:10:20.000Z</time>
</trkpt>
<trkpt lat="46.0383750" lon="10.3226690">
	<ele>928.00</ele>
	<time>2025-07-30T06:10:21.000Z</time>
</trkpt>
<trkpt lat="46.0383730" lon="10.3226650">
	<ele>928.20</ele>
	<time>2025-07-30T06:10:22.000Z</time>
</trkpt>
<trkpt lat="46.0383770" lon="10.3226630">
	<ele>928.40</ele>
	<time>2025-07-30T06:10:23.000Z</time>
</trkpt>
<trkpt lat="46.0383820" lon="10.3226650">
	<ele>928.60</ele>
	<time>2025-07-30T06:10:24.000Z</time>
</trkpt>
<trkpt lat="46.0383890" lon="10.3226690">
	<ele>928.80</ele>
	<time>2025-07-30T06:10:25.000Z</time>
</trkpt>
<trkpt lat="46.0383930" lon="10.3226820">
	<ele>929.20</ele>
	<time>2025-07-30T06:10:26.000Z</time>
</trkpt>
<trkpt lat="46.0383990" lon="10.3226920">
	<ele>929.40</ele>
	<time>2025-07-30T06:10:27.000Z</time>
</trkpt>
<trkpt lat="46.0384010" lon="10.3226960">
	<ele>929.80</ele>
	<time>2025-07-30T06:10:28.000Z</time>
</trkpt>
<trkpt lat="46.0384060" lon="10.3226980">
	<ele>929.80</ele>
	<time>2025-07-30T06:10:29.000Z</time>
</trkpt>
<trkpt lat="46.0384160" lon="10.3226900">
	<ele>930.00</ele>
	<time>2025-07-30T06:10:30.000Z</time>
</trkpt>
<trkpt lat="46.0384300" lon="10.3226840">
	<ele>930.00</ele>
	<time>2025-07-30T06:10:31.000Z</time>
</trkpt>
<trkpt lat="46.0384470" lon="10.3226690">
	<ele>930.20</ele>
	<time>2025-07-30T06:10:32.000Z</time>
</trkpt>
<trkpt lat="46.0384640" lon="10.3226560">
	<ele>930.20</ele>
	<time>2025-07-30T06:10:33.000Z</time>
</trkpt>
<trkpt lat="46.0384670" lon="10.3226570">
	<ele>930.20</ele>
	<time>2025-07-30T06:10:34.000Z</time>
</trkpt>
<trkpt lat="46.0384680" lon="10.3226680">
	<ele>930.40</ele>
	<time>2025-07-30T06:10:35.000Z</time>
</trkpt>
<trkpt lat="46.0384690" lon="10.3226790">
	<ele>930.40</ele>
	<time>2025-07-30T06:10:36.000Z</time>
</trkpt>
<trkpt lat="46.0384680" lon="10.3226820">
	<ele>930.40</ele>
	<time>2025-07-30T06:10:37.000Z</time>
</trkpt>
<trkpt lat="46.0384720" lon="10.3226750">
	<ele>930.60</ele>
	<time>2025-07-30T06:10:38.000Z</time>
</trkpt>
<trkpt lat="46.0384770" lon="10.3226630">
	<ele>930.60</ele>
	<time>2025-07-30T06:10:39.000Z</time>
</trkpt>
<trkpt lat="46.0384760" lon="10.3226630">
	<ele>930.60</ele>
	<time>2025-07-30T06:10:40.000Z</time>
</trkpt>
<trkpt lat="46.0384830" lon="10.3226550">
	<ele>930.80</ele>
	<time>2025-07-30T06:10:41.000Z</time>
</trkpt>
<trkpt lat="46.0384830" lon="10.3226520">
	<ele>930.80</ele>
	<time>2025-07-30T06:10:42.000Z</time>
</trkpt>
<trkpt lat="46.0384870" lon="10.3226470">
	<ele>930.80</ele>
	<time>2025-07-30T06:10:43.000Z</time>
</trkpt>
<trkpt lat="46.0384990" lon="10.3226380">
	<ele>931.00</ele>
	<time>2025-07-30T06:10:44.000Z</time>
</trkpt>
<trkpt lat="46.0385120" lon="10.3226300">
	<ele>931.00</ele>
	<time>2025-07-30T06:10:45.000Z</time>
</trkpt>
<trkpt lat="46.0385240" lon="10.3226210">
	<ele>931.20</ele>
	<time>2025-07-30T06:10:46.000Z</time>
</trkpt>
<trkpt lat="46.0385390" lon="10.3226120">
	<ele>931.20</ele>
	<time>2025-07-30T06:10:47.000Z</time>
</trkpt>
<trkpt lat="46.0385440" lon="10.3226110">
	<ele>931.40</ele>
	<time>2025-07-30T06:10:48.000Z</time>
</trkpt>
<trkpt lat="46.0385460" lon="10.3226110">
	<ele>931.40</ele>
	<time>2025-07-30T06:10:49.000Z</time>
</trkpt>
<trkpt lat="46.0385560" lon="10.3226050">
	<ele>931.40</ele>
	<time>2025-07-30T06:10:50.000Z</time>
</trkpt>
<trkpt lat="46.0385690" lon="10.3225900">
	<ele>931.40</ele>
	<time>2025-07-30T06:10:51.000Z</time>
</trkpt>
<trkpt lat="46.0385810" lon="10.3225790">
	<ele>931.40</ele>
	<time>2025-07-30T06:10:52.000Z</time>
</trkpt>
<trkpt lat="46.0385900" lon="10.3225640">
	<ele>931.60</ele>
	<time>2025-07-30T06:10:53.000Z</time>
</trkpt>
<trkpt lat="46.0385920" lon="10.3225600">
	<ele>931.60</ele>
	<time>2025-07-30T06:10:54.000Z</time>
</trkpt>
<trkpt lat="46.0386010" lon="10.3225480">
	<ele>931.80</ele>
	<time>2025-07-30T06:10:55.000Z</time>
</trkpt>
<trkpt lat="46.0386060" lon="10.3225420">
	<ele>931.80</ele>
	<time>2025-07-30T06:10:56.000Z</time>
</trkpt>
<trkpt lat="46.0386070" lon="10.3225330">
	<ele>932.00</ele>
	<time>2025-07-30T06:10:57.000Z</time>
</trkpt>
<trkpt lat="46.0386190" lon="10.3225230">
	<ele>932.20</ele>
	<time>2025-07-30T06:10:58.000Z</time>
</trkpt>
<trkpt lat="46.0386300" lon="10.3225130">
	<ele>932.40</ele>
	<time>2025-07-30T06:10:59.000Z</time>
</trkpt>
<trkpt lat="46.0386410" lon="10.3224940">
	<ele>932.60</ele>
	<time>2025-07-30T06:11:00.000Z</time>
</trkpt>
<trkpt lat="46.0386510" lon="10.3224780">
	<ele>932.60</ele>
	<time>2025-07-30T06:11:01.000Z</time>
</trkpt>
<trkpt lat="46.0386510" lon="10.3224770">
	<ele>932.80</ele>
	<time>2025-07-30T06:11:02.000Z</time>
</trkpt>
<trkpt lat="46.0386640" lon="10.3224600">
	<ele>933.00</ele>
	<time>2025-07-30T06:11:03.000Z</time>
</trkpt>
<trkpt lat="46.0386640" lon="10.3224590">
	<ele>933.20</ele>
	<time>2025-07-30T06:11:04.000Z</time>
</trkpt>
<trkpt lat="46.0386740" lon="10.3224420">
	<ele>933.40</ele>
	<time>2025-07-30T06:11:05.000Z</time>
</trkpt>
<trkpt lat="46.0386730" lon="10.3224440">
	<ele>933.80</ele>
	<time>2025-07-30T06:11:06.000Z</time>
</trkpt>
<trkpt lat="46.0386910" lon="10.3224240">
	<ele>934.00</ele>
	<time>2025-07-30T06:11:07.000Z</time>
</trkpt>
<trkpt lat="46.0387070" lon="10.3224050">
	<ele>934.00</ele>
	<time>2025-07-30T06:11:08.000Z</time>
</trkpt>
<trkpt lat="46.0387260" lon="10.3223870">
	<ele>934.20</ele>
	<time>2025-07-30T06:11:09.000Z</time>
</trkpt>
<trkpt lat="46.0387260" lon="10.3223830">
	<ele>934.40</ele>
	<time>2025-07-30T06:11:10.000Z</time>
</trkpt>
<trkpt lat="46.0387300" lon="10.3223750">
	<ele>934.60</ele>
	<time>2025-07-30T06:11:11.000Z</time>
</trkpt>
<trkpt lat="46.0387370" lon="10.3223670">
	<ele>934.80</ele>
	<time>2025-07-30T06:11:12.000Z</time>
</trkpt>
<trkpt lat="46.0387440" lon="10.3223520">
	<ele>934.80</ele>
	<time>2025-07-30T06:11:13.000Z</time>
</trkpt>
<trkpt lat="46.0387500" lon="10.3223380">
	<ele>935.20</ele>
	<time>2025-07-30T06:11:14.000Z</time>
</trkpt>
<trkpt lat="46.0387560" lon="10.3223200">
	<ele>935.40</ele>
	<time>2025-07-30T06:11:15.000Z</time>
</trkpt>
<trkpt lat="46.0387650" lon="10.3223080">
	<ele>935.60</ele>
	<time>2025-07-30T06:11:16.000Z</time>
</trkpt>
<trkpt lat="46.0387750" lon="10.3222940">
	<ele>935.80</ele>
	<time>2025-07-30T06:11:17.000Z</time>
</trkpt>
<trkpt lat="46.0387830" lon="10.3222860">
	<ele>936.00</ele>
	<time>2025-07-30T06:11:18.000Z</time>
</trkpt>
<trkpt lat="46.0387940" lon="10.3222730">
	<ele>936.20</ele>
	<time>2025-07-30T06:11:19.000Z</time>
</trkpt>
<trkpt lat="46.0387980" lon="10.3222680">
	<ele>936.40</ele>
	<time>2025-07-30T06:11:20.000Z</time>
</trkpt>
<trkpt lat="46.0388090" lon="10.3222510">
	<ele>936.60</ele>
	<time>2025-07-30T06:11:21.000Z</time>
</trkpt>
<trkpt lat="46.0388140" lon="10.3222450">
	<ele>936.80</ele>
	<time>2025-07-30T06:11:22.000Z</time>
</trkpt>
<trkpt lat="46.0388130" lon="10.3222360">
	<ele>937.00</ele>
	<time>2025-07-30T06:11:23.000Z</time>
</trkpt>
<trkpt lat="46.0388110" lon="10.3222210">
	<ele>937.20</ele>
	<time>2025-07-30T06:11:24.000Z</time>
</trkpt>
<trkpt lat="46.0388130" lon="10.3222040">
	<ele>937.60</ele>
	<time>2025-07-30T06:11:25.000Z</time>
</trkpt>
<trkpt lat="46.0388160" lon="10.3221840">
	<ele>937.80</ele>
	<time>2025-07-30T06:11:26.000Z</time>
</trkpt>
<trkpt lat="46.0388250" lon="10.3221490">
	<ele>938.00</ele>
	<time>2025-07-30T06:11:27.000Z</time>
</trkpt>
<trkpt lat="46.0388430" lon="10.3221130">
	<ele>938.00</ele>
	<time>2025-07-30T06:11:28.000Z</time>
</trkpt>
<trkpt lat="46.0388580" lon="10.3220770">
	<ele>938.20</ele>
	<time>2025-07-30T06:11:29.000Z</time>
</trkpt>
<trkpt lat="46.0388570" lon="10.3220590">
	<ele>938.40</ele>
	<time>2025-07-30T06:11:30.000Z</time>
</trkpt>
<trkpt lat="46.0388510" lon="10.3220600">
	<ele>938.40</ele>
	<time>2025-07-30T06:11:31.000Z</time>
</trkpt>
<trkpt lat="46.0388530" lon="10.3220560">
	<ele>938.80</ele>
	<time>2025-07-30T06:11:32.000Z</time>
</trkpt>
<trkpt lat="46.0388420" lon="10.3220680">
	<ele>938.80</ele>
	<time>2025-07-30T06:11:33.000Z</time>
</trkpt>
<trkpt lat="46.0388450" lon="10.3220650">
	<ele>939.00</ele>
	<time>2025-07-30T06:11:34.000Z</time>
</trkpt>
<trkpt lat="46.0388450" lon="10.3220600">
	<ele>939.00</ele>
	<time>2025-07-30T06:11:35.000Z</time>
</trkpt>
<trkpt lat="46.0388490" lon="10.3220600">
	<ele>939.20</ele>
	<time>2025-07-30T06:11:36.000Z</time>
</trkpt>
<trkpt lat="46.0388620" lon="10.3220460">
	<ele>939.40</ele>
	<time>2025-07-30T06:11:37.000Z</time>
</trkpt>
<trkpt lat="46.0388700" lon="10.3220500">
	<ele>939.60</ele>
	<time>2025-07-30T06:11:38.000Z</time>
</trkpt>
<trkpt lat="46.0388710" lon="10.3220650">
	<ele>939.80</ele>
	<time>2025-07-30T06:11:39.000Z</time>
</trkpt>
<trkpt lat="46.0388840" lon="10.3220710">
	<ele>939.80</ele>
	<time>2025-07-30T06:11:40.000Z</time>
</trkpt>
<trkpt lat="46.0388900" lon="10.3220870">
	<ele>940.20</ele>
	<time>2025-07-30T06:11:41.000Z</time>
</trkpt>
<trkpt lat="46.0388950" lon="10.3220930">
	<ele>940.40</ele>
	<time>2025-07-30T06:11:42.000Z</time>
</trkpt>
<trkpt lat="46.0389040" lon="10.3220890">
	<ele>940.60</ele>
	<time>2025-07-30T06:11:43.000Z</time>
</trkpt>
<trkpt lat="46.0389120" lon="10.3220900">
	<ele>940.60</ele>
	<time>2025-07-30T06:11:44.000Z</time>
</trkpt>
<trkpt lat="46.0389180" lon="10.3220920">
	<ele>940.80</ele>
	<time>2025-07-30T06:11:45.000Z</time>
</trkpt>
<trkpt lat="46.0389240" lon="10.3221000">
	<ele>941.00</ele>
	<time>2025-07-30T06:11:46.000Z</time>
</trkpt>
<trkpt lat="46.0389300" lon="10.3221050">
	<ele>941.20</ele>
	<time>2025-07-30T06:11:47.000Z</time>
</trkpt>
<trkpt lat="46.0389370" lon="10.3221030">
	<ele>941.40</ele>
	<time>2025-07-30T06:11:48.000Z</time>
</trkpt>
<trkpt lat="46.0389420" lon="10.3221040">
	<ele>941.80</ele>
	<time>2025-07-30T06:11:49.000Z</time>
</trkpt>
<trkpt lat="46.0389460" lon="10.3221080">
	<ele>941.80</ele>
	<time>2025-07-30T06:11:50.000Z</time>
</trkpt>
<trkpt lat="46.0389530" lon="10.3221070">
	<ele>942.00</ele>
	<time>2025-07-30T06:11:51.000Z</time>
</trkpt>
<trkpt lat="46.0389570" lon="10.3221120">
	<ele>942.20</ele>
	<time>2025-07-30T06:11:52.000Z</time>
</trkpt>
<trkpt lat="46.0389640" lon="10.3221170">
	<ele>942.20</ele>
	<time>2025-07-30T06:11:53.000Z</time>
</trkpt>
<trkpt lat="46.0389690" lon="10.3221260">
	<ele>942.40</ele>
	<time>2025-07-30T06:11:54.000Z</time>
</trkpt>
<trkpt lat="46.0389790" lon="10.3221270">
	<ele>942.40</ele>
	<time>2025-07-30T06:11:55.000Z</time>
</trkpt>
<trkpt lat="46.0389890" lon="10.3221350">
	<ele>942.40</ele>
	<time>2025-07-30T06:11:56.000Z</time>
</trkpt>
<trkpt lat="46.0390020" lon="10.3221460">
	<ele>942.40</ele>
	<time>2025-07-30T06:11:57.000Z</time>
</trkpt>
<trkpt lat="46.0390180" lon="10.3221600">
	<ele>942.60</ele>
	<time>2025-07-30T06:11:58.000Z</time>
</trkpt>
<trkpt lat="46.0390300" lon="10.3221600">
	<ele>942.60</ele>
	<time>2025-07-30T06:11:59.000Z</time>
</trkpt>
<trkpt lat="46.0390430" lon="10.3221600">
	<ele>942.60</ele>
	<time>2025-07-30T06:12:00.000Z</time>
</trkpt>
<trkpt lat="46.0390600" lon="10.3221470">
	<ele>942.60</ele>
	<time>2025-07-30T06:12:01.000Z</time>
</trkpt>
<trkpt lat="46.0390720" lon="10.3221310">
	<ele>942.80</ele>
	<time>2025-07-30T06:12:02.000Z</time>
</trkpt>
<trkpt lat="46.0390830" lon="10.3221120">
	<ele>943.00</ele>
	<time>2025-07-30T06:12:03.000Z</time>
</trkpt>
<trkpt lat="46.0390920" lon="10.3221030">
	<ele>943.20</ele>
	<time>2025-07-30T06:12:04.000Z</time>
</trkpt>
<trkpt lat="46.0390960" lon="10.3220990">
	<ele>943.20</ele>
	<time>2025-07-30T06:12:05.000Z</time>
</trkpt>
<trkpt lat="46.0390980" lon="10.3220940">
	<ele>943.40</ele>
	<time>2025-07-30T06:12:06.000Z</time>
</trkpt>
<trkpt lat="46.0390980" lon="10.3220900">
	<ele>943.60</ele>
	<time>2025-07-30T06:12:07.000Z</time>
</trkpt>
<trkpt lat="46.0390980" lon="10.3220880">
	<ele>944.00</ele>
	<time>2025-07-30T06:12:08.000Z</time>
</trkpt>
<trkpt lat="46.0390980" lon="10.3220830">
	<ele>944.20</ele>
	<time>2025-07-30T06:12:09.000Z</time>
</trkpt>
<trkpt lat="46.0390970" lon="10.3220810">
	<ele>944.40</ele>
	<time>2025-07-30T06:12:10.000Z</time>
</trkpt>
<trkpt lat="46.0390980" lon="10.3220770">
	<ele>944.60</ele>
	<time>2025-07-30T06:12:11.000Z</time>
</trkpt>
<trkpt lat="46.0390980" lon="10.3220730">
	<ele>944.60</ele>
	<time>2025-07-30T06:12:12.000Z</time>
</trkpt>
<trkpt lat="46.0391000" lon="10.3220740">
	<ele>944.60</ele>
	<time>2025-07-30T06:12:13.000Z</time>
</trkpt>
<trkpt lat="46.0391030" lon="10.3220760">
	<ele>944.60</ele>
	<time>2025-07-30T06:12:14.000Z</time>
</trkpt>
<trkpt lat="46.0391070" lon="10.3220770">
	<ele>944.60</ele>
	<time>2025-07-30T06:12:15.000Z</time>
</trkpt>
<trkpt lat="46.0391170" lon="10.3220890">
	<ele>944.60</ele>
	<time>2025-07-30T06:12:16.000Z</time>
</trkpt>
<trkpt lat="46.0391260" lon="10.3220970">
	<ele>944.60</ele>
	<time>2025-07-30T06:12:17.000Z</time>
</trkpt>
<trkpt lat="46.0391290" lon="10.3221020">
	<ele>944.60</ele>
	<time>2025-07-30T06:12:18.000Z</time>
</trkpt>
<trkpt lat="46.0391310" lon="10.3221070">
	<ele>944.80</ele>
	<time>2025-07-30T06:12:19.000Z</time>
</trkpt>
<trkpt lat="46.0391440" lon="10.3221070">
	<ele>945.00</ele>
	<time>2025-07-30T06:12:20.000Z</time>
</trkpt>
<trkpt lat="46.0391550" lon="10.3220960">
	<ele>945.20</ele>
	<time>2025-07-30T06:12:21.000Z</time>
</trkpt>
<trkpt lat="46.0391640" lon="10.3220790">
	<ele>945.40</ele>
	<time>2025-07-30T06:12:22.000Z</time>
</trkpt>
<trkpt lat="46.0391720" lon="10.3220640">
	<ele>945.60</ele>
	<time>2025-07-30T06:12:23.000Z</time>
</trkpt>
<trkpt lat="46.0391750" lon="10.3220520">
	<ele>945.80</ele>
	<time>2025-07-30T06:12:24.000Z</time>
</trkpt>
<trkpt lat="46.0391780" lon="10.3220460">
	<ele>946.00</ele>
	<time>2025-07-30T06:12:25.000Z</time>
</trkpt>
<trkpt lat="46.0391790" lon="10.3220450">
	<ele>946.20</ele>
	<time>2025-07-30T06:12:26.000Z</time>
</trkpt>
<trkpt lat="46.0391820" lon="10.3220440">
	<ele>946.20</ele>
	<time>2025-07-30T06:12:27.000Z</time>
</trkpt>
<trkpt lat="46.0391840" lon="10.3220420">
	<ele>946.20</ele>
	<time>2025-07-30T06:12:28.000Z</time>
</trkpt>
<trkpt lat="46.0391890" lon="10.3220390">
	<ele>946.40</ele>
	<time>2025-07-30T06:12:29.000Z</time>
</trkpt>
<trkpt lat="46.0392000" lon="10.3220310">
	<ele>946.40</ele>
	<time>2025-07-30T06:12:30.000Z</time>
</trkpt>
<trkpt lat="46.0392120" lon="10.3220250">
	<ele>946.40</ele>
	<time>2025-07-30T06:12:31.000Z</time>
</trkpt>
<trkpt lat="46.0392230" lon="10.3220230">
	<ele>946.60</ele>
	<time>2025-07-30T06:12:32.000Z</time>
</trkpt>
<trkpt lat="46.0392270" lon="10.3220240">
	<ele>946.80</ele>
	<time>2025-07-30T06:12:33.000Z</time>
</trkpt>
<trkpt lat="46.0392350" lon="10.3220180">
	<ele>947.00</ele>
	<time>2025-07-30T06:12:34.000Z</time>
</trkpt>
<trkpt lat="46.0392350" lon="10.3220200">
	<ele>947.20</ele>
	<time>2025-07-30T06:12:35.000Z</time>
</trkpt>
<trkpt lat="46.0392340" lon="10.3220230">
	<ele>947.40</ele>
	<time>2025-07-30T06:12:36.000Z</time>
</trkpt>
<trkpt lat="46.0392340" lon="10.3220240">
	<ele>947.60</ele>
	<time>2025-07-30T06:12:37.000Z</time>
</trkpt>
<trkpt lat="46.0392370" lon="10.3220250">
	<ele>947.80</ele>
	<time>2025-07-30T06:12:38.000Z</time>
</trkpt>
<trkpt lat="46.0392420" lon="10.3220320">
	<ele>947.80</ele>
	<time>2025-07-30T06:12:39.000Z</time>
</trkpt>
<trkpt lat="46.0392500" lon="10.3220300">
	<ele>948.00</ele>
	<time>2025-07-30T06:12:40.000Z</time>
</trkpt>
<trkpt lat="46.0392590" lon="10.3220300">
	<ele>948.20</ele>
	<time>2025-07-30T06:12:41.000Z</time>
</trkpt>
<trkpt lat="46.0392650" lon="10.3220280">
	<ele>948.40</ele>
	<time>2025-07-30T06:12:42.000Z</time>
</trkpt>
<trkpt lat="46.0392750" lon="10.3220310">
	<ele>948.60</ele>
	<time>2025-07-30T06:12:43.000Z</time>
</trkpt>
<trkpt lat="46.0392820" lon="10.3220310">
	<ele>948.80</ele>
	<time>2025-07-30T06:12:44.000Z</time>
</trkpt>
<trkpt lat="46.0392870" lon="10.3220330">
	<ele>949.00</ele>
	<time>2025-07-30T06:12:45.000Z</time>
</trkpt>
<trkpt lat="46.0392930" lon="10.3220360">
	<ele>949.20</ele>
	<time>2025-07-30T06:12:46.000Z</time>
</trkpt>
<trkpt lat="46.0393000" lon="10.3220370">
	<ele>949.40</ele>
	<time>2025-07-30T06:12:47.000Z</time>
</trkpt>
<trkpt lat="46.0393050" lon="10.3220190">
	<ele>949.80</ele>
	<time>2025-07-30T06:12:48.000Z</time>
</trkpt>
<trkpt lat="46.0393070" lon="10.3220140">
	<ele>950.00</ele>
	<time>2025-07-30T06:12:49.000Z</time>
</trkpt>
<trkpt lat="46.0393090" lon="10.3220210">
	<ele>950.00</ele>
	<time>2025-07-30T06:12:50.000Z</time>
</trkpt>
<trkpt lat="46.0393150" lon="10.3220210">
	<ele>950.40</ele>
	<time>2025-07-30T06:12:51.000Z</time>
</trkpt>
<trkpt lat="46.0393260" lon="10.3220090">
	<ele>950.60</ele>
	<time>2025-07-30T06:12:52.000Z</time>
</trkpt>
<trkpt lat="46.0393380" lon="10.3219990">
	<ele>951.00</ele>
	<time>2025-07-30T06:12:53.000Z</time>
</trkpt>
<trkpt lat="46.0393500" lon="10.3219920">
	<ele>951.00</ele>
	<time>2025-07-30T06:12:54.000Z</time>
</trkpt>
<trkpt lat="46.0393520" lon="10.3219880">
	<ele>951.20</ele>
	<time>2025-07-30T06:12:55.000Z</time>
</trkpt>
<trkpt lat="46.0393560" lon="10.3219840">
	<ele>951.40</ele>
	<time>2025-07-30T06:12:56.000Z</time>
</trkpt>
<trkpt lat="46.0393550" lon="10.3220070">
	<ele>951.60</ele>
	<time>2025-07-30T06:12:57.000Z</time>
</trkpt>
<trkpt lat="46.0393530" lon="10.3220220">
	<ele>952.00</ele>
	<time>2025-07-30T06:12:58.000Z</time>
</trkpt>
<trkpt lat="46.0393620" lon="10.3220190">
	<ele>952.20</ele>
	<time>2025-07-30T06:12:59.000Z</time>
</trkpt>
<trkpt lat="46.0393820" lon="10.3220070">
	<ele>952.20</ele>
	<time>2025-07-30T06:13:00.000Z</time>
</trkpt>
<trkpt lat="46.0393940" lon="10.3220070">
	<ele>952.60</ele>
	<time>2025-07-30T06:13:01.000Z</time>
</trkpt>
<trkpt lat="46.0394070" lon="10.3220010">
	<ele>952.80</ele>
	<time>2025-07-30T06:13:02.000Z</time>
</trkpt>
<trkpt lat="46.0394110" lon="10.3220000">
	<ele>953.20</ele>
	<time>2025-07-30T06:13:03.000Z</time>
</trkpt>
<trkpt lat="46.0394130" lon="10.3220080">
	<ele>953.60</ele>
	<time>2025-07-30T06:13:04.000Z</time>
</trkpt>
<trkpt lat="46.0394190" lon="10.3220050">
	<ele>953.80</ele>
	<time>2025-07-30T06:13:05.000Z</time>
</trkpt>
<trkpt lat="46.0394200" lon="10.3220040">
	<ele>954.00</ele>
	<time>2025-07-30T06:13:06.000Z</time>
</trkpt>
<trkpt lat="46.0394130" lon="10.3220030">
	<ele>954.20</ele>
	<time>2025-07-30T06:13:07.000Z</time>
</trkpt>
<trkpt lat="46.0394100" lon="10.3220030">
	<ele>954.40</ele>
	<time>2025-07-30T06:13:08.000Z</time>
</trkpt>
<trkpt lat="46.0394130" lon="10.3220020">
	<ele>954.80</ele>
	<time>2025-07-30T06:13:09.000Z</time>
</trkpt>
<trkpt lat="46.0394240" lon="10.3220000">
	<ele>955.00</ele>
	<time>2025-07-30T06:13:10.000Z</time>
</trkpt>
<trkpt lat="46.0394340" lon="10.3219990">
	<ele>955.40</ele>
	<time>2025-07-30T06:13:11.000Z</time>
</trkpt>
<trkpt lat="46.0394430" lon="10.3219980">
	<ele>955.60</ele>
	<time>2025-07-30T06:13:12.000Z</time>
</trkpt>
<trkpt lat="46.0394520" lon="10.3219980">
	<ele>955.80</ele>
	<time>2025-07-30T06:13:13.000Z</time>
</trkpt>
<trkpt lat="46.0394540" lon="10.3219980">
	<ele>956.00</ele>
	<time>2025-07-30T06:13:14.000Z</time>
</trkpt>
<trkpt lat="46.0394670" lon="10.3220040">
	<ele>956.00</ele>
	<time>2025-07-30T06:13:15.000Z</time>
</trkpt>
<trkpt lat="46.0394680" lon="10.3220130">
	<ele>956.20</ele>
	<time>2025-07-30T06:13:16.000Z</time>
</trkpt>
<trkpt lat="46.0394700" lon="10.3220090">
	<ele>956.40</ele>
	<time>2025-07-30T06:13:17.000Z</time>
</trkpt>
<trkpt lat="46.0394750" lon="10.3219970">
	<ele>956.60</ele>
	<time>2025-07-30T06:13:18.000Z</time>
</trkpt>
<trkpt lat="46.0394800" lon="10.3219890">
	<ele>956.80</ele>
	<time>2025-07-30T06:13:19.000Z</time>
</trkpt>
<trkpt lat="46.0394920" lon="10.3219720">
	<ele>957.00</ele>
	<time>2025-07-30T06:13:20.000Z</time>
</trkpt>
<trkpt lat="46.0395070" lon="10.3219620">
	<ele>957.20</ele>
	<time>2025-07-30T06:13:21.000Z</time>
</trkpt>
<trkpt lat="46.0395130" lon="10.3219550">
	<ele>957.20</ele>
	<time>2025-07-30T06:13:22.000Z</time>
</trkpt>
<trkpt lat="46.0395250" lon="10.3219700">
	<ele>957.40</ele>
	<time>2025-07-30T06:13:23.000Z</time>
</trkpt>
<trkpt lat="46.0395390" lon="10.3219770">
	<ele>957.60</ele>
	<time>2025-07-30T06:13:24.000Z</time>
</trkpt>
<trkpt lat="46.0395530" lon="10.3219740">
	<ele>957.80</ele>
	<time>2025-07-30T06:13:25.000Z</time>
</trkpt>
<trkpt lat="46.0395650" lon="10.3219830">
	<ele>958.00</ele>
	<time>2025-07-30T06:13:26.000Z</time>
</trkpt>
<trkpt lat="46.0395730" lon="10.3219940">
	<ele>958.40</ele>
	<time>2025-07-30T06:13:27.000Z</time>
</trkpt>
<trkpt lat="46.0395760" lon="10.3219960">
	<ele>958.60</ele>
	<time>2025-07-30T06:13:28.000Z</time>
</trkpt>
<trkpt lat="46.0395700" lon="10.3220130">
	<ele>958.80</ele>
	<time>2025-07-30T06:13:29.000Z</time>
</trkpt>
<trkpt lat="46.0395720" lon="10.3220270">
	<ele>958.80</ele>
	<time>2025-07-30T06:13:30.000Z</time>
</trkpt>
<trkpt lat="46.0395750" lon="10.3220360">
	<ele>959.20</ele>
	<time>2025-07-30T06:13:31.000Z</time>
</trkpt>
<trkpt lat="46.0395780" lon="10.3220360">
	<ele>959.40</ele>
	<time>2025-07-30T06:13:32.000Z</time>
</trkpt>
<trkpt lat="46.0395820" lon="10.3220330">
	<ele>959.60</ele>
	<time>2025-07-30T06:13:33.000Z</time>
</trkpt>
<trkpt lat="46.0395870" lon="10.3220190">
	<ele>959.80</ele>
	<time>2025-07-30T06:13:34.000Z</time>
</trkpt>
<trkpt lat="46.0395960" lon="10.3220080">
	<ele>960.00</ele>
	<time>2025-07-30T06:13:35.000Z</time>
</trkpt>
<trkpt lat="46.0396090" lon="10.3220060">
	<ele>960.20</ele>
	<time>2025-07-30T06:13:36.000Z</time>
</trkpt>
<trkpt lat="46.0396210" lon="10.3219940">
	<ele>960.40</ele>
	<time>2025-07-30T06:13:37.000Z</time>
</trkpt>
<trkpt lat="46.0396300" lon="10.3219880">
	<ele>960.40</ele>
	<time>2025-07-30T06:13:38.000Z</time>
</trkpt>
<trkpt lat="46.0396370" lon="10.3219930">
	<ele>960.60</ele>
	<time>2025-07-30T06:13:39.000Z</time>
</trkpt>
<trkpt lat="46.0396410" lon="10.3220030">
	<ele>960.60</ele>
	<time>2025-07-30T06:13:40.000Z</time>
</trkpt>
<trkpt lat="46.0396450" lon="10.3220160">
	<ele>960.80</ele>
	<time>2025-07-30T06:13:41.000Z</time>
</trkpt>
<trkpt lat="46.0396500" lon="10.3220360">
	<ele>960.80</ele>
	<time>2025-07-30T06:13:42.000Z</time>
</trkpt>
<trkpt lat="46.0396560" lon="10.3220620">
	<ele>961.00</ele>
	<time>2025-07-30T06:13:43.000Z</time>
</trkpt>
<trkpt lat="46.0396630" lon="10.3220800">
	<ele>961.20</ele>
	<time>2025-07-30T06:13:44.000Z</time>
</trkpt>
<trkpt lat="46.0396720" lon="10.3220850">
	<ele>961.20</ele>
	<time>2025-07-30T06:13:45.000Z</time>
</trkpt>
<trkpt lat="46.0396800" lon="10.3220890">
	<ele>961.40</ele>
	<time>2025-07-30T06:13:46.000Z</time>
</trkpt>
<trkpt lat="46.0396910" lon="10.3220930">
	<ele>961.40</ele>
	<time>2025-07-30T06:13:47.000Z</time>
</trkpt>
<trkpt lat="46.0397040" lon="10.3220970">
	<ele>961.60</ele>
	<time>2025-07-30T06:13:48.000Z</time>
</trkpt>
<trkpt lat="46.0397150" lon="10.3221010">
	<ele>961.80</ele>
	<time>2025-07-30T06:13:49.000Z</time>
</trkpt>
<trkpt lat="46.0397250" lon="10.3221030">
	<ele>962.00</ele>
	<time>2025-07-30T06:13:50.000Z</time>
</trkpt>
<trkpt lat="46.0397380" lon="10.3221080">
	<ele>962.40</ele>
	<time>2025-07-30T06:13:51.000Z</time>
</trkpt>
<trkpt lat="46.0397490" lon="10.3221100">
	<ele>962.40</ele>
	<time>2025-07-30T06:13:52.000Z</time>
</trkpt>
<trkpt lat="46.0397560" lon="10.3221170">
	<ele>962.40</ele>
	<time>2025-07-30T06:13:53.000Z</time>
</trkpt>
<trkpt lat="46.0397610" lon="10.3221210">
	<ele>962.60</ele>
	<time>2025-07-30T06:13:54.000Z</time>
</trkpt>
<trkpt lat="46.0397650" lon="10.3221340">
	<ele>962.80</ele>
	<time>2025-07-30T06:13:55.000Z</time>
</trkpt>
<trkpt lat="46.0397710" lon="10.3221500">
	<ele>963.00</ele>
	<time>2025-07-30T06:13:56.000Z</time>
</trkpt>
<trkpt lat="46.0397820" lon="10.3221660">
	<ele>963.00</ele>
	<time>2025-07-30T06:13:57.000Z</time>
</trkpt>
<trkpt lat="46.0397960" lon="10.3221820">
	<ele>963.20</ele>
	<time>2025-07-30T06:13:58.000Z</time>
</trkpt>
<trkpt lat="46.0398090" lon="10.3221840">
	<ele>963.20</ele>
	<time>2025-07-30T06:13:59.000Z</time>
</trkpt>
<trkpt lat="46.0398190" lon="10.3221870">
	<ele>963.60</ele>
	<time>2025-07-30T06:14:00.000Z</time>
</trkpt>
<trkpt lat="46.0398330" lon="10.3221880">
	<ele>963.80</ele>
	<time>2025-07-30T06:14:01.000Z</time>
</trkpt>
<trkpt lat="46.0398460" lon="10.3221890">
	<ele>963.80</ele>
	<time>2025-07-30T06:14:02.000Z</time>
</trkpt>
<trkpt lat="46.0398590" lon="10.3221920">
	<ele>964.00</ele>
	<time>2025-07-30T06:14:03.000Z</time>
</trkpt>
<trkpt lat="46.0398690" lon="10.3221990">
	<ele>964.00</ele>
	<time>2025-07-30T06:14:04.000Z</time>
</trkpt>
<trkpt lat="46.0398770" lon="10.3222080">
	<ele>964.00</ele>
	<time>2025-07-30T06:14:05.000Z</time>
</trkpt>
<trkpt lat="46.0398780" lon="10.3222130">
	<ele>964.20</ele>
	<time>2025-07-30T06:14:06.000Z</time>
</trkpt>
<trkpt lat="46.0398760" lon="10.3222150">
	<ele>964.20</ele>
	<time>2025-07-30T06:14:07.000Z</time>
</trkpt>
<trkpt lat="46.0398790" lon="10.3222220">
	<ele>964.20</ele>
	<time>2025-07-30T06:14:08.000Z</time>
</trkpt>
<trkpt lat="46.0398840" lon="10.3222310">
	<ele>964.20</ele>
	<time>2025-07-30T06:14:09.000Z</time>
</trkpt>
<trkpt lat="46.0398920" lon="10.3222370">
	<ele>964.20</ele>
	<time>2025-07-30T06:14:10.000Z</time>
</trkpt>
<trkpt lat="46.0398950" lon="10.3222490">
	<ele>964.40</ele>
	<time>2025-07-30T06:14:11.000Z</time>
</trkpt>
<trkpt lat="46.0398930" lon="10.3222560">
	<ele>964.40</ele>
	<time>2025-07-30T06:14:12.000Z</time>
</trkpt>
<trkpt lat="46.0398960" lon="10.3222590">
	<ele>964.60</ele>
	<time>2025-07-30T06:14:13.000Z</time>
</trkpt>
<trkpt lat="46.0399030" lon="10.3222660">
	<ele>964.80</ele>
	<time>2025-07-30T06:14:14.000Z</time>
</trkpt>
<trkpt lat="46.0399090" lon="10.3222810">
	<ele>965.00</ele>
	<time>2025-07-30T06:14:15.000Z</time>
</trkpt>
<trkpt lat="46.0399140" lon="10.3223000">
	<ele>965.00</ele>
	<time>2025-07-30T06:14:16.000Z</time>
</trkpt>
<trkpt lat="46.0399160" lon="10.3223010">
	<ele>965.40</ele>
	<time>2025-07-30T06:14:17.000Z</time>
</trkpt>
<trkpt lat="46.0399130" lon="10.3223180">
	<ele>965.80</ele>
	<time>2025-07-30T06:14:18.000Z</time>
</trkpt>
<trkpt lat="46.0399220" lon="10.3223410">
	<ele>965.80</ele>
	<time>2025-07-30T06:14:19.000Z</time>
</trkpt>
<trkpt lat="46.0399270" lon="10.3223610">
	<ele>966.00</ele>
	<time>2025-07-30T06:14:20.000Z</time>
</trkpt>
<trkpt lat="46.0399270" lon="10.3223760">
	<ele>966.00</ele>
	<time>2025-07-30T06:14:21.000Z</time>
</trkpt>
<trkpt lat="46.0399250" lon="10.3223920">
	<ele>966.20</ele>
	<time>2025-07-30T06:14:22.000Z</time>
</trkpt>
<trkpt lat="46.0399270" lon="10.3224030">
	<ele>966.20</ele>
	<time>2025-07-30T06:14:23.000Z</time>
</trkpt>
<trkpt lat="46.0399300" lon="10.3224180">
	<ele>966.40</ele>
	<time>2025-07-30T06:14:24.000Z</time>
</trkpt>
<trkpt lat="46.0399360" lon="10.3224350">
	<ele>966.40</ele>
	<time>2025-07-30T06:14:25.000Z</time>
</trkpt>
<trkpt lat="46.0399430" lon="10.3224540">
	<ele>966.60</ele>
	<time>2025-07-30T06:14:26.000Z</time>
</trkpt>
<trkpt lat="46.0399500" lon="10.3224690">
	<ele>966.60</ele>
	<time>2025-07-30T06:14:27.000Z</time>
</trkpt>
<trkpt lat="46.0399580" lon="10.3224850">
	<ele>966.80</ele>
	<time>2025-07-30T06:14:28.000Z</time>
</trkpt>
<trkpt lat="46.0399640" lon="10.3225010">
	<ele>967.00</ele>
	<time>2025-07-30T06:14:29.000Z</time>
</trkpt>
<trkpt lat="46.0399780" lon="10.3225190">
	<ele>967.00</ele>
	<time>2025-07-30T06:14:30.000Z</time>
</trkpt>
<trkpt lat="46.0399770" lon="10.3225280">
	<ele>967.00</ele>
	<time>2025-07-30T06:14:31.000Z</time>
</trkpt>
<trkpt lat="46.0399710" lon="10.3225480">
	<ele>967.20</ele>
	<time>2025-07-30T06:14:32.000Z</time>
</trkpt>
<trkpt lat="46.0399700" lon="10.3225730">
	<ele>967.20</ele>
	<time>2025-07-30T06:14:33.000Z</time>
</trkpt>
<trkpt lat="46.0399720" lon="10.3225930">
	<ele>967.40</ele>
	<time>2025-07-30T06:14:34.000Z</time>
</trkpt>
<trkpt lat="46.0399760" lon="10.3226120">
	<ele>967.60</ele>
	<time>2025-07-30T06:14:35.000Z</time>
</trkpt>
<trkpt lat="46.0399800" lon="10.3226310">
	<ele>967.60</ele>
	<time>2025-07-30T06:14:36.000Z</time>
</trkpt>
<trkpt lat="46.0399850" lon="10.3226440">
	<ele>967.80</ele>
	<time>2025-07-30T06:14:37.000Z</time>
</trkpt>
<trkpt lat="46.0399860" lon="10.3226570">
	<ele>967.80</ele>
	<time>2025-07-30T06:14:38.000Z</time>
</trkpt>
<trkpt lat="46.0399880" lon="10.3226710">
	<ele>967.80</ele>
	<time>2025-07-30T06:14:39.000Z</time>
</trkpt>
<trkpt lat="46.0399860" lon="10.3226880">
	<ele>968.00</ele>
	<time>2025-07-30T06:14:40.000Z</time>
</trkpt>
<trkpt lat="46.0399860" lon="10.3227020">
	<ele>968.00</ele>
	<time>2025-07-30T06:14:41.000Z</time>
</trkpt>
<trkpt lat="46.0399830" lon="10.3227180">
	<ele>968.00</ele>
	<time>2025-07-30T06:14:42.000Z</time>
</trkpt>
<trkpt lat="46.0399820" lon="10.3227310">
	<ele>968.20</ele>
	<time>2025-07-30T06:14:43.000Z</time>
</trkpt>
<trkpt lat="46.0399870" lon="10.3227480">
	<ele>968.40</ele>
	<time>2025-07-30T06:14:44.000Z</time>
</trkpt>
<trkpt lat="46.0399910" lon="10.3227550">
	<ele>968.40</ele>
	<time>2025-07-30T06:14:45.000Z</time>
</trkpt>
<trkpt lat="46.0399910" lon="10.3227650">
	<ele>968.60</ele>
	<time>2025-07-30T06:14:46.000Z</time>
</trkpt>
<trkpt lat="46.0399950" lon="10.3227790">
	<ele>968.60</ele>
	<time>2025-07-30T06:14:47.000Z</time>
</trkpt>
<trkpt lat="46.0399950" lon="10.3227930">
	<ele>968.80</ele>
	<time>2025-07-30T06:14:48.000Z</time>
</trkpt>
<trkpt lat="46.0399930" lon="10.3228090">
	<ele>968.80</ele>
	<time>2025-07-30T06:14:49.000Z</time>
</trkpt>
<trkpt lat="46.0399840" lon="10.3228280">
	<ele>969.00</ele>
	<time>2025-07-30T06:14:50.000Z</time>
</trkpt>
<trkpt lat="46.0399770" lon="10.3228420">
	<ele>969.00</ele>
	<time>2025-07-30T06:14:51.000Z</time>
</trkpt>
<trkpt lat="46.0399740" lon="10.3228580">
	<ele>969.20</ele>
	<time>2025-07-30T06:14:52.000Z</time>
</trkpt>
<trkpt lat="46.0399810" lon="10.3228630">
	<ele>969.20</ele>
	<time>2025-07-30T06:14:53.000Z</time>
</trkpt>
<trkpt lat="46.0399970" lon="10.3228470">
	<ele>969.40</ele>
	<time>2025-07-30T06:14:54.000Z</time>
</trkpt>
<trkpt lat="46.0400100" lon="10.3228350">
	<ele>969.40</ele>
	<time>2025-07-30T06:14:55.000Z</time>
</trkpt>
<trkpt lat="46.0400130" lon="10.3228440">
	<ele>969.60</ele>
	<time>2025-07-30T06:14:56.000Z</time>
</trkpt>
<trkpt lat="46.0400120" lon="10.3228640">
	<ele>969.80</ele>
	<time>2025-07-30T06:14:57.000Z</time>
</trkpt>
<trkpt lat="46.0400150" lon="10.3228850">
	<ele>969.80</ele>
	<time>2025-07-30T06:14:58.000Z</time>
</trkpt>
<trkpt lat="46.0400220" lon="10.3229140">
	<ele>969.80</ele>
	<time>2025-07-30T06:14:59.000Z</time>
</trkpt>
<trkpt lat="46.0400250" lon="10.3229360">
	<ele>970.00</ele>
	<time>2025-07-30T06:15:00.000Z</time>
</trkpt>
<trkpt lat="46.0400220" lon="10.3229640">
	<ele>970.00</ele>
	<time>2025-07-30T06:15:01.000Z</time>
</trkpt>
<trkpt lat="46.0400170" lon="10.3229850">
	<ele>970.20</ele>
	<time>2025-07-30T06:15:02.000Z</time>
</trkpt>
<trkpt lat="46.0400100" lon="10.3229950">
	<ele>970.40</ele>
	<time>2025-07-30T06:15:03.000Z</time>
</trkpt>
<trkpt lat="46.0400090" lon="10.3230160">
	<ele>970.60</ele>
	<time>2025-07-30T06:15:04.000Z</time>
</trkpt>
<trkpt lat="46.0400070" lon="10.3230220">
	<ele>970.60</ele>
	<time>2025-07-30T06:15:05.000Z</time>
</trkpt>
<trkpt lat="46.0400090" lon="10.3230390">
	<ele>970.80</ele>
	<time>2025-07-30T06:15:06.000Z</time>
</trkpt>
<trkpt lat="46.0400060" lon="10.3230550">
	<ele>971.00</ele>
	<time>2025-07-30T06:15:07.000Z</time>
</trkpt>
<trkpt lat="46.0400080" lon="10.3230780">
	<ele>971.40</ele>
	<time>2025-07-30T06:15:08.000Z</time>
</trkpt>
<trkpt lat="46.0400060" lon="10.3230810">
	<ele>971.40</ele>
	<time>2025-07-30T06:15:09.000Z</time>
</trkpt>
<trkpt lat="46.0400060" lon="10.3230960">
	<ele>971.60</ele>
	<time>2025-07-30T06:15:10.000Z</time>
</trkpt>
<trkpt lat="46.0400080" lon="10.3231140">
	<ele>971.60</ele>
	<time>2025-07-30T06:15:11.000Z</time>
</trkpt>
<trkpt lat="46.0400070" lon="10.3231170">
	<ele>971.80</ele>
	<time>2025-07-30T06:15:12.000Z</time>
</trkpt>
<trkpt lat="46.0400050" lon="10.3231190">
	<ele>972.00</ele>
	<time>2025-07-30T06:15:13.000Z</time>
</trkpt>
<trkpt lat="46.0400040" lon="10.3231170">
	<ele>972.00</ele>
	<time>2025-07-30T06:15:14.000Z</time>
</trkpt>
<trkpt lat="46.0400040" lon="10.3231170">
	<ele>972.00</ele>
	<time>2025-07-30T06:15:15.000Z</time>
</trkpt>
<trkpt lat="46.0400060" lon="10.3231240">
	<ele>972.20</ele>
	<time>2025-07-30T06:15:16.000Z</time>
</trkpt>
<trkpt lat="46.0400130" lon="10.3231370">
	<ele>972.20</ele>
	<time>2025-07-30T06:15:17.000Z</time>
</trkpt>
<trkpt lat="46.0400130" lon="10.3231590">
	<ele>972.20</ele>
	<time>2025-07-30T06:15:18.000Z</time>
</trkpt>
<trkpt lat="46.0400120" lon="10.3231810">
	<ele>972.20</ele>
	<time>2025-07-30T06:15:19.000Z</time>
</trkpt>
<trkpt lat="46.0400120" lon="10.3231980">
	<ele>972.20</ele>
	<time>2025-07-30T06:15:20.000Z</time>
</trkpt>
<trkpt lat="46.0400120" lon="10.3232120">
	<ele>972.20</ele>
	<time>2025-07-30T06:15:21.000Z</time>
</trkpt>
<trkpt lat="46.0400150" lon="10.3232300">
	<ele>972.20</ele>
	<time>2025-07-30T06:15:22.000Z</time>
</trkpt>
<trkpt lat="46.0400180" lon="10.3232490">
	<ele>972.20</ele>
	<time>2025-07-30T06:15:23.000Z</time>
</trkpt>
<trkpt lat="46.0400250" lon="10.3232650">
	<ele>972.40</ele>
	<time>2025-07-30T06:15:24.000Z</time>
</trkpt>
<trkpt lat="46.0400320" lon="10.3232880">
	<ele>972.60</ele>
	<time>2025-07-30T06:15:25.000Z</time>
</trkpt>
<trkpt lat="46.0400370" lon="10.3233020">
	<ele>972.60</ele>
	<time>2025-07-30T06:15:26.000Z</time>
</trkpt>
<trkpt lat="46.0400420" lon="10.3233220">
	<ele>972.80</ele>
	<time>2025-07-30T06:15:27.000Z</time>
</trkpt>
<trkpt lat="46.0400470" lon="10.3233360">
	<ele>973.00</ele>
	<time>2025-07-30T06:15:28.000Z</time>
</trkpt>
<trkpt lat="46.0400560" lon="10.3233500">
	<ele>973.40</ele>
	<time>2025-07-30T06:15:29.000Z</time>
</trkpt>
<trkpt lat="46.0400660" lon="10.3233600">
	<ele>973.80</ele>
	<time>2025-07-30T06:15:30.000Z</time>
</trkpt>
<trkpt lat="46.0400750" lon="10.3233650">
	<ele>973.80</ele>
	<time>2025-07-30T06:15:31.000Z</time>
</trkpt>
<trkpt lat="46.0400840" lon="10.3233610">
	<ele>974.00</ele>
	<time>2025-07-30T06:15:32.000Z</time>
</trkpt>
<trkpt lat="46.0400890" lon="10.3233640">
	<ele>974.20</ele>
	<time>2025-07-30T06:15:33.000Z</time>
</trkpt>
<trkpt lat="46.0400940" lon="10.3233620">
	<ele>974.40</ele>
	<time>2025-07-30T06:15:34.000Z</time>
</trkpt>
<trkpt lat="46.0401020" lon="10.3233660">
	<ele>974.80</ele>
	<time>2025-07-30T06:15:35.000Z</time>
</trkpt>
<trkpt lat="46.0401060" lon="10.3233750">
	<ele>974.80</ele>
	<time>2025-07-30T06:15:36.000Z</time>
</trkpt>
<trkpt lat="46.0401100" lon="10.3233810">
	<ele>975.20</ele>
	<time>2025-07-30T06:15:37.000Z</time>
</trkpt>
<trkpt lat="46.0401140" lon="10.3233810">
	<ele>975.20</ele>
	<time>2025-07-30T06:15:38.000Z</time>
</trkpt>
<trkpt lat="46.0401190" lon="10.3233850">
	<ele>975.60</ele>
	<time>2025-07-30T06:15:39.000Z</time>
</trkpt>
<trkpt lat="46.0401240" lon="10.3233880">
	<ele>975.80</ele>
	<time>2025-07-30T06:15:40.000Z</time>
</trkpt>
<trkpt lat="46.0401310" lon="10.3233890">
	<ele>976.00</ele>
	<time>2025-07-30T06:15:41.000Z</time>
</trkpt>
<trkpt lat="46.0401390" lon="10.3233890">
	<ele>976.20</ele>
	<time>2025-07-30T06:15:42.000Z</time>
</trkpt>
<trkpt lat="46.0401500" lon="10.3233920">
	<ele>976.60</ele>
	<time>2025-07-30T06:15:43.000Z</time>
</trkpt>
<trkpt lat="46.0401600" lon="10.3233960">
	<ele>976.80</ele>
	<time>2025-07-30T06:15:44.000Z</time>
</trkpt>
<trkpt lat="46.0401720" lon="10.3234050">
	<ele>977.00</ele>
	<time>2025-07-30T06:15:45.000Z</time>
</trkpt>
<trkpt lat="46.0401800" lon="10.3234130">
	<ele>977.00</ele>
	<time>2025-07-30T06:15:46.000Z</time>
</trkpt>
<trkpt lat="46.0401880" lon="10.3234170">
	<ele>977.40</ele>
	<time>2025-07-30T06:15:47.000Z</time>
</trkpt>
<trkpt lat="46.0401930" lon="10.3234280">
	<ele>977.80</ele>
	<time>2025-07-30T06:15:48.000Z</time>
</trkpt>
<trkpt lat="46.0402040" lon="10.3234390">
	<ele>978.00</ele>
	<time>2025-07-30T06:15:49.000Z</time>
</trkpt>
<trkpt lat="46.0402150" lon="10.3234470">
	<ele>978.20</ele>
	<time>2025-07-30T06:15:50.000Z</time>
</trkpt>
<trkpt lat="46.0402240" lon="10.3234530">
	<ele>978.40</ele>
	<time>2025-07-30T06:15:51.000Z</time>
</trkpt>
<trkpt lat="46.0402270" lon="10.3234630">
	<ele>978.60</ele>
	<time>2025-07-30T06:15:52.000Z</time>
</trkpt>
<trkpt lat="46.0402320" lon="10.3234730">
	<ele>978.80</ele>
	<time>2025-07-30T06:15:53.000Z</time>
</trkpt>
<trkpt lat="46.0402370" lon="10.3234820">
	<ele>979.00</ele>
	<time>2025-07-30T06:15:54.000Z</time>
</trkpt>
<trkpt lat="46.0402480" lon="10.3234780">
	<ele>979.40</ele>
	<time>2025-07-30T06:15:55.000Z</time>
</trkpt>
<trkpt lat="46.0402590" lon="10.3234800">
	<ele>979.60</ele>
	<time>2025-07-30T06:15:56.000Z</time>
</trkpt>
<trkpt lat="46.0402690" lon="10.3234870">
	<ele>979.80</ele>
	<time>2025-07-30T06:15:57.000Z</time>
</trkpt>
<trkpt lat="46.0402780" lon="10.3234970">
	<ele>980.00</ele>
	<time>2025-07-30T06:15:58.000Z</time>
</trkpt>
<trkpt lat="46.0402880" lon="10.3235060">
	<ele>980.40</ele>
	<time>2025-07-30T06:15:59.000Z</time>
</trkpt>
<trkpt lat="46.0402960" lon="10.3235190">
	<ele>980.60</ele>
	<time>2025-07-30T06:16:00.000Z</time>
</trkpt>
<trkpt lat="46.0403030" lon="10.3235430">
	<ele>981.00</ele>
	<time>2025-07-30T06:16:01.000Z</time>
</trkpt>
<trkpt lat="46.0403110" lon="10.3235580">
	<ele>981.40</ele>
	<time>2025-07-30T06:16:02.000Z</time>
</trkpt>
<trkpt lat="46.0403150" lon="10.3235690">
	<ele>981.60</ele>
	<time>2025-07-30T06:16:03.000Z</time>
</trkpt>
<trkpt lat="46.0403180" lon="10.3235850">
	<ele>982.00</ele>
	<time>2025-07-30T06:16:04.000Z</time>
</trkpt>
<trkpt lat="46.0403230" lon="10.3235990">
	<ele>982.00</ele>
	<time>2025-07-30T06:16:05.000Z</time>
</trkpt>
<trkpt lat="46.0403250" lon="10.3236120">
	<ele>982.20</ele>
	<time>2025-07-30T06:16:06.000Z</time>
</trkpt>
<trkpt lat="46.0403290" lon="10.3236100">
	<ele>982.40</ele>
	<time>2025-07-30T06:16:07.000Z</time>
</trkpt>
<trkpt lat="46.0403300" lon="10.3236220">
	<ele>982.80</ele>
	<time>2025-07-30T06:16:08.000Z</time>
</trkpt>
<trkpt lat="46.0403320" lon="10.3236310">
	<ele>983.00</ele>
	<time>2025-07-30T06:16:09.000Z</time>
</trkpt>
<trkpt lat="46.0403550" lon="10.3236140">
	<ele>983.40</ele>
	<time>2025-07-30T06:16:10.000Z</time>
</trkpt>
<trkpt lat="46.0403640" lon="10.3236200">
	<ele>983.40</ele>
	<time>2025-07-30T06:16:11.000Z</time>
</trkpt>
<trkpt lat="46.0403700" lon="10.3236310">
	<ele>983.80</ele>
	<time>2025-07-30T06:16:12.000Z</time>
</trkpt>
<trkpt lat="46.0403700" lon="10.3236420">
	<ele>984.00</ele>
	<time>2025-07-30T06:16:13.000Z</time>
</trkpt>
<trkpt lat="46.0403670" lon="10.3236540">
	<ele>984.00</ele>
	<time>2025-07-30T06:16:14.000Z</time>
</trkpt>
<trkpt lat="46.0403710" lon="10.3236620">
	<ele>984.20</ele>
	<time>2025-07-30T06:16:15.000Z</time>
</trkpt>
<trkpt lat="46.0403760" lon="10.3236610">
	<ele>984.60</ele>
	<time>2025-07-30T06:16:16.000Z</time>
</trkpt>
<trkpt lat="46.0403810" lon="10.3236610">
	<ele>984.80</ele>
	<time>2025-07-30T06:16:17.000Z</time>
</trkpt>
<trkpt lat="46.0403910" lon="10.3236700">
	<ele>985.00</ele>
	<time>2025-07-30T06:16:18.000Z</time>
</trkpt>
<trkpt lat="46.0403980" lon="10.3236750">
	<ele>985.40</ele>
	<time>2025-07-30T06:16:19.000Z</time>
</trkpt>
<trkpt lat="46.0404000" lon="10.3236800">
	<ele>985.60</ele>
	<time>2025-07-30T06:16:20.000Z</time>
</trkpt>
<trkpt lat="46.0403860" lon="10.3236860">
	<ele>985.80</ele>
	<time>2025-07-30T06:16:21.000Z</time>
</trkpt>
<trkpt lat="46.0403890" lon="10.3236850">
	<ele>985.80</ele>
	<time>2025-07-30T06:16:22.000Z</time>
</trkpt>
<trkpt lat="46.0403890" lon="10.3236850">
	<ele>986.00</ele>
	<time>2025-07-30T06:16:23.000Z</time>
</trkpt>
<trkpt lat="46.0403890" lon="10.3236770">
	<ele>986.00</ele>
	<time>2025-07-30T06:16:24.000Z</time>
</trkpt>
<trkpt lat="46.0403870" lon="10.3236800">
	<ele>986.00</ele>
	<time>2025-07-30T06:16:25.000Z</time>
</trkpt>
<trkpt lat="46.0403880" lon="10.3236780">
	<ele>986.00</ele>
	<time>2025-07-30T06:16:26.000Z</time>
</trkpt>
<trkpt lat="46.0403870" lon="10.3236800">
	<ele>986.00</ele>
	<time>2025-07-30T06:16:27.000Z</time>
</trkpt>
<trkpt lat="46.0403850" lon="10.3236820">
	<ele>986.00</ele>
	<time>2025-07-30T06:16:28.000Z</time>
</trkpt>
<trkpt lat="46.0403910" lon="10.3236800">
	<ele>985.80</ele>
	<time>2025-07-30T06:16:29.000Z</time>
</trkpt>
<trkpt lat="46.0403910" lon="10.3236800">
	<ele>985.80</ele>
	<time>2025-07-30T06:16:30.000Z</time>
</trkpt>
<trkpt lat="46.0403980" lon="10.3236880">
	<ele>985.80</ele>
	<time>2025-07-30T06:16:31.000Z</time>
</trkpt>
<trkpt lat="46.0404040" lon="10.3236940">
	<ele>985.80</ele>
	<time>2025-07-30T06:16:32.000Z</time>
</trkpt>
<trkpt lat="46.0404130" lon="10.3237020">
	<ele>985.80</ele>
	<time>2025-07-30T06:16:33.000Z</time>
</trkpt>
<trkpt lat="46.0404200" lon="10.3237120">
	<ele>986.00</ele>
	<time>2025-07-30T06:16:34.000Z</time>
</trkpt>
<trkpt lat="46.0404230" lon="10.3237180">
	<ele>986.00</ele>
	<time>2025-07-30T06:16:35.000Z</time>
</trkpt>
<trkpt lat="46.0404230" lon="10.3237180">
	<ele>986.20</ele>
	<time>2025-07-30T06:16:36.000Z</time>
</trkpt>
<trkpt lat="46.0404290" lon="10.3237200">
	<ele>986.40</ele>
	<time>2025-07-30T06:16:37.000Z</time>
</trkpt>
<trkpt lat="46.0404390" lon="10.3237180">
	<ele>986.60</ele>
	<time>2025-07-30T06:16:38.000Z</time>
</trkpt>
<trkpt lat="46.0404490" lon="10.3237180">
	<ele>986.80</ele>
	<time>2025-07-30T06:16:39.000Z</time>
</trkpt>
<trkpt lat="46.0404540" lon="10.3237150">
	<ele>986.80</ele>
	<time>2025-07-30T06:16:40.000Z</time>
</trkpt>
<trkpt lat="46.0404600" lon="10.3237200">
	<ele>987.00</ele>
	<time>2025-07-30T06:16:41.000Z</time>
</trkpt>
<trkpt lat="46.0404680" lon="10.3237270">
	<ele>987.20</ele>
	<time>2025-07-30T06:16:42.000Z</time>
</trkpt>
<trkpt lat="46.0404750" lon="10.3237330">
	<ele>987.20</ele>
	<time>2025-07-30T06:16:43.000Z</time>
</trkpt>
<trkpt lat="46.0404840" lon="10.3237300">
	<ele>987.40</ele>
	<time>2025-07-30T06:16:44.000Z</time>
</trkpt>
<trkpt lat="46.0404900" lon="10.3237320">
	<ele>987.60</ele>
	<time>2025-07-30T06:16:45.000Z</time>
</trkpt>
<trkpt lat="46.0404970" lon="10.3237310">
	<ele>987.60</ele>
	<time>2025-07-30T06:16:46.000Z</time>
</trkpt>
<trkpt lat="46.0405010" lon="10.3237320">
	<ele>987.80</ele>
	<time>2025-07-30T06:16:47.000Z</time>
</trkpt>
<trkpt lat="46.0405060" lon="10.3237470">
	<ele>988.00</ele>
	<time>2025-07-30T06:16:48.000Z</time>
</trkpt>
<trkpt lat="46.0405050" lon="10.3237710">
	<ele>988.20</ele>
	<time>2025-07-30T06:16:49.000Z</time>
</trkpt>
<trkpt lat="46.0405110" lon="10.3238010">
	<ele>988.40</ele>
	<time>2025-07-30T06:16:50.000Z</time>
</trkpt>
<trkpt lat="46.0405190" lon="10.3238110">
	<ele>988.60</ele>
	<time>2025-07-30T06:16:51.000Z</time>
</trkpt>
<trkpt lat="46.0405280" lon="10.3238170">
	<ele>988.80</ele>
	<time>2025-07-30T06:16:52.000Z</time>
</trkpt>
<trkpt lat="46.0405340" lon="10.3238210">
	<ele>989.20</ele>
	<time>2025-07-30T06:16:53.000Z</time>
</trkpt>
<trkpt lat="46.0405360" lon="10.3238260">
	<ele>989.40</ele>
	<time>2025-07-30T06:16:54.000Z</time>
</trkpt>
<trkpt lat="46.0405380" lon="10.3238330">
	<ele>989.60</ele>
	<time>2025-07-30T06:16:55.000Z</time>
</trkpt>
<trkpt lat="46.0405450" lon="10.3238410">
	<ele>989.80</ele>
	<time>2025-07-30T06:16:56.000Z</time>
</trkpt>
<trkpt lat="46.0405530" lon="10.3238440">
	<ele>990.00</ele>
	<time>2025-07-30T06:16:57.000Z</time>
</trkpt>
<trkpt lat="46.0405580" lon="10.3238460">
	<ele>990.00</ele>
	<time>2025-07-30T06:16:58.000Z</time>
</trkpt>
<trkpt lat="46.0405610" lon="10.3238470">
	<ele>990.00</ele>
	<time>2025-07-30T06:16:59.000Z</time>
</trkpt>
<trkpt lat="46.0405680" lon="10.3238500">
	<ele>990.20</ele>
	<time>2025-07-30T06:17:00.000Z</time>
</trkpt>
<trkpt lat="46.0405720" lon="10.3238510">
	<ele>990.40</ele>
	<time>2025-07-30T06:17:01.000Z</time>
</trkpt>
<trkpt lat="46.0405750" lon="10.3238540">
	<ele>990.60</ele>
	<time>2025-07-30T06:17:02.000Z</time>
</trkpt>
<trkpt lat="46.0405830" lon="10.3238540">
	<ele>990.80</ele>
	<time>2025-07-30T06:17:03.000Z</time>
</trkpt>
<trkpt lat="46.0405920" lon="10.3238630">
	<ele>991.20</ele>
	<time>2025-07-30T06:17:04.000Z</time>
</trkpt>
<trkpt lat="46.0406030" lon="10.3238650">
	<ele>991.40</ele>
	<time>2025-07-30T06:17:05.000Z</time>
</trkpt>
<trkpt lat="46.0406080" lon="10.3238650">
	<ele>991.80</ele>
	<time>2025-07-30T06:17:06.000Z</time>
</trkpt>
<trkpt lat="46.0406190" lon="10.3238630">
	<ele>992.00</ele>
	<time>2025-07-30T06:17:07.000Z</time>
</trkpt>
<trkpt lat="46.0406300" lon="10.3238650">
	<ele>992.20</ele>
	<time>2025-07-30T06:17:08.000Z</time>
</trkpt>
<trkpt lat="46.0406410" lon="10.3238740">
	<ele>992.20</ele>
	<time>2025-07-30T06:17:09.000Z</time>
</trkpt>
<trkpt lat="46.0406490" lon="10.3238810">
	<ele>992.40</ele>
	<time>2025-07-30T06:17:10.000Z</time>
</trkpt>
<trkpt lat="46.0406540" lon="10.3238860">
	<ele>992.40</ele>
	<time>2025-07-30T06:17:11.000Z</time>
</trkpt>
<trkpt lat="46.0406570" lon="10.3238960">
	<ele>992.60</ele>
	<time>2025-07-30T06:17:12.000Z</time>
</trkpt>
<trkpt lat="46.0406640" lon="10.3239030">
	<ele>992.60</ele>
	<time>2025-07-30T06:17:13.000Z</time>
</trkpt>
<trkpt lat="46.0406720" lon="10.3239120">
	<ele>992.60</ele>
	<time>2025-07-30T06:17:14.000Z</time>
</trkpt>
<trkpt lat="46.0406790" lon="10.3239220">
	<ele>992.80</ele>
	<time>2025-07-30T06:17:15.000Z</time>
</trkpt>
<trkpt lat="46.0406860" lon="10.3239260">
	<ele>992.80</ele>
	<time>2025-07-30T06:17:16.000Z</time>
</trkpt>
<trkpt lat="46.0406950" lon="10.3239250">
	<ele>992.80</ele>
	<time>2025-07-30T06:17:17.000Z</time>
</trkpt>
<trkpt lat="46.0407050" lon="10.3239280">
	<ele>993.00</ele>
	<time>2025-07-30T06:17:18.000Z</time>
</trkpt>
<trkpt lat="46.0407140" lon="10.3239320">
	<ele>993.40</ele>
	<time>2025-07-30T06:17:19.000Z</time>
</trkpt>
<trkpt lat="46.0407260" lon="10.3239380">
	<ele>993.60</ele>
	<time>2025-07-30T06:17:20.000Z</time>
</trkpt>
<trkpt lat="46.0407370" lon="10.3239480">
	<ele>993.60</ele>
	<time>2025-07-30T06:17:21.000Z</time>
</trkpt>
<trkpt lat="46.0407460" lon="10.3239590">
	<ele>993.80</ele>
	<time>2025-07-30T06:17:22.000Z</time>
</trkpt>
<trkpt lat="46.0407560" lon="10.3239700">
	<ele>994.20</ele>
	<time>2025-07-30T06:17:23.000Z</time>
</trkpt>
<trkpt lat="46.0407640" lon="10.3239740">
	<ele>994.40</ele>
	<time>2025-07-30T06:17:24.000Z</time>
</trkpt>
<trkpt lat="46.0407700" lon="10.3239780">
	<ele>994.60</ele>
	<time>2025-07-30T06:17:25.000Z</time>
</trkpt>
<trkpt lat="46.0407750" lon="10.3239790">
	<ele>994.80</ele>
	<time>2025-07-30T06:17:26.000Z</time>
</trkpt>
<trkpt lat="46.0407830" lon="10.3239820">
	<ele>994.80</ele>
	<time>2025-07-30T06:17:27.000Z</time>
</trkpt>
<trkpt lat="46.0407910" lon="10.3239880">
	<ele>995.00</ele>
	<time>2025-07-30T06:17:28.000Z</time>
</trkpt>
<trkpt lat="46.0407990" lon="10.3239980">
	<ele>995.20</ele>
	<time>2025-07-30T06:17:29.000Z</time>
</trkpt>
<trkpt lat="46.0408120" lon="10.3240060">
	<ele>995.40</ele>
	<time>2025-07-30T06:17:30.000Z</time>
</trkpt>
<trkpt lat="46.0408240" lon="10.3240110">
	<ele>995.60</ele>
	<time>2025-07-30T06:17:31.000Z</time>
</trkpt>
<trkpt lat="46.0408390" lon="10.3240140">
	<ele>995.60</ele>
	<time>2025-07-30T06:17:32.000Z</time>
</trkpt>
<trkpt lat="46.0408390" lon="10.3240130">
	<ele>995.80</ele>
	<time>2025-07-30T06:17:33.000Z</time>
</trkpt>
<trkpt lat="46.0408410" lon="10.3240120">
	<ele>996.00</ele>
	<time>2025-07-30T06:17:34.000Z</time>
</trkpt>
<trkpt lat="46.0408550" lon="10.3240180">
	<ele>996.40</ele>
	<time>2025-07-30T06:17:35.000Z</time>
</trkpt>
<trkpt lat="46.0408620" lon="10.3240330">
	<ele>996.40</ele>
	<time>2025-07-30T06:17:36.000Z</time>
</trkpt>
<trkpt lat="46.0408660" lon="10.3240420">
	<ele>996.60</ele>
	<time>2025-07-30T06:17:37.000Z</time>
</trkpt>
<trkpt lat="46.0408720" lon="10.3240440">
	<ele>996.80</ele>
	<time>2025-07-30T06:17:38.000Z</time>
</trkpt>
<trkpt lat="46.0408820" lon="10.3240360">
	<ele>996.80</ele>
	<time>2025-07-30T06:17:39.000Z</time>
</trkpt>
<trkpt lat="46.0408940" lon="10.3240280">
	<ele>997.00</ele>
	<time>2025-07-30T06:17:40.000Z</time>
</trkpt>
<trkpt lat="46.0409070" lon="10.3240270">
	<ele>997.00</ele>
	<time>2025-07-30T06:17:41.000Z</time>
</trkpt>
<trkpt lat="46.0409160" lon="10.3240290">
	<ele>997.00</ele>
	<time>2025-07-30T06:17:42.000Z</time>
</trkpt>
<trkpt lat="46.0409200" lon="10.3240380">
	<ele>997.00</ele>
	<time>2025-07-30T06:17:43.000Z</time>
</trkpt>
<trkpt lat="46.0409230" lon="10.3240530">
	<ele>997.20</ele>
	<time>2025-07-30T06:17:44.000Z</time>
</trkpt>
<trkpt lat="46.0409280" lon="10.3240690">
	<ele>997.40</ele>
	<time>2025-07-30T06:17:45.000Z</time>
</trkpt>
<trkpt lat="46.0409270" lon="10.3240870">
	<ele>997.40</ele>
	<time>2025-07-30T06:17:46.000Z</time>
</trkpt>
<trkpt lat="46.0409270" lon="10.3240880">
	<ele>997.40</ele>
	<time>2025-07-30T06:17:47.000Z</time>
</trkpt>
<trkpt lat="46.0409340" lon="10.3240870">
	<ele>997.60</ele>
	<time>2025-07-30T06:17:48.000Z</time>
</trkpt>
<trkpt lat="46.0409400" lon="10.3240900">
	<ele>997.60</ele>
	<time>2025-07-30T06:17:49.000Z</time>
</trkpt>
<trkpt lat="46.0409450" lon="10.3240960">
	<ele>997.80</ele>
	<time>2025-07-30T06:17:50.000Z</time>
</trkpt>
<trkpt lat="46.0409490" lon="10.3240980">
	<ele>997.80</ele>
	<time>2025-07-30T06:17:51.000Z</time>
</trkpt>
<trkpt lat="46.0409520" lon="10.3241050">
	<ele>997.80</ele>
	<time>2025-07-30T06:17:52.000Z</time>
</trkpt>
<trkpt lat="46.0409560" lon="10.3241180">
	<ele>998.00</ele>
	<time>2025-07-30T06:17:53.000Z</time>
</trkpt>
<trkpt lat="46.0409590" lon="10.3241370">
	<ele>998.00</ele>
	<time>2025-07-30T06:17:54.000Z</time>
</trkpt>
<trkpt lat="46.0409600" lon="10.3241530">
	<ele>998.20</ele>
	<time>2025-07-30T06:17:55.000Z</time>
</trkpt>
<trkpt lat="46.0409640" lon="10.3241700">
	<ele>998.20</ele>
	<time>2025-07-30T06:17:56.000Z</time>
</trkpt>
<trkpt lat="46.0409660" lon="10.3241880">
	<ele>998.20</ele>
	<time>2025-07-30T06:17:57.000Z</time>
</trkpt>
<trkpt lat="46.0409670" lon="10.3241960">
	<ele>998.40</ele>
	<time>2025-07-30T06:17:58.000Z</time>
</trkpt>
<trkpt lat="46.0409670" lon="10.3242200">
	<ele>999.00</ele>
	<time>2025-07-30T06:17:59.000Z</time>
</trkpt>
<trkpt lat="46.0409670" lon="10.3242380">
	<ele>999.20</ele>
	<time>2025-07-30T06:18:00.000Z</time>
</trkpt>
<trkpt lat="46.0409670" lon="10.3242580">
	<ele>999.40</ele>
	<time>2025-07-30T06:18:01.000Z</time>
</trkpt>
<trkpt lat="46.0409710" lon="10.3242750">
	<ele>999.60</ele>
	<time>2025-07-30T06:18:02.000Z</time>
</trkpt>
<trkpt lat="46.0409780" lon="10.3243020">
	<ele>1000.00</ele>
	<time>2025-07-30T06:18:03.000Z</time>
</trkpt>
<trkpt lat="46.0409800" lon="10.3243250">
	<ele>1000.00</ele>
	<time>2025-07-30T06:18:04.000Z</time>
</trkpt>
<trkpt lat="46.0409910" lon="10.3243450">
	<ele>1000.20</ele>
	<time>2025-07-30T06:18:05.000Z</time>
</trkpt>
<trkpt lat="46.0409950" lon="10.3243680">
	<ele>1000.20</ele>
	<time>2025-07-30T06:18:06.000Z</time>
</trkpt>
<trkpt lat="46.0410030" lon="10.3243820">
	<ele>1000.40</ele>
	<time>2025-07-30T06:18:07.000Z</time>
</trkpt>
<trkpt lat="46.0410100" lon="10.3243960">
	<ele>1000.40</ele>
	<time>2025-07-30T06:18:08.000Z</time>
</trkpt>
<trkpt lat="46.0410180" lon="10.3244090">
	<ele>1000.60</ele>
	<time>2025-07-30T06:18:09.000Z</time>
</trkpt>
<trkpt lat="46.0410240" lon="10.3244200">
	<ele>1000.60</ele>
	<time>2025-07-30T06:18:10.000Z</time>
</trkpt>
<trkpt lat="46.0410330" lon="10.3244250">
	<ele>1000.80</ele>
	<time>2025-07-30T06:18:11.000Z</time>
</trkpt>
<trkpt lat="46.0410410" lon="10.3244330">
	<ele>1001.00</ele>
	<time>2025-07-30T06:18:12.000Z</time>
</trkpt>
<trkpt lat="46.0410470" lon="10.3244430">
	<ele>1001.20</ele>
	<time>2025-07-30T06:18:13.000Z</time>
</trkpt>
<trkpt lat="46.0410510" lon="10.3244530">
	<ele>1001.20</ele>
	<time>2025-07-30T06:18:14.000Z</time>
</trkpt>
<trkpt lat="46.0410580" lon="10.3244610">
	<ele>1001.40</ele>
	<time>2025-07-30T06:18:15.000Z</time>
</trkpt>
<trkpt lat="46.0410660" lon="10.3244660">
	<ele>1001.80</ele>
	<time>2025-07-30T06:18:16.000Z</time>
</trkpt>
<trkpt lat="46.0410700" lon="10.3244780">
	<ele>1002.00</ele>
	<time>2025-07-30T06:18:17.000Z</time>
</trkpt>
<trkpt lat="46.0410760" lon="10.3244840">
	<ele>1002.40</ele>
	<time>2025-07-30T06:18:18.000Z</time>
</trkpt>
<trkpt lat="46.0410840" lon="10.3244890">
	<ele>1002.40</ele>
	<time>2025-07-30T06:18:19.000Z</time>
</trkpt>
<trkpt lat="46.0410910" lon="10.3245010">
	<ele>1002.80</ele>
	<time>2025-07-30T06:18:20.000Z</time>
</trkpt>
<trkpt lat="46.0410930" lon="10.3245220">
	<ele>1003.00</ele>
	<time>2025-07-30T06:18:21.000Z</time>
</trkpt>
<trkpt lat="46.0410960" lon="10.3245410">
	<ele>1003.00</ele>
	<time>2025-07-30T06:18:22.000Z</time>
</trkpt>
<trkpt lat="46.0411010" lon="10.3245600">
	<ele>1003.20</ele>
	<time>2025-07-30T06:18:23.000Z</time>
</trkpt>
<trkpt lat="46.0411090" lon="10.3245710">
	<ele>1003.20</ele>
	<time>2025-07-30T06:18:24.000Z</time>
</trkpt>
<trkpt lat="46.0411150" lon="10.3245840">
	<ele>1003.40</ele>
	<time>2025-07-30T06:18:25.000Z</time>
</trkpt>
<trkpt lat="46.0411220" lon="10.3246000">
	<ele>1003.60</ele>
	<time>2025-07-30T06:18:26.000Z</time>
</trkpt>
<trkpt lat="46.0411270" lon="10.3246110">
	<ele>1003.60</ele>
	<time>2025-07-30T06:18:27.000Z</time>
</trkpt>
<trkpt lat="46.0411300" lon="10.3246210">
	<ele>1003.60</ele>
	<time>2025-07-30T06:18:28.000Z</time>
</trkpt>
<trkpt lat="46.0411340" lon="10.3246300">
	<ele>1003.80</ele>
	<time>2025-07-30T06:18:29.000Z</time>
</trkpt>
<trkpt lat="46.0411400" lon="10.3246330">
	<ele>1004.00</ele>
	<time>2025-07-30T06:18:30.000Z</time>
</trkpt>
<trkpt lat="46.0411460" lon="10.3246420">
	<ele>1004.20</ele>
	<time>2025-07-30T06:18:31.000Z</time>
</trkpt>
<trkpt lat="46.0411530" lon="10.3246520">
	<ele>1004.40</ele>
	<time>2025-07-30T06:18:32.000Z</time>
</trkpt>
<trkpt lat="46.0411620" lon="10.3246690">
	<ele>1004.60</ele>
	<time>2025-07-30T06:18:33.000Z</time>
</trkpt>
<trkpt lat="46.0411690" lon="10.3246890">
	<ele>1004.80</ele>
	<time>2025-07-30T06:18:34.000Z</time>
</trkpt>
<trkpt lat="46.0411760" lon="10.3247030">
	<ele>1004.80</ele>
	<time>2025-07-30T06:18:35.000Z</time>
</trkpt>
<trkpt lat="46.0411840" lon="10.3247130">
	<ele>1005.00</ele>
	<time>2025-07-30T06:18:36.000Z</time>
</trkpt>
<trkpt lat="46.0411900" lon="10.3247220">
	<ele>1005.20</ele>
	<time>2025-07-30T06:18:37.000Z</time>
</trkpt>
<trkpt lat="46.0411940" lon="10.3247330">
	<ele>1005.20</ele>
	<time>2025-07-30T06:18:38.000Z</time>
</trkpt>
<trkpt lat="46.0412030" lon="10.3247400">
	<ele>1005.40</ele>
	<time>2025-07-30T06:18:39.000Z</time>
</trkpt>
<trkpt lat="46.0412090" lon="10.3247540">
	<ele>1005.40</ele>
	<time>2025-07-30T06:18:40.000Z</time>
</trkpt>
<trkpt lat="46.0412160" lon="10.3247660">
	<ele>1005.60</ele>
	<time>2025-07-30T06:18:41.000Z</time>
</trkpt>
<trkpt lat="46.0412200" lon="10.3247850">
	<ele>1005.60</ele>
	<time>2025-07-30T06:18:42.000Z</time>
</trkpt>
<trkpt lat="46.0412240" lon="10.3247990">
	<ele>1005.80</ele>
	<time>2025-07-30T06:18:43.000Z</time>
</trkpt>
<trkpt lat="46.0412320" lon="10.3248100">
	<ele>1006.00</ele>
	<time>2025-07-30T06:18:44.000Z</time>
</trkpt>
<trkpt lat="46.0412420" lon="10.3248220">
	<ele>1006.00</ele>
	<time>2025-07-30T06:18:45.000Z</time>
</trkpt>
<trkpt lat="46.0412480" lon="10.3248310">
	<ele>1006.20</ele>
	<time>2025-07-30T06:18:46.000Z</time>
</trkpt>
<trkpt lat="46.0412520" lon="10.3248460">
	<ele>1006.40</ele>
	<time>2025-07-30T06:18:47.000Z</time>
</trkpt>
<trkpt lat="46.0412560" lon="10.3248610">
	<ele>1006.80</ele>
	<time>2025-07-30T06:18:48.000Z</time>
</trkpt>
<trkpt lat="46.0412580" lon="10.3248750">
	<ele>1006.80</ele>
	<time>2025-07-30T06:18:49.000Z</time>
</trkpt>
<trkpt lat="46.0412670" lon="10.3248890">
	<ele>1007.00</ele>
	<time>2025-07-30T06:18:50.000Z</time>
</trkpt>
<trkpt lat="46.0412700" lon="10.3248990">
	<ele>1007.40</ele>
	<time>2025-07-30T06:18:51.000Z</time>
</trkpt>
<trkpt lat="46.0412710" lon="10.3249110">
	<ele>1007.60</ele>
	<time>2025-07-30T06:18:52.000Z</time>
</trkpt>
<trkpt lat="46.0412760" lon="10.3249210">
	<ele>1007.80</ele>
	<time>2025-07-30T06:18:53.000Z</time>
</trkpt>
<trkpt lat="46.0412820" lon="10.3249300">
	<ele>1008.00</ele>
	<time>2025-07-30T06:18:54.000Z</time>
</trkpt>
<trkpt lat="46.0412880" lon="10.3249420">
	<ele>1008.20</ele>
	<time>2025-07-30T06:18:55.000Z</time>
</trkpt>
<trkpt lat="46.0412930" lon="10.3249610">
	<ele>1008.40</ele>
	<time>2025-07-30T06:18:56.000Z</time>
</trkpt>
<trkpt lat="46.0412950" lon="10.3249750">
	<ele>1008.60</ele>
	<time>2025-07-30T06:18:57.000Z</time>
</trkpt>
<trkpt lat="46.0413050" lon="10.3249850">
	<ele>1008.80</ele>
	<time>2025-07-30T06:18:58.000Z</time>
</trkpt>
<trkpt lat="46.0413110" lon="10.3249940">
	<ele>1009.00</ele>
	<time>2025-07-30T06:18:59.000Z</time>
</trkpt>
<trkpt lat="46.0413170" lon="10.3250040">
	<ele>1009.20</ele>
	<time>2025-07-30T06:19:00.000Z</time>
</trkpt>
<trkpt lat="46.0413250" lon="10.3250130">
	<ele>1009.20</ele>
	<time>2025-07-30T06:19:01.000Z</time>
</trkpt>
<trkpt lat="46.0413350" lon="10.3250250">
	<ele>1009.60</ele>
	<time>2025-07-30T06:19:02.000Z</time>
</trkpt>
<trkpt lat="46.0413430" lon="10.3250400">
	<ele>1009.80</ele>
	<time>2025-07-30T06:19:03.000Z</time>
</trkpt>
<trkpt lat="46.0413460" lon="10.3250540">
	<ele>1010.00</ele>
	<time>2025-07-30T06:19:04.000Z</time>
</trkpt>
<trkpt lat="46.0413500" lon="10.3250630">
	<ele>1010.20</ele>
	<time>2025-07-30T06:19:05.000Z</time>
</trkpt>
<trkpt lat="46.0413530" lon="10.3250660">
	<ele>1010.40</ele>
	<time>2025-07-30T06:19:06.000Z</time>
</trkpt>
<trkpt lat="46.0413560" lon="10.3250690">
	<ele>1010.60</ele>
	<time>2025-07-30T06:19:07.000Z</time>
</trkpt>
<trkpt lat="46.0413590" lon="10.3250750">
	<ele>1010.80</ele>
	<time>2025-07-30T06:19:08.000Z</time>
</trkpt>
<trkpt lat="46.0413630" lon="10.3250780">
	<ele>1011.00</ele>
	<time>2025-07-30T06:19:09.000Z</time>
</trkpt>
<trkpt lat="46.0413720" lon="10.3250810">
	<ele>1011.40</ele>
	<time>2025-07-30T06:19:10.000Z</time>
</trkpt>
<trkpt lat="46.0413790" lon="10.3250810">
	<ele>1011.60</ele>
	<time>2025-07-30T06:19:11.000Z</time>
</trkpt>
<trkpt lat="46.0413890" lon="10.3250830">
	<ele>1011.80</ele>
	<time>2025-07-30T06:19:12.000Z</time>
</trkpt>
<trkpt lat="46.0413980" lon="10.3250840">
	<ele>1012.00</ele>
	<time>2025-07-30T06:19:13.000Z</time>
</trkpt>
<trkpt lat="46.0414060" lon="10.3250870">
	<ele>1012.40</ele>
	<time>2025-07-30T06:19:14.000Z</time>
</trkpt>
<trkpt lat="46.0414070" lon="10.3251010">
	<ele>1012.60</ele>
	<time>2025-07-30T06:19:15.000Z</time>
</trkpt>
<trkpt lat="46.0414110" lon="10.3251150">
	<ele>1012.80</ele>
	<time>2025-07-30T06:19:16.000Z</time>
</trkpt>
<trkpt lat="46.0414100" lon="10.3251380">
	<ele>1013.00</ele>
	<time>2025-07-30T06:19:17.000Z</time>
</trkpt>
<trkpt lat="46.0414140" lon="10.3251560">
	<ele>1013.40</ele>
	<time>2025-07-30T06:19:18.000Z</time>
</trkpt>
<trkpt lat="46.0414180" lon="10.3251720">
	<ele>1013.60</ele>
	<time>2025-07-30T06:19:19.000Z</time>
</trkpt>
<trkpt lat="46.0414250" lon="10.3251850">
	<ele>1013.60</ele>
	<time>2025-07-30T06:19:20.000Z</time>
</trkpt>
<trkpt lat="46.0414300" lon="10.3251970">
	<ele>1013.80</ele>
	<time>2025-07-30T06:19:21.000Z</time>
</trkpt>
<trkpt lat="46.0414350" lon="10.3252110">
	<ele>1014.00</ele>
	<time>2025-07-30T06:19:22.000Z</time>
</trkpt>
<trkpt lat="46.0414350" lon="10.3252270">
	<ele>1014.00</ele>
	<time>2025-07-30T06:19:23.000Z</time>
</trkpt>
<trkpt lat="46.0414400" lon="10.3252430">
	<ele>1014.20</ele>
	<time>2025-07-30T06:19:24.000Z</time>
</trkpt>
<trkpt lat="46.0414480" lon="10.3252540">
	<ele>1014.20</ele>
	<time>2025-07-30T06:19:25.000Z</time>
</trkpt>
<trkpt lat="46.0414580" lon="10.3252670">
	<ele>1014.20</ele>
	<time>2025-07-30T06:19:26.000Z</time>
</trkpt>
<trkpt lat="46.0414670" lon="10.3252810">
	<ele>1014.40</ele>
	<time>2025-07-30T06:19:27.000Z</time>
</trkpt>
<trkpt lat="46.0414750" lon="10.3252950">
	<ele>1014.40</ele>
	<time>2025-07-30T06:19:28.000Z</time>
</trkpt>
<trkpt lat="46.0414810" lon="10.3253090">
	<ele>1014.40</ele>
	<time>2025-07-30T06:19:29.000Z</time>
</trkpt>
<trkpt lat="46.0414880" lon="10.3253250">
	<ele>1014.40</ele>
	<time>2025-07-30T06:19:30.000Z</time>
</trkpt>
<trkpt lat="46.0414950" lon="10.3253450">
	<ele>1014.40</ele>
	<time>2025-07-30T06:19:31.000Z</time>
</trkpt>
<trkpt lat="46.0415010" lon="10.3253600">
	<ele>1014.60</ele>
	<time>2025-07-30T06:19:32.000Z</time>
</trkpt>
<trkpt lat="46.0415080" lon="10.3253750">
	<ele>1014.60</ele>
	<time>2025-07-30T06:19:33.000Z</time>
</trkpt>
<trkpt lat="46.0415200" lon="10.3253850">
	<ele>1014.60</ele>
	<time>2025-07-30T06:19:34.000Z</time>
</trkpt>
<trkpt lat="46.0415320" lon="10.3253890">
	<ele>1014.60</ele>
	<time>2025-07-30T06:19:35.000Z</time>
</trkpt>
<trkpt lat="46.0415450" lon="10.3253940">
	<ele>1014.60</ele>
	<time>2025-07-30T06:19:36.000Z</time>
</trkpt>
<trkpt lat="46.0415570" lon="10.3254050">
	<ele>1014.80</ele>
	<time>2025-07-30T06:19:37.000Z</time>
</trkpt>
<trkpt lat="46.0415630" lon="10.3254200">
	<ele>1014.80</ele>
	<time>2025-07-30T06:19:38.000Z</time>
</trkpt>
<trkpt lat="46.0415600" lon="10.3254370">
	<ele>1014.80</ele>
	<time>2025-07-30T06:19:39.000Z</time>
</trkpt>
<trkpt lat="46.0415640" lon="10.3254580">
	<ele>1014.80</ele>
	<time>2025-07-30T06:19:40.000Z</time>
</trkpt>
<trkpt lat="46.0415720" lon="10.3254670">
	<ele>1015.00</ele>
	<time>2025-07-30T06:19:41.000Z</time>
</trkpt>
<trkpt lat="46.0415750" lon="10.3254790">
	<ele>1015.00</ele>
	<time>2025-07-30T06:19:42.000Z</time>
</trkpt>
<trkpt lat="46.0415780" lon="10.3254980">
	<ele>1015.00</ele>
	<time>2025-07-30T06:19:43.000Z</time>
</trkpt>
<trkpt lat="46.0415850" lon="10.3255100">
	<ele>1015.00</ele>
	<time>2025-07-30T06:19:44.000Z</time>
</trkpt>
<trkpt lat="46.0415950" lon="10.3255170">
	<ele>1015.00</ele>
	<time>2025-07-30T06:19:45.000Z</time>
</trkpt>
<trkpt lat="46.0416050" lon="10.3255270">
	<ele>1015.20</ele>
	<time>2025-07-30T06:19:46.000Z</time>
</trkpt>
<trkpt lat="46.0416140" lon="10.3255390">
	<ele>1015.20</ele>
	<time>2025-07-30T06:19:47.000Z</time>
</trkpt>
<trkpt lat="46.0416240" lon="10.3255450">
	<ele>1015.20</ele>
	<time>2025-07-30T06:19:48.000Z</time>
</trkpt>
<trkpt lat="46.0416340" lon="10.3255590">
	<ele>1015.20</ele>
	<time>2025-07-30T06:19:49.000Z</time>
</trkpt>
<trkpt lat="46.0416400" lon="10.3255760">
	<ele>1015.40</ele>
	<time>2025-07-30T06:19:50.000Z</time>
</trkpt>
<trkpt lat="46.0416450" lon="10.3255930">
	<ele>1015.40</ele>
	<time>2025-07-30T06:19:51.000Z</time>
</trkpt>
<trkpt lat="46.0416490" lon="10.3256140">
	<ele>1015.40</ele>
	<time>2025-07-30T06:19:52.000Z</time>
</trkpt>
<trkpt lat="46.0416610" lon="10.3256370">
	<ele>1015.40</ele>
	<time>2025-07-30T06:19:53.000Z</time>
</trkpt>
<trkpt lat="46.0416710" lon="10.3256400">
	<ele>1015.60</ele>
	<time>2025-07-30T06:19:54.000Z</time>
</trkpt>
<trkpt lat="46.0416870" lon="10.3256400">
	<ele>1015.60</ele>
	<time>2025-07-30T06:19:55.000Z</time>
</trkpt>
<trkpt lat="46.0416980" lon="10.3256540">
	<ele>1015.60</ele>
	<time>2025-07-30T06:19:56.000Z</time>
</trkpt>
<trkpt lat="46.0417080" lon="10.3256690">
	<ele>1015.60</ele>
	<time>2025-07-30T06:19:57.000Z</time>
</trkpt>
<trkpt lat="46.0417180" lon="10.3256860">
	<ele>1015.60</ele>
	<time>2025-07-30T06:19:58.000Z</time>
</trkpt>
<trkpt lat="46.0417290" lon="10.3256990">
	<ele>1015.80</ele>
	<time>2025-07-30T06:19:59.000Z</time>
</trkpt>
<trkpt lat="46.0417350" lon="10.3257080">
	<ele>1015.80</ele>
	<time>2025-07-30T06:20:00.000Z</time>
</trkpt>
<trkpt lat="46.0417410" lon="10.3257200">
	<ele>1015.80</ele>
	<time>2025-07-30T06:20:01.000Z</time>
</trkpt>
<trkpt lat="46.0417450" lon="10.3257360">
	<ele>1015.80</ele>
	<time>2025-07-30T06:20:02.000Z</time>
</trkpt>
<trkpt lat="46.0417540" lon="10.3257430">
	<ele>1016.00</ele>
	<time>2025-07-30T06:20:03.000Z</time>
</trkpt>
<trkpt lat="46.0417600" lon="10.3257530">
	<ele>1016.20</ele>
	<time>2025-07-30T06:20:04.000Z</time>
</trkpt>
<trkpt lat="46.0417680" lon="10.3257660">
	<ele>1016.20</ele>
	<time>2025-07-30T06:20:05.000Z</time>
</trkpt>
<trkpt lat="46.0417720" lon="10.3257790">
	<ele>1016.40</ele>
	<time>2025-07-30T06:20:06.000Z</time>
</trkpt>
<trkpt lat="46.0417790" lon="10.3257890">
	<ele>1016.60</ele>
	<time>2025-07-30T06:20:07.000Z</time>
</trkpt>
<trkpt lat="46.0417830" lon="10.3257970">
	<ele>1016.60</ele>
	<time>2025-07-30T06:20:08.000Z</time>
</trkpt>
<trkpt lat="46.0417900" lon="10.3258100">
	<ele>1016.80</ele>
	<time>2025-07-30T06:20:09.000Z</time>
</trkpt>
<trkpt lat="46.0417990" lon="10.3258150">
	<ele>1017.00</ele>
	<time>2025-07-30T06:20:10.000Z</time>
</trkpt>
<trkpt lat="46.0418090" lon="10.3258210">
	<ele>1017.20</ele>
	<time>2025-07-30T06:20:11.000Z</time>
</trkpt>
<trkpt lat="46.0418080" lon="10.3258290">
	<ele>1017.60</ele>
	<time>2025-07-30T06:20:12.000Z</time>
</trkpt>
<trkpt lat="46.0418070" lon="10.3258330">
	<ele>1017.80</ele>
	<time>2025-07-30T06:20:13.000Z</time>
</trkpt>
<trkpt lat="46.0418100" lon="10.3258410">
	<ele>1018.00</ele>
	<time>2025-07-30T06:20:14.000Z</time>
</trkpt>
<trkpt lat="46.0418140" lon="10.3258520">
	<ele>1018.00</ele>
	<time>2025-07-30T06:20:15.000Z</time>
</trkpt>
<trkpt lat="46.0418180" lon="10.3258690">
	<ele>1018.20</ele>
	<time>2025-07-30T06:20:16.000Z</time>
</trkpt>
<trkpt lat="46.0418200" lon="10.3258810">
	<ele>1018.40</ele>
	<time>2025-07-30T06:20:17.000Z</time>
</trkpt>
<trkpt lat="46.0418180" lon="10.3259010">
	<ele>1018.40</ele>
	<time>2025-07-30T06:20:18.000Z</time>
</trkpt>
<trkpt lat="46.0418170" lon="10.3259090">
	<ele>1018.40</ele>
	<time>2025-07-30T06:20:19.000Z</time>
</trkpt>
<trkpt lat="46.0418230" lon="10.3259260">
	<ele>1018.60</ele>
	<time>2025-07-30T06:20:20.000Z</time>
</trkpt>
<trkpt lat="46.0418330" lon="10.3259410">
	<ele>1018.60</ele>
	<time>2025-07-30T06:20:21.000Z</time>
</trkpt>
<trkpt lat="46.0418400" lon="10.3259610">
	<ele>1018.60</ele>
	<time>2025-07-30T06:20:22.000Z</time>
</trkpt>
<trkpt lat="46.0418440" lon="10.3259860">
	<ele>1018.80</ele>
	<time>2025-07-30T06:20:23.000Z</time>
</trkpt>
<trkpt lat="46.0418500" lon="10.3260110">
	<ele>1018.80</ele>
	<time>2025-07-30T06:20:24.000Z</time>
</trkpt>
<trkpt lat="46.0418500" lon="10.3260370">
	<ele>1019.00</ele>
	<time>2025-07-30T06:20:25.000Z</time>
</trkpt>
<trkpt lat="46.0418540" lon="10.3260640">
	<ele>1019.00</ele>
	<time>2025-07-30T06:20:26.000Z</time>
</trkpt>
<trkpt lat="46.0418640" lon="10.3260830">
	<ele>1019.00</ele>
	<time>2025-07-30T06:20:27.000Z</time>
</trkpt>
<trkpt lat="46.0418740" lon="10.3261070">
	<ele>1019.00</ele>
	<time>2025-07-30T06:20:28.000Z</time>
</trkpt>
<trkpt lat="46.0418820" lon="10.3261250">
	<ele>1019.00</ele>
	<time>2025-07-30T06:20:29.000Z</time>
</trkpt>
<trkpt lat="46.0418890" lon="10.3261440">
	<ele>1019.20</ele>
	<time>2025-07-30T06:20:30.000Z</time>
</trkpt>
<trkpt lat="46.0418920" lon="10.3261650">
	<ele>1019.20</ele>
	<time>2025-07-30T06:20:31.000Z</time>
</trkpt>
<trkpt lat="46.0418960" lon="10.3261820">
	<ele>1019.20</ele>
	<time>2025-07-30T06:20:32.000Z</time>
</trkpt>
<trkpt lat="46.0418970" lon="10.3261890">
	<ele>1019.20</ele>
	<time>2025-07-30T06:20:33.000Z</time>
</trkpt>
<trkpt lat="46.0418950" lon="10.3262040">
	<ele>1019.40</ele>
	<time>2025-07-30T06:20:34.000Z</time>
</trkpt>
<trkpt lat="46.0418950" lon="10.3262160">
	<ele>1019.40</ele>
	<time>2025-07-30T06:20:35.000Z</time>
</trkpt>
<trkpt lat="46.0418980" lon="10.3262350">
	<ele>1019.40</ele>
	<time>2025-07-30T06:20:36.000Z</time>
</trkpt>
<trkpt lat="46.0418970" lon="10.3262520">
	<ele>1019.60</ele>
	<time>2025-07-30T06:20:37.000Z</time>
</trkpt>
<trkpt lat="46.0418970" lon="10.3262660">
	<ele>1019.60</ele>
	<time>2025-07-30T06:20:38.000Z</time>
</trkpt>
<trkpt lat="46.0418980" lon="10.3262730">
	<ele>1019.80</ele>
	<time>2025-07-30T06:20:39.000Z</time>
</trkpt>
<trkpt lat="46.0418970" lon="10.3262950">
	<ele>1020.00</ele>
	<time>2025-07-30T06:20:40.000Z</time>
</trkpt>
<trkpt lat="46.0418900" lon="10.3263210">
	<ele>1020.20</ele>
	<time>2025-07-30T06:20:41.000Z</time>
</trkpt>
<trkpt lat="46.0418880" lon="10.3263480">
	<ele>1020.20</ele>
	<time>2025-07-30T06:20:42.000Z</time>
</trkpt>
<trkpt lat="46.0418930" lon="10.3263710">
	<ele>1020.40</ele>
	<time>2025-07-30T06:20:43.000Z</time>
</trkpt>
<trkpt lat="46.0419050" lon="10.3263800">
	<ele>1020.40</ele>
	<time>2025-07-30T06:20:44.000Z</time>
</trkpt>
<trkpt lat="46.0419100" lon="10.3263890">
	<ele>1020.40</ele>
	<time>2025-07-30T06:20:45.000Z</time>
</trkpt>
<trkpt lat="46.0419160" lon="10.3264090">
	<ele>1020.60</ele>
	<time>2025-07-30T06:20:46.000Z</time>
</trkpt>
<trkpt lat="46.0419240" lon="10.3264410">
	<ele>1020.80</ele>
	<time>2025-07-30T06:20:47.000Z</time>
</trkpt>
<trkpt lat="46.0419310" lon="10.3264720">
	<ele>1020.80</ele>
	<time>2025-07-30T06:20:48.000Z</time>
</trkpt>
<trkpt lat="46.0419350" lon="10.3264840">
	<ele>1020.80</ele>
	<time>2025-07-30T06:20:49.000Z</time>
</trkpt>
<trkpt lat="46.0419400" lon="10.3264960">
	<ele>1020.80</ele>
	<time>2025-07-30T06:20:50.000Z</time>
</trkpt>
<trkpt lat="46.0419470" lon="10.3265090">
	<ele>1021.00</ele>
	<time>2025-07-30T06:20:51.000Z</time>
</trkpt>
<trkpt lat="46.0419540" lon="10.3265160">
	<ele>1021.00</ele>
	<time>2025-07-30T06:20:52.000Z</time>
</trkpt>
<trkpt lat="46.0419590" lon="10.3265270">
	<ele>1021.20</ele>
	<time>2025-07-30T06:20:53.000Z</time>
</trkpt>
<trkpt lat="46.0419580" lon="10.3265470">
	<ele>1021.20</ele>
	<time>2025-07-30T06:20:54.000Z</time>
</trkpt>
<trkpt lat="46.0419600" lon="10.3265500">
	<ele>1021.20</ele>
	<time>2025-07-30T06:20:55.000Z</time>
</trkpt>
<trkpt lat="46.0419640" lon="10.3265610">
	<ele>1021.40</ele>
	<time>2025-07-30T06:20:56.000Z</time>
</trkpt>
<trkpt lat="46.0419660" lon="10.3265710">
	<ele>1021.40</ele>
	<time>2025-07-30T06:20:57.000Z</time>
</trkpt>
<trkpt lat="46.0419650" lon="10.3265790">
	<ele>1021.40</ele>
	<time>2025-07-30T06:20:58.000Z</time>
</trkpt>
<trkpt lat="46.0419600" lon="10.3265880">
	<ele>1021.60</ele>
	<time>2025-07-30T06:20:59.000Z</time>
</trkpt>
<trkpt lat="46.0419580" lon="10.3265940">
	<ele>1021.60</ele>
	<time>2025-07-30T06:21:00.000Z</time>
</trkpt>
<trkpt lat="46.0419630" lon="10.3265980">
	<ele>1021.80</ele>
	<time>2025-07-30T06:21:01.000Z</time>
</trkpt>
<trkpt lat="46.0419770" lon="10.3266000">
	<ele>1021.80</ele>
	<time>2025-07-30T06:21:02.000Z</time>
</trkpt>
<trkpt lat="46.0419790" lon="10.3266300">
	<ele>1021.80</ele>
	<time>2025-07-30T06:21:03.000Z</time>
</trkpt>
<trkpt lat="46.0419840" lon="10.3266640">
	<ele>1022.00</ele>
	<time>2025-07-30T06:21:04.000Z</time>
</trkpt>
<trkpt lat="46.0419890" lon="10.3266890">
	<ele>1022.20</ele>
	<time>2025-07-30T06:21:05.000Z</time>
</trkpt>
<trkpt lat="46.0419930" lon="10.3267130">
	<ele>1022.20</ele>
	<time>2025-07-30T06:21:06.000Z</time>
</trkpt>
<trkpt lat="46.0420020" lon="10.3267280">
	<ele>1022.40</ele>
	<time>2025-07-30T06:21:07.000Z</time>
</trkpt>
<trkpt lat="46.0420090" lon="10.3267530">
	<ele>1022.60</ele>
	<time>2025-07-30T06:21:08.000Z</time>
</trkpt>
<trkpt lat="46.0420110" lon="10.3267660">
	<ele>1022.80</ele>
	<time>2025-07-30T06:21:09.000Z</time>
</trkpt>
<trkpt lat="46.0420130" lon="10.3267810">
	<ele>1022.80</ele>
	<time>2025-07-30T06:21:10.000Z</time>
</trkpt>
<trkpt lat="46.0420150" lon="10.3267870">
	<ele>1023.00</ele>
	<time>2025-07-30T06:21:11.000Z</time>
</trkpt>
<trkpt lat="46.0420310" lon="10.3267890">
	<ele>1023.20</ele>
	<time>2025-07-30T06:21:12.000Z</time>
</trkpt>
<trkpt lat="46.0420430" lon="10.3267980">
	<ele>1023.20</ele>
	<time>2025-07-30T06:21:13.000Z</time>
</trkpt>
<trkpt lat="46.0420530" lon="10.3268110">
	<ele>1023.40</ele>
	<time>2025-07-30T06:21:14.000Z</time>
</trkpt>
<trkpt lat="46.0420600" lon="10.3268270">
	<ele>1023.40</ele>
	<time>2025-07-30T06:21:15.000Z</time>
</trkpt>
<trkpt lat="46.0420690" lon="10.3268440">
	<ele>1023.40</ele>
	<time>2025-07-30T06:21:16.000Z</time>
</trkpt>
<trkpt lat="46.0420750" lon="10.3268620">
	<ele>1023.40</ele>
	<time>2025-07-30T06:21:17.000Z</time>
</trkpt>
<trkpt lat="46.0420820" lon="10.3268780">
	<ele>1023.60</ele>
	<time>2025-07-30T06:21:18.000Z</time>
</trkpt>
<trkpt lat="46.0420890" lon="10.3268900">
	<ele>1023.80</ele>
	<time>2025-07-30T06:21:19.000Z</time>
</trkpt>
<trkpt lat="46.0420980" lon="10.3269070">
	<ele>1023.80</ele>
	<time>2025-07-30T06:21:20.000Z</time>
</trkpt>
<trkpt lat="46.0421060" lon="10.3269220">
	<ele>1023.80</ele>
	<time>2025-07-30T06:21:21.000Z</time>
</trkpt>
<trkpt lat="46.0421120" lon="10.3269320">
	<ele>1023.80</ele>
	<time>2025-07-30T06:21:22.000Z</time>
</trkpt>
<trkpt lat="46.0421200" lon="10.3269470">
	<ele>1024.00</ele>
	<time>2025-07-30T06:21:23.000Z</time>
</trkpt>
<trkpt lat="46.0421260" lon="10.3269570">
	<ele>1024.20</ele>
	<time>2025-07-30T06:21:24.000Z</time>
</trkpt>
<trkpt lat="46.0421320" lon="10.3269660">
	<ele>1024.20</ele>
	<time>2025-07-30T06:21:25.000Z</time>
</trkpt>
<trkpt lat="46.0421340" lon="10.3269820">
	<ele>1024.40</ele>
	<time>2025-07-30T06:21:26.000Z</time>
</trkpt>
<trkpt lat="46.0421370" lon="10.3269970">
	<ele>1024.40</ele>
	<time>2025-07-30T06:21:27.000Z</time>
</trkpt>
<trkpt lat="46.0421360" lon="10.3270100">
	<ele>1024.60</ele>
	<time>2025-07-30T06:21:28.000Z</time>
</trkpt>
<trkpt lat="46.0421370" lon="10.3270290">
	<ele>1024.80</ele>
	<time>2025-07-30T06:21:29.000Z</time>
</trkpt>
<trkpt lat="46.0421390" lon="10.3270490">
	<ele>1025.00</ele>
	<time>2025-07-30T06:21:30.000Z</time>
</trkpt>
<trkpt lat="46.0421410" lon="10.3270730">
	<ele>1025.20</ele>
	<time>2025-07-30T06:21:31.000Z</time>
</trkpt>
<trkpt lat="46.0421490" lon="10.3270920">
	<ele>1025.40</ele>
	<time>2025-07-30T06:21:32.000Z</time>
</trkpt>
<trkpt lat="46.0421590" lon="10.3271060">
	<ele>1025.60</ele>
	<time>2025-07-30T06:21:33.000Z</time>
</trkpt>
<trkpt lat="46.0421710" lon="10.3271170">
	<ele>1025.80</ele>
	<time>2025-07-30T06:21:34.000Z</time>
</trkpt>
<trkpt lat="46.0421810" lon="10.3271330">
	<ele>1026.00</ele>
	<time>2025-07-30T06:21:35.000Z</time>
</trkpt>
<trkpt lat="46.0421850" lon="10.3271490">
	<ele>1026.20</ele>
	<time>2025-07-30T06:21:36.000Z</time>
</trkpt>
<trkpt lat="46.0421910" lon="10.3271680">
	<ele>1026.60</ele>
	<time>2025-07-30T06:21:37.000Z</time>
</trkpt>
<trkpt lat="46.0422100" lon="10.3271780">
	<ele>1026.60</ele>
	<time>2025-07-30T06:21:38.000Z</time>
</trkpt>
<trkpt lat="46.0422270" lon="10.3271900">
	<ele>1027.00</ele>
	<time>2025-07-30T06:21:39.000Z</time>
</trkpt>
<trkpt lat="46.0422360" lon="10.3272010">
	<ele>1027.00</ele>
	<time>2025-07-30T06:21:40.000Z</time>
</trkpt>
<trkpt lat="46.0422450" lon="10.3272160">
	<ele>1027.20</ele>
	<time>2025-07-30T06:21:41.000Z</time>
</trkpt>
<trkpt lat="46.0422500" lon="10.3272270">
	<ele>1027.20</ele>
	<time>2025-07-30T06:21:42.000Z</time>
</trkpt>
<trkpt lat="46.0422520" lon="10.3272450">
	<ele>1027.60</ele>
	<time>2025-07-30T06:21:43.000Z</time>
</trkpt>
<trkpt lat="46.0422580" lon="10.3272560">
	<ele>1027.60</ele>
	<time>2025-07-30T06:21:44.000Z</time>
</trkpt>
<trkpt lat="46.0422620" lon="10.3272630">
	<ele>1027.80</ele>
	<time>2025-07-30T06:21:45.000Z</time>
</trkpt>
<trkpt lat="46.0422730" lon="10.3272680">
	<ele>1028.20</ele>
	<time>2025-07-30T06:21:46.000Z</time>
</trkpt>
<trkpt lat="46.0422850" lon="10.3272770">
	<ele>1028.20</ele>
	<time>2025-07-30T06:21:47.000Z</time>
</trkpt>
<trkpt lat="46.0422860" lon="10.3272940">
	<ele>1028.40</ele>
	<time>2025-07-30T06:21:48.000Z</time>
</trkpt>
<trkpt lat="46.0422860" lon="10.3273170">
	<ele>1028.60</ele>
	<time>2025-07-30T06:21:49.000Z</time>
</trkpt>
<trkpt lat="46.0422860" lon="10.3273430">
	<ele>1029.00</ele>
	<time>2025-07-30T06:21:50.000Z</time>
</trkpt>
<trkpt lat="46.0422890" lon="10.3273530">
	<ele>1029.20</ele>
	<time>2025-07-30T06:21:51.000Z</time>
</trkpt>
<trkpt lat="46.0422960" lon="10.3273610">
	<ele>1029.40</ele>
	<time>2025-07-30T06:21:52.000Z</time>
</trkpt>
<trkpt lat="46.0423030" lon="10.3273640">
	<ele>1029.60</ele>
	<time>2025-07-30T06:21:53.000Z</time>
</trkpt>
<trkpt lat="46.0423080" lon="10.3273670">
	<ele>1029.80</ele>
	<time>2025-07-30T06:21:54.000Z</time>
</trkpt>
<trkpt lat="46.0423190" lon="10.3273610">
	<ele>1030.00</ele>
	<time>2025-07-30T06:21:55.000Z</time>
</trkpt>
<trkpt lat="46.0423310" lon="10.3273540">
	<ele>1030.00</ele>
	<time>2025-07-30T06:21:56.000Z</time>
</trkpt>
<trkpt lat="46.0423350" lon="10.3273640">
	<ele>1030.00</ele>
	<time>2025-07-30T06:21:57.000Z</time>
</trkpt>
<trkpt lat="46.0423430" lon="10.3273740">
	<ele>1030.20</ele>
	<time>2025-07-30T06:21:58.000Z</time>
</trkpt>
<trkpt lat="46.0423520" lon="10.3273780">
	<ele>1030.20</ele>
	<time>2025-07-30T06:21:59.000Z</time>
</trkpt>
<trkpt lat="46.0423610" lon="10.3273800">
	<ele>1030.40</ele>
	<time>2025-07-30T06:22:00.000Z</time>
</trkpt>
<trkpt lat="46.0423660" lon="10.3273900">
	<ele>1030.60</ele>
	<time>2025-07-30T06:22:01.000Z</time>
</trkpt>
<trkpt lat="46.0423700" lon="10.3274080">
	<ele>1030.80</ele>
	<time>2025-07-30T06:22:02.000Z</time>
</trkpt>
<trkpt lat="46.0423740" lon="10.3274300">
	<ele>1030.80</ele>
	<time>2025-07-30T06:22:03.000Z</time>
</trkpt>
<trkpt lat="46.0423750" lon="10.3274470">
	<ele>1031.00</ele>
	<time>2025-07-30T06:22:04.000Z</time>
</trkpt>
<trkpt lat="46.0423770" lon="10.3274590">
	<ele>1031.20</ele>
	<time>2025-07-30T06:22:05.000Z</time>
</trkpt>
<trkpt lat="46.0423800" lon="10.3274710">
	<ele>1031.40</ele>
	<time>2025-07-30T06:22:06.000Z</time>
</trkpt>
<trkpt lat="46.0423850" lon="10.3274890">
	<ele>1031.60</ele>
	<time>2025-07-30T06:22:07.000Z</time>
</trkpt>
<trkpt lat="46.0423890" lon="10.3275050">
	<ele>1031.80</ele>
	<time>2025-07-30T06:22:08.000Z</time>
</trkpt>
<trkpt lat="46.0423970" lon="10.3275140">
	<ele>1031.80</ele>
	<time>2025-07-30T06:22:09.000Z</time>
</trkpt>
<trkpt lat="46.0424080" lon="10.3275220">
	<ele>1032.00</ele>
	<time>2025-07-30T06:22:10.000Z</time>
</trkpt>
<trkpt lat="46.0424200" lon="10.3275310">
	<ele>1032.20</ele>
	<time>2025-07-30T06:22:11.000Z</time>
</trkpt>
<trkpt lat="46.0424310" lon="10.3275460">
	<ele>1032.40</ele>
	<time>2025-07-30T06:22:12.000Z</time>
</trkpt>
<trkpt lat="46.0424360" lon="10.3275610">
	<ele>1032.60</ele>
	<time>2025-07-30T06:22:13.000Z</time>
</trkpt>
<trkpt lat="46.0424400" lon="10.3275760">
	<ele>1032.80</ele>
	<time>2025-07-30T06:22:14.000Z</time>
</trkpt>
<trkpt lat="46.0424430" lon="10.3275940">
	<ele>1033.00</ele>
	<time>2025-07-30T06:22:15.000Z</time>
</trkpt>
<trkpt lat="46.0424470" lon="10.3276110">
	<ele>1033.00</ele>
	<time>2025-07-30T06:22:16.000Z</time>
</trkpt>
<trkpt lat="46.0424520" lon="10.3276270">
	<ele>1033.20</ele>
	<time>2025-07-30T06:22:17.000Z</time>
</trkpt>
<trkpt lat="46.0424500" lon="10.3276480">
	<ele>1033.20</ele>
	<time>2025-07-30T06:22:18.000Z</time>
</trkpt>
<trkpt lat="46.0424490" lon="10.3276810">
	<ele>1033.40</ele>
	<time>2025-07-30T06:22:19.000Z</time>
</trkpt>
<trkpt lat="46.0424520" lon="10.3277120">
	<ele>1033.60</ele>
	<time>2025-07-30T06:22:20.000Z</time>
</trkpt>
<trkpt lat="46.0424550" lon="10.3277320">
	<ele>1033.80</ele>
	<time>2025-07-30T06:22:21.000Z</time>
</trkpt>
<trkpt lat="46.0424580" lon="10.3277400">
	<ele>1034.00</ele>
	<time>2025-07-30T06:22:22.000Z</time>
</trkpt>
<trkpt lat="46.0424600" lon="10.3277510">
	<ele>1034.20</ele>
	<time>2025-07-30T06:22:23.000Z</time>
</trkpt>
<trkpt lat="46.0424650" lon="10.3277640">
	<ele>1034.40</ele>
	<time>2025-07-30T06:22:24.000Z</time>
</trkpt>
<trkpt lat="46.0424670" lon="10.3277800">
	<ele>1034.60</ele>
	<time>2025-07-30T06:22:25.000Z</time>
</trkpt>
<trkpt lat="46.0424770" lon="10.3277840">
	<ele>1034.80</ele>
	<time>2025-07-30T06:22:26.000Z</time>
</trkpt>
<trkpt lat="46.0424930" lon="10.3277850">
	<ele>1035.00</ele>
	<time>2025-07-30T06:22:27.000Z</time>
</trkpt>
<trkpt lat="46.0424960" lon="10.3277870">
	<ele>1035.20</ele>
	<time>2025-07-30T06:22:28.000Z</time>
</trkpt>
<trkpt lat="46.0424990" lon="10.3277870">
	<ele>1035.20</ele>
	<time>2025-07-30T06:22:29.000Z</time>
</trkpt>
<trkpt lat="46.0424970" lon="10.3277900">
	<ele>1035.40</ele>
	<time>2025-07-30T06:22:30.000Z</time>
</trkpt>
<trkpt lat="46.0425020" lon="10.3277810">
	<ele>1035.40</ele>
	<time>2025-07-30T06:22:31.000Z</time>
</trkpt>
<trkpt lat="46.0425020" lon="10.3277700">
	<ele>1035.40</ele>
	<time>2025-07-30T06:22:32.000Z</time>
</trkpt>
<trkpt lat="46.0424990" lon="10.3277670">
	<ele>1035.40</ele>
	<time>2025-07-30T06:22:33.000Z</time>
</trkpt>
<trkpt lat="46.0424970" lon="10.3277650">
	<ele>1035.60</ele>
	<time>2025-07-30T06:22:34.000Z</time>
</trkpt>
<trkpt lat="46.0424970" lon="10.3277610">
	<ele>1035.60</ele>
	<time>2025-07-30T06:22:35.000Z</time>
</trkpt>
<trkpt lat="46.0424970" lon="10.3277620">
	<ele>1035.60</ele>
	<time>2025-07-30T06:22:36.000Z</time>
</trkpt>
<trkpt lat="46.0424980" lon="10.3277610">
	<ele>1035.60</ele>
	<time>2025-07-30T06:22:37.000Z</time>
</trkpt>
<trkpt lat="46.0424970" lon="10.3277630">
	<ele>1035.40</ele>
	<time>2025-07-30T06:22:38.000Z</time>
</trkpt>
<trkpt lat="46.0424930" lon="10.3277640">
	<ele>1035.40</ele>
	<time>2025-07-30T06:22:39.000Z</time>
</trkpt>
<trkpt lat="46.0424900" lon="10.3277630">
	<ele>1035.40</ele>
	<time>2025-07-30T06:22:40.000Z</time>
</trkpt>
<trkpt lat="46.0424900" lon="10.3277620">
	<ele>1035.40</ele>
	<time>2025-07-30T06:22:41.000Z</time>
</trkpt>
<trkpt lat="46.0424860" lon="10.3277620">
	<ele>1035.40</ele>
	<time>2025-07-30T06:22:42.000Z</time>
</trkpt>
<trkpt lat="46.0424840" lon="10.3277620">
	<ele>1035.40</ele>
	<time>2025-07-30T06:22:43.000Z</time>
</trkpt>
<trkpt lat="46.0424840" lon="10.3277630">
	<ele>1035.60</ele>
	<time>2025-07-30T06:22:44.000Z</time>
</trkpt>
<trkpt lat="46.0424830" lon="10.3277620">
	<ele>1035.60</ele>
	<time>2025-07-30T06:22:45.000Z</time>
</trkpt>
<trkpt lat="46.0424840" lon="10.3277620">
	<ele>1035.60</ele>
	<time>2025-07-30T06:22:46.000Z</time>
</trkpt>
<trkpt lat="46.0424830" lon="10.3277670">
	<ele>1035.60</ele>
	<time>2025-07-30T06:22:47.000Z</time>
</trkpt>
<trkpt lat="46.0424820" lon="10.3277670">
	<ele>1035.60</ele>
	<time>2025-07-30T06:22:48.000Z</time>
</trkpt>
<trkpt lat="46.0424820" lon="10.3277670">
	<ele>1035.60</ele>
	<time>2025-07-30T06:22:49.000Z</time>
</trkpt>
<trkpt lat="46.0424820" lon="10.3277670">
	<ele>1035.60</ele>
	<time>2025-07-30T06:22:50.000Z</time>
</trkpt>
<trkpt lat="46.0424820" lon="10.3277670">
	<ele>1035.60</ele>
	<time>2025-07-30T06:22:51.000Z</time>
</trkpt>
<trkpt lat="46.0424820" lon="10.3277670">
	<ele>1035.60</ele>
	<time>2025-07-30T06:22:52.000Z</time>
</trkpt>
<trkpt lat="46.0424820" lon="10.3277670">
	<ele>1035.60</ele>
	<time>2025-07-30T06:22:53.000Z</time>
</trkpt>
<trkpt lat="46.0424820" lon="10.3277670">
	<ele>1035.60</ele>
	<time>2025-07-30T06:22:54.000Z</time>
</trkpt>
<trkpt lat="46.0424840" lon="10.3277690">
	<ele>1035.60</ele>
	<time>2025-07-30T06:22:55.000Z</time>
</trkpt>
<trkpt lat="46.0424890" lon="10.3277750">
	<ele>1035.80</ele>
	<time>2025-07-30T06:22:56.000Z</time>
</trkpt>
<trkpt lat="46.0424940" lon="10.3277780">
	<ele>1035.80</ele>
	<time>2025-07-30T06:22:57.000Z</time>
</trkpt>
<trkpt lat="46.0424970" lon="10.3277810">
	<ele>1036.00</ele>
	<time>2025-07-30T06:22:58.000Z</time>
</trkpt>
<trkpt lat="46.0425000" lon="10.3277850">
	<ele>1036.20</ele>
	<time>2025-07-30T06:22:59.000Z</time>
</trkpt>
<trkpt lat="46.0425020" lon="10.3277840">
	<ele>1036.20</ele>
	<time>2025-07-30T06:23:00.000Z</time>
</trkpt>
<trkpt lat="46.0425030" lon="10.3277840">
	<ele>1036.20</ele>
	<time>2025-07-30T06:23:01.000Z</time>
</trkpt>
<trkpt lat="46.0425020" lon="10.3277830">
	<ele>1036.40</ele>
	<time>2025-07-30T06:23:02.000Z</time>
</trkpt>
<trkpt lat="46.0425040" lon="10.3277840">
	<ele>1036.40</ele>
	<time>2025-07-30T06:23:03.000Z</time>
</trkpt>
<trkpt lat="46.0425040" lon="10.3277880">
	<ele>1036.20</ele>
	<time>2025-07-30T06:23:04.000Z</time>
</trkpt>
<trkpt lat="46.0425030" lon="10.3277890">
	<ele>1036.20</ele>
	<time>2025-07-30T06:23:05.000Z</time>
</trkpt>
<trkpt lat="46.0425020" lon="10.3277900">
	<ele>1036.20</ele>
	<time>2025-07-30T06:23:06.000Z</time>
</trkpt>
<trkpt lat="46.0425020" lon="10.3277920">
	<ele>1036.20</ele>
	<time>2025-07-30T06:23:07.000Z</time>
</trkpt>
<trkpt lat="46.0425010" lon="10.3277940">
	<ele>1036.00</ele>
	<time>2025-07-30T06:23:08.000Z</time>
</trkpt>
<trkpt lat="46.0425010" lon="10.3277940">
	<ele>1036.00</ele>
	<time>2025-07-30T06:23:09.000Z</time>
</trkpt>
<trkpt lat="46.0425010" lon="10.3277940">
	<ele>1036.00</ele>
	<time>2025-07-30T06:23:10.000Z</time>
</trkpt>
<trkpt lat="46.0425010" lon="10.3277940">
	<ele>1036.00</ele>
	<time>2025-07-30T06:23:11.000Z</time>
</trkpt>
<trkpt lat="46.0425010" lon="10.3277940">
	<ele>1036.00</ele>
	<time>2025-07-30T06:23:12.000Z</time>
</trkpt>
<trkpt lat="46.0425010" lon="10.3277940">
	<ele>1036.00</ele>
	<time>2025-07-30T06:23:13.000Z</time>
</trkpt>
<trkpt lat="46.0425010" lon="10.3277940">
	<ele>1036.00</ele>
	<time>2025-07-30T06:23:14.000Z</time>
</trkpt>
<trkpt lat="46.0425010" lon="10.3277940">
	<ele>1036.00</ele>
	<time>2025-07-30T06:23:15.000Z</time>
</trkpt>
<trkpt lat="46.0425010" lon="10.3277940">
	<ele>1036.00</ele>
	<time>2025-07-30T06:23:16.000Z</time>
</trkpt>
<trkpt lat="46.0425010" lon="10.3277940">
	<ele>1036.00</ele>
	<time>2025-07-30T06:23:17.000Z</time>
</trkpt>
<trkpt lat="46.0425010" lon="10.3277940">
	<ele>1036.00</ele>
	<time>2025-07-30T06:23:18.000Z</time>
</trkpt>
<trkpt lat="46.0425010" lon="10.3277940">
	<ele>1036.00</ele>
	<time>2025-07-30T06:23:19.000Z</time>
</trkpt>
<trkpt lat="46.0425020" lon="10.3277940">
	<ele>1036.00</ele>
	<time>2025-07-30T06:23:20.000Z</time>
</trkpt>
<trkpt lat="46.0425020" lon="10.3277940">
	<ele>1036.00</ele>
	<time>2025-07-30T06:23:21.000Z</time>
</trkpt>
<trkpt lat="46.0425020" lon="10.3277930">
	<ele>1036.20</ele>
	<time>2025-07-30T06:23:22.000Z</time>
</trkpt>
<trkpt lat="46.0425020" lon="10.3277920">
	<ele>1036.40</ele>
	<time>2025-07-30T06:23:23.000Z</time>
</trkpt>
<trkpt lat="46.0425020" lon="10.3277900">
	<ele>1036.40</ele>
	<time>2025-07-30T06:23:24.000Z</time>
</trkpt>
<trkpt lat="46.0425030" lon="10.3277890">
	<ele>1036.40</ele>
	<time>2025-07-30T06:23:25.000Z</time>
</trkpt>
<trkpt lat="46.0425030" lon="10.3277890">
	<ele>1036.40</ele>
	<time>2025-07-30T06:23:26.000Z</time>
</trkpt>
<trkpt lat="46.0425030" lon="10.3277890">
	<ele>1036.40</ele>
	<time>2025-07-30T06:23:27.000Z</time>
</trkpt>
<trkpt lat="46.0425030" lon="10.3277890">
	<ele>1036.20</ele>
	<time>2025-07-30T06:23:28.000Z</time>
</trkpt>
<trkpt lat="46.0425030" lon="10.3277890">
	<ele>1036.20</ele>
	<time>2025-07-30T06:23:29.000Z</time>
</trkpt>
<trkpt lat="46.0425030" lon="10.3277890">
	<ele>1036.20</ele>
	<time>2025-07-30T06:23:30.000Z</time>
</trkpt>
<trkpt lat="46.0425030" lon="10.3277890">
	<ele>1036.00</ele>
	<time>2025-07-30T06:23:31.000Z</time>
</trkpt>
<trkpt lat="46.0425030" lon="10.3277890">
	<ele>1036.00</ele>
	<time>2025-07-30T06:23:32.000Z</time>
</trkpt>
<trkpt lat="46.0425020" lon="10.3277900">
	<ele>1036.00</ele>
	<time>2025-07-30T06:23:33.000Z</time>
</trkpt>
<trkpt lat="46.0425020" lon="10.3277920">
	<ele>1036.00</ele>
	<time>2025-07-30T06:23:34.000Z</time>
</trkpt>
<trkpt lat="46.0425020" lon="10.3277930">
	<ele>1036.00</ele>
	<time>2025-07-30T06:23:35.000Z</time>
</trkpt>
<trkpt lat="46.0425020" lon="10.3277930">
	<ele>1036.00</ele>
	<time>2025-07-30T06:23:36.000Z</time>
</trkpt>
<trkpt lat="46.0425020" lon="10.3277940">
	<ele>1036.00</ele>
	<time>2025-07-30T06:23:37.000Z</time>
</trkpt>
<trkpt lat="46.0425020" lon="10.3277940">
	<ele>1036.00</ele>
	<time>2025-07-30T06:23:38.000Z</time>
</trkpt>
<trkpt lat="46.0425020" lon="10.3277940">
	<ele>1036.00</ele>
	<time>2025-07-30T06:23:39.000Z</time>
</trkpt>
<trkpt lat="46.0425020" lon="10.3277940">
	<ele>1036.00</ele>
	<time>2025-07-30T06:23:40.000Z</time>
</trkpt>
<trkpt lat="46.0425020" lon="10.3277940">
	<ele>1036.00</ele>
	<time>2025-07-30T06:23:41.000Z</time>
</trkpt>
<trkpt lat="46.0425020" lon="10.3277940">
	<ele>1036.00</ele>
	<time>2025-07-30T06:23:42.000Z</time>
</trkpt>
<trkpt lat="46.0425020" lon="10.3277930">
	<ele>1035.80</ele>
	<time>2025-07-30T06:23:43.000Z</time>
</trkpt>
<trkpt lat="46.0425020" lon="10.3277930">
	<ele>1035.80</ele>
	<time>2025-07-30T06:23:44.000Z</time>
</trkpt>
<trkpt lat="46.0425020" lon="10.3277930">
	<ele>1035.80</ele>
	<time>2025-07-30T06:23:45.000Z</time>
</trkpt>
<trkpt lat="46.0425020" lon="10.3277930">
	<ele>1035.80</ele>
	<time>2025-07-30T06:23:46.000Z</time>
</trkpt>
<trkpt lat="46.0425020" lon="10.3277930">
	<ele>1035.80</ele>
	<time>2025-07-30T06:23:47.000Z</time>
</trkpt>
<trkpt lat="46.0425020" lon="10.3277930">
	<ele>1035.80</ele>
	<time>2025-07-30T06:23:48.000Z</time>
</trkpt>
<trkpt lat="46.0425020" lon="10.3277930">
	<ele>1035.80</ele>
	<time>2025-07-30T06:23:49.000Z</time>
</trkpt>
<trkpt lat="46.0425020" lon="10.3277930">
	<ele>1035.80</ele>
	<time>2025-07-30T06:23:50.000Z</time>
</trkpt>
<trkpt lat="46.0425020" lon="10.3277930">
	<ele>1035.80</ele>
	<time>2025-07-30T06:23:51.000Z</time>
</trkpt>
<trkpt lat="46.0425020" lon="10.3277930">
	<ele>1035.80</ele>
	<time>2025-07-30T06:23:52.000Z</time>
</trkpt>
<trkpt lat="46.0425020" lon="10.3277930">
	<ele>1035.80</ele>
	<time>2025-07-30T06:23:53.000Z</time>
</trkpt>
<trkpt lat="46.0425020" lon="10.3277930">
	<ele>1035.80</ele>
	<time>2025-07-30T06:23:54.000Z</time>
</trkpt>
<trkpt lat="46.0425020" lon="10.3277930">
	<ele>1035.80</ele>
	<time>2025-07-30T06:23:55.000Z</time>
</trkpt>
<trkpt lat="46.0425020" lon="10.3277930">
	<ele>1035.80</ele>
	<time>2025-07-30T06:23:56.000Z</time>
</trkpt>
<trkpt lat="46.0425020" lon="10.3277930">
	<ele>1035.80</ele>
	<time>2025-07-30T06:23:57.000Z</time>
</trkpt>
<trkpt lat="46.0425020" lon="10.3277930">
	<ele>1035.80</ele>
	<time>2025-07-30T06:23:58.000Z</time>
</trkpt>
<trkpt lat="46.0425020" lon="10.3277930">
	<ele>1035.80</ele>
	<time>2025-07-30T06:23:59.000Z</time>
</trkpt>
<trkpt lat="46.0425020" lon="10.3277930">
	<ele>1035.80</ele>
	<time>2025-07-30T06:24:00.000Z</time>
</trkpt>
<trkpt lat="46.0425020" lon="10.3277930">
	<ele>1035.80</ele>
	<time>2025-07-30T06:24:01.000Z</time>
</trkpt>
<trkpt lat="46.0425020" lon="10.3277930">
	<ele>1035.80</ele>
	<time>2025-07-30T06:24:02.000Z</time>
</trkpt>
<trkpt lat="46.0425020" lon="10.3277930">
	<ele>1035.80</ele>
	<time>2025-07-30T06:24:03.000Z</time>
</trkpt>
<trkpt lat="46.0425020" lon="10.3277930">
	<ele>1035.80</ele>
	<time>2025-07-30T06:24:04.000Z</time>
</trkpt>
<trkpt lat="46.0425020" lon="10.3277930">
	<ele>1035.80</ele>
	<time>2025-07-30T06:24:05.000Z</time>
</trkpt>
<trkpt lat="46.0425020" lon="10.3277930">
	<ele>1035.80</ele>
	<time>2025-07-30T06:24:06.000Z</time>
</trkpt>
<trkpt lat="46.0425020" lon="10.3277930">
	<ele>1035.80</ele>
	<time>2025-07-30T06:24:07.000Z</time>
</trkpt>
<trkpt lat="46.0425010" lon="10.3277930">
	<ele>1035.80</ele>
	<time>2025-07-30T06:24:08.000Z</time>
</trkpt>
<trkpt lat="46.0425010" lon="10.3277930">
	<ele>1035.80</ele>
	<time>2025-07-30T06:24:09.000Z</time>
</trkpt>
<trkpt lat="46.0425010" lon="10.3277930">
	<ele>1035.80</ele>
	<time>2025-07-30T06:24:10.000Z</time>
</trkpt>
<trkpt lat="46.0425010" lon="10.3277930">
	<ele>1035.80</ele>
	<time>2025-07-30T06:24:11.000Z</time>
</trkpt>
<trkpt lat="46.0425010" lon="10.3277980">
	<ele>1035.80</ele>
	<time>2025-07-30T06:24:12.000Z</time>
</trkpt>
<trkpt lat="46.0425010" lon="10.3278000">
	<ele>1035.80</ele>
	<time>2025-07-30T06:24:13.000Z</time>
</trkpt>
<trkpt lat="46.0425010" lon="10.3278040">
	<ele>1035.80</ele>
	<time>2025-07-30T06:24:14.000Z</time>
</trkpt>
<trkpt lat="46.0425010" lon="10.3278080">
	<ele>1035.80</ele>
	<time>2025-07-30T06:24:15.000Z</time>
</trkpt>
<trkpt lat="46.0425010" lon="10.3278100">
	<ele>1035.80</ele>
	<time>2025-07-30T06:24:16.000Z</time>
</trkpt>
<trkpt lat="46.0425010" lon="10.3278100">
	<ele>1035.80</ele>
	<time>2025-07-30T06:24:17.000Z</time>
</trkpt>
<trkpt lat="46.0425010" lon="10.3278110">
	<ele>1035.80</ele>
	<time>2025-07-30T06:24:18.000Z</time>
</trkpt>
<trkpt lat="46.0425010" lon="10.3278110">
	<ele>1035.80</ele>
	<time>2025-07-30T06:24:19.000Z</time>
</trkpt>
<trkpt lat="46.0425010" lon="10.3278110">
	<ele>1035.80</ele>
	<time>2025-07-30T06:24:20.000Z</time>
</trkpt>
<trkpt lat="46.0425010" lon="10.3278110">
	<ele>1035.80</ele>
	<time>2025-07-30T06:24:21.000Z</time>
</trkpt>
<trkpt lat="46.0425010" lon="10.3278110">
	<ele>1035.80</ele>
	<time>2025-07-30T06:24:22.000Z</time>
</trkpt>
<trkpt lat="46.0425010" lon="10.3278120">
	<ele>1035.80</ele>
	<time>2025-07-30T06:24:23.000Z</time>
</trkpt>
<trkpt lat="46.0425010" lon="10.3278120">
	<ele>1035.80</ele>
	<time>2025-07-30T06:24:24.000Z</time>
</trkpt>
<trkpt lat="46.0425010" lon="10.3278130">
	<ele>1035.80</ele>
	<time>2025-07-30T06:24:25.000Z</time>
</trkpt>
<trkpt lat="46.0425010" lon="10.3278130">
	<ele>1035.80</ele>
	<time>2025-07-30T06:24:26.000Z</time>
</trkpt>
<trkpt lat="46.0425000" lon="10.3278140">
	<ele>1035.80</ele>
	<time>2025-07-30T06:24:27.000Z</time>
</trkpt>
<trkpt lat="46.0425000" lon="10.3278140">
	<ele>1035.80</ele>
	<time>2025-07-30T06:24:28.000Z</time>
</trkpt>
<trkpt lat="46.0425000" lon="10.3278140">
	<ele>1035.80</ele>
	<time>2025-07-30T06:24:29.000Z</time>
</trkpt>
<trkpt lat="46.0425000" lon="10.3278140">
	<ele>1035.80</ele>
	<time>2025-07-30T06:24:30.000Z</time>
</trkpt>
<trkpt lat="46.0425000" lon="10.3278140">
	<ele>1035.80</ele>
	<time>2025-07-30T06:24:31.000Z</time>
</trkpt>
<trkpt lat="46.0425010" lon="10.3278140">
	<ele>1035.80</ele>
	<time>2025-07-30T06:24:32.000Z</time>
</trkpt>
<trkpt lat="46.0425010" lon="10.3278140">
	<ele>1035.80</ele>
	<time>2025-07-30T06:24:33.000Z</time>
</trkpt>
<trkpt lat="46.0425010" lon="10.3278140">
	<ele>1035.80</ele>
	<time>2025-07-30T06:24:34.000Z</time>
</trkpt>
<trkpt lat="46.0425010" lon="10.3278140">
	<ele>1035.80</ele>
	<time>2025-07-30T06:24:35.000Z</time>
</trkpt>
<trkpt lat="46.0425020" lon="10.3278130">
	<ele>1035.80</ele>
	<time>2025-07-30T06:24:36.000Z</time>
</trkpt>
<trkpt lat="46.0425020" lon="10.3278130">
	<ele>1035.80</ele>
	<time>2025-07-30T06:24:37.000Z</time>
</trkpt>
<trkpt lat="46.0425020" lon="10.3278120">
	<ele>1035.80</ele>
	<time>2025-07-30T06:24:38.000Z</time>
</trkpt>
<trkpt lat="46.0425020" lon="10.3278120">
	<ele>1035.80</ele>
	<time>2025-07-30T06:24:39.000Z</time>
</trkpt>
<trkpt lat="46.0425030" lon="10.3278120">
	<ele>1035.80</ele>
	<time>2025-07-30T06:24:40.000Z</time>
</trkpt>
<trkpt lat="46.0425030" lon="10.3278120">
	<ele>1035.80</ele>
	<time>2025-07-30T06:24:41.000Z</time>
</trkpt>
<trkpt lat="46.0425030" lon="10.3278110">
	<ele>1035.80</ele>
	<time>2025-07-30T06:24:42.000Z</time>
</trkpt>
<trkpt lat="46.0425040" lon="10.3278100">
	<ele>1035.80</ele>
	<time>2025-07-30T06:24:43.000Z</time>
</trkpt>
<trkpt lat="46.0425050" lon="10.3278100">
	<ele>1035.80</ele>
	<time>2025-07-30T06:24:44.000Z</time>
</trkpt>
<trkpt lat="46.0425070" lon="10.3278090">
	<ele>1035.80</ele>
	<time>2025-07-30T06:24:45.000Z</time>
</trkpt>
<trkpt lat="46.0425070" lon="10.3278090">
	<ele>1035.80</ele>
	<time>2025-07-30T06:24:46.000Z</time>
</trkpt>
<trkpt lat="46.0425080" lon="10.3278090">
	<ele>1035.80</ele>
	<time>2025-07-30T06:24:47.000Z</time>
</trkpt>
<trkpt lat="46.0425080" lon="10.3278090">
	<ele>1035.80</ele>
	<time>2025-07-30T06:24:48.000Z</time>
</trkpt>
<trkpt lat="46.0425090" lon="10.3278090">
	<ele>1035.80</ele>
	<time>2025-07-30T06:24:49.000Z</time>
</trkpt>
<trkpt lat="46.0425090" lon="10.3278090">
	<ele>1035.80</ele>
	<time>2025-07-30T06:24:50.000Z</time>
</trkpt>
<trkpt lat="46.0425090" lon="10.3278080">
	<ele>1035.80</ele>
	<time>2025-07-30T06:24:51.000Z</time>
</trkpt>
<trkpt lat="46.0425120" lon="10.3278020">
	<ele>1035.80</ele>
	<time>2025-07-30T06:24:52.000Z</time>
</trkpt>
<trkpt lat="46.0425130" lon="10.3277930">
	<ele>1035.80</ele>
	<time>2025-07-30T06:24:53.000Z</time>
</trkpt>
<trkpt lat="46.0425150" lon="10.3277870">
	<ele>1035.80</ele>
	<time>2025-07-30T06:24:54.000Z</time>
</trkpt>
<trkpt lat="46.0425150" lon="10.3277830">
	<ele>1035.80</ele>
	<time>2025-07-30T06:24:55.000Z</time>
</trkpt>
<trkpt lat="46.0425160" lon="10.3277800">
	<ele>1035.80</ele>
	<time>2025-07-30T06:24:56.000Z</time>
</trkpt>
<trkpt lat="46.0425160" lon="10.3277790">
	<ele>1035.80</ele>
	<time>2025-07-30T06:24:57.000Z</time>
</trkpt>
<trkpt lat="46.0425160" lon="10.3277780">
	<ele>1035.80</ele>
	<time>2025-07-30T06:24:58.000Z</time>
</trkpt>
<trkpt lat="46.0425160" lon="10.3277780">
	<ele>1035.80</ele>
	<time>2025-07-30T06:24:59.000Z</time>
</trkpt>
<trkpt lat="46.0425160" lon="10.3277770">
	<ele>1035.80</ele>
	<time>2025-07-30T06:25:00.000Z</time>
</trkpt>
<trkpt lat="46.0425160" lon="10.3277770">
	<ele>1035.80</ele>
	<time>2025-07-30T06:25:01.000Z</time>
</trkpt>
<trkpt lat="46.0425160" lon="10.3277770">
	<ele>1035.80</ele>
	<time>2025-07-30T06:25:02.000Z</time>
</trkpt>
<trkpt lat="46.0425160" lon="10.3277770">
	<ele>1035.80</ele>
	<time>2025-07-30T06:25:03.000Z</time>
</trkpt>
<trkpt lat="46.0425160" lon="10.3277770">
	<ele>1035.80</ele>
	<time>2025-07-30T06:25:04.000Z</time>
</trkpt>
<trkpt lat="46.0425160" lon="10.3277760">
	<ele>1035.80</ele>
	<time>2025-07-30T06:25:05.000Z</time>
</trkpt>
<trkpt lat="46.0425160" lon="10.3277760">
	<ele>1035.80</ele>
	<time>2025-07-30T06:25:06.000Z</time>
</trkpt>
<trkpt lat="46.0425160" lon="10.3277760">
	<ele>1035.80</ele>
	<time>2025-07-30T06:25:07.000Z</time>
</trkpt>
<trkpt lat="46.0425160" lon="10.3277750">
	<ele>1035.80</ele>
	<time>2025-07-30T06:25:08.000Z</time>
</trkpt>
<trkpt lat="46.0425160" lon="10.3277750">
	<ele>1035.80</ele>
	<time>2025-07-30T06:25:09.000Z</time>
</trkpt>
<trkpt lat="46.0425160" lon="10.3277750">
	<ele>1035.80</ele>
	<time>2025-07-30T06:25:10.000Z</time>
</trkpt>
<trkpt lat="46.0425160" lon="10.3277750">
	<ele>1035.80</ele>
	<time>2025-07-30T06:25:11.000Z</time>
</trkpt>
<trkpt lat="46.0425160" lon="10.3277750">
	<ele>1035.80</ele>
	<time>2025-07-30T06:25:12.000Z</time>
</trkpt>
<trkpt lat="46.0425160" lon="10.3277750">
	<ele>1035.80</ele>
	<time>2025-07-30T06:25:13.000Z</time>
</trkpt>
<trkpt lat="46.0425160" lon="10.3277750">
	<ele>1035.80</ele>
	<time>2025-07-30T06:25:14.000Z</time>
</trkpt>
<trkpt lat="46.0425160" lon="10.3277750">
	<ele>1035.80</ele>
	<time>2025-07-30T06:25:15.000Z</time>
</trkpt>
<trkpt lat="46.0425160" lon="10.3277750">
	<ele>1035.80</ele>
	<time>2025-07-30T06:25:16.000Z</time>
</trkpt>
<trkpt lat="46.0425160" lon="10.3277750">
	<ele>1035.80</ele>
	<time>2025-07-30T06:25:17.000Z</time>
</trkpt>
<trkpt lat="46.0425170" lon="10.3277750">
	<ele>1035.80</ele>
	<time>2025-07-30T06:25:18.000Z</time>
</trkpt>
<trkpt lat="46.0425170" lon="10.3277750">
	<ele>1035.80</ele>
	<time>2025-07-30T06:25:19.000Z</time>
</trkpt>
<trkpt lat="46.0425190" lon="10.3277740">
	<ele>1035.80</ele>
	<time>2025-07-30T06:25:20.000Z</time>
</trkpt>
<trkpt lat="46.0425220" lon="10.3277740">
	<ele>1035.80</ele>
	<time>2025-07-30T06:25:21.000Z</time>
</trkpt>
<trkpt lat="46.0425260" lon="10.3277740">
	<ele>1035.80</ele>
	<time>2025-07-30T06:25:22.000Z</time>
</trkpt>
<trkpt lat="46.0425290" lon="10.3277740">
	<ele>1035.80</ele>
	<time>2025-07-30T06:25:23.000Z</time>
</trkpt>
<trkpt lat="46.0425310" lon="10.3277740">
	<ele>1035.80</ele>
	<time>2025-07-30T06:25:24.000Z</time>
</trkpt>
<trkpt lat="46.0425330" lon="10.3277740">
	<ele>1035.80</ele>
	<time>2025-07-30T06:25:25.000Z</time>
</trkpt>
<trkpt lat="46.0425360" lon="10.3277730">
	<ele>1035.80</ele>
	<time>2025-07-30T06:25:26.000Z</time>
</trkpt>
<trkpt lat="46.0425370" lon="10.3277720">
	<ele>1035.80</ele>
	<time>2025-07-30T06:25:27.000Z</time>
</trkpt>
<trkpt lat="46.0425390" lon="10.3277710">
	<ele>1035.80</ele>
	<time>2025-07-30T06:25:28.000Z</time>
</trkpt>
<trkpt lat="46.0425390" lon="10.3277700">
	<ele>1035.80</ele>
	<time>2025-07-30T06:25:29.000Z</time>
</trkpt>
<trkpt lat="46.0425400" lon="10.3277700">
	<ele>1035.80</ele>
	<time>2025-07-30T06:25:30.000Z</time>
</trkpt>
<trkpt lat="46.0425400" lon="10.3277700">
	<ele>1035.80</ele>
	<time>2025-07-30T06:25:31.000Z</time>
</trkpt>
<trkpt lat="46.0425400" lon="10.3277690">
	<ele>1035.80</ele>
	<time>2025-07-30T06:25:32.000Z</time>
</trkpt>
<trkpt lat="46.0425410" lon="10.3277690">
	<ele>1035.80</ele>
	<time>2025-07-30T06:25:33.000Z</time>
</trkpt>
<trkpt lat="46.0425410" lon="10.3277690">
	<ele>1035.80</ele>
	<time>2025-07-30T06:25:34.000Z</time>
</trkpt>
<trkpt lat="46.0425410" lon="10.3277680">
	<ele>1035.80</ele>
	<time>2025-07-30T06:25:35.000Z</time>
</trkpt>
<trkpt lat="46.0425410" lon="10.3277680">
	<ele>1035.80</ele>
	<time>2025-07-30T06:25:36.000Z</time>
</trkpt>
<trkpt lat="46.0425410" lon="10.3277680">
	<ele>1035.80</ele>
	<time>2025-07-30T06:25:37.000Z</time>
</trkpt>
<trkpt lat="46.0425410" lon="10.3277680">
	<ele>1035.80</ele>
	<time>2025-07-30T06:25:38.000Z</time>
</trkpt>
<trkpt lat="46.0425420" lon="10.3277680">
	<ele>1035.80</ele>
	<time>2025-07-30T06:25:39.000Z</time>
</trkpt>
<trkpt lat="46.0425420" lon="10.3277680">
	<ele>1035.80</ele>
	<time>2025-07-30T06:25:40.000Z</time>
</trkpt>
<trkpt lat="46.0425420" lon="10.3277680">
	<ele>1035.80</ele>
	<time>2025-07-30T06:25:41.000Z</time>
</trkpt>
<trkpt lat="46.0425420" lon="10.3277680">
	<ele>1035.80</ele>
	<time>2025-07-30T06:25:42.000Z</time>
</trkpt>
<trkpt lat="46.0425510" lon="10.3277640">
	<ele>1035.80</ele>
	<time>2025-07-30T06:25:43.000Z</time>
</trkpt>
<trkpt lat="46.0425690" lon="10.3277500">
	<ele>1035.80</ele>
	<time>2025-07-30T06:25:44.000Z</time>
</trkpt>
<trkpt lat="46.0425870" lon="10.3277340">
	<ele>1035.80</ele>
	<time>2025-07-30T06:25:45.000Z</time>
</trkpt>
<trkpt lat="46.0426030" lon="10.3277230">
	<ele>1035.80</ele>
	<time>2025-07-30T06:25:46.000Z</time>
</trkpt>
<trkpt lat="46.0426150" lon="10.3277080">
	<ele>1035.80</ele>
	<time>2025-07-30T06:25:47.000Z</time>
</trkpt>
<trkpt lat="46.0426260" lon="10.3276950">
	<ele>1035.80</ele>
	<time>2025-07-30T06:25:48.000Z</time>
</trkpt>
<trkpt lat="46.0426370" lon="10.3276850">
	<ele>1035.80</ele>
	<time>2025-07-30T06:25:49.000Z</time>
</trkpt>
<trkpt lat="46.0426550" lon="10.3276660">
	<ele>1035.80</ele>
	<time>2025-07-30T06:25:50.000Z</time>
</trkpt>
<trkpt lat="46.0426720" lon="10.3276460">
	<ele>1035.80</ele>
	<time>2025-07-30T06:25:51.000Z</time>
</trkpt>
<trkpt lat="46.0426900" lon="10.3276210">
	<ele>1035.80</ele>
	<time>2025-07-30T06:25:52.000Z</time>
</trkpt>
<trkpt lat="46.0427000" lon="10.3276010">
	<ele>1035.80</ele>
	<time>2025-07-30T06:25:53.000Z</time>
</trkpt>
<trkpt lat="46.0427060" lon="10.3275870">
	<ele>1039.20</ele>
	<time>2025-07-30T06:25:54.000Z</time>
</trkpt>
<trkpt lat="46.0427130" lon="10.3275690">
	<ele>1041.20</ele>
	<time>2025-07-30T06:25:55.000Z</time>
</trkpt>
<trkpt lat="46.0427180" lon="10.3275550">
	<ele>1042.40</ele>
	<time>2025-07-30T06:25:56.000Z</time>
</trkpt>
<trkpt lat="46.0427260" lon="10.3275360">
	<ele>1043.00</ele>
	<time>2025-07-30T06:25:57.000Z</time>
</trkpt>
<trkpt lat="46.0427350" lon="10.3275170">
	<ele>1043.40</ele>
	<time>2025-07-30T06:25:58.000Z</time>
</trkpt>
<trkpt lat="46.0427410" lon="10.3275040">
	<ele>1043.80</ele>
	<time>2025-07-30T06:25:59.000Z</time>
</trkpt>
<trkpt lat="46.0427460" lon="10.3274900">
	<ele>1044.20</ele>
	<time>2025-07-30T06:26:00.000Z</time>
</trkpt>
<trkpt lat="46.0427480" lon="10.3274700">
	<ele>1044.40</ele>
	<time>2025-07-30T06:26:01.000Z</time>
</trkpt>
<trkpt lat="46.0427420" lon="10.3274560">
	<ele>1044.60</ele>
	<time>2025-07-30T06:26:02.000Z</time>
</trkpt>
<trkpt lat="46.0427430" lon="10.3274410">
	<ele>1045.00</ele>
	<time>2025-07-30T06:26:03.000Z</time>
</trkpt>
<trkpt lat="46.0427440" lon="10.3274270">
	<ele>1045.20</ele>
	<time>2025-07-30T06:26:04.000Z</time>
</trkpt>
<trkpt lat="46.0427490" lon="10.3274160">
	<ele>1045.60</ele>
	<time>2025-07-30T06:26:05.000Z</time>
</trkpt>
<trkpt lat="46.0427560" lon="10.3273970">
	<ele>1045.80</ele>
	<time>2025-07-30T06:26:06.000Z</time>
</trkpt>
<trkpt lat="46.0427610" lon="10.3273780">
	<ele>1045.80</ele>
	<time>2025-07-30T06:26:07.000Z</time>
</trkpt>
<trkpt lat="46.0427660" lon="10.3273620">
	<ele>1046.00</ele>
	<time>2025-07-30T06:26:08.000Z</time>
</trkpt>
<trkpt lat="46.0427710" lon="10.3273510">
	<ele>1046.00</ele>
	<time>2025-07-30T06:26:09.000Z</time>
</trkpt>
<trkpt lat="46.0427750" lon="10.3273290">
	<ele>1046.20</ele>
	<time>2025-07-30T06:26:10.000Z</time>
</trkpt>
<trkpt lat="46.0427840" lon="10.3273110">
	<ele>1046.60</ele>
	<time>2025-07-30T06:26:11.000Z</time>
</trkpt>
<trkpt lat="46.0427780" lon="10.3272950">
	<ele>1046.80</ele>
	<time>2025-07-30T06:26:12.000Z</time>
</trkpt>
<trkpt lat="46.0427810" lon="10.3272770">
	<ele>1046.80</ele>
	<time>2025-07-30T06:26:13.000Z</time>
</trkpt>
<trkpt lat="46.0427810" lon="10.3272580">
	<ele>1047.20</ele>
	<time>2025-07-30T06:26:14.000Z</time>
</trkpt>
<trkpt lat="46.0427890" lon="10.3272410">
	<ele>1047.40</ele>
	<time>2025-07-30T06:26:15.000Z</time>
</trkpt>
<trkpt lat="46.0427940" lon="10.3272290">
	<ele>1048.00</ele>
	<time>2025-07-30T06:26:16.000Z</time>
</trkpt>
<trkpt lat="46.0427960" lon="10.3272190">
	<ele>1048.20</ele>
	<time>2025-07-30T06:26:17.000Z</time>
</trkpt>
<trkpt lat="46.0427940" lon="10.3272090">
	<ele>1048.40</ele>
	<time>2025-07-30T06:26:18.000Z</time>
</trkpt>
<trkpt lat="46.0427940" lon="10.3272020">
	<ele>1048.80</ele>
	<time>2025-07-30T06:26:19.000Z</time>
</trkpt>
<trkpt lat="46.0427910" lon="10.3271920">
	<ele>1049.00</ele>
	<time>2025-07-30T06:26:20.000Z</time>
</trkpt>
<trkpt lat="46.0427960" lon="10.3271780">
	<ele>1049.20</ele>
	<time>2025-07-30T06:26:21.000Z</time>
</trkpt>
<trkpt lat="46.0427980" lon="10.3271630">
	<ele>1049.40</ele>
	<time>2025-07-30T06:26:22.000Z</time>
</trkpt>
<trkpt lat="46.0428000" lon="10.3271420">
	<ele>1049.60</ele>
	<time>2025-07-30T06:26:23.000Z</time>
</trkpt>
<trkpt lat="46.0428060" lon="10.3271280">
	<ele>1049.80</ele>
	<time>2025-07-30T06:26:24.000Z</time>
</trkpt>
<trkpt lat="46.0428110" lon="10.3271080">
	<ele>1050.00</ele>
	<time>2025-07-30T06:26:25.000Z</time>
</trkpt>
<trkpt lat="46.0428110" lon="10.3270950">
	<ele>1050.40</ele>
	<time>2025-07-30T06:26:26.000Z</time>
</trkpt>
<trkpt lat="46.0428120" lon="10.3270810">
	<ele>1050.80</ele>
	<time>2025-07-30T06:26:27.000Z</time>
</trkpt>
<trkpt lat="46.0428120" lon="10.3270660">
	<ele>1051.00</ele>
	<time>2025-07-30T06:26:28.000Z</time>
</trkpt>
<trkpt lat="46.0428110" lon="10.3270600">
	<ele>1051.20</ele>
	<time>2025-07-30T06:26:29.000Z</time>
</trkpt>
<trkpt lat="46.0428090" lon="10.3270650">
	<ele>1051.60</ele>
	<time>2025-07-30T06:26:30.000Z</time>
</trkpt>
<trkpt lat="46.0428040" lon="10.3270680">
	<ele>1052.00</ele>
	<time>2025-07-30T06:26:31.000Z</time>
</trkpt>
<trkpt lat="46.0428050" lon="10.3270570">
	<ele>1052.20</ele>
	<time>2025-07-30T06:26:32.000Z</time>
</trkpt>
<trkpt lat="46.0428100" lon="10.3270440">
	<ele>1052.60</ele>
	<time>2025-07-30T06:26:33.000Z</time>
</trkpt>
<trkpt lat="46.0428120" lon="10.3270320">
	<ele>1052.80</ele>
	<time>2025-07-30T06:26:34.000Z</time>
</trkpt>
<trkpt lat="46.0428100" lon="10.3270210">
	<ele>1053.20</ele>
	<time>2025-07-30T06:26:35.000Z</time>
</trkpt>
<trkpt lat="46.0428080" lon="10.3270090">
	<ele>1053.40</ele>
	<time>2025-07-30T06:26:36.000Z</time>
</trkpt>
<trkpt lat="46.0428110" lon="10.3269950">
	<ele>1053.80</ele>
	<time>2025-07-30T06:26:37.000Z</time>
</trkpt>
<trkpt lat="46.0428120" lon="10.3269830">
	<ele>1054.00</ele>
	<time>2025-07-30T06:26:38.000Z</time>
</trkpt>
<trkpt lat="46.0428090" lon="10.3269730">
	<ele>1054.40</ele>
	<time>2025-07-30T06:26:39.000Z</time>
</trkpt>
<trkpt lat="46.0428040" lon="10.3269620">
	<ele>1054.60</ele>
	<time>2025-07-30T06:26:40.000Z</time>
</trkpt>
<trkpt lat="46.0428020" lon="10.3269480">
	<ele>1054.80</ele>
	<time>2025-07-30T06:26:41.000Z</time>
</trkpt>
<trkpt lat="46.0428000" lon="10.3269390">
	<ele>1055.20</ele>
	<time>2025-07-30T06:26:42.000Z</time>
</trkpt>
<trkpt lat="46.0427970" lon="10.3269310">
	<ele>1055.40</ele>
	<time>2025-07-30T06:26:43.000Z</time>
</trkpt>
<trkpt lat="46.0427880" lon="10.3269230">
	<ele>1055.60</ele>
	<time>2025-07-30T06:26:44.000Z</time>
</trkpt>
<trkpt lat="46.0427840" lon="10.3269160">
	<ele>1056.00</ele>
	<time>2025-07-30T06:26:45.000Z</time>
</trkpt>
<trkpt lat="46.0427840" lon="10.3269040">
	<ele>1056.40</ele>
	<time>2025-07-30T06:26:46.000Z</time>
</trkpt>
<trkpt lat="46.0427820" lon="10.3268930">
	<ele>1056.60</ele>
	<time>2025-07-30T06:26:47.000Z</time>
</trkpt>
<trkpt lat="46.0427820" lon="10.3268800">
	<ele>1056.80</ele>
	<time>2025-07-30T06:26:48.000Z</time>
</trkpt>
<trkpt lat="46.0427810" lon="10.3268660">
	<ele>1057.20</ele>
	<time>2025-07-30T06:26:49.000Z</time>
</trkpt>
<trkpt lat="46.0427780" lon="10.3268520">
	<ele>1057.20</ele>
	<time>2025-07-30T06:26:50.000Z</time>
</trkpt>
<trkpt lat="46.0427740" lon="10.3268410">
	<ele>1057.60</ele>
	<time>2025-07-30T06:26:51.000Z</time>
</trkpt>
<trkpt lat="46.0427730" lon="10.3268290">
	<ele>1057.80</ele>
	<time>2025-07-30T06:26:52.000Z</time>
</trkpt>
<trkpt lat="46.0427660" lon="10.3268170">
	<ele>1058.20</ele>
	<time>2025-07-30T06:26:53.000Z</time>
</trkpt>
<trkpt lat="46.0427620" lon="10.3268020">
	<ele>1058.40</ele>
	<time>2025-07-30T06:26:54.000Z</time>
</trkpt>
<trkpt lat="46.0427610" lon="10.3267900">
	<ele>1058.60</ele>
	<time>2025-07-30T06:26:55.000Z</time>
</trkpt>
<trkpt lat="46.0427610" lon="10.3267780">
	<ele>1058.80</ele>
	<time>2025-07-30T06:26:56.000Z</time>
</trkpt>
<trkpt lat="46.0427610" lon="10.3267610">
	<ele>1058.80</ele>
	<time>2025-07-30T06:26:57.000Z</time>
</trkpt>
<trkpt lat="46.0427620" lon="10.3267500">
	<ele>1059.20</ele>
	<time>2025-07-30T06:26:58.000Z</time>
</trkpt>
<trkpt lat="46.0427620" lon="10.3267360">
	<ele>1059.60</ele>
	<time>2025-07-30T06:26:59.000Z</time>
</trkpt>
<trkpt lat="46.0427600" lon="10.3267270">
	<ele>1060.00</ele>
	<time>2025-07-30T06:27:00.000Z</time>
</trkpt>
<trkpt lat="46.0427550" lon="10.3267200">
	<ele>1060.20</ele>
	<time>2025-07-30T06:27:01.000Z</time>
</trkpt>
<trkpt lat="46.0427500" lon="10.3267110">
	<ele>1060.40</ele>
	<time>2025-07-30T06:27:02.000Z</time>
</trkpt>
<trkpt lat="46.0427460" lon="10.3266970">
	<ele>1060.80</ele>
	<time>2025-07-30T06:27:03.000Z</time>
</trkpt>
<trkpt lat="46.0427430" lon="10.3266820">
	<ele>1060.80</ele>
	<time>2025-07-30T06:27:04.000Z</time>
</trkpt>
<trkpt lat="46.0427440" lon="10.3266690">
	<ele>1061.00</ele>
	<time>2025-07-30T06:27:05.000Z</time>
</trkpt>
<trkpt lat="46.0427480" lon="10.3266580">
	<ele>1061.20</ele>
	<time>2025-07-30T06:27:06.000Z</time>
</trkpt>
<trkpt lat="46.0427530" lon="10.3266440">
	<ele>1061.40</ele>
	<time>2025-07-30T06:27:07.000Z</time>
</trkpt>
<trkpt lat="46.0427560" lon="10.3266300">
	<ele>1061.60</ele>
	<time>2025-07-30T06:27:08.000Z</time>
</trkpt>
<trkpt lat="46.0427600" lon="10.3266150">
	<ele>1061.80</ele>
	<time>2025-07-30T06:27:09.000Z</time>
</trkpt>
<trkpt lat="46.0427620" lon="10.3266030">
	<ele>1062.20</ele>
	<time>2025-07-30T06:27:10.000Z</time>
</trkpt>
<trkpt lat="46.0427610" lon="10.3265910">
	<ele>1062.40</ele>
	<time>2025-07-30T06:27:11.000Z</time>
</trkpt>
<trkpt lat="46.0427590" lon="10.3265790">
	<ele>1062.60</ele>
	<time>2025-07-30T06:27:12.000Z</time>
</trkpt>
<trkpt lat="46.0427560" lon="10.3265680">
	<ele>1062.80</ele>
	<time>2025-07-30T06:27:13.000Z</time>
</trkpt>
<trkpt lat="46.0427550" lon="10.3265550">
	<ele>1063.00</ele>
	<time>2025-07-30T06:27:14.000Z</time>
</trkpt>
<trkpt lat="46.0427520" lon="10.3265440">
	<ele>1063.20</ele>
	<time>2025-07-30T06:27:15.000Z</time>
</trkpt>
<trkpt lat="46.0427480" lon="10.3265290">
	<ele>1063.60</ele>
	<time>2025-07-30T06:27:16.000Z</time>
</trkpt>
<trkpt lat="46.0427500" lon="10.3265230">
	<ele>1063.80</ele>
	<time>2025-07-30T06:27:17.000Z</time>
</trkpt>
<trkpt lat="46.0427520" lon="10.3265130">
	<ele>1064.00</ele>
	<time>2025-07-30T06:27:18.000Z</time>
</trkpt>
<trkpt lat="46.0427530" lon="10.3265050">
	<ele>1064.20</ele>
	<time>2025-07-30T06:27:19.000Z</time>
</trkpt>
<trkpt lat="46.0427490" lon="10.3264890">
	<ele>1064.40</ele>
	<time>2025-07-30T06:27:20.000Z</time>
</trkpt>
<trkpt lat="46.0427510" lon="10.3264830">
	<ele>1064.80</ele>
	<time>2025-07-30T06:27:21.000Z</time>
</trkpt>
<trkpt lat="46.0427460" lon="10.3264900">
	<ele>1065.00</ele>
	<time>2025-07-30T06:27:22.000Z</time>
</trkpt>
<trkpt lat="46.0427450" lon="10.3264970">
	<ele>1065.20</ele>
	<time>2025-07-30T06:27:23.000Z</time>
</trkpt>
<trkpt lat="46.0427480" lon="10.3264920">
	<ele>1065.60</ele>
	<time>2025-07-30T06:27:24.000Z</time>
</trkpt>
<trkpt lat="46.0427580" lon="10.3264780">
	<ele>1066.00</ele>
	<time>2025-07-30T06:27:25.000Z</time>
</trkpt>
<trkpt lat="46.0427630" lon="10.3264750">
	<ele>1066.40</ele>
	<time>2025-07-30T06:27:26.000Z</time>
</trkpt>
<trkpt lat="46.0427810" lon="10.3264540">
	<ele>1066.60</ele>
	<time>2025-07-30T06:27:27.000Z</time>
</trkpt>
<trkpt lat="46.0427920" lon="10.3264370">
	<ele>1066.60</ele>
	<time>2025-07-30T06:27:28.000Z</time>
</trkpt>
<trkpt lat="46.0427960" lon="10.3264260">
	<ele>1067.00</ele>
	<time>2025-07-30T06:27:29.000Z</time>
</trkpt>
<trkpt lat="46.0428190" lon="10.3264250">
	<ele>1067.20</ele>
	<time>2025-07-30T06:27:30.000Z</time>
</trkpt>
<trkpt lat="46.0428250" lon="10.3264170">
	<ele>1067.20</ele>
	<time>2025-07-30T06:27:31.000Z</time>
</trkpt>
<trkpt lat="46.0428290" lon="10.3264120">
	<ele>1067.40</ele>
	<time>2025-07-30T06:27:32.000Z</time>
</trkpt>
<trkpt lat="46.0428260" lon="10.3263960">
	<ele>1067.60</ele>
	<time>2025-07-30T06:27:33.000Z</time>
</trkpt>
<trkpt lat="46.0428250" lon="10.3263840">
	<ele>1067.80</ele>
	<time>2025-07-30T06:27:34.000Z</time>
</trkpt>
<trkpt lat="46.0428240" lon="10.3263740">
	<ele>1068.00</ele>
	<time>2025-07-30T06:27:35.000Z</time>
</trkpt>
<trkpt lat="46.0428210" lon="10.3263600">
	<ele>1068.40</ele>
	<time>2025-07-30T06:27:36.000Z</time>
</trkpt>
<trkpt lat="46.0428200" lon="10.3263440">
	<ele>1068.80</ele>
	<time>2025-07-30T06:27:37.000Z</time>
</trkpt>
<trkpt lat="46.0428110" lon="10.3263280">
	<ele>1069.00</ele>
	<time>2025-07-30T06:27:38.000Z</time>
</trkpt>
<trkpt lat="46.0428020" lon="10.3263140">
	<ele>1069.20</ele>
	<time>2025-07-30T06:27:39.000Z</time>
</trkpt>
<trkpt lat="46.0427960" lon="10.3263000">
	<ele>1069.40</ele>
	<time>2025-07-30T06:27:40.000Z</time>
</trkpt>
<trkpt lat="46.0427940" lon="10.3262820">
	<ele>1069.60</ele>
	<time>2025-07-30T06:27:41.000Z</time>
</trkpt>
<trkpt lat="46.0427870" lon="10.3262640">
	<ele>1069.80</ele>
	<time>2025-07-30T06:27:42.000Z</time>
</trkpt>
<trkpt lat="46.0427840" lon="10.3262520">
	<ele>1070.20</ele>
	<time>2025-07-30T06:27:43.000Z</time>
</trkpt>
<trkpt lat="46.0427880" lon="10.3262390">
	<ele>1070.40</ele>
	<time>2025-07-30T06:27:44.000Z</time>
</trkpt>
<trkpt lat="46.0427920" lon="10.3262240">
	<ele>1070.80</ele>
	<time>2025-07-30T06:27:45.000Z</time>
</trkpt>
<trkpt lat="46.0427940" lon="10.3262100">
	<ele>1071.00</ele>
	<time>2025-07-30T06:27:46.000Z</time>
</trkpt>
<trkpt lat="46.0427970" lon="10.3261970">
	<ele>1071.20</ele>
	<time>2025-07-30T06:27:47.000Z</time>
</trkpt>
<trkpt lat="46.0427990" lon="10.3261800">
	<ele>1071.40</ele>
	<time>2025-07-30T06:27:48.000Z</time>
</trkpt>
<trkpt lat="46.0428030" lon="10.3261630">
	<ele>1071.60</ele>
	<time>2025-07-30T06:27:49.000Z</time>
</trkpt>
<trkpt lat="46.0428100" lon="10.3261440">
	<ele>1072.00</ele>
	<time>2025-07-30T06:27:50.000Z</time>
</trkpt>
<trkpt lat="46.0427990" lon="10.3261250">
	<ele>1072.20</ele>
	<time>2025-07-30T06:27:51.000Z</time>
</trkpt>
<trkpt lat="46.0427940" lon="10.3261080">
	<ele>1072.40</ele>
	<time>2025-07-30T06:27:52.000Z</time>
</trkpt>
<trkpt lat="46.0427910" lon="10.3260950">
	<ele>1072.80</ele>
	<time>2025-07-30T06:27:53.000Z</time>
</trkpt>
<trkpt lat="46.0427830" lon="10.3260740">
	<ele>1073.00</ele>
	<time>2025-07-30T06:27:54.000Z</time>
</trkpt>
<trkpt lat="46.0427820" lon="10.3260610">
	<ele>1073.20</ele>
	<time>2025-07-30T06:27:55.000Z</time>
</trkpt>
<trkpt lat="46.0427840" lon="10.3260410">
	<ele>1073.20</ele>
	<time>2025-07-30T06:27:56.000Z</time>
</trkpt>
<trkpt lat="46.0427790" lon="10.3260230">
	<ele>1073.40</ele>
	<time>2025-07-30T06:27:57.000Z</time>
</trkpt>
<trkpt lat="46.0427740" lon="10.3260070">
	<ele>1073.40</ele>
	<time>2025-07-30T06:27:58.000Z</time>
</trkpt>
<trkpt lat="46.0427750" lon="10.3259880">
	<ele>1073.40</ele>
	<time>2025-07-30T06:27:59.000Z</time>
</trkpt>
<trkpt lat="46.0427740" lon="10.3259780">
	<ele>1073.60</ele>
	<time>2025-07-30T06:28:00.000Z</time>
</trkpt>
<trkpt lat="46.0427650" lon="10.3259740">
	<ele>1073.80</ele>
	<time>2025-07-30T06:28:01.000Z</time>
</trkpt>
<trkpt lat="46.0427680" lon="10.3259590">
	<ele>1074.00</ele>
	<time>2025-07-30T06:28:02.000Z</time>
</trkpt>
<trkpt lat="46.0427790" lon="10.3259330">
	<ele>1074.20</ele>
	<time>2025-07-30T06:28:03.000Z</time>
</trkpt>
<trkpt lat="46.0427930" lon="10.3259120">
	<ele>1074.40</ele>
	<time>2025-07-30T06:28:04.000Z</time>
</trkpt>
<trkpt lat="46.0427950" lon="10.3259000">
	<ele>1074.40</ele>
	<time>2025-07-30T06:28:05.000Z</time>
</trkpt>
<trkpt lat="46.0427980" lon="10.3258870">
	<ele>1074.60</ele>
	<time>2025-07-30T06:28:06.000Z</time>
</trkpt>
<trkpt lat="46.0428000" lon="10.3258710">
	<ele>1075.00</ele>
	<time>2025-07-30T06:28:07.000Z</time>
</trkpt>
<trkpt lat="46.0427960" lon="10.3258670">
	<ele>1075.20</ele>
	<time>2025-07-30T06:28:08.000Z</time>
</trkpt>
<trkpt lat="46.0428010" lon="10.3258480">
	<ele>1075.40</ele>
	<time>2025-07-30T06:28:09.000Z</time>
</trkpt>
<trkpt lat="46.0428020" lon="10.3258320">
	<ele>1075.60</ele>
	<time>2025-07-30T06:28:10.000Z</time>
</trkpt>
<trkpt lat="46.0428030" lon="10.3258220">
	<ele>1075.80</ele>
	<time>2025-07-30T06:28:11.000Z</time>
</trkpt>
<trkpt lat="46.0428050" lon="10.3257970">
	<ele>1076.00</ele>
	<time>2025-07-30T06:28:12.000Z</time>
</trkpt>
<trkpt lat="46.0428010" lon="10.3257730">
	<ele>1076.20</ele>
	<time>2025-07-30T06:28:13.000Z</time>
</trkpt>
<trkpt lat="46.0427970" lon="10.3257480">
	<ele>1076.40</ele>
	<time>2025-07-30T06:28:14.000Z</time>
</trkpt>
<trkpt lat="46.0427950" lon="10.3257320">
	<ele>1076.60</ele>
	<time>2025-07-30T06:28:15.000Z</time>
</trkpt>
<trkpt lat="46.0427880" lon="10.3257190">
	<ele>1076.80</ele>
	<time>2025-07-30T06:28:16.000Z</time>
</trkpt>
<trkpt lat="46.0427840" lon="10.3257050">
	<ele>1076.80</ele>
	<time>2025-07-30T06:28:17.000Z</time>
</trkpt>
<trkpt lat="46.0427820" lon="10.3256920">
	<ele>1077.00</ele>
	<time>2025-07-30T06:28:18.000Z</time>
</trkpt>
<trkpt lat="46.0427840" lon="10.3256790">
	<ele>1077.00</ele>
	<time>2025-07-30T06:28:19.000Z</time>
</trkpt>
<trkpt lat="46.0427810" lon="10.3256670">
	<ele>1077.20</ele>
	<time>2025-07-30T06:28:20.000Z</time>
</trkpt>
<trkpt lat="46.0427740" lon="10.3256550">
	<ele>1077.40</ele>
	<time>2025-07-30T06:28:21.000Z</time>
</trkpt>
<trkpt lat="46.0427700" lon="10.3256440">
	<ele>1077.40</ele>
	<time>2025-07-30T06:28:22.000Z</time>
</trkpt>
<trkpt lat="46.0427660" lon="10.3256320">
	<ele>1077.60</ele>
	<time>2025-07-30T06:28:23.000Z</time>
</trkpt>
<trkpt lat="46.0427670" lon="10.3256160">
	<ele>1077.80</ele>
	<time>2025-07-30T06:28:24.000Z</time>
</trkpt>
<trkpt lat="46.0427710" lon="10.3255980">
	<ele>1078.00</ele>
	<time>2025-07-30T06:28:25.000Z</time>
</trkpt>
<trkpt lat="46.0427750" lon="10.3255840">
	<ele>1078.20</ele>
	<time>2025-07-30T06:28:26.000Z</time>
</trkpt>
<trkpt lat="46.0427790" lon="10.3255680">
	<ele>1078.40</ele>
	<time>2025-07-30T06:28:27.000Z</time>
</trkpt>
<trkpt lat="46.0427750" lon="10.3255630">
	<ele>1078.60</ele>
	<time>2025-07-30T06:28:28.000Z</time>
</trkpt>
<trkpt lat="46.0427700" lon="10.3255560">
	<ele>1078.80</ele>
	<time>2025-07-30T06:28:29.000Z</time>
</trkpt>
<trkpt lat="46.0427710" lon="10.3255410">
	<ele>1079.00</ele>
	<time>2025-07-30T06:28:30.000Z</time>
</trkpt>
<trkpt lat="46.0427740" lon="10.3255290">
	<ele>1079.20</ele>
	<time>2025-07-30T06:28:31.000Z</time>
</trkpt>
<trkpt lat="46.0427800" lon="10.3255210">
	<ele>1079.60</ele>
	<time>2025-07-30T06:28:32.000Z</time>
</trkpt>
<trkpt lat="46.0427860" lon="10.3255060">
	<ele>1079.80</ele>
	<time>2025-07-30T06:28:33.000Z</time>
</trkpt>
<trkpt lat="46.0427910" lon="10.3254900">
	<ele>1080.00</ele>
	<time>2025-07-30T06:28:34.000Z</time>
</trkpt>
<trkpt lat="46.0428010" lon="10.3254670">
	<ele>1080.00</ele>
	<time>2025-07-30T06:28:35.000Z</time>
</trkpt>
<trkpt lat="46.0427950" lon="10.3254480">
	<ele>1080.20</ele>
	<time>2025-07-30T06:28:36.000Z</time>
</trkpt>
<trkpt lat="46.0427910" lon="10.3254330">
	<ele>1080.20</ele>
	<time>2025-07-30T06:28:37.000Z</time>
</trkpt>
<trkpt lat="46.0427900" lon="10.3254250">
	<ele>1080.40</ele>
	<time>2025-07-30T06:28:38.000Z</time>
</trkpt>
<trkpt lat="46.0427890" lon="10.3254200">
	<ele>1080.60</ele>
	<time>2025-07-30T06:28:39.000Z</time>
</trkpt>
<trkpt lat="46.0427850" lon="10.3254130">
	<ele>1080.80</ele>
	<time>2025-07-30T06:28:40.000Z</time>
</trkpt>
<trkpt lat="46.0427810" lon="10.3253980">
	<ele>1081.00</ele>
	<time>2025-07-30T06:28:41.000Z</time>
</trkpt>
<trkpt lat="46.0427750" lon="10.3253740">
	<ele>1081.00</ele>
	<time>2025-07-30T06:28:42.000Z</time>
</trkpt>
<trkpt lat="46.0427730" lon="10.3253550">
	<ele>1081.20</ele>
	<time>2025-07-30T06:28:43.000Z</time>
</trkpt>
<trkpt lat="46.0427700" lon="10.3253330">
	<ele>1081.40</ele>
	<time>2025-07-30T06:28:44.000Z</time>
</trkpt>
<trkpt lat="46.0427690" lon="10.3253110">
	<ele>1081.60</ele>
	<time>2025-07-30T06:28:45.000Z</time>
</trkpt>
<trkpt lat="46.0427670" lon="10.3252930">
	<ele>1081.60</ele>
	<time>2025-07-30T06:28:46.000Z</time>
</trkpt>
<trkpt lat="46.0427640" lon="10.3252750">
	<ele>1081.80</ele>
	<time>2025-07-30T06:28:47.000Z</time>
</trkpt>
<trkpt lat="46.0427580" lon="10.3252540">
	<ele>1082.00</ele>
	<time>2025-07-30T06:28:48.000Z</time>
</trkpt>
<trkpt lat="46.0427490" lon="10.3252350">
	<ele>1082.00</ele>
	<time>2025-07-30T06:28:49.000Z</time>
</trkpt>
<trkpt lat="46.0427390" lon="10.3252220">
	<ele>1082.20</ele>
	<time>2025-07-30T06:28:50.000Z</time>
</trkpt>
<trkpt lat="46.0427330" lon="10.3252060">
	<ele>1082.20</ele>
	<time>2025-07-30T06:28:51.000Z</time>
</trkpt>
<trkpt lat="46.0427320" lon="10.3251840">
	<ele>1082.40</ele>
	<time>2025-07-30T06:28:52.000Z</time>
</trkpt>
<trkpt lat="46.0427280" lon="10.3251580">
	<ele>1082.60</ele>
	<time>2025-07-30T06:28:53.000Z</time>
</trkpt>
<trkpt lat="46.0427210" lon="10.3251350">
	<ele>1082.80</ele>
	<time>2025-07-30T06:28:54.000Z</time>
</trkpt>
<trkpt lat="46.0427190" lon="10.3251160">
	<ele>1083.00</ele>
	<time>2025-07-30T06:28:55.000Z</time>
</trkpt>
<trkpt lat="46.0427180" lon="10.3251010">
	<ele>1083.20</ele>
	<time>2025-07-30T06:28:56.000Z</time>
</trkpt>
<trkpt lat="46.0427200" lon="10.3250850">
	<ele>1083.40</ele>
	<time>2025-07-30T06:28:57.000Z</time>
</trkpt>
<trkpt lat="46.0427160" lon="10.3250700">
	<ele>1083.60</ele>
	<time>2025-07-30T06:28:58.000Z</time>
</trkpt>
<trkpt lat="46.0427110" lon="10.3250530">
	<ele>1083.80</ele>
	<time>2025-07-30T06:28:59.000Z</time>
</trkpt>
<trkpt lat="46.0427120" lon="10.3250340">
	<ele>1083.80</ele>
	<time>2025-07-30T06:29:00.000Z</time>
</trkpt>
<trkpt lat="46.0427120" lon="10.3250140">
	<ele>1083.80</ele>
	<time>2025-07-30T06:29:01.000Z</time>
</trkpt>
<trkpt lat="46.0427130" lon="10.3249970">
	<ele>1084.00</ele>
	<time>2025-07-30T06:29:02.000Z</time>
</trkpt>
<trkpt lat="46.0427120" lon="10.3249800">
	<ele>1084.20</ele>
	<time>2025-07-30T06:29:03.000Z</time>
</trkpt>
<trkpt lat="46.0427080" lon="10.3249710">
	<ele>1084.20</ele>
	<time>2025-07-30T06:29:04.000Z</time>
</trkpt>
<trkpt lat="46.0427050" lon="10.3249580">
	<ele>1084.20</ele>
	<time>2025-07-30T06:29:05.000Z</time>
</trkpt>
<trkpt lat="46.0427030" lon="10.3249450">
	<ele>1084.40</ele>
	<time>2025-07-30T06:29:06.000Z</time>
</trkpt>
<trkpt lat="46.0427020" lon="10.3249310">
	<ele>1084.40</ele>
	<time>2025-07-30T06:29:07.000Z</time>
</trkpt>
<trkpt lat="46.0427020" lon="10.3249140">
	<ele>1084.60</ele>
	<time>2025-07-30T06:29:08.000Z</time>
</trkpt>
<trkpt lat="46.0426980" lon="10.3248990">
	<ele>1084.80</ele>
	<time>2025-07-30T06:29:09.000Z</time>
</trkpt>
<trkpt lat="46.0426990" lon="10.3248810">
	<ele>1085.00</ele>
	<time>2025-07-30T06:29:10.000Z</time>
</trkpt>
<trkpt lat="46.0427020" lon="10.3248620">
	<ele>1085.20</ele>
	<time>2025-07-30T06:29:11.000Z</time>
</trkpt>
<trkpt lat="46.0427060" lon="10.3248440">
	<ele>1085.40</ele>
	<time>2025-07-30T06:29:12.000Z</time>
</trkpt>
<trkpt lat="46.0427040" lon="10.3248320">
	<ele>1085.60</ele>
	<time>2025-07-30T06:29:13.000Z</time>
</trkpt>
<trkpt lat="46.0427010" lon="10.3248200">
	<ele>1086.00</ele>
	<time>2025-07-30T06:29:14.000Z</time>
</trkpt>
<trkpt lat="46.0426950" lon="10.3248080">
	<ele>1086.20</ele>
	<time>2025-07-30T06:29:15.000Z</time>
</trkpt>
<trkpt lat="46.0426950" lon="10.3247950">
	<ele>1086.40</ele>
	<time>2025-07-30T06:29:16.000Z</time>
</trkpt>
<trkpt lat="46.0427020" lon="10.3247790">
	<ele>1086.60</ele>
	<time>2025-07-30T06:29:17.000Z</time>
</trkpt>
<trkpt lat="46.0427010" lon="10.3247650">
	<ele>1086.80</ele>
	<time>2025-07-30T06:29:18.000Z</time>
</trkpt>
<trkpt lat="46.0426990" lon="10.3247510">
	<ele>1087.00</ele>
	<time>2025-07-30T06:29:19.000Z</time>
</trkpt>
<trkpt lat="46.0426950" lon="10.3247320">
	<ele>1087.20</ele>
	<time>2025-07-30T06:29:20.000Z</time>
</trkpt>
<trkpt lat="46.0426920" lon="10.3247160">
	<ele>1087.60</ele>
	<time>2025-07-30T06:29:21.000Z</time>
</trkpt>
<trkpt lat="46.0426950" lon="10.3247000">
	<ele>1087.80</ele>
	<time>2025-07-30T06:29:22.000Z</time>
</trkpt>
<trkpt lat="46.0426970" lon="10.3246840">
	<ele>1088.00</ele>
	<time>2025-07-30T06:29:23.000Z</time>
</trkpt>
<trkpt lat="46.0426990" lon="10.3246730">
	<ele>1088.20</ele>
	<time>2025-07-30T06:29:24.000Z</time>
</trkpt>
<trkpt lat="46.0427000" lon="10.3246590">
	<ele>1088.40</ele>
	<time>2025-07-30T06:29:25.000Z</time>
</trkpt>
<trkpt lat="46.0427010" lon="10.3246440">
	<ele>1088.60</ele>
	<time>2025-07-30T06:29:26.000Z</time>
</trkpt>
<trkpt lat="46.0427070" lon="10.3246270">
	<ele>1088.60</ele>
	<time>2025-07-30T06:29:27.000Z</time>
</trkpt>
<trkpt lat="46.0427080" lon="10.3246140">
	<ele>1089.00</ele>
	<time>2025-07-30T06:29:28.000Z</time>
</trkpt>
<trkpt lat="46.0427100" lon="10.3245970">
	<ele>1089.40</ele>
	<time>2025-07-30T06:29:29.000Z</time>
</trkpt>
<trkpt lat="46.0427130" lon="10.3245810">
	<ele>1089.60</ele>
	<time>2025-07-30T06:29:30.000Z</time>
</trkpt>
<trkpt lat="46.0427140" lon="10.3245590">
	<ele>1089.80</ele>
	<time>2025-07-30T06:29:31.000Z</time>
</trkpt>
<trkpt lat="46.0427150" lon="10.3245470">
	<ele>1090.00</ele>
	<time>2025-07-30T06:29:32.000Z</time>
</trkpt>
<trkpt lat="46.0427170" lon="10.3245370">
	<ele>1090.20</ele>
	<time>2025-07-30T06:29:33.000Z</time>
</trkpt>
<trkpt lat="46.0427170" lon="10.3245220">
	<ele>1090.20</ele>
	<time>2025-07-30T06:29:34.000Z</time>
</trkpt>
<trkpt lat="46.0427200" lon="10.3245070">
	<ele>1090.60</ele>
	<time>2025-07-30T06:29:35.000Z</time>
</trkpt>
<trkpt lat="46.0427220" lon="10.3244940">
	<ele>1090.60</ele>
	<time>2025-07-30T06:29:36.000Z</time>
</trkpt>
<trkpt lat="46.0427230" lon="10.3244820">
	<ele>1090.80</ele>
	<time>2025-07-30T06:29:37.000Z</time>
</trkpt>
<trkpt lat="46.0427260" lon="10.3244700">
	<ele>1091.00</ele>
	<time>2025-07-30T06:29:38.000Z</time>
</trkpt>
<trkpt lat="46.0427310" lon="10.3244590">
	<ele>1091.20</ele>
	<time>2025-07-30T06:29:39.000Z</time>
</trkpt>
<trkpt lat="46.0427400" lon="10.3244490">
	<ele>1091.20</ele>
	<time>2025-07-30T06:29:40.000Z</time>
</trkpt>
<trkpt lat="46.0427510" lon="10.3244370">
	<ele>1091.60</ele>
	<time>2025-07-30T06:29:41.000Z</time>
</trkpt>
<trkpt lat="46.0427550" lon="10.3244180">
	<ele>1091.60</ele>
	<time>2025-07-30T06:29:42.000Z</time>
</trkpt>
<trkpt lat="46.0427550" lon="10.3243970">
	<ele>1091.80</ele>
	<time>2025-07-30T06:29:43.000Z</time>
</trkpt>
<trkpt lat="46.0427570" lon="10.3243780">
	<ele>1092.00</ele>
	<time>2025-07-30T06:29:44.000Z</time>
</trkpt>
<trkpt lat="46.0427670" lon="10.3243650">
	<ele>1092.20</ele>
	<time>2025-07-30T06:29:45.000Z</time>
</trkpt>
<trkpt lat="46.0427790" lon="10.3243550">
	<ele>1092.20</ele>
	<time>2025-07-30T06:29:46.000Z</time>
</trkpt>
<trkpt lat="46.0427890" lon="10.3243480">
	<ele>1092.40</ele>
	<time>2025-07-30T06:29:47.000Z</time>
</trkpt>
<trkpt lat="46.0427900" lon="10.3243370">
	<ele>1092.40</ele>
	<time>2025-07-30T06:29:48.000Z</time>
</trkpt>
<trkpt lat="46.0427880" lon="10.3243280">
	<ele>1092.60</ele>
	<time>2025-07-30T06:29:49.000Z</time>
</trkpt>
<trkpt lat="46.0427870" lon="10.3243100">
	<ele>1092.80</ele>
	<time>2025-07-30T06:29:50.000Z</time>
</trkpt>
<trkpt lat="46.0427840" lon="10.3242970">
	<ele>1092.80</ele>
	<time>2025-07-30T06:29:51.000Z</time>
</trkpt>
<trkpt lat="46.0427970" lon="10.3242890">
	<ele>1093.20</ele>
	<time>2025-07-30T06:29:52.000Z</time>
</trkpt>
<trkpt lat="46.0428060" lon="10.3242760">
	<ele>1093.40</ele>
	<time>2025-07-30T06:29:53.000Z</time>
</trkpt>
<trkpt lat="46.0428120" lon="10.3242550">
	<ele>1093.80</ele>
	<time>2025-07-30T06:29:54.000Z</time>
</trkpt>
<trkpt lat="46.0428190" lon="10.3242390">
	<ele>1094.00</ele>
	<time>2025-07-30T06:29:55.000Z</time>
</trkpt>
<trkpt lat="46.0428260" lon="10.3242190">
	<ele>1094.00</ele>
	<time>2025-07-30T06:29:56.000Z</time>
</trkpt>
<trkpt lat="46.0428320" lon="10.3241990">
	<ele>1094.20</ele>
	<time>2025-07-30T06:29:57.000Z</time>
</trkpt>
<trkpt lat="46.0428370" lon="10.3241870">
	<ele>1094.40</ele>
	<time>2025-07-30T06:29:58.000Z</time>
</trkpt>
<trkpt lat="46.0428390" lon="10.3241750">
	<ele>1094.60</ele>
	<time>2025-07-30T06:29:59.000Z</time>
</trkpt>
<trkpt lat="46.0428370" lon="10.3241660">
	<ele>1094.80</ele>
	<time>2025-07-30T06:30:00.000Z</time>
</trkpt>
<trkpt lat="46.0428440" lon="10.3241440">
	<ele>1095.00</ele>
	<time>2025-07-30T06:30:01.000Z</time>
</trkpt>
<trkpt lat="46.0428490" lon="10.3241320">
	<ele>1095.40</ele>
	<time>2025-07-30T06:30:02.000Z</time>
</trkpt>
<trkpt lat="46.0428570" lon="10.3241210">
	<ele>1095.60</ele>
	<time>2025-07-30T06:30:03.000Z</time>
</trkpt>
<trkpt lat="46.0428610" lon="10.3241120">
	<ele>1095.80</ele>
	<time>2025-07-30T06:30:04.000Z</time>
</trkpt>
<trkpt lat="46.0428610" lon="10.3241080">
	<ele>1096.00</ele>
	<time>2025-07-30T06:30:05.000Z</time>
</trkpt>
<trkpt lat="46.0428620" lon="10.3240990">
	<ele>1096.40</ele>
	<time>2025-07-30T06:30:06.000Z</time>
</trkpt>
<trkpt lat="46.0428700" lon="10.3240940">
	<ele>1096.60</ele>
	<time>2025-07-30T06:30:07.000Z</time>
</trkpt>
<trkpt lat="46.0428820" lon="10.3240880">
	<ele>1096.60</ele>
	<time>2025-07-30T06:30:08.000Z</time>
</trkpt>
<trkpt lat="46.0428930" lon="10.3240810">
	<ele>1096.80</ele>
	<time>2025-07-30T06:30:09.000Z</time>
</trkpt>
<trkpt lat="46.0428970" lon="10.3240740">
	<ele>1097.00</ele>
	<time>2025-07-30T06:30:10.000Z</time>
</trkpt>
<trkpt lat="46.0429020" lon="10.3240750">
	<ele>1097.20</ele>
	<time>2025-07-30T06:30:11.000Z</time>
</trkpt>
<trkpt lat="46.0429140" lon="10.3240750">
	<ele>1097.40</ele>
	<time>2025-07-30T06:30:12.000Z</time>
</trkpt>
<trkpt lat="46.0429170" lon="10.3240720">
	<ele>1097.80</ele>
	<time>2025-07-30T06:30:13.000Z</time>
</trkpt>
<trkpt lat="46.0429090" lon="10.3240620">
	<ele>1098.00</ele>
	<time>2025-07-30T06:30:14.000Z</time>
</trkpt>
<trkpt lat="46.0429060" lon="10.3240450">
	<ele>1098.00</ele>
	<time>2025-07-30T06:30:15.000Z</time>
</trkpt>
<trkpt lat="46.0429040" lon="10.3240270">
	<ele>1098.20</ele>
	<time>2025-07-30T06:30:16.000Z</time>
</trkpt>
<trkpt lat="46.0429000" lon="10.3240060">
	<ele>1098.60</ele>
	<time>2025-07-30T06:30:17.000Z</time>
</trkpt>
<trkpt lat="46.0429020" lon="10.3239890">
	<ele>1098.80</ele>
	<time>2025-07-30T06:30:18.000Z</time>
</trkpt>
<trkpt lat="46.0429090" lon="10.3239810">
	<ele>1099.00</ele>
	<time>2025-07-30T06:30:19.000Z</time>
</trkpt>
<trkpt lat="46.0429130" lon="10.3239740">
	<ele>1099.20</ele>
	<time>2025-07-30T06:30:20.000Z</time>
</trkpt>
<trkpt lat="46.0429230" lon="10.3239670">
	<ele>1099.40</ele>
	<time>2025-07-30T06:30:21.000Z</time>
</trkpt>
<trkpt lat="46.0429250" lon="10.3239560">
	<ele>1099.60</ele>
	<time>2025-07-30T06:30:22.000Z</time>
</trkpt>
<trkpt lat="46.0429230" lon="10.3239430">
	<ele>1100.00</ele>
	<time>2025-07-30T06:30:23.000Z</time>
</trkpt>
<trkpt lat="46.0429220" lon="10.3239300">
	<ele>1100.20</ele>
	<time>2025-07-30T06:30:24.000Z</time>
</trkpt>
<trkpt lat="46.0429200" lon="10.3239240">
	<ele>1100.80</ele>
	<time>2025-07-30T06:30:25.000Z</time>
</trkpt>
<trkpt lat="46.0429220" lon="10.3239200">
	<ele>1101.00</ele>
	<time>2025-07-30T06:30:26.000Z</time>
</trkpt>
<trkpt lat="46.0429310" lon="10.3239270">
	<ele>1101.00</ele>
	<time>2025-07-30T06:30:27.000Z</time>
</trkpt>
<trkpt lat="46.0429380" lon="10.3239330">
	<ele>1101.20</ele>
	<time>2025-07-30T06:30:28.000Z</time>
</trkpt>
<trkpt lat="46.0429410" lon="10.3239310">
	<ele>1101.20</ele>
	<time>2025-07-30T06:30:29.000Z</time>
</trkpt>
<trkpt lat="46.0429470" lon="10.3239260">
	<ele>1101.40</ele>
	<time>2025-07-30T06:30:30.000Z</time>
</trkpt>
<trkpt lat="46.0429510" lon="10.3239200">
	<ele>1101.60</ele>
	<time>2025-07-30T06:30:31.000Z</time>
</trkpt>
<trkpt lat="46.0429560" lon="10.3239120">
	<ele>1101.80</ele>
	<time>2025-07-30T06:30:32.000Z</time>
</trkpt>
<trkpt lat="46.0429640" lon="10.3238950">
	<ele>1102.20</ele>
	<time>2025-07-30T06:30:33.000Z</time>
</trkpt>
<trkpt lat="46.0429680" lon="10.3238780">
	<ele>1102.40</ele>
	<time>2025-07-30T06:30:34.000Z</time>
</trkpt>
<trkpt lat="46.0429750" lon="10.3238680">
	<ele>1102.60</ele>
	<time>2025-07-30T06:30:35.000Z</time>
</trkpt>
<trkpt lat="46.0429820" lon="10.3238600">
	<ele>1102.80</ele>
	<time>2025-07-30T06:30:36.000Z</time>
</trkpt>
<trkpt lat="46.0429810" lon="10.3238460">
	<ele>1103.00</ele>
	<time>2025-07-30T06:30:37.000Z</time>
</trkpt>
<trkpt lat="46.0429880" lon="10.3238420">
	<ele>1103.20</ele>
	<time>2025-07-30T06:30:38.000Z</time>
</trkpt>
<trkpt lat="46.0429930" lon="10.3238330">
	<ele>1103.20</ele>
	<time>2025-07-30T06:30:39.000Z</time>
</trkpt>
<trkpt lat="46.0429970" lon="10.3238220">
	<ele>1103.40</ele>
	<time>2025-07-30T06:30:40.000Z</time>
</trkpt>
<trkpt lat="46.0430020" lon="10.3238130">
	<ele>1103.60</ele>
	<time>2025-07-30T06:30:41.000Z</time>
</trkpt>
<trkpt lat="46.0430110" lon="10.3238040">
	<ele>1103.80</ele>
	<time>2025-07-30T06:30:42.000Z</time>
</trkpt>
<trkpt lat="46.0430140" lon="10.3237940">
	<ele>1104.00</ele>
	<time>2025-07-30T06:30:43.000Z</time>
</trkpt>
<trkpt lat="46.0430120" lon="10.3237870">
	<ele>1104.20</ele>
	<time>2025-07-30T06:30:44.000Z</time>
</trkpt>
<trkpt lat="46.0430100" lon="10.3237770">
	<ele>1104.40</ele>
	<time>2025-07-30T06:30:45.000Z</time>
</trkpt>
<trkpt lat="46.0429980" lon="10.3237710">
	<ele>1104.80</ele>
	<time>2025-07-30T06:30:46.000Z</time>
</trkpt>
<trkpt lat="46.0429940" lon="10.3237620">
	<ele>1105.00</ele>
	<time>2025-07-30T06:30:47.000Z</time>
</trkpt>
<trkpt lat="46.0429970" lon="10.3237630">
	<ele>1105.20</ele>
	<time>2025-07-30T06:30:48.000Z</time>
</trkpt>
<trkpt lat="46.0429980" lon="10.3237630">
	<ele>1105.20</ele>
	<time>2025-07-30T06:30:49.000Z</time>
</trkpt>
<trkpt lat="46.0430070" lon="10.3237630">
	<ele>1105.40</ele>
	<time>2025-07-30T06:30:50.000Z</time>
</trkpt>
<trkpt lat="46.0430170" lon="10.3237580">
	<ele>1105.60</ele>
	<time>2025-07-30T06:30:51.000Z</time>
</trkpt>
<trkpt lat="46.0430220" lon="10.3237490">
	<ele>1105.80</ele>
	<time>2025-07-30T06:30:52.000Z</time>
</trkpt>
<trkpt lat="46.0430290" lon="10.3237470">
	<ele>1106.00</ele>
	<time>2025-07-30T06:30:53.000Z</time>
</trkpt>
<trkpt lat="46.0430350" lon="10.3237350">
	<ele>1106.00</ele>
	<time>2025-07-30T06:30:54.000Z</time>
</trkpt>
<trkpt lat="46.0430440" lon="10.3237220">
	<ele>1106.20</ele>
	<time>2025-07-30T06:30:55.000Z</time>
</trkpt>
<trkpt lat="46.0430520" lon="10.3237100">
	<ele>1106.40</ele>
	<time>2025-07-30T06:30:56.000Z</time>
</trkpt>
<trkpt lat="46.0430680" lon="10.3237050">
	<ele>1106.60</ele>
	<time>2025-07-30T06:30:57.000Z</time>
</trkpt>
<trkpt lat="46.0430840" lon="10.3236950">
	<ele>1107.00</ele>
	<time>2025-07-30T06:30:58.000Z</time>
</trkpt>
<trkpt lat="46.0430930" lon="10.3236800">
	<ele>1107.00</ele>
	<time>2025-07-30T06:30:59.000Z</time>
</trkpt>
<trkpt lat="46.0431020" lon="10.3236680">
	<ele>1107.40</ele>
	<time>2025-07-30T06:31:00.000Z</time>
</trkpt>
<trkpt lat="46.0431030" lon="10.3236570">
	<ele>1107.40</ele>
	<time>2025-07-30T06:31:01.000Z</time>
</trkpt>
<trkpt lat="46.0431030" lon="10.3236410">
	<ele>1107.60</ele>
	<time>2025-07-30T06:31:02.000Z</time>
</trkpt>
<trkpt lat="46.0431050" lon="10.3236110">
	<ele>1107.60</ele>
	<time>2025-07-30T06:31:03.000Z</time>
</trkpt>
<trkpt lat="46.0431100" lon="10.3235850">
	<ele>1107.80</ele>
	<time>2025-07-30T06:31:04.000Z</time>
</trkpt>
<trkpt lat="46.0431100" lon="10.3235660">
	<ele>1108.20</ele>
	<time>2025-07-30T06:31:05.000Z</time>
</trkpt>
<trkpt lat="46.0431140" lon="10.3235540">
	<ele>1108.40</ele>
	<time>2025-07-30T06:31:06.000Z</time>
</trkpt>
<trkpt lat="46.0431160" lon="10.3235340">
	<ele>1108.40</ele>
	<time>2025-07-30T06:31:07.000Z</time>
</trkpt>
<trkpt lat="46.0431220" lon="10.3235180">
	<ele>1108.60</ele>
	<time>2025-07-30T06:31:08.000Z</time>
</trkpt>
<trkpt lat="46.0431160" lon="10.3234950">
	<ele>1108.60</ele>
	<time>2025-07-30T06:31:09.000Z</time>
</trkpt>
<trkpt lat="46.0431110" lon="10.3234810">
	<ele>1108.80</ele>
	<time>2025-07-30T06:31:10.000Z</time>
</trkpt>
<trkpt lat="46.0431030" lon="10.3234650">
	<ele>1109.00</ele>
	<time>2025-07-30T06:31:11.000Z</time>
</trkpt>
<trkpt lat="46.0431050" lon="10.3234570">
	<ele>1109.40</ele>
	<time>2025-07-30T06:31:12.000Z</time>
</trkpt>
<trkpt lat="46.0431050" lon="10.3234470">
	<ele>1109.60</ele>
	<time>2025-07-30T06:31:13.000Z</time>
</trkpt>
<trkpt lat="46.0431120" lon="10.3234420">
	<ele>1109.80</ele>
	<time>2025-07-30T06:31:14.000Z</time>
</trkpt>
<trkpt lat="46.0431200" lon="10.3234350">
	<ele>1110.20</ele>
	<time>2025-07-30T06:31:15.000Z</time>
</trkpt>
<trkpt lat="46.0431260" lon="10.3234290">
	<ele>1110.40</ele>
	<time>2025-07-30T06:31:16.000Z</time>
</trkpt>
<trkpt lat="46.0431340" lon="10.3234240">
	<ele>1110.60</ele>
	<time>2025-07-30T06:31:17.000Z</time>
</trkpt>
<trkpt lat="46.0431430" lon="10.3234100">
	<ele>1110.80</ele>
	<time>2025-07-30T06:31:18.000Z</time>
</trkpt>
<trkpt lat="46.0431460" lon="10.3233950">
	<ele>1111.00</ele>
	<time>2025-07-30T06:31:19.000Z</time>
</trkpt>
<trkpt lat="46.0431470" lon="10.3233880">
	<ele>1111.40</ele>
	<time>2025-07-30T06:31:20.000Z</time>
</trkpt>
<trkpt lat="46.0431580" lon="10.3233720">
	<ele>1111.60</ele>
	<time>2025-07-30T06:31:21.000Z</time>
</trkpt>
<trkpt lat="46.0431650" lon="10.3233540">
	<ele>1111.60</ele>
	<time>2025-07-30T06:31:22.000Z</time>
</trkpt>
<trkpt lat="46.0431700" lon="10.3233460">
	<ele>1112.00</ele>
	<time>2025-07-30T06:31:23.000Z</time>
</trkpt>
<trkpt lat="46.0431740" lon="10.3233450">
	<ele>1112.20</ele>
	<time>2025-07-30T06:31:24.000Z</time>
</trkpt>
<trkpt lat="46.0431800" lon="10.3233420">
	<ele>1112.40</ele>
	<time>2025-07-30T06:31:25.000Z</time>
</trkpt>
<trkpt lat="46.0431840" lon="10.3233370">
	<ele>1112.40</ele>
	<time>2025-07-30T06:31:26.000Z</time>
</trkpt>
<trkpt lat="46.0431900" lon="10.3233240">
	<ele>1112.60</ele>
	<time>2025-07-30T06:31:27.000Z</time>
</trkpt>
<trkpt lat="46.0432040" lon="10.3233140">
	<ele>1112.80</ele>
	<time>2025-07-30T06:31:28.000Z</time>
</trkpt>
<trkpt lat="46.0432110" lon="10.3233070">
	<ele>1112.80</ele>
	<time>2025-07-30T06:31:29.000Z</time>
</trkpt>
<trkpt lat="46.0432080" lon="10.3232980">
	<ele>1113.00</ele>
	<time>2025-07-30T06:31:30.000Z</time>
</trkpt>
<trkpt lat="46.0432090" lon="10.3232930">
	<ele>1113.20</ele>
	<time>2025-07-30T06:31:31.000Z</time>
</trkpt>
<trkpt lat="46.0432140" lon="10.3232830">
	<ele>1113.40</ele>
	<time>2025-07-30T06:31:32.000Z</time>
</trkpt>
<trkpt lat="46.0432210" lon="10.3232780">
	<ele>1113.60</ele>
	<time>2025-07-30T06:31:33.000Z</time>
</trkpt>
<trkpt lat="46.0432280" lon="10.3232670">
	<ele>1113.80</ele>
	<time>2025-07-30T06:31:34.000Z</time>
</trkpt>
<trkpt lat="46.0432360" lon="10.3232640">
	<ele>1114.00</ele>
	<time>2025-07-30T06:31:35.000Z</time>
</trkpt>
<trkpt lat="46.0432470" lon="10.3232610">
	<ele>1114.20</ele>
	<time>2025-07-30T06:31:36.000Z</time>
</trkpt>
<trkpt lat="46.0432590" lon="10.3232490">
	<ele>1114.40</ele>
	<time>2025-07-30T06:31:37.000Z</time>
</trkpt>
<trkpt lat="46.0432710" lon="10.3232360">
	<ele>1114.80</ele>
	<time>2025-07-30T06:31:38.000Z</time>
</trkpt>
<trkpt lat="46.0432880" lon="10.3232250">
	<ele>1114.80</ele>
	<time>2025-07-30T06:31:39.000Z</time>
</trkpt>
<trkpt lat="46.0432920" lon="10.3232200">
	<ele>1115.00</ele>
	<time>2025-07-30T06:31:40.000Z</time>
</trkpt>
<trkpt lat="46.0433070" lon="10.3232020">
	<ele>1115.20</ele>
	<time>2025-07-30T06:31:41.000Z</time>
</trkpt>
<trkpt lat="46.0433230" lon="10.3231910">
	<ele>1115.40</ele>
	<time>2025-07-30T06:31:42.000Z</time>
</trkpt>
<trkpt lat="46.0433340" lon="10.3231800">
	<ele>1115.60</ele>
	<time>2025-07-30T06:31:43.000Z</time>
</trkpt>
<trkpt lat="46.0433380" lon="10.3231670">
	<ele>1115.80</ele>
	<time>2025-07-30T06:31:44.000Z</time>
</trkpt>
<trkpt lat="46.0433380" lon="10.3231600">
	<ele>1115.80</ele>
	<time>2025-07-30T06:31:45.000Z</time>
</trkpt>
<trkpt lat="46.0433490" lon="10.3231670">
	<ele>1116.00</ele>
	<time>2025-07-30T06:31:46.000Z</time>
</trkpt>
<trkpt lat="46.0433550" lon="10.3231690">
	<ele>1116.20</ele>
	<time>2025-07-30T06:31:47.000Z</time>
</trkpt>
<trkpt lat="46.0433540" lon="10.3231840">
	<ele>1116.20</ele>
	<time>2025-07-30T06:31:48.000Z</time>
</trkpt>
<trkpt lat="46.0433530" lon="10.3231940">
	<ele>1116.60</ele>
	<time>2025-07-30T06:31:49.000Z</time>
</trkpt>
<trkpt lat="46.0433460" lon="10.3232050">
	<ele>1116.80</ele>
	<time>2025-07-30T06:31:50.000Z</time>
</trkpt>
<trkpt lat="46.0433450" lon="10.3232110">
	<ele>1117.00</ele>
	<time>2025-07-30T06:31:51.000Z</time>
</trkpt>
<trkpt lat="46.0433430" lon="10.3232180">
	<ele>1117.20</ele>
	<time>2025-07-30T06:31:52.000Z</time>
</trkpt>
<trkpt lat="46.0433470" lon="10.3232160">
	<ele>1117.60</ele>
	<time>2025-07-30T06:31:53.000Z</time>
</trkpt>
<trkpt lat="46.0433510" lon="10.3232100">
	<ele>1117.80</ele>
	<time>2025-07-30T06:31:54.000Z</time>
</trkpt>
<trkpt lat="46.0433520" lon="10.3232080">
	<ele>1118.20</ele>
	<time>2025-07-30T06:31:55.000Z</time>
</trkpt>
<trkpt lat="46.0433620" lon="10.3232200">
	<ele>1118.40</ele>
	<time>2025-07-30T06:31:56.000Z</time>
</trkpt>
<trkpt lat="46.0433730" lon="10.3232360">
	<ele>1118.80</ele>
	<time>2025-07-30T06:31:57.000Z</time>
</trkpt>
<trkpt lat="46.0433730" lon="10.3232450">
	<ele>1119.00</ele>
	<time>2025-07-30T06:31:58.000Z</time>
</trkpt>
<trkpt lat="46.0433710" lon="10.3232510">
	<ele>1119.40</ele>
	<time>2025-07-30T06:31:59.000Z</time>
</trkpt>
<trkpt lat="46.0433720" lon="10.3232650">
	<ele>1119.60</ele>
	<time>2025-07-30T06:32:00.000Z</time>
</trkpt>
<trkpt lat="46.0433810" lon="10.3232720">
	<ele>1120.00</ele>
	<time>2025-07-30T06:32:01.000Z</time>
</trkpt>
<trkpt lat="46.0433930" lon="10.3232800">
	<ele>1120.20</ele>
	<time>2025-07-30T06:32:02.000Z</time>
</trkpt>
<trkpt lat="46.0433910" lon="10.3232890">
	<ele>1120.20</ele>
	<time>2025-07-30T06:32:03.000Z</time>
</trkpt>
<trkpt lat="46.0433900" lon="10.3232960">
	<ele>1120.40</ele>
	<time>2025-07-30T06:32:04.000Z</time>
</trkpt>
<trkpt lat="46.0433850" lon="10.3232960">
	<ele>1120.40</ele>
	<time>2025-07-30T06:32:05.000Z</time>
</trkpt>
<trkpt lat="46.0433760" lon="10.3233010">
	<ele>1120.60</ele>
	<time>2025-07-30T06:32:06.000Z</time>
</trkpt>
<trkpt lat="46.0433620" lon="10.3233090">
	<ele>1120.80</ele>
	<time>2025-07-30T06:32:07.000Z</time>
</trkpt>
<trkpt lat="46.0433460" lon="10.3233060">
	<ele>1121.00</ele>
	<time>2025-07-30T06:32:08.000Z</time>
</trkpt>
<trkpt lat="46.0433400" lon="10.3233110">
	<ele>1121.20</ele>
	<time>2025-07-30T06:32:09.000Z</time>
</trkpt>
<trkpt lat="46.0433470" lon="10.3233170">
	<ele>1121.40</ele>
	<time>2025-07-30T06:32:10.000Z</time>
</trkpt>
<trkpt lat="46.0433490" lon="10.3233280">
	<ele>1121.80</ele>
	<time>2025-07-30T06:32:11.000Z</time>
</trkpt>
<trkpt lat="46.0433500" lon="10.3233500">
	<ele>1121.80</ele>
	<time>2025-07-30T06:32:12.000Z</time>
</trkpt>
<trkpt lat="46.0433470" lon="10.3233690">
	<ele>1122.00</ele>
	<time>2025-07-30T06:32:13.000Z</time>
</trkpt>
<trkpt lat="46.0433330" lon="10.3233790">
	<ele>1122.40</ele>
	<time>2025-07-30T06:32:14.000Z</time>
</trkpt>
<trkpt lat="46.0433180" lon="10.3233900">
	<ele>1122.40</ele>
	<time>2025-07-30T06:32:15.000Z</time>
</trkpt>
<trkpt lat="46.0433120" lon="10.3234010">
	<ele>1122.60</ele>
	<time>2025-07-30T06:32:16.000Z</time>
</trkpt>
<trkpt lat="46.0432980" lon="10.3233990">
	<ele>1122.80</ele>
	<time>2025-07-30T06:32:17.000Z</time>
</trkpt>
<trkpt lat="46.0433010" lon="10.3234060">
	<ele>1123.00</ele>
	<time>2025-07-30T06:32:18.000Z</time>
</trkpt>
<trkpt lat="46.0433000" lon="10.3234210">
	<ele>1123.20</ele>
	<time>2025-07-30T06:32:19.000Z</time>
</trkpt>
<trkpt lat="46.0432940" lon="10.3234360">
	<ele>1123.40</ele>
	<time>2025-07-30T06:32:20.000Z</time>
</trkpt>
<trkpt lat="46.0432950" lon="10.3234420">
	<ele>1123.40</ele>
	<time>2025-07-30T06:32:21.000Z</time>
</trkpt>
<trkpt lat="46.0432970" lon="10.3234470">
	<ele>1123.60</ele>
	<time>2025-07-30T06:32:22.000Z</time>
</trkpt>
<trkpt lat="46.0432970" lon="10.3234540">
	<ele>1123.80</ele>
	<time>2025-07-30T06:32:23.000Z</time>
</trkpt>
<trkpt lat="46.0432950" lon="10.3234540">
	<ele>1124.00</ele>
	<time>2025-07-30T06:32:24.000Z</time>
</trkpt>
<trkpt lat="46.0432920" lon="10.3234600">
	<ele>1124.20</ele>
	<time>2025-07-30T06:32:25.000Z</time>
</trkpt>
<trkpt lat="46.0432920" lon="10.3234720">
	<ele>1124.40</ele>
	<time>2025-07-30T06:32:26.000Z</time>
</trkpt>
<trkpt lat="46.0432950" lon="10.3234850">
	<ele>1124.60</ele>
	<time>2025-07-30T06:32:27.000Z</time>
</trkpt>
<trkpt lat="46.0432980" lon="10.3234930">
	<ele>1124.80</ele>
	<time>2025-07-30T06:32:28.000Z</time>
</trkpt>
<trkpt lat="46.0433040" lon="10.3235030">
	<ele>1125.00</ele>
	<time>2025-07-30T06:32:29.000Z</time>
</trkpt>
<trkpt lat="46.0433050" lon="10.3235130">
	<ele>1125.00</ele>
	<time>2025-07-30T06:32:30.000Z</time>
</trkpt>
<trkpt lat="46.0433040" lon="10.3235290">
	<ele>1125.20</ele>
	<time>2025-07-30T06:32:31.000Z</time>
</trkpt>
<trkpt lat="46.0433030" lon="10.3235430">
	<ele>1125.40</ele>
	<time>2025-07-30T06:32:32.000Z</time>
</trkpt>
<trkpt lat="46.0433030" lon="10.3235510">
	<ele>1125.60</ele>
	<time>2025-07-30T06:32:33.000Z</time>
</trkpt>
<trkpt lat="46.0433090" lon="10.3235600">
	<ele>1125.60</ele>
	<time>2025-07-30T06:32:34.000Z</time>
</trkpt>
<trkpt lat="46.0433130" lon="10.3235670">
	<ele>1126.00</ele>
	<time>2025-07-30T06:32:35.000Z</time>
</trkpt>
<trkpt lat="46.0433180" lon="10.3235690">
	<ele>1126.20</ele>
	<time>2025-07-30T06:32:36.000Z</time>
</trkpt>
<trkpt lat="46.0433260" lon="10.3235780">
	<ele>1126.40</ele>
	<time>2025-07-30T06:32:37.000Z</time>
</trkpt>
<trkpt lat="46.0433350" lon="10.3235880">
	<ele>1126.60</ele>
	<time>2025-07-30T06:32:38.000Z</time>
</trkpt>
<trkpt lat="46.0433470" lon="10.3236040">
	<ele>1126.80</ele>
	<time>2025-07-30T06:32:39.000Z</time>
</trkpt>
<trkpt lat="46.0433550" lon="10.3236200">
	<ele>1126.80</ele>
	<time>2025-07-30T06:32:40.000Z</time>
</trkpt>
<trkpt lat="46.0433610" lon="10.3236350">
	<ele>1127.00</ele>
	<time>2025-07-30T06:32:41.000Z</time>
</trkpt>
<trkpt lat="46.0433650" lon="10.3236540">
	<ele>1127.20</ele>
	<time>2025-07-30T06:32:42.000Z</time>
</trkpt>
<trkpt lat="46.0433670" lon="10.3236640">
	<ele>1127.20</ele>
	<time>2025-07-30T06:32:43.000Z</time>
</trkpt>
<trkpt lat="46.0433740" lon="10.3236710">
	<ele>1127.40</ele>
	<time>2025-07-30T06:32:44.000Z</time>
</trkpt>
<trkpt lat="46.0433770" lon="10.3236860">
	<ele>1127.80</ele>
	<time>2025-07-30T06:32:45.000Z</time>
</trkpt>
<trkpt lat="46.0433800" lon="10.3236940">
	<ele>1128.00</ele>
	<time>2025-07-30T06:32:46.000Z</time>
</trkpt>
<trkpt lat="46.0433770" lon="10.3236980">
	<ele>1128.20</ele>
	<time>2025-07-30T06:32:47.000Z</time>
</trkpt>
<trkpt lat="46.0433730" lon="10.3237120">
	<ele>1128.40</ele>
	<time>2025-07-30T06:32:48.000Z</time>
</trkpt>
<trkpt lat="46.0433690" lon="10.3237280">
	<ele>1128.40</ele>
	<time>2025-07-30T06:32:49.000Z</time>
</trkpt>
<trkpt lat="46.0433670" lon="10.3237430">
	<ele>1128.60</ele>
	<time>2025-07-30T06:32:50.000Z</time>
</trkpt>
<trkpt lat="46.0433710" lon="10.3237550">
	<ele>1128.80</ele>
	<time>2025-07-30T06:32:51.000Z</time>
</trkpt>
<trkpt lat="46.0433740" lon="10.3237620">
	<ele>1129.20</ele>
	<time>2025-07-30T06:32:52.000Z</time>
</trkpt>
<trkpt lat="46.0433810" lon="10.3237670">
	<ele>1129.40</ele>
	<time>2025-07-30T06:32:53.000Z</time>
</trkpt>
<trkpt lat="46.0433830" lon="10.3237740">
	<ele>1129.60</ele>
	<time>2025-07-30T06:32:54.000Z</time>
</trkpt>
<trkpt lat="46.0433880" lon="10.3237830">
	<ele>1130.00</ele>
	<time>2025-07-30T06:32:55.000Z</time>
</trkpt>
<trkpt lat="46.0433930" lon="10.3237940">
	<ele>1130.20</ele>
	<time>2025-07-30T06:32:56.000Z</time>
</trkpt>
<trkpt lat="46.0433960" lon="10.3238030">
	<ele>1130.20</ele>
	<time>2025-07-30T06:32:57.000Z</time>
</trkpt>
<trkpt lat="46.0433970" lon="10.3238200">
	<ele>1130.40</ele>
	<time>2025-07-30T06:32:58.000Z</time>
</trkpt>
<trkpt lat="46.0433990" lon="10.3238320">
	<ele>1130.60</ele>
	<time>2025-07-30T06:32:59.000Z</time>
</trkpt>
<trkpt lat="46.0434080" lon="10.3238320">
	<ele>1130.80</ele>
	<time>2025-07-30T06:33:00.000Z</time>
</trkpt>
<trkpt lat="46.0434150" lon="10.3238460">
	<ele>1131.00</ele>
	<time>2025-07-30T06:33:01.000Z</time>
</trkpt>
<trkpt lat="46.0434180" lon="10.3238570">
	<ele>1131.00</ele>
	<time>2025-07-30T06:33:02.000Z</time>
</trkpt>
<trkpt lat="46.0434180" lon="10.3238670">
	<ele>1131.00</ele>
	<time>2025-07-30T06:33:03.000Z</time>
</trkpt>
<trkpt lat="46.0434160" lon="10.3238750">
	<ele>1131.20</ele>
	<time>2025-07-30T06:33:04.000Z</time>
</trkpt>
<trkpt lat="46.0434120" lon="10.3238860">
	<ele>1131.20</ele>
	<time>2025-07-30T06:33:05.000Z</time>
</trkpt>
<trkpt lat="46.0434070" lon="10.3238970">
	<ele>1131.20</ele>
	<time>2025-07-30T06:33:06.000Z</time>
</trkpt>
<trkpt lat="46.0434020" lon="10.3239090">
	<ele>1131.40</ele>
	<time>2025-07-30T06:33:07.000Z</time>
</trkpt>
<trkpt lat="46.0433990" lon="10.3239170">
	<ele>1131.60</ele>
	<time>2025-07-30T06:33:08.000Z</time>
</trkpt>
<trkpt lat="46.0433980" lon="10.3239250">
	<ele>1131.60</ele>
	<time>2025-07-30T06:33:09.000Z</time>
</trkpt>
<trkpt lat="46.0434020" lon="10.3239340">
	<ele>1131.80</ele>
	<time>2025-07-30T06:33:10.000Z</time>
</trkpt>
<trkpt lat="46.0434040" lon="10.3239450">
	<ele>1131.80</ele>
	<time>2025-07-30T06:33:11.000Z</time>
</trkpt>
<trkpt lat="46.0434060" lon="10.3239520">
	<ele>1132.00</ele>
	<time>2025-07-30T06:33:12.000Z</time>
</trkpt>
<trkpt lat="46.0434060" lon="10.3239620">
	<ele>1132.20</ele>
	<time>2025-07-30T06:33:13.000Z</time>
</trkpt>
<trkpt lat="46.0434040" lon="10.3239740">
	<ele>1132.20</ele>
	<time>2025-07-30T06:33:14.000Z</time>
</trkpt>
<trkpt lat="46.0434010" lon="10.3239910">
	<ele>1132.40</ele>
	<time>2025-07-30T06:33:15.000Z</time>
</trkpt>
<trkpt lat="46.0433970" lon="10.3240080">
	<ele>1132.60</ele>
	<time>2025-07-30T06:33:16.000Z</time>
</trkpt>
<trkpt lat="46.0433900" lon="10.3240230">
	<ele>1132.80</ele>
	<time>2025-07-30T06:33:17.000Z</time>
</trkpt>
<trkpt lat="46.0433870" lon="10.3240370">
	<ele>1133.00</ele>
	<time>2025-07-30T06:33:18.000Z</time>
</trkpt>
<trkpt lat="46.0433840" lon="10.3240430">
	<ele>1133.00</ele>
	<time>2025-07-30T06:33:19.000Z</time>
</trkpt>
<trkpt lat="46.0433850" lon="10.3240550">
	<ele>1133.20</ele>
	<time>2025-07-30T06:33:20.000Z</time>
</trkpt>
<trkpt lat="46.0433840" lon="10.3240670">
	<ele>1133.60</ele>
	<time>2025-07-30T06:33:21.000Z</time>
</trkpt>
<trkpt lat="46.0433760" lon="10.3240900">
	<ele>1133.60</ele>
	<time>2025-07-30T06:33:22.000Z</time>
</trkpt>
<trkpt lat="46.0433740" lon="10.3241180">
	<ele>1133.80</ele>
	<time>2025-07-30T06:33:23.000Z</time>
</trkpt>
<trkpt lat="46.0433740" lon="10.3241490">
	<ele>1134.20</ele>
	<time>2025-07-30T06:33:24.000Z</time>
</trkpt>
<trkpt lat="46.0433780" lon="10.3241610">
	<ele>1134.20</ele>
	<time>2025-07-30T06:33:25.000Z</time>
</trkpt>
<trkpt lat="46.0433810" lon="10.3241670">
	<ele>1134.40</ele>
	<time>2025-07-30T06:33:26.000Z</time>
</trkpt>
<trkpt lat="46.0433880" lon="10.3241750">
	<ele>1134.60</ele>
	<time>2025-07-30T06:33:27.000Z</time>
</trkpt>
<trkpt lat="46.0433890" lon="10.3241860">
	<ele>1134.80</ele>
	<time>2025-07-30T06:33:28.000Z</time>
</trkpt>
<trkpt lat="46.0433910" lon="10.3241970">
	<ele>1135.00</ele>
	<time>2025-07-30T06:33:29.000Z</time>
</trkpt>
<trkpt lat="46.0434010" lon="10.3242130">
	<ele>1135.20</ele>
	<time>2025-07-30T06:33:30.000Z</time>
</trkpt>
<trkpt lat="46.0434070" lon="10.3242220">
	<ele>1135.20</ele>
	<time>2025-07-30T06:33:31.000Z</time>
</trkpt>
<trkpt lat="46.0434100" lon="10.3242390">
	<ele>1135.40</ele>
	<time>2025-07-30T06:33:32.000Z</time>
</trkpt>
<trkpt lat="46.0434160" lon="10.3242530">
	<ele>1135.40</ele>
	<time>2025-07-30T06:33:33.000Z</time>
</trkpt>
<trkpt lat="46.0434220" lon="10.3242680">
	<ele>1135.60</ele>
	<time>2025-07-30T06:33:34.000Z</time>
</trkpt>
<trkpt lat="46.0434250" lon="10.3242810">
	<ele>1135.60</ele>
	<time>2025-07-30T06:33:35.000Z</time>
</trkpt>
<trkpt lat="46.0434280" lon="10.3242980">
	<ele>1135.80</ele>
	<time>2025-07-30T06:33:36.000Z</time>
</trkpt>
<trkpt lat="46.0434330" lon="10.3243110">
	<ele>1135.80</ele>
	<time>2025-07-30T06:33:37.000Z</time>
</trkpt>
<trkpt lat="46.0434430" lon="10.3243320">
	<ele>1136.00</ele>
	<time>2025-07-30T06:33:38.000Z</time>
</trkpt>
<trkpt lat="46.0434420" lon="10.3243380">
	<ele>1136.20</ele>
	<time>2025-07-30T06:33:39.000Z</time>
</trkpt>
<trkpt lat="46.0434410" lon="10.3243460">
	<ele>1136.40</ele>
	<time>2025-07-30T06:33:40.000Z</time>
</trkpt>
<trkpt lat="46.0434430" lon="10.3243630">
	<ele>1136.60</ele>
	<time>2025-07-30T06:33:41.000Z</time>
</trkpt>
<trkpt lat="46.0434450" lon="10.3243740">
	<ele>1136.80</ele>
	<time>2025-07-30T06:33:42.000Z</time>
</trkpt>
<trkpt lat="46.0434460" lon="10.3243880">
	<ele>1137.00</ele>
	<time>2025-07-30T06:33:43.000Z</time>
</trkpt>
<trkpt lat="46.0434460" lon="10.3244000">
	<ele>1137.00</ele>
	<time>2025-07-30T06:33:44.000Z</time>
</trkpt>
<trkpt lat="46.0434450" lon="10.3244030">
	<ele>1137.20</ele>
	<time>2025-07-30T06:33:45.000Z</time>
</trkpt>
<trkpt lat="46.0434470" lon="10.3244090">
	<ele>1137.40</ele>
	<time>2025-07-30T06:33:46.000Z</time>
</trkpt>
<trkpt lat="46.0434510" lon="10.3244270">
	<ele>1137.40</ele>
	<time>2025-07-30T06:33:47.000Z</time>
</trkpt>
<trkpt lat="46.0434450" lon="10.3244400">
	<ele>1137.60</ele>
	<time>2025-07-30T06:33:48.000Z</time>
</trkpt>
<trkpt lat="46.0434380" lon="10.3244630">
	<ele>1137.80</ele>
	<time>2025-07-30T06:33:49.000Z</time>
</trkpt>
<trkpt lat="46.0434370" lon="10.3244700">
	<ele>1138.00</ele>
	<time>2025-07-30T06:33:50.000Z</time>
</trkpt>
<trkpt lat="46.0434390" lon="10.3244800">
	<ele>1138.40</ele>
	<time>2025-07-30T06:33:51.000Z</time>
</trkpt>
<trkpt lat="46.0434430" lon="10.3244970">
	<ele>1138.60</ele>
	<time>2025-07-30T06:33:52.000Z</time>
</trkpt>
<trkpt lat="46.0434520" lon="10.3245080">
	<ele>1138.80</ele>
	<time>2025-07-30T06:33:53.000Z</time>
</trkpt>
<trkpt lat="46.0434520" lon="10.3245180">
	<ele>1139.00</ele>
	<time>2025-07-30T06:33:54.000Z</time>
</trkpt>
<trkpt lat="46.0434510" lon="10.3245310">
	<ele>1139.20</ele>
	<time>2025-07-30T06:33:55.000Z</time>
</trkpt>
<trkpt lat="46.0434550" lon="10.3245400">
	<ele>1139.20</ele>
	<time>2025-07-30T06:33:56.000Z</time>
</trkpt>
<trkpt lat="46.0434560" lon="10.3245410">
	<ele>1139.40</ele>
	<time>2025-07-30T06:33:57.000Z</time>
</trkpt>
<trkpt lat="46.0434560" lon="10.3245450">
	<ele>1139.60</ele>
	<time>2025-07-30T06:33:58.000Z</time>
</trkpt>
<trkpt lat="46.0434540" lon="10.3245530">
	<ele>1139.80</ele>
	<time>2025-07-30T06:33:59.000Z</time>
</trkpt>
<trkpt lat="46.0434550" lon="10.3245640">
	<ele>1140.00</ele>
	<time>2025-07-30T06:34:00.000Z</time>
</trkpt>
<trkpt lat="46.0434620" lon="10.3245760">
	<ele>1140.20</ele>
	<time>2025-07-30T06:34:01.000Z</time>
</trkpt>
<trkpt lat="46.0434670" lon="10.3245820">
	<ele>1140.40</ele>
	<time>2025-07-30T06:34:02.000Z</time>
</trkpt>
<trkpt lat="46.0434690" lon="10.3245880">
	<ele>1140.40</ele>
	<time>2025-07-30T06:34:03.000Z</time>
</trkpt>
<trkpt lat="46.0434760" lon="10.3245970">
	<ele>1140.60</ele>
	<time>2025-07-30T06:34:04.000Z</time>
</trkpt>
<trkpt lat="46.0434780" lon="10.3246020">
	<ele>1140.80</ele>
	<time>2025-07-30T06:34:05.000Z</time>
</trkpt>
<trkpt lat="46.0434800" lon="10.3246050">
	<ele>1141.00</ele>
	<time>2025-07-30T06:34:06.000Z</time>
</trkpt>
<trkpt lat="46.0434840" lon="10.3246170">
	<ele>1141.20</ele>
	<time>2025-07-30T06:34:07.000Z</time>
</trkpt>
<trkpt lat="46.0434860" lon="10.3246370">
	<ele>1141.20</ele>
	<time>2025-07-30T06:34:08.000Z</time>
</trkpt>
<trkpt lat="46.0434900" lon="10.3246400">
	<ele>1141.60</ele>
	<time>2025-07-30T06:34:09.000Z</time>
</trkpt>
<trkpt lat="46.0434970" lon="10.3246810">
	<ele>1141.60</ele>
	<time>2025-07-30T06:34:10.000Z</time>
</trkpt>
<trkpt lat="46.0434970" lon="10.3246870">
	<ele>1141.80</ele>
	<time>2025-07-30T06:34:11.000Z</time>
</trkpt>
<trkpt lat="46.0434970" lon="10.3246880">
	<ele>1142.00</ele>
	<time>2025-07-30T06:34:12.000Z</time>
</trkpt>
<trkpt lat="46.0435070" lon="10.3246960">
	<ele>1142.20</ele>
	<time>2025-07-30T06:34:13.000Z</time>
</trkpt>
<trkpt lat="46.0435100" lon="10.3247000">
	<ele>1142.20</ele>
	<time>2025-07-30T06:34:14.000Z</time>
</trkpt>
<trkpt lat="46.0435130" lon="10.3247020">
	<ele>1142.60</ele>
	<time>2025-07-30T06:34:15.000Z</time>
</trkpt>
<trkpt lat="46.0435160" lon="10.3247040">
	<ele>1142.60</ele>
	<time>2025-07-30T06:34:16.000Z</time>
</trkpt>
<trkpt lat="46.0435200" lon="10.3247130">
	<ele>1143.00</ele>
	<time>2025-07-30T06:34:17.000Z</time>
</trkpt>
<trkpt lat="46.0435240" lon="10.3247220">
	<ele>1143.00</ele>
	<time>2025-07-30T06:34:18.000Z</time>
</trkpt>
<trkpt lat="46.0435260" lon="10.3247310">
	<ele>1143.20</ele>
	<time>2025-07-30T06:34:19.000Z</time>
</trkpt>
<trkpt lat="46.0435300" lon="10.3247350">
	<ele>1143.40</ele>
	<time>2025-07-30T06:34:20.000Z</time>
</trkpt>
<trkpt lat="46.0435330" lon="10.3247380">
	<ele>1143.40</ele>
	<time>2025-07-30T06:34:21.000Z</time>
</trkpt>
<trkpt lat="46.0435340" lon="10.3247380">
	<ele>1143.40</ele>
	<time>2025-07-30T06:34:22.000Z</time>
</trkpt>
<trkpt lat="46.0435360" lon="10.3247380">
	<ele>1143.40</ele>
	<time>2025-07-30T06:34:23.000Z</time>
</trkpt>
<trkpt lat="46.0435380" lon="10.3247420">
	<ele>1143.60</ele>
	<time>2025-07-30T06:34:24.000Z</time>
</trkpt>
<trkpt lat="46.0435440" lon="10.3247620">
	<ele>1143.80</ele>
	<time>2025-07-30T06:34:25.000Z</time>
</trkpt>
<trkpt lat="46.0435490" lon="10.3247830">
	<ele>1144.00</ele>
	<time>2025-07-30T06:34:26.000Z</time>
</trkpt>
<trkpt lat="46.0435510" lon="10.3248050">
	<ele>1144.20</ele>
	<time>2025-07-30T06:34:27.000Z</time>
</trkpt>
<trkpt lat="46.0435530" lon="10.3248120">
	<ele>1144.20</ele>
	<time>2025-07-30T06:34:28.000Z</time>
</trkpt>
<trkpt lat="46.0435540" lon="10.3248220">
	<ele>1144.40</ele>
	<time>2025-07-30T06:34:29.000Z</time>
</trkpt>
<trkpt lat="46.0435560" lon="10.3248270">
	<ele>1144.60</ele>
	<time>2025-07-30T06:34:30.000Z</time>
</trkpt>
<trkpt lat="46.0435580" lon="10.3248370">
	<ele>1144.60</ele>
	<time>2025-07-30T06:34:31.000Z</time>
</trkpt>
<trkpt lat="46.0435590" lon="10.3248420">
	<ele>1144.80</ele>
	<time>2025-07-30T06:34:32.000Z</time>
</trkpt>
<trkpt lat="46.0435630" lon="10.3248520">
	<ele>1145.00</ele>
	<time>2025-07-30T06:34:33.000Z</time>
</trkpt>
<trkpt lat="46.0435680" lon="10.3248620">
	<ele>1145.00</ele>
	<time>2025-07-30T06:34:34.000Z</time>
</trkpt>
<trkpt lat="46.0435750" lon="10.3248680">
	<ele>1145.00</ele>
	<time>2025-07-30T06:34:35.000Z</time>
</trkpt>
<trkpt lat="46.0435850" lon="10.3248670">
	<ele>1145.20</ele>
	<time>2025-07-30T06:34:36.000Z</time>
</trkpt>
<trkpt lat="46.0435940" lon="10.3248680">
	<ele>1145.20</ele>
	<time>2025-07-30T06:34:37.000Z</time>
</trkpt>
<trkpt lat="46.0436050" lon="10.3248710">
	<ele>1145.20</ele>
	<time>2025-07-30T06:34:38.000Z</time>
</trkpt>
<trkpt lat="46.0436160" lon="10.3248790">
	<ele>1145.40</ele>
	<time>2025-07-30T06:34:39.000Z</time>
</trkpt>
<trkpt lat="46.0436220" lon="10.3248970">
	<ele>1145.60</ele>
	<time>2025-07-30T06:34:40.000Z</time>
</trkpt>
<trkpt lat="46.0436230" lon="10.3249160">
	<ele>1145.60</ele>
	<time>2025-07-30T06:34:41.000Z</time>
</trkpt>
<trkpt lat="46.0436240" lon="10.3249410">
	<ele>1145.60</ele>
	<time>2025-07-30T06:34:42.000Z</time>
</trkpt>
<trkpt lat="46.0436240" lon="10.3249740">
	<ele>1145.60</ele>
	<time>2025-07-30T06:34:43.000Z</time>
</trkpt>
<trkpt lat="46.0436280" lon="10.3250070">
	<ele>1145.60</ele>
	<time>2025-07-30T06:34:44.000Z</time>
</trkpt>
<trkpt lat="46.0436390" lon="10.3250350">
	<ele>1145.80</ele>
	<time>2025-07-30T06:34:45.000Z</time>
</trkpt>
<trkpt lat="46.0436490" lon="10.3250400">
	<ele>1145.80</ele>
	<time>2025-07-30T06:34:46.000Z</time>
</trkpt>
<trkpt lat="46.0436550" lon="10.3250480">
	<ele>1145.80</ele>
	<time>2025-07-30T06:34:47.000Z</time>
</trkpt>
<trkpt lat="46.0436570" lon="10.3250640">
	<ele>1146.00</ele>
	<time>2025-07-30T06:34:48.000Z</time>
</trkpt>
<trkpt lat="46.0436600" lon="10.3250800">
	<ele>1146.20</ele>
	<time>2025-07-30T06:34:49.000Z</time>
</trkpt>
<trkpt lat="46.0436630" lon="10.3251020">
	<ele>1146.20</ele>
	<time>2025-07-30T06:34:50.000Z</time>
</trkpt>
<trkpt lat="46.0436610" lon="10.3251290">
	<ele>1146.40</ele>
	<time>2025-07-30T06:34:51.000Z</time>
</trkpt>
<trkpt lat="46.0436670" lon="10.3251500">
	<ele>1146.60</ele>
	<time>2025-07-30T06:34:52.000Z</time>
</trkpt>
<trkpt lat="46.0436730" lon="10.3251710">
	<ele>1147.00</ele>
	<time>2025-07-30T06:34:53.000Z</time>
</trkpt>
<trkpt lat="46.0436760" lon="10.3251790">
	<ele>1147.20</ele>
	<time>2025-07-30T06:34:54.000Z</time>
</trkpt>
<trkpt lat="46.0436810" lon="10.3251870">
	<ele>1147.40</ele>
	<time>2025-07-30T06:34:55.000Z</time>
</trkpt>
<trkpt lat="46.0436880" lon="10.3251930">
	<ele>1147.40</ele>
	<time>2025-07-30T06:34:56.000Z</time>
</trkpt>
<trkpt lat="46.0436930" lon="10.3251950">
	<ele>1147.40</ele>
	<time>2025-07-30T06:34:57.000Z</time>
</trkpt>
<trkpt lat="46.0436970" lon="10.3252090">
	<ele>1147.60</ele>
	<time>2025-07-30T06:34:58.000Z</time>
</trkpt>
<trkpt lat="46.0437010" lon="10.3252290">
	<ele>1147.60</ele>
	<time>2025-07-30T06:34:59.000Z</time>
</trkpt>
<trkpt lat="46.0437080" lon="10.3252540">
	<ele>1147.60</ele>
	<time>2025-07-30T06:35:00.000Z</time>
</trkpt>
<trkpt lat="46.0437180" lon="10.3252810">
	<ele>1147.60</ele>
	<time>2025-07-30T06:35:01.000Z</time>
</trkpt>
<trkpt lat="46.0437290" lon="10.3252950">
	<ele>1147.80</ele>
	<time>2025-07-30T06:35:02.000Z</time>
</trkpt>
<trkpt lat="46.0437410" lon="10.3253110">
	<ele>1147.80</ele>
	<time>2025-07-30T06:35:03.000Z</time>
</trkpt>
<trkpt lat="46.0437450" lon="10.3253280">
	<ele>1147.80</ele>
	<time>2025-07-30T06:35:04.000Z</time>
</trkpt>
<trkpt lat="46.0437530" lon="10.3253520">
	<ele>1147.80</ele>
	<time>2025-07-30T06:35:05.000Z</time>
</trkpt>
<trkpt lat="46.0437570" lon="10.3253640">
	<ele>1148.00</ele>
	<time>2025-07-30T06:35:06.000Z</time>
</trkpt>
<trkpt lat="46.0437630" lon="10.3253690">
	<ele>1148.00</ele>
	<time>2025-07-30T06:35:07.000Z</time>
</trkpt>
<trkpt lat="46.0437640" lon="10.3253750">
	<ele>1148.00</ele>
	<time>2025-07-30T06:35:08.000Z</time>
</trkpt>
<trkpt lat="46.0437700" lon="10.3253790">
	<ele>1148.20</ele>
	<time>2025-07-30T06:35:09.000Z</time>
</trkpt>
<trkpt lat="46.0437760" lon="10.3253860">
	<ele>1148.20</ele>
	<time>2025-07-30T06:35:10.000Z</time>
</trkpt>
<trkpt lat="46.0437820" lon="10.3253960">
	<ele>1148.60</ele>
	<time>2025-07-30T06:35:11.000Z</time>
</trkpt>
<trkpt lat="46.0437850" lon="10.3254260">
	<ele>1148.80</ele>
	<time>2025-07-30T06:35:12.000Z</time>
</trkpt>
<trkpt lat="46.0437910" lon="10.3254440">
	<ele>1149.00</ele>
	<time>2025-07-30T06:35:13.000Z</time>
</trkpt>
<trkpt lat="46.0437940" lon="10.3254570">
	<ele>1149.20</ele>
	<time>2025-07-30T06:35:14.000Z</time>
</trkpt>
<trkpt lat="46.0438000" lon="10.3254600">
	<ele>1149.40</ele>
	<time>2025-07-30T06:35:15.000Z</time>
</trkpt>
<trkpt lat="46.0438070" lon="10.3254670">
	<ele>1149.60</ele>
	<time>2025-07-30T06:35:16.000Z</time>
</trkpt>
<trkpt lat="46.0438120" lon="10.3254780">
	<ele>1149.80</ele>
	<time>2025-07-30T06:35:17.000Z</time>
</trkpt>
<trkpt lat="46.0438190" lon="10.3254840">
	<ele>1150.20</ele>
	<time>2025-07-30T06:35:18.000Z</time>
</trkpt>
<trkpt lat="46.0438250" lon="10.3254910">
	<ele>1150.20</ele>
	<time>2025-07-30T06:35:19.000Z</time>
</trkpt>
<trkpt lat="46.0438300" lon="10.3255050">
	<ele>1150.40</ele>
	<time>2025-07-30T06:35:20.000Z</time>
</trkpt>
<trkpt lat="46.0438360" lon="10.3255100">
	<ele>1150.40</ele>
	<time>2025-07-30T06:35:21.000Z</time>
</trkpt>
<trkpt lat="46.0438440" lon="10.3255210">
	<ele>1150.80</ele>
	<time>2025-07-30T06:35:22.000Z</time>
</trkpt>
<trkpt lat="46.0438480" lon="10.3255260">
	<ele>1151.00</ele>
	<time>2025-07-30T06:35:23.000Z</time>
</trkpt>
<trkpt lat="46.0438550" lon="10.3255270">
	<ele>1151.20</ele>
	<time>2025-07-30T06:35:24.000Z</time>
</trkpt>
<trkpt lat="46.0438600" lon="10.3255360">
	<ele>1151.20</ele>
	<time>2025-07-30T06:35:25.000Z</time>
</trkpt>
<trkpt lat="46.0438610" lon="10.3255480">
	<ele>1151.40</ele>
	<time>2025-07-30T06:35:26.000Z</time>
</trkpt>
<trkpt lat="46.0438660" lon="10.3255560">
	<ele>1151.60</ele>
	<time>2025-07-30T06:35:27.000Z</time>
</trkpt>
<trkpt lat="46.0438750" lon="10.3255640">
	<ele>1151.80</ele>
	<time>2025-07-30T06:35:28.000Z</time>
</trkpt>
<trkpt lat="46.0438820" lon="10.3255730">
	<ele>1152.00</ele>
	<time>2025-07-30T06:35:29.000Z</time>
</trkpt>
<trkpt lat="46.0438870" lon="10.3255740">
	<ele>1152.20</ele>
	<time>2025-07-30T06:35:30.000Z</time>
</trkpt>
<trkpt lat="46.0438900" lon="10.3255840">
	<ele>1152.40</ele>
	<time>2025-07-30T06:35:31.000Z</time>
</trkpt>
<trkpt lat="46.0438980" lon="10.3255880">
	<ele>1152.60</ele>
	<time>2025-07-30T06:35:32.000Z</time>
</trkpt>
<trkpt lat="46.0439010" lon="10.3255910">
	<ele>1152.80</ele>
	<time>2025-07-30T06:35:33.000Z</time>
</trkpt>
<trkpt lat="46.0439020" lon="10.3255950">
	<ele>1153.00</ele>
	<time>2025-07-30T06:35:34.000Z</time>
</trkpt>
<trkpt lat="46.0439080" lon="10.3255930">
	<ele>1153.00</ele>
	<time>2025-07-30T06:35:35.000Z</time>
</trkpt>
<trkpt lat="46.0439120" lon="10.3255980">
	<ele>1153.00</ele>
	<time>2025-07-30T06:35:36.000Z</time>
</trkpt>
<trkpt lat="46.0439160" lon="10.3256020">
	<ele>1153.20</ele>
	<time>2025-07-30T06:35:37.000Z</time>
</trkpt>
<trkpt lat="46.0439220" lon="10.3256150">
	<ele>1153.40</ele>
	<time>2025-07-30T06:35:38.000Z</time>
</trkpt>
<trkpt lat="46.0439310" lon="10.3256230">
	<ele>1153.60</ele>
	<time>2025-07-30T06:35:39.000Z</time>
</trkpt>
<trkpt lat="46.0439450" lon="10.3256290">
	<ele>1153.80</ele>
	<time>2025-07-30T06:35:40.000Z</time>
</trkpt>
<trkpt lat="46.0439550" lon="10.3256390">
	<ele>1153.80</ele>
	<time>2025-07-30T06:35:41.000Z</time>
</trkpt>
<trkpt lat="46.0439620" lon="10.3256480">
	<ele>1154.40</ele>
	<time>2025-07-30T06:35:42.000Z</time>
</trkpt>
<trkpt lat="46.0439670" lon="10.3256530">
	<ele>1154.60</ele>
	<time>2025-07-30T06:35:43.000Z</time>
</trkpt>
<trkpt lat="46.0439740" lon="10.3256640">
	<ele>1154.80</ele>
	<time>2025-07-30T06:35:44.000Z</time>
</trkpt>
<trkpt lat="46.0439860" lon="10.3256750">
	<ele>1154.80</ele>
	<time>2025-07-30T06:35:45.000Z</time>
</trkpt>
<trkpt lat="46.0439940" lon="10.3256760">
	<ele>1155.00</ele>
	<time>2025-07-30T06:35:46.000Z</time>
</trkpt>
<trkpt lat="46.0440030" lon="10.3256750">
	<ele>1155.00</ele>
	<time>2025-07-30T06:35:47.000Z</time>
</trkpt>
<trkpt lat="46.0440080" lon="10.3256740">
	<ele>1155.00</ele>
	<time>2025-07-30T06:35:48.000Z</time>
</trkpt>
<trkpt lat="46.0440130" lon="10.3256720">
	<ele>1155.20</ele>
	<time>2025-07-30T06:35:49.000Z</time>
</trkpt>
<trkpt lat="46.0440200" lon="10.3256690">
	<ele>1155.60</ele>
	<time>2025-07-30T06:35:50.000Z</time>
</trkpt>
<trkpt lat="46.0440230" lon="10.3256700">
	<ele>1155.80</ele>
	<time>2025-07-30T06:35:51.000Z</time>
</trkpt>
<trkpt lat="46.0440270" lon="10.3256740">
	<ele>1156.00</ele>
	<time>2025-07-30T06:35:52.000Z</time>
</trkpt>
<trkpt lat="46.0440320" lon="10.3256780">
	<ele>1156.20</ele>
	<time>2025-07-30T06:35:53.000Z</time>
</trkpt>
<trkpt lat="46.0440380" lon="10.3256820">
	<ele>1156.40</ele>
	<time>2025-07-30T06:35:54.000Z</time>
</trkpt>
<trkpt lat="46.0440460" lon="10.3256800">
	<ele>1156.40</ele>
	<time>2025-07-30T06:35:55.000Z</time>
</trkpt>
<trkpt lat="46.0440540" lon="10.3256810">
	<ele>1156.40</ele>
	<time>2025-07-30T06:35:56.000Z</time>
</trkpt>
<trkpt lat="46.0440600" lon="10.3256900">
	<ele>1156.60</ele>
	<time>2025-07-30T06:35:57.000Z</time>
</trkpt>
<trkpt lat="46.0440620" lon="10.3256960">
	<ele>1156.60</ele>
	<time>2025-07-30T06:35:58.000Z</time>
</trkpt>
<trkpt lat="46.0440640" lon="10.3256920">
	<ele>1156.60</ele>
	<time>2025-07-30T06:35:59.000Z</time>
</trkpt>
<trkpt lat="46.0440690" lon="10.3256960">
	<ele>1156.80</ele>
	<time>2025-07-30T06:36:00.000Z</time>
</trkpt>
<trkpt lat="46.0440750" lon="10.3256970">
	<ele>1157.00</ele>
	<time>2025-07-30T06:36:01.000Z</time>
</trkpt>
<trkpt lat="46.0440750" lon="10.3257000">
	<ele>1157.00</ele>
	<time>2025-07-30T06:36:02.000Z</time>
</trkpt>
<trkpt lat="46.0440800" lon="10.3257020">
	<ele>1157.20</ele>
	<time>2025-07-30T06:36:03.000Z</time>
</trkpt>
<trkpt lat="46.0440900" lon="10.3257020">
	<ele>1157.20</ele>
	<time>2025-07-30T06:36:04.000Z</time>
</trkpt>
<trkpt lat="46.0440970" lon="10.3257010">
	<ele>1157.40</ele>
	<time>2025-07-30T06:36:05.000Z</time>
</trkpt>
<trkpt lat="46.0441010" lon="10.3257030">
	<ele>1157.60</ele>
	<time>2025-07-30T06:36:06.000Z</time>
</trkpt>
<trkpt lat="46.0441050" lon="10.3257100">
	<ele>1157.60</ele>
	<time>2025-07-30T06:36:07.000Z</time>
</trkpt>
<trkpt lat="46.0441100" lon="10.3257110">
	<ele>1157.80</ele>
	<time>2025-07-30T06:36:08.000Z</time>
</trkpt>
<trkpt lat="46.0441190" lon="10.3257300">
	<ele>1158.20</ele>
	<time>2025-07-30T06:36:09.000Z</time>
</trkpt>
<trkpt lat="46.0441260" lon="10.3257410">
	<ele>1158.60</ele>
	<time>2025-07-30T06:36:10.000Z</time>
</trkpt>
<trkpt lat="46.0441400" lon="10.3257540">
	<ele>1159.00</ele>
	<time>2025-07-30T06:36:11.000Z</time>
</trkpt>
<trkpt lat="46.0441500" lon="10.3257580">
	<ele>1159.20</ele>
	<time>2025-07-30T06:36:12.000Z</time>
</trkpt>
<trkpt lat="46.0441550" lon="10.3257510">
	<ele>1159.40</ele>
	<time>2025-07-30T06:36:13.000Z</time>
</trkpt>
<trkpt lat="46.0441610" lon="10.3257520">
	<ele>1159.60</ele>
	<time>2025-07-30T06:36:14.000Z</time>
</trkpt>
<trkpt lat="46.0441650" lon="10.3257530">
	<ele>1159.80</ele>
	<time>2025-07-30T06:36:15.000Z</time>
</trkpt>
<trkpt lat="46.0441670" lon="10.3257620">
	<ele>1159.80</ele>
	<time>2025-07-30T06:36:16.000Z</time>
</trkpt>
<trkpt lat="46.0441700" lon="10.3257670">
	<ele>1160.00</ele>
	<time>2025-07-30T06:36:17.000Z</time>
</trkpt>
<trkpt lat="46.0441730" lon="10.3257690">
	<ele>1160.20</ele>
	<time>2025-07-30T06:36:18.000Z</time>
</trkpt>
<trkpt lat="46.0441830" lon="10.3257580">
	<ele>1160.40</ele>
	<time>2025-07-30T06:36:19.000Z</time>
</trkpt>
<trkpt lat="46.0442000" lon="10.3257510">
	<ele>1160.60</ele>
	<time>2025-07-30T06:36:20.000Z</time>
</trkpt>
<trkpt lat="46.0442050" lon="10.3257520">
	<ele>1161.00</ele>
	<time>2025-07-30T06:36:21.000Z</time>
</trkpt>
<trkpt lat="46.0442170" lon="10.3257560">
	<ele>1161.20</ele>
	<time>2025-07-30T06:36:22.000Z</time>
</trkpt>
<trkpt lat="46.0442270" lon="10.3257500">
	<ele>1161.40</ele>
	<time>2025-07-30T06:36:23.000Z</time>
</trkpt>
<trkpt lat="46.0442360" lon="10.3257410">
	<ele>1161.60</ele>
	<time>2025-07-30T06:36:24.000Z</time>
</trkpt>
<trkpt lat="46.0442480" lon="10.3257170">
	<ele>1162.00</ele>
	<time>2025-07-30T06:36:25.000Z</time>
</trkpt>
<trkpt lat="46.0442570" lon="10.3257080">
	<ele>1162.20</ele>
	<time>2025-07-30T06:36:26.000Z</time>
</trkpt>
<trkpt lat="46.0442590" lon="10.3257030">
	<ele>1162.40</ele>
	<time>2025-07-30T06:36:27.000Z</time>
</trkpt>
<trkpt lat="46.0442610" lon="10.3256940">
	<ele>1162.60</ele>
	<time>2025-07-30T06:36:28.000Z</time>
</trkpt>
<trkpt lat="46.0442680" lon="10.3256790">
	<ele>1162.80</ele>
	<time>2025-07-30T06:36:29.000Z</time>
</trkpt>
<trkpt lat="46.0442730" lon="10.3256700">
	<ele>1162.80</ele>
	<time>2025-07-30T06:36:30.000Z</time>
</trkpt>
<trkpt lat="46.0442790" lon="10.3256610">
	<ele>1163.20</ele>
	<time>2025-07-30T06:36:31.000Z</time>
</trkpt>
<trkpt lat="46.0442830" lon="10.3256550">
	<ele>1163.40</ele>
	<time>2025-07-30T06:36:32.000Z</time>
</trkpt>
<trkpt lat="46.0442850" lon="10.3256440">
	<ele>1163.60</ele>
	<time>2025-07-30T06:36:33.000Z</time>
</trkpt>
<trkpt lat="46.0442870" lon="10.3256350">
	<ele>1163.80</ele>
	<time>2025-07-30T06:36:34.000Z</time>
</trkpt>
<trkpt lat="46.0442840" lon="10.3256320">
	<ele>1164.00</ele>
	<time>2025-07-30T06:36:35.000Z</time>
</trkpt>
<trkpt lat="46.0442810" lon="10.3256270">
	<ele>1164.00</ele>
	<time>2025-07-30T06:36:36.000Z</time>
</trkpt>
<trkpt lat="46.0442840" lon="10.3256160">
	<ele>1164.40</ele>
	<time>2025-07-30T06:36:37.000Z</time>
</trkpt>
<trkpt lat="46.0442860" lon="10.3256070">
	<ele>1164.60</ele>
	<time>2025-07-30T06:36:38.000Z</time>
</trkpt>
<trkpt lat="46.0442850" lon="10.3255960">
	<ele>1164.80</ele>
	<time>2025-07-30T06:36:39.000Z</time>
</trkpt>
<trkpt lat="46.0442860" lon="10.3255870">
	<ele>1165.00</ele>
	<time>2025-07-30T06:36:40.000Z</time>
</trkpt>
<trkpt lat="46.0442860" lon="10.3255840">
	<ele>1165.40</ele>
	<time>2025-07-30T06:36:41.000Z</time>
</trkpt>
<trkpt lat="46.0442860" lon="10.3255750">
	<ele>1165.60</ele>
	<time>2025-07-30T06:36:42.000Z</time>
</trkpt>
<trkpt lat="46.0442880" lon="10.3255520">
	<ele>1165.80</ele>
	<time>2025-07-30T06:36:43.000Z</time>
</trkpt>
<trkpt lat="46.0442780" lon="10.3255430">
	<ele>1165.80</ele>
	<time>2025-07-30T06:36:44.000Z</time>
</trkpt>
<trkpt lat="46.0442660" lon="10.3255350">
	<ele>1166.00</ele>
	<time>2025-07-30T06:36:45.000Z</time>
</trkpt>
<trkpt lat="46.0442540" lon="10.3255290">
	<ele>1166.20</ele>
	<time>2025-07-30T06:36:46.000Z</time>
</trkpt>
<trkpt lat="46.0442450" lon="10.3255270">
	<ele>1166.40</ele>
	<time>2025-07-30T06:36:47.000Z</time>
</trkpt>
<trkpt lat="46.0442410" lon="10.3255220">
	<ele>1166.60</ele>
	<time>2025-07-30T06:36:48.000Z</time>
</trkpt>
<trkpt lat="46.0442290" lon="10.3255230">
	<ele>1166.80</ele>
	<time>2025-07-30T06:36:49.000Z</time>
</trkpt>
<trkpt lat="46.0442250" lon="10.3255120">
	<ele>1167.00</ele>
	<time>2025-07-30T06:36:50.000Z</time>
</trkpt>
<trkpt lat="46.0442200" lon="10.3255030">
	<ele>1167.00</ele>
	<time>2025-07-30T06:36:51.000Z</time>
</trkpt>
<trkpt lat="46.0442180" lon="10.3254950">
	<ele>1167.20</ele>
	<time>2025-07-30T06:36:52.000Z</time>
</trkpt>
<trkpt lat="46.0442200" lon="10.3254860">
	<ele>1167.20</ele>
	<time>2025-07-30T06:36:53.000Z</time>
</trkpt>
<trkpt lat="46.0442200" lon="10.3254750">
	<ele>1167.60</ele>
	<time>2025-07-30T06:36:54.000Z</time>
</trkpt>
<trkpt lat="46.0442170" lon="10.3254620">
	<ele>1167.60</ele>
	<time>2025-07-30T06:36:55.000Z</time>
</trkpt>
<trkpt lat="46.0442140" lon="10.3254550">
	<ele>1167.80</ele>
	<time>2025-07-30T06:36:56.000Z</time>
</trkpt>
<trkpt lat="46.0442110" lon="10.3254500">
	<ele>1167.80</ele>
	<time>2025-07-30T06:36:57.000Z</time>
</trkpt>
<trkpt lat="46.0442090" lon="10.3254480">
	<ele>1168.00</ele>
	<time>2025-07-30T06:36:58.000Z</time>
</trkpt>
<trkpt lat="46.0442080" lon="10.3254440">
	<ele>1168.20</ele>
	<time>2025-07-30T06:36:59.000Z</time>
</trkpt>
<trkpt lat="46.0442090" lon="10.3254260">
	<ele>1168.40</ele>
	<time>2025-07-30T06:37:00.000Z</time>
</trkpt>
<trkpt lat="46.0442060" lon="10.3254110">
	<ele>1168.60</ele>
	<time>2025-07-30T06:37:01.000Z</time>
</trkpt>
<trkpt lat="46.0442060" lon="10.3254010">
	<ele>1168.80</ele>
	<time>2025-07-30T06:37:02.000Z</time>
</trkpt>
<trkpt lat="46.0442030" lon="10.3253920">
	<ele>1169.20</ele>
	<time>2025-07-30T06:37:03.000Z</time>
</trkpt>
<trkpt lat="46.0442030" lon="10.3253880">
	<ele>1169.40</ele>
	<time>2025-07-30T06:37:04.000Z</time>
</trkpt>
<trkpt lat="46.0442040" lon="10.3253820">
	<ele>1169.60</ele>
	<time>2025-07-30T06:37:05.000Z</time>
</trkpt>
<trkpt lat="46.0442020" lon="10.3253790">
	<ele>1169.80</ele>
	<time>2025-07-30T06:37:06.000Z</time>
</trkpt>
<trkpt lat="46.0442020" lon="10.3253620">
	<ele>1170.00</ele>
	<time>2025-07-30T06:37:07.000Z</time>
</trkpt>
<trkpt lat="46.0442040" lon="10.3253490">
	<ele>1170.20</ele>
	<time>2025-07-30T06:37:08.000Z</time>
</trkpt>
<trkpt lat="46.0442020" lon="10.3253360">
	<ele>1170.40</ele>
	<time>2025-07-30T06:37:09.000Z</time>
</trkpt>
<trkpt lat="46.0442020" lon="10.3253290">
	<ele>1170.80</ele>
	<time>2025-07-30T06:37:10.000Z</time>
</trkpt>
<trkpt lat="46.0442020" lon="10.3253250">
	<ele>1171.00</ele>
	<time>2025-07-30T06:37:11.000Z</time>
</trkpt>
<trkpt lat="46.0441980" lon="10.3253190">
	<ele>1171.20</ele>
	<time>2025-07-30T06:37:12.000Z</time>
</trkpt>
<trkpt lat="46.0442010" lon="10.3253120">
	<ele>1171.40</ele>
	<time>2025-07-30T06:37:13.000Z</time>
</trkpt>
<trkpt lat="46.0442060" lon="10.3253090">
	<ele>1171.40</ele>
	<time>2025-07-30T06:37:14.000Z</time>
</trkpt>
<trkpt lat="46.0442040" lon="10.3252950">
	<ele>1171.60</ele>
	<time>2025-07-30T06:37:15.000Z</time>
</trkpt>
<trkpt lat="46.0442050" lon="10.3252890">
	<ele>1171.80</ele>
	<time>2025-07-30T06:37:16.000Z</time>
</trkpt>
<trkpt lat="46.0442030" lon="10.3252730">
	<ele>1172.00</ele>
	<time>2025-07-30T06:37:17.000Z</time>
</trkpt>
<trkpt lat="46.0442030" lon="10.3252560">
	<ele>1172.20</ele>
	<time>2025-07-30T06:37:18.000Z</time>
</trkpt>
<trkpt lat="46.0442040" lon="10.3252380">
	<ele>1172.60</ele>
	<time>2025-07-30T06:37:19.000Z</time>
</trkpt>
<trkpt lat="46.0441970" lon="10.3252250">
	<ele>1173.00</ele>
	<time>2025-07-30T06:37:20.000Z</time>
</trkpt>
<trkpt lat="46.0441930" lon="10.3252230">
	<ele>1173.20</ele>
	<time>2025-07-30T06:37:21.000Z</time>
</trkpt>
<trkpt lat="46.0441900" lon="10.3252220">
	<ele>1173.40</ele>
	<time>2025-07-30T06:37:22.000Z</time>
</trkpt>
<trkpt lat="46.0441880" lon="10.3252200">
	<ele>1173.60</ele>
	<time>2025-07-30T06:37:23.000Z</time>
</trkpt>
<trkpt lat="46.0441850" lon="10.3252160">
	<ele>1173.80</ele>
	<time>2025-07-30T06:37:24.000Z</time>
</trkpt>
<trkpt lat="46.0441780" lon="10.3252040">
	<ele>1174.20</ele>
	<time>2025-07-30T06:37:25.000Z</time>
</trkpt>
<trkpt lat="46.0441770" lon="10.3251970">
	<ele>1174.40</ele>
	<time>2025-07-30T06:37:26.000Z</time>
</trkpt>
<trkpt lat="46.0441760" lon="10.3251880">
	<ele>1174.60</ele>
	<time>2025-07-30T06:37:27.000Z</time>
</trkpt>
<trkpt lat="46.0441740" lon="10.3251770">
	<ele>1174.80</ele>
	<time>2025-07-30T06:37:28.000Z</time>
</trkpt>
<trkpt lat="46.0441760" lon="10.3251700">
	<ele>1175.20</ele>
	<time>2025-07-30T06:37:29.000Z</time>
</trkpt>
<trkpt lat="46.0441690" lon="10.3251570">
	<ele>1175.40</ele>
	<time>2025-07-30T06:37:30.000Z</time>
</trkpt>
<trkpt lat="46.0441670" lon="10.3251410">
	<ele>1175.40</ele>
	<time>2025-07-30T06:37:31.000Z</time>
</trkpt>
<trkpt lat="46.0441720" lon="10.3251180">
	<ele>1175.40</ele>
	<time>2025-07-30T06:37:32.000Z</time>
</trkpt>
<trkpt lat="46.0441770" lon="10.3251000">
	<ele>1175.60</ele>
	<time>2025-07-30T06:37:33.000Z</time>
</trkpt>
<trkpt lat="46.0441870" lon="10.3250810">
	<ele>1175.80</ele>
	<time>2025-07-30T06:37:34.000Z</time>
</trkpt>
<trkpt lat="46.0441930" lon="10.3250710">
	<ele>1176.00</ele>
	<time>2025-07-30T06:37:35.000Z</time>
</trkpt>
<trkpt lat="46.0441960" lon="10.3250630">
	<ele>1176.00</ele>
	<time>2025-07-30T06:37:36.000Z</time>
</trkpt>
<trkpt lat="46.0442050" lon="10.3250460">
	<ele>1176.40</ele>
	<time>2025-07-30T06:37:37.000Z</time>
</trkpt>
<trkpt lat="46.0442080" lon="10.3250310">
	<ele>1176.60</ele>
	<time>2025-07-30T06:37:38.000Z</time>
</trkpt>
<trkpt lat="46.0442090" lon="10.3250270">
	<ele>1176.80</ele>
	<time>2025-07-30T06:37:39.000Z</time>
</trkpt>
<trkpt lat="46.0442140" lon="10.3250200">
	<ele>1177.00</ele>
	<time>2025-07-30T06:37:40.000Z</time>
</trkpt>
<trkpt lat="46.0442150" lon="10.3250100">
	<ele>1177.20</ele>
	<time>2025-07-30T06:37:41.000Z</time>
</trkpt>
<trkpt lat="46.0442130" lon="10.3250020">
	<ele>1177.40</ele>
	<time>2025-07-30T06:37:42.000Z</time>
</trkpt>
<trkpt lat="46.0442060" lon="10.3249950">
	<ele>1177.60</ele>
	<time>2025-07-30T06:37:43.000Z</time>
</trkpt>
<trkpt lat="46.0441990" lon="10.3249890">
	<ele>1177.60</ele>
	<time>2025-07-30T06:37:44.000Z</time>
</trkpt>
<trkpt lat="46.0441940" lon="10.3249890">
	<ele>1177.80</ele>
	<time>2025-07-30T06:37:45.000Z</time>
</trkpt>
<trkpt lat="46.0441940" lon="10.3249840">
	<ele>1178.00</ele>
	<time>2025-07-30T06:37:46.000Z</time>
</trkpt>
<trkpt lat="46.0441990" lon="10.3249770">
	<ele>1178.20</ele>
	<time>2025-07-30T06:37:47.000Z</time>
</trkpt>
<trkpt lat="46.0441990" lon="10.3249840">
	<ele>1178.40</ele>
	<time>2025-07-30T06:37:48.000Z</time>
</trkpt>
<trkpt lat="46.0442020" lon="10.3249860">
	<ele>1178.60</ele>
	<time>2025-07-30T06:37:49.000Z</time>
</trkpt>
<trkpt lat="46.0442050" lon="10.3249870">
	<ele>1178.80</ele>
	<time>2025-07-30T06:37:50.000Z</time>
</trkpt>
<trkpt lat="46.0442080" lon="10.3249850">
	<ele>1179.00</ele>
	<time>2025-07-30T06:37:51.000Z</time>
</trkpt>
<trkpt lat="46.0442110" lon="10.3249820">
	<ele>1179.20</ele>
	<time>2025-07-30T06:37:52.000Z</time>
</trkpt>
<trkpt lat="46.0442100" lon="10.3249760">
	<ele>1179.40</ele>
	<time>2025-07-30T06:37:53.000Z</time>
</trkpt>
<trkpt lat="46.0442110" lon="10.3249840">
	<ele>1179.60</ele>
	<time>2025-07-30T06:37:54.000Z</time>
</trkpt>
<trkpt lat="46.0442150" lon="10.3249880">
	<ele>1179.80</ele>
	<time>2025-07-30T06:37:55.000Z</time>
</trkpt>
<trkpt lat="46.0442140" lon="10.3249950">
	<ele>1180.00</ele>
	<time>2025-07-30T06:37:56.000Z</time>
</trkpt>
<trkpt lat="46.0442160" lon="10.3249990">
	<ele>1180.20</ele>
	<time>2025-07-30T06:37:57.000Z</time>
</trkpt>
<trkpt lat="46.0442180" lon="10.3250010">
	<ele>1180.60</ele>
	<time>2025-07-30T06:37:58.000Z</time>
</trkpt>
<trkpt lat="46.0442200" lon="10.3250030">
	<ele>1180.80</ele>
	<time>2025-07-30T06:37:59.000Z</time>
</trkpt>
<trkpt lat="46.0442270" lon="10.3250040">
	<ele>1180.80</ele>
	<time>2025-07-30T06:38:00.000Z</time>
</trkpt>
<trkpt lat="46.0442370" lon="10.3250010">
	<ele>1181.00</ele>
	<time>2025-07-30T06:38:01.000Z</time>
</trkpt>
<trkpt lat="46.0442470" lon="10.3250010">
	<ele>1181.20</ele>
	<time>2025-07-30T06:38:02.000Z</time>
</trkpt>
<trkpt lat="46.0442540" lon="10.3250080">
	<ele>1181.20</ele>
	<time>2025-07-30T06:38:03.000Z</time>
</trkpt>
<trkpt lat="46.0442610" lon="10.3250170">
	<ele>1181.40</ele>
	<time>2025-07-30T06:38:04.000Z</time>
</trkpt>
<trkpt lat="46.0442630" lon="10.3250310">
	<ele>1181.40</ele>
	<time>2025-07-30T06:38:05.000Z</time>
</trkpt>
<trkpt lat="46.0442590" lon="10.3250430">
	<ele>1181.60</ele>
	<time>2025-07-30T06:38:06.000Z</time>
</trkpt>
<trkpt lat="46.0442630" lon="10.3250550">
	<ele>1181.80</ele>
	<time>2025-07-30T06:38:07.000Z</time>
</trkpt>
<trkpt lat="46.0442700" lon="10.3250640">
	<ele>1182.00</ele>
	<time>2025-07-30T06:38:08.000Z</time>
</trkpt>
<trkpt lat="46.0442810" lon="10.3250640">
	<ele>1182.20</ele>
	<time>2025-07-30T06:38:09.000Z</time>
</trkpt>
<trkpt lat="46.0442900" lon="10.3250660">
	<ele>1182.40</ele>
	<time>2025-07-30T06:38:10.000Z</time>
</trkpt>
<trkpt lat="46.0442980" lon="10.3250690">
	<ele>1182.60</ele>
	<time>2025-07-30T06:38:11.000Z</time>
</trkpt>
<trkpt lat="46.0443020" lon="10.3250720">
	<ele>1182.80</ele>
	<time>2025-07-30T06:38:12.000Z</time>
</trkpt>
<trkpt lat="46.0443060" lon="10.3250770">
	<ele>1183.00</ele>
	<time>2025-07-30T06:38:13.000Z</time>
</trkpt>
<trkpt lat="46.0443110" lon="10.3250780">
	<ele>1183.00</ele>
	<time>2025-07-30T06:38:14.000Z</time>
</trkpt>
<trkpt lat="46.0443160" lon="10.3250810">
	<ele>1183.20</ele>
	<time>2025-07-30T06:38:15.000Z</time>
</trkpt>
<trkpt lat="46.0443250" lon="10.3250840">
	<ele>1183.40</ele>
	<time>2025-07-30T06:38:16.000Z</time>
</trkpt>
<trkpt lat="46.0443330" lon="10.3250860">
	<ele>1183.60</ele>
	<time>2025-07-30T06:38:17.000Z</time>
</trkpt>
<trkpt lat="46.0443370" lon="10.3250840">
	<ele>1183.80</ele>
	<time>2025-07-30T06:38:18.000Z</time>
</trkpt>
<trkpt lat="46.0443410" lon="10.3250830">
	<ele>1184.40</ele>
	<time>2025-07-30T06:38:19.000Z</time>
</trkpt>
<trkpt lat="46.0443420" lon="10.3250790">
	<ele>1184.60</ele>
	<time>2025-07-30T06:38:20.000Z</time>
</trkpt>
<trkpt lat="46.0443420" lon="10.3250710">
	<ele>1184.80</ele>
	<time>2025-07-30T06:38:21.000Z</time>
</trkpt>
<trkpt lat="46.0443450" lon="10.3250590">
	<ele>1185.00</ele>
	<time>2025-07-30T06:38:22.000Z</time>
</trkpt>
<trkpt lat="46.0443450" lon="10.3250400">
	<ele>1185.20</ele>
	<time>2025-07-30T06:38:23.000Z</time>
</trkpt>
<trkpt lat="46.0443450" lon="10.3250250">
	<ele>1185.40</ele>
	<time>2025-07-30T06:38:24.000Z</time>
</trkpt>
<trkpt lat="46.0443510" lon="10.3250070">
	<ele>1185.40</ele>
	<time>2025-07-30T06:38:25.000Z</time>
</trkpt>
<trkpt lat="46.0443580" lon="10.3249940">
	<ele>1185.60</ele>
	<time>2025-07-30T06:38:26.000Z</time>
</trkpt>
<trkpt lat="46.0443600" lon="10.3249880">
	<ele>1185.60</ele>
	<time>2025-07-30T06:38:27.000Z</time>
</trkpt>
<trkpt lat="46.0443590" lon="10.3249820">
	<ele>1186.00</ele>
	<time>2025-07-30T06:38:28.000Z</time>
</trkpt>
<trkpt lat="46.0443620" lon="10.3249760">
	<ele>1186.40</ele>
	<time>2025-07-30T06:38:29.000Z</time>
</trkpt>
<trkpt lat="46.0443710" lon="10.3249630">
	<ele>1186.60</ele>
	<time>2025-07-30T06:38:30.000Z</time>
</trkpt>
<trkpt lat="46.0443780" lon="10.3249450">
	<ele>1186.60</ele>
	<time>2025-07-30T06:38:31.000Z</time>
</trkpt>
<trkpt lat="46.0443780" lon="10.3249390">
	<ele>1187.00</ele>
	<time>2025-07-30T06:38:32.000Z</time>
</trkpt>
<trkpt lat="46.0443840" lon="10.3249280">
	<ele>1187.20</ele>
	<time>2025-07-30T06:38:33.000Z</time>
</trkpt>
<trkpt lat="46.0443940" lon="10.3249180">
	<ele>1187.40</ele>
	<time>2025-07-30T06:38:34.000Z</time>
</trkpt>
<trkpt lat="46.0444040" lon="10.3249090">
	<ele>1187.60</ele>
	<time>2025-07-30T06:38:35.000Z</time>
</trkpt>
<trkpt lat="46.0444050" lon="10.3248970">
	<ele>1187.60</ele>
	<time>2025-07-30T06:38:36.000Z</time>
</trkpt>
<trkpt lat="46.0444070" lon="10.3248900">
	<ele>1187.80</ele>
	<time>2025-07-30T06:38:37.000Z</time>
</trkpt>
<trkpt lat="46.0444090" lon="10.3248870">
	<ele>1188.00</ele>
	<time>2025-07-30T06:38:38.000Z</time>
</trkpt>
<trkpt lat="46.0444140" lon="10.3248800">
	<ele>1188.20</ele>
	<time>2025-07-30T06:38:39.000Z</time>
</trkpt>
<trkpt lat="46.0444210" lon="10.3248710">
	<ele>1188.40</ele>
	<time>2025-07-30T06:38:40.000Z</time>
</trkpt>
<trkpt lat="46.0444260" lon="10.3248600">
	<ele>1188.40</ele>
	<time>2025-07-30T06:38:41.000Z</time>
</trkpt>
<trkpt lat="46.0444260" lon="10.3248530">
	<ele>1188.60</ele>
	<time>2025-07-30T06:38:42.000Z</time>
</trkpt>
<trkpt lat="46.0444280" lon="10.3248470">
	<ele>1188.80</ele>
	<time>2025-07-30T06:38:43.000Z</time>
</trkpt>
<trkpt lat="46.0444280" lon="10.3248420">
	<ele>1189.00</ele>
	<time>2025-07-30T06:38:44.000Z</time>
</trkpt>
<trkpt lat="46.0444290" lon="10.3248330">
	<ele>1189.20</ele>
	<time>2025-07-30T06:38:45.000Z</time>
</trkpt>
<trkpt lat="46.0444360" lon="10.3248150">
	<ele>1189.40</ele>
	<time>2025-07-30T06:38:46.000Z</time>
</trkpt>
<trkpt lat="46.0444370" lon="10.3248090">
	<ele>1189.60</ele>
	<time>2025-07-30T06:38:47.000Z</time>
</trkpt>
<trkpt lat="46.0444370" lon="10.3248060">
	<ele>1189.80</ele>
	<time>2025-07-30T06:38:48.000Z</time>
</trkpt>
<trkpt lat="46.0444410" lon="10.3248100">
	<ele>1190.00</ele>
	<time>2025-07-30T06:38:49.000Z</time>
</trkpt>
<trkpt lat="46.0444450" lon="10.3248060">
	<ele>1190.20</ele>
	<time>2025-07-30T06:38:50.000Z</time>
</trkpt>
<trkpt lat="46.0444490" lon="10.3247950">
	<ele>1190.40</ele>
	<time>2025-07-30T06:38:51.000Z</time>
</trkpt>
<trkpt lat="46.0444510" lon="10.3247750">
	<ele>1190.40</ele>
	<time>2025-07-30T06:38:52.000Z</time>
</trkpt>
<trkpt lat="46.0444510" lon="10.3247640">
	<ele>1190.60</ele>
	<time>2025-07-30T06:38:53.000Z</time>
</trkpt>
<trkpt lat="46.0444490" lon="10.3247590">
	<ele>1190.80</ele>
	<time>2025-07-30T06:38:54.000Z</time>
</trkpt>
<trkpt lat="46.0444420" lon="10.3247500">
	<ele>1191.00</ele>
	<time>2025-07-30T06:38:55.000Z</time>
</trkpt>
<trkpt lat="46.0444380" lon="10.3247500">
	<ele>1191.40</ele>
	<time>2025-07-30T06:38:56.000Z</time>
</trkpt>
<trkpt lat="46.0444350" lon="10.3247450">
	<ele>1191.40</ele>
	<time>2025-07-30T06:38:57.000Z</time>
</trkpt>
<trkpt lat="46.0444370" lon="10.3247330">
	<ele>1191.60</ele>
	<time>2025-07-30T06:38:58.000Z</time>
</trkpt>
<trkpt lat="46.0444400" lon="10.3247220">
	<ele>1191.60</ele>
	<time>2025-07-30T06:38:59.000Z</time>
</trkpt>
<trkpt lat="46.0444400" lon="10.3247160">
	<ele>1191.60</ele>
	<time>2025-07-30T06:39:00.000Z</time>
</trkpt>
<trkpt lat="46.0444340" lon="10.3247070">
	<ele>1191.80</ele>
	<time>2025-07-30T06:39:01.000Z</time>
</trkpt>
<trkpt lat="46.0444330" lon="10.3247020">
	<ele>1192.00</ele>
	<time>2025-07-30T06:39:02.000Z</time>
</trkpt>
<trkpt lat="46.0444300" lon="10.3246910">
	<ele>1192.20</ele>
	<time>2025-07-30T06:39:03.000Z</time>
</trkpt>
<trkpt lat="46.0444280" lon="10.3246800">
	<ele>1192.40</ele>
	<time>2025-07-30T06:39:04.000Z</time>
</trkpt>
<trkpt lat="46.0444300" lon="10.3246680">
	<ele>1192.60</ele>
	<time>2025-07-30T06:39:05.000Z</time>
</trkpt>
<trkpt lat="46.0444310" lon="10.3246600">
	<ele>1192.80</ele>
	<time>2025-07-30T06:39:06.000Z</time>
</trkpt>
<trkpt lat="46.0444260" lon="10.3246470">
	<ele>1193.20</ele>
	<time>2025-07-30T06:39:07.000Z</time>
</trkpt>
<trkpt lat="46.0444240" lon="10.3246390">
	<ele>1193.60</ele>
	<time>2025-07-30T06:39:08.000Z</time>
</trkpt>
<trkpt lat="46.0444240" lon="10.3246320">
	<ele>1193.60</ele>
	<time>2025-07-30T06:39:09.000Z</time>
</trkpt>
<trkpt lat="46.0444220" lon="10.3246260">
	<ele>1193.80</ele>
	<time>2025-07-30T06:39:10.000Z</time>
</trkpt>
<trkpt lat="46.0444190" lon="10.3246160">
	<ele>1193.80</ele>
	<time>2025-07-30T06:39:11.000Z</time>
</trkpt>
<trkpt lat="46.0444190" lon="10.3246030">
	<ele>1194.00</ele>
	<time>2025-07-30T06:39:12.000Z</time>
</trkpt>
<trkpt lat="46.0444200" lon="10.3245980">
	<ele>1194.20</ele>
	<time>2025-07-30T06:39:13.000Z</time>
</trkpt>
<trkpt lat="46.0444250" lon="10.3245880">
	<ele>1194.40</ele>
	<time>2025-07-30T06:39:14.000Z</time>
</trkpt>
<trkpt lat="46.0444280" lon="10.3245780">
	<ele>1194.60</ele>
	<time>2025-07-30T06:39:15.000Z</time>
</trkpt>
<trkpt lat="46.0444310" lon="10.3245690">
	<ele>1194.60</ele>
	<time>2025-07-30T06:39:16.000Z</time>
</trkpt>
<trkpt lat="46.0444370" lon="10.3245620">
	<ele>1194.80</ele>
	<time>2025-07-30T06:39:17.000Z</time>
</trkpt>
<trkpt lat="46.0444430" lon="10.3245490">
	<ele>1195.20</ele>
	<time>2025-07-30T06:39:18.000Z</time>
</trkpt>
<trkpt lat="46.0444440" lon="10.3245430">
	<ele>1195.40</ele>
	<time>2025-07-30T06:39:19.000Z</time>
</trkpt>
<trkpt lat="46.0444500" lon="10.3245390">
	<ele>1195.40</ele>
	<time>2025-07-30T06:39:20.000Z</time>
</trkpt>
<trkpt lat="46.0444550" lon="10.3245280">
	<ele>1195.60</ele>
	<time>2025-07-30T06:39:21.000Z</time>
</trkpt>
<trkpt lat="46.0444590" lon="10.3245200">
	<ele>1195.80</ele>
	<time>2025-07-30T06:39:22.000Z</time>
</trkpt>
<trkpt lat="46.0444630" lon="10.3245130">
	<ele>1195.80</ele>
	<time>2025-07-30T06:39:23.000Z</time>
</trkpt>
<trkpt lat="46.0444660" lon="10.3245140">
	<ele>1196.00</ele>
	<time>2025-07-30T06:39:24.000Z</time>
</trkpt>
<trkpt lat="46.0444700" lon="10.3245110">
	<ele>1196.40</ele>
	<time>2025-07-30T06:39:25.000Z</time>
</trkpt>
<trkpt lat="46.0444790" lon="10.3245100">
	<ele>1196.40</ele>
	<time>2025-07-30T06:39:26.000Z</time>
</trkpt>
<trkpt lat="46.0444870" lon="10.3245020">
	<ele>1196.80</ele>
	<time>2025-07-30T06:39:27.000Z</time>
</trkpt>
<trkpt lat="46.0444880" lon="10.3244970">
	<ele>1197.00</ele>
	<time>2025-07-30T06:39:28.000Z</time>
</trkpt>
<trkpt lat="46.0444820" lon="10.3244850">
	<ele>1197.20</ele>
	<time>2025-07-30T06:39:29.000Z</time>
</trkpt>
<trkpt lat="46.0444710" lon="10.3244700">
	<ele>1197.40</ele>
	<time>2025-07-30T06:39:30.000Z</time>
</trkpt>
<trkpt lat="46.0444700" lon="10.3244600">
	<ele>1197.60</ele>
	<time>2025-07-30T06:39:31.000Z</time>
</trkpt>
<trkpt lat="46.0444710" lon="10.3244490">
	<ele>1197.80</ele>
	<time>2025-07-30T06:39:32.000Z</time>
</trkpt>
<trkpt lat="46.0444740" lon="10.3244390">
	<ele>1197.80</ele>
	<time>2025-07-30T06:39:33.000Z</time>
</trkpt>
<trkpt lat="46.0444750" lon="10.3244290">
	<ele>1198.20</ele>
	<time>2025-07-30T06:39:34.000Z</time>
</trkpt>
<trkpt lat="46.0444760" lon="10.3244160">
	<ele>1198.40</ele>
	<time>2025-07-30T06:39:35.000Z</time>
</trkpt>
<trkpt lat="46.0444670" lon="10.3244000">
	<ele>1198.40</ele>
	<time>2025-07-30T06:39:36.000Z</time>
</trkpt>
<trkpt lat="46.0444660" lon="10.3243950">
	<ele>1198.60</ele>
	<time>2025-07-30T06:39:37.000Z</time>
</trkpt>
<trkpt lat="46.0444670" lon="10.3243940">
	<ele>1198.60</ele>
	<time>2025-07-30T06:39:38.000Z</time>
</trkpt>
<trkpt lat="46.0444660" lon="10.3243900">
	<ele>1199.00</ele>
	<time>2025-07-30T06:39:39.000Z</time>
</trkpt>
<trkpt lat="46.0444670" lon="10.3243800">
	<ele>1199.20</ele>
	<time>2025-07-30T06:39:40.000Z</time>
</trkpt>
<trkpt lat="46.0444650" lon="10.3243710">
	<ele>1199.20</ele>
	<time>2025-07-30T06:39:41.000Z</time>
</trkpt>
<trkpt lat="46.0444600" lon="10.3243620">
	<ele>1199.40</ele>
	<time>2025-07-30T06:39:42.000Z</time>
</trkpt>
<trkpt lat="46.0444570" lon="10.3243530">
	<ele>1199.60</ele>
	<time>2025-07-30T06:39:43.000Z</time>
</trkpt>
<trkpt lat="46.0444560" lon="10.3243450">
	<ele>1199.80</ele>
	<time>2025-07-30T06:39:44.000Z</time>
</trkpt>
<trkpt lat="46.0444570" lon="10.3243330">
	<ele>1200.00</ele>
	<time>2025-07-30T06:39:45.000Z</time>
</trkpt>
<trkpt lat="46.0444590" lon="10.3243200">
	<ele>1200.00</ele>
	<time>2025-07-30T06:39:46.000Z</time>
</trkpt>
<trkpt lat="46.0444610" lon="10.3243050">
	<ele>1200.40</ele>
	<time>2025-07-30T06:39:47.000Z</time>
</trkpt>
<trkpt lat="46.0444610" lon="10.3242930">
	<ele>1200.40</ele>
	<time>2025-07-30T06:39:48.000Z</time>
</trkpt>
<trkpt lat="46.0444620" lon="10.3242820">
	<ele>1200.60</ele>
	<time>2025-07-30T06:39:49.000Z</time>
</trkpt>
<trkpt lat="46.0444630" lon="10.3242650">
	<ele>1200.80</ele>
	<time>2025-07-30T06:39:50.000Z</time>
</trkpt>
<trkpt lat="46.0444570" lon="10.3242500">
	<ele>1200.80</ele>
	<time>2025-07-30T06:39:51.000Z</time>
</trkpt>
<trkpt lat="46.0444580" lon="10.3242430">
	<ele>1200.80</ele>
	<time>2025-07-30T06:39:52.000Z</time>
</trkpt>
<trkpt lat="46.0444590" lon="10.3242380">
	<ele>1201.00</ele>
	<time>2025-07-30T06:39:53.000Z</time>
</trkpt>
<trkpt lat="46.0444580" lon="10.3242220">
	<ele>1201.20</ele>
	<time>2025-07-30T06:39:54.000Z</time>
</trkpt>
<trkpt lat="46.0444570" lon="10.3242080">
	<ele>1201.20</ele>
	<time>2025-07-30T06:39:55.000Z</time>
</trkpt>
<trkpt lat="46.0444590" lon="10.3241970">
	<ele>1201.40</ele>
	<time>2025-07-30T06:39:56.000Z</time>
</trkpt>
<trkpt lat="46.0444590" lon="10.3241870">
	<ele>1201.40</ele>
	<time>2025-07-30T06:39:57.000Z</time>
</trkpt>
<trkpt lat="46.0444590" lon="10.3241760">
	<ele>1201.60</ele>
	<time>2025-07-30T06:39:58.000Z</time>
</trkpt>
<trkpt lat="46.0444620" lon="10.3241680">
	<ele>1201.80</ele>
	<time>2025-07-30T06:39:59.000Z</time>
</trkpt>
<trkpt lat="46.0444610" lon="10.3241590">
	<ele>1202.00</ele>
	<time>2025-07-30T06:40:00.000Z</time>
</trkpt>
<trkpt lat="46.0444600" lon="10.3241500">
	<ele>1202.00</ele>
	<time>2025-07-30T06:40:01.000Z</time>
</trkpt>
<trkpt lat="46.0444580" lon="10.3241440">
	<ele>1202.00</ele>
	<time>2025-07-30T06:40:02.000Z</time>
</trkpt>
<trkpt lat="46.0444570" lon="10.3241320">
	<ele>1202.20</ele>
	<time>2025-07-30T06:40:03.000Z</time>
</trkpt>
<trkpt lat="46.0444560" lon="10.3241130">
	<ele>1202.20</ele>
	<time>2025-07-30T06:40:04.000Z</time>
</trkpt>
<trkpt lat="46.0444540" lon="10.3240960">
	<ele>1202.40</ele>
	<time>2025-07-30T06:40:05.000Z</time>
</trkpt>
<trkpt lat="46.0444560" lon="10.3240900">
	<ele>1202.40</ele>
	<time>2025-07-30T06:40:06.000Z</time>
</trkpt>
<trkpt lat="46.0444530" lon="10.3240720">
	<ele>1202.40</ele>
	<time>2025-07-30T06:40:07.000Z</time>
</trkpt>
<trkpt lat="46.0444470" lon="10.3240670">
	<ele>1202.60</ele>
	<time>2025-07-30T06:40:08.000Z</time>
</trkpt>
<trkpt lat="46.0444520" lon="10.3240610">
	<ele>1202.60</ele>
	<time>2025-07-30T06:40:09.000Z</time>
</trkpt>
<trkpt lat="46.0444490" lon="10.3240550">
	<ele>1202.80</ele>
	<time>2025-07-30T06:40:10.000Z</time>
</trkpt>
<trkpt lat="46.0444510" lon="10.3240440">
	<ele>1202.80</ele>
	<time>2025-07-30T06:40:11.000Z</time>
</trkpt>
<trkpt lat="46.0444540" lon="10.3240350">
	<ele>1202.80</ele>
	<time>2025-07-30T06:40:12.000Z</time>
</trkpt>
<trkpt lat="46.0444580" lon="10.3240230">
	<ele>1202.80</ele>
	<time>2025-07-30T06:40:13.000Z</time>
</trkpt>
<trkpt lat="46.0444660" lon="10.3240170">
	<ele>1203.00</ele>
	<time>2025-07-30T06:40:14.000Z</time>
</trkpt>
<trkpt lat="46.0444680" lon="10.3240060">
	<ele>1203.00</ele>
	<time>2025-07-30T06:40:15.000Z</time>
</trkpt>
<trkpt lat="46.0444670" lon="10.3239930">
	<ele>1203.00</ele>
	<time>2025-07-30T06:40:16.000Z</time>
</trkpt>
<trkpt lat="46.0444700" lon="10.3239760">
	<ele>1203.20</ele>
	<time>2025-07-30T06:40:17.000Z</time>
</trkpt>
<trkpt lat="46.0444750" lon="10.3239630">
	<ele>1203.40</ele>
	<time>2025-07-30T06:40:18.000Z</time>
</trkpt>
<trkpt lat="46.0444760" lon="10.3239470">
	<ele>1203.40</ele>
	<time>2025-07-30T06:40:19.000Z</time>
</trkpt>
<trkpt lat="46.0444790" lon="10.3239440">
	<ele>1203.60</ele>
	<time>2025-07-30T06:40:20.000Z</time>
</trkpt>
<trkpt lat="46.0444780" lon="10.3239420">
	<ele>1203.60</ele>
	<time>2025-07-30T06:40:21.000Z</time>
</trkpt>
<trkpt lat="46.0444750" lon="10.3239350">
	<ele>1203.80</ele>
	<time>2025-07-30T06:40:22.000Z</time>
</trkpt>
<trkpt lat="46.0444630" lon="10.3239270">
	<ele>1204.00</ele>
	<time>2025-07-30T06:40:23.000Z</time>
</trkpt>
<trkpt lat="46.0444610" lon="10.3239270">
	<ele>1204.00</ele>
	<time>2025-07-30T06:40:24.000Z</time>
</trkpt>
<trkpt lat="46.0444610" lon="10.3239200">
	<ele>1204.00</ele>
	<time>2025-07-30T06:40:25.000Z</time>
</trkpt>
<trkpt lat="46.0444690" lon="10.3239070">
	<ele>1204.20</ele>
	<time>2025-07-30T06:40:26.000Z</time>
</trkpt>
<trkpt lat="46.0444720" lon="10.3238900">
	<ele>1204.20</ele>
	<time>2025-07-30T06:40:27.000Z</time>
</trkpt>
<trkpt lat="46.0444770" lon="10.3238800">
	<ele>1204.20</ele>
	<time>2025-07-30T06:40:28.000Z</time>
</trkpt>
<trkpt lat="46.0444800" lon="10.3238730">
	<ele>1204.20</ele>
	<time>2025-07-30T06:40:29.000Z</time>
</trkpt>
<trkpt lat="46.0444800" lon="10.3238610">
	<ele>1204.40</ele>
	<time>2025-07-30T06:40:30.000Z</time>
</trkpt>
<trkpt lat="46.0444840" lon="10.3238520">
	<ele>1204.60</ele>
	<time>2025-07-30T06:40:31.000Z</time>
</trkpt>
<trkpt lat="46.0444910" lon="10.3238400">
	<ele>1204.60</ele>
	<time>2025-07-30T06:40:32.000Z</time>
</trkpt>
<trkpt lat="46.0444930" lon="10.3238280">
	<ele>1204.80</ele>
	<time>2025-07-30T06:40:33.000Z</time>
</trkpt>
<trkpt lat="46.0444880" lon="10.3238150">
	<ele>1204.80</ele>
	<time>2025-07-30T06:40:34.000Z</time>
</trkpt>
<trkpt lat="46.0444820" lon="10.3238010">
	<ele>1205.00</ele>
	<time>2025-07-30T06:40:35.000Z</time>
</trkpt>
<trkpt lat="46.0444740" lon="10.3237900">
	<ele>1205.20</ele>
	<time>2025-07-30T06:40:36.000Z</time>
</trkpt>
<trkpt lat="46.0444710" lon="10.3237780">
	<ele>1205.20</ele>
	<time>2025-07-30T06:40:37.000Z</time>
</trkpt>
<trkpt lat="46.0444710" lon="10.3237670">
	<ele>1205.40</ele>
	<time>2025-07-30T06:40:38.000Z</time>
</trkpt>
<trkpt lat="46.0444750" lon="10.3237570">
	<ele>1205.60</ele>
	<time>2025-07-30T06:40:39.000Z</time>
</trkpt>
<trkpt lat="46.0444810" lon="10.3237490">
	<ele>1205.80</ele>
	<time>2025-07-30T06:40:40.000Z</time>
</trkpt>
<trkpt lat="46.0444730" lon="10.3237420">
	<ele>1206.00</ele>
	<time>2025-07-30T06:40:41.000Z</time>
</trkpt>
<trkpt lat="46.0444670" lon="10.3237340">
	<ele>1206.20</ele>
	<time>2025-07-30T06:40:42.000Z</time>
</trkpt>
<trkpt lat="46.0444630" lon="10.3237280">
	<ele>1206.40</ele>
	<time>2025-07-30T06:40:43.000Z</time>
</trkpt>
<trkpt lat="46.0444620" lon="10.3237270">
	<ele>1206.60</ele>
	<time>2025-07-30T06:40:44.000Z</time>
</trkpt>
<trkpt lat="46.0444610" lon="10.3237260">
	<ele>1206.80</ele>
	<time>2025-07-30T06:40:45.000Z</time>
</trkpt>
<trkpt lat="46.0444690" lon="10.3237230">
	<ele>1207.00</ele>
	<time>2025-07-30T06:40:46.000Z</time>
</trkpt>
<trkpt lat="46.0444820" lon="10.3237230">
	<ele>1207.00</ele>
	<time>2025-07-30T06:40:47.000Z</time>
</trkpt>
<trkpt lat="46.0444930" lon="10.3237250">
	<ele>1207.20</ele>
	<time>2025-07-30T06:40:48.000Z</time>
</trkpt>
<trkpt lat="46.0445020" lon="10.3237190">
	<ele>1207.40</ele>
	<time>2025-07-30T06:40:49.000Z</time>
</trkpt>
<trkpt lat="46.0445030" lon="10.3237100">
	<ele>1207.40</ele>
	<time>2025-07-30T06:40:50.000Z</time>
</trkpt>
<trkpt lat="46.0445030" lon="10.3237000">
	<ele>1207.60</ele>
	<time>2025-07-30T06:40:51.000Z</time>
</trkpt>
<trkpt lat="46.0445130" lon="10.3236920">
	<ele>1207.80</ele>
	<time>2025-07-30T06:40:52.000Z</time>
</trkpt>
<trkpt lat="46.0445170" lon="10.3236700">
	<ele>1208.00</ele>
	<time>2025-07-30T06:40:53.000Z</time>
</trkpt>
<trkpt lat="46.0445200" lon="10.3236580">
	<ele>1208.20</ele>
	<time>2025-07-30T06:40:54.000Z</time>
</trkpt>
<trkpt lat="46.0445290" lon="10.3236540">
	<ele>1208.20</ele>
	<time>2025-07-30T06:40:55.000Z</time>
</trkpt>
<trkpt lat="46.0445390" lon="10.3236510">
	<ele>1208.20</ele>
	<time>2025-07-30T06:40:56.000Z</time>
</trkpt>
<trkpt lat="46.0445440" lon="10.3236370">
	<ele>1208.40</ele>
	<time>2025-07-30T06:40:57.000Z</time>
</trkpt>
<trkpt lat="46.0445480" lon="10.3236330">
	<ele>1208.60</ele>
	<time>2025-07-30T06:40:58.000Z</time>
</trkpt>
<trkpt lat="46.0445550" lon="10.3236370">
	<ele>1208.60</ele>
	<time>2025-07-30T06:40:59.000Z</time>
</trkpt>
<trkpt lat="46.0445590" lon="10.3236420">
	<ele>1208.80</ele>
	<time>2025-07-30T06:41:00.000Z</time>
</trkpt>
<trkpt lat="46.0445610" lon="10.3236510">
	<ele>1208.80</ele>
	<time>2025-07-30T06:41:01.000Z</time>
</trkpt>
<trkpt lat="46.0445680" lon="10.3236650">
	<ele>1209.00</ele>
	<time>2025-07-30T06:41:02.000Z</time>
</trkpt>
<trkpt lat="46.0445740" lon="10.3236780">
	<ele>1209.20</ele>
	<time>2025-07-30T06:41:03.000Z</time>
</trkpt>
<trkpt lat="46.0445790" lon="10.3236820">
	<ele>1209.20</ele>
	<time>2025-07-30T06:41:04.000Z</time>
</trkpt>
<trkpt lat="46.0445700" lon="10.3236830">
	<ele>1209.20</ele>
	<time>2025-07-30T06:41:05.000Z</time>
</trkpt>
<trkpt lat="46.0445680" lon="10.3236830">
	<ele>1209.20</ele>
	<time>2025-07-30T06:41:06.000Z</time>
</trkpt>
<trkpt lat="46.0445680" lon="10.3236840">
	<ele>1209.20</ele>
	<time>2025-07-30T06:41:07.000Z</time>
</trkpt>
<trkpt lat="46.0445660" lon="10.3236840">
	<ele>1209.40</ele>
	<time>2025-07-30T06:41:08.000Z</time>
</trkpt>
<trkpt lat="46.0445640" lon="10.3236840">
	<ele>1209.40</ele>
	<time>2025-07-30T06:41:09.000Z</time>
</trkpt>
<trkpt lat="46.0445640" lon="10.3236810">
	<ele>1209.40</ele>
	<time>2025-07-30T06:41:10.000Z</time>
</trkpt>
<trkpt lat="46.0445630" lon="10.3236780">
	<ele>1209.40</ele>
	<time>2025-07-30T06:41:11.000Z</time>
</trkpt>
<trkpt lat="46.0445640" lon="10.3236740">
	<ele>1209.40</ele>
	<time>2025-07-30T06:41:12.000Z</time>
</trkpt>
<trkpt lat="46.0445650" lon="10.3236740">
	<ele>1209.40</ele>
	<time>2025-07-30T06:41:13.000Z</time>
</trkpt>
<trkpt lat="46.0445660" lon="10.3236730">
	<ele>1209.20</ele>
	<time>2025-07-30T06:41:14.000Z</time>
</trkpt>
<trkpt lat="46.0445660" lon="10.3236730">
	<ele>1209.20</ele>
	<time>2025-07-30T06:41:15.000Z</time>
</trkpt>
<trkpt lat="46.0445660" lon="10.3236730">
	<ele>1209.20</ele>
	<time>2025-07-30T06:41:16.000Z</time>
</trkpt>
<trkpt lat="46.0445660" lon="10.3236730">
	<ele>1209.00</ele>
	<time>2025-07-30T06:41:17.000Z</time>
</trkpt>
<trkpt lat="46.0445660" lon="10.3236730">
	<ele>1209.00</ele>
	<time>2025-07-30T06:41:18.000Z</time>
</trkpt>
<trkpt lat="46.0445660" lon="10.3236730">
	<ele>1208.80</ele>
	<time>2025-07-30T06:41:19.000Z</time>
</trkpt>
<trkpt lat="46.0445640" lon="10.3236710">
	<ele>1208.80</ele>
	<time>2025-07-30T06:41:20.000Z</time>
</trkpt>
<trkpt lat="46.0445610" lon="10.3236600">
	<ele>1208.80</ele>
	<time>2025-07-30T06:41:21.000Z</time>
</trkpt>
<trkpt lat="46.0445560" lon="10.3236400">
	<ele>1208.80</ele>
	<time>2025-07-30T06:41:22.000Z</time>
</trkpt>
<trkpt lat="46.0445560" lon="10.3236230">
	<ele>1208.60</ele>
	<time>2025-07-30T06:41:23.000Z</time>
</trkpt>
<trkpt lat="46.0445580" lon="10.3236080">
	<ele>1208.60</ele>
	<time>2025-07-30T06:41:24.000Z</time>
</trkpt>
<trkpt lat="46.0445650" lon="10.3236040">
	<ele>1208.60</ele>
	<time>2025-07-30T06:41:25.000Z</time>
</trkpt>
<trkpt lat="46.0445710" lon="10.3235980">
	<ele>1208.60</ele>
	<time>2025-07-30T06:41:26.000Z</time>
</trkpt>
<trkpt lat="46.0445760" lon="10.3235910">
	<ele>1208.60</ele>
	<time>2025-07-30T06:41:27.000Z</time>
</trkpt>
<trkpt lat="46.0445820" lon="10.3235870">
	<ele>1208.80</ele>
	<time>2025-07-30T06:41:28.000Z</time>
</trkpt>
<trkpt lat="46.0445870" lon="10.3235850">
	<ele>1208.80</ele>
	<time>2025-07-30T06:41:29.000Z</time>
</trkpt>
<trkpt lat="46.0445910" lon="10.3235790">
	<ele>1209.00</ele>
	<time>2025-07-30T06:41:30.000Z</time>
</trkpt>
<trkpt lat="46.0445940" lon="10.3235780">
	<ele>1209.00</ele>
	<time>2025-07-30T06:41:31.000Z</time>
</trkpt>
<trkpt lat="46.0445980" lon="10.3235770">
	<ele>1209.00</ele>
	<time>2025-07-30T06:41:32.000Z</time>
</trkpt>
<trkpt lat="46.0446030" lon="10.3235830">
	<ele>1209.00</ele>
	<time>2025-07-30T06:41:33.000Z</time>
</trkpt>
<trkpt lat="46.0446130" lon="10.3235910">
	<ele>1209.20</ele>
	<time>2025-07-30T06:41:34.000Z</time>
</trkpt>
<trkpt lat="46.0446210" lon="10.3235940">
	<ele>1209.20</ele>
	<time>2025-07-30T06:41:35.000Z</time>
</trkpt>
<trkpt lat="46.0446340" lon="10.3235980">
	<ele>1209.20</ele>
	<time>2025-07-30T06:41:36.000Z</time>
</trkpt>
<trkpt lat="46.0446470" lon="10.3236040">
	<ele>1209.40</ele>
	<time>2025-07-30T06:41:37.000Z</time>
</trkpt>
<trkpt lat="46.0446610" lon="10.3236050">
	<ele>1209.40</ele>
	<time>2025-07-30T06:41:38.000Z</time>
</trkpt>
<trkpt lat="46.0446720" lon="10.3235990">
	<ele>1209.60</ele>
	<time>2025-07-30T06:41:39.000Z</time>
</trkpt>
<trkpt lat="46.0446760" lon="10.3235960">
	<ele>1209.60</ele>
	<time>2025-07-30T06:41:40.000Z</time>
</trkpt>
<trkpt lat="46.0446690" lon="10.3235910">
	<ele>1209.60</ele>
	<time>2025-07-30T06:41:41.000Z</time>
</trkpt>
<trkpt lat="46.0446750" lon="10.3235880">
	<ele>1209.80</ele>
	<time>2025-07-30T06:41:42.000Z</time>
</trkpt>
<trkpt lat="46.0446860" lon="10.3235910">
	<ele>1210.00</ele>
	<time>2025-07-30T06:41:43.000Z</time>
</trkpt>
<trkpt lat="46.0446910" lon="10.3235940">
	<ele>1210.00</ele>
	<time>2025-07-30T06:41:44.000Z</time>
</trkpt>
<trkpt lat="46.0446960" lon="10.3235940">
	<ele>1210.20</ele>
	<time>2025-07-30T06:41:45.000Z</time>
</trkpt>
<trkpt lat="46.0446990" lon="10.3235950">
	<ele>1210.20</ele>
	<time>2025-07-30T06:41:46.000Z</time>
</trkpt>
<trkpt lat="46.0447100" lon="10.3236000">
	<ele>1210.40</ele>
	<time>2025-07-30T06:41:47.000Z</time>
</trkpt>
<trkpt lat="46.0447180" lon="10.3236100">
	<ele>1210.60</ele>
	<time>2025-07-30T06:41:48.000Z</time>
</trkpt>
<trkpt lat="46.0447190" lon="10.3236160">
	<ele>1210.60</ele>
	<time>2025-07-30T06:41:49.000Z</time>
</trkpt>
<trkpt lat="46.0447210" lon="10.3236140">
	<ele>1210.80</ele>
	<time>2025-07-30T06:41:50.000Z</time>
</trkpt>
<trkpt lat="46.0447190" lon="10.3236170">
	<ele>1211.00</ele>
	<time>2025-07-30T06:41:51.000Z</time>
</trkpt>
<trkpt lat="46.0447220" lon="10.3236210">
	<ele>1211.20</ele>
	<time>2025-07-30T06:41:52.000Z</time>
</trkpt>
<trkpt lat="46.0447240" lon="10.3236220">
	<ele>1211.40</ele>
	<time>2025-07-30T06:41:53.000Z</time>
</trkpt>
<trkpt lat="46.0447230" lon="10.3236220">
	<ele>1211.40</ele>
	<time>2025-07-30T06:41:54.000Z</time>
</trkpt>
<trkpt lat="46.0447200" lon="10.3236230">
	<ele>1211.60</ele>
	<time>2025-07-30T06:41:55.000Z</time>
</trkpt>
<trkpt lat="46.0447210" lon="10.3236220">
	<ele>1211.80</ele>
	<time>2025-07-30T06:41:56.000Z</time>
</trkpt>
<trkpt lat="46.0447150" lon="10.3236200">
	<ele>1212.00</ele>
	<time>2025-07-30T06:41:57.000Z</time>
</trkpt>
<trkpt lat="46.0447170" lon="10.3236180">
	<ele>1212.20</ele>
	<time>2025-07-30T06:41:58.000Z</time>
</trkpt>
<trkpt lat="46.0447220" lon="10.3236100">
	<ele>1212.20</ele>
	<time>2025-07-30T06:41:59.000Z</time>
</trkpt>
<trkpt lat="46.0447260" lon="10.3236000">
	<ele>1212.40</ele>
	<time>2025-07-30T06:42:00.000Z</time>
</trkpt>
<trkpt lat="46.0447300" lon="10.3235910">
	<ele>1212.60</ele>
	<time>2025-07-30T06:42:01.000Z</time>
</trkpt>
<trkpt lat="46.0447370" lon="10.3235890">
	<ele>1212.60</ele>
	<time>2025-07-30T06:42:02.000Z</time>
</trkpt>
<trkpt lat="46.0447430" lon="10.3235830">
	<ele>1212.80</ele>
	<time>2025-07-30T06:42:03.000Z</time>
</trkpt>
<trkpt lat="46.0447440" lon="10.3235810">
	<ele>1212.80</ele>
	<time>2025-07-30T06:42:04.000Z</time>
</trkpt>
<trkpt lat="46.0447460" lon="10.3235690">
	<ele>1213.00</ele>
	<time>2025-07-30T06:42:05.000Z</time>
</trkpt>
<trkpt lat="46.0447500" lon="10.3235580">
	<ele>1213.00</ele>
	<time>2025-07-30T06:42:06.000Z</time>
</trkpt>
<trkpt lat="46.0447570" lon="10.3235590">
	<ele>1213.20</ele>
	<time>2025-07-30T06:42:07.000Z</time>
</trkpt>
<trkpt lat="46.0447650" lon="10.3235660">
	<ele>1213.40</ele>
	<time>2025-07-30T06:42:08.000Z</time>
</trkpt>
<trkpt lat="46.0447730" lon="10.3235660">
	<ele>1213.60</ele>
	<time>2025-07-30T06:42:09.000Z</time>
</trkpt>
<trkpt lat="46.0447760" lon="10.3235560">
	<ele>1213.80</ele>
	<time>2025-07-30T06:42:10.000Z</time>
</trkpt>
<trkpt lat="46.0447730" lon="10.3235500">
	<ele>1213.80</ele>
	<time>2025-07-30T06:42:11.000Z</time>
</trkpt>
<trkpt lat="46.0447700" lon="10.3235470">
	<ele>1214.00</ele>
	<time>2025-07-30T06:42:12.000Z</time>
</trkpt>
<trkpt lat="46.0447670" lon="10.3235460">
	<ele>1214.20</ele>
	<time>2025-07-30T06:42:13.000Z</time>
</trkpt>
<trkpt lat="46.0447690" lon="10.3235430">
	<ele>1214.40</ele>
	<time>2025-07-30T06:42:14.000Z</time>
</trkpt>
<trkpt lat="46.0447690" lon="10.3235410">
	<ele>1214.40</ele>
	<time>2025-07-30T06:42:15.000Z</time>
</trkpt>
<trkpt lat="46.0447690" lon="10.3235390">
	<ele>1214.40</ele>
	<time>2025-07-30T06:42:16.000Z</time>
</trkpt>
<trkpt lat="46.0447790" lon="10.3235300">
	<ele>1214.60</ele>
	<time>2025-07-30T06:42:17.000Z</time>
</trkpt>
<trkpt lat="46.0447820" lon="10.3235280">
	<ele>1214.60</ele>
	<time>2025-07-30T06:42:18.000Z</time>
</trkpt>
<trkpt lat="46.0447840" lon="10.3235270">
	<ele>1214.60</ele>
	<time>2025-07-30T06:42:19.000Z</time>
</trkpt>
<trkpt lat="46.0447890" lon="10.3235260">
	<ele>1215.00</ele>
	<time>2025-07-30T06:42:20.000Z</time>
</trkpt>
<trkpt lat="46.0447920" lon="10.3235230">
	<ele>1215.40</ele>
	<time>2025-07-30T06:42:21.000Z</time>
</trkpt>
<trkpt lat="46.0447920" lon="10.3235250">
	<ele>1215.60</ele>
	<time>2025-07-30T06:42:22.000Z</time>
</trkpt>
<trkpt lat="46.0447920" lon="10.3235240">
	<ele>1215.80</ele>
	<time>2025-07-30T06:42:23.000Z</time>
</trkpt>
<trkpt lat="46.0447980" lon="10.3235250">
	<ele>1215.80</ele>
	<time>2025-07-30T06:42:24.000Z</time>
</trkpt>
<trkpt lat="46.0448000" lon="10.3235290">
	<ele>1216.00</ele>
	<time>2025-07-30T06:42:25.000Z</time>
</trkpt>
<trkpt lat="46.0448090" lon="10.3235260">
	<ele>1216.20</ele>
	<time>2025-07-30T06:42:26.000Z</time>
</trkpt>
<trkpt lat="46.0448150" lon="10.3235240">
	<ele>1216.40</ele>
	<time>2025-07-30T06:42:27.000Z</time>
</trkpt>
<trkpt lat="46.0448230" lon="10.3235280">
	<ele>1216.80</ele>
	<time>2025-07-30T06:42:28.000Z</time>
</trkpt>
<trkpt lat="46.0448300" lon="10.3235340">
	<ele>1217.00</ele>
	<time>2025-07-30T06:42:29.000Z</time>
</trkpt>
<trkpt lat="46.0448330" lon="10.3235420">
	<ele>1217.40</ele>
	<time>2025-07-30T06:42:30.000Z</time>
</trkpt>
<trkpt lat="46.0448350" lon="10.3235440">
	<ele>1217.40</ele>
	<time>2025-07-30T06:42:31.000Z</time>
</trkpt>
<trkpt lat="46.0448380" lon="10.3235470">
	<ele>1217.60</ele>
	<time>2025-07-30T06:42:32.000Z</time>
</trkpt>
<trkpt lat="46.0448370" lon="10.3235620">
	<ele>1217.80</ele>
	<time>2025-07-30T06:42:33.000Z</time>
</trkpt>
<trkpt lat="46.0448370" lon="10.3235700">
	<ele>1218.00</ele>
	<time>2025-07-30T06:42:34.000Z</time>
</trkpt>
<trkpt lat="46.0448410" lon="10.3235730">
	<ele>1218.00</ele>
	<time>2025-07-30T06:42:35.000Z</time>
</trkpt>
<trkpt lat="46.0448460" lon="10.3235810">
	<ele>1218.20</ele>
	<time>2025-07-30T06:42:36.000Z</time>
</trkpt>
<trkpt lat="46.0448520" lon="10.3235890">
	<ele>1218.40</ele>
	<time>2025-07-30T06:42:37.000Z</time>
</trkpt>
<trkpt lat="46.0448570" lon="10.3235920">
	<ele>1218.60</ele>
	<time>2025-07-30T06:42:38.000Z</time>
</trkpt>
<trkpt lat="46.0448610" lon="10.3235970">
	<ele>1218.80</ele>
	<time>2025-07-30T06:42:39.000Z</time>
</trkpt>
<trkpt lat="46.0448640" lon="10.3236000">
	<ele>1219.20</ele>
	<time>2025-07-30T06:42:40.000Z</time>
</trkpt>
<trkpt lat="46.0448660" lon="10.3236010">
	<ele>1219.40</ele>
	<time>2025-07-30T06:42:41.000Z</time>
</trkpt>
<trkpt lat="46.0448540" lon="10.3236050">
	<ele>1219.80</ele>
	<time>2025-07-30T06:42:42.000Z</time>
</trkpt>
<trkpt lat="46.0448520" lon="10.3236100">
	<ele>1220.00</ele>
	<time>2025-07-30T06:42:43.000Z</time>
</trkpt>
<trkpt lat="46.0448530" lon="10.3236150">
	<ele>1220.20</ele>
	<time>2025-07-30T06:42:44.000Z</time>
</trkpt>
<trkpt lat="46.0448530" lon="10.3236200">
	<ele>1220.20</ele>
	<time>2025-07-30T06:42:45.000Z</time>
</trkpt>
<trkpt lat="46.0448540" lon="10.3236250">
	<ele>1220.60</ele>
	<time>2025-07-30T06:42:46.000Z</time>
</trkpt>
<trkpt lat="46.0448530" lon="10.3236280">
	<ele>1220.80</ele>
	<time>2025-07-30T06:42:47.000Z</time>
</trkpt>
<trkpt lat="46.0448550" lon="10.3236370">
	<ele>1220.80</ele>
	<time>2025-07-30T06:42:48.000Z</time>
</trkpt>
<trkpt lat="46.0448630" lon="10.3236390">
	<ele>1221.00</ele>
	<time>2025-07-30T06:42:49.000Z</time>
</trkpt>
<trkpt lat="46.0448660" lon="10.3236520">
	<ele>1221.00</ele>
	<time>2025-07-30T06:42:50.000Z</time>
</trkpt>
<trkpt lat="46.0448690" lon="10.3236610">
	<ele>1221.00</ele>
	<time>2025-07-30T06:42:51.000Z</time>
</trkpt>
<trkpt lat="46.0448760" lon="10.3236740">
	<ele>1221.20</ele>
	<time>2025-07-30T06:42:52.000Z</time>
</trkpt>
<trkpt lat="46.0448770" lon="10.3236890">
	<ele>1221.40</ele>
	<time>2025-07-30T06:42:53.000Z</time>
</trkpt>
<trkpt lat="46.0448780" lon="10.3237010">
	<ele>1221.60</ele>
	<time>2025-07-30T06:42:54.000Z</time>
</trkpt>
<trkpt lat="46.0448780" lon="10.3237060">
	<ele>1221.60</ele>
	<time>2025-07-30T06:42:55.000Z</time>
</trkpt>
<trkpt lat="46.0448790" lon="10.3237100">
	<ele>1221.80</ele>
	<time>2025-07-30T06:42:56.000Z</time>
</trkpt>
<trkpt lat="46.0448810" lon="10.3237210">
	<ele>1222.00</ele>
	<time>2025-07-30T06:42:57.000Z</time>
</trkpt>
<trkpt lat="46.0448840" lon="10.3237320">
	<ele>1222.20</ele>
	<time>2025-07-30T06:42:58.000Z</time>
</trkpt>
<trkpt lat="46.0448820" lon="10.3237530">
	<ele>1222.40</ele>
	<time>2025-07-30T06:42:59.000Z</time>
</trkpt>
<trkpt lat="46.0448860" lon="10.3237660">
	<ele>1222.60</ele>
	<time>2025-07-30T06:43:00.000Z</time>
</trkpt>
<trkpt lat="46.0448870" lon="10.3237800">
	<ele>1222.80</ele>
	<time>2025-07-30T06:43:01.000Z</time>
</trkpt>
<trkpt lat="46.0448890" lon="10.3237920">
	<ele>1222.80</ele>
	<time>2025-07-30T06:43:02.000Z</time>
</trkpt>
<trkpt lat="46.0448900" lon="10.3238060">
	<ele>1223.20</ele>
	<time>2025-07-30T06:43:03.000Z</time>
</trkpt>
<trkpt lat="46.0448900" lon="10.3238210">
	<ele>1223.40</ele>
	<time>2025-07-30T06:43:04.000Z</time>
</trkpt>
<trkpt lat="46.0448910" lon="10.3238420">
	<ele>1223.40</ele>
	<time>2025-07-30T06:43:05.000Z</time>
</trkpt>
<trkpt lat="46.0448980" lon="10.3238610">
	<ele>1223.80</ele>
	<time>2025-07-30T06:43:06.000Z</time>
</trkpt>
<trkpt lat="46.0449080" lon="10.3238730">
	<ele>1224.00</ele>
	<time>2025-07-30T06:43:07.000Z</time>
</trkpt>
<trkpt lat="46.0449110" lon="10.3238760">
	<ele>1224.20</ele>
	<time>2025-07-30T06:43:08.000Z</time>
</trkpt>
<trkpt lat="46.0449120" lon="10.3238700">
	<ele>1224.40</ele>
	<time>2025-07-30T06:43:09.000Z</time>
</trkpt>
<trkpt lat="46.0449190" lon="10.3238780">
	<ele>1224.80</ele>
	<time>2025-07-30T06:43:10.000Z</time>
</trkpt>
<trkpt lat="46.0449270" lon="10.3238880">
	<ele>1225.20</ele>
	<time>2025-07-30T06:43:11.000Z</time>
</trkpt>
<trkpt lat="46.0449320" lon="10.3238890">
	<ele>1225.40</ele>
	<time>2025-07-30T06:43:12.000Z</time>
</trkpt>
<trkpt lat="46.0449280" lon="10.3239090">
	<ele>1225.40</ele>
	<time>2025-07-30T06:43:13.000Z</time>
</trkpt>
<trkpt lat="46.0449380" lon="10.3239130">
	<ele>1225.60</ele>
	<time>2025-07-30T06:43:14.000Z</time>
</trkpt>
<trkpt lat="46.0449420" lon="10.3239080">
	<ele>1225.80</ele>
	<time>2025-07-30T06:43:15.000Z</time>
</trkpt>
<trkpt lat="46.0449500" lon="10.3239070">
	<ele>1225.80</ele>
	<time>2025-07-30T06:43:16.000Z</time>
</trkpt>
<trkpt lat="46.0449610" lon="10.3239160">
	<ele>1225.80</ele>
	<time>2025-07-30T06:43:17.000Z</time>
</trkpt>
<trkpt lat="46.0449650" lon="10.3239240">
	<ele>1226.20</ele>
	<time>2025-07-30T06:43:18.000Z</time>
</trkpt>
<trkpt lat="46.0449640" lon="10.3239340">
	<ele>1226.40</ele>
	<time>2025-07-30T06:43:19.000Z</time>
</trkpt>
<trkpt lat="46.0449690" lon="10.3239460">
	<ele>1226.60</ele>
	<time>2025-07-30T06:43:20.000Z</time>
</trkpt>
<trkpt lat="46.0449670" lon="10.3239570">
	<ele>1226.80</ele>
	<time>2025-07-30T06:43:21.000Z</time>
</trkpt>
<trkpt lat="46.0449630" lon="10.3239640">
	<ele>1227.00</ele>
	<time>2025-07-30T06:43:22.000Z</time>
</trkpt>
<trkpt lat="46.0449640" lon="10.3239680">
	<ele>1227.00</ele>
	<time>2025-07-30T06:43:23.000Z</time>
</trkpt>
<trkpt lat="46.0449710" lon="10.3239740">
	<ele>1227.20</ele>
	<time>2025-07-30T06:43:24.000Z</time>
</trkpt>
<trkpt lat="46.0449800" lon="10.3239790">
	<ele>1227.40</ele>
	<time>2025-07-30T06:43:25.000Z</time>
</trkpt>
<trkpt lat="46.0449830" lon="10.3239840">
	<ele>1227.80</ele>
	<time>2025-07-30T06:43:26.000Z</time>
</trkpt>
<trkpt lat="46.0449900" lon="10.3239980">
	<ele>1228.00</ele>
	<time>2025-07-30T06:43:27.000Z</time>
</trkpt>
<trkpt lat="46.0449930" lon="10.3240070">
	<ele>1228.20</ele>
	<time>2025-07-30T06:43:28.000Z</time>
</trkpt>
<trkpt lat="46.0449960" lon="10.3240170">
	<ele>1228.40</ele>
	<time>2025-07-30T06:43:29.000Z</time>
</trkpt>
<trkpt lat="46.0449970" lon="10.3240250">
	<ele>1228.60</ele>
	<time>2025-07-30T06:43:30.000Z</time>
</trkpt>
<trkpt lat="46.0449970" lon="10.3240310">
	<ele>1228.60</ele>
	<time>2025-07-30T06:43:31.000Z</time>
</trkpt>
<trkpt lat="46.0449950" lon="10.3240390">
	<ele>1228.80</ele>
	<time>2025-07-30T06:43:32.000Z</time>
</trkpt>
<trkpt lat="46.0450020" lon="10.3240460">
	<ele>1228.80</ele>
	<time>2025-07-30T06:43:33.000Z</time>
</trkpt>
<trkpt lat="46.0450130" lon="10.3240530">
	<ele>1229.00</ele>
	<time>2025-07-30T06:43:34.000Z</time>
</trkpt>
<trkpt lat="46.0450210" lon="10.3240560">
	<ele>1229.20</ele>
	<time>2025-07-30T06:43:35.000Z</time>
</trkpt>
<trkpt lat="46.0450240" lon="10.3240550">
	<ele>1229.60</ele>
	<time>2025-07-30T06:43:36.000Z</time>
</trkpt>
<trkpt lat="46.0450290" lon="10.3240620">
	<ele>1229.60</ele>
	<time>2025-07-30T06:43:37.000Z</time>
</trkpt>
<trkpt lat="46.0450310" lon="10.3240710">
	<ele>1229.80</ele>
	<time>2025-07-30T06:43:38.000Z</time>
</trkpt>
<trkpt lat="46.0450340" lon="10.3240770">
	<ele>1229.80</ele>
	<time>2025-07-30T06:43:39.000Z</time>
</trkpt>
<trkpt lat="46.0450380" lon="10.3240850">
	<ele>1230.20</ele>
	<time>2025-07-30T06:43:40.000Z</time>
</trkpt>
<trkpt lat="46.0450430" lon="10.3240940">
	<ele>1230.20</ele>
	<time>2025-07-30T06:43:41.000Z</time>
</trkpt>
<trkpt lat="46.0450450" lon="10.3241060">
	<ele>1230.60</ele>
	<time>2025-07-30T06:43:42.000Z</time>
</trkpt>
<trkpt lat="46.0450470" lon="10.3241120">
	<ele>1230.80</ele>
	<time>2025-07-30T06:43:43.000Z</time>
</trkpt>
<trkpt lat="46.0450480" lon="10.3241220">
	<ele>1230.80</ele>
	<time>2025-07-30T06:43:44.000Z</time>
</trkpt>
<trkpt lat="46.0450480" lon="10.3241270">
	<ele>1231.00</ele>
	<time>2025-07-30T06:43:45.000Z</time>
</trkpt>
<trkpt lat="46.0450450" lon="10.3241370">
	<ele>1231.20</ele>
	<time>2025-07-30T06:43:46.000Z</time>
</trkpt>
<trkpt lat="46.0450450" lon="10.3241460">
	<ele>1231.40</ele>
	<time>2025-07-30T06:43:47.000Z</time>
</trkpt>
<trkpt lat="46.0450420" lon="10.3241500">
	<ele>1231.60</ele>
	<time>2025-07-30T06:43:48.000Z</time>
</trkpt>
<trkpt lat="46.0450450" lon="10.3241580">
	<ele>1231.80</ele>
	<time>2025-07-30T06:43:49.000Z</time>
</trkpt>
<trkpt lat="46.0450460" lon="10.3241690">
	<ele>1231.80</ele>
	<time>2025-07-30T06:43:50.000Z</time>
</trkpt>
<trkpt lat="46.0450490" lon="10.3241840">
	<ele>1232.00</ele>
	<time>2025-07-30T06:43:51.000Z</time>
</trkpt>
<trkpt lat="46.0450520" lon="10.3241940">
	<ele>1232.20</ele>
	<time>2025-07-30T06:43:52.000Z</time>
</trkpt>
<trkpt lat="46.0450580" lon="10.3242040">
	<ele>1232.40</ele>
	<time>2025-07-30T06:43:53.000Z</time>
</trkpt>
<trkpt lat="46.0450640" lon="10.3242120">
	<ele>1232.60</ele>
	<time>2025-07-30T06:43:54.000Z</time>
</trkpt>
<trkpt lat="46.0450700" lon="10.3242170">
	<ele>1232.80</ele>
	<time>2025-07-30T06:43:55.000Z</time>
</trkpt>
<trkpt lat="46.0450740" lon="10.3242140">
	<ele>1233.00</ele>
	<time>2025-07-30T06:43:56.000Z</time>
</trkpt>
<trkpt lat="46.0450760" lon="10.3242170">
	<ele>1233.20</ele>
	<time>2025-07-30T06:43:57.000Z</time>
</trkpt>
<trkpt lat="46.0450770" lon="10.3242230">
	<ele>1233.20</ele>
	<time>2025-07-30T06:43:58.000Z</time>
</trkpt>
<trkpt lat="46.0450780" lon="10.3242290">
	<ele>1233.40</ele>
	<time>2025-07-30T06:43:59.000Z</time>
</trkpt>
<trkpt lat="46.0450800" lon="10.3242430">
	<ele>1233.60</ele>
	<time>2025-07-30T06:44:00.000Z</time>
</trkpt>
<trkpt lat="46.0450840" lon="10.3242580">
	<ele>1233.80</ele>
	<time>2025-07-30T06:44:01.000Z</time>
</trkpt>
<trkpt lat="46.0450860" lon="10.3242720">
	<ele>1233.80</ele>
	<time>2025-07-30T06:44:02.000Z</time>
</trkpt>
<trkpt lat="46.0450920" lon="10.3242850">
	<ele>1234.20</ele>
	<time>2025-07-30T06:44:03.000Z</time>
</trkpt>
<trkpt lat="46.0450930" lon="10.3242890">
	<ele>1234.20</ele>
	<time>2025-07-30T06:44:04.000Z</time>
</trkpt>
<trkpt lat="46.0450940" lon="10.3242920">
	<ele>1234.40</ele>
	<time>2025-07-30T06:44:05.000Z</time>
</trkpt>
<trkpt lat="46.0450980" lon="10.3243040">
	<ele>1234.60</ele>
	<time>2025-07-30T06:44:06.000Z</time>
</trkpt>
<trkpt lat="46.0451090" lon="10.3243110">
	<ele>1234.60</ele>
	<time>2025-07-30T06:44:07.000Z</time>
</trkpt>
<trkpt lat="46.0451130" lon="10.3243140">
	<ele>1234.60</ele>
	<time>2025-07-30T06:44:08.000Z</time>
</trkpt>
<trkpt lat="46.0451180" lon="10.3243250">
	<ele>1234.80</ele>
	<time>2025-07-30T06:44:09.000Z</time>
</trkpt>
<trkpt lat="46.0451150" lon="10.3243250">
	<ele>1235.20</ele>
	<time>2025-07-30T06:44:10.000Z</time>
</trkpt>
<trkpt lat="46.0451170" lon="10.3243250">
	<ele>1235.20</ele>
	<time>2025-07-30T06:44:11.000Z</time>
</trkpt>
<trkpt lat="46.0451250" lon="10.3243310">
	<ele>1235.40</ele>
	<time>2025-07-30T06:44:12.000Z</time>
</trkpt>
<trkpt lat="46.0451290" lon="10.3243390">
	<ele>1235.60</ele>
	<time>2025-07-30T06:44:13.000Z</time>
</trkpt>
<trkpt lat="46.0451300" lon="10.3243550">
	<ele>1235.80</ele>
	<time>2025-07-30T06:44:14.000Z</time>
</trkpt>
<trkpt lat="46.0451330" lon="10.3243670">
	<ele>1236.00</ele>
	<time>2025-07-30T06:44:15.000Z</time>
</trkpt>
<trkpt lat="46.0451310" lon="10.3243720">
	<ele>1236.20</ele>
	<time>2025-07-30T06:44:16.000Z</time>
</trkpt>
<trkpt lat="46.0451320" lon="10.3243790">
	<ele>1236.40</ele>
	<time>2025-07-30T06:44:17.000Z</time>
</trkpt>
<trkpt lat="46.0451280" lon="10.3243860">
	<ele>1236.60</ele>
	<time>2025-07-30T06:44:18.000Z</time>
</trkpt>
<trkpt lat="46.0451250" lon="10.3243910">
	<ele>1236.80</ele>
	<time>2025-07-30T06:44:19.000Z</time>
</trkpt>
<trkpt lat="46.0451270" lon="10.3243970">
	<ele>1237.00</ele>
	<time>2025-07-30T06:44:20.000Z</time>
</trkpt>
<trkpt lat="46.0451280" lon="10.3244040">
	<ele>1237.20</ele>
	<time>2025-07-30T06:44:21.000Z</time>
</trkpt>
<trkpt lat="46.0451280" lon="10.3244090">
	<ele>1237.60</ele>
	<time>2025-07-30T06:44:22.000Z</time>
</trkpt>
<trkpt lat="46.0451300" lon="10.3244160">
	<ele>1237.80</ele>
	<time>2025-07-30T06:44:23.000Z</time>
</trkpt>
<trkpt lat="46.0451330" lon="10.3244250">
	<ele>1238.00</ele>
	<time>2025-07-30T06:44:24.000Z</time>
</trkpt>
<trkpt lat="46.0451360" lon="10.3244390">
	<ele>1238.20</ele>
	<time>2025-07-30T06:44:25.000Z</time>
</trkpt>
<trkpt lat="46.0451390" lon="10.3244480">
	<ele>1238.40</ele>
	<time>2025-07-30T06:44:26.000Z</time>
</trkpt>
<trkpt lat="46.0451400" lon="10.3244560">
	<ele>1238.40</ele>
	<time>2025-07-30T06:44:27.000Z</time>
</trkpt>
<trkpt lat="46.0451420" lon="10.3244670">
	<ele>1238.60</ele>
	<time>2025-07-30T06:44:28.000Z</time>
</trkpt>
<trkpt lat="46.0451420" lon="10.3244760">
	<ele>1238.80</ele>
	<time>2025-07-30T06:44:29.000Z</time>
</trkpt>
<trkpt lat="46.0451440" lon="10.3244830">
	<ele>1239.00</ele>
	<time>2025-07-30T06:44:30.000Z</time>
</trkpt>
<trkpt lat="46.0451470" lon="10.3244970">
	<ele>1239.00</ele>
	<time>2025-07-30T06:44:31.000Z</time>
</trkpt>
<trkpt lat="46.0451490" lon="10.3245080">
	<ele>1239.20</ele>
	<time>2025-07-30T06:44:32.000Z</time>
</trkpt>
<trkpt lat="46.0451480" lon="10.3245240">
	<ele>1239.40</ele>
	<time>2025-07-30T06:44:33.000Z</time>
</trkpt>
<trkpt lat="46.0451480" lon="10.3245350">
	<ele>1239.60</ele>
	<time>2025-07-30T06:44:34.000Z</time>
</trkpt>
<trkpt lat="46.0451480" lon="10.3245450">
	<ele>1240.00</ele>
	<time>2025-07-30T06:44:35.000Z</time>
</trkpt>
<trkpt lat="46.0451500" lon="10.3245600">
	<ele>1240.20</ele>
	<time>2025-07-30T06:44:36.000Z</time>
</trkpt>
<trkpt lat="46.0451560" lon="10.3245740">
	<ele>1240.40</ele>
	<time>2025-07-30T06:44:37.000Z</time>
</trkpt>
<trkpt lat="46.0451590" lon="10.3245860">
	<ele>1240.40</ele>
	<time>2025-07-30T06:44:38.000Z</time>
</trkpt>
<trkpt lat="46.0451600" lon="10.3245960">
	<ele>1240.60</ele>
	<time>2025-07-30T06:44:39.000Z</time>
</trkpt>
<trkpt lat="46.0451630" lon="10.3246080">
	<ele>1240.60</ele>
	<time>2025-07-30T06:44:40.000Z</time>
</trkpt>
<trkpt lat="46.0451650" lon="10.3246170">
	<ele>1240.80</ele>
	<time>2025-07-30T06:44:41.000Z</time>
</trkpt>
<trkpt lat="46.0451630" lon="10.3246260">
	<ele>1240.80</ele>
	<time>2025-07-30T06:44:42.000Z</time>
</trkpt>
<trkpt lat="46.0451640" lon="10.3246370">
	<ele>1241.00</ele>
	<time>2025-07-30T06:44:43.000Z</time>
</trkpt>
<trkpt lat="46.0451670" lon="10.3246460">
	<ele>1241.20</ele>
	<time>2025-07-30T06:44:44.000Z</time>
</trkpt>
<trkpt lat="46.0451720" lon="10.3246520">
	<ele>1241.40</ele>
	<time>2025-07-30T06:44:45.000Z</time>
</trkpt>
<trkpt lat="46.0451780" lon="10.3246580">
	<ele>1241.60</ele>
	<time>2025-07-30T06:44:46.000Z</time>
</trkpt>
<trkpt lat="46.0451860" lon="10.3246690">
	<ele>1241.80</ele>
	<time>2025-07-30T06:44:47.000Z</time>
</trkpt>
<trkpt lat="46.0451920" lon="10.3246760">
	<ele>1242.00</ele>
	<time>2025-07-30T06:44:48.000Z</time>
</trkpt>
<trkpt lat="46.0451960" lon="10.3246820">
	<ele>1242.20</ele>
	<time>2025-07-30T06:44:49.000Z</time>
</trkpt>
<trkpt lat="46.0452000" lon="10.3246900">
	<ele>1242.40</ele>
	<time>2025-07-30T06:44:50.000Z</time>
</trkpt>
<trkpt lat="46.0452050" lon="10.3246960">
	<ele>1242.60</ele>
	<time>2025-07-30T06:44:51.000Z</time>
</trkpt>
<trkpt lat="46.0452080" lon="10.3247020">
	<ele>1242.80</ele>
	<time>2025-07-30T06:44:52.000Z</time>
</trkpt>
<trkpt lat="46.0452120" lon="10.3247120">
	<ele>1243.00</ele>
	<time>2025-07-30T06:44:53.000Z</time>
</trkpt>
<trkpt lat="46.0452160" lon="10.3247160">
	<ele>1243.00</ele>
	<time>2025-07-30T06:44:54.000Z</time>
</trkpt>
<trkpt lat="46.0452210" lon="10.3247210">
	<ele>1243.20</ele>
	<time>2025-07-30T06:44:55.000Z</time>
</trkpt>
<trkpt lat="46.0452260" lon="10.3247270">
	<ele>1243.40</ele>
	<time>2025-07-30T06:44:56.000Z</time>
</trkpt>
<trkpt lat="46.0452310" lon="10.3247300">
	<ele>1243.60</ele>
	<time>2025-07-30T06:44:57.000Z</time>
</trkpt>
<trkpt lat="46.0452360" lon="10.3247300">
	<ele>1243.60</ele>
	<time>2025-07-30T06:44:58.000Z</time>
</trkpt>
<trkpt lat="46.0452390" lon="10.3247290">
	<ele>1244.00</ele>
	<time>2025-07-30T06:44:59.000Z</time>
</trkpt>
<trkpt lat="46.0452430" lon="10.3247330">
	<ele>1244.20</ele>
	<time>2025-07-30T06:45:00.000Z</time>
</trkpt>
<trkpt lat="46.0452480" lon="10.3247330">
	<ele>1244.40</ele>
	<time>2025-07-30T06:45:01.000Z</time>
</trkpt>
<trkpt lat="46.0452550" lon="10.3247360">
	<ele>1244.40</ele>
	<time>2025-07-30T06:45:02.000Z</time>
</trkpt>
<trkpt lat="46.0452620" lon="10.3247380">
	<ele>1244.60</ele>
	<time>2025-07-30T06:45:03.000Z</time>
</trkpt>
<trkpt lat="46.0452700" lon="10.3247350">
	<ele>1244.80</ele>
	<time>2025-07-30T06:45:04.000Z</time>
</trkpt>
<trkpt lat="46.0452760" lon="10.3247310">
	<ele>1245.00</ele>
	<time>2025-07-30T06:45:05.000Z</time>
</trkpt>
<trkpt lat="46.0452800" lon="10.3247260">
	<ele>1245.20</ele>
	<time>2025-07-30T06:45:06.000Z</time>
</trkpt>
<trkpt lat="46.0452830" lon="10.3247220">
	<ele>1245.40</ele>
	<time>2025-07-30T06:45:07.000Z</time>
</trkpt>
<trkpt lat="46.0452890" lon="10.3247170">
	<ele>1245.60</ele>
	<time>2025-07-30T06:45:08.000Z</time>
</trkpt>
<trkpt lat="46.0452940" lon="10.3247090">
	<ele>1245.80</ele>
	<time>2025-07-30T06:45:09.000Z</time>
</trkpt>
<trkpt lat="46.0452980" lon="10.3247020">
	<ele>1246.00</ele>
	<time>2025-07-30T06:45:10.000Z</time>
</trkpt>
<trkpt lat="46.0453010" lon="10.3246950">
	<ele>1246.20</ele>
	<time>2025-07-30T06:45:11.000Z</time>
</trkpt>
<trkpt lat="46.0453030" lon="10.3246870">
	<ele>1246.40</ele>
	<time>2025-07-30T06:45:12.000Z</time>
</trkpt>
<trkpt lat="46.0453070" lon="10.3246790">
	<ele>1246.80</ele>
	<time>2025-07-30T06:45:13.000Z</time>
</trkpt>
<trkpt lat="46.0453080" lon="10.3246730">
	<ele>1247.00</ele>
	<time>2025-07-30T06:45:14.000Z</time>
</trkpt>
<trkpt lat="46.0453080" lon="10.3246650">
	<ele>1247.20</ele>
	<time>2025-07-30T06:45:15.000Z</time>
</trkpt>
<trkpt lat="46.0453070" lon="10.3246610">
	<ele>1247.40</ele>
	<time>2025-07-30T06:45:16.000Z</time>
</trkpt>
<trkpt lat="46.0453110" lon="10.3246590">
	<ele>1247.60</ele>
	<time>2025-07-30T06:45:17.000Z</time>
</trkpt>
<trkpt lat="46.0453150" lon="10.3246540">
	<ele>1247.80</ele>
	<time>2025-07-30T06:45:18.000Z</time>
</trkpt>
<trkpt lat="46.0453130" lon="10.3246480">
	<ele>1248.00</ele>
	<time>2025-07-30T06:45:19.000Z</time>
</trkpt>
<trkpt lat="46.0453160" lon="10.3246440">
	<ele>1248.20</ele>
	<time>2025-07-30T06:45:20.000Z</time>
</trkpt>
<trkpt lat="46.0453230" lon="10.3246420">
	<ele>1248.40</ele>
	<time>2025-07-30T06:45:21.000Z</time>
</trkpt>
<trkpt lat="46.0453260" lon="10.3246380">
	<ele>1248.40</ele>
	<time>2025-07-30T06:45:22.000Z</time>
</trkpt>
<trkpt lat="46.0453300" lon="10.3246300">
	<ele>1248.60</ele>
	<time>2025-07-30T06:45:23.000Z</time>
</trkpt>
<trkpt lat="46.0453340" lon="10.3246190">
	<ele>1248.60</ele>
	<time>2025-07-30T06:45:24.000Z</time>
</trkpt>
<trkpt lat="46.0453370" lon="10.3246110">
	<ele>1248.80</ele>
	<time>2025-07-30T06:45:25.000Z</time>
</trkpt>
<trkpt lat="46.0453380" lon="10.3246050">
	<ele>1249.00</ele>
	<time>2025-07-30T06:45:26.000Z</time>
</trkpt>
<trkpt lat="46.0453450" lon="10.3245970">
	<ele>1249.20</ele>
	<time>2025-07-30T06:45:27.000Z</time>
</trkpt>
<trkpt lat="46.0453580" lon="10.3245950">
	<ele>1249.40</ele>
	<time>2025-07-30T06:45:28.000Z</time>
</trkpt>
<trkpt lat="46.0453750" lon="10.3245970">
	<ele>1249.40</ele>
	<time>2025-07-30T06:45:29.000Z</time>
</trkpt>
<trkpt lat="46.0453800" lon="10.3245950">
	<ele>1249.60</ele>
	<time>2025-07-30T06:45:30.000Z</time>
</trkpt>
<trkpt lat="46.0453880" lon="10.3245910">
	<ele>1249.80</ele>
	<time>2025-07-30T06:45:31.000Z</time>
</trkpt>
<trkpt lat="46.0453920" lon="10.3245860">
	<ele>1250.20</ele>
	<time>2025-07-30T06:45:32.000Z</time>
</trkpt>
<trkpt lat="46.0454020" lon="10.3245830">
	<ele>1250.40</ele>
	<time>2025-07-30T06:45:33.000Z</time>
</trkpt>
<trkpt lat="46.0454150" lon="10.3245890">
	<ele>1250.40</ele>
	<time>2025-07-30T06:45:34.000Z</time>
</trkpt>
<trkpt lat="46.0454240" lon="10.3245910">
	<ele>1250.60</ele>
	<time>2025-07-30T06:45:35.000Z</time>
</trkpt>
<trkpt lat="46.0454210" lon="10.3245850">
	<ele>1251.00</ele>
	<time>2025-07-30T06:45:36.000Z</time>
</trkpt>
<trkpt lat="46.0454250" lon="10.3245810">
	<ele>1251.20</ele>
	<time>2025-07-30T06:45:37.000Z</time>
</trkpt>
<trkpt lat="46.0454300" lon="10.3245780">
	<ele>1251.20</ele>
	<time>2025-07-30T06:45:38.000Z</time>
</trkpt>
<trkpt lat="46.0454340" lon="10.3245730">
	<ele>1251.40</ele>
	<time>2025-07-30T06:45:39.000Z</time>
</trkpt>
<trkpt lat="46.0454440" lon="10.3245710">
	<ele>1251.60</ele>
	<time>2025-07-30T06:45:40.000Z</time>
</trkpt>
<trkpt lat="46.0454510" lon="10.3245620">
	<ele>1251.80</ele>
	<time>2025-07-30T06:45:41.000Z</time>
</trkpt>
<trkpt lat="46.0454550" lon="10.3245540">
	<ele>1252.00</ele>
	<time>2025-07-30T06:45:42.000Z</time>
</trkpt>
<trkpt lat="46.0454550" lon="10.3245470">
	<ele>1252.20</ele>
	<time>2025-07-30T06:45:43.000Z</time>
</trkpt>
<trkpt lat="46.0454460" lon="10.3245380">
	<ele>1252.20</ele>
	<time>2025-07-30T06:45:44.000Z</time>
</trkpt>
<trkpt lat="46.0454480" lon="10.3245310">
	<ele>1252.40</ele>
	<time>2025-07-30T06:45:45.000Z</time>
</trkpt>
<trkpt lat="46.0454530" lon="10.3245290">
	<ele>1252.80</ele>
	<time>2025-07-30T06:45:46.000Z</time>
</trkpt>
<trkpt lat="46.0454580" lon="10.3245290">
	<ele>1252.80</ele>
	<time>2025-07-30T06:45:47.000Z</time>
</trkpt>
<trkpt lat="46.0454620" lon="10.3245250">
	<ele>1253.00</ele>
	<time>2025-07-30T06:45:48.000Z</time>
</trkpt>
<trkpt lat="46.0454620" lon="10.3245160">
	<ele>1253.20</ele>
	<time>2025-07-30T06:45:49.000Z</time>
</trkpt>
<trkpt lat="46.0454590" lon="10.3245080">
	<ele>1253.40</ele>
	<time>2025-07-30T06:45:50.000Z</time>
</trkpt>
<trkpt lat="46.0454550" lon="10.3245040">
	<ele>1253.60</ele>
	<time>2025-07-30T06:45:51.000Z</time>
</trkpt>
<trkpt lat="46.0454560" lon="10.3245040">
	<ele>1254.00</ele>
	<time>2025-07-30T06:45:52.000Z</time>
</trkpt>
<trkpt lat="46.0454580" lon="10.3245050">
	<ele>1254.20</ele>
	<time>2025-07-30T06:45:53.000Z</time>
</trkpt>
<trkpt lat="46.0454640" lon="10.3245040">
	<ele>1254.40</ele>
	<time>2025-07-30T06:45:54.000Z</time>
</trkpt>
<trkpt lat="46.0454680" lon="10.3245080">
	<ele>1254.40</ele>
	<time>2025-07-30T06:45:55.000Z</time>
</trkpt>
<trkpt lat="46.0454730" lon="10.3245140">
	<ele>1254.60</ele>
	<time>2025-07-30T06:45:56.000Z</time>
</trkpt>
<trkpt lat="46.0454800" lon="10.3245190">
	<ele>1254.80</ele>
	<time>2025-07-30T06:45:57.000Z</time>
</trkpt>
<trkpt lat="46.0454900" lon="10.3245200">
	<ele>1255.00</ele>
	<time>2025-07-30T06:45:58.000Z</time>
</trkpt>
<trkpt lat="46.0454950" lon="10.3245220">
	<ele>1255.00</ele>
	<time>2025-07-30T06:45:59.000Z</time>
</trkpt>
<trkpt lat="46.0454990" lon="10.3245230">
	<ele>1255.20</ele>
	<time>2025-07-30T06:46:00.000Z</time>
</trkpt>
<trkpt lat="46.0455040" lon="10.3245240">
	<ele>1255.40</ele>
	<time>2025-07-30T06:46:01.000Z</time>
</trkpt>
<trkpt lat="46.0455090" lon="10.3245260">
	<ele>1255.40</ele>
	<time>2025-07-30T06:46:02.000Z</time>
</trkpt>
<trkpt lat="46.0455120" lon="10.3245290">
	<ele>1255.60</ele>
	<time>2025-07-30T06:46:03.000Z</time>
</trkpt>
<trkpt lat="46.0455130" lon="10.3245320">
	<ele>1256.00</ele>
	<time>2025-07-30T06:46:04.000Z</time>
</trkpt>
<trkpt lat="46.0455150" lon="10.3245360">
	<ele>1256.00</ele>
	<time>2025-07-30T06:46:05.000Z</time>
</trkpt>
<trkpt lat="46.0455130" lon="10.3245410">
	<ele>1256.20</ele>
	<time>2025-07-30T06:46:06.000Z</time>
</trkpt>
<trkpt lat="46.0455130" lon="10.3245510">
	<ele>1256.40</ele>
	<time>2025-07-30T06:46:07.000Z</time>
</trkpt>
<trkpt lat="46.0455150" lon="10.3245530">
	<ele>1256.60</ele>
	<time>2025-07-30T06:46:08.000Z</time>
</trkpt>
<trkpt lat="46.0455170" lon="10.3245530">
	<ele>1256.60</ele>
	<time>2025-07-30T06:46:09.000Z</time>
</trkpt>
<trkpt lat="46.0455180" lon="10.3245580">
	<ele>1256.80</ele>
	<time>2025-07-30T06:46:10.000Z</time>
</trkpt>
<trkpt lat="46.0455230" lon="10.3245620">
	<ele>1256.80</ele>
	<time>2025-07-30T06:46:11.000Z</time>
</trkpt>
<trkpt lat="46.0455260" lon="10.3245680">
	<ele>1257.20</ele>
	<time>2025-07-30T06:46:12.000Z</time>
</trkpt>
<trkpt lat="46.0455290" lon="10.3245720">
	<ele>1257.40</ele>
	<time>2025-07-30T06:46:13.000Z</time>
</trkpt>
<trkpt lat="46.0455310" lon="10.3245790">
	<ele>1257.60</ele>
	<time>2025-07-30T06:46:14.000Z</time>
</trkpt>
<trkpt lat="46.0455340" lon="10.3245820">
	<ele>1257.60</ele>
	<time>2025-07-30T06:46:15.000Z</time>
</trkpt>
<trkpt lat="46.0455320" lon="10.3245850">
	<ele>1257.80</ele>
	<time>2025-07-30T06:46:16.000Z</time>
</trkpt>
<trkpt lat="46.0455340" lon="10.3245940">
	<ele>1258.00</ele>
	<time>2025-07-30T06:46:17.000Z</time>
</trkpt>
<trkpt lat="46.0455360" lon="10.3246000">
	<ele>1258.40</ele>
	<time>2025-07-30T06:46:18.000Z</time>
</trkpt>
<trkpt lat="46.0455440" lon="10.3246060">
	<ele>1258.60</ele>
	<time>2025-07-30T06:46:19.000Z</time>
</trkpt>
<trkpt lat="46.0455490" lon="10.3246130">
	<ele>1258.60</ele>
	<time>2025-07-30T06:46:20.000Z</time>
</trkpt>
<trkpt lat="46.0455500" lon="10.3246190">
	<ele>1258.80</ele>
	<time>2025-07-30T06:46:21.000Z</time>
</trkpt>
<trkpt lat="46.0455520" lon="10.3246250">
	<ele>1258.80</ele>
	<time>2025-07-30T06:46:22.000Z</time>
</trkpt>
<trkpt lat="46.0455540" lon="10.3246320">
	<ele>1259.00</ele>
	<time>2025-07-30T06:46:23.000Z</time>
</trkpt>
<trkpt lat="46.0455550" lon="10.3246370">
	<ele>1259.00</ele>
	<time>2025-07-30T06:46:24.000Z</time>
</trkpt>
<trkpt lat="46.0455550" lon="10.3246430">
	<ele>1259.40</ele>
	<time>2025-07-30T06:46:25.000Z</time>
</trkpt>
<trkpt lat="46.0455560" lon="10.3246470">
	<ele>1259.60</ele>
	<time>2025-07-30T06:46:26.000Z</time>
</trkpt>
<trkpt lat="46.0455590" lon="10.3246550">
	<ele>1259.80</ele>
	<time>2025-07-30T06:46:27.000Z</time>
</trkpt>
<trkpt lat="46.0455610" lon="10.3246630">
	<ele>1259.80</ele>
	<time>2025-07-30T06:46:28.000Z</time>
</trkpt>
<trkpt lat="46.0455620" lon="10.3246730">
	<ele>1260.20</ele>
	<time>2025-07-30T06:46:29.000Z</time>
</trkpt>
<trkpt lat="46.0455640" lon="10.3246830">
	<ele>1260.40</ele>
	<time>2025-07-30T06:46:30.000Z</time>
</trkpt>
<trkpt lat="46.0455710" lon="10.3246930">
	<ele>1260.60</ele>
	<time>2025-07-30T06:46:31.000Z</time>
</trkpt>
<trkpt lat="46.0455750" lon="10.3247000">
	<ele>1260.80</ele>
	<time>2025-07-30T06:46:32.000Z</time>
</trkpt>
<trkpt lat="46.0455760" lon="10.3247070">
	<ele>1260.80</ele>
	<time>2025-07-30T06:46:33.000Z</time>
</trkpt>
<trkpt lat="46.0455790" lon="10.3247140">
	<ele>1260.80</ele>
	<time>2025-07-30T06:46:34.000Z</time>
</trkpt>
<trkpt lat="46.0455770" lon="10.3247160">
	<ele>1261.00</ele>
	<time>2025-07-30T06:46:35.000Z</time>
</trkpt>
<trkpt lat="46.0455760" lon="10.3247170">
	<ele>1261.00</ele>
	<time>2025-07-30T06:46:36.000Z</time>
</trkpt>
<trkpt lat="46.0455800" lon="10.3247320">
	<ele>1261.20</ele>
	<time>2025-07-30T06:46:37.000Z</time>
</trkpt>
<trkpt lat="46.0455820" lon="10.3247510">
	<ele>1261.40</ele>
	<time>2025-07-30T06:46:38.000Z</time>
</trkpt>
<trkpt lat="46.0455810" lon="10.3247610">
	<ele>1261.60</ele>
	<time>2025-07-30T06:46:39.000Z</time>
</trkpt>
<trkpt lat="46.0455810" lon="10.3247730">
	<ele>1261.80</ele>
	<time>2025-07-30T06:46:40.000Z</time>
</trkpt>
<trkpt lat="46.0455830" lon="10.3247820">
	<ele>1261.80</ele>
	<time>2025-07-30T06:46:41.000Z</time>
</trkpt>
<trkpt lat="46.0455810" lon="10.3247890">
	<ele>1261.80</ele>
	<time>2025-07-30T06:46:42.000Z</time>
</trkpt>
<trkpt lat="46.0455890" lon="10.3247940">
	<ele>1262.00</ele>
	<time>2025-07-30T06:46:43.000Z</time>
</trkpt>
<trkpt lat="46.0455990" lon="10.3248000">
	<ele>1262.20</ele>
	<time>2025-07-30T06:46:44.000Z</time>
</trkpt>
<trkpt lat="46.0456030" lon="10.3248040">
	<ele>1262.20</ele>
	<time>2025-07-30T06:46:45.000Z</time>
</trkpt>
<trkpt lat="46.0456040" lon="10.3248070">
	<ele>1262.40</ele>
	<time>2025-07-30T06:46:46.000Z</time>
</trkpt>
<trkpt lat="46.0456100" lon="10.3248020">
	<ele>1262.60</ele>
	<time>2025-07-30T06:46:47.000Z</time>
</trkpt>
<trkpt lat="46.0456160" lon="10.3247970">
	<ele>1262.80</ele>
	<time>2025-07-30T06:46:48.000Z</time>
</trkpt>
<trkpt lat="46.0456220" lon="10.3247930">
	<ele>1263.00</ele>
	<time>2025-07-30T06:46:49.000Z</time>
</trkpt>
<trkpt lat="46.0456300" lon="10.3247890">
	<ele>1263.20</ele>
	<time>2025-07-30T06:46:50.000Z</time>
</trkpt>
<trkpt lat="46.0456380" lon="10.3247850">
	<ele>1263.40</ele>
	<time>2025-07-30T06:46:51.000Z</time>
</trkpt>
<trkpt lat="46.0456450" lon="10.3247900">
	<ele>1263.60</ele>
	<time>2025-07-30T06:46:52.000Z</time>
</trkpt>
<trkpt lat="46.0456520" lon="10.3247890">
	<ele>1263.80</ele>
	<time>2025-07-30T06:46:53.000Z</time>
</trkpt>
<trkpt lat="46.0456570" lon="10.3247790">
	<ele>1263.80</ele>
	<time>2025-07-30T06:46:54.000Z</time>
</trkpt>
<trkpt lat="46.0456540" lon="10.3247650">
	<ele>1264.00</ele>
	<time>2025-07-30T06:46:55.000Z</time>
</trkpt>
<trkpt lat="46.0456550" lon="10.3247520">
	<ele>1264.00</ele>
	<time>2025-07-30T06:46:56.000Z</time>
</trkpt>
<trkpt lat="46.0456550" lon="10.3247420">
	<ele>1264.20</ele>
	<time>2025-07-30T06:46:57.000Z</time>
</trkpt>
<trkpt lat="46.0456590" lon="10.3247360">
	<ele>1264.60</ele>
	<time>2025-07-30T06:46:58.000Z</time>
</trkpt>
<trkpt lat="46.0456610" lon="10.3247300">
	<ele>1264.80</ele>
	<time>2025-07-30T06:46:59.000Z</time>
</trkpt>
<trkpt lat="46.0456650" lon="10.3247240">
	<ele>1264.80</ele>
	<time>2025-07-30T06:47:00.000Z</time>
</trkpt>
<trkpt lat="46.0456670" lon="10.3247170">
	<ele>1265.00</ele>
	<time>2025-07-30T06:47:01.000Z</time>
</trkpt>
<trkpt lat="46.0456670" lon="10.3247140">
	<ele>1265.00</ele>
	<time>2025-07-30T06:47:02.000Z</time>
</trkpt>
<trkpt lat="46.0456710" lon="10.3247080">
	<ele>1265.20</ele>
	<time>2025-07-30T06:47:03.000Z</time>
</trkpt>
<trkpt lat="46.0456820" lon="10.3247160">
	<ele>1265.40</ele>
	<time>2025-07-30T06:47:04.000Z</time>
</trkpt>
<trkpt lat="46.0456880" lon="10.3247130">
	<ele>1265.60</ele>
	<time>2025-07-30T06:47:05.000Z</time>
</trkpt>
<trkpt lat="46.0456930" lon="10.3246990">
	<ele>1265.60</ele>
	<time>2025-07-30T06:47:06.000Z</time>
</trkpt>
<trkpt lat="46.0456930" lon="10.3246910">
	<ele>1265.60</ele>
	<time>2025-07-30T06:47:07.000Z</time>
</trkpt>
<trkpt lat="46.0456880" lon="10.3246730">
	<ele>1265.60</ele>
	<time>2025-07-30T06:47:08.000Z</time>
</trkpt>
<trkpt lat="46.0456760" lon="10.3246530">
	<ele>1265.80</ele>
	<time>2025-07-30T06:47:09.000Z</time>
</trkpt>
<trkpt lat="46.0456770" lon="10.3246420">
	<ele>1266.00</ele>
	<time>2025-07-30T06:47:10.000Z</time>
</trkpt>
<trkpt lat="46.0456860" lon="10.3246320">
	<ele>1266.00</ele>
	<time>2025-07-30T06:47:11.000Z</time>
</trkpt>
<trkpt lat="46.0456950" lon="10.3246280">
	<ele>1266.20</ele>
	<time>2025-07-30T06:47:12.000Z</time>
</trkpt>
<trkpt lat="46.0456950" lon="10.3246240">
	<ele>1266.20</ele>
	<time>2025-07-30T06:47:13.000Z</time>
</trkpt>
<trkpt lat="46.0456850" lon="10.3246140">
	<ele>1266.40</ele>
	<time>2025-07-30T06:47:14.000Z</time>
</trkpt>
<trkpt lat="46.0456890" lon="10.3246110">
	<ele>1266.60</ele>
	<time>2025-07-30T06:47:15.000Z</time>
</trkpt>
<trkpt lat="46.0456990" lon="10.3246010">
	<ele>1266.60</ele>
	<time>2025-07-30T06:47:16.000Z</time>
</trkpt>
<trkpt lat="46.0457100" lon="10.3245860">
	<ele>1266.60</ele>
	<time>2025-07-30T06:47:17.000Z</time>
</trkpt>
<trkpt lat="46.0457090" lon="10.3245740">
	<ele>1266.80</ele>
	<time>2025-07-30T06:47:18.000Z</time>
</trkpt>
<trkpt lat="46.0457130" lon="10.3245710">
	<ele>1267.00</ele>
	<time>2025-07-30T06:47:19.000Z</time>
</trkpt>
<trkpt lat="46.0457160" lon="10.3245650">
	<ele>1267.00</ele>
	<time>2025-07-30T06:47:20.000Z</time>
</trkpt>
<trkpt lat="46.0457230" lon="10.3245610">
	<ele>1267.40</ele>
	<time>2025-07-30T06:47:21.000Z</time>
</trkpt>
<trkpt lat="46.0457330" lon="10.3245520">
	<ele>1267.40</ele>
	<time>2025-07-30T06:47:22.000Z</time>
</trkpt>
<trkpt lat="46.0457360" lon="10.3245390">
	<ele>1267.60</ele>
	<time>2025-07-30T06:47:23.000Z</time>
</trkpt>
<trkpt lat="46.0457400" lon="10.3245300">
	<ele>1267.60</ele>
	<time>2025-07-30T06:47:24.000Z</time>
</trkpt>
<trkpt lat="46.0457470" lon="10.3245220">
	<ele>1267.80</ele>
	<time>2025-07-30T06:47:25.000Z</time>
</trkpt>
<trkpt lat="46.0457460" lon="10.3245180">
	<ele>1267.80</ele>
	<time>2025-07-30T06:47:26.000Z</time>
</trkpt>
<trkpt lat="46.0457410" lon="10.3245090">
	<ele>1268.20</ele>
	<time>2025-07-30T06:47:27.000Z</time>
</trkpt>
<trkpt lat="46.0457400" lon="10.3244980">
	<ele>1268.40</ele>
	<time>2025-07-30T06:47:28.000Z</time>
</trkpt>
<trkpt lat="46.0457350" lon="10.3244840">
	<ele>1268.40</ele>
	<time>2025-07-30T06:47:29.000Z</time>
</trkpt>
<trkpt lat="46.0457380" lon="10.3244710">
	<ele>1268.60</ele>
	<time>2025-07-30T06:47:30.000Z</time>
</trkpt>
<trkpt lat="46.0457430" lon="10.3244580">
	<ele>1268.80</ele>
	<time>2025-07-30T06:47:31.000Z</time>
</trkpt>
<trkpt lat="46.0457430" lon="10.3244460">
	<ele>1269.00</ele>
	<time>2025-07-30T06:47:32.000Z</time>
</trkpt>
<trkpt lat="46.0457460" lon="10.3244390">
	<ele>1269.20</ele>
	<time>2025-07-30T06:47:33.000Z</time>
</trkpt>
<trkpt lat="46.0457590" lon="10.3244310">
	<ele>1269.20</ele>
	<time>2025-07-30T06:47:34.000Z</time>
</trkpt>
<trkpt lat="46.0457660" lon="10.3244230">
	<ele>1269.40</ele>
	<time>2025-07-30T06:47:35.000Z</time>
</trkpt>
<trkpt lat="46.0457690" lon="10.3244170">
	<ele>1269.40</ele>
	<time>2025-07-30T06:47:36.000Z</time>
</trkpt>
<trkpt lat="46.0457710" lon="10.3244130">
	<ele>1269.80</ele>
	<time>2025-07-30T06:47:37.000Z</time>
</trkpt>
<trkpt lat="46.0457610" lon="10.3243990">
	<ele>1270.20</ele>
	<time>2025-07-30T06:47:38.000Z</time>
</trkpt>
<trkpt lat="46.0457600" lon="10.3243820">
	<ele>1270.40</ele>
	<time>2025-07-30T06:47:39.000Z</time>
</trkpt>
<trkpt lat="46.0457590" lon="10.3243690">
	<ele>1270.80</ele>
	<time>2025-07-30T06:47:40.000Z</time>
</trkpt>
<trkpt lat="46.0457570" lon="10.3243610">
	<ele>1271.00</ele>
	<time>2025-07-30T06:47:41.000Z</time>
</trkpt>
<trkpt lat="46.0457570" lon="10.3243490">
	<ele>1271.20</ele>
	<time>2025-07-30T06:47:42.000Z</time>
</trkpt>
<trkpt lat="46.0457590" lon="10.3243260">
	<ele>1271.20</ele>
	<time>2025-07-30T06:47:43.000Z</time>
</trkpt>
<trkpt lat="46.0457600" lon="10.3243240">
	<ele>1271.40</ele>
	<time>2025-07-30T06:47:44.000Z</time>
</trkpt>
<trkpt lat="46.0457600" lon="10.3243200">
	<ele>1271.40</ele>
	<time>2025-07-30T06:47:45.000Z</time>
</trkpt>
<trkpt lat="46.0457550" lon="10.3243130">
	<ele>1271.40</ele>
	<time>2025-07-30T06:47:46.000Z</time>
</trkpt>
<trkpt lat="46.0457480" lon="10.3243060">
	<ele>1271.60</ele>
	<time>2025-07-30T06:47:47.000Z</time>
</trkpt>
<trkpt lat="46.0457430" lon="10.3243030">
	<ele>1271.60</ele>
	<time>2025-07-30T06:47:48.000Z</time>
</trkpt>
<trkpt lat="46.0457380" lon="10.3242970">
	<ele>1271.80</ele>
	<time>2025-07-30T06:47:49.000Z</time>
</trkpt>
<trkpt lat="46.0457310" lon="10.3242910">
	<ele>1271.80</ele>
	<time>2025-07-30T06:47:50.000Z</time>
</trkpt>
<trkpt lat="46.0457270" lon="10.3242880">
	<ele>1272.00</ele>
	<time>2025-07-30T06:47:51.000Z</time>
</trkpt>
<trkpt lat="46.0457190" lon="10.3242810">
	<ele>1272.20</ele>
	<time>2025-07-30T06:47:52.000Z</time>
</trkpt>
<trkpt lat="46.0457130" lon="10.3242770">
	<ele>1272.40</ele>
	<time>2025-07-30T06:47:53.000Z</time>
</trkpt>
<trkpt lat="46.0457100" lon="10.3242740">
	<ele>1272.40</ele>
	<time>2025-07-30T06:47:54.000Z</time>
</trkpt>
<trkpt lat="46.0457100" lon="10.3242750">
	<ele>1272.40</ele>
	<time>2025-07-30T06:47:55.000Z</time>
</trkpt>
<trkpt lat="46.0457060" lon="10.3242730">
	<ele>1272.40</ele>
	<time>2025-07-30T06:47:56.000Z</time>
</trkpt>
<trkpt lat="46.0456990" lon="10.3242720">
	<ele>1272.40</ele>
	<time>2025-07-30T06:47:57.000Z</time>
</trkpt>
<trkpt lat="46.0456960" lon="10.3242730">
	<ele>1272.40</ele>
	<time>2025-07-30T06:47:58.000Z</time>
</trkpt>
<trkpt lat="46.0456930" lon="10.3242710">
	<ele>1272.60</ele>
	<time>2025-07-30T06:47:59.000Z</time>
</trkpt>
<trkpt lat="46.0456930" lon="10.3242660">
	<ele>1272.80</ele>
	<time>2025-07-30T06:48:00.000Z</time>
</trkpt>
<trkpt lat="46.0456920" lon="10.3242550">
	<ele>1272.80</ele>
	<time>2025-07-30T06:48:01.000Z</time>
</trkpt>
<trkpt lat="46.0456910" lon="10.3242470">
	<ele>1272.80</ele>
	<time>2025-07-30T06:48:02.000Z</time>
</trkpt>
<trkpt lat="46.0456850" lon="10.3242380">
	<ele>1272.80</ele>
	<time>2025-07-30T06:48:03.000Z</time>
</trkpt>
<trkpt lat="46.0456820" lon="10.3242330">
	<ele>1272.80</ele>
	<time>2025-07-30T06:48:04.000Z</time>
</trkpt>
<trkpt lat="46.0456880" lon="10.3242280">
	<ele>1273.00</ele>
	<time>2025-07-30T06:48:05.000Z</time>
</trkpt>
<trkpt lat="46.0456910" lon="10.3242230">
	<ele>1273.00</ele>
	<time>2025-07-30T06:48:06.000Z</time>
</trkpt>
<trkpt lat="46.0456930" lon="10.3242240">
	<ele>1273.00</ele>
	<time>2025-07-30T06:48:07.000Z</time>
</trkpt>
<trkpt lat="46.0456900" lon="10.3242200">
	<ele>1273.00</ele>
	<time>2025-07-30T06:48:08.000Z</time>
</trkpt>
<trkpt lat="46.0456860" lon="10.3242190">
	<ele>1273.00</ele>
	<time>2025-07-30T06:48:09.000Z</time>
</trkpt>
<trkpt lat="46.0456840" lon="10.3242200">
	<ele>1273.00</ele>
	<time>2025-07-30T06:48:10.000Z</time>
</trkpt>
<trkpt lat="46.0456840" lon="10.3242210">
	<ele>1273.00</ele>
	<time>2025-07-30T06:48:11.000Z</time>
</trkpt>
<trkpt lat="46.0456860" lon="10.3242210">
	<ele>1273.00</ele>
	<time>2025-07-30T06:48:12.000Z</time>
</trkpt>
<trkpt lat="46.0456870" lon="10.3242230">
	<ele>1273.00</ele>
	<time>2025-07-30T06:48:13.000Z</time>
</trkpt>
<trkpt lat="46.0456880" lon="10.3242210">
	<ele>1273.00</ele>
	<time>2025-07-30T06:48:14.000Z</time>
</trkpt>
<trkpt lat="46.0456890" lon="10.3242220">
	<ele>1273.20</ele>
	<time>2025-07-30T06:48:15.000Z</time>
</trkpt>
<trkpt lat="46.0456890" lon="10.3242220">
	<ele>1273.20</ele>
	<time>2025-07-30T06:48:16.000Z</time>
</trkpt>
<trkpt lat="46.0456890" lon="10.3242220">
	<ele>1273.20</ele>
	<time>2025-07-30T06:48:17.000Z</time>
</trkpt>
<trkpt lat="46.0456890" lon="10.3242220">
	<ele>1273.20</ele>
	<time>2025-07-30T06:48:18.000Z</time>
</trkpt>
<trkpt lat="46.0456890" lon="10.3242220">
	<ele>1273.20</ele>
	<time>2025-07-30T06:48:19.000Z</time>
</trkpt>
<trkpt lat="46.0456890" lon="10.3242220">
	<ele>1273.20</ele>
	<time>2025-07-30T06:48:20.000Z</time>
</trkpt>
<trkpt lat="46.0456890" lon="10.3242220">
	<ele>1273.20</ele>
	<time>2025-07-30T06:48:21.000Z</time>
</trkpt>
<trkpt lat="46.0456890" lon="10.3242220">
	<ele>1273.20</ele>
	<time>2025-07-30T06:48:22.000Z</time>
</trkpt>
<trkpt lat="46.0456890" lon="10.3242220">
	<ele>1273.20</ele>
	<time>2025-07-30T06:48:23.000Z</time>
</trkpt>
<trkpt lat="46.0456890" lon="10.3242220">
	<ele>1273.20</ele>
	<time>2025-07-30T06:48:24.000Z</time>
</trkpt>
<trkpt lat="46.0456890" lon="10.3242220">
	<ele>1273.20</ele>
	<time>2025-07-30T06:48:25.000Z</time>
</trkpt>
<trkpt lat="46.0456880" lon="10.3242210">
	<ele>1273.20</ele>
	<time>2025-07-30T06:48:26.000Z</time>
</trkpt>
<trkpt lat="46.0456880" lon="10.3242210">
	<ele>1273.20</ele>
	<time>2025-07-30T06:48:27.000Z</time>
</trkpt>
<trkpt lat="46.0456870" lon="10.3242210">
	<ele>1273.20</ele>
	<time>2025-07-30T06:48:28.000Z</time>
</trkpt>
<trkpt lat="46.0456870" lon="10.3242200">
	<ele>1273.20</ele>
	<time>2025-07-30T06:48:29.000Z</time>
</trkpt>
<trkpt lat="46.0456860" lon="10.3242200">
	<ele>1273.20</ele>
	<time>2025-07-30T06:48:30.000Z</time>
</trkpt>
<trkpt lat="46.0456860" lon="10.3242200">
	<ele>1273.20</ele>
	<time>2025-07-30T06:48:31.000Z</time>
</trkpt>
<trkpt lat="46.0456840" lon="10.3242190">
	<ele>1273.20</ele>
	<time>2025-07-30T06:48:32.000Z</time>
</trkpt>
<trkpt lat="46.0456840" lon="10.3242190">
	<ele>1273.40</ele>
	<time>2025-07-30T06:48:33.000Z</time>
</trkpt>
<trkpt lat="46.0456840" lon="10.3242160">
	<ele>1273.60</ele>
	<time>2025-07-30T06:48:34.000Z</time>
</trkpt>
<trkpt lat="46.0456840" lon="10.3242150">
	<ele>1273.60</ele>
	<time>2025-07-30T06:48:35.000Z</time>
</trkpt>
<trkpt lat="46.0456840" lon="10.3242150">
	<ele>1273.80</ele>
	<time>2025-07-30T06:48:36.000Z</time>
</trkpt>
<trkpt lat="46.0456840" lon="10.3242040">
	<ele>1273.80</ele>
	<time>2025-07-30T06:48:37.000Z</time>
</trkpt>
<trkpt lat="46.0456850" lon="10.3241780">
	<ele>1274.00</ele>
	<time>2025-07-30T06:48:38.000Z</time>
</trkpt>
<trkpt lat="46.0456880" lon="10.3241510">
	<ele>1274.00</ele>
	<time>2025-07-30T06:48:39.000Z</time>
</trkpt>
<trkpt lat="46.0456920" lon="10.3241280">
	<ele>1274.20</ele>
	<time>2025-07-30T06:48:40.000Z</time>
</trkpt>
<trkpt lat="46.0456950" lon="10.3241050">
	<ele>1274.20</ele>
	<time>2025-07-30T06:48:41.000Z</time>
</trkpt>
<trkpt lat="46.0456920" lon="10.3240820">
	<ele>1274.20</ele>
	<time>2025-07-30T06:48:42.000Z</time>
</trkpt>
<trkpt lat="46.0456910" lon="10.3240540">
	<ele>1274.20</ele>
	<time>2025-07-30T06:48:43.000Z</time>
</trkpt>
<trkpt lat="46.0456900" lon="10.3240270">
	<ele>1274.20</ele>
	<time>2025-07-30T06:48:44.000Z</time>
</trkpt>
<trkpt lat="46.0456920" lon="10.3240000">
	<ele>1274.20</ele>
	<time>2025-07-30T06:48:45.000Z</time>
</trkpt>
<trkpt lat="46.0456960" lon="10.3239760">
	<ele>1274.20</ele>
	<time>2025-07-30T06:48:46.000Z</time>
</trkpt>
<trkpt lat="46.0456950" lon="10.3239600">
	<ele>1274.20</ele>
	<time>2025-07-30T06:48:47.000Z</time>
</trkpt>
<trkpt lat="46.0456970" lon="10.3239410">
	<ele>1274.20</ele>
	<time>2025-07-30T06:48:48.000Z</time>
</trkpt>
<trkpt lat="46.0456990" lon="10.3239260">
	<ele>1274.40</ele>
	<time>2025-07-30T06:48:49.000Z</time>
</trkpt>
<trkpt lat="46.0457010" lon="10.3239140">
	<ele>1274.60</ele>
	<time>2025-07-30T06:48:50.000Z</time>
</trkpt>
<trkpt lat="46.0457010" lon="10.3239010">
	<ele>1274.80</ele>
	<time>2025-07-30T06:48:51.000Z</time>
</trkpt>
<trkpt lat="46.0457020" lon="10.3238910">
	<ele>1275.00</ele>
	<time>2025-07-30T06:48:52.000Z</time>
</trkpt>
<trkpt lat="46.0456990" lon="10.3238820">
	<ele>1275.20</ele>
	<time>2025-07-30T06:48:53.000Z</time>
</trkpt>
<trkpt lat="46.0456990" lon="10.3238690">
	<ele>1275.40</ele>
	<time>2025-07-30T06:48:54.000Z</time>
</trkpt>
<trkpt lat="46.0456970" lon="10.3238540">
	<ele>1275.60</ele>
	<time>2025-07-30T06:48:55.000Z</time>
</trkpt>
<trkpt lat="46.0456930" lon="10.3238430">
	<ele>1275.80</ele>
	<time>2025-07-30T06:48:56.000Z</time>
</trkpt>
<trkpt lat="46.0456920" lon="10.3238320">
	<ele>1276.00</ele>
	<time>2025-07-30T06:48:57.000Z</time>
</trkpt>
<trkpt lat="46.0456990" lon="10.3238260">
	<ele>1276.20</ele>
	<time>2025-07-30T06:48:58.000Z</time>
</trkpt>
<trkpt lat="46.0457050" lon="10.3238190">
	<ele>1276.40</ele>
	<time>2025-07-30T06:48:59.000Z</time>
</trkpt>
<trkpt lat="46.0457080" lon="10.3238080">
	<ele>1276.40</ele>
	<time>2025-07-30T06:49:00.000Z</time>
</trkpt>
<trkpt lat="46.0457120" lon="10.3237980">
	<ele>1276.60</ele>
	<time>2025-07-30T06:49:01.000Z</time>
</trkpt>
<trkpt lat="46.0457110" lon="10.3237910">
	<ele>1276.60</ele>
	<time>2025-07-30T06:49:02.000Z</time>
</trkpt>
<trkpt lat="46.0457190" lon="10.3237780">
	<ele>1276.80</ele>
	<time>2025-07-30T06:49:03.000Z</time>
</trkpt>
<trkpt lat="46.0457310" lon="10.3237640">
	<ele>1276.80</ele>
	<time>2025-07-30T06:49:04.000Z</time>
</trkpt>
<trkpt lat="46.0457410" lon="10.3237520">
	<ele>1277.00</ele>
	<time>2025-07-30T06:49:05.000Z</time>
</trkpt>
<trkpt lat="46.0457450" lon="10.3237390">
	<ele>1277.00</ele>
	<time>2025-07-30T06:49:06.000Z</time>
</trkpt>
<trkpt lat="46.0457440" lon="10.3237280">
	<ele>1277.00</ele>
	<time>2025-07-30T06:49:07.000Z</time>
</trkpt>
<trkpt lat="46.0457480" lon="10.3237210">
	<ele>1277.00</ele>
	<time>2025-07-30T06:49:08.000Z</time>
</trkpt>
<trkpt lat="46.0457560" lon="10.3237080">
	<ele>1277.20</ele>
	<time>2025-07-30T06:49:09.000Z</time>
</trkpt>
<trkpt lat="46.0457660" lon="10.3236980">
	<ele>1277.20</ele>
	<time>2025-07-30T06:49:10.000Z</time>
</trkpt>
<trkpt lat="46.0457700" lon="10.3236860">
	<ele>1277.20</ele>
	<time>2025-07-30T06:49:11.000Z</time>
</trkpt>
<trkpt lat="46.0457630" lon="10.3236690">
	<ele>1277.20</ele>
	<time>2025-07-30T06:49:12.000Z</time>
</trkpt>
<trkpt lat="46.0457570" lon="10.3236520">
	<ele>1277.20</ele>
	<time>2025-07-30T06:49:13.000Z</time>
</trkpt>
<trkpt lat="46.0457560" lon="10.3236450">
	<ele>1277.40</ele>
	<time>2025-07-30T06:49:14.000Z</time>
</trkpt>
<trkpt lat="46.0457640" lon="10.3236340">
	<ele>1277.40</ele>
	<time>2025-07-30T06:49:15.000Z</time>
</trkpt>
<trkpt lat="46.0457730" lon="10.3236220">
	<ele>1277.60</ele>
	<time>2025-07-30T06:49:16.000Z</time>
</trkpt>
<trkpt lat="46.0457800" lon="10.3236050">
	<ele>1277.60</ele>
	<time>2025-07-30T06:49:17.000Z</time>
</trkpt>
<trkpt lat="46.0457880" lon="10.3235900">
	<ele>1277.80</ele>
	<time>2025-07-30T06:49:18.000Z</time>
</trkpt>
<trkpt lat="46.0457910" lon="10.3235750">
	<ele>1277.80</ele>
	<time>2025-07-30T06:49:19.000Z</time>
</trkpt>
<trkpt lat="46.0457930" lon="10.3235630">
	<ele>1278.00</ele>
	<time>2025-07-30T06:49:20.000Z</time>
</trkpt>
<trkpt lat="46.0458000" lon="10.3235560">
	<ele>1278.00</ele>
	<time>2025-07-30T06:49:21.000Z</time>
</trkpt>
<trkpt lat="46.0458060" lon="10.3235470">
	<ele>1278.20</ele>
	<time>2025-07-30T06:49:22.000Z</time>
</trkpt>
<trkpt lat="46.0458150" lon="10.3235410">
	<ele>1278.40</ele>
	<time>2025-07-30T06:49:23.000Z</time>
</trkpt>
<trkpt lat="46.0458210" lon="10.3235370">
	<ele>1278.60</ele>
	<time>2025-07-30T06:49:24.000Z</time>
</trkpt>
<trkpt lat="46.0458270" lon="10.3235320">
	<ele>1278.60</ele>
	<time>2025-07-30T06:49:25.000Z</time>
</trkpt>
<trkpt lat="46.0458320" lon="10.3235250">
	<ele>1278.80</ele>
	<time>2025-07-30T06:49:26.000Z</time>
</trkpt>
<trkpt lat="46.0458380" lon="10.3235180">
	<ele>1279.00</ele>
	<time>2025-07-30T06:49:27.000Z</time>
</trkpt>
<trkpt lat="46.0458500" lon="10.3235150">
	<ele>1279.20</ele>
	<time>2025-07-30T06:49:28.000Z</time>
</trkpt>
<trkpt lat="46.0458560" lon="10.3235110">
	<ele>1279.20</ele>
	<time>2025-07-30T06:49:29.000Z</time>
</trkpt>
<trkpt lat="46.0458640" lon="10.3235080">
	<ele>1279.60</ele>
	<time>2025-07-30T06:49:30.000Z</time>
</trkpt>
<trkpt lat="46.0458700" lon="10.3235050">
	<ele>1279.80</ele>
	<time>2025-07-30T06:49:31.000Z</time>
</trkpt>
<trkpt lat="46.0458770" lon="10.3235010">
	<ele>1279.80</ele>
	<time>2025-07-30T06:49:32.000Z</time>
</trkpt>
<trkpt lat="46.0458820" lon="10.3234950">
	<ele>1280.00</ele>
	<time>2025-07-30T06:49:33.000Z</time>
</trkpt>
<trkpt lat="46.0458900" lon="10.3234950">
	<ele>1280.20</ele>
	<time>2025-07-30T06:49:34.000Z</time>
</trkpt>
<trkpt lat="46.0458960" lon="10.3234940">
	<ele>1280.20</ele>
	<time>2025-07-30T06:49:35.000Z</time>
</trkpt>
<trkpt lat="46.0459070" lon="10.3234890">
	<ele>1280.40</ele>
	<time>2025-07-30T06:49:36.000Z</time>
</trkpt>
<trkpt lat="46.0459190" lon="10.3234870">
	<ele>1280.80</ele>
	<time>2025-07-30T06:49:37.000Z</time>
</trkpt>
<trkpt lat="46.0459260" lon="10.3234820">
	<ele>1281.00</ele>
	<time>2025-07-30T06:49:38.000Z</time>
</trkpt>
<trkpt lat="46.0459360" lon="10.3234820">
	<ele>1281.20</ele>
	<time>2025-07-30T06:49:39.000Z</time>
</trkpt>
<trkpt lat="46.0459420" lon="10.3234770">
	<ele>1281.40</ele>
	<time>2025-07-30T06:49:40.000Z</time>
</trkpt>
<trkpt lat="46.0459470" lon="10.3234660">
	<ele>1281.60</ele>
	<time>2025-07-30T06:49:41.000Z</time>
</trkpt>
<trkpt lat="46.0459520" lon="10.3234570">
	<ele>1281.80</ele>
	<time>2025-07-30T06:49:42.000Z</time>
</trkpt>
<trkpt lat="46.0459590" lon="10.3234490">
	<ele>1282.00</ele>
	<time>2025-07-30T06:49:43.000Z</time>
</trkpt>
<trkpt lat="46.0459650" lon="10.3234420">
	<ele>1282.00</ele>
	<time>2025-07-30T06:49:44.000Z</time>
</trkpt>
<trkpt lat="46.0459740" lon="10.3234360">
	<ele>1282.20</ele>
	<time>2025-07-30T06:49:45.000Z</time>
</trkpt>
<trkpt lat="46.0459800" lon="10.3234270">
	<ele>1282.40</ele>
	<time>2025-07-30T06:49:46.000Z</time>
</trkpt>
<trkpt lat="46.0459850" lon="10.3234200">
	<ele>1282.40</ele>
	<time>2025-07-30T06:49:47.000Z</time>
</trkpt>
<trkpt lat="46.0459910" lon="10.3234130">
	<ele>1282.60</ele>
	<time>2025-07-30T06:49:48.000Z</time>
</trkpt>
<trkpt lat="46.0459910" lon="10.3234090">
	<ele>1282.80</ele>
	<time>2025-07-30T06:49:49.000Z</time>
</trkpt>
<trkpt lat="46.0459940" lon="10.3234040">
	<ele>1283.00</ele>
	<time>2025-07-30T06:49:50.000Z</time>
</trkpt>
<trkpt lat="46.0460000" lon="10.3233940">
	<ele>1283.20</ele>
	<time>2025-07-30T06:49:51.000Z</time>
</trkpt>
<trkpt lat="46.0460070" lon="10.3233930">
	<ele>1283.40</ele>
	<time>2025-07-30T06:49:52.000Z</time>
</trkpt>
<trkpt lat="46.0460130" lon="10.3233910">
	<ele>1283.40</ele>
	<time>2025-07-30T06:49:53.000Z</time>
</trkpt>
<trkpt lat="46.0460190" lon="10.3233870">
	<ele>1283.60</ele>
	<time>2025-07-30T06:49:54.000Z</time>
</trkpt>
<trkpt lat="46.0460240" lon="10.3233880">
	<ele>1283.80</ele>
	<time>2025-07-30T06:49:55.000Z</time>
</trkpt>
<trkpt lat="46.0460310" lon="10.3233850">
	<ele>1284.00</ele>
	<time>2025-07-30T06:49:56.000Z</time>
</trkpt>
<trkpt lat="46.0460370" lon="10.3233800">
	<ele>1284.20</ele>
	<time>2025-07-30T06:49:57.000Z</time>
</trkpt>
<trkpt lat="46.0460380" lon="10.3233750">
	<ele>1284.40</ele>
	<time>2025-07-30T06:49:58.000Z</time>
</trkpt>
<trkpt lat="46.0460340" lon="10.3233630">
	<ele>1284.60</ele>
	<time>2025-07-30T06:49:59.000Z</time>
</trkpt>
<trkpt lat="46.0460330" lon="10.3233510">
	<ele>1284.80</ele>
	<time>2025-07-30T06:50:00.000Z</time>
</trkpt>
<trkpt lat="46.0460340" lon="10.3233450">
	<ele>1285.00</ele>
	<time>2025-07-30T06:50:01.000Z</time>
</trkpt>
<trkpt lat="46.0460340" lon="10.3233400">
	<ele>1285.20</ele>
	<time>2025-07-30T06:50:02.000Z</time>
</trkpt>
<trkpt lat="46.0460360" lon="10.3233370">
	<ele>1285.40</ele>
	<time>2025-07-30T06:50:03.000Z</time>
</trkpt>
<trkpt lat="46.0460410" lon="10.3233280">
	<ele>1285.60</ele>
	<time>2025-07-30T06:50:04.000Z</time>
</trkpt>
<trkpt lat="46.0460450" lon="10.3233130">
	<ele>1285.80</ele>
	<time>2025-07-30T06:50:05.000Z</time>
</trkpt>
<trkpt lat="46.0460530" lon="10.3233050">
	<ele>1286.00</ele>
	<time>2025-07-30T06:50:06.000Z</time>
</trkpt>
<trkpt lat="46.0460530" lon="10.3232950">
	<ele>1286.20</ele>
	<time>2025-07-30T06:50:07.000Z</time>
</trkpt>
<trkpt lat="46.0460540" lon="10.3232890">
	<ele>1286.40</ele>
	<time>2025-07-30T06:50:08.000Z</time>
</trkpt>
<trkpt lat="46.0460630" lon="10.3232810">
	<ele>1286.60</ele>
	<time>2025-07-30T06:50:09.000Z</time>
</trkpt>
<trkpt lat="46.0460660" lon="10.3232690">
	<ele>1286.80</ele>
	<time>2025-07-30T06:50:10.000Z</time>
</trkpt>
<trkpt lat="46.0460710" lon="10.3232540">
	<ele>1287.00</ele>
	<time>2025-07-30T06:50:11.000Z</time>
</trkpt>
<trkpt lat="46.0460630" lon="10.3232370">
	<ele>1287.20</ele>
	<time>2025-07-30T06:50:12.000Z</time>
</trkpt>
<trkpt lat="46.0460620" lon="10.3232250">
	<ele>1287.20</ele>
	<time>2025-07-30T06:50:13.000Z</time>
</trkpt>
<trkpt lat="46.0460640" lon="10.3232140">
	<ele>1287.60</ele>
	<time>2025-07-30T06:50:14.000Z</time>
</trkpt>
<trkpt lat="46.0460680" lon="10.3232070">
	<ele>1287.80</ele>
	<time>2025-07-30T06:50:15.000Z</time>
</trkpt>
<trkpt lat="46.0460680" lon="10.3231960">
	<ele>1288.00</ele>
	<time>2025-07-30T06:50:16.000Z</time>
</trkpt>
<trkpt lat="46.0460690" lon="10.3231840">
	<ele>1288.20</ele>
	<time>2025-07-30T06:50:17.000Z</time>
</trkpt>
<trkpt lat="46.0460660" lon="10.3231700">
	<ele>1288.40</ele>
	<time>2025-07-30T06:50:18.000Z</time>
</trkpt>
<trkpt lat="46.0460650" lon="10.3231560">
	<ele>1288.60</ele>
	<time>2025-07-30T06:50:19.000Z</time>
</trkpt>
<trkpt lat="46.0460600" lon="10.3231470">
	<ele>1288.80</ele>
	<time>2025-07-30T06:50:20.000Z</time>
</trkpt>
<trkpt lat="46.0460590" lon="10.3231370">
	<ele>1289.00</ele>
	<time>2025-07-30T06:50:21.000Z</time>
</trkpt>
<trkpt lat="46.0460560" lon="10.3231320">
	<ele>1289.00</ele>
	<time>2025-07-30T06:50:22.000Z</time>
</trkpt>
<trkpt lat="46.0460460" lon="10.3231230">
	<ele>1289.20</ele>
	<time>2025-07-30T06:50:23.000Z</time>
</trkpt>
<trkpt lat="46.0460380" lon="10.3231140">
	<ele>1289.40</ele>
	<time>2025-07-30T06:50:24.000Z</time>
</trkpt>
<trkpt lat="46.0460410" lon="10.3231020">
	<ele>1289.60</ele>
	<time>2025-07-30T06:50:25.000Z</time>
</trkpt>
<trkpt lat="46.0460470" lon="10.3230900">
	<ele>1290.00</ele>
	<time>2025-07-30T06:50:26.000Z</time>
</trkpt>
<trkpt lat="46.0460520" lon="10.3230810">
	<ele>1290.00</ele>
	<time>2025-07-30T06:50:27.000Z</time>
</trkpt>
<trkpt lat="46.0460550" lon="10.3230750">
	<ele>1290.20</ele>
	<time>2025-07-30T06:50:28.000Z</time>
</trkpt>
<trkpt lat="46.0460590" lon="10.3230690">
	<ele>1290.40</ele>
	<time>2025-07-30T06:50:29.000Z</time>
</trkpt>
<trkpt lat="46.0460600" lon="10.3230620">
	<ele>1290.60</ele>
	<time>2025-07-30T06:50:30.000Z</time>
</trkpt>
<trkpt lat="46.0460670" lon="10.3230500">
	<ele>1290.80</ele>
	<time>2025-07-30T06:50:31.000Z</time>
</trkpt>
<trkpt lat="46.0460680" lon="10.3230420">
	<ele>1291.00</ele>
	<time>2025-07-30T06:50:32.000Z</time>
</trkpt>
<trkpt lat="46.0460690" lon="10.3230320">
	<ele>1291.20</ele>
	<time>2025-07-30T06:50:33.000Z</time>
</trkpt>
<trkpt lat="46.0460660" lon="10.3230250">
	<ele>1291.40</ele>
	<time>2025-07-30T06:50:34.000Z</time>
</trkpt>
<trkpt lat="46.0460660" lon="10.3230200">
	<ele>1291.60</ele>
	<time>2025-07-30T06:50:35.000Z</time>
</trkpt>
<trkpt lat="46.0460660" lon="10.3230160">
	<ele>1291.80</ele>
	<time>2025-07-30T06:50:36.000Z</time>
</trkpt>
<trkpt lat="46.0460640" lon="10.3230200">
	<ele>1291.80</ele>
	<time>2025-07-30T06:50:37.000Z</time>
</trkpt>
<trkpt lat="46.0460620" lon="10.3230140">
	<ele>1292.20</ele>
	<time>2025-07-30T06:50:38.000Z</time>
</trkpt>
<trkpt lat="46.0460600" lon="10.3230080">
	<ele>1292.40</ele>
	<time>2025-07-30T06:50:39.000Z</time>
</trkpt>
<trkpt lat="46.0460600" lon="10.3229990">
	<ele>1292.80</ele>
	<time>2025-07-30T06:50:40.000Z</time>
</trkpt>
<trkpt lat="46.0460610" lon="10.3229900">
	<ele>1292.80</ele>
	<time>2025-07-30T06:50:41.000Z</time>
</trkpt>
<trkpt lat="46.0460610" lon="10.3229810">
	<ele>1293.00</ele>
	<time>2025-07-30T06:50:42.000Z</time>
</trkpt>
<trkpt lat="46.0460600" lon="10.3229690">
	<ele>1293.20</ele>
	<time>2025-07-30T06:50:43.000Z</time>
</trkpt>
<trkpt lat="46.0460590" lon="10.3229590">
	<ele>1293.20</ele>
	<time>2025-07-30T06:50:44.000Z</time>
</trkpt>
<trkpt lat="46.0460560" lon="10.3229460">
	<ele>1293.40</ele>
	<time>2025-07-30T06:50:45.000Z</time>
</trkpt>
<trkpt lat="46.0460550" lon="10.3229360">
	<ele>1293.60</ele>
	<time>2025-07-30T06:50:46.000Z</time>
</trkpt>
<trkpt lat="46.0460580" lon="10.3229290">
	<ele>1293.80</ele>
	<time>2025-07-30T06:50:47.000Z</time>
</trkpt>
<trkpt lat="46.0460590" lon="10.3229210">
	<ele>1294.00</ele>
	<time>2025-07-30T06:50:48.000Z</time>
</trkpt>
<trkpt lat="46.0460610" lon="10.3229100">
	<ele>1294.00</ele>
	<time>2025-07-30T06:50:49.000Z</time>
</trkpt>
<trkpt lat="46.0460630" lon="10.3228970">
	<ele>1294.20</ele>
	<time>2025-07-30T06:50:50.000Z</time>
</trkpt>
<trkpt lat="46.0460640" lon="10.3228840">
	<ele>1294.40</ele>
	<time>2025-07-30T06:50:51.000Z</time>
</trkpt>
<trkpt lat="46.0460660" lon="10.3228740">
	<ele>1294.40</ele>
	<time>2025-07-30T06:50:52.000Z</time>
</trkpt>
<trkpt lat="46.0460690" lon="10.3228620">
	<ele>1294.40</ele>
	<time>2025-07-30T06:50:53.000Z</time>
</trkpt>
<trkpt lat="46.0460690" lon="10.3228480">
	<ele>1294.80</ele>
	<time>2025-07-30T06:50:54.000Z</time>
</trkpt>
<trkpt lat="46.0460710" lon="10.3228340">
	<ele>1295.00</ele>
	<time>2025-07-30T06:50:55.000Z</time>
</trkpt>
<trkpt lat="46.0460730" lon="10.3228210">
	<ele>1295.20</ele>
	<time>2025-07-30T06:50:56.000Z</time>
</trkpt>
<trkpt lat="46.0460770" lon="10.3228110">
	<ele>1295.40</ele>
	<time>2025-07-30T06:50:57.000Z</time>
</trkpt>
<trkpt lat="46.0460810" lon="10.3228070">
	<ele>1295.40</ele>
	<time>2025-07-30T06:50:58.000Z</time>
</trkpt>
<trkpt lat="46.0460880" lon="10.3228040">
	<ele>1295.40</ele>
	<time>2025-07-30T06:50:59.000Z</time>
</trkpt>
<trkpt lat="46.0460950" lon="10.3227970">
	<ele>1295.60</ele>
	<time>2025-07-30T06:51:00.000Z</time>
</trkpt>
<trkpt lat="46.0460990" lon="10.3227920">
	<ele>1295.60</ele>
	<time>2025-07-30T06:51:01.000Z</time>
</trkpt>
<trkpt lat="46.0461030" lon="10.3227880">
	<ele>1295.80</ele>
	<time>2025-07-30T06:51:02.000Z</time>
</trkpt>
<trkpt lat="46.0461120" lon="10.3227810">
	<ele>1296.00</ele>
	<time>2025-07-30T06:51:03.000Z</time>
</trkpt>
<trkpt lat="46.0461200" lon="10.3227700">
	<ele>1296.20</ele>
	<time>2025-07-30T06:51:04.000Z</time>
</trkpt>
<trkpt lat="46.0461220" lon="10.3227650">
	<ele>1296.20</ele>
	<time>2025-07-30T06:51:05.000Z</time>
</trkpt>
<trkpt lat="46.0461300" lon="10.3227630">
	<ele>1296.60</ele>
	<time>2025-07-30T06:51:06.000Z</time>
</trkpt>
<trkpt lat="46.0461320" lon="10.3227510">
	<ele>1296.60</ele>
	<time>2025-07-30T06:51:07.000Z</time>
</trkpt>
<trkpt lat="46.0461360" lon="10.3227400">
	<ele>1296.80</ele>
	<time>2025-07-30T06:51:08.000Z</time>
</trkpt>
<trkpt lat="46.0461380" lon="10.3227310">
	<ele>1296.80</ele>
	<time>2025-07-30T06:51:09.000Z</time>
</trkpt>
<trkpt lat="46.0461380" lon="10.3227230">
	<ele>1297.00</ele>
	<time>2025-07-30T06:51:10.000Z</time>
</trkpt>
<trkpt lat="46.0461370" lon="10.3227160">
	<ele>1297.00</ele>
	<time>2025-07-30T06:51:11.000Z</time>
</trkpt>
<trkpt lat="46.0461330" lon="10.3227010">
	<ele>1297.20</ele>
	<time>2025-07-30T06:51:12.000Z</time>
</trkpt>
<trkpt lat="46.0461330" lon="10.3226910">
	<ele>1297.40</ele>
	<time>2025-07-30T06:51:13.000Z</time>
</trkpt>
<trkpt lat="46.0461310" lon="10.3226810">
	<ele>1297.60</ele>
	<time>2025-07-30T06:51:14.000Z</time>
</trkpt>
<trkpt lat="46.0461290" lon="10.3226740">
	<ele>1297.80</ele>
	<time>2025-07-30T06:51:15.000Z</time>
</trkpt>
<trkpt lat="46.0461180" lon="10.3226710">
	<ele>1298.00</ele>
	<time>2025-07-30T06:51:16.000Z</time>
</trkpt>
<trkpt lat="46.0461090" lon="10.3226650">
	<ele>1298.20</ele>
	<time>2025-07-30T06:51:17.000Z</time>
</trkpt>
<trkpt lat="46.0461080" lon="10.3226540">
	<ele>1298.40</ele>
	<time>2025-07-30T06:51:18.000Z</time>
</trkpt>
<trkpt lat="46.0461120" lon="10.3226440">
	<ele>1298.60</ele>
	<time>2025-07-30T06:51:19.000Z</time>
</trkpt>
<trkpt lat="46.0461130" lon="10.3226290">
	<ele>1298.80</ele>
	<time>2025-07-30T06:51:20.000Z</time>
</trkpt>
<trkpt lat="46.0461160" lon="10.3226160">
	<ele>1299.00</ele>
	<time>2025-07-30T06:51:21.000Z</time>
</trkpt>
<trkpt lat="46.0461180" lon="10.3226070">
	<ele>1299.20</ele>
	<time>2025-07-30T06:51:22.000Z</time>
</trkpt>
<trkpt lat="46.0461160" lon="10.3225970">
	<ele>1299.20</ele>
	<time>2025-07-30T06:51:23.000Z</time>
</trkpt>
<trkpt lat="46.0461230" lon="10.3225850">
	<ele>1299.40</ele>
	<time>2025-07-30T06:51:24.000Z</time>
</trkpt>
<trkpt lat="46.0461240" lon="10.3225750">
	<ele>1299.60</ele>
	<time>2025-07-30T06:51:25.000Z</time>
</trkpt>
<trkpt lat="46.0461080" lon="10.3225680">
	<ele>1299.80</ele>
	<time>2025-07-30T06:51:26.000Z</time>
</trkpt>
<trkpt lat="46.0461040" lon="10.3225600">
	<ele>1299.80</ele>
	<time>2025-07-30T06:51:27.000Z</time>
</trkpt>
<trkpt lat="46.0460990" lon="10.3225500">
	<ele>1300.00</ele>
	<time>2025-07-30T06:51:28.000Z</time>
</trkpt>
<trkpt lat="46.0461090" lon="10.3225430">
	<ele>1300.00</ele>
	<time>2025-07-30T06:51:29.000Z</time>
</trkpt>
<trkpt lat="46.0461150" lon="10.3225290">
	<ele>1300.20</ele>
	<time>2025-07-30T06:51:30.000Z</time>
</trkpt>
<trkpt lat="46.0461130" lon="10.3225100">
	<ele>1300.20</ele>
	<time>2025-07-30T06:51:31.000Z</time>
</trkpt>
<trkpt lat="46.0461130" lon="10.3224990">
	<ele>1300.40</ele>
	<time>2025-07-30T06:51:32.000Z</time>
</trkpt>
<trkpt lat="46.0461170" lon="10.3224870">
	<ele>1300.40</ele>
	<time>2025-07-30T06:51:33.000Z</time>
</trkpt>
<trkpt lat="46.0461170" lon="10.3224780">
	<ele>1300.60</ele>
	<time>2025-07-30T06:51:34.000Z</time>
</trkpt>
<trkpt lat="46.0461180" lon="10.3224690">
	<ele>1300.60</ele>
	<time>2025-07-30T06:51:35.000Z</time>
</trkpt>
<trkpt lat="46.0461250" lon="10.3224550">
	<ele>1300.60</ele>
	<time>2025-07-30T06:51:36.000Z</time>
</trkpt>
<trkpt lat="46.0461300" lon="10.3224380">
	<ele>1300.80</ele>
	<time>2025-07-30T06:51:37.000Z</time>
</trkpt>
<trkpt lat="46.0461270" lon="10.3224230">
	<ele>1301.00</ele>
	<time>2025-07-30T06:51:38.000Z</time>
</trkpt>
<trkpt lat="46.0461240" lon="10.3224160">
	<ele>1301.20</ele>
	<time>2025-07-30T06:51:39.000Z</time>
</trkpt>
<trkpt lat="46.0461320" lon="10.3224020">
	<ele>1301.40</ele>
	<time>2025-07-30T06:51:40.000Z</time>
</trkpt>
<trkpt lat="46.0461330" lon="10.3223920">
	<ele>1301.60</ele>
	<time>2025-07-30T06:51:41.000Z</time>
</trkpt>
<trkpt lat="46.0461330" lon="10.3223790">
	<ele>1301.60</ele>
	<time>2025-07-30T06:51:42.000Z</time>
</trkpt>
<trkpt lat="46.0461330" lon="10.3223680">
	<ele>1302.00</ele>
	<time>2025-07-30T06:51:43.000Z</time>
</trkpt>
<trkpt lat="46.0461340" lon="10.3223530">
	<ele>1302.40</ele>
	<time>2025-07-30T06:51:44.000Z</time>
</trkpt>
<trkpt lat="46.0461380" lon="10.3223460">
	<ele>1302.60</ele>
	<time>2025-07-30T06:51:45.000Z</time>
</trkpt>
<trkpt lat="46.0461390" lon="10.3223320">
	<ele>1302.80</ele>
	<time>2025-07-30T06:51:46.000Z</time>
</trkpt>
<trkpt lat="46.0461440" lon="10.3223190">
	<ele>1302.80</ele>
	<time>2025-07-30T06:51:47.000Z</time>
</trkpt>
<trkpt lat="46.0461510" lon="10.3223070">
	<ele>1303.00</ele>
	<time>2025-07-30T06:51:48.000Z</time>
</trkpt>
<trkpt lat="46.0461540" lon="10.3222960">
	<ele>1303.20</ele>
	<time>2025-07-30T06:51:49.000Z</time>
</trkpt>
<trkpt lat="46.0461570" lon="10.3222830">
	<ele>1303.20</ele>
	<time>2025-07-30T06:51:50.000Z</time>
</trkpt>
<trkpt lat="46.0461630" lon="10.3222720">
	<ele>1303.40</ele>
	<time>2025-07-30T06:51:51.000Z</time>
</trkpt>
<trkpt lat="46.0461680" lon="10.3222600">
	<ele>1303.40</ele>
	<time>2025-07-30T06:51:52.000Z</time>
</trkpt>
<trkpt lat="46.0461710" lon="10.3222490">
	<ele>1303.60</ele>
	<time>2025-07-30T06:51:53.000Z</time>
</trkpt>
<trkpt lat="46.0461740" lon="10.3222400">
	<ele>1303.80</ele>
	<time>2025-07-30T06:51:54.000Z</time>
</trkpt>
<trkpt lat="46.0461790" lon="10.3222340">
	<ele>1304.00</ele>
	<time>2025-07-30T06:51:55.000Z</time>
</trkpt>
<trkpt lat="46.0461770" lon="10.3222240">
	<ele>1304.20</ele>
	<time>2025-07-30T06:51:56.000Z</time>
</trkpt>
<trkpt lat="46.0461780" lon="10.3222120">
	<ele>1304.20</ele>
	<time>2025-07-30T06:51:57.000Z</time>
</trkpt>
<trkpt lat="46.0461800" lon="10.3222030">
	<ele>1304.20</ele>
	<time>2025-07-30T06:51:58.000Z</time>
</trkpt>
<trkpt lat="46.0461820" lon="10.3221940">
	<ele>1304.20</ele>
	<time>2025-07-30T06:51:59.000Z</time>
</trkpt>
<trkpt lat="46.0461890" lon="10.3221850">
	<ele>1304.40</ele>
	<time>2025-07-30T06:52:00.000Z</time>
</trkpt>
<trkpt lat="46.0461990" lon="10.3221800">
	<ele>1304.40</ele>
	<time>2025-07-30T06:52:01.000Z</time>
</trkpt>
<trkpt lat="46.0462020" lon="10.3221730">
	<ele>1304.40</ele>
	<time>2025-07-30T06:52:02.000Z</time>
</trkpt>
<trkpt lat="46.0462070" lon="10.3221690">
	<ele>1304.40</ele>
	<time>2025-07-30T06:52:03.000Z</time>
</trkpt>
<trkpt lat="46.0462120" lon="10.3221600">
	<ele>1304.40</ele>
	<time>2025-07-30T06:52:04.000Z</time>
</trkpt>
<trkpt lat="46.0462220" lon="10.3221510">
	<ele>1304.60</ele>
	<time>2025-07-30T06:52:05.000Z</time>
</trkpt>
<trkpt lat="46.0462400" lon="10.3221420">
	<ele>1304.80</ele>
	<time>2025-07-30T06:52:06.000Z</time>
</trkpt>
<trkpt lat="46.0462530" lon="10.3221300">
	<ele>1305.00</ele>
	<time>2025-07-30T06:52:07.000Z</time>
</trkpt>
<trkpt lat="46.0462580" lon="10.3221150">
	<ele>1305.00</ele>
	<time>2025-07-30T06:52:08.000Z</time>
</trkpt>
<trkpt lat="46.0462660" lon="10.3221040">
	<ele>1305.20</ele>
	<time>2025-07-30T06:52:09.000Z</time>
</trkpt>
<trkpt lat="46.0462750" lon="10.3220940">
	<ele>1305.20</ele>
	<time>2025-07-30T06:52:10.000Z</time>
</trkpt>
<trkpt lat="46.0462810" lon="10.3220840">
	<ele>1305.20</ele>
	<time>2025-07-30T06:52:11.000Z</time>
</trkpt>
<trkpt lat="46.0462860" lon="10.3220730">
	<ele>1305.20</ele>
	<time>2025-07-30T06:52:12.000Z</time>
</trkpt>
<trkpt lat="46.0462960" lon="10.3220590">
	<ele>1305.40</ele>
	<time>2025-07-30T06:52:13.000Z</time>
</trkpt>
<trkpt lat="46.0463000" lon="10.3220440">
	<ele>1305.60</ele>
	<time>2025-07-30T06:52:14.000Z</time>
</trkpt>
<trkpt lat="46.0463040" lon="10.3220340">
	<ele>1305.80</ele>
	<time>2025-07-30T06:52:15.000Z</time>
</trkpt>
<trkpt lat="46.0463120" lon="10.3220200">
	<ele>1305.80</ele>
	<time>2025-07-30T06:52:16.000Z</time>
</trkpt>
<trkpt lat="46.0463220" lon="10.3220080">
	<ele>1305.80</ele>
	<time>2025-07-30T06:52:17.000Z</time>
</trkpt>
<trkpt lat="46.0463230" lon="10.3219900">
	<ele>1306.00</ele>
	<time>2025-07-30T06:52:18.000Z</time>
</trkpt>
<trkpt lat="46.0463250" lon="10.3219740">
	<ele>1306.20</ele>
	<time>2025-07-30T06:52:19.000Z</time>
</trkpt>
<trkpt lat="46.0463310" lon="10.3219630">
	<ele>1306.20</ele>
	<time>2025-07-30T06:52:20.000Z</time>
</trkpt>
<trkpt lat="46.0463370" lon="10.3219420">
	<ele>1306.20</ele>
	<time>2025-07-30T06:52:21.000Z</time>
</trkpt>
<trkpt lat="46.0463390" lon="10.3219280">
	<ele>1306.20</ele>
	<time>2025-07-30T06:52:22.000Z</time>
</trkpt>
<trkpt lat="46.0463390" lon="10.3219130">
	<ele>1306.20</ele>
	<time>2025-07-30T06:52:23.000Z</time>
</trkpt>
<trkpt lat="46.0463430" lon="10.3218990">
	<ele>1306.20</ele>
	<time>2025-07-30T06:52:24.000Z</time>
</trkpt>
<trkpt lat="46.0463520" lon="10.3218920">
	<ele>1306.40</ele>
	<time>2025-07-30T06:52:25.000Z</time>
</trkpt>
<trkpt lat="46.0463600" lon="10.3218870">
	<ele>1306.40</ele>
	<time>2025-07-30T06:52:26.000Z</time>
</trkpt>
<trkpt lat="46.0463590" lon="10.3218780">
	<ele>1306.40</ele>
	<time>2025-07-30T06:52:27.000Z</time>
</trkpt>
<trkpt lat="46.0463580" lon="10.3218740">
	<ele>1306.40</ele>
	<time>2025-07-30T06:52:28.000Z</time>
</trkpt>
<trkpt lat="46.0463620" lon="10.3218760">
	<ele>1306.60</ele>
	<time>2025-07-30T06:52:29.000Z</time>
</trkpt>
<trkpt lat="46.0463720" lon="10.3218740">
	<ele>1306.80</ele>
	<time>2025-07-30T06:52:30.000Z</time>
</trkpt>
<trkpt lat="46.0463840" lon="10.3218640">
	<ele>1306.80</ele>
	<time>2025-07-30T06:52:31.000Z</time>
</trkpt>
<trkpt lat="46.0463810" lon="10.3218580">
	<ele>1307.20</ele>
	<time>2025-07-30T06:52:32.000Z</time>
</trkpt>
<trkpt lat="46.0463840" lon="10.3218550">
	<ele>1307.40</ele>
	<time>2025-07-30T06:52:33.000Z</time>
</trkpt>
<trkpt lat="46.0463900" lon="10.3218540">
	<ele>1307.60</ele>
	<time>2025-07-30T06:52:34.000Z</time>
</trkpt>
<trkpt lat="46.0463920" lon="10.3218530">
	<ele>1307.80</ele>
	<time>2025-07-30T06:52:35.000Z</time>
</trkpt>
<trkpt lat="46.0464040" lon="10.3218550">
	<ele>1308.00</ele>
	<time>2025-07-30T06:52:36.000Z</time>
</trkpt>
<trkpt lat="46.0464190" lon="10.3218500">
	<ele>1308.20</ele>
	<time>2025-07-30T06:52:37.000Z</time>
</trkpt>
<trkpt lat="46.0464240" lon="10.3218440">
	<ele>1308.40</ele>
	<time>2025-07-30T06:52:38.000Z</time>
</trkpt>
<trkpt lat="46.0464300" lon="10.3218370">
	<ele>1308.60</ele>
	<time>2025-07-30T06:52:39.000Z</time>
</trkpt>
<trkpt lat="46.0464370" lon="10.3218250">
	<ele>1308.80</ele>
	<time>2025-07-30T06:52:40.000Z</time>
</trkpt>
<trkpt lat="46.0464420" lon="10.3218140">
	<ele>1309.00</ele>
	<time>2025-07-30T06:52:41.000Z</time>
</trkpt>
<trkpt lat="46.0464440" lon="10.3218090">
	<ele>1309.20</ele>
	<time>2025-07-30T06:52:42.000Z</time>
</trkpt>
<trkpt lat="46.0464550" lon="10.3217870">
	<ele>1309.20</ele>
	<time>2025-07-30T06:52:43.000Z</time>
</trkpt>
<trkpt lat="46.0464700" lon="10.3217740">
	<ele>1309.40</ele>
	<time>2025-07-30T06:52:44.000Z</time>
</trkpt>
<trkpt lat="46.0464730" lon="10.3217560">
	<ele>1310.00</ele>
	<time>2025-07-30T06:52:45.000Z</time>
</trkpt>
<trkpt lat="46.0464720" lon="10.3217520">
	<ele>1310.20</ele>
	<time>2025-07-30T06:52:46.000Z</time>
</trkpt>
<trkpt lat="46.0464730" lon="10.3217470">
	<ele>1310.40</ele>
	<time>2025-07-30T06:52:47.000Z</time>
</trkpt>
<trkpt lat="46.0464920" lon="10.3217430">
	<ele>1310.60</ele>
	<time>2025-07-30T06:52:48.000Z</time>
</trkpt>
<trkpt lat="46.0464960" lon="10.3217400">
	<ele>1310.60</ele>
	<time>2025-07-30T06:52:49.000Z</time>
</trkpt>
<trkpt lat="46.0465000" lon="10.3217400">
	<ele>1310.80</ele>
	<time>2025-07-30T06:52:50.000Z</time>
</trkpt>
<trkpt lat="46.0464960" lon="10.3217470">
	<ele>1310.80</ele>
	<time>2025-07-30T06:52:51.000Z</time>
</trkpt>
<trkpt lat="46.0464920" lon="10.3217530">
	<ele>1311.00</ele>
	<time>2025-07-30T06:52:52.000Z</time>
</trkpt>
<trkpt lat="46.0464890" lon="10.3217580">
	<ele>1311.00</ele>
	<time>2025-07-30T06:52:53.000Z</time>
</trkpt>
<trkpt lat="46.0464910" lon="10.3217560">
	<ele>1311.00</ele>
	<time>2025-07-30T06:52:54.000Z</time>
</trkpt>
<trkpt lat="46.0464940" lon="10.3217440">
	<ele>1311.20</ele>
	<time>2025-07-30T06:52:55.000Z</time>
</trkpt>
<trkpt lat="46.0465050" lon="10.3217360">
	<ele>1311.20</ele>
	<time>2025-07-30T06:52:56.000Z</time>
</trkpt>
<trkpt lat="46.0465120" lon="10.3217300">
	<ele>1311.20</ele>
	<time>2025-07-30T06:52:57.000Z</time>
</trkpt>
<trkpt lat="46.0465160" lon="10.3217260">
	<ele>1311.20</ele>
	<time>2025-07-30T06:52:58.000Z</time>
</trkpt>
<trkpt lat="46.0465310" lon="10.3217320">
	<ele>1311.40</ele>
	<time>2025-07-30T06:52:59.000Z</time>
</trkpt>
<trkpt lat="46.0465340" lon="10.3217280">
	<ele>1311.40</ele>
	<time>2025-07-30T06:53:00.000Z</time>
</trkpt>
<trkpt lat="46.0465370" lon="10.3217230">
	<ele>1311.60</ele>
	<time>2025-07-30T06:53:01.000Z</time>
</trkpt>
<trkpt lat="46.0465380" lon="10.3217200">
	<ele>1311.80</ele>
	<time>2025-07-30T06:53:02.000Z</time>
</trkpt>
<trkpt lat="46.0465590" lon="10.3217290">
	<ele>1312.00</ele>
	<time>2025-07-30T06:53:03.000Z</time>
</trkpt>
<trkpt lat="46.0465740" lon="10.3217320">
	<ele>1312.20</ele>
	<time>2025-07-30T06:53:04.000Z</time>
</trkpt>
<trkpt lat="46.0465860" lon="10.3217300">
	<ele>1312.40</ele>
	<time>2025-07-30T06:53:05.000Z</time>
</trkpt>
<trkpt lat="46.0465990" lon="10.3217280">
	<ele>1312.60</ele>
	<time>2025-07-30T06:53:06.000Z</time>
</trkpt>
<trkpt lat="46.0466030" lon="10.3217170">
	<ele>1312.80</ele>
	<time>2025-07-30T06:53:07.000Z</time>
</trkpt>
<trkpt lat="46.0466050" lon="10.3217050">
	<ele>1313.00</ele>
	<time>2025-07-30T06:53:08.000Z</time>
</trkpt>
<trkpt lat="46.0466070" lon="10.3216970">
	<ele>1313.00</ele>
	<time>2025-07-30T06:53:09.000Z</time>
</trkpt>
<trkpt lat="46.0466130" lon="10.3216910">
	<ele>1313.20</ele>
	<time>2025-07-30T06:53:10.000Z</time>
</trkpt>
<trkpt lat="46.0466180" lon="10.3216840">
	<ele>1313.20</ele>
	<time>2025-07-30T06:53:11.000Z</time>
</trkpt>
<trkpt lat="46.0466300" lon="10.3216810">
	<ele>1313.40</ele>
	<time>2025-07-30T06:53:12.000Z</time>
</trkpt>
<trkpt lat="46.0466460" lon="10.3216750">
	<ele>1313.60</ele>
	<time>2025-07-30T06:53:13.000Z</time>
</trkpt>
<trkpt lat="46.0466550" lon="10.3216680">
	<ele>1313.80</ele>
	<time>2025-07-30T06:53:14.000Z</time>
</trkpt>
<trkpt lat="46.0466580" lon="10.3216600">
	<ele>1313.80</ele>
	<time>2025-07-30T06:53:15.000Z</time>
</trkpt>
<trkpt lat="46.0466590" lon="10.3216470">
	<ele>1314.00</ele>
	<time>2025-07-30T06:53:16.000Z</time>
</trkpt>
<trkpt lat="46.0466600" lon="10.3216430">
	<ele>1314.20</ele>
	<time>2025-07-30T06:53:17.000Z</time>
</trkpt>
<trkpt lat="46.0466530" lon="10.3216360">
	<ele>1314.40</ele>
	<time>2025-07-30T06:53:18.000Z</time>
</trkpt>
<trkpt lat="46.0466490" lon="10.3216350">
	<ele>1314.60</ele>
	<time>2025-07-30T06:53:19.000Z</time>
</trkpt>
<trkpt lat="46.0466520" lon="10.3216360">
	<ele>1314.80</ele>
	<time>2025-07-30T06:53:20.000Z</time>
</trkpt>
<trkpt lat="46.0466560" lon="10.3216380">
	<ele>1315.00</ele>
	<time>2025-07-30T06:53:21.000Z</time>
</trkpt>
<trkpt lat="46.0466560" lon="10.3216380">
	<ele>1315.20</ele>
	<time>2025-07-30T06:53:22.000Z</time>
</trkpt>
<trkpt lat="46.0466580" lon="10.3216370">
	<ele>1315.40</ele>
	<time>2025-07-30T06:53:23.000Z</time>
</trkpt>
<trkpt lat="46.0466610" lon="10.3216410">
	<ele>1315.40</ele>
	<time>2025-07-30T06:53:24.000Z</time>
</trkpt>
<trkpt lat="46.0466580" lon="10.3216450">
	<ele>1315.60</ele>
	<time>2025-07-30T06:53:25.000Z</time>
</trkpt>
<trkpt lat="46.0466600" lon="10.3216480">
	<ele>1315.80</ele>
	<time>2025-07-30T06:53:26.000Z</time>
</trkpt>
<trkpt lat="46.0466620" lon="10.3216490">
	<ele>1316.00</ele>
	<time>2025-07-30T06:53:27.000Z</time>
</trkpt>
<trkpt lat="46.0466640" lon="10.3216520">
	<ele>1316.00</ele>
	<time>2025-07-30T06:53:28.000Z</time>
</trkpt>
<trkpt lat="46.0466610" lon="10.3216560">
	<ele>1316.20</ele>
	<time>2025-07-30T06:53:29.000Z</time>
</trkpt>
<trkpt lat="46.0466640" lon="10.3216720">
	<ele>1316.60</ele>
	<time>2025-07-30T06:53:30.000Z</time>
</trkpt>
<trkpt lat="46.0466640" lon="10.3216840">
	<ele>1317.00</ele>
	<time>2025-07-30T06:53:31.000Z</time>
</trkpt>
<trkpt lat="46.0466620" lon="10.3216870">
	<ele>1317.20</ele>
	<time>2025-07-30T06:53:32.000Z</time>
</trkpt>
<trkpt lat="46.0466620" lon="10.3216940">
	<ele>1317.40</ele>
	<time>2025-07-30T06:53:33.000Z</time>
</trkpt>
<trkpt lat="46.0466650" lon="10.3216990">
	<ele>1317.60</ele>
	<time>2025-07-30T06:53:34.000Z</time>
</trkpt>
<trkpt lat="46.0466620" lon="10.3217020">
	<ele>1317.80</ele>
	<time>2025-07-30T06:53:35.000Z</time>
</trkpt>
<trkpt lat="46.0466610" lon="10.3217100">
	<ele>1318.00</ele>
	<time>2025-07-30T06:53:36.000Z</time>
</trkpt>
<trkpt lat="46.0466610" lon="10.3217150">
	<ele>1318.40</ele>
	<time>2025-07-30T06:53:37.000Z</time>
</trkpt>
<trkpt lat="46.0466580" lon="10.3217230">
	<ele>1318.60</ele>
	<time>2025-07-30T06:53:38.000Z</time>
</trkpt>
<trkpt lat="46.0466530" lon="10.3217310">
	<ele>1318.80</ele>
	<time>2025-07-30T06:53:39.000Z</time>
</trkpt>
<trkpt lat="46.0466510" lon="10.3217400">
	<ele>1318.80</ele>
	<time>2025-07-30T06:53:40.000Z</time>
</trkpt>
<trkpt lat="46.0466500" lon="10.3217490">
	<ele>1319.00</ele>
	<time>2025-07-30T06:53:41.000Z</time>
</trkpt>
<trkpt lat="46.0466490" lon="10.3217600">
	<ele>1319.20</ele>
	<time>2025-07-30T06:53:42.000Z</time>
</trkpt>
<trkpt lat="46.0466500" lon="10.3217680">
	<ele>1319.40</ele>
	<time>2025-07-30T06:53:43.000Z</time>
</trkpt>
<trkpt lat="46.0466500" lon="10.3217780">
	<ele>1319.40</ele>
	<time>2025-07-30T06:53:44.000Z</time>
</trkpt>
<trkpt lat="46.0466500" lon="10.3217860">
	<ele>1319.80</ele>
	<time>2025-07-30T06:53:45.000Z</time>
</trkpt>
<trkpt lat="46.0466500" lon="10.3217950">
	<ele>1319.80</ele>
	<time>2025-07-30T06:53:46.000Z</time>
</trkpt>
<trkpt lat="46.0466490" lon="10.3218000">
	<ele>1320.00</ele>
	<time>2025-07-30T06:53:47.000Z</time>
</trkpt>
<trkpt lat="46.0466520" lon="10.3218100">
	<ele>1320.20</ele>
	<time>2025-07-30T06:53:48.000Z</time>
</trkpt>
<trkpt lat="46.0466530" lon="10.3218210">
	<ele>1320.60</ele>
	<time>2025-07-30T06:53:49.000Z</time>
</trkpt>
<trkpt lat="46.0466530" lon="10.3218280">
	<ele>1320.80</ele>
	<time>2025-07-30T06:53:50.000Z</time>
</trkpt>
<trkpt lat="46.0466520" lon="10.3218390">
	<ele>1321.00</ele>
	<time>2025-07-30T06:53:51.000Z</time>
</trkpt>
<trkpt lat="46.0466510" lon="10.3218450">
	<ele>1321.40</ele>
	<time>2025-07-30T06:53:52.000Z</time>
</trkpt>
<trkpt lat="46.0466550" lon="10.3218540">
	<ele>1321.40</ele>
	<time>2025-07-30T06:53:53.000Z</time>
</trkpt>
<trkpt lat="46.0466550" lon="10.3218650">
	<ele>1321.60</ele>
	<time>2025-07-30T06:53:54.000Z</time>
</trkpt>
<trkpt lat="46.0466560" lon="10.3218730">
	<ele>1321.80</ele>
	<time>2025-07-30T06:53:55.000Z</time>
</trkpt>
<trkpt lat="46.0466560" lon="10.3218840">
	<ele>1321.80</ele>
	<time>2025-07-30T06:53:56.000Z</time>
</trkpt>
<trkpt lat="46.0466560" lon="10.3218930">
	<ele>1322.00</ele>
	<time>2025-07-30T06:53:57.000Z</time>
</trkpt>
<trkpt lat="46.0466540" lon="10.3219020">
	<ele>1322.20</ele>
	<time>2025-07-30T06:53:58.000Z</time>
</trkpt>
<trkpt lat="46.0466560" lon="10.3219120">
	<ele>1322.40</ele>
	<time>2025-07-30T06:53:59.000Z</time>
</trkpt>
<trkpt lat="46.0466570" lon="10.3219220">
	<ele>1322.60</ele>
	<time>2025-07-30T06:54:00.000Z</time>
</trkpt>
<trkpt lat="46.0466620" lon="10.3219310">
	<ele>1322.80</ele>
	<time>2025-07-30T06:54:01.000Z</time>
</trkpt>
<trkpt lat="46.0466630" lon="10.3219380">
	<ele>1323.00</ele>
	<time>2025-07-30T06:54:02.000Z</time>
</trkpt>
<trkpt lat="46.0466670" lon="10.3219470">
	<ele>1323.20</ele>
	<time>2025-07-30T06:54:03.000Z</time>
</trkpt>
<trkpt lat="46.0466710" lon="10.3219540">
	<ele>1323.20</ele>
	<time>2025-07-30T06:54:04.000Z</time>
</trkpt>
<trkpt lat="46.0466750" lon="10.3219630">
	<ele>1323.60</ele>
	<time>2025-07-30T06:54:05.000Z</time>
</trkpt>
<trkpt lat="46.0466750" lon="10.3219700">
	<ele>1323.80</ele>
	<time>2025-07-30T06:54:06.000Z</time>
</trkpt>
<trkpt lat="46.0466710" lon="10.3219770">
	<ele>1324.20</ele>
	<time>2025-07-30T06:54:07.000Z</time>
</trkpt>
<trkpt lat="46.0466690" lon="10.3219840">
	<ele>1324.40</ele>
	<time>2025-07-30T06:54:08.000Z</time>
</trkpt>
<trkpt lat="46.0466690" lon="10.3219940">
	<ele>1324.40</ele>
	<time>2025-07-30T06:54:09.000Z</time>
</trkpt>
<trkpt lat="46.0466670" lon="10.3220060">
	<ele>1324.60</ele>
	<time>2025-07-30T06:54:10.000Z</time>
</trkpt>
<trkpt lat="46.0466660" lon="10.3220160">
	<ele>1324.80</ele>
	<time>2025-07-30T06:54:11.000Z</time>
</trkpt>
<trkpt lat="46.0466650" lon="10.3220280">
	<ele>1325.00</ele>
	<time>2025-07-30T06:54:12.000Z</time>
</trkpt>
<trkpt lat="46.0466610" lon="10.3220410">
	<ele>1325.00</ele>
	<time>2025-07-30T06:54:13.000Z</time>
</trkpt>
<trkpt lat="46.0466570" lon="10.3220540">
	<ele>1325.20</ele>
	<time>2025-07-30T06:54:14.000Z</time>
</trkpt>
<trkpt lat="46.0466530" lon="10.3220700">
	<ele>1325.40</ele>
	<time>2025-07-30T06:54:15.000Z</time>
</trkpt>
<trkpt lat="46.0466520" lon="10.3220830">
	<ele>1325.40</ele>
	<time>2025-07-30T06:54:16.000Z</time>
</trkpt>
<trkpt lat="46.0466500" lon="10.3220940">
	<ele>1325.60</ele>
	<time>2025-07-30T06:54:17.000Z</time>
</trkpt>
<trkpt lat="46.0466460" lon="10.3221090">
	<ele>1325.60</ele>
	<time>2025-07-30T06:54:18.000Z</time>
</trkpt>
<trkpt lat="46.0466420" lon="10.3221190">
	<ele>1325.80</ele>
	<time>2025-07-30T06:54:19.000Z</time>
</trkpt>
<trkpt lat="46.0466390" lon="10.3221290">
	<ele>1325.80</ele>
	<time>2025-07-30T06:54:20.000Z</time>
</trkpt>
<trkpt lat="46.0466370" lon="10.3221350">
	<ele>1326.00</ele>
	<time>2025-07-30T06:54:21.000Z</time>
</trkpt>
<trkpt lat="46.0466380" lon="10.3221450">
	<ele>1326.20</ele>
	<time>2025-07-30T06:54:22.000Z</time>
</trkpt>
<trkpt lat="46.0466370" lon="10.3221570">
	<ele>1326.20</ele>
	<time>2025-07-30T06:54:23.000Z</time>
</trkpt>
<trkpt lat="46.0466340" lon="10.3221630">
	<ele>1326.40</ele>
	<time>2025-07-30T06:54:24.000Z</time>
</trkpt>
<trkpt lat="46.0466350" lon="10.3221720">
	<ele>1326.40</ele>
	<time>2025-07-30T06:54:25.000Z</time>
</trkpt>
<trkpt lat="46.0466360" lon="10.3221800">
	<ele>1326.40</ele>
	<time>2025-07-30T06:54:26.000Z</time>
</trkpt>
<trkpt lat="46.0466380" lon="10.3221910">
	<ele>1326.40</ele>
	<time>2025-07-30T06:54:27.000Z</time>
</trkpt>
<trkpt lat="46.0466370" lon="10.3221990">
	<ele>1326.60</ele>
	<time>2025-07-30T06:54:28.000Z</time>
</trkpt>
<trkpt lat="46.0466370" lon="10.3222050">
	<ele>1326.80</ele>
	<time>2025-07-30T06:54:29.000Z</time>
</trkpt>
<trkpt lat="46.0466370" lon="10.3222100">
	<ele>1327.00</ele>
	<time>2025-07-30T06:54:30.000Z</time>
</trkpt>
<trkpt lat="46.0466420" lon="10.3222180">
	<ele>1327.20</ele>
	<time>2025-07-30T06:54:31.000Z</time>
</trkpt>
<trkpt lat="46.0466460" lon="10.3222250">
	<ele>1327.40</ele>
	<time>2025-07-30T06:54:32.000Z</time>
</trkpt>
<trkpt lat="46.0466470" lon="10.3222360">
	<ele>1327.40</ele>
	<time>2025-07-30T06:54:33.000Z</time>
</trkpt>
<trkpt lat="46.0466460" lon="10.3222440">
	<ele>1327.60</ele>
	<time>2025-07-30T06:54:34.000Z</time>
</trkpt>
<trkpt lat="46.0466480" lon="10.3222530">
	<ele>1327.80</ele>
	<time>2025-07-30T06:54:35.000Z</time>
</trkpt>
<trkpt lat="46.0466510" lon="10.3222590">
	<ele>1328.00</ele>
	<time>2025-07-30T06:54:36.000Z</time>
</trkpt>
<trkpt lat="46.0466530" lon="10.3222650">
	<ele>1328.20</ele>
	<time>2025-07-30T06:54:37.000Z</time>
</trkpt>
<trkpt lat="46.0466540" lon="10.3222720">
	<ele>1328.40</ele>
	<time>2025-07-30T06:54:38.000Z</time>
</trkpt>
<trkpt lat="46.0466560" lon="10.3222770">
	<ele>1328.60</ele>
	<time>2025-07-30T06:54:39.000Z</time>
</trkpt>
<trkpt lat="46.0466570" lon="10.3222840">
	<ele>1328.60</ele>
	<time>2025-07-30T06:54:40.000Z</time>
</trkpt>
<trkpt lat="46.0466620" lon="10.3222910">
	<ele>1328.80</ele>
	<time>2025-07-30T06:54:41.000Z</time>
</trkpt>
<trkpt lat="46.0466650" lon="10.3223020">
	<ele>1329.00</ele>
	<time>2025-07-30T06:54:42.000Z</time>
</trkpt>
<trkpt lat="46.0466700" lon="10.3223120">
	<ele>1329.20</ele>
	<time>2025-07-30T06:54:43.000Z</time>
</trkpt>
<trkpt lat="46.0466730" lon="10.3223190">
	<ele>1329.40</ele>
	<time>2025-07-30T06:54:44.000Z</time>
</trkpt>
<trkpt lat="46.0466770" lon="10.3223240">
	<ele>1329.60</ele>
	<time>2025-07-30T06:54:45.000Z</time>
</trkpt>
<trkpt lat="46.0466800" lon="10.3223310">
	<ele>1329.80</ele>
	<time>2025-07-30T06:54:46.000Z</time>
</trkpt>
<trkpt lat="46.0466800" lon="10.3223350">
	<ele>1330.00</ele>
	<time>2025-07-30T06:54:47.000Z</time>
</trkpt>
<trkpt lat="46.0466810" lon="10.3223420">
	<ele>1330.20</ele>
	<time>2025-07-30T06:54:48.000Z</time>
</trkpt>
<trkpt lat="46.0466850" lon="10.3223530">
	<ele>1330.40</ele>
	<time>2025-07-30T06:54:49.000Z</time>
</trkpt>
<trkpt lat="46.0466860" lon="10.3223580">
	<ele>1330.60</ele>
	<time>2025-07-30T06:54:50.000Z</time>
</trkpt>
<trkpt lat="46.0466880" lon="10.3223620">
	<ele>1330.80</ele>
	<time>2025-07-30T06:54:51.000Z</time>
</trkpt>
<trkpt lat="46.0466890" lon="10.3223690">
	<ele>1331.00</ele>
	<time>2025-07-30T06:54:52.000Z</time>
</trkpt>
<trkpt lat="46.0466920" lon="10.3223750">
	<ele>1331.20</ele>
	<time>2025-07-30T06:54:53.000Z</time>
</trkpt>
<trkpt lat="46.0466940" lon="10.3223860">
	<ele>1331.40</ele>
	<time>2025-07-30T06:54:54.000Z</time>
</trkpt>
<trkpt lat="46.0466950" lon="10.3223990">
	<ele>1331.60</ele>
	<time>2025-07-30T06:54:55.000Z</time>
</trkpt>
<trkpt lat="46.0466990" lon="10.3224110">
	<ele>1331.80</ele>
	<time>2025-07-30T06:54:56.000Z</time>
</trkpt>
<trkpt lat="46.0467020" lon="10.3224200">
	<ele>1332.00</ele>
	<time>2025-07-30T06:54:57.000Z</time>
</trkpt>
<trkpt lat="46.0467030" lon="10.3224270">
	<ele>1332.40</ele>
	<time>2025-07-30T06:54:58.000Z</time>
</trkpt>
<trkpt lat="46.0467100" lon="10.3224400">
	<ele>1332.60</ele>
	<time>2025-07-30T06:54:59.000Z</time>
</trkpt>
<trkpt lat="46.0467150" lon="10.3224520">
	<ele>1332.80</ele>
	<time>2025-07-30T06:55:00.000Z</time>
</trkpt>
<trkpt lat="46.0467180" lon="10.3224590">
	<ele>1332.80</ele>
	<time>2025-07-30T06:55:01.000Z</time>
</trkpt>
<trkpt lat="46.0467220" lon="10.3224680">
	<ele>1333.00</ele>
	<time>2025-07-30T06:55:02.000Z</time>
</trkpt>
<trkpt lat="46.0467280" lon="10.3224760">
	<ele>1333.20</ele>
	<time>2025-07-30T06:55:03.000Z</time>
</trkpt>
<trkpt lat="46.0467290" lon="10.3224800">
	<ele>1333.20</ele>
	<time>2025-07-30T06:55:04.000Z</time>
</trkpt>
<trkpt lat="46.0467300" lon="10.3224890">
	<ele>1333.20</ele>
	<time>2025-07-30T06:55:05.000Z</time>
</trkpt>
<trkpt lat="46.0467320" lon="10.3224960">
	<ele>1333.40</ele>
	<time>2025-07-30T06:55:06.000Z</time>
</trkpt>
<trkpt lat="46.0467360" lon="10.3225050">
	<ele>1333.40</ele>
	<time>2025-07-30T06:55:07.000Z</time>
</trkpt>
<trkpt lat="46.0467420" lon="10.3225180">
	<ele>1333.60</ele>
	<time>2025-07-30T06:55:08.000Z</time>
</trkpt>
<trkpt lat="46.0467430" lon="10.3225300">
	<ele>1333.80</ele>
	<time>2025-07-30T06:55:09.000Z</time>
</trkpt>
<trkpt lat="46.0467490" lon="10.3225410">
	<ele>1334.20</ele>
	<time>2025-07-30T06:55:10.000Z</time>
</trkpt>
<trkpt lat="46.0467520" lon="10.3225470">
	<ele>1334.40</ele>
	<time>2025-07-30T06:55:11.000Z</time>
</trkpt>
<trkpt lat="46.0467350" lon="10.3225420">
	<ele>1334.60</ele>
	<time>2025-07-30T06:55:12.000Z</time>
</trkpt>
<trkpt lat="46.0467270" lon="10.3225360">
	<ele>1334.80</ele>
	<time>2025-07-30T06:55:13.000Z</time>
</trkpt>
<trkpt lat="46.0467170" lon="10.3225390">
	<ele>1335.00</ele>
	<time>2025-07-30T06:55:14.000Z</time>
</trkpt>
<trkpt lat="46.0467170" lon="10.3225430">
	<ele>1335.00</ele>
	<time>2025-07-30T06:55:15.000Z</time>
</trkpt>
<trkpt lat="46.0467170" lon="10.3225550">
	<ele>1335.00</ele>
	<time>2025-07-30T06:55:16.000Z</time>
</trkpt>
<trkpt lat="46.0467240" lon="10.3225700">
	<ele>1335.20</ele>
	<time>2025-07-30T06:55:17.000Z</time>
</trkpt>
<trkpt lat="46.0467280" lon="10.3225790">
	<ele>1335.40</ele>
	<time>2025-07-30T06:55:18.000Z</time>
</trkpt>
<trkpt lat="46.0467290" lon="10.3225870">
	<ele>1335.60</ele>
	<time>2025-07-30T06:55:19.000Z</time>
</trkpt>
<trkpt lat="46.0467290" lon="10.3225950">
	<ele>1335.60</ele>
	<time>2025-07-30T06:55:20.000Z</time>
</trkpt>
<trkpt lat="46.0467310" lon="10.3226040">
	<ele>1335.80</ele>
	<time>2025-07-30T06:55:21.000Z</time>
</trkpt>
<trkpt lat="46.0467330" lon="10.3226110">
	<ele>1336.20</ele>
	<time>2025-07-30T06:55:22.000Z</time>
</trkpt>
<trkpt lat="46.0467350" lon="10.3226260">
	<ele>1336.40</ele>
	<time>2025-07-30T06:55:23.000Z</time>
</trkpt>
<trkpt lat="46.0467360" lon="10.3226380">
	<ele>1336.60</ele>
	<time>2025-07-30T06:55:24.000Z</time>
</trkpt>
<trkpt lat="46.0467430" lon="10.3226510">
	<ele>1336.60</ele>
	<time>2025-07-30T06:55:25.000Z</time>
</trkpt>
<trkpt lat="46.0467490" lon="10.3226590">
	<ele>1336.80</ele>
	<time>2025-07-30T06:55:26.000Z</time>
</trkpt>
<trkpt lat="46.0467540" lon="10.3226650">
	<ele>1337.00</ele>
	<time>2025-07-30T06:55:27.000Z</time>
</trkpt>
<trkpt lat="46.0467550" lon="10.3226730">
	<ele>1337.20</ele>
	<time>2025-07-30T06:55:28.000Z</time>
</trkpt>
<trkpt lat="46.0467570" lon="10.3226810">
	<ele>1337.40</ele>
	<time>2025-07-30T06:55:29.000Z</time>
</trkpt>
<trkpt lat="46.0467580" lon="10.3226900">
	<ele>1337.40</ele>
	<time>2025-07-30T06:55:30.000Z</time>
</trkpt>
<trkpt lat="46.0467610" lon="10.3226960">
	<ele>1337.60</ele>
	<time>2025-07-30T06:55:31.000Z</time>
</trkpt>
<trkpt lat="46.0467630" lon="10.3227050">
	<ele>1338.00</ele>
	<time>2025-07-30T06:55:32.000Z</time>
</trkpt>
<trkpt lat="46.0467640" lon="10.3227150">
	<ele>1338.20</ele>
	<time>2025-07-30T06:55:33.000Z</time>
</trkpt>
<trkpt lat="46.0467690" lon="10.3227290">
	<ele>1338.40</ele>
	<time>2025-07-30T06:55:34.000Z</time>
</trkpt>
<trkpt lat="46.0467740" lon="10.3227360">
	<ele>1338.60</ele>
	<time>2025-07-30T06:55:35.000Z</time>
</trkpt>
<trkpt lat="46.0467740" lon="10.3227450">
	<ele>1338.60</ele>
	<time>2025-07-30T06:55:36.000Z</time>
</trkpt>
<trkpt lat="46.0467770" lon="10.3227530">
	<ele>1338.80</ele>
	<time>2025-07-30T06:55:37.000Z</time>
</trkpt>
<trkpt lat="46.0467770" lon="10.3227610">
	<ele>1339.00</ele>
	<time>2025-07-30T06:55:38.000Z</time>
</trkpt>
<trkpt lat="46.0467800" lon="10.3227750">
	<ele>1339.20</ele>
	<time>2025-07-30T06:55:39.000Z</time>
</trkpt>
<trkpt lat="46.0467820" lon="10.3227850">
	<ele>1339.40</ele>
	<time>2025-07-30T06:55:40.000Z</time>
</trkpt>
<trkpt lat="46.0467870" lon="10.3227960">
	<ele>1339.40</ele>
	<time>2025-07-30T06:55:41.000Z</time>
</trkpt>
<trkpt lat="46.0467900" lon="10.3228070">
	<ele>1339.60</ele>
	<time>2025-07-30T06:55:42.000Z</time>
</trkpt>
<trkpt lat="46.0467940" lon="10.3228170">
	<ele>1339.60</ele>
	<time>2025-07-30T06:55:43.000Z</time>
</trkpt>
<trkpt lat="46.0467960" lon="10.3228270">
	<ele>1339.80</ele>
	<time>2025-07-30T06:55:44.000Z</time>
</trkpt>
<trkpt lat="46.0467970" lon="10.3228410">
	<ele>1339.80</ele>
	<time>2025-07-30T06:55:45.000Z</time>
</trkpt>
<trkpt lat="46.0467990" lon="10.3228510">
	<ele>1339.80</ele>
	<time>2025-07-30T06:55:46.000Z</time>
</trkpt>
<trkpt lat="46.0468030" lon="10.3228640">
	<ele>1339.80</ele>
	<time>2025-07-30T06:55:47.000Z</time>
</trkpt>
<trkpt lat="46.0468050" lon="10.3228780">
	<ele>1339.80</ele>
	<time>2025-07-30T06:55:48.000Z</time>
</trkpt>
<trkpt lat="46.0468040" lon="10.3228930">
	<ele>1340.00</ele>
	<time>2025-07-30T06:55:49.000Z</time>
</trkpt>
<trkpt lat="46.0468060" lon="10.3229010">
	<ele>1340.00</ele>
	<time>2025-07-30T06:55:50.000Z</time>
</trkpt>
<trkpt lat="46.0468100" lon="10.3229110">
	<ele>1340.00</ele>
	<time>2025-07-30T06:55:51.000Z</time>
</trkpt>
<trkpt lat="46.0468170" lon="10.3229160">
	<ele>1340.20</ele>
	<time>2025-07-30T06:55:52.000Z</time>
</trkpt>
<trkpt lat="46.0468220" lon="10.3229230">
	<ele>1340.20</ele>
	<time>2025-07-30T06:55:53.000Z</time>
</trkpt>
<trkpt lat="46.0468240" lon="10.3229340">
	<ele>1340.20</ele>
	<time>2025-07-30T06:55:54.000Z</time>
</trkpt>
<trkpt lat="46.0468230" lon="10.3229420">
	<ele>1340.40</ele>
	<time>2025-07-30T06:55:55.000Z</time>
</trkpt>
<trkpt lat="46.0468230" lon="10.3229520">
	<ele>1340.60</ele>
	<time>2025-07-30T06:55:56.000Z</time>
</trkpt>
<trkpt lat="46.0468260" lon="10.3229630">
	<ele>1340.80</ele>
	<time>2025-07-30T06:55:57.000Z</time>
</trkpt>
<trkpt lat="46.0468290" lon="10.3229700">
	<ele>1341.20</ele>
	<time>2025-07-30T06:55:58.000Z</time>
</trkpt>
<trkpt lat="46.0468310" lon="10.3229730">
	<ele>1341.40</ele>
	<time>2025-07-30T06:55:59.000Z</time>
</trkpt>
<trkpt lat="46.0468330" lon="10.3229780">
	<ele>1341.40</ele>
	<time>2025-07-30T06:56:00.000Z</time>
</trkpt>
<trkpt lat="46.0468390" lon="10.3229870">
	<ele>1341.60</ele>
	<time>2025-07-30T06:56:01.000Z</time>
</trkpt>
<trkpt lat="46.0468410" lon="10.3229950">
	<ele>1341.60</ele>
	<time>2025-07-30T06:56:02.000Z</time>
</trkpt>
<trkpt lat="46.0468440" lon="10.3230040">
	<ele>1341.60</ele>
	<time>2025-07-30T06:56:03.000Z</time>
</trkpt>
<trkpt lat="46.0468460" lon="10.3230110">
	<ele>1341.80</ele>
	<time>2025-07-30T06:56:04.000Z</time>
</trkpt>
<trkpt lat="46.0468470" lon="10.3230160">
	<ele>1342.00</ele>
	<time>2025-07-30T06:56:05.000Z</time>
</trkpt>
<trkpt lat="46.0468420" lon="10.3230240">
	<ele>1342.20</ele>
	<time>2025-07-30T06:56:06.000Z</time>
</trkpt>
<trkpt lat="46.0468430" lon="10.3230340">
	<ele>1342.40</ele>
	<time>2025-07-30T06:56:07.000Z</time>
</trkpt>
<trkpt lat="46.0468460" lon="10.3230420">
	<ele>1342.60</ele>
	<time>2025-07-30T06:56:08.000Z</time>
</trkpt>
<trkpt lat="46.0468520" lon="10.3230530">
	<ele>1342.60</ele>
	<time>2025-07-30T06:56:09.000Z</time>
</trkpt>
<trkpt lat="46.0468570" lon="10.3230620">
	<ele>1342.80</ele>
	<time>2025-07-30T06:56:10.000Z</time>
</trkpt>
<trkpt lat="46.0468600" lon="10.3230720">
	<ele>1343.00</ele>
	<time>2025-07-30T06:56:11.000Z</time>
</trkpt>
<trkpt lat="46.0468660" lon="10.3230830">
	<ele>1343.00</ele>
	<time>2025-07-30T06:56:12.000Z</time>
</trkpt>
<trkpt lat="46.0468720" lon="10.3230930">
	<ele>1343.20</ele>
	<time>2025-07-30T06:56:13.000Z</time>
</trkpt>
<trkpt lat="46.0468770" lon="10.3231040">
	<ele>1343.60</ele>
	<time>2025-07-30T06:56:14.000Z</time>
</trkpt>
<trkpt lat="46.0468820" lon="10.3231120">
	<ele>1343.80</ele>
	<time>2025-07-30T06:56:15.000Z</time>
</trkpt>
<trkpt lat="46.0468870" lon="10.3231190">
	<ele>1344.00</ele>
	<time>2025-07-30T06:56:16.000Z</time>
</trkpt>
<trkpt lat="46.0468920" lon="10.3231240">
	<ele>1344.00</ele>
	<time>2025-07-30T06:56:17.000Z</time>
</trkpt>
<trkpt lat="46.0468980" lon="10.3231300">
	<ele>1344.00</ele>
	<time>2025-07-30T06:56:18.000Z</time>
</trkpt>
<trkpt lat="46.0469030" lon="10.3231390">
	<ele>1344.20</ele>
	<time>2025-07-30T06:56:19.000Z</time>
</trkpt>
<trkpt lat="46.0469110" lon="10.3231450">
	<ele>1344.20</ele>
	<time>2025-07-30T06:56:20.000Z</time>
</trkpt>
<trkpt lat="46.0469150" lon="10.3231500">
	<ele>1344.40</ele>
	<time>2025-07-30T06:56:21.000Z</time>
</trkpt>
<trkpt lat="46.0469180" lon="10.3231550">
	<ele>1344.60</ele>
	<time>2025-07-30T06:56:22.000Z</time>
</trkpt>
<trkpt lat="46.0469190" lon="10.3231600">
	<ele>1344.80</ele>
	<time>2025-07-30T06:56:23.000Z</time>
</trkpt>
<trkpt lat="46.0469190" lon="10.3231670">
	<ele>1344.80</ele>
	<time>2025-07-30T06:56:24.000Z</time>
</trkpt>
<trkpt lat="46.0469220" lon="10.3231750">
	<ele>1345.20</ele>
	<time>2025-07-30T06:56:25.000Z</time>
</trkpt>
<trkpt lat="46.0469200" lon="10.3231800">
	<ele>1345.20</ele>
	<time>2025-07-30T06:56:26.000Z</time>
</trkpt>
<trkpt lat="46.0469190" lon="10.3231870">
	<ele>1345.40</ele>
	<time>2025-07-30T06:56:27.000Z</time>
</trkpt>
<trkpt lat="46.0469190" lon="10.3231950">
	<ele>1345.60</ele>
	<time>2025-07-30T06:56:28.000Z</time>
</trkpt>
<trkpt lat="46.0469190" lon="10.3232020">
	<ele>1345.80</ele>
	<time>2025-07-30T06:56:29.000Z</time>
</trkpt>
<trkpt lat="46.0469190" lon="10.3232070">
	<ele>1346.20</ele>
	<time>2025-07-30T06:56:30.000Z</time>
</trkpt>
<trkpt lat="46.0469180" lon="10.3232100">
	<ele>1346.40</ele>
	<time>2025-07-30T06:56:31.000Z</time>
</trkpt>
<trkpt lat="46.0469180" lon="10.3232160">
	<ele>1346.60</ele>
	<time>2025-07-30T06:56:32.000Z</time>
</trkpt>
<trkpt lat="46.0469190" lon="10.3232220">
	<ele>1346.60</ele>
	<time>2025-07-30T06:56:33.000Z</time>
</trkpt>
<trkpt lat="46.0469210" lon="10.3232300">
	<ele>1346.80</ele>
	<time>2025-07-30T06:56:34.000Z</time>
</trkpt>
<trkpt lat="46.0469200" lon="10.3232360">
	<ele>1346.80</ele>
	<time>2025-07-30T06:56:35.000Z</time>
</trkpt>
<trkpt lat="46.0469170" lon="10.3232410">
	<ele>1347.00</ele>
	<time>2025-07-30T06:56:36.000Z</time>
</trkpt>
<trkpt lat="46.0469160" lon="10.3232500">
	<ele>1347.20</ele>
	<time>2025-07-30T06:56:37.000Z</time>
</trkpt>
<trkpt lat="46.0469170" lon="10.3232570">
	<ele>1347.40</ele>
	<time>2025-07-30T06:56:38.000Z</time>
</trkpt>
<trkpt lat="46.0469260" lon="10.3232700">
	<ele>1347.60</ele>
	<time>2025-07-30T06:56:39.000Z</time>
</trkpt>
<trkpt lat="46.0469290" lon="10.3232830">
	<ele>1347.60</ele>
	<time>2025-07-30T06:56:40.000Z</time>
</trkpt>
<trkpt lat="46.0469300" lon="10.3232900">
	<ele>1347.80</ele>
	<time>2025-07-30T06:56:41.000Z</time>
</trkpt>
<trkpt lat="46.0469310" lon="10.3232980">
	<ele>1348.00</ele>
	<time>2025-07-30T06:56:42.000Z</time>
</trkpt>
<trkpt lat="46.0469300" lon="10.3233080">
	<ele>1348.00</ele>
	<time>2025-07-30T06:56:43.000Z</time>
</trkpt>
<trkpt lat="46.0469330" lon="10.3233180">
	<ele>1348.20</ele>
	<time>2025-07-30T06:56:44.000Z</time>
</trkpt>
<trkpt lat="46.0469370" lon="10.3233310">
	<ele>1348.40</ele>
	<time>2025-07-30T06:56:45.000Z</time>
</trkpt>
<trkpt lat="46.0469430" lon="10.3233490">
	<ele>1348.40</ele>
	<time>2025-07-30T06:56:46.000Z</time>
</trkpt>
<trkpt lat="46.0469430" lon="10.3233690">
	<ele>1348.60</ele>
	<time>2025-07-30T06:56:47.000Z</time>
</trkpt>
<trkpt lat="46.0469460" lon="10.3233770">
	<ele>1348.80</ele>
	<time>2025-07-30T06:56:48.000Z</time>
</trkpt>
<trkpt lat="46.0469460" lon="10.3233810">
	<ele>1349.00</ele>
	<time>2025-07-30T06:56:49.000Z</time>
</trkpt>
<trkpt lat="46.0469450" lon="10.3233840">
	<ele>1349.20</ele>
	<time>2025-07-30T06:56:50.000Z</time>
</trkpt>
<trkpt lat="46.0469420" lon="10.3233790">
	<ele>1349.40</ele>
	<time>2025-07-30T06:56:51.000Z</time>
</trkpt>
<trkpt lat="46.0469430" lon="10.3233790">
	<ele>1349.40</ele>
	<time>2025-07-30T06:56:52.000Z</time>
</trkpt>
<trkpt lat="46.0469480" lon="10.3233760">
	<ele>1349.60</ele>
	<time>2025-07-30T06:56:53.000Z</time>
</trkpt>
<trkpt lat="46.0469480" lon="10.3233780">
	<ele>1349.60</ele>
	<time>2025-07-30T06:56:54.000Z</time>
</trkpt>
<trkpt lat="46.0469500" lon="10.3233800">
	<ele>1349.80</ele>
	<time>2025-07-30T06:56:55.000Z</time>
</trkpt>
<trkpt lat="46.0469520" lon="10.3233820">
	<ele>1349.80</ele>
	<time>2025-07-30T06:56:56.000Z</time>
</trkpt>
<trkpt lat="46.0469660" lon="10.3233950">
	<ele>1350.00</ele>
	<time>2025-07-30T06:56:57.000Z</time>
</trkpt>
<trkpt lat="46.0469690" lon="10.3234000">
	<ele>1350.20</ele>
	<time>2025-07-30T06:56:58.000Z</time>
</trkpt>
<trkpt lat="46.0469750" lon="10.3234100">
	<ele>1350.40</ele>
	<time>2025-07-30T06:56:59.000Z</time>
</trkpt>
<trkpt lat="46.0469850" lon="10.3234250">
	<ele>1350.60</ele>
	<time>2025-07-30T06:57:00.000Z</time>
</trkpt>
<trkpt lat="46.0469910" lon="10.3234290">
	<ele>1351.00</ele>
	<time>2025-07-30T06:57:01.000Z</time>
</trkpt>
<trkpt lat="46.0469960" lon="10.3234310">
	<ele>1351.20</ele>
	<time>2025-07-30T06:57:02.000Z</time>
</trkpt>
<trkpt lat="46.0469990" lon="10.3234350">
	<ele>1351.20</ele>
	<time>2025-07-30T06:57:03.000Z</time>
</trkpt>
<trkpt lat="46.0470030" lon="10.3234360">
	<ele>1351.40</ele>
	<time>2025-07-30T06:57:04.000Z</time>
</trkpt>
<trkpt lat="46.0470070" lon="10.3234360">
	<ele>1351.40</ele>
	<time>2025-07-30T06:57:05.000Z</time>
</trkpt>
<trkpt lat="46.0470110" lon="10.3234350">
	<ele>1351.60</ele>
	<time>2025-07-30T06:57:06.000Z</time>
</trkpt>
<trkpt lat="46.0470150" lon="10.3234360">
	<ele>1351.80</ele>
	<time>2025-07-30T06:57:07.000Z</time>
</trkpt>
<trkpt lat="46.0470160" lon="10.3234440">
	<ele>1352.00</ele>
	<time>2025-07-30T06:57:08.000Z</time>
</trkpt>
<trkpt lat="46.0470200" lon="10.3234480">
	<ele>1352.20</ele>
	<time>2025-07-30T06:57:09.000Z</time>
</trkpt>
<trkpt lat="46.0470220" lon="10.3234530">
	<ele>1352.60</ele>
	<time>2025-07-30T06:57:10.000Z</time>
</trkpt>
<trkpt lat="46.0470230" lon="10.3234570">
	<ele>1352.80</ele>
	<time>2025-07-30T06:57:11.000Z</time>
</trkpt>
<trkpt lat="46.0470240" lon="10.3234610">
	<ele>1353.00</ele>
	<time>2025-07-30T06:57:12.000Z</time>
</trkpt>
<trkpt lat="46.0470210" lon="10.3234620">
	<ele>1353.20</ele>
	<time>2025-07-30T06:57:13.000Z</time>
</trkpt>
<trkpt lat="46.0470190" lon="10.3234630">
	<ele>1353.40</ele>
	<time>2025-07-30T06:57:14.000Z</time>
</trkpt>
<trkpt lat="46.0470250" lon="10.3234690">
	<ele>1353.40</ele>
	<time>2025-07-30T06:57:15.000Z</time>
</trkpt>
<trkpt lat="46.0470280" lon="10.3234780">
	<ele>1353.40</ele>
	<time>2025-07-30T06:57:16.000Z</time>
</trkpt>
<trkpt lat="46.0470310" lon="10.3234830">
	<ele>1353.60</ele>
	<time>2025-07-30T06:57:17.000Z</time>
</trkpt>
<trkpt lat="46.0470360" lon="10.3234880">
	<ele>1354.00</ele>
	<time>2025-07-30T06:57:18.000Z</time>
</trkpt>
<trkpt lat="46.0470390" lon="10.3234940">
	<ele>1354.40</ele>
	<time>2025-07-30T06:57:19.000Z</time>
</trkpt>
<trkpt lat="46.0470420" lon="10.3235020">
	<ele>1354.60</ele>
	<time>2025-07-30T06:57:20.000Z</time>
</trkpt>
<trkpt lat="46.0470460" lon="10.3235080">
	<ele>1354.80</ele>
	<time>2025-07-30T06:57:21.000Z</time>
</trkpt>
<trkpt lat="46.0470500" lon="10.3235130">
	<ele>1355.00</ele>
	<time>2025-07-30T06:57:22.000Z</time>
</trkpt>
<trkpt lat="46.0470530" lon="10.3235170">
	<ele>1355.20</ele>
	<time>2025-07-30T06:57:23.000Z</time>
</trkpt>
<trkpt lat="46.0470560" lon="10.3235230">
	<ele>1355.20</ele>
	<time>2025-07-30T06:57:24.000Z</time>
</trkpt>
<trkpt lat="46.0470610" lon="10.3235300">
	<ele>1355.40</ele>
	<time>2025-07-30T06:57:25.000Z</time>
</trkpt>
<trkpt lat="46.0470640" lon="10.3235340">
	<ele>1355.40</ele>
	<time>2025-07-30T06:57:26.000Z</time>
</trkpt>
<trkpt lat="46.0470640" lon="10.3235400">
	<ele>1355.60</ele>
	<time>2025-07-30T06:57:27.000Z</time>
</trkpt>
<trkpt lat="46.0470650" lon="10.3235440">
	<ele>1355.80</ele>
	<time>2025-07-30T06:57:28.000Z</time>
</trkpt>
<trkpt lat="46.0470680" lon="10.3235480">
	<ele>1356.00</ele>
	<time>2025-07-30T06:57:29.000Z</time>
</trkpt>
<trkpt lat="46.0470760" lon="10.3235550">
	<ele>1356.40</ele>
	<time>2025-07-30T06:57:30.000Z</time>
</trkpt>
<trkpt lat="46.0470830" lon="10.3235630">
	<ele>1356.60</ele>
	<time>2025-07-30T06:57:31.000Z</time>
</trkpt>
<trkpt lat="46.0470860" lon="10.3235680">
	<ele>1356.60</ele>
	<time>2025-07-30T06:57:32.000Z</time>
</trkpt>
<trkpt lat="46.0470860" lon="10.3235690">
	<ele>1356.80</ele>
	<time>2025-07-30T06:57:33.000Z</time>
</trkpt>
<trkpt lat="46.0470870" lon="10.3235710">
	<ele>1357.20</ele>
	<time>2025-07-30T06:57:34.000Z</time>
</trkpt>
<trkpt lat="46.0470920" lon="10.3235770">
	<ele>1357.20</ele>
	<time>2025-07-30T06:57:35.000Z</time>
</trkpt>
<trkpt lat="46.0470970" lon="10.3235800">
	<ele>1357.40</ele>
	<time>2025-07-30T06:57:36.000Z</time>
</trkpt>
<trkpt lat="46.0471040" lon="10.3235880">
	<ele>1357.60</ele>
	<time>2025-07-30T06:57:37.000Z</time>
</trkpt>
<trkpt lat="46.0471040" lon="10.3235950">
	<ele>1357.80</ele>
	<time>2025-07-30T06:57:38.000Z</time>
</trkpt>
<trkpt lat="46.0471060" lon="10.3236030">
	<ele>1358.00</ele>
	<time>2025-07-30T06:57:39.000Z</time>
</trkpt>
<trkpt lat="46.0471070" lon="10.3236110">
	<ele>1358.20</ele>
	<time>2025-07-30T06:57:40.000Z</time>
</trkpt>
<trkpt lat="46.0471080" lon="10.3236200">
	<ele>1358.40</ele>
	<time>2025-07-30T06:57:41.000Z</time>
</trkpt>
<trkpt lat="46.0471110" lon="10.3236310">
	<ele>1358.60</ele>
	<time>2025-07-30T06:57:42.000Z</time>
</trkpt>
<trkpt lat="46.0471140" lon="10.3236440">
	<ele>1359.00</ele>
	<time>2025-07-30T06:57:43.000Z</time>
</trkpt>
<trkpt lat="46.0471140" lon="10.3236540">
	<ele>1359.40</ele>
	<time>2025-07-30T06:57:44.000Z</time>
</trkpt>
<trkpt lat="46.0471140" lon="10.3236640">
	<ele>1359.60</ele>
	<time>2025-07-30T06:57:45.000Z</time>
</trkpt>
<trkpt lat="46.0471140" lon="10.3236700">
	<ele>1359.80</ele>
	<time>2025-07-30T06:57:46.000Z</time>
</trkpt>
<trkpt lat="46.0471100" lon="10.3236760">
	<ele>1360.00</ele>
	<time>2025-07-30T06:57:47.000Z</time>
</trkpt>
<trkpt lat="46.0471060" lon="10.3236870">
	<ele>1360.20</ele>
	<time>2025-07-30T06:57:48.000Z</time>
</trkpt>
<trkpt lat="46.0471070" lon="10.3236980">
	<ele>1360.20</ele>
	<time>2025-07-30T06:57:49.000Z</time>
</trkpt>
<trkpt lat="46.0471130" lon="10.3237100">
	<ele>1360.20</ele>
	<time>2025-07-30T06:57:50.000Z</time>
</trkpt>
<trkpt lat="46.0471150" lon="10.3237140">
	<ele>1360.40</ele>
	<time>2025-07-30T06:57:51.000Z</time>
</trkpt>
<trkpt lat="46.0471160" lon="10.3237150">
	<ele>1360.60</ele>
	<time>2025-07-30T06:57:52.000Z</time>
</trkpt>
<trkpt lat="46.0471150" lon="10.3237150">
	<ele>1360.60</ele>
	<time>2025-07-30T06:57:53.000Z</time>
</trkpt>
<trkpt lat="46.0471160" lon="10.3237170">
	<ele>1360.80</ele>
	<time>2025-07-30T06:57:54.000Z</time>
</trkpt>
<trkpt lat="46.0471170" lon="10.3237190">
	<ele>1360.80</ele>
	<time>2025-07-30T06:57:55.000Z</time>
</trkpt>
<trkpt lat="46.0471150" lon="10.3237100">
	<ele>1361.00</ele>
	<time>2025-07-30T06:57:56.000Z</time>
</trkpt>
<trkpt lat="46.0471140" lon="10.3237110">
	<ele>1361.00</ele>
	<time>2025-07-30T06:57:57.000Z</time>
</trkpt>
<trkpt lat="46.0471120" lon="10.3237090">
	<ele>1361.00</ele>
	<time>2025-07-30T06:57:58.000Z</time>
</trkpt>
<trkpt lat="46.0471100" lon="10.3237110">
	<ele>1361.20</ele>
	<time>2025-07-30T06:57:59.000Z</time>
</trkpt>
<trkpt lat="46.0471100" lon="10.3237150">
	<ele>1361.20</ele>
	<time>2025-07-30T06:58:00.000Z</time>
</trkpt>
<trkpt lat="46.0471140" lon="10.3237230">
	<ele>1361.20</ele>
	<time>2025-07-30T06:58:01.000Z</time>
</trkpt>
<trkpt lat="46.0471240" lon="10.3237350">
	<ele>1361.20</ele>
	<time>2025-07-30T06:58:02.000Z</time>
</trkpt>
<trkpt lat="46.0471310" lon="10.3237410">
	<ele>1361.20</ele>
	<time>2025-07-30T06:58:03.000Z</time>
</trkpt>
<trkpt lat="46.0471360" lon="10.3237510">
	<ele>1361.20</ele>
	<time>2025-07-30T06:58:04.000Z</time>
</trkpt>
<trkpt lat="46.0471340" lon="10.3237500">
	<ele>1361.40</ele>
	<time>2025-07-30T06:58:05.000Z</time>
</trkpt>
<trkpt lat="46.0471300" lon="10.3237580">
	<ele>1361.60</ele>
	<time>2025-07-30T06:58:06.000Z</time>
</trkpt>
<trkpt lat="46.0471310" lon="10.3237690">
	<ele>1361.80</ele>
	<time>2025-07-30T06:58:07.000Z</time>
</trkpt>
<trkpt lat="46.0471290" lon="10.3237810">
	<ele>1361.80</ele>
	<time>2025-07-30T06:58:08.000Z</time>
</trkpt>
<trkpt lat="46.0471320" lon="10.3237960">
	<ele>1362.00</ele>
	<time>2025-07-30T06:58:09.000Z</time>
</trkpt>
<trkpt lat="46.0471340" lon="10.3238060">
	<ele>1362.00</ele>
	<time>2025-07-30T06:58:10.000Z</time>
</trkpt>
<trkpt lat="46.0471380" lon="10.3238160">
	<ele>1362.00</ele>
	<time>2025-07-30T06:58:11.000Z</time>
</trkpt>
<trkpt lat="46.0471420" lon="10.3238300">
	<ele>1362.00</ele>
	<time>2025-07-30T06:58:12.000Z</time>
</trkpt>
<trkpt lat="46.0471460" lon="10.3238450">
	<ele>1362.20</ele>
	<time>2025-07-30T06:58:13.000Z</time>
</trkpt>
<trkpt lat="46.0471500" lon="10.3238590">
	<ele>1362.40</ele>
	<time>2025-07-30T06:58:14.000Z</time>
</trkpt>
<trkpt lat="46.0471530" lon="10.3238680">
	<ele>1362.60</ele>
	<time>2025-07-30T06:58:15.000Z</time>
</trkpt>
<trkpt lat="46.0471560" lon="10.3238720">
	<ele>1362.60</ele>
	<time>2025-07-30T06:58:16.000Z</time>
</trkpt>
<trkpt lat="46.0471590" lon="10.3238750">
	<ele>1362.60</ele>
	<time>2025-07-30T06:58:17.000Z</time>
</trkpt>
<trkpt lat="46.0471640" lon="10.3238850">
	<ele>1362.80</ele>
	<time>2025-07-30T06:58:18.000Z</time>
</trkpt>
<trkpt lat="46.0471690" lon="10.3238920">
	<ele>1362.80</ele>
	<time>2025-07-30T06:58:19.000Z</time>
</trkpt>
<trkpt lat="46.0471750" lon="10.3238980">
	<ele>1363.00</ele>
	<time>2025-07-30T06:58:20.000Z</time>
</trkpt>
<trkpt lat="46.0471840" lon="10.3239030">
	<ele>1363.00</ele>
	<time>2025-07-30T06:58:21.000Z</time>
</trkpt>
<trkpt lat="46.0471910" lon="10.3239030">
	<ele>1363.20</ele>
	<time>2025-07-30T06:58:22.000Z</time>
</trkpt>
<trkpt lat="46.0471980" lon="10.3239060">
	<ele>1363.20</ele>
	<time>2025-07-30T06:58:23.000Z</time>
</trkpt>
<trkpt lat="46.0472070" lon="10.3239110">
	<ele>1363.40</ele>
	<time>2025-07-30T06:58:24.000Z</time>
</trkpt>
<trkpt lat="46.0472130" lon="10.3239160">
	<ele>1363.60</ele>
	<time>2025-07-30T06:58:25.000Z</time>
</trkpt>
<trkpt lat="46.0472190" lon="10.3239250">
	<ele>1363.80</ele>
	<time>2025-07-30T06:58:26.000Z</time>
</trkpt>
<trkpt lat="46.0472290" lon="10.3239330">
	<ele>1364.00</ele>
	<time>2025-07-30T06:58:27.000Z</time>
</trkpt>
<trkpt lat="46.0472360" lon="10.3239400">
	<ele>1364.20</ele>
	<time>2025-07-30T06:58:28.000Z</time>
</trkpt>
<trkpt lat="46.0472420" lon="10.3239460">
	<ele>1364.40</ele>
	<time>2025-07-30T06:58:29.000Z</time>
</trkpt>
<trkpt lat="46.0472420" lon="10.3239510">
	<ele>1364.60</ele>
	<time>2025-07-30T06:58:30.000Z</time>
</trkpt>
<trkpt lat="46.0472460" lon="10.3239560">
	<ele>1364.80</ele>
	<time>2025-07-30T06:58:31.000Z</time>
</trkpt>
<trkpt lat="46.0472500" lon="10.3239620">
	<ele>1365.20</ele>
	<time>2025-07-30T06:58:32.000Z</time>
</trkpt>
<trkpt lat="46.0472520" lon="10.3239700">
	<ele>1365.40</ele>
	<time>2025-07-30T06:58:33.000Z</time>
</trkpt>
<trkpt lat="46.0472570" lon="10.3239760">
	<ele>1365.40</ele>
	<time>2025-07-30T06:58:34.000Z</time>
</trkpt>
<trkpt lat="46.0472610" lon="10.3239860">
	<ele>1365.60</ele>
	<time>2025-07-30T06:58:35.000Z</time>
</trkpt>
<trkpt lat="46.0472700" lon="10.3239890">
	<ele>1365.60</ele>
	<time>2025-07-30T06:58:36.000Z</time>
</trkpt>
<trkpt lat="46.0472810" lon="10.3239910">
	<ele>1365.80</ele>
	<time>2025-07-30T06:58:37.000Z</time>
</trkpt>
<trkpt lat="46.0472850" lon="10.3239960">
	<ele>1366.00</ele>
	<time>2025-07-30T06:58:38.000Z</time>
</trkpt>
<trkpt lat="46.0472910" lon="10.3240020">
	<ele>1366.20</ele>
	<time>2025-07-30T06:58:39.000Z</time>
</trkpt>
<trkpt lat="46.0472890" lon="10.3240060">
	<ele>1366.40</ele>
	<time>2025-07-30T06:58:40.000Z</time>
</trkpt>
<trkpt lat="46.0472930" lon="10.3240130">
	<ele>1366.60</ele>
	<time>2025-07-30T06:58:41.000Z</time>
</trkpt>
<trkpt lat="46.0472940" lon="10.3240200">
	<ele>1366.80</ele>
	<time>2025-07-30T06:58:42.000Z</time>
</trkpt>
<trkpt lat="46.0472960" lon="10.3240270">
	<ele>1367.00</ele>
	<time>2025-07-30T06:58:43.000Z</time>
</trkpt>
<trkpt lat="46.0473020" lon="10.3240360">
	<ele>1367.20</ele>
	<time>2025-07-30T06:58:44.000Z</time>
</trkpt>
<trkpt lat="46.0473080" lon="10.3240440">
	<ele>1367.40</ele>
	<time>2025-07-30T06:58:45.000Z</time>
</trkpt>
<trkpt lat="46.0473120" lon="10.3240490">
	<ele>1367.60</ele>
	<time>2025-07-30T06:58:46.000Z</time>
</trkpt>
<trkpt lat="46.0473180" lon="10.3240520">
	<ele>1367.80</ele>
	<time>2025-07-30T06:58:47.000Z</time>
</trkpt>
<trkpt lat="46.0473240" lon="10.3240550">
	<ele>1368.00</ele>
	<time>2025-07-30T06:58:48.000Z</time>
</trkpt>
<trkpt lat="46.0473320" lon="10.3240610">
	<ele>1368.00</ele>
	<time>2025-07-30T06:58:49.000Z</time>
</trkpt>
<trkpt lat="46.0473390" lon="10.3240620">
	<ele>1368.20</ele>
	<time>2025-07-30T06:58:50.000Z</time>
</trkpt>
<trkpt lat="46.0473410" lon="10.3240620">
	<ele>1368.60</ele>
	<time>2025-07-30T06:58:51.000Z</time>
</trkpt>
<trkpt lat="46.0473450" lon="10.3240620">
	<ele>1368.80</ele>
	<time>2025-07-30T06:58:52.000Z</time>
</trkpt>
<trkpt lat="46.0473510" lon="10.3240640">
	<ele>1369.20</ele>
	<time>2025-07-30T06:58:53.000Z</time>
</trkpt>
<trkpt lat="46.0473570" lon="10.3240650">
	<ele>1369.40</ele>
	<time>2025-07-30T06:58:54.000Z</time>
</trkpt>
<trkpt lat="46.0473630" lon="10.3240660">
	<ele>1369.60</ele>
	<time>2025-07-30T06:58:55.000Z</time>
</trkpt>
<trkpt lat="46.0473660" lon="10.3240680">
	<ele>1369.60</ele>
	<time>2025-07-30T06:58:56.000Z</time>
</trkpt>
<trkpt lat="46.0473760" lon="10.3240720">
	<ele>1369.80</ele>
	<time>2025-07-30T06:58:57.000Z</time>
</trkpt>
<trkpt lat="46.0473800" lon="10.3240750">
	<ele>1370.00</ele>
	<time>2025-07-30T06:58:58.000Z</time>
</trkpt>
<trkpt lat="46.0473810" lon="10.3240730">
	<ele>1370.00</ele>
	<time>2025-07-30T06:58:59.000Z</time>
</trkpt>
<trkpt lat="46.0473880" lon="10.3240660">
	<ele>1370.20</ele>
	<time>2025-07-30T06:59:00.000Z</time>
</trkpt>
<trkpt lat="46.0473910" lon="10.3240590">
	<ele>1370.40</ele>
	<time>2025-07-30T06:59:01.000Z</time>
</trkpt>
<trkpt lat="46.0473940" lon="10.3240580">
	<ele>1370.60</ele>
	<time>2025-07-30T06:59:02.000Z</time>
</trkpt>
<trkpt lat="46.0474010" lon="10.3240590">
	<ele>1370.80</ele>
	<time>2025-07-30T06:59:03.000Z</time>
</trkpt>
<trkpt lat="46.0474070" lon="10.3240580">
	<ele>1371.00</ele>
	<time>2025-07-30T06:59:04.000Z</time>
</trkpt>
<trkpt lat="46.0474100" lon="10.3240500">
	<ele>1371.20</ele>
	<time>2025-07-30T06:59:05.000Z</time>
</trkpt>
<trkpt lat="46.0474150" lon="10.3240440">
	<ele>1371.20</ele>
	<time>2025-07-30T06:59:06.000Z</time>
</trkpt>
<trkpt lat="46.0474150" lon="10.3240350">
	<ele>1371.60</ele>
	<time>2025-07-30T06:59:07.000Z</time>
</trkpt>
<trkpt lat="46.0474190" lon="10.3240340">
	<ele>1371.80</ele>
	<time>2025-07-30T06:59:08.000Z</time>
</trkpt>
<trkpt lat="46.0474260" lon="10.3240340">
	<ele>1372.00</ele>
	<time>2025-07-30T06:59:09.000Z</time>
</trkpt>
<trkpt lat="46.0474250" lon="10.3240340">
	<ele>1372.00</ele>
	<time>2025-07-30T06:59:10.000Z</time>
</trkpt>
<trkpt lat="46.0474270" lon="10.3240360">
	<ele>1372.20</ele>
	<time>2025-07-30T06:59:11.000Z</time>
</trkpt>
<trkpt lat="46.0474330" lon="10.3240390">
	<ele>1372.40</ele>
	<time>2025-07-30T06:59:12.000Z</time>
</trkpt>
<trkpt lat="46.0474360" lon="10.3240390">
	<ele>1372.60</ele>
	<time>2025-07-30T06:59:13.000Z</time>
</trkpt>
<trkpt lat="46.0474420" lon="10.3240420">
	<ele>1372.80</ele>
	<time>2025-07-30T06:59:14.000Z</time>
</trkpt>
<trkpt lat="46.0474470" lon="10.3240460">
	<ele>1373.00</ele>
	<time>2025-07-30T06:59:15.000Z</time>
</trkpt>
<trkpt lat="46.0474530" lon="10.3240540">
	<ele>1373.40</ele>
	<time>2025-07-30T06:59:16.000Z</time>
</trkpt>
<trkpt lat="46.0474560" lon="10.3240610">
	<ele>1373.60</ele>
	<time>2025-07-30T06:59:17.000Z</time>
</trkpt>
<trkpt lat="46.0474580" lon="10.3240670">
	<ele>1373.80</ele>
	<time>2025-07-30T06:59:18.000Z</time>
</trkpt>
<trkpt lat="46.0474600" lon="10.3240700">
	<ele>1373.80</ele>
	<time>2025-07-30T06:59:19.000Z</time>
</trkpt>
<trkpt lat="46.0474630" lon="10.3240830">
	<ele>1373.80</ele>
	<time>2025-07-30T06:59:20.000Z</time>
</trkpt>
<trkpt lat="46.0474650" lon="10.3240860">
	<ele>1374.00</ele>
	<time>2025-07-30T06:59:21.000Z</time>
</trkpt>
<trkpt lat="46.0474630" lon="10.3240910">
	<ele>1374.20</ele>
	<time>2025-07-30T06:59:22.000Z</time>
</trkpt>
<trkpt lat="46.0474620" lon="10.3241010">
	<ele>1374.40</ele>
	<time>2025-07-30T06:59:23.000Z</time>
</trkpt>
<trkpt lat="46.0474640" lon="10.3241070">
	<ele>1374.60</ele>
	<time>2025-07-30T06:59:24.000Z</time>
</trkpt>
<trkpt lat="46.0474650" lon="10.3241110">
	<ele>1375.00</ele>
	<time>2025-07-30T06:59:25.000Z</time>
</trkpt>
<trkpt lat="46.0474670" lon="10.3241110">
	<ele>1375.20</ele>
	<time>2025-07-30T06:59:26.000Z</time>
</trkpt>
<trkpt lat="46.0474700" lon="10.3241130">
	<ele>1375.40</ele>
	<time>2025-07-30T06:59:27.000Z</time>
</trkpt>
<trkpt lat="46.0474730" lon="10.3241190">
	<ele>1375.60</ele>
	<time>2025-07-30T06:59:28.000Z</time>
</trkpt>
<trkpt lat="46.0474780" lon="10.3241260">
	<ele>1375.80</ele>
	<time>2025-07-30T06:59:29.000Z</time>
</trkpt>
<trkpt lat="46.0474820" lon="10.3241310">
	<ele>1376.00</ele>
	<time>2025-07-30T06:59:30.000Z</time>
</trkpt>
<trkpt lat="46.0474880" lon="10.3241390">
	<ele>1376.00</ele>
	<time>2025-07-30T06:59:31.000Z</time>
</trkpt>
<trkpt lat="46.0474920" lon="10.3241430">
	<ele>1376.00</ele>
	<time>2025-07-30T06:59:32.000Z</time>
</trkpt>
<trkpt lat="46.0474940" lon="10.3241500">
	<ele>1376.20</ele>
	<time>2025-07-30T06:59:33.000Z</time>
</trkpt>
<trkpt lat="46.0474970" lon="10.3241570">
	<ele>1376.40</ele>
	<time>2025-07-30T06:59:34.000Z</time>
</trkpt>
<trkpt lat="46.0474960" lon="10.3241620">
	<ele>1376.40</ele>
	<time>2025-07-30T06:59:35.000Z</time>
</trkpt>
<trkpt lat="46.0474950" lon="10.3241650">
	<ele>1376.80</ele>
	<time>2025-07-30T06:59:36.000Z</time>
</trkpt>
<trkpt lat="46.0474960" lon="10.3241700">
	<ele>1377.00</ele>
	<time>2025-07-30T06:59:37.000Z</time>
</trkpt>
<trkpt lat="46.0474970" lon="10.3241730">
	<ele>1377.00</ele>
	<time>2025-07-30T06:59:38.000Z</time>
</trkpt>
<trkpt lat="46.0474970" lon="10.3241780">
	<ele>1377.20</ele>
	<time>2025-07-30T06:59:39.000Z</time>
</trkpt>
<trkpt lat="46.0474980" lon="10.3241820">
	<ele>1377.20</ele>
	<time>2025-07-30T06:59:40.000Z</time>
</trkpt>
<trkpt lat="46.0475010" lon="10.3241880">
	<ele>1377.40</ele>
	<time>2025-07-30T06:59:41.000Z</time>
</trkpt>
<trkpt lat="46.0475080" lon="10.3241950">
	<ele>1377.80</ele>
	<time>2025-07-30T06:59:42.000Z</time>
</trkpt>
<trkpt lat="46.0475120" lon="10.3241970">
	<ele>1378.00</ele>
	<time>2025-07-30T06:59:43.000Z</time>
</trkpt>
<trkpt lat="46.0475110" lon="10.3242000">
	<ele>1378.20</ele>
	<time>2025-07-30T06:59:44.000Z</time>
</trkpt>
<trkpt lat="46.0475130" lon="10.3242060">
	<ele>1378.40</ele>
	<time>2025-07-30T06:59:45.000Z</time>
</trkpt>
<trkpt lat="46.0475150" lon="10.3242140">
	<ele>1378.60</ele>
	<time>2025-07-30T06:59:46.000Z</time>
</trkpt>
<trkpt lat="46.0475180" lon="10.3242210">
	<ele>1378.80</ele>
	<time>2025-07-30T06:59:47.000Z</time>
</trkpt>
<trkpt lat="46.0475210" lon="10.3242250">
	<ele>1378.80</ele>
	<time>2025-07-30T06:59:48.000Z</time>
</trkpt>
<trkpt lat="46.0475280" lon="10.3242300">
	<ele>1379.00</ele>
	<time>2025-07-30T06:59:49.000Z</time>
</trkpt>
<trkpt lat="46.0475430" lon="10.3242440">
	<ele>1379.20</ele>
	<time>2025-07-30T06:59:50.000Z</time>
</trkpt>
<trkpt lat="46.0475450" lon="10.3242470">
	<ele>1379.40</ele>
	<time>2025-07-30T06:59:51.000Z</time>
</trkpt>
<trkpt lat="46.0475510" lon="10.3242530">
	<ele>1379.60</ele>
	<time>2025-07-30T06:59:52.000Z</time>
</trkpt>
<trkpt lat="46.0475590" lon="10.3242610">
	<ele>1379.80</ele>
	<time>2025-07-30T06:59:53.000Z</time>
</trkpt>
<trkpt lat="46.0475680" lon="10.3242700">
	<ele>1379.80</ele>
	<time>2025-07-30T06:59:54.000Z</time>
</trkpt>
<trkpt lat="46.0475730" lon="10.3242790">
	<ele>1379.80</ele>
	<time>2025-07-30T06:59:55.000Z</time>
</trkpt>
<trkpt lat="46.0475780" lon="10.3242870">
	<ele>1380.20</ele>
	<time>2025-07-30T06:59:56.000Z</time>
</trkpt>
<trkpt lat="46.0475800" lon="10.3242930">
	<ele>1380.40</ele>
	<time>2025-07-30T06:59:57.000Z</time>
</trkpt>
<trkpt lat="46.0475820" lon="10.3242960">
	<ele>1380.80</ele>
	<time>2025-07-30T06:59:58.000Z</time>
</trkpt>
<trkpt lat="46.0475850" lon="10.3243030">
	<ele>1381.00</ele>
	<time>2025-07-30T06:59:59.000Z</time>
</trkpt>
<trkpt lat="46.0475870" lon="10.3243050">
	<ele>1381.20</ele>
	<time>2025-07-30T07:00:00.000Z</time>
</trkpt>
<trkpt lat="46.0475960" lon="10.3243130">
	<ele>1381.40</ele>
	<time>2025-07-30T07:00:01.000Z</time>
</trkpt>
<trkpt lat="46.0475990" lon="10.3243180">
	<ele>1381.60</ele>
	<time>2025-07-30T07:00:02.000Z</time>
</trkpt>
<trkpt lat="46.0476000" lon="10.3243240">
	<ele>1381.60</ele>
	<time>2025-07-30T07:00:03.000Z</time>
</trkpt>
<trkpt lat="46.0476020" lon="10.3243280">
	<ele>1382.00</ele>
	<time>2025-07-30T07:00:04.000Z</time>
</trkpt>
<trkpt lat="46.0476030" lon="10.3243320">
	<ele>1382.20</ele>
	<time>2025-07-30T07:00:05.000Z</time>
</trkpt>
<trkpt lat="46.0476090" lon="10.3243300">
	<ele>1382.40</ele>
	<time>2025-07-30T07:00:06.000Z</time>
</trkpt>
<trkpt lat="46.0476170" lon="10.3243290">
	<ele>1382.60</ele>
	<time>2025-07-30T07:00:07.000Z</time>
</trkpt>
<trkpt lat="46.0476280" lon="10.3243290">
	<ele>1382.60</ele>
	<time>2025-07-30T07:00:08.000Z</time>
</trkpt>
<trkpt lat="46.0476330" lon="10.3243250">
	<ele>1382.60</ele>
	<time>2025-07-30T07:00:09.000Z</time>
</trkpt>
<trkpt lat="46.0476370" lon="10.3243250">
	<ele>1382.80</ele>
	<time>2025-07-30T07:00:10.000Z</time>
</trkpt>
<trkpt lat="46.0476430" lon="10.3243280">
	<ele>1383.00</ele>
	<time>2025-07-30T07:00:11.000Z</time>
</trkpt>
<trkpt lat="46.0476470" lon="10.3243300">
	<ele>1383.00</ele>
	<time>2025-07-30T07:00:12.000Z</time>
</trkpt>
<trkpt lat="46.0476530" lon="10.3243360">
	<ele>1383.20</ele>
	<time>2025-07-30T07:00:13.000Z</time>
</trkpt>
<trkpt lat="46.0476580" lon="10.3243360">
	<ele>1383.40</ele>
	<time>2025-07-30T07:00:14.000Z</time>
</trkpt>
<trkpt lat="46.0476620" lon="10.3243350">
	<ele>1383.60</ele>
	<time>2025-07-30T07:00:15.000Z</time>
</trkpt>
<trkpt lat="46.0476690" lon="10.3243320">
	<ele>1383.80</ele>
	<time>2025-07-30T07:00:16.000Z</time>
</trkpt>
<trkpt lat="46.0476680" lon="10.3243340">
	<ele>1384.00</ele>
	<time>2025-07-30T07:00:17.000Z</time>
</trkpt>
<trkpt lat="46.0476700" lon="10.3243380">
	<ele>1384.20</ele>
	<time>2025-07-30T07:00:18.000Z</time>
</trkpt>
<trkpt lat="46.0476750" lon="10.3243410">
	<ele>1384.40</ele>
	<time>2025-07-30T07:00:19.000Z</time>
</trkpt>
<trkpt lat="46.0476780" lon="10.3243420">
	<ele>1384.60</ele>
	<time>2025-07-30T07:00:20.000Z</time>
</trkpt>
<trkpt lat="46.0476830" lon="10.3243420">
	<ele>1384.80</ele>
	<time>2025-07-30T07:00:21.000Z</time>
</trkpt>
<trkpt lat="46.0476870" lon="10.3243440">
	<ele>1385.00</ele>
	<time>2025-07-30T07:00:22.000Z</time>
</trkpt>
<trkpt lat="46.0476910" lon="10.3243440">
	<ele>1385.00</ele>
	<time>2025-07-30T07:00:23.000Z</time>
</trkpt>
<trkpt lat="46.0476940" lon="10.3243440">
	<ele>1385.20</ele>
	<time>2025-07-30T07:00:24.000Z</time>
</trkpt>
<trkpt lat="46.0476980" lon="10.3243430">
	<ele>1385.40</ele>
	<time>2025-07-30T07:00:25.000Z</time>
</trkpt>
<trkpt lat="46.0477030" lon="10.3243410">
	<ele>1385.60</ele>
	<time>2025-07-30T07:00:26.000Z</time>
</trkpt>
<trkpt lat="46.0477100" lon="10.3243380">
	<ele>1385.60</ele>
	<time>2025-07-30T07:00:27.000Z</time>
</trkpt>
<trkpt lat="46.0477110" lon="10.3243370">
	<ele>1385.80</ele>
	<time>2025-07-30T07:00:28.000Z</time>
</trkpt>
<trkpt lat="46.0477120" lon="10.3243350">
	<ele>1386.20</ele>
	<time>2025-07-30T07:00:29.000Z</time>
</trkpt>
<trkpt lat="46.0477160" lon="10.3243340">
	<ele>1386.40</ele>
	<time>2025-07-30T07:00:30.000Z</time>
</trkpt>
<trkpt lat="46.0477200" lon="10.3243310">
	<ele>1386.60</ele>
	<time>2025-07-30T07:00:31.000Z</time>
</trkpt>
<trkpt lat="46.0477220" lon="10.3243260">
	<ele>1386.80</ele>
	<time>2025-07-30T07:00:32.000Z</time>
</trkpt>
<trkpt lat="46.0477280" lon="10.3243220">
	<ele>1387.00</ele>
	<time>2025-07-30T07:00:33.000Z</time>
</trkpt>
<trkpt lat="46.0477330" lon="10.3243180">
	<ele>1387.20</ele>
	<time>2025-07-30T07:00:34.000Z</time>
</trkpt>
<trkpt lat="46.0477380" lon="10.3243170">
	<ele>1387.40</ele>
	<time>2025-07-30T07:00:35.000Z</time>
</trkpt>
<trkpt lat="46.0477430" lon="10.3243150">
	<ele>1387.60</ele>
	<time>2025-07-30T07:00:36.000Z</time>
</trkpt>
<trkpt lat="46.0477490" lon="10.3243140">
	<ele>1387.80</ele>
	<time>2025-07-30T07:00:37.000Z</time>
</trkpt>
<trkpt lat="46.0477530" lon="10.3243130">
	<ele>1388.00</ele>
	<time>2025-07-30T07:00:38.000Z</time>
</trkpt>
<trkpt lat="46.0477600" lon="10.3243120">
	<ele>1388.00</ele>
	<time>2025-07-30T07:00:39.000Z</time>
</trkpt>
<trkpt lat="46.0477640" lon="10.3243120">
	<ele>1388.20</ele>
	<time>2025-07-30T07:00:40.000Z</time>
</trkpt>
<trkpt lat="46.0477690" lon="10.3243120">
	<ele>1388.40</ele>
	<time>2025-07-30T07:00:41.000Z</time>
</trkpt>
<trkpt lat="46.0477740" lon="10.3243140">
	<ele>1388.60</ele>
	<time>2025-07-30T07:00:42.000Z</time>
</trkpt>
<trkpt lat="46.0477770" lon="10.3243160">
	<ele>1389.00</ele>
	<time>2025-07-30T07:00:43.000Z</time>
</trkpt>
<trkpt lat="46.0477790" lon="10.3243210">
	<ele>1389.40</ele>
	<time>2025-07-30T07:00:44.000Z</time>
</trkpt>
<trkpt lat="46.0477830" lon="10.3243220">
	<ele>1389.40</ele>
	<time>2025-07-30T07:00:45.000Z</time>
</trkpt>
<trkpt lat="46.0477850" lon="10.3243240">
	<ele>1389.60</ele>
	<time>2025-07-30T07:00:46.000Z</time>
</trkpt>
<trkpt lat="46.0477880" lon="10.3243240">
	<ele>1389.80</ele>
	<time>2025-07-30T07:00:47.000Z</time>
</trkpt>
<trkpt lat="46.0477890" lon="10.3243240">
	<ele>1390.00</ele>
	<time>2025-07-30T07:00:48.000Z</time>
</trkpt>
<trkpt lat="46.0477920" lon="10.3243230">
	<ele>1390.20</ele>
	<time>2025-07-30T07:00:49.000Z</time>
</trkpt>
<trkpt lat="46.0477950" lon="10.3243240">
	<ele>1390.20</ele>
	<time>2025-07-30T07:00:50.000Z</time>
</trkpt>
<trkpt lat="46.0477980" lon="10.3243250">
	<ele>1390.20</ele>
	<time>2025-07-30T07:00:51.000Z</time>
</trkpt>
<trkpt lat="46.0478030" lon="10.3243270">
	<ele>1390.40</ele>
	<time>2025-07-30T07:00:52.000Z</time>
</trkpt>
<trkpt lat="46.0478030" lon="10.3243290">
	<ele>1390.40</ele>
	<time>2025-07-30T07:00:53.000Z</time>
</trkpt>
<trkpt lat="46.0478070" lon="10.3243320">
	<ele>1390.80</ele>
	<time>2025-07-30T07:00:54.000Z</time>
</trkpt>
<trkpt lat="46.0478100" lon="10.3243330">
	<ele>1391.00</ele>
	<time>2025-07-30T07:00:55.000Z</time>
</trkpt>
<trkpt lat="46.0478170" lon="10.3243280">
	<ele>1391.20</ele>
	<time>2025-07-30T07:00:56.000Z</time>
</trkpt>
<trkpt lat="46.0478180" lon="10.3243360">
	<ele>1391.40</ele>
	<time>2025-07-30T07:00:57.000Z</time>
</trkpt>
<trkpt lat="46.0478220" lon="10.3243370">
	<ele>1391.60</ele>
	<time>2025-07-30T07:00:58.000Z</time>
</trkpt>
<trkpt lat="46.0478270" lon="10.3243370">
	<ele>1391.80</ele>
	<time>2025-07-30T07:00:59.000Z</time>
</trkpt>
<trkpt lat="46.0478310" lon="10.3243380">
	<ele>1392.00</ele>
	<time>2025-07-30T07:01:00.000Z</time>
</trkpt>
<trkpt lat="46.0478340" lon="10.3243360">
	<ele>1392.20</ele>
	<time>2025-07-30T07:01:01.000Z</time>
</trkpt>
<trkpt lat="46.0478370" lon="10.3243340">
	<ele>1392.40</ele>
	<time>2025-07-30T07:01:02.000Z</time>
</trkpt>
<trkpt lat="46.0478440" lon="10.3243320">
	<ele>1392.40</ele>
	<time>2025-07-30T07:01:03.000Z</time>
</trkpt>
<trkpt lat="46.0478460" lon="10.3243310">
	<ele>1392.60</ele>
	<time>2025-07-30T07:01:04.000Z</time>
</trkpt>
<trkpt lat="46.0478550" lon="10.3243310">
	<ele>1393.00</ele>
	<time>2025-07-30T07:01:05.000Z</time>
</trkpt>
<trkpt lat="46.0478600" lon="10.3243320">
	<ele>1393.20</ele>
	<time>2025-07-30T07:01:06.000Z</time>
</trkpt>
<trkpt lat="46.0478630" lon="10.3243270">
	<ele>1393.40</ele>
	<time>2025-07-30T07:01:07.000Z</time>
</trkpt>
<trkpt lat="46.0478670" lon="10.3243230">
	<ele>1393.60</ele>
	<time>2025-07-30T07:01:08.000Z</time>
</trkpt>
<trkpt lat="46.0478700" lon="10.3243210">
	<ele>1393.60</ele>
	<time>2025-07-30T07:01:09.000Z</time>
</trkpt>
<trkpt lat="46.0478740" lon="10.3243130">
	<ele>1393.80</ele>
	<time>2025-07-30T07:01:10.000Z</time>
</trkpt>
<trkpt lat="46.0478810" lon="10.3243070">
	<ele>1393.80</ele>
	<time>2025-07-30T07:01:11.000Z</time>
</trkpt>
<trkpt lat="46.0478880" lon="10.3243060">
	<ele>1394.00</ele>
	<time>2025-07-30T07:01:12.000Z</time>
</trkpt>
<trkpt lat="46.0478980" lon="10.3243070">
	<ele>1394.00</ele>
	<time>2025-07-30T07:01:13.000Z</time>
</trkpt>
<trkpt lat="46.0479110" lon="10.3243040">
	<ele>1394.20</ele>
	<time>2025-07-30T07:01:14.000Z</time>
</trkpt>
<trkpt lat="46.0479270" lon="10.3242920">
	<ele>1394.40</ele>
	<time>2025-07-30T07:01:15.000Z</time>
</trkpt>
<trkpt lat="46.0479380" lon="10.3242830">
	<ele>1394.60</ele>
	<time>2025-07-30T07:01:16.000Z</time>
</trkpt>
<trkpt lat="46.0479490" lon="10.3242760">
	<ele>1394.60</ele>
	<time>2025-07-30T07:01:17.000Z</time>
</trkpt>
<trkpt lat="46.0479500" lon="10.3242670">
	<ele>1394.60</ele>
	<time>2025-07-30T07:01:18.000Z</time>
</trkpt>
<trkpt lat="46.0479500" lon="10.3242590">
	<ele>1394.80</ele>
	<time>2025-07-30T07:01:19.000Z</time>
</trkpt>
<trkpt lat="46.0479480" lon="10.3242370">
	<ele>1394.80</ele>
	<time>2025-07-30T07:01:20.000Z</time>
</trkpt>
<trkpt lat="46.0479530" lon="10.3242220">
	<ele>1395.00</ele>
	<time>2025-07-30T07:01:21.000Z</time>
</trkpt>
<trkpt lat="46.0479590" lon="10.3242130">
	<ele>1395.20</ele>
	<time>2025-07-30T07:01:22.000Z</time>
</trkpt>
<trkpt lat="46.0479680" lon="10.3242080">
	<ele>1395.20</ele>
	<time>2025-07-30T07:01:23.000Z</time>
</trkpt>
<trkpt lat="46.0479720" lon="10.3242100">
	<ele>1395.40</ele>
	<time>2025-07-30T07:01:24.000Z</time>
</trkpt>
<trkpt lat="46.0479810" lon="10.3242080">
	<ele>1395.40</ele>
	<time>2025-07-30T07:01:25.000Z</time>
</trkpt>
<trkpt lat="46.0479870" lon="10.3242050">
	<ele>1395.40</ele>
	<time>2025-07-30T07:01:26.000Z</time>
</trkpt>
<trkpt lat="46.0479930" lon="10.3241990">
	<ele>1395.40</ele>
	<time>2025-07-30T07:01:27.000Z</time>
</trkpt>
<trkpt lat="46.0480040" lon="10.3241890">
	<ele>1395.40</ele>
	<time>2025-07-30T07:01:28.000Z</time>
</trkpt>
<trkpt lat="46.0480260" lon="10.3241950">
	<ele>1395.40</ele>
	<time>2025-07-30T07:01:29.000Z</time>
</trkpt>
<trkpt lat="46.0480300" lon="10.3241980">
	<ele>1395.60</ele>
	<time>2025-07-30T07:01:30.000Z</time>
</trkpt>
<trkpt lat="46.0480350" lon="10.3241990">
	<ele>1395.60</ele>
	<time>2025-07-30T07:01:31.000Z</time>
</trkpt>
<trkpt lat="46.0480360" lon="10.3242040">
	<ele>1395.60</ele>
	<time>2025-07-30T07:01:32.000Z</time>
</trkpt>
<trkpt lat="46.0480610" lon="10.3242110">
	<ele>1395.80</ele>
	<time>2025-07-30T07:01:33.000Z</time>
</trkpt>
<trkpt lat="46.0480820" lon="10.3242150">
	<ele>1395.80</ele>
	<time>2025-07-30T07:01:34.000Z</time>
</trkpt>
<trkpt lat="46.0481000" lon="10.3242090">
	<ele>1396.00</ele>
	<time>2025-07-30T07:01:35.000Z</time>
</trkpt>
<trkpt lat="46.0481110" lon="10.3242030">
	<ele>1396.00</ele>
	<time>2025-07-30T07:01:36.000Z</time>
</trkpt>
<trkpt lat="46.0481150" lon="10.3241990">
	<ele>1396.20</ele>
	<time>2025-07-30T07:01:37.000Z</time>
</trkpt>
<trkpt lat="46.0481170" lon="10.3241890">
	<ele>1396.20</ele>
	<time>2025-07-30T07:01:38.000Z</time>
</trkpt>
<trkpt lat="46.0481240" lon="10.3241860">
	<ele>1396.40</ele>
	<time>2025-07-30T07:01:39.000Z</time>
</trkpt>
<trkpt lat="46.0481290" lon="10.3241830">
	<ele>1396.60</ele>
	<time>2025-07-30T07:01:40.000Z</time>
</trkpt>
<trkpt lat="46.0481360" lon="10.3241830">
	<ele>1396.60</ele>
	<time>2025-07-30T07:01:41.000Z</time>
</trkpt>
<trkpt lat="46.0481500" lon="10.3241790">
	<ele>1397.00</ele>
	<time>2025-07-30T07:01:42.000Z</time>
</trkpt>
<trkpt lat="46.0481600" lon="10.3241780">
	<ele>1397.20</ele>
	<time>2025-07-30T07:01:43.000Z</time>
</trkpt>
<trkpt lat="46.0481670" lon="10.3241780">
	<ele>1397.40</ele>
	<time>2025-07-30T07:01:44.000Z</time>
</trkpt>
<trkpt lat="46.0481770" lon="10.3241770">
	<ele>1397.40</ele>
	<time>2025-07-30T07:01:45.000Z</time>
</trkpt>
<trkpt lat="46.0481860" lon="10.3241790">
	<ele>1397.60</ele>
	<time>2025-07-30T07:01:46.000Z</time>
</trkpt>
<trkpt lat="46.0481990" lon="10.3241800">
	<ele>1397.60</ele>
	<time>2025-07-30T07:01:47.000Z</time>
</trkpt>
<trkpt lat="46.0482070" lon="10.3241760">
	<ele>1397.60</ele>
	<time>2025-07-30T07:01:48.000Z</time>
</trkpt>
<trkpt lat="46.0482190" lon="10.3241790">
	<ele>1397.60</ele>
	<time>2025-07-30T07:01:49.000Z</time>
</trkpt>
<trkpt lat="46.0482340" lon="10.3241820">
	<ele>1397.60</ele>
	<time>2025-07-30T07:01:50.000Z</time>
</trkpt>
<trkpt lat="46.0482370" lon="10.3241830">
	<ele>1397.80</ele>
	<time>2025-07-30T07:01:51.000Z</time>
</trkpt>
<trkpt lat="46.0482430" lon="10.3241870">
	<ele>1397.80</ele>
	<time>2025-07-30T07:01:52.000Z</time>
</trkpt>
<trkpt lat="46.0482560" lon="10.3241870">
	<ele>1398.00</ele>
	<time>2025-07-30T07:01:53.000Z</time>
</trkpt>
<trkpt lat="46.0482630" lon="10.3241870">
	<ele>1398.20</ele>
	<time>2025-07-30T07:01:54.000Z</time>
</trkpt>
<trkpt lat="46.0482740" lon="10.3241850">
	<ele>1398.20</ele>
	<time>2025-07-30T07:01:55.000Z</time>
</trkpt>
<trkpt lat="46.0482830" lon="10.3241850">
	<ele>1398.20</ele>
	<time>2025-07-30T07:01:56.000Z</time>
</trkpt>
<trkpt lat="46.0482890" lon="10.3241880">
	<ele>1398.40</ele>
	<time>2025-07-30T07:01:57.000Z</time>
</trkpt>
<trkpt lat="46.0482980" lon="10.3241880">
	<ele>1398.40</ele>
	<time>2025-07-30T07:01:58.000Z</time>
</trkpt>
<trkpt lat="46.0483140" lon="10.3241860">
	<ele>1398.60</ele>
	<time>2025-07-30T07:01:59.000Z</time>
</trkpt>
<trkpt lat="46.0483250" lon="10.3241790">
	<ele>1398.60</ele>
	<time>2025-07-30T07:02:00.000Z</time>
</trkpt>
<trkpt lat="46.0483340" lon="10.3241720">
	<ele>1398.80</ele>
	<time>2025-07-30T07:02:01.000Z</time>
</trkpt>
<trkpt lat="46.0483350" lon="10.3241670">
	<ele>1398.80</ele>
	<time>2025-07-30T07:02:02.000Z</time>
</trkpt>
<trkpt lat="46.0483430" lon="10.3241660">
	<ele>1398.80</ele>
	<time>2025-07-30T07:02:03.000Z</time>
</trkpt>
<trkpt lat="46.0483540" lon="10.3241660">
	<ele>1399.00</ele>
	<time>2025-07-30T07:02:04.000Z</time>
</trkpt>
<trkpt lat="46.0483700" lon="10.3241660">
	<ele>1399.00</ele>
	<time>2025-07-30T07:02:05.000Z</time>
</trkpt>
<trkpt lat="46.0483850" lon="10.3241670">
	<ele>1399.00</ele>
	<time>2025-07-30T07:02:06.000Z</time>
</trkpt>
<trkpt lat="46.0483950" lon="10.3241650">
	<ele>1399.20</ele>
	<time>2025-07-30T07:02:07.000Z</time>
</trkpt>
<trkpt lat="46.0484020" lon="10.3241570">
	<ele>1399.40</ele>
	<time>2025-07-30T07:02:08.000Z</time>
</trkpt>
<trkpt lat="46.0484110" lon="10.3241550">
	<ele>1399.80</ele>
	<time>2025-07-30T07:02:09.000Z</time>
</trkpt>
<trkpt lat="46.0484200" lon="10.3241570">
	<ele>1400.00</ele>
	<time>2025-07-30T07:02:10.000Z</time>
</trkpt>
<trkpt lat="46.0484390" lon="10.3241630">
	<ele>1400.00</ele>
	<time>2025-07-30T07:02:11.000Z</time>
</trkpt>
<trkpt lat="46.0484520" lon="10.3241620">
	<ele>1400.20</ele>
	<time>2025-07-30T07:02:12.000Z</time>
</trkpt>
<trkpt lat="46.0484630" lon="10.3241630">
	<ele>1400.20</ele>
	<time>2025-07-30T07:02:13.000Z</time>
</trkpt>
<trkpt lat="46.0484750" lon="10.3241640">
	<ele>1400.40</ele>
	<time>2025-07-30T07:02:14.000Z</time>
</trkpt>
<trkpt lat="46.0484790" lon="10.3241680">
	<ele>1400.40</ele>
	<time>2025-07-30T07:02:15.000Z</time>
</trkpt>
<trkpt lat="46.0484840" lon="10.3241750">
	<ele>1400.60</ele>
	<time>2025-07-30T07:02:16.000Z</time>
</trkpt>
<trkpt lat="46.0484880" lon="10.3241840">
	<ele>1400.60</ele>
	<time>2025-07-30T07:02:17.000Z</time>
</trkpt>
<trkpt lat="46.0484930" lon="10.3241900">
	<ele>1400.80</ele>
	<time>2025-07-30T07:02:18.000Z</time>
</trkpt>
<trkpt lat="46.0484950" lon="10.3241930">
	<ele>1400.80</ele>
	<time>2025-07-30T07:02:19.000Z</time>
</trkpt>
<trkpt lat="46.0484960" lon="10.3241980">
	<ele>1400.80</ele>
	<time>2025-07-30T07:02:20.000Z</time>
</trkpt>
<trkpt lat="46.0484970" lon="10.3242000">
	<ele>1401.00</ele>
	<time>2025-07-30T07:02:21.000Z</time>
</trkpt>
<trkpt lat="46.0484990" lon="10.3242020">
	<ele>1401.20</ele>
	<time>2025-07-30T07:02:22.000Z</time>
</trkpt>
<trkpt lat="46.0484980" lon="10.3242000">
	<ele>1401.20</ele>
	<time>2025-07-30T07:02:23.000Z</time>
</trkpt>
<trkpt lat="46.0484960" lon="10.3242000">
	<ele>1401.40</ele>
	<time>2025-07-30T07:02:24.000Z</time>
</trkpt>
<trkpt lat="46.0484940" lon="10.3242020">
	<ele>1401.60</ele>
	<time>2025-07-30T07:02:25.000Z</time>
</trkpt>
<trkpt lat="46.0484930" lon="10.3242020">
	<ele>1401.60</ele>
	<time>2025-07-30T07:02:26.000Z</time>
</trkpt>
<trkpt lat="46.0484930" lon="10.3242030">
	<ele>1401.60</ele>
	<time>2025-07-30T07:02:27.000Z</time>
</trkpt>
<trkpt lat="46.0484950" lon="10.3242040">
	<ele>1401.60</ele>
	<time>2025-07-30T07:02:28.000Z</time>
</trkpt>
<trkpt lat="46.0484980" lon="10.3242050">
	<ele>1401.60</ele>
	<time>2025-07-30T07:02:29.000Z</time>
</trkpt>
<trkpt lat="46.0485010" lon="10.3242080">
	<ele>1401.80</ele>
	<time>2025-07-30T07:02:30.000Z</time>
</trkpt>
<trkpt lat="46.0485080" lon="10.3242040">
	<ele>1401.80</ele>
	<time>2025-07-30T07:02:31.000Z</time>
</trkpt>
<trkpt lat="46.0485120" lon="10.3241990">
	<ele>1401.60</ele>
	<time>2025-07-30T07:02:32.000Z</time>
</trkpt>
<trkpt lat="46.0485180" lon="10.3241920">
	<ele>1401.60</ele>
	<time>2025-07-30T07:02:33.000Z</time>
</trkpt>
<trkpt lat="46.0485260" lon="10.3241890">
	<ele>1401.60</ele>
	<time>2025-07-30T07:02:34.000Z</time>
</trkpt>
<trkpt lat="46.0485350" lon="10.3241840">
	<ele>1401.80</ele>
	<time>2025-07-30T07:02:35.000Z</time>
</trkpt>
<trkpt lat="46.0485430" lon="10.3241800">
	<ele>1401.80</ele>
	<time>2025-07-30T07:02:36.000Z</time>
</trkpt>
<trkpt lat="46.0485510" lon="10.3241750">
	<ele>1402.00</ele>
	<time>2025-07-30T07:02:37.000Z</time>
</trkpt>
<trkpt lat="46.0485590" lon="10.3241770">
	<ele>1402.00</ele>
	<time>2025-07-30T07:02:38.000Z</time>
</trkpt>
<trkpt lat="46.0485690" lon="10.3241760">
	<ele>1402.20</ele>
	<time>2025-07-30T07:02:39.000Z</time>
</trkpt>
<trkpt lat="46.0485750" lon="10.3241700">
	<ele>1402.20</ele>
	<time>2025-07-30T07:02:40.000Z</time>
</trkpt>
<trkpt lat="46.0485830" lon="10.3241680">
	<ele>1402.40</ele>
	<time>2025-07-30T07:02:41.000Z</time>
</trkpt>
<trkpt lat="46.0485900" lon="10.3241610">
	<ele>1402.60</ele>
	<time>2025-07-30T07:02:42.000Z</time>
</trkpt>
<trkpt lat="46.0485960" lon="10.3241570">
	<ele>1402.60</ele>
	<time>2025-07-30T07:02:43.000Z</time>
</trkpt>
<trkpt lat="46.0486070" lon="10.3241530">
	<ele>1402.80</ele>
	<time>2025-07-30T07:02:44.000Z</time>
</trkpt>
<trkpt lat="46.0486200" lon="10.3241490">
	<ele>1402.80</ele>
	<time>2025-07-30T07:02:45.000Z</time>
</trkpt>
<trkpt lat="46.0486280" lon="10.3241460">
	<ele>1402.80</ele>
	<time>2025-07-30T07:02:46.000Z</time>
</trkpt>
<trkpt lat="46.0486380" lon="10.3241480">
	<ele>1402.80</ele>
	<time>2025-07-30T07:02:47.000Z</time>
</trkpt>
<trkpt lat="46.0486440" lon="10.3241470">
	<ele>1403.00</ele>
	<time>2025-07-30T07:02:48.000Z</time>
</trkpt>
<trkpt lat="46.0486550" lon="10.3241430">
	<ele>1403.00</ele>
	<time>2025-07-30T07:02:49.000Z</time>
</trkpt>
<trkpt lat="46.0486670" lon="10.3241300">
	<ele>1403.20</ele>
	<time>2025-07-30T07:02:50.000Z</time>
</trkpt>
<trkpt lat="46.0486730" lon="10.3241170">
	<ele>1403.40</ele>
	<time>2025-07-30T07:02:51.000Z</time>
</trkpt>
<trkpt lat="46.0486820" lon="10.3241110">
	<ele>1403.40</ele>
	<time>2025-07-30T07:02:52.000Z</time>
</trkpt>
<trkpt lat="46.0486920" lon="10.3241130">
	<ele>1403.60</ele>
	<time>2025-07-30T07:02:53.000Z</time>
</trkpt>
<trkpt lat="46.0487020" lon="10.3241120">
	<ele>1403.80</ele>
	<time>2025-07-30T07:02:54.000Z</time>
</trkpt>
<trkpt lat="46.0487130" lon="10.3241190">
	<ele>1403.80</ele>
	<time>2025-07-30T07:02:55.000Z</time>
</trkpt>
<trkpt lat="46.0487230" lon="10.3241220">
	<ele>1403.80</ele>
	<time>2025-07-30T07:02:56.000Z</time>
</trkpt>
<trkpt lat="46.0487330" lon="10.3241230">
	<ele>1404.00</ele>
	<time>2025-07-30T07:02:57.000Z</time>
</trkpt>
<trkpt lat="46.0487410" lon="10.3241200">
	<ele>1404.00</ele>
	<time>2025-07-30T07:02:58.000Z</time>
</trkpt>
<trkpt lat="46.0487450" lon="10.3241190">
	<ele>1404.20</ele>
	<time>2025-07-30T07:02:59.000Z</time>
</trkpt>
<trkpt lat="46.0487480" lon="10.3241160">
	<ele>1404.20</ele>
	<time>2025-07-30T07:03:00.000Z</time>
</trkpt>
<trkpt lat="46.0487550" lon="10.3241040">
	<ele>1404.40</ele>
	<time>2025-07-30T07:03:01.000Z</time>
</trkpt>
<trkpt lat="46.0487620" lon="10.3240900">
	<ele>1404.40</ele>
	<time>2025-07-30T07:03:02.000Z</time>
</trkpt>
<trkpt lat="46.0487700" lon="10.3240690">
	<ele>1404.40</ele>
	<time>2025-07-30T07:03:03.000Z</time>
</trkpt>
<trkpt lat="46.0487720" lon="10.3240430">
	<ele>1404.60</ele>
	<time>2025-07-30T07:03:04.000Z</time>
</trkpt>
<trkpt lat="46.0487750" lon="10.3240250">
	<ele>1404.60</ele>
	<time>2025-07-30T07:03:05.000Z</time>
</trkpt>
<trkpt lat="46.0487800" lon="10.3240140">
	<ele>1404.60</ele>
	<time>2025-07-30T07:03:06.000Z</time>
</trkpt>
<trkpt lat="46.0487670" lon="10.3240080">
	<ele>1404.60</ele>
	<time>2025-07-30T07:03:07.000Z</time>
</trkpt>
<trkpt lat="46.0487630" lon="10.3240040">
	<ele>1404.40</ele>
	<time>2025-07-30T07:03:08.000Z</time>
</trkpt>
<trkpt lat="46.0487680" lon="10.3239980">
	<ele>1404.60</ele>
	<time>2025-07-30T07:03:09.000Z</time>
</trkpt>
<trkpt lat="46.0487730" lon="10.3239900">
	<ele>1404.60</ele>
	<time>2025-07-30T07:03:10.000Z</time>
</trkpt>
<trkpt lat="46.0487790" lon="10.3239860">
	<ele>1404.60</ele>
	<time>2025-07-30T07:03:11.000Z</time>
</trkpt>
<trkpt lat="46.0487930" lon="10.3239850">
	<ele>1404.60</ele>
	<time>2025-07-30T07:03:12.000Z</time>
</trkpt>
<trkpt lat="46.0487960" lon="10.3239830">
	<ele>1404.80</ele>
	<time>2025-07-30T07:03:13.000Z</time>
</trkpt>
<trkpt lat="46.0487980" lon="10.3239790">
	<ele>1405.00</ele>
	<time>2025-07-30T07:03:14.000Z</time>
</trkpt>
<trkpt lat="46.0488050" lon="10.3239790">
	<ele>1405.00</ele>
	<time>2025-07-30T07:03:15.000Z</time>
</trkpt>
<trkpt lat="46.0488110" lon="10.3239780">
	<ele>1405.20</ele>
	<time>2025-07-30T07:03:16.000Z</time>
</trkpt>
<trkpt lat="46.0488210" lon="10.3240170">
	<ele>1405.40</ele>
	<time>2025-07-30T07:03:17.000Z</time>
</trkpt>
<trkpt lat="46.0488300" lon="10.3240120">
	<ele>1405.40</ele>
	<time>2025-07-30T07:03:18.000Z</time>
</trkpt>
<trkpt lat="46.0488320" lon="10.3240070">
	<ele>1405.40</ele>
	<time>2025-07-30T07:03:19.000Z</time>
</trkpt>
<trkpt lat="46.0488340" lon="10.3240040">
	<ele>1405.40</ele>
	<time>2025-07-30T07:03:20.000Z</time>
</trkpt>
<trkpt lat="46.0488400" lon="10.3239880">
	<ele>1405.40</ele>
	<time>2025-07-30T07:03:21.000Z</time>
</trkpt>
<trkpt lat="46.0488510" lon="10.3239750">
	<ele>1405.40</ele>
	<time>2025-07-30T07:03:22.000Z</time>
</trkpt>
<trkpt lat="46.0488580" lon="10.3239690">
	<ele>1405.40</ele>
	<time>2025-07-30T07:03:23.000Z</time>
</trkpt>
<trkpt lat="46.0488670" lon="10.3239670">
	<ele>1405.60</ele>
	<time>2025-07-30T07:03:24.000Z</time>
</trkpt>
<trkpt lat="46.0488780" lon="10.3239650">
	<ele>1405.80</ele>
	<time>2025-07-30T07:03:25.000Z</time>
</trkpt>
<trkpt lat="46.0488860" lon="10.3239530">
	<ele>1405.80</ele>
	<time>2025-07-30T07:03:26.000Z</time>
</trkpt>
<trkpt lat="46.0488880" lon="10.3239380">
	<ele>1406.00</ele>
	<time>2025-07-30T07:03:27.000Z</time>
</trkpt>
<trkpt lat="46.0488890" lon="10.3239200">
	<ele>1406.20</ele>
	<time>2025-07-30T07:03:28.000Z</time>
</trkpt>
<trkpt lat="46.0488930" lon="10.3239030">
	<ele>1406.40</ele>
	<time>2025-07-30T07:03:29.000Z</time>
</trkpt>
<trkpt lat="46.0488960" lon="10.3238880">
	<ele>1406.60</ele>
	<time>2025-07-30T07:03:30.000Z</time>
</trkpt>
<trkpt lat="46.0488960" lon="10.3238740">
	<ele>1407.00</ele>
	<time>2025-07-30T07:03:31.000Z</time>
</trkpt>
<trkpt lat="46.0488980" lon="10.3238630">
	<ele>1407.20</ele>
	<time>2025-07-30T07:03:32.000Z</time>
</trkpt>
<trkpt lat="46.0489010" lon="10.3238540">
	<ele>1407.40</ele>
	<time>2025-07-30T07:03:33.000Z</time>
</trkpt>
<trkpt lat="46.0488980" lon="10.3238440">
	<ele>1407.60</ele>
	<time>2025-07-30T07:03:34.000Z</time>
</trkpt>
<trkpt lat="46.0489010" lon="10.3238340">
	<ele>1407.60</ele>
	<time>2025-07-30T07:03:35.000Z</time>
</trkpt>
<trkpt lat="46.0489050" lon="10.3238340">
	<ele>1407.80</ele>
	<time>2025-07-30T07:03:36.000Z</time>
</trkpt>
<trkpt lat="46.0489300" lon="10.3238310">
	<ele>1408.00</ele>
	<time>2025-07-30T07:03:37.000Z</time>
</trkpt>
<trkpt lat="46.0489480" lon="10.3238280">
	<ele>1408.20</ele>
	<time>2025-07-30T07:03:38.000Z</time>
</trkpt>
<trkpt lat="46.0489600" lon="10.3238250">
	<ele>1408.40</ele>
	<time>2025-07-30T07:03:39.000Z</time>
</trkpt>
<trkpt lat="46.0489650" lon="10.3238260">
	<ele>1408.60</ele>
	<time>2025-07-30T07:03:40.000Z</time>
</trkpt>
<trkpt lat="46.0489660" lon="10.3238160">
	<ele>1408.80</ele>
	<time>2025-07-30T07:03:41.000Z</time>
</trkpt>
<trkpt lat="46.0489720" lon="10.3238080">
	<ele>1408.80</ele>
	<time>2025-07-30T07:03:42.000Z</time>
</trkpt>
<trkpt lat="46.0489820" lon="10.3238020">
	<ele>1409.00</ele>
	<time>2025-07-30T07:03:43.000Z</time>
</trkpt>
<trkpt lat="46.0489860" lon="10.3237920">
	<ele>1409.00</ele>
	<time>2025-07-30T07:03:44.000Z</time>
</trkpt>
<trkpt lat="46.0489840" lon="10.3237790">
	<ele>1409.00</ele>
	<time>2025-07-30T07:03:45.000Z</time>
</trkpt>
<trkpt lat="46.0489860" lon="10.3237620">
	<ele>1409.20</ele>
	<time>2025-07-30T07:03:46.000Z</time>
</trkpt>
<trkpt lat="46.0489930" lon="10.3237430">
	<ele>1409.40</ele>
	<time>2025-07-30T07:03:47.000Z</time>
</trkpt>
<trkpt lat="46.0490040" lon="10.3237330">
	<ele>1409.40</ele>
	<time>2025-07-30T07:03:48.000Z</time>
</trkpt>
<trkpt lat="46.0490090" lon="10.3237170">
	<ele>1409.60</ele>
	<time>2025-07-30T07:03:49.000Z</time>
</trkpt>
<trkpt lat="46.0490010" lon="10.3236960">
	<ele>1409.60</ele>
	<time>2025-07-30T07:03:50.000Z</time>
</trkpt>
<trkpt lat="46.0489960" lon="10.3236750">
	<ele>1409.80</ele>
	<time>2025-07-30T07:03:51.000Z</time>
</trkpt>
<trkpt lat="46.0489990" lon="10.3236570">
	<ele>1410.00</ele>
	<time>2025-07-30T07:03:52.000Z</time>
</trkpt>
<trkpt lat="46.0490010" lon="10.3236400">
	<ele>1410.20</ele>
	<time>2025-07-30T07:03:53.000Z</time>
</trkpt>
<trkpt lat="46.0490080" lon="10.3236210">
	<ele>1410.40</ele>
	<time>2025-07-30T07:03:54.000Z</time>
</trkpt>
<trkpt lat="46.0490130" lon="10.3236060">
	<ele>1410.80</ele>
	<time>2025-07-30T07:03:55.000Z</time>
</trkpt>
<trkpt lat="46.0490240" lon="10.3235950">
	<ele>1411.00</ele>
	<time>2025-07-30T07:03:56.000Z</time>
</trkpt>
<trkpt lat="46.0490380" lon="10.3235850">
	<ele>1411.20</ele>
	<time>2025-07-30T07:03:57.000Z</time>
</trkpt>
<trkpt lat="46.0490470" lon="10.3235710">
	<ele>1411.40</ele>
	<time>2025-07-30T07:03:58.000Z</time>
</trkpt>
<trkpt lat="46.0490480" lon="10.3235560">
	<ele>1411.40</ele>
	<time>2025-07-30T07:03:59.000Z</time>
</trkpt>
<trkpt lat="46.0490420" lon="10.3235400">
	<ele>1412.00</ele>
	<time>2025-07-30T07:04:00.000Z</time>
</trkpt>
<trkpt lat="46.0490420" lon="10.3235340">
	<ele>1412.20</ele>
	<time>2025-07-30T07:04:01.000Z</time>
</trkpt>
<trkpt lat="46.0490330" lon="10.3235170">
	<ele>1412.40</ele>
	<time>2025-07-30T07:04:02.000Z</time>
</trkpt>
<trkpt lat="46.0490340" lon="10.3235070">
	<ele>1412.60</ele>
	<time>2025-07-30T07:04:03.000Z</time>
</trkpt>
<trkpt lat="46.0490360" lon="10.3234980">
	<ele>1412.80</ele>
	<time>2025-07-30T07:04:04.000Z</time>
</trkpt>
<trkpt lat="46.0490480" lon="10.3234900">
	<ele>1413.00</ele>
	<time>2025-07-30T07:04:05.000Z</time>
</trkpt>
<trkpt lat="46.0490530" lon="10.3234770">
	<ele>1413.20</ele>
	<time>2025-07-30T07:04:06.000Z</time>
</trkpt>
<trkpt lat="46.0490540" lon="10.3234610">
	<ele>1413.20</ele>
	<time>2025-07-30T07:04:07.000Z</time>
</trkpt>
<trkpt lat="46.0490480" lon="10.3234440">
	<ele>1413.40</ele>
	<time>2025-07-30T07:04:08.000Z</time>
</trkpt>
<trkpt lat="46.0490370" lon="10.3234300">
	<ele>1413.60</ele>
	<time>2025-07-30T07:04:09.000Z</time>
</trkpt>
<trkpt lat="46.0490300" lon="10.3234150">
	<ele>1413.80</ele>
	<time>2025-07-30T07:04:10.000Z</time>
</trkpt>
<trkpt lat="46.0490190" lon="10.3233990">
	<ele>1413.80</ele>
	<time>2025-07-30T07:04:11.000Z</time>
</trkpt>
<trkpt lat="46.0490110" lon="10.3233850">
	<ele>1414.00</ele>
	<time>2025-07-30T07:04:12.000Z</time>
</trkpt>
<trkpt lat="46.0490080" lon="10.3233720">
	<ele>1414.40</ele>
	<time>2025-07-30T07:04:13.000Z</time>
</trkpt>
<trkpt lat="46.0490020" lon="10.3233630">
	<ele>1414.60</ele>
	<time>2025-07-30T07:04:14.000Z</time>
</trkpt>
<trkpt lat="46.0489920" lon="10.3233610">
	<ele>1414.80</ele>
	<time>2025-07-30T07:04:15.000Z</time>
</trkpt>
<trkpt lat="46.0489850" lon="10.3233600">
	<ele>1415.00</ele>
	<time>2025-07-30T07:04:16.000Z</time>
</trkpt>
<trkpt lat="46.0489780" lon="10.3233500">
	<ele>1415.20</ele>
	<time>2025-07-30T07:04:17.000Z</time>
</trkpt>
<trkpt lat="46.0489740" lon="10.3233460">
	<ele>1415.40</ele>
	<time>2025-07-30T07:04:18.000Z</time>
</trkpt>
<trkpt lat="46.0489790" lon="10.3233260">
	<ele>1415.80</ele>
	<time>2025-07-30T07:04:19.000Z</time>
</trkpt>
<trkpt lat="46.0489790" lon="10.3233090">
	<ele>1416.00</ele>
	<time>2025-07-30T07:04:20.000Z</time>
</trkpt>
<trkpt lat="46.0489770" lon="10.3233050">
	<ele>1416.20</ele>
	<time>2025-07-30T07:04:21.000Z</time>
</trkpt>
<trkpt lat="46.0489750" lon="10.3233000">
	<ele>1416.40</ele>
	<time>2025-07-30T07:04:22.000Z</time>
</trkpt>
<trkpt lat="46.0489730" lon="10.3232980">
	<ele>1416.60</ele>
	<time>2025-07-30T07:04:23.000Z</time>
</trkpt>
<trkpt lat="46.0489680" lon="10.3232860">
	<ele>1416.80</ele>
	<time>2025-07-30T07:04:24.000Z</time>
</trkpt>
<trkpt lat="46.0489590" lon="10.3232660">
	<ele>1416.80</ele>
	<time>2025-07-30T07:04:25.000Z</time>
</trkpt>
<trkpt lat="46.0489510" lon="10.3232540">
	<ele>1416.80</ele>
	<time>2025-07-30T07:04:26.000Z</time>
</trkpt>
<trkpt lat="46.0489400" lon="10.3232440">
	<ele>1417.00</ele>
	<time>2025-07-30T07:04:27.000Z</time>
</trkpt>
<trkpt lat="46.0489410" lon="10.3232340">
	<ele>1417.00</ele>
	<time>2025-07-30T07:04:28.000Z</time>
</trkpt>
<trkpt lat="46.0489330" lon="10.3232220">
	<ele>1417.00</ele>
	<time>2025-07-30T07:04:29.000Z</time>
</trkpt>
<trkpt lat="46.0489260" lon="10.3232130">
	<ele>1417.00</ele>
	<time>2025-07-30T07:04:30.000Z</time>
</trkpt>
<trkpt lat="46.0489230" lon="10.3232000">
	<ele>1417.00</ele>
	<time>2025-07-30T07:04:31.000Z</time>
</trkpt>
<trkpt lat="46.0489180" lon="10.3231890">
	<ele>1417.00</ele>
	<time>2025-07-30T07:04:32.000Z</time>
</trkpt>
<trkpt lat="46.0489150" lon="10.3231760">
	<ele>1417.20</ele>
	<time>2025-07-30T07:04:33.000Z</time>
</trkpt>
<trkpt lat="46.0489090" lon="10.3231630">
	<ele>1417.40</ele>
	<time>2025-07-30T07:04:34.000Z</time>
</trkpt>
<trkpt lat="46.0489060" lon="10.3231510">
	<ele>1417.40</ele>
	<time>2025-07-30T07:04:35.000Z</time>
</trkpt>
<trkpt lat="46.0489030" lon="10.3231450">
	<ele>1417.60</ele>
	<time>2025-07-30T07:04:36.000Z</time>
</trkpt>
<trkpt lat="46.0489010" lon="10.3231420">
	<ele>1417.80</ele>
	<time>2025-07-30T07:04:37.000Z</time>
</trkpt>
<trkpt lat="46.0488990" lon="10.3231410">
	<ele>1417.80</ele>
	<time>2025-07-30T07:04:38.000Z</time>
</trkpt>
<trkpt lat="46.0488990" lon="10.3231410">
	<ele>1418.00</ele>
	<time>2025-07-30T07:04:39.000Z</time>
</trkpt>
<trkpt lat="46.0488950" lon="10.3231390">
	<ele>1418.20</ele>
	<time>2025-07-30T07:04:40.000Z</time>
</trkpt>
<trkpt lat="46.0488930" lon="10.3231380">
	<ele>1418.40</ele>
	<time>2025-07-30T07:04:41.000Z</time>
</trkpt>
<trkpt lat="46.0488940" lon="10.3231380">
	<ele>1418.40</ele>
	<time>2025-07-30T07:04:42.000Z</time>
</trkpt>
<trkpt lat="46.0488940" lon="10.3231360">
	<ele>1418.40</ele>
	<time>2025-07-30T07:04:43.000Z</time>
</trkpt>
<trkpt lat="46.0488980" lon="10.3231340">
	<ele>1418.20</ele>
	<time>2025-07-30T07:04:44.000Z</time>
</trkpt>
<trkpt lat="46.0489010" lon="10.3231350">
	<ele>1418.20</ele>
	<time>2025-07-30T07:04:45.000Z</time>
</trkpt>
<trkpt lat="46.0489020" lon="10.3231350">
	<ele>1418.20</ele>
	<time>2025-07-30T07:04:46.000Z</time>
</trkpt>
<trkpt lat="46.0488990" lon="10.3231330">
	<ele>1418.00</ele>
	<time>2025-07-30T07:04:47.000Z</time>
</trkpt>
<trkpt lat="46.0488990" lon="10.3231300">
	<ele>1417.80</ele>
	<time>2025-07-30T07:04:48.000Z</time>
</trkpt>
<trkpt lat="46.0489020" lon="10.3231220">
	<ele>1417.80</ele>
	<time>2025-07-30T07:04:49.000Z</time>
</trkpt>
<trkpt lat="46.0489060" lon="10.3231130">
	<ele>1417.80</ele>
	<time>2025-07-30T07:04:50.000Z</time>
</trkpt>
<trkpt lat="46.0489070" lon="10.3231000">
	<ele>1417.80</ele>
	<time>2025-07-30T07:04:51.000Z</time>
</trkpt>
<trkpt lat="46.0489090" lon="10.3230890">
	<ele>1417.80</ele>
	<time>2025-07-30T07:04:52.000Z</time>
</trkpt>
<trkpt lat="46.0489050" lon="10.3230770">
	<ele>1418.00</ele>
	<time>2025-07-30T07:04:53.000Z</time>
</trkpt>
<trkpt lat="46.0488960" lon="10.3230640">
	<ele>1418.00</ele>
	<time>2025-07-30T07:04:54.000Z</time>
</trkpt>
<trkpt lat="46.0489000" lon="10.3230560">
	<ele>1418.20</ele>
	<time>2025-07-30T07:04:55.000Z</time>
</trkpt>
<trkpt lat="46.0489060" lon="10.3230440">
	<ele>1418.40</ele>
	<time>2025-07-30T07:04:56.000Z</time>
</trkpt>
<trkpt lat="46.0489150" lon="10.3230300">
	<ele>1418.60</ele>
	<time>2025-07-30T07:04:57.000Z</time>
</trkpt>
<trkpt lat="46.0489250" lon="10.3230170">
	<ele>1418.80</ele>
	<time>2025-07-30T07:04:58.000Z</time>
</trkpt>
<trkpt lat="46.0489270" lon="10.3230070">
	<ele>1418.80</ele>
	<time>2025-07-30T07:04:59.000Z</time>
</trkpt>
<trkpt lat="46.0489300" lon="10.3229970">
	<ele>1419.00</ele>
	<time>2025-07-30T07:05:00.000Z</time>
</trkpt>
<trkpt lat="46.0489310" lon="10.3229860">
	<ele>1419.20</ele>
	<time>2025-07-30T07:05:01.000Z</time>
</trkpt>
<trkpt lat="46.0489310" lon="10.3229730">
	<ele>1419.20</ele>
	<time>2025-07-30T07:05:02.000Z</time>
</trkpt>
<trkpt lat="46.0489330" lon="10.3229610">
	<ele>1419.40</ele>
	<time>2025-07-30T07:05:03.000Z</time>
</trkpt>
<trkpt lat="46.0489320" lon="10.3229490">
	<ele>1419.60</ele>
	<time>2025-07-30T07:05:04.000Z</time>
</trkpt>
<trkpt lat="46.0489310" lon="10.3229360">
	<ele>1419.80</ele>
	<time>2025-07-30T07:05:05.000Z</time>
</trkpt>
<trkpt lat="46.0489230" lon="10.3229240">
	<ele>1420.00</ele>
	<time>2025-07-30T07:05:06.000Z</time>
</trkpt>
<trkpt lat="46.0489200" lon="10.3229110">
	<ele>1420.20</ele>
	<time>2025-07-30T07:05:07.000Z</time>
</trkpt>
<trkpt lat="46.0489180" lon="10.3228950">
	<ele>1420.60</ele>
	<time>2025-07-30T07:05:08.000Z</time>
</trkpt>
<trkpt lat="46.0489140" lon="10.3228800">
	<ele>1420.80</ele>
	<time>2025-07-30T07:05:09.000Z</time>
</trkpt>
<trkpt lat="46.0489060" lon="10.3228720">
	<ele>1421.00</ele>
	<time>2025-07-30T07:05:10.000Z</time>
</trkpt>
<trkpt lat="46.0489090" lon="10.3228630">
	<ele>1421.20</ele>
	<time>2025-07-30T07:05:11.000Z</time>
</trkpt>
<trkpt lat="46.0489110" lon="10.3228470">
	<ele>1421.20</ele>
	<time>2025-07-30T07:05:12.000Z</time>
</trkpt>
<trkpt lat="46.0489110" lon="10.3228370">
	<ele>1421.20</ele>
	<time>2025-07-30T07:05:13.000Z</time>
</trkpt>
<trkpt lat="46.0489080" lon="10.3228280">
	<ele>1421.40</ele>
	<time>2025-07-30T07:05:14.000Z</time>
</trkpt>
<trkpt lat="46.0489090" lon="10.3228160">
	<ele>1421.40</ele>
	<time>2025-07-30T07:05:15.000Z</time>
</trkpt>
<trkpt lat="46.0489110" lon="10.3228030">
	<ele>1421.60</ele>
	<time>2025-07-30T07:05:16.000Z</time>
</trkpt>
<trkpt lat="46.0489030" lon="10.3228020">
	<ele>1421.80</ele>
	<time>2025-07-30T07:05:17.000Z</time>
</trkpt>
<trkpt lat="46.0489000" lon="10.3227990">
	<ele>1422.00</ele>
	<time>2025-07-30T07:05:18.000Z</time>
</trkpt>
<trkpt lat="46.0489000" lon="10.3227970">
	<ele>1422.20</ele>
	<time>2025-07-30T07:05:19.000Z</time>
</trkpt>
<trkpt lat="46.0488960" lon="10.3227980">
	<ele>1422.20</ele>
	<time>2025-07-30T07:05:20.000Z</time>
</trkpt>
<trkpt lat="46.0488950" lon="10.3227930">
	<ele>1422.20</ele>
	<time>2025-07-30T07:05:21.000Z</time>
</trkpt>
<trkpt lat="46.0488960" lon="10.3227900">
	<ele>1422.20</ele>
	<time>2025-07-30T07:05:22.000Z</time>
</trkpt>
<trkpt lat="46.0488980" lon="10.3227890">
	<ele>1422.20</ele>
	<time>2025-07-30T07:05:23.000Z</time>
</trkpt>
<trkpt lat="46.0488970" lon="10.3227900">
	<ele>1422.20</ele>
	<time>2025-07-30T07:05:24.000Z</time>
</trkpt>
<trkpt lat="46.0488950" lon="10.3227910">
	<ele>1422.20</ele>
	<time>2025-07-30T07:05:25.000Z</time>
</trkpt>
<trkpt lat="46.0488960" lon="10.3227900">
	<ele>1422.20</ele>
	<time>2025-07-30T07:05:26.000Z</time>
</trkpt>
<trkpt lat="46.0489040" lon="10.3227850">
	<ele>1422.20</ele>
	<time>2025-07-30T07:05:27.000Z</time>
</trkpt>
<trkpt lat="46.0489090" lon="10.3227770">
	<ele>1422.20</ele>
	<time>2025-07-30T07:05:28.000Z</time>
</trkpt>
<trkpt lat="46.0489110" lon="10.3227660">
	<ele>1422.20</ele>
	<time>2025-07-30T07:05:29.000Z</time>
</trkpt>
<trkpt lat="46.0489080" lon="10.3227560">
	<ele>1422.20</ele>
	<time>2025-07-30T07:05:30.000Z</time>
</trkpt>
<trkpt lat="46.0489140" lon="10.3227430">
	<ele>1422.20</ele>
	<time>2025-07-30T07:05:31.000Z</time>
</trkpt>
<trkpt lat="46.0489120" lon="10.3227300">
	<ele>1422.20</ele>
	<time>2025-07-30T07:05:32.000Z</time>
</trkpt>
<trkpt lat="46.0489080" lon="10.3227180">
	<ele>1422.20</ele>
	<time>2025-07-30T07:05:33.000Z</time>
</trkpt>
<trkpt lat="46.0489040" lon="10.3227090">
	<ele>1422.20</ele>
	<time>2025-07-30T07:05:34.000Z</time>
</trkpt>
<trkpt lat="46.0489080" lon="10.3226910">
	<ele>1422.20</ele>
	<time>2025-07-30T07:05:35.000Z</time>
</trkpt>
<trkpt lat="46.0489130" lon="10.3226740">
	<ele>1422.20</ele>
	<time>2025-07-30T07:05:36.000Z</time>
</trkpt>
<trkpt lat="46.0489150" lon="10.3226590">
	<ele>1422.20</ele>
	<time>2025-07-30T07:05:37.000Z</time>
</trkpt>
<trkpt lat="46.0489050" lon="10.3226450">
	<ele>1422.40</ele>
	<time>2025-07-30T07:05:38.000Z</time>
</trkpt>
<trkpt lat="46.0488900" lon="10.3226320">
	<ele>1422.40</ele>
	<time>2025-07-30T07:05:39.000Z</time>
</trkpt>
<trkpt lat="46.0488720" lon="10.3226180">
	<ele>1422.60</ele>
	<time>2025-07-30T07:05:40.000Z</time>
</trkpt>
<trkpt lat="46.0488670" lon="10.3226030">
	<ele>1422.60</ele>
	<time>2025-07-30T07:05:41.000Z</time>
</trkpt>
<trkpt lat="46.0488600" lon="10.3225860">
	<ele>1422.60</ele>
	<time>2025-07-30T07:05:42.000Z</time>
</trkpt>
<trkpt lat="46.0488590" lon="10.3225710">
	<ele>1422.60</ele>
	<time>2025-07-30T07:05:43.000Z</time>
</trkpt>
<trkpt lat="46.0488600" lon="10.3225570">
	<ele>1422.60</ele>
	<time>2025-07-30T07:05:44.000Z</time>
</trkpt>
<trkpt lat="46.0488580" lon="10.3225420">
	<ele>1422.80</ele>
	<time>2025-07-30T07:05:45.000Z</time>
</trkpt>
<trkpt lat="46.0488570" lon="10.3225280">
	<ele>1423.00</ele>
	<time>2025-07-30T07:05:46.000Z</time>
</trkpt>
<trkpt lat="46.0488540" lon="10.3225210">
	<ele>1423.20</ele>
	<time>2025-07-30T07:05:47.000Z</time>
</trkpt>
<trkpt lat="46.0488540" lon="10.3225070">
	<ele>1423.20</ele>
	<time>2025-07-30T07:05:48.000Z</time>
</trkpt>
<trkpt lat="46.0488570" lon="10.3224900">
	<ele>1423.20</ele>
	<time>2025-07-30T07:05:49.000Z</time>
</trkpt>
<trkpt lat="46.0488570" lon="10.3224770">
	<ele>1423.20</ele>
	<time>2025-07-30T07:05:50.000Z</time>
</trkpt>
<trkpt lat="46.0488560" lon="10.3224590">
	<ele>1423.40</ele>
	<time>2025-07-30T07:05:51.000Z</time>
</trkpt>
<trkpt lat="46.0488490" lon="10.3224320">
	<ele>1423.40</ele>
	<time>2025-07-30T07:05:52.000Z</time>
</trkpt>
<trkpt lat="46.0488440" lon="10.3224180">
	<ele>1423.60</ele>
	<time>2025-07-30T07:05:53.000Z</time>
</trkpt>
<trkpt lat="46.0488430" lon="10.3224070">
	<ele>1423.60</ele>
	<time>2025-07-30T07:05:54.000Z</time>
</trkpt>
<trkpt lat="46.0488440" lon="10.3223930">
	<ele>1423.60</ele>
	<time>2025-07-30T07:05:55.000Z</time>
</trkpt>
<trkpt lat="46.0488510" lon="10.3223790">
	<ele>1423.60</ele>
	<time>2025-07-30T07:05:56.000Z</time>
</trkpt>
<trkpt lat="46.0488460" lon="10.3223690">
	<ele>1423.60</ele>
	<time>2025-07-30T07:05:57.000Z</time>
</trkpt>
<trkpt lat="46.0488450" lon="10.3223510">
	<ele>1423.60</ele>
	<time>2025-07-30T07:05:58.000Z</time>
</trkpt>
<trkpt lat="46.0488490" lon="10.3223380">
	<ele>1423.60</ele>
	<time>2025-07-30T07:05:59.000Z</time>
</trkpt>
<trkpt lat="46.0488530" lon="10.3223350">
	<ele>1423.80</ele>
	<time>2025-07-30T07:06:00.000Z</time>
</trkpt>
<trkpt lat="46.0488490" lon="10.3223200">
	<ele>1423.80</ele>
	<time>2025-07-30T07:06:01.000Z</time>
</trkpt>
<trkpt lat="46.0488390" lon="10.3222980">
	<ele>1424.00</ele>
	<time>2025-07-30T07:06:02.000Z</time>
</trkpt>
<trkpt lat="46.0488400" lon="10.3222750">
	<ele>1424.20</ele>
	<time>2025-07-30T07:06:03.000Z</time>
</trkpt>
<trkpt lat="46.0488550" lon="10.3222670">
	<ele>1424.20</ele>
	<time>2025-07-30T07:06:04.000Z</time>
</trkpt>
<trkpt lat="46.0488580" lon="10.3222550">
	<ele>1424.40</ele>
	<time>2025-07-30T07:06:05.000Z</time>
</trkpt>
<trkpt lat="46.0488580" lon="10.3222430">
	<ele>1424.40</ele>
	<time>2025-07-30T07:06:06.000Z</time>
</trkpt>
<trkpt lat="46.0488670" lon="10.3222300">
	<ele>1424.60</ele>
	<time>2025-07-30T07:06:07.000Z</time>
</trkpt>
<trkpt lat="46.0488700" lon="10.3222180">
	<ele>1424.60</ele>
	<time>2025-07-30T07:06:08.000Z</time>
</trkpt>
<trkpt lat="46.0488710" lon="10.3222030">
	<ele>1424.80</ele>
	<time>2025-07-30T07:06:09.000Z</time>
</trkpt>
<trkpt lat="46.0488660" lon="10.3221810">
	<ele>1424.80</ele>
	<time>2025-07-30T07:06:10.000Z</time>
</trkpt>
<trkpt lat="46.0488710" lon="10.3221620">
	<ele>1425.00</ele>
	<time>2025-07-30T07:06:11.000Z</time>
</trkpt>
<trkpt lat="46.0488750" lon="10.3221490">
	<ele>1425.00</ele>
	<time>2025-07-30T07:06:12.000Z</time>
</trkpt>
<trkpt lat="46.0488780" lon="10.3221360">
	<ele>1425.20</ele>
	<time>2025-07-30T07:06:13.000Z</time>
</trkpt>
<trkpt lat="46.0488810" lon="10.3221230">
	<ele>1425.20</ele>
	<time>2025-07-30T07:06:14.000Z</time>
</trkpt>
<trkpt lat="46.0488850" lon="10.3221100">
	<ele>1425.20</ele>
	<time>2025-07-30T07:06:15.000Z</time>
</trkpt>
<trkpt lat="46.0488940" lon="10.3220990">
	<ele>1425.40</ele>
	<time>2025-07-30T07:06:16.000Z</time>
</trkpt>
<trkpt lat="46.0489040" lon="10.3220860">
	<ele>1425.40</ele>
	<time>2025-07-30T07:06:17.000Z</time>
</trkpt>
<trkpt lat="46.0489130" lon="10.3220690">
	<ele>1425.60</ele>
	<time>2025-07-30T07:06:18.000Z</time>
</trkpt>
<trkpt lat="46.0489110" lon="10.3220590">
	<ele>1425.60</ele>
	<time>2025-07-30T07:06:19.000Z</time>
</trkpt>
<trkpt lat="46.0489100" lon="10.3220480">
	<ele>1425.60</ele>
	<time>2025-07-30T07:06:20.000Z</time>
</trkpt>
<trkpt lat="46.0489100" lon="10.3220340">
	<ele>1425.80</ele>
	<time>2025-07-30T07:06:21.000Z</time>
</trkpt>
<trkpt lat="46.0489120" lon="10.3220160">
	<ele>1426.00</ele>
	<time>2025-07-30T07:06:22.000Z</time>
</trkpt>
<trkpt lat="46.0489120" lon="10.3220040">
	<ele>1426.00</ele>
	<time>2025-07-30T07:06:23.000Z</time>
</trkpt>
<trkpt lat="46.0489120" lon="10.3219910">
	<ele>1426.20</ele>
	<time>2025-07-30T07:06:24.000Z</time>
</trkpt>
<trkpt lat="46.0489150" lon="10.3219750">
	<ele>1426.20</ele>
	<time>2025-07-30T07:06:25.000Z</time>
</trkpt>
<trkpt lat="46.0489190" lon="10.3219600">
	<ele>1426.40</ele>
	<time>2025-07-30T07:06:26.000Z</time>
</trkpt>
<trkpt lat="46.0489230" lon="10.3219450">
	<ele>1426.40</ele>
	<time>2025-07-30T07:06:27.000Z</time>
</trkpt>
<trkpt lat="46.0489250" lon="10.3219300">
	<ele>1426.40</ele>
	<time>2025-07-30T07:06:28.000Z</time>
</trkpt>
<trkpt lat="46.0489290" lon="10.3219160">
	<ele>1426.60</ele>
	<time>2025-07-30T07:06:29.000Z</time>
</trkpt>
<trkpt lat="46.0489290" lon="10.3219000">
	<ele>1426.60</ele>
	<time>2025-07-30T07:06:30.000Z</time>
</trkpt>
<trkpt lat="46.0489280" lon="10.3218870">
	<ele>1426.80</ele>
	<time>2025-07-30T07:06:31.000Z</time>
</trkpt>
<trkpt lat="46.0489270" lon="10.3218720">
	<ele>1426.80</ele>
	<time>2025-07-30T07:06:32.000Z</time>
</trkpt>
<trkpt lat="46.0489250" lon="10.3218560">
	<ele>1427.00</ele>
	<time>2025-07-30T07:06:33.000Z</time>
</trkpt>
<trkpt lat="46.0489300" lon="10.3218440">
	<ele>1427.00</ele>
	<time>2025-07-30T07:06:34.000Z</time>
</trkpt>
<trkpt lat="46.0489320" lon="10.3218340">
	<ele>1427.00</ele>
	<time>2025-07-30T07:06:35.000Z</time>
</trkpt>
<trkpt lat="46.0489320" lon="10.3218220">
	<ele>1427.20</ele>
	<time>2025-07-30T07:06:36.000Z</time>
</trkpt>
<trkpt lat="46.0489270" lon="10.3218170">
	<ele>1427.20</ele>
	<time>2025-07-30T07:06:37.000Z</time>
</trkpt>
<trkpt lat="46.0489280" lon="10.3218130">
	<ele>1427.40</ele>
	<time>2025-07-30T07:06:38.000Z</time>
</trkpt>
<trkpt lat="46.0489300" lon="10.3218100">
	<ele>1427.60</ele>
	<time>2025-07-30T07:06:39.000Z</time>
</trkpt>
<trkpt lat="46.0489330" lon="10.3218080">
	<ele>1427.80</ele>
	<time>2025-07-30T07:06:40.000Z</time>
</trkpt>
<trkpt lat="46.0489350" lon="10.3218060">
	<ele>1427.80</ele>
	<time>2025-07-30T07:06:41.000Z</time>
</trkpt>
<trkpt lat="46.0489360" lon="10.3218020">
	<ele>1427.80</ele>
	<time>2025-07-30T07:06:42.000Z</time>
</trkpt>
<trkpt lat="46.0489380" lon="10.3217900">
	<ele>1428.00</ele>
	<time>2025-07-30T07:06:43.000Z</time>
</trkpt>
<trkpt lat="46.0489400" lon="10.3217800">
	<ele>1428.00</ele>
	<time>2025-07-30T07:06:44.000Z</time>
</trkpt>
<trkpt lat="46.0489400" lon="10.3217690">
	<ele>1428.00</ele>
	<time>2025-07-30T07:06:45.000Z</time>
</trkpt>
<trkpt lat="46.0489430" lon="10.3217550">
	<ele>1428.00</ele>
	<time>2025-07-30T07:06:46.000Z</time>
</trkpt>
<trkpt lat="46.0489440" lon="10.3217440">
	<ele>1428.00</ele>
	<time>2025-07-30T07:06:47.000Z</time>
</trkpt>
<trkpt lat="46.0489600" lon="10.3217310">
	<ele>1428.00</ele>
	<time>2025-07-30T07:06:48.000Z</time>
</trkpt>
<trkpt lat="46.0489690" lon="10.3217180">
	<ele>1428.00</ele>
	<time>2025-07-30T07:06:49.000Z</time>
</trkpt>
<trkpt lat="46.0489720" lon="10.3217040">
	<ele>1428.20</ele>
	<time>2025-07-30T07:06:50.000Z</time>
</trkpt>
<trkpt lat="46.0489720" lon="10.3216910">
	<ele>1428.40</ele>
	<time>2025-07-30T07:06:51.000Z</time>
</trkpt>
<trkpt lat="46.0489790" lon="10.3216690">
	<ele>1428.40</ele>
	<time>2025-07-30T07:06:52.000Z</time>
</trkpt>
<trkpt lat="46.0489820" lon="10.3216560">
	<ele>1428.60</ele>
	<time>2025-07-30T07:06:53.000Z</time>
</trkpt>
<trkpt lat="46.0489670" lon="10.3216540">
	<ele>1428.60</ele>
	<time>2025-07-30T07:06:54.000Z</time>
</trkpt>
<trkpt lat="46.0489390" lon="10.3216520">
	<ele>1428.80</ele>
	<time>2025-07-30T07:06:55.000Z</time>
</trkpt>
<trkpt lat="46.0489260" lon="10.3216360">
	<ele>1428.80</ele>
	<time>2025-07-30T07:06:56.000Z</time>
</trkpt>
<trkpt lat="46.0489300" lon="10.3216260">
	<ele>1429.00</ele>
	<time>2025-07-30T07:06:57.000Z</time>
</trkpt>
<trkpt lat="46.0489250" lon="10.3216170">
	<ele>1429.20</ele>
	<time>2025-07-30T07:06:58.000Z</time>
</trkpt>
<trkpt lat="46.0489110" lon="10.3216120">
	<ele>1429.40</ele>
	<time>2025-07-30T07:06:59.000Z</time>
</trkpt>
<trkpt lat="46.0488980" lon="10.3216070">
	<ele>1429.40</ele>
	<time>2025-07-30T07:07:00.000Z</time>
</trkpt>
<trkpt lat="46.0488950" lon="10.3216020">
	<ele>1429.60</ele>
	<time>2025-07-30T07:07:01.000Z</time>
</trkpt>
<trkpt lat="46.0488900" lon="10.3215880">
	<ele>1430.00</ele>
	<time>2025-07-30T07:07:02.000Z</time>
</trkpt>
<trkpt lat="46.0488870" lon="10.3215780">
	<ele>1430.20</ele>
	<time>2025-07-30T07:07:03.000Z</time>
</trkpt>
<trkpt lat="46.0488830" lon="10.3215660">
	<ele>1430.40</ele>
	<time>2025-07-30T07:07:04.000Z</time>
</trkpt>
<trkpt lat="46.0488810" lon="10.3215630">
	<ele>1430.60</ele>
	<time>2025-07-30T07:07:05.000Z</time>
</trkpt>
<trkpt lat="46.0488850" lon="10.3215500">
	<ele>1430.60</ele>
	<time>2025-07-30T07:07:06.000Z</time>
</trkpt>
<trkpt lat="46.0488950" lon="10.3215360">
	<ele>1430.80</ele>
	<time>2025-07-30T07:07:07.000Z</time>
</trkpt>
<trkpt lat="46.0488950" lon="10.3215210">
	<ele>1431.20</ele>
	<time>2025-07-30T07:07:08.000Z</time>
</trkpt>
<trkpt lat="46.0488940" lon="10.3215120">
	<ele>1431.40</ele>
	<time>2025-07-30T07:07:09.000Z</time>
</trkpt>
<trkpt lat="46.0488920" lon="10.3215060">
	<ele>1431.40</ele>
	<time>2025-07-30T07:07:10.000Z</time>
</trkpt>
<trkpt lat="46.0488980" lon="10.3214860">
	<ele>1431.60</ele>
	<time>2025-07-30T07:07:11.000Z</time>
</trkpt>
<trkpt lat="46.0489020" lon="10.3214650">
	<ele>1431.80</ele>
	<time>2025-07-30T07:07:12.000Z</time>
</trkpt>
<trkpt lat="46.0489080" lon="10.3214500">
	<ele>1432.00</ele>
	<time>2025-07-30T07:07:13.000Z</time>
</trkpt>
<trkpt lat="46.0489100" lon="10.3214440">
	<ele>1432.20</ele>
	<time>2025-07-30T07:07:14.000Z</time>
</trkpt>
<trkpt lat="46.0489040" lon="10.3214350">
	<ele>1432.40</ele>
	<time>2025-07-30T07:07:15.000Z</time>
</trkpt>
<trkpt lat="46.0488990" lon="10.3214270">
	<ele>1432.80</ele>
	<time>2025-07-30T07:07:16.000Z</time>
</trkpt>
<trkpt lat="46.0489000" lon="10.3214140">
	<ele>1433.20</ele>
	<time>2025-07-30T07:07:17.000Z</time>
</trkpt>
<trkpt lat="46.0489060" lon="10.3214010">
	<ele>1433.20</ele>
	<time>2025-07-30T07:07:18.000Z</time>
</trkpt>
<trkpt lat="46.0489030" lon="10.3213870">
	<ele>1433.40</ele>
	<time>2025-07-30T07:07:19.000Z</time>
</trkpt>
<trkpt lat="46.0489010" lon="10.3213720">
	<ele>1433.60</ele>
	<time>2025-07-30T07:07:20.000Z</time>
</trkpt>
<trkpt lat="46.0488990" lon="10.3213580">
	<ele>1433.60</ele>
	<time>2025-07-30T07:07:21.000Z</time>
</trkpt>
<trkpt lat="46.0489010" lon="10.3213450">
	<ele>1433.80</ele>
	<time>2025-07-30T07:07:22.000Z</time>
</trkpt>
<trkpt lat="46.0489020" lon="10.3213310">
	<ele>1434.00</ele>
	<time>2025-07-30T07:07:23.000Z</time>
</trkpt>
<trkpt lat="46.0489030" lon="10.3213170">
	<ele>1434.20</ele>
	<time>2025-07-30T07:07:24.000Z</time>
</trkpt>
<trkpt lat="46.0489060" lon="10.3213030">
	<ele>1434.40</ele>
	<time>2025-07-30T07:07:25.000Z</time>
</trkpt>
<trkpt lat="46.0489070" lon="10.3212880">
	<ele>1434.40</ele>
	<time>2025-07-30T07:07:26.000Z</time>
</trkpt>
<trkpt lat="46.0489100" lon="10.3212770">
	<ele>1434.60</ele>
	<time>2025-07-30T07:07:27.000Z</time>
</trkpt>
<trkpt lat="46.0489140" lon="10.3212650">
	<ele>1434.60</ele>
	<time>2025-07-30T07:07:28.000Z</time>
</trkpt>
<trkpt lat="46.0489150" lon="10.3212540">
	<ele>1434.80</ele>
	<time>2025-07-30T07:07:29.000Z</time>
</trkpt>
<trkpt lat="46.0489160" lon="10.3212430">
	<ele>1435.00</ele>
	<time>2025-07-30T07:07:30.000Z</time>
</trkpt>
<trkpt lat="46.0489120" lon="10.3212310">
	<ele>1435.20</ele>
	<time>2025-07-30T07:07:31.000Z</time>
</trkpt>
<trkpt lat="46.0489090" lon="10.3212190">
	<ele>1435.20</ele>
	<time>2025-07-30T07:07:32.000Z</time>
</trkpt>
<trkpt lat="46.0489110" lon="10.3212070">
	<ele>1435.40</ele>
	<time>2025-07-30T07:07:33.000Z</time>
</trkpt>
<trkpt lat="46.0489110" lon="10.3211950">
	<ele>1435.60</ele>
	<time>2025-07-30T07:07:34.000Z</time>
</trkpt>
<trkpt lat="46.0489140" lon="10.3211870">
	<ele>1435.80</ele>
	<time>2025-07-30T07:07:35.000Z</time>
</trkpt>
<trkpt lat="46.0489140" lon="10.3211710">
	<ele>1436.00</ele>
	<time>2025-07-30T07:07:36.000Z</time>
</trkpt>
<trkpt lat="46.0489120" lon="10.3211590">
	<ele>1436.00</ele>
	<time>2025-07-30T07:07:37.000Z</time>
</trkpt>
<trkpt lat="46.0489110" lon="10.3211520">
	<ele>1436.20</ele>
	<time>2025-07-30T07:07:38.000Z</time>
</trkpt>
<trkpt lat="46.0489100" lon="10.3211420">
	<ele>1436.40</ele>
	<time>2025-07-30T07:07:39.000Z</time>
</trkpt>
<trkpt lat="46.0489100" lon="10.3211350">
	<ele>1436.60</ele>
	<time>2025-07-30T07:07:40.000Z</time>
</trkpt>
<trkpt lat="46.0489130" lon="10.3211200">
	<ele>1436.60</ele>
	<time>2025-07-30T07:07:41.000Z</time>
</trkpt>
<trkpt lat="46.0489160" lon="10.3211050">
	<ele>1436.80</ele>
	<time>2025-07-30T07:07:42.000Z</time>
</trkpt>
<trkpt lat="46.0489190" lon="10.3210950">
	<ele>1437.00</ele>
	<time>2025-07-30T07:07:43.000Z</time>
</trkpt>
<trkpt lat="46.0489210" lon="10.3210820">
	<ele>1437.20</ele>
	<time>2025-07-30T07:07:44.000Z</time>
</trkpt>
<trkpt lat="46.0489230" lon="10.3210710">
	<ele>1437.20</ele>
	<time>2025-07-30T07:07:45.000Z</time>
</trkpt>
<trkpt lat="46.0489230" lon="10.3210600">
	<ele>1437.40</ele>
	<time>2025-07-30T07:07:46.000Z</time>
</trkpt>
<trkpt lat="46.0489210" lon="10.3210480">
	<ele>1437.60</ele>
	<time>2025-07-30T07:07:47.000Z</time>
</trkpt>
<trkpt lat="46.0489200" lon="10.3210350">
	<ele>1437.80</ele>
	<time>2025-07-30T07:07:48.000Z</time>
</trkpt>
<trkpt lat="46.0489190" lon="10.3210210">
	<ele>1437.80</ele>
	<time>2025-07-30T07:07:49.000Z</time>
</trkpt>
<trkpt lat="46.0489180" lon="10.3210040">
	<ele>1437.80</ele>
	<time>2025-07-30T07:07:50.000Z</time>
</trkpt>
<trkpt lat="46.0489160" lon="10.3209900">
	<ele>1438.00</ele>
	<time>2025-07-30T07:07:51.000Z</time>
</trkpt>
<trkpt lat="46.0489150" lon="10.3209740">
	<ele>1438.00</ele>
	<time>2025-07-30T07:07:52.000Z</time>
</trkpt>
<trkpt lat="46.0489150" lon="10.3209570">
	<ele>1438.20</ele>
	<time>2025-07-30T07:07:53.000Z</time>
</trkpt>
<trkpt lat="46.0489150" lon="10.3209420">
	<ele>1438.20</ele>
	<time>2025-07-30T07:07:54.000Z</time>
</trkpt>
<trkpt lat="46.0489130" lon="10.3209270">
	<ele>1438.20</ele>
	<time>2025-07-30T07:07:55.000Z</time>
</trkpt>
<trkpt lat="46.0489110" lon="10.3209110">
	<ele>1438.40</ele>
	<time>2025-07-30T07:07:56.000Z</time>
</trkpt>
<trkpt lat="46.0489110" lon="10.3208950">
	<ele>1438.40</ele>
	<time>2025-07-30T07:07:57.000Z</time>
</trkpt>
<trkpt lat="46.0489110" lon="10.3208810">
	<ele>1438.60</ele>
	<time>2025-07-30T07:07:58.000Z</time>
</trkpt>
<trkpt lat="46.0489110" lon="10.3208660">
	<ele>1438.60</ele>
	<time>2025-07-30T07:07:59.000Z</time>
</trkpt>
<trkpt lat="46.0489110" lon="10.3208520">
	<ele>1438.80</ele>
	<time>2025-07-30T07:08:00.000Z</time>
</trkpt>
<trkpt lat="46.0489080" lon="10.3208420">
	<ele>1438.80</ele>
	<time>2025-07-30T07:08:01.000Z</time>
</trkpt>
<trkpt lat="46.0489080" lon="10.3208290">
	<ele>1439.00</ele>
	<time>2025-07-30T07:08:02.000Z</time>
</trkpt>
<trkpt lat="46.0489100" lon="10.3208170">
	<ele>1439.20</ele>
	<time>2025-07-30T07:08:03.000Z</time>
</trkpt>
<trkpt lat="46.0489110" lon="10.3208050">
	<ele>1439.20</ele>
	<time>2025-07-30T07:08:04.000Z</time>
</trkpt>
<trkpt lat="46.0489060" lon="10.3207930">
	<ele>1439.40</ele>
	<time>2025-07-30T07:08:05.000Z</time>
</trkpt>
<trkpt lat="46.0489010" lon="10.3207810">
	<ele>1439.60</ele>
	<time>2025-07-30T07:08:06.000Z</time>
</trkpt>
<trkpt lat="46.0488980" lon="10.3207680">
	<ele>1439.80</ele>
	<time>2025-07-30T07:08:07.000Z</time>
</trkpt>
<trkpt lat="46.0488960" lon="10.3207560">
	<ele>1439.80</ele>
	<time>2025-07-30T07:08:08.000Z</time>
</trkpt>
<trkpt lat="46.0488960" lon="10.3207420">
	<ele>1440.00</ele>
	<time>2025-07-30T07:08:09.000Z</time>
</trkpt>
<trkpt lat="46.0488950" lon="10.3207280">
	<ele>1440.00</ele>
	<time>2025-07-30T07:08:10.000Z</time>
</trkpt>
<trkpt lat="46.0488940" lon="10.3207150">
	<ele>1440.00</ele>
	<time>2025-07-30T07:08:11.000Z</time>
</trkpt>
<trkpt lat="46.0488940" lon="10.3207030">
	<ele>1440.00</ele>
	<time>2025-07-30T07:08:12.000Z</time>
</trkpt>
<trkpt lat="46.0488960" lon="10.3206910">
	<ele>1440.20</ele>
	<time>2025-07-30T07:08:13.000Z</time>
</trkpt>
<trkpt lat="46.0488920" lon="10.3206770">
	<ele>1440.20</ele>
	<time>2025-07-30T07:08:14.000Z</time>
</trkpt>
<trkpt lat="46.0488890" lon="10.3206620">
	<ele>1440.40</ele>
	<time>2025-07-30T07:08:15.000Z</time>
</trkpt>
<trkpt lat="46.0488870" lon="10.3206490">
	<ele>1440.60</ele>
	<time>2025-07-30T07:08:16.000Z</time>
</trkpt>
<trkpt lat="46.0488860" lon="10.3206370">
	<ele>1440.60</ele>
	<time>2025-07-30T07:08:17.000Z</time>
</trkpt>
<trkpt lat="46.0488920" lon="10.3206260">
	<ele>1440.80</ele>
	<time>2025-07-30T07:08:18.000Z</time>
</trkpt>
<trkpt lat="46.0488940" lon="10.3206130">
	<ele>1440.80</ele>
	<time>2025-07-30T07:08:19.000Z</time>
</trkpt>
<trkpt lat="46.0488940" lon="10.3205980">
	<ele>1440.80</ele>
	<time>2025-07-30T07:08:20.000Z</time>
</trkpt>
<trkpt lat="46.0488920" lon="10.3205830">
	<ele>1441.00</ele>
	<time>2025-07-30T07:08:21.000Z</time>
</trkpt>
<trkpt lat="46.0488930" lon="10.3205740">
	<ele>1441.00</ele>
	<time>2025-07-30T07:08:22.000Z</time>
</trkpt>
<trkpt lat="46.0488910" lon="10.3205600">
	<ele>1441.00</ele>
	<time>2025-07-30T07:08:23.000Z</time>
</trkpt>
<trkpt lat="46.0488910" lon="10.3205470">
	<ele>1441.20</ele>
	<time>2025-07-30T07:08:24.000Z</time>
</trkpt>
<trkpt lat="46.0488910" lon="10.3205350">
	<ele>1441.20</ele>
	<time>2025-07-30T07:08:25.000Z</time>
</trkpt>
<trkpt lat="46.0488900" lon="10.3205220">
	<ele>1441.40</ele>
	<time>2025-07-30T07:08:26.000Z</time>
</trkpt>
<trkpt lat="46.0488910" lon="10.3205110">
	<ele>1441.40</ele>
	<time>2025-07-30T07:08:27.000Z</time>
</trkpt>
<trkpt lat="46.0488860" lon="10.3205010">
	<ele>1441.60</ele>
	<time>2025-07-30T07:08:28.000Z</time>
</trkpt>
<trkpt lat="46.0488820" lon="10.3204880">
	<ele>1441.60</ele>
	<time>2025-07-30T07:08:29.000Z</time>
</trkpt>
<trkpt lat="46.0488820" lon="10.3204780">
	<ele>1441.60</ele>
	<time>2025-07-30T07:08:30.000Z</time>
</trkpt>
<trkpt lat="46.0488830" lon="10.3204670">
	<ele>1441.80</ele>
	<time>2025-07-30T07:08:31.000Z</time>
</trkpt>
<trkpt lat="46.0488850" lon="10.3204540">
	<ele>1441.80</ele>
	<time>2025-07-30T07:08:32.000Z</time>
</trkpt>
<trkpt lat="46.0488870" lon="10.3204410">
	<ele>1442.00</ele>
	<time>2025-07-30T07:08:33.000Z</time>
</trkpt>
<trkpt lat="46.0488870" lon="10.3204270">
	<ele>1442.00</ele>
	<time>2025-07-30T07:08:34.000Z</time>
</trkpt>
<trkpt lat="46.0488910" lon="10.3204190">
	<ele>1442.20</ele>
	<time>2025-07-30T07:08:35.000Z</time>
</trkpt>
<trkpt lat="46.0488900" lon="10.3204060">
	<ele>1442.20</ele>
	<time>2025-07-30T07:08:36.000Z</time>
</trkpt>
<trkpt lat="46.0488910" lon="10.3204000">
	<ele>1442.40</ele>
	<time>2025-07-30T07:08:37.000Z</time>
</trkpt>
<trkpt lat="46.0488960" lon="10.3203820">
	<ele>1442.60</ele>
	<time>2025-07-30T07:08:38.000Z</time>
</trkpt>
<trkpt lat="46.0488990" lon="10.3203750">
	<ele>1442.60</ele>
	<time>2025-07-30T07:08:39.000Z</time>
</trkpt>
<trkpt lat="46.0488980" lon="10.3203620">
	<ele>1442.80</ele>
	<time>2025-07-30T07:08:40.000Z</time>
</trkpt>
<trkpt lat="46.0488960" lon="10.3203500">
	<ele>1443.00</ele>
	<time>2025-07-30T07:08:41.000Z</time>
</trkpt>
<trkpt lat="46.0488950" lon="10.3203410">
	<ele>1443.20</ele>
	<time>2025-07-30T07:08:42.000Z</time>
</trkpt>
<trkpt lat="46.0489000" lon="10.3203320">
	<ele>1443.40</ele>
	<time>2025-07-30T07:08:43.000Z</time>
</trkpt>
<trkpt lat="46.0489040" lon="10.3203210">
	<ele>1443.60</ele>
	<time>2025-07-30T07:08:44.000Z</time>
</trkpt>
<trkpt lat="46.0489080" lon="10.3203130">
	<ele>1443.80</ele>
	<time>2025-07-30T07:08:45.000Z</time>
</trkpt>
<trkpt lat="46.0489130" lon="10.3203030">
	<ele>1443.80</ele>
	<time>2025-07-30T07:08:46.000Z</time>
</trkpt>
<trkpt lat="46.0489160" lon="10.3202870">
	<ele>1444.00</ele>
	<time>2025-07-30T07:08:47.000Z</time>
</trkpt>
<trkpt lat="46.0489180" lon="10.3202740">
	<ele>1444.00</ele>
	<time>2025-07-30T07:08:48.000Z</time>
</trkpt>
<trkpt lat="46.0489180" lon="10.3202630">
	<ele>1444.20</ele>
	<time>2025-07-30T07:08:49.000Z</time>
</trkpt>
<trkpt lat="46.0489180" lon="10.3202520">
	<ele>1444.40</ele>
	<time>2025-07-30T07:08:50.000Z</time>
</trkpt>
<trkpt lat="46.0489190" lon="10.3202350">
	<ele>1444.60</ele>
	<time>2025-07-30T07:08:51.000Z</time>
</trkpt>
<trkpt lat="46.0489170" lon="10.3202250">
	<ele>1444.80</ele>
	<time>2025-07-30T07:08:52.000Z</time>
</trkpt>
<trkpt lat="46.0489150" lon="10.3202140">
	<ele>1444.80</ele>
	<time>2025-07-30T07:08:53.000Z</time>
</trkpt>
<trkpt lat="46.0489080" lon="10.3202010">
	<ele>1445.00</ele>
	<time>2025-07-30T07:08:54.000Z</time>
</trkpt>
<trkpt lat="46.0489060" lon="10.3201860">
	<ele>1445.20</ele>
	<time>2025-07-30T07:08:55.000Z</time>
</trkpt>
<trkpt lat="46.0489050" lon="10.3201800">
	<ele>1445.40</ele>
	<time>2025-07-30T07:08:56.000Z</time>
</trkpt>
<trkpt lat="46.0489020" lon="10.3201750">
	<ele>1445.60</ele>
	<time>2025-07-30T07:08:57.000Z</time>
</trkpt>
<trkpt lat="46.0489010" lon="10.3201720">
	<ele>1445.80</ele>
	<time>2025-07-30T07:08:58.000Z</time>
</trkpt>
<trkpt lat="46.0489020" lon="10.3201720">
	<ele>1446.00</ele>
	<time>2025-07-30T07:08:59.000Z</time>
</trkpt>
<trkpt lat="46.0489040" lon="10.3201710">
	<ele>1446.20</ele>
	<time>2025-07-30T07:09:00.000Z</time>
</trkpt>
<trkpt lat="46.0489040" lon="10.3201680">
	<ele>1446.20</ele>
	<time>2025-07-30T07:09:01.000Z</time>
</trkpt>
<trkpt lat="46.0489060" lon="10.3201580">
	<ele>1446.40</ele>
	<time>2025-07-30T07:09:02.000Z</time>
</trkpt>
<trkpt lat="46.0489140" lon="10.3201430">
	<ele>1446.60</ele>
	<time>2025-07-30T07:09:03.000Z</time>
</trkpt>
<trkpt lat="46.0489180" lon="10.3201290">
	<ele>1446.60</ele>
	<time>2025-07-30T07:09:04.000Z</time>
</trkpt>
<trkpt lat="46.0489180" lon="10.3201170">
	<ele>1446.60</ele>
	<time>2025-07-30T07:09:05.000Z</time>
</trkpt>
<trkpt lat="46.0489200" lon="10.3201030">
	<ele>1446.60</ele>
	<time>2025-07-30T07:09:06.000Z</time>
</trkpt>
<trkpt lat="46.0489190" lon="10.3200920">
	<ele>1446.80</ele>
	<time>2025-07-30T07:09:07.000Z</time>
</trkpt>
<trkpt lat="46.0489220" lon="10.3200860">
	<ele>1446.80</ele>
	<time>2025-07-30T07:09:08.000Z</time>
</trkpt>
<trkpt lat="46.0489260" lon="10.3200770">
	<ele>1446.80</ele>
	<time>2025-07-30T07:09:09.000Z</time>
</trkpt>
<trkpt lat="46.0489290" lon="10.3200650">
	<ele>1447.00</ele>
	<time>2025-07-30T07:09:10.000Z</time>
</trkpt>
<trkpt lat="46.0489310" lon="10.3200520">
	<ele>1447.20</ele>
	<time>2025-07-30T07:09:11.000Z</time>
</trkpt>
<trkpt lat="46.0489350" lon="10.3200420">
	<ele>1447.40</ele>
	<time>2025-07-30T07:09:12.000Z</time>
</trkpt>
<trkpt lat="46.0489440" lon="10.3200330">
	<ele>1447.60</ele>
	<time>2025-07-30T07:09:13.000Z</time>
</trkpt>
<trkpt lat="46.0489490" lon="10.3200230">
	<ele>1447.80</ele>
	<time>2025-07-30T07:09:14.000Z</time>
</trkpt>
<trkpt lat="46.0489580" lon="10.3200130">
	<ele>1447.80</ele>
	<time>2025-07-30T07:09:15.000Z</time>
</trkpt>
<trkpt lat="46.0489580" lon="10.3200020">
	<ele>1448.00</ele>
	<time>2025-07-30T07:09:16.000Z</time>
</trkpt>
<trkpt lat="46.0489600" lon="10.3199870">
	<ele>1448.20</ele>
	<time>2025-07-30T07:09:17.000Z</time>
</trkpt>
<trkpt lat="46.0489600" lon="10.3199790">
	<ele>1448.20</ele>
	<time>2025-07-30T07:09:18.000Z</time>
</trkpt>
<trkpt lat="46.0489610" lon="10.3199660">
	<ele>1448.40</ele>
	<time>2025-07-30T07:09:19.000Z</time>
</trkpt>
<trkpt lat="46.0489610" lon="10.3199550">
	<ele>1448.60</ele>
	<time>2025-07-30T07:09:20.000Z</time>
</trkpt>
<trkpt lat="46.0489670" lon="10.3199460">
	<ele>1448.80</ele>
	<time>2025-07-30T07:09:21.000Z</time>
</trkpt>
<trkpt lat="46.0489700" lon="10.3199360">
	<ele>1449.00</ele>
	<time>2025-07-30T07:09:22.000Z</time>
</trkpt>
<trkpt lat="46.0489780" lon="10.3199270">
	<ele>1449.20</ele>
	<time>2025-07-30T07:09:23.000Z</time>
</trkpt>
<trkpt lat="46.0489830" lon="10.3199180">
	<ele>1449.40</ele>
	<time>2025-07-30T07:09:24.000Z</time>
</trkpt>
<trkpt lat="46.0489850" lon="10.3199040">
	<ele>1449.40</ele>
	<time>2025-07-30T07:09:25.000Z</time>
</trkpt>
<trkpt lat="46.0489860" lon="10.3198960">
	<ele>1449.60</ele>
	<time>2025-07-30T07:09:26.000Z</time>
</trkpt>
<trkpt lat="46.0489880" lon="10.3198880">
	<ele>1449.60</ele>
	<time>2025-07-30T07:09:27.000Z</time>
</trkpt>
<trkpt lat="46.0489880" lon="10.3198770">
	<ele>1449.80</ele>
	<time>2025-07-30T07:09:28.000Z</time>
</trkpt>
<trkpt lat="46.0489880" lon="10.3198620">
	<ele>1449.80</ele>
	<time>2025-07-30T07:09:29.000Z</time>
</trkpt>
<trkpt lat="46.0489860" lon="10.3198510">
	<ele>1450.00</ele>
	<time>2025-07-30T07:09:30.000Z</time>
</trkpt>
<trkpt lat="46.0489850" lon="10.3198440">
	<ele>1450.20</ele>
	<time>2025-07-30T07:09:31.000Z</time>
</trkpt>
<trkpt lat="46.0489860" lon="10.3198450">
	<ele>1450.40</ele>
	<time>2025-07-30T07:09:32.000Z</time>
</trkpt>
<trkpt lat="46.0489860" lon="10.3198450">
	<ele>1450.40</ele>
	<time>2025-07-30T07:09:33.000Z</time>
</trkpt>
<trkpt lat="46.0489850" lon="10.3198440">
	<ele>1450.60</ele>
	<time>2025-07-30T07:09:34.000Z</time>
</trkpt>
<trkpt lat="46.0489840" lon="10.3198420">
	<ele>1450.60</ele>
	<time>2025-07-30T07:09:35.000Z</time>
</trkpt>
<trkpt lat="46.0489840" lon="10.3198410">
	<ele>1450.60</ele>
	<time>2025-07-30T07:09:36.000Z</time>
</trkpt>
<trkpt lat="46.0489830" lon="10.3198390">
	<ele>1450.80</ele>
	<time>2025-07-30T07:09:37.000Z</time>
</trkpt>
<trkpt lat="46.0489900" lon="10.3198430">
	<ele>1450.80</ele>
	<time>2025-07-30T07:09:38.000Z</time>
</trkpt>
<trkpt lat="46.0489890" lon="10.3198390">
	<ele>1451.00</ele>
	<time>2025-07-30T07:09:39.000Z</time>
</trkpt>
<trkpt lat="46.0489840" lon="10.3198340">
	<ele>1451.00</ele>
	<time>2025-07-30T07:09:40.000Z</time>
</trkpt>
<trkpt lat="46.0489800" lon="10.3198260">
	<ele>1451.00</ele>
	<time>2025-07-30T07:09:41.000Z</time>
</trkpt>
<trkpt lat="46.0489810" lon="10.3198240">
	<ele>1451.00</ele>
	<time>2025-07-30T07:09:42.000Z</time>
</trkpt>
<trkpt lat="46.0489730" lon="10.3198150">
	<ele>1451.00</ele>
	<time>2025-07-30T07:09:43.000Z</time>
</trkpt>
<trkpt lat="46.0489690" lon="10.3198060">
	<ele>1451.00</ele>
	<time>2025-07-30T07:09:44.000Z</time>
</trkpt>
<trkpt lat="46.0489650" lon="10.3197930">
	<ele>1451.20</ele>
	<time>2025-07-30T07:09:45.000Z</time>
</trkpt>
<trkpt lat="46.0489650" lon="10.3197830">
	<ele>1451.20</ele>
	<time>2025-07-30T07:09:46.000Z</time>
</trkpt>
<trkpt lat="46.0489620" lon="10.3197750">
	<ele>1451.40</ele>
	<time>2025-07-30T07:09:47.000Z</time>
</trkpt>
<trkpt lat="46.0489590" lon="10.3197710">
	<ele>1451.60</ele>
	<time>2025-07-30T07:09:48.000Z</time>
</trkpt>
<trkpt lat="46.0489530" lon="10.3197630">
	<ele>1451.60</ele>
	<time>2025-07-30T07:09:49.000Z</time>
</trkpt>
<trkpt lat="46.0489470" lon="10.3197520">
	<ele>1451.60</ele>
	<time>2025-07-30T07:09:50.000Z</time>
</trkpt>
<trkpt lat="46.0489420" lon="10.3197430">
	<ele>1451.80</ele>
	<time>2025-07-30T07:09:51.000Z</time>
</trkpt>
<trkpt lat="46.0489400" lon="10.3197290">
	<ele>1452.00</ele>
	<time>2025-07-30T07:09:52.000Z</time>
</trkpt>
<trkpt lat="46.0489400" lon="10.3197170">
	<ele>1452.00</ele>
	<time>2025-07-30T07:09:53.000Z</time>
</trkpt>
<trkpt lat="46.0489450" lon="10.3197030">
	<ele>1452.00</ele>
	<time>2025-07-30T07:09:54.000Z</time>
</trkpt>
<trkpt lat="46.0489490" lon="10.3196890">
	<ele>1452.20</ele>
	<time>2025-07-30T07:09:55.000Z</time>
</trkpt>
<trkpt lat="46.0489570" lon="10.3196740">
	<ele>1452.20</ele>
	<time>2025-07-30T07:09:56.000Z</time>
</trkpt>
<trkpt lat="46.0489630" lon="10.3196610">
	<ele>1452.20</ele>
	<time>2025-07-30T07:09:57.000Z</time>
</trkpt>
<trkpt lat="46.0489790" lon="10.3196430">
	<ele>1452.20</ele>
	<time>2025-07-30T07:09:58.000Z</time>
</trkpt>
<trkpt lat="46.0489740" lon="10.3196330">
	<ele>1452.40</ele>
	<time>2025-07-30T07:09:59.000Z</time>
</trkpt>
<trkpt lat="46.0489660" lon="10.3196220">
	<ele>1452.40</ele>
	<time>2025-07-30T07:10:00.000Z</time>
</trkpt>
<trkpt lat="46.0489600" lon="10.3196160">
	<ele>1452.60</ele>
	<time>2025-07-30T07:10:01.000Z</time>
</trkpt>
<trkpt lat="46.0489550" lon="10.3196030">
	<ele>1452.60</ele>
	<time>2025-07-30T07:10:02.000Z</time>
</trkpt>
<trkpt lat="46.0489560" lon="10.3195900">
	<ele>1452.80</ele>
	<time>2025-07-30T07:10:03.000Z</time>
</trkpt>
<trkpt lat="46.0489570" lon="10.3195850">
	<ele>1453.00</ele>
	<time>2025-07-30T07:10:04.000Z</time>
</trkpt>
<trkpt lat="46.0489620" lon="10.3195760">
	<ele>1453.00</ele>
	<time>2025-07-30T07:10:05.000Z</time>
</trkpt>
<trkpt lat="46.0489630" lon="10.3195660">
	<ele>1453.00</ele>
	<time>2025-07-30T07:10:06.000Z</time>
</trkpt>
<trkpt lat="46.0489650" lon="10.3195600">
	<ele>1453.20</ele>
	<time>2025-07-30T07:10:07.000Z</time>
</trkpt>
<trkpt lat="46.0489670" lon="10.3195570">
	<ele>1453.20</ele>
	<time>2025-07-30T07:10:08.000Z</time>
</trkpt>
<trkpt lat="46.0489660" lon="10.3195550">
	<ele>1453.20</ele>
	<time>2025-07-30T07:10:09.000Z</time>
</trkpt>
<trkpt lat="46.0489650" lon="10.3195520">
	<ele>1453.20</ele>
	<time>2025-07-30T07:10:10.000Z</time>
</trkpt>
<trkpt lat="46.0489650" lon="10.3195500">
	<ele>1453.20</ele>
	<time>2025-07-30T07:10:11.000Z</time>
</trkpt>
<trkpt lat="46.0489620" lon="10.3195500">
	<ele>1453.40</ele>
	<time>2025-07-30T07:10:12.000Z</time>
</trkpt>
<trkpt lat="46.0489510" lon="10.3195520">
	<ele>1453.40</ele>
	<time>2025-07-30T07:10:13.000Z</time>
</trkpt>
<trkpt lat="46.0489460" lon="10.3195680">
	<ele>1453.40</ele>
	<time>2025-07-30T07:10:14.000Z</time>
</trkpt>
<trkpt lat="46.0489410" lon="10.3195790">
	<ele>1453.20</ele>
	<time>2025-07-30T07:10:15.000Z</time>
</trkpt>
<trkpt lat="46.0489350" lon="10.3195880">
	<ele>1453.20</ele>
	<time>2025-07-30T07:10:16.000Z</time>
</trkpt>
<trkpt lat="46.0489260" lon="10.3195950">
	<ele>1453.20</ele>
	<time>2025-07-30T07:10:17.000Z</time>
</trkpt>
<trkpt lat="46.0489150" lon="10.3196020">
	<ele>1453.20</ele>
	<time>2025-07-30T07:10:18.000Z</time>
</trkpt>
<trkpt lat="46.0489110" lon="10.3196070">
	<ele>1453.20</ele>
	<time>2025-07-30T07:10:19.000Z</time>
</trkpt>
<trkpt lat="46.0489070" lon="10.3196070">
	<ele>1453.20</ele>
	<time>2025-07-30T07:10:20.000Z</time>
</trkpt>
<trkpt lat="46.0489060" lon="10.3196060">
	<ele>1453.40</ele>
	<time>2025-07-30T07:10:21.000Z</time>
</trkpt>
<trkpt lat="46.0489050" lon="10.3196040">
	<ele>1453.60</ele>
	<time>2025-07-30T07:10:22.000Z</time>
</trkpt>
<trkpt lat="46.0489040" lon="10.3196040">
	<ele>1453.80</ele>
	<time>2025-07-30T07:10:23.000Z</time>
</trkpt>
<trkpt lat="46.0489030" lon="10.3196080">
	<ele>1454.00</ele>
	<time>2025-07-30T07:10:24.000Z</time>
</trkpt>
<trkpt lat="46.0489010" lon="10.3196160">
	<ele>1454.00</ele>
	<time>2025-07-30T07:10:25.000Z</time>
</trkpt>
<trkpt lat="46.0488920" lon="10.3196220">
	<ele>1454.00</ele>
	<time>2025-07-30T07:10:26.000Z</time>
</trkpt>
<trkpt lat="46.0488820" lon="10.3196280">
	<ele>1454.00</ele>
	<time>2025-07-30T07:10:27.000Z</time>
</trkpt>
<trkpt lat="46.0488710" lon="10.3196280">
	<ele>1454.00</ele>
	<time>2025-07-30T07:10:28.000Z</time>
</trkpt>
<trkpt lat="46.0488610" lon="10.3196290">
	<ele>1454.00</ele>
	<time>2025-07-30T07:10:29.000Z</time>
</trkpt>
<trkpt lat="46.0488520" lon="10.3196290">
	<ele>1454.00</ele>
	<time>2025-07-30T07:10:30.000Z</time>
</trkpt>
<trkpt lat="46.0488420" lon="10.3196300">
	<ele>1454.00</ele>
	<time>2025-07-30T07:10:31.000Z</time>
</trkpt>
<trkpt lat="46.0488300" lon="10.3196350">
	<ele>1454.00</ele>
	<time>2025-07-30T07:10:32.000Z</time>
</trkpt>
<trkpt lat="46.0488220" lon="10.3196400">
	<ele>1454.00</ele>
	<time>2025-07-30T07:10:33.000Z</time>
</trkpt>
<trkpt lat="46.0488180" lon="10.3196470">
	<ele>1454.00</ele>
	<time>2025-07-30T07:10:34.000Z</time>
</trkpt>
<trkpt lat="46.0488130" lon="10.3196530">
	<ele>1454.00</ele>
	<time>2025-07-30T07:10:35.000Z</time>
</trkpt>
<trkpt lat="46.0488090" lon="10.3196610">
	<ele>1454.00</ele>
	<time>2025-07-30T07:10:36.000Z</time>
</trkpt>
<trkpt lat="46.0488060" lon="10.3196710">
	<ele>1454.00</ele>
	<time>2025-07-30T07:10:37.000Z</time>
</trkpt>
<trkpt lat="46.0488030" lon="10.3196830">
	<ele>1454.00</ele>
	<time>2025-07-30T07:10:38.000Z</time>
</trkpt>
<trkpt lat="46.0488010" lon="10.3196910">
	<ele>1454.00</ele>
	<time>2025-07-30T07:10:39.000Z</time>
</trkpt>
<trkpt lat="46.0488020" lon="10.3197030">
	<ele>1454.00</ele>
	<time>2025-07-30T07:10:40.000Z</time>
</trkpt>
<trkpt lat="46.0488010" lon="10.3197180">
	<ele>1454.00</ele>
	<time>2025-07-30T07:10:41.000Z</time>
</trkpt>
<trkpt lat="46.0488010" lon="10.3197240">
	<ele>1454.00</ele>
	<time>2025-07-30T07:10:42.000Z</time>
</trkpt>
<trkpt lat="46.0487990" lon="10.3197250">
	<ele>1454.00</ele>
	<time>2025-07-30T07:10:43.000Z</time>
</trkpt>
<trkpt lat="46.0487950" lon="10.3197250">
	<ele>1454.00</ele>
	<time>2025-07-30T07:10:44.000Z</time>
</trkpt>
<trkpt lat="46.0487920" lon="10.3197260">
	<ele>1454.00</ele>
	<time>2025-07-30T07:10:45.000Z</time>
</trkpt>
<trkpt lat="46.0487910" lon="10.3197330">
	<ele>1454.00</ele>
	<time>2025-07-30T07:10:46.000Z</time>
</trkpt>
<trkpt lat="46.0487870" lon="10.3197400">
	<ele>1454.00</ele>
	<time>2025-07-30T07:10:47.000Z</time>
</trkpt>
<trkpt lat="46.0487840" lon="10.3197440">
	<ele>1454.00</ele>
	<time>2025-07-30T07:10:48.000Z</time>
</trkpt>
<trkpt lat="46.0487820" lon="10.3197450">
	<ele>1454.00</ele>
	<time>2025-07-30T07:10:49.000Z</time>
</trkpt>
<trkpt lat="46.0487800" lon="10.3197460">
	<ele>1454.00</ele>
	<time>2025-07-30T07:10:50.000Z</time>
</trkpt>
<trkpt lat="46.0487780" lon="10.3197460">
	<ele>1454.00</ele>
	<time>2025-07-30T07:10:51.000Z</time>
</trkpt>
<trkpt lat="46.0487810" lon="10.3197490">
	<ele>1454.00</ele>
	<time>2025-07-30T07:10:52.000Z</time>
</trkpt>
<trkpt lat="46.0487810" lon="10.3197500">
	<ele>1454.00</ele>
	<time>2025-07-30T07:10:53.000Z</time>
</trkpt>
<trkpt lat="46.0487810" lon="10.3197500">
	<ele>1454.00</ele>
	<time>2025-07-30T07:10:54.000Z</time>
</trkpt>
<trkpt lat="46.0487810" lon="10.3197500">
	<ele>1454.00</ele>
	<time>2025-07-30T07:10:55.000Z</time>
</trkpt>
<trkpt lat="46.0487800" lon="10.3197500">
	<ele>1454.00</ele>
	<time>2025-07-30T07:10:56.000Z</time>
</trkpt>
<trkpt lat="46.0487790" lon="10.3197500">
	<ele>1454.00</ele>
	<time>2025-07-30T07:10:57.000Z</time>
</trkpt>
<trkpt lat="46.0487780" lon="10.3197490">
	<ele>1454.00</ele>
	<time>2025-07-30T07:10:58.000Z</time>
</trkpt>
<trkpt lat="46.0487780" lon="10.3197480">
	<ele>1454.00</ele>
	<time>2025-07-30T07:10:59.000Z</time>
</trkpt>
<trkpt lat="46.0487790" lon="10.3197460">
	<ele>1454.00</ele>
	<time>2025-07-30T07:11:00.000Z</time>
</trkpt>
<trkpt lat="46.0487790" lon="10.3197440">
	<ele>1454.00</ele>
	<time>2025-07-30T07:11:01.000Z</time>
</trkpt>
<trkpt lat="46.0487800" lon="10.3197450">
	<ele>1454.00</ele>
	<time>2025-07-30T07:11:02.000Z</time>
</trkpt>
<trkpt lat="46.0487800" lon="10.3197450">
	<ele>1454.00</ele>
	<time>2025-07-30T07:11:03.000Z</time>
</trkpt>
<trkpt lat="46.0487800" lon="10.3197450">
	<ele>1454.00</ele>
	<time>2025-07-30T07:11:04.000Z</time>
</trkpt>
<trkpt lat="46.0487800" lon="10.3197450">
	<ele>1454.00</ele>
	<time>2025-07-30T07:11:05.000Z</time>
</trkpt>
<trkpt lat="46.0487800" lon="10.3197450">
	<ele>1454.00</ele>
	<time>2025-07-30T07:11:06.000Z</time>
</trkpt>
<trkpt lat="46.0487800" lon="10.3197450">
	<ele>1453.80</ele>
	<time>2025-07-30T07:11:07.000Z</time>
</trkpt>
<trkpt lat="46.0487800" lon="10.3197450">
	<ele>1453.80</ele>
	<time>2025-07-30T07:11:08.000Z</time>
</trkpt>
<trkpt lat="46.0487800" lon="10.3197450">
	<ele>1453.80</ele>
	<time>2025-07-30T07:11:09.000Z</time>
</trkpt>
<trkpt lat="46.0487800" lon="10.3197450">
	<ele>1453.80</ele>
	<time>2025-07-30T07:11:10.000Z</time>
</trkpt>
<trkpt lat="46.0487800" lon="10.3197460">
	<ele>1453.80</ele>
	<time>2025-07-30T07:11:11.000Z</time>
</trkpt>
<trkpt lat="46.0487800" lon="10.3197460">
	<ele>1453.80</ele>
	<time>2025-07-30T07:11:12.000Z</time>
</trkpt>
<trkpt lat="46.0487800" lon="10.3197460">
	<ele>1453.60</ele>
	<time>2025-07-30T07:11:13.000Z</time>
</trkpt>
<trkpt lat="46.0487800" lon="10.3197470">
	<ele>1453.80</ele>
	<time>2025-07-30T07:11:14.000Z</time>
</trkpt>
<trkpt lat="46.0487800" lon="10.3197480">
	<ele>1453.80</ele>
	<time>2025-07-30T07:11:15.000Z</time>
</trkpt>
<trkpt lat="46.0487800" lon="10.3197490">
	<ele>1453.80</ele>
	<time>2025-07-30T07:11:16.000Z</time>
</trkpt>
<trkpt lat="46.0487800" lon="10.3197490">
	<ele>1453.80</ele>
	<time>2025-07-30T07:11:17.000Z</time>
</trkpt>
<trkpt lat="46.0487800" lon="10.3197490">
	<ele>1453.80</ele>
	<time>2025-07-30T07:11:18.000Z</time>
</trkpt>
<trkpt lat="46.0487800" lon="10.3197500">
	<ele>1453.80</ele>
	<time>2025-07-30T07:11:19.000Z</time>
</trkpt>
<trkpt lat="46.0487800" lon="10.3197500">
	<ele>1453.80</ele>
	<time>2025-07-30T07:11:20.000Z</time>
</trkpt>
<trkpt lat="46.0487800" lon="10.3197500">
	<ele>1453.80</ele>
	<time>2025-07-30T07:11:21.000Z</time>
</trkpt>
<trkpt lat="46.0487800" lon="10.3197500">
	<ele>1453.80</ele>
	<time>2025-07-30T07:11:22.000Z</time>
</trkpt>
<trkpt lat="46.0487800" lon="10.3197500">
	<ele>1453.80</ele>
	<time>2025-07-30T07:11:23.000Z</time>
</trkpt>
<trkpt lat="46.0487800" lon="10.3197500">
	<ele>1453.80</ele>
	<time>2025-07-30T07:11:24.000Z</time>
</trkpt>
<trkpt lat="46.0487790" lon="10.3197510">
	<ele>1453.80</ele>
	<time>2025-07-30T07:11:25.000Z</time>
</trkpt>
<trkpt lat="46.0487790" lon="10.3197510">
	<ele>1454.00</ele>
	<time>2025-07-30T07:11:26.000Z</time>
</trkpt>
<trkpt lat="46.0487790" lon="10.3197510">
	<ele>1454.00</ele>
	<time>2025-07-30T07:11:27.000Z</time>
</trkpt>
<trkpt lat="46.0487790" lon="10.3197510">
	<ele>1454.00</ele>
	<time>2025-07-30T07:11:28.000Z</time>
</trkpt>
<trkpt lat="46.0487790" lon="10.3197520">
	<ele>1454.00</ele>
	<time>2025-07-30T07:11:29.000Z</time>
</trkpt>
<trkpt lat="46.0487780" lon="10.3197520">
	<ele>1454.00</ele>
	<time>2025-07-30T07:11:30.000Z</time>
</trkpt>
<trkpt lat="46.0487770" lon="10.3197550">
	<ele>1454.00</ele>
	<time>2025-07-30T07:11:31.000Z</time>
</trkpt>
<trkpt lat="46.0487750" lon="10.3197590">
	<ele>1453.80</ele>
	<time>2025-07-30T07:11:32.000Z</time>
</trkpt>
<trkpt lat="46.0487740" lon="10.3197680">
	<ele>1453.60</ele>
	<time>2025-07-30T07:11:33.000Z</time>
</trkpt>
<trkpt lat="46.0487720" lon="10.3197700">
	<ele>1453.60</ele>
	<time>2025-07-30T07:11:34.000Z</time>
</trkpt>
<trkpt lat="46.0487700" lon="10.3197710">
	<ele>1453.40</ele>
	<time>2025-07-30T07:11:35.000Z</time>
</trkpt>
<trkpt lat="46.0487650" lon="10.3197710">
	<ele>1453.40</ele>
	<time>2025-07-30T07:11:36.000Z</time>
</trkpt>
<trkpt lat="46.0487620" lon="10.3197770">
	<ele>1453.40</ele>
	<time>2025-07-30T07:11:37.000Z</time>
</trkpt>
<trkpt lat="46.0487580" lon="10.3197920">
	<ele>1453.40</ele>
	<time>2025-07-30T07:11:38.000Z</time>
</trkpt>
<trkpt lat="46.0487560" lon="10.3198070">
	<ele>1453.20</ele>
	<time>2025-07-30T07:11:39.000Z</time>
</trkpt>
<trkpt lat="46.0487510" lon="10.3198210">
	<ele>1453.20</ele>
	<time>2025-07-30T07:11:40.000Z</time>
</trkpt>
<trkpt lat="46.0487440" lon="10.3198330">
	<ele>1453.20</ele>
	<time>2025-07-30T07:11:41.000Z</time>
</trkpt>
<trkpt lat="46.0487410" lon="10.3198460">
	<ele>1453.00</ele>
	<time>2025-07-30T07:11:42.000Z</time>
</trkpt>
<trkpt lat="46.0487330" lon="10.3198550">
	<ele>1453.00</ele>
	<time>2025-07-30T07:11:43.000Z</time>
</trkpt>
<trkpt lat="46.0487270" lon="10.3198620">
	<ele>1452.80</ele>
	<time>2025-07-30T07:11:44.000Z</time>
</trkpt>
<trkpt lat="46.0487210" lon="10.3198700">
	<ele>1452.80</ele>
	<time>2025-07-30T07:11:45.000Z</time>
</trkpt>
<trkpt lat="46.0487140" lon="10.3198750">
	<ele>1452.60</ele>
	<time>2025-07-30T07:11:46.000Z</time>
</trkpt>
<trkpt lat="46.0487100" lon="10.3198710">
	<ele>1452.40</ele>
	<time>2025-07-30T07:11:47.000Z</time>
</trkpt>
<trkpt lat="46.0487070" lon="10.3198620">
	<ele>1452.40</ele>
	<time>2025-07-30T07:11:48.000Z</time>
</trkpt>
<trkpt lat="46.0487020" lon="10.3198520">
	<ele>1452.00</ele>
	<time>2025-07-30T07:11:49.000Z</time>
</trkpt>
<trkpt lat="46.0486960" lon="10.3198480">
	<ele>1451.80</ele>
	<time>2025-07-30T07:11:50.000Z</time>
</trkpt>
<trkpt lat="46.0486890" lon="10.3198430">
	<ele>1451.60</ele>
	<time>2025-07-30T07:11:51.000Z</time>
</trkpt>
<trkpt lat="46.0486820" lon="10.3198350">
	<ele>1451.40</ele>
	<time>2025-07-30T07:11:52.000Z</time>
</trkpt>
<trkpt lat="46.0486790" lon="10.3198320">
	<ele>1451.20</ele>
	<time>2025-07-30T07:11:53.000Z</time>
</trkpt>
<trkpt lat="46.0486800" lon="10.3198310">
	<ele>1451.20</ele>
	<time>2025-07-30T07:11:54.000Z</time>
</trkpt>
<trkpt lat="46.0486810" lon="10.3198310">
	<ele>1451.00</ele>
	<time>2025-07-30T07:11:55.000Z</time>
</trkpt>
<trkpt lat="46.0486820" lon="10.3198350">
	<ele>1451.00</ele>
	<time>2025-07-30T07:11:56.000Z</time>
</trkpt>
<trkpt lat="46.0486830" lon="10.3198380">
	<ele>1451.00</ele>
	<time>2025-07-30T07:11:57.000Z</time>
</trkpt>
<trkpt lat="46.0486820" lon="10.3198390">
	<ele>1451.00</ele>
	<time>2025-07-30T07:11:58.000Z</time>
</trkpt>
<trkpt lat="46.0486790" lon="10.3198390">
	<ele>1451.20</ele>
	<time>2025-07-30T07:11:59.000Z</time>
</trkpt>
<trkpt lat="46.0486770" lon="10.3198380">
	<ele>1451.20</ele>
	<time>2025-07-30T07:12:00.000Z</time>
</trkpt>
<trkpt lat="46.0486750" lon="10.3198370">
	<ele>1451.20</ele>
	<time>2025-07-30T07:12:01.000Z</time>
</trkpt>
<trkpt lat="46.0486740" lon="10.3198380">
	<ele>1451.20</ele>
	<time>2025-07-30T07:12:02.000Z</time>
</trkpt>
<trkpt lat="46.0486720" lon="10.3198390">
	<ele>1451.20</ele>
	<time>2025-07-30T07:12:03.000Z</time>
</trkpt>
<trkpt lat="46.0486720" lon="10.3198400">
	<ele>1451.20</ele>
	<time>2025-07-30T07:12:04.000Z</time>
</trkpt>
<trkpt lat="46.0486720" lon="10.3198400">
	<ele>1451.20</ele>
	<time>2025-07-30T07:12:05.000Z</time>
</trkpt>
<trkpt lat="46.0486720" lon="10.3198400">
	<ele>1451.20</ele>
	<time>2025-07-30T07:12:06.000Z</time>
</trkpt>
<trkpt lat="46.0486720" lon="10.3198400">
	<ele>1451.00</ele>
	<time>2025-07-30T07:12:07.000Z</time>
</trkpt>
<trkpt lat="46.0486720" lon="10.3198400">
	<ele>1451.00</ele>
	<time>2025-07-30T07:12:08.000Z</time>
</trkpt>
<trkpt lat="46.0486720" lon="10.3198400">
	<ele>1451.00</ele>
	<time>2025-07-30T07:12:09.000Z</time>
</trkpt>
<trkpt lat="46.0486720" lon="10.3198400">
	<ele>1451.00</ele>
	<time>2025-07-30T07:12:10.000Z</time>
</trkpt>
<trkpt lat="46.0486720" lon="10.3198400">
	<ele>1450.80</ele>
	<time>2025-07-30T07:12:11.000Z</time>
</trkpt>
<trkpt lat="46.0486720" lon="10.3198390">
	<ele>1450.80</ele>
	<time>2025-07-30T07:12:12.000Z</time>
</trkpt>
<trkpt lat="46.0486720" lon="10.3198390">
	<ele>1450.60</ele>
	<time>2025-07-30T07:12:13.000Z</time>
</trkpt>
<trkpt lat="46.0486730" lon="10.3198390">
	<ele>1450.60</ele>
	<time>2025-07-30T07:12:14.000Z</time>
</trkpt>
<trkpt lat="46.0486730" lon="10.3198380">
	<ele>1450.60</ele>
	<time>2025-07-30T07:12:15.000Z</time>
</trkpt>
<trkpt lat="46.0486730" lon="10.3198380">
	<ele>1450.60</ele>
	<time>2025-07-30T07:12:16.000Z</time>
</trkpt>
<trkpt lat="46.0486730" lon="10.3198380">
	<ele>1450.60</ele>
	<time>2025-07-30T07:12:17.000Z</time>
</trkpt>
<trkpt lat="46.0486730" lon="10.3198380">
	<ele>1450.60</ele>
	<time>2025-07-30T07:12:18.000Z</time>
</trkpt>
<trkpt lat="46.0486730" lon="10.3198370">
	<ele>1450.60</ele>
	<time>2025-07-30T07:12:19.000Z</time>
</trkpt>
<trkpt lat="46.0486730" lon="10.3198370">
	<ele>1450.60</ele>
	<time>2025-07-30T07:12:20.000Z</time>
</trkpt>
<trkpt lat="46.0486730" lon="10.3198370">
	<ele>1450.60</ele>
	<time>2025-07-30T07:12:21.000Z</time>
</trkpt>
<trkpt lat="46.0486730" lon="10.3198370">
	<ele>1450.80</ele>
	<time>2025-07-30T07:12:22.000Z</time>
</trkpt>
<trkpt lat="46.0486730" lon="10.3198370">
	<ele>1450.80</ele>
	<time>2025-07-30T07:12:23.000Z</time>
</trkpt>
<trkpt lat="46.0486730" lon="10.3198370">
	<ele>1451.00</ele>
	<time>2025-07-30T07:12:24.000Z</time>
</trkpt>
<trkpt lat="46.0486730" lon="10.3198370">
	<ele>1451.00</ele>
	<time>2025-07-30T07:12:25.000Z</time>
</trkpt>
<trkpt lat="46.0486730" lon="10.3198370">
	<ele>1451.00</ele>
	<time>2025-07-30T07:12:26.000Z</time>
</trkpt>
<trkpt lat="46.0486720" lon="10.3198370">
	<ele>1451.00</ele>
	<time>2025-07-30T07:12:27.000Z</time>
</trkpt>
<trkpt lat="46.0486720" lon="10.3198370">
	<ele>1451.00</ele>
	<time>2025-07-30T07:12:28.000Z</time>
</trkpt>
<trkpt lat="46.0486720" lon="10.3198370">
	<ele>1451.20</ele>
	<time>2025-07-30T07:12:29.000Z</time>
</trkpt>
<trkpt lat="46.0486720" lon="10.3198370">
	<ele>1451.00</ele>
	<time>2025-07-30T07:12:30.000Z</time>
</trkpt>
<trkpt lat="46.0486720" lon="10.3198370">
	<ele>1451.00</ele>
	<time>2025-07-30T07:12:31.000Z</time>
</trkpt>
<trkpt lat="46.0486720" lon="10.3198370">
	<ele>1451.00</ele>
	<time>2025-07-30T07:12:32.000Z</time>
</trkpt>
<trkpt lat="46.0486710" lon="10.3198370">
	<ele>1451.00</ele>
	<time>2025-07-30T07:12:33.000Z</time>
</trkpt>
<trkpt lat="46.0486710" lon="10.3198370">
	<ele>1451.20</ele>
	<time>2025-07-30T07:12:34.000Z</time>
</trkpt>
<trkpt lat="46.0486690" lon="10.3198370">
	<ele>1451.20</ele>
	<time>2025-07-30T07:12:35.000Z</time>
</trkpt>
<trkpt lat="46.0486670" lon="10.3198440">
	<ele>1451.20</ele>
	<time>2025-07-30T07:12:36.000Z</time>
</trkpt>
<trkpt lat="46.0486660" lon="10.3198500">
	<ele>1451.20</ele>
	<time>2025-07-30T07:12:37.000Z</time>
</trkpt>
<trkpt lat="46.0486650" lon="10.3198540">
	<ele>1451.20</ele>
	<time>2025-07-30T07:12:38.000Z</time>
</trkpt>
<trkpt lat="46.0486630" lon="10.3198550">
	<ele>1451.20</ele>
	<time>2025-07-30T07:12:39.000Z</time>
</trkpt>
<trkpt lat="46.0486620" lon="10.3198570">
	<ele>1451.00</ele>
	<time>2025-07-30T07:12:40.000Z</time>
</trkpt>
<trkpt lat="46.0486610" lon="10.3198570">
	<ele>1451.00</ele>
	<time>2025-07-30T07:12:41.000Z</time>
</trkpt>
<trkpt lat="46.0486610" lon="10.3198570">
	<ele>1451.00</ele>
	<time>2025-07-30T07:12:42.000Z</time>
</trkpt>
<trkpt lat="46.0486610" lon="10.3198590">
	<ele>1450.80</ele>
	<time>2025-07-30T07:12:43.000Z</time>
</trkpt>
<trkpt lat="46.0486610" lon="10.3198600">
	<ele>1450.80</ele>
	<time>2025-07-30T07:12:44.000Z</time>
</trkpt>
<trkpt lat="46.0486600" lon="10.3198610">
	<ele>1450.80</ele>
	<time>2025-07-30T07:12:45.000Z</time>
</trkpt>
<trkpt lat="46.0486590" lon="10.3198620">
	<ele>1450.80</ele>
	<time>2025-07-30T07:12:46.000Z</time>
</trkpt>
<trkpt lat="46.0486590" lon="10.3198630">
	<ele>1450.80</ele>
	<time>2025-07-30T07:12:47.000Z</time>
</trkpt>
<trkpt lat="46.0486590" lon="10.3198630">
	<ele>1450.80</ele>
	<time>2025-07-30T07:12:48.000Z</time>
</trkpt>
<trkpt lat="46.0486590" lon="10.3198630">
	<ele>1450.80</ele>
	<time>2025-07-30T07:12:49.000Z</time>
</trkpt>
<trkpt lat="46.0486590" lon="10.3198630">
	<ele>1450.80</ele>
	<time>2025-07-30T07:12:50.000Z</time>
</trkpt>
<trkpt lat="46.0486590" lon="10.3198640">
	<ele>1450.80</ele>
	<time>2025-07-30T07:12:51.000Z</time>
</trkpt>
<trkpt lat="46.0486590" lon="10.3198640">
	<ele>1450.80</ele>
	<time>2025-07-30T07:12:52.000Z</time>
</trkpt>
<trkpt lat="46.0486590" lon="10.3198640">
	<ele>1450.80</ele>
	<time>2025-07-30T07:12:53.000Z</time>
</trkpt>
<trkpt lat="46.0486590" lon="10.3198640">
	<ele>1450.80</ele>
	<time>2025-07-30T07:12:54.000Z</time>
</trkpt>
<trkpt lat="46.0486590" lon="10.3198650">
	<ele>1450.80</ele>
	<time>2025-07-30T07:12:55.000Z</time>
</trkpt>
<trkpt lat="46.0486590" lon="10.3198650">
	<ele>1450.80</ele>
	<time>2025-07-30T07:12:56.000Z</time>
</trkpt>
<trkpt lat="46.0486590" lon="10.3198650">
	<ele>1450.80</ele>
	<time>2025-07-30T07:12:57.000Z</time>
</trkpt>
<trkpt lat="46.0486590" lon="10.3198650">
	<ele>1450.80</ele>
	<time>2025-07-30T07:12:58.000Z</time>
</trkpt>
<trkpt lat="46.0486590" lon="10.3198660">
	<ele>1450.80</ele>
	<time>2025-07-30T07:12:59.000Z</time>
</trkpt>
<trkpt lat="46.0486590" lon="10.3198660">
	<ele>1450.80</ele>
	<time>2025-07-30T07:13:00.000Z</time>
</trkpt>
<trkpt lat="46.0486590" lon="10.3198660">
	<ele>1450.80</ele>
	<time>2025-07-30T07:13:01.000Z</time>
</trkpt>
<trkpt lat="46.0486600" lon="10.3198660">
	<ele>1450.80</ele>
	<time>2025-07-30T07:13:02.000Z</time>
</trkpt>
<trkpt lat="46.0486600" lon="10.3198660">
	<ele>1451.20</ele>
	<time>2025-07-30T07:13:03.000Z</time>
</trkpt>
<trkpt lat="46.0486600" lon="10.3198670">
	<ele>1451.20</ele>
	<time>2025-07-30T07:13:04.000Z</time>
</trkpt>
<trkpt lat="46.0486610" lon="10.3198680">
	<ele>1451.20</ele>
	<time>2025-07-30T07:13:05.000Z</time>
</trkpt>
<trkpt lat="46.0486610" lon="10.3198680">
	<ele>1451.20</ele>
	<time>2025-07-30T07:13:06.000Z</time>
</trkpt>
<trkpt lat="46.0486610" lon="10.3198680">
	<ele>1451.20</ele>
	<time>2025-07-30T07:13:07.000Z</time>
</trkpt>
<trkpt lat="46.0486610" lon="10.3198690">
	<ele>1451.20</ele>
	<time>2025-07-30T07:13:08.000Z</time>
</trkpt>
<trkpt lat="46.0486620" lon="10.3198690">
	<ele>1451.20</ele>
	<time>2025-07-30T07:13:09.000Z</time>
</trkpt>
<trkpt lat="46.0486620" lon="10.3198690">
	<ele>1451.20</ele>
	<time>2025-07-30T07:13:10.000Z</time>
</trkpt>
<trkpt lat="46.0486620" lon="10.3198690">
	<ele>1451.20</ele>
	<time>2025-07-30T07:13:11.000Z</time>
</trkpt>
<trkpt lat="46.0486620" lon="10.3198690">
	<ele>1451.20</ele>
	<time>2025-07-30T07:13:12.000Z</time>
</trkpt>
<trkpt lat="46.0486630" lon="10.3198710">
	<ele>1451.20</ele>
	<time>2025-07-30T07:13:13.000Z</time>
</trkpt>
<trkpt lat="46.0486640" lon="10.3198720">
	<ele>1451.20</ele>
	<time>2025-07-30T07:13:14.000Z</time>
</trkpt>
<trkpt lat="46.0486680" lon="10.3198720">
	<ele>1451.20</ele>
	<time>2025-07-30T07:13:15.000Z</time>
</trkpt>
<trkpt lat="46.0486710" lon="10.3198720">
	<ele>1451.20</ele>
	<time>2025-07-30T07:13:16.000Z</time>
</trkpt>
<trkpt lat="46.0486760" lon="10.3198720">
	<ele>1451.20</ele>
	<time>2025-07-30T07:13:17.000Z</time>
</trkpt>
<trkpt lat="46.0486820" lon="10.3198720">
	<ele>1451.20</ele>
	<time>2025-07-30T07:13:18.000Z</time>
</trkpt>
<trkpt lat="46.0486890" lon="10.3198720">
	<ele>1451.20</ele>
	<time>2025-07-30T07:13:19.000Z</time>
</trkpt>
<trkpt lat="46.0486960" lon="10.3198720">
	<ele>1451.20</ele>
	<time>2025-07-30T07:13:20.000Z</time>
</trkpt>
<trkpt lat="46.0487030" lon="10.3198720">
	<ele>1451.20</ele>
	<time>2025-07-30T07:13:21.000Z</time>
</trkpt>
<trkpt lat="46.0487100" lon="10.3198720">
	<ele>1451.20</ele>
	<time>2025-07-30T07:13:22.000Z</time>
</trkpt>
<trkpt lat="46.0487150" lon="10.3198720">
	<ele>1451.20</ele>
	<time>2025-07-30T07:13:23.000Z</time>
</trkpt>
<trkpt lat="46.0487200" lon="10.3198720">
	<ele>1451.20</ele>
	<time>2025-07-30T07:13:24.000Z</time>
</trkpt>
<trkpt lat="46.0487230" lon="10.3198720">
	<ele>1451.20</ele>
	<time>2025-07-30T07:13:25.000Z</time>
</trkpt>
<trkpt lat="46.0487270" lon="10.3198720">
	<ele>1451.20</ele>
	<time>2025-07-30T07:13:26.000Z</time>
</trkpt>
<trkpt lat="46.0487330" lon="10.3198720">
	<ele>1451.20</ele>
	<time>2025-07-30T07:13:27.000Z</time>
</trkpt>
<trkpt lat="46.0487390" lon="10.3198710">
	<ele>1451.20</ele>
	<time>2025-07-30T07:13:28.000Z</time>
</trkpt>
<trkpt lat="46.0487440" lon="10.3198670">
	<ele>1451.20</ele>
	<time>2025-07-30T07:13:29.000Z</time>
</trkpt>
<trkpt lat="46.0487510" lon="10.3198620">
	<ele>1451.20</ele>
	<time>2025-07-30T07:13:30.000Z</time>
</trkpt>
<trkpt lat="46.0487570" lon="10.3198580">
	<ele>1451.20</ele>
	<time>2025-07-30T07:13:31.000Z</time>
</trkpt>
<trkpt lat="46.0487640" lon="10.3198550">
	<ele>1451.20</ele>
	<time>2025-07-30T07:13:32.000Z</time>
</trkpt>
<trkpt lat="46.0487700" lon="10.3198530">
	<ele>1451.20</ele>
	<time>2025-07-30T07:13:33.000Z</time>
</trkpt>
<trkpt lat="46.0487780" lon="10.3198520">
	<ele>1451.20</ele>
	<time>2025-07-30T07:13:34.000Z</time>
</trkpt>
<trkpt lat="46.0487850" lon="10.3198490">
	<ele>1451.20</ele>
	<time>2025-07-30T07:13:35.000Z</time>
</trkpt>
<trkpt lat="46.0487890" lon="10.3198470">
	<ele>1451.20</ele>
	<time>2025-07-30T07:13:36.000Z</time>
</trkpt>
<trkpt lat="46.0487950" lon="10.3198450">
	<ele>1451.20</ele>
	<time>2025-07-30T07:13:37.000Z</time>
</trkpt>
<trkpt lat="46.0487980" lon="10.3198430">
	<ele>1451.20</ele>
	<time>2025-07-30T07:13:38.000Z</time>
</trkpt>
<trkpt lat="46.0487990" lon="10.3198400">
	<ele>1451.20</ele>
	<time>2025-07-30T07:13:39.000Z</time>
</trkpt>
<trkpt lat="46.0487990" lon="10.3198360">
	<ele>1451.20</ele>
	<time>2025-07-30T07:13:40.000Z</time>
</trkpt>
<trkpt lat="46.0488000" lon="10.3198330">
	<ele>1451.20</ele>
	<time>2025-07-30T07:13:41.000Z</time>
</trkpt>
<trkpt lat="46.0488000" lon="10.3198300">
	<ele>1451.20</ele>
	<time>2025-07-30T07:13:42.000Z</time>
</trkpt>
<trkpt lat="46.0488000" lon="10.3198270">
	<ele>1451.20</ele>
	<time>2025-07-30T07:13:43.000Z</time>
</trkpt>
<trkpt lat="46.0488000" lon="10.3198240">
	<ele>1451.20</ele>
	<time>2025-07-30T07:13:44.000Z</time>
</trkpt>
<trkpt lat="46.0488000" lon="10.3198190">
	<ele>1451.20</ele>
	<time>2025-07-30T07:13:45.000Z</time>
</trkpt>
<trkpt lat="46.0488000" lon="10.3198130">
	<ele>1451.20</ele>
	<time>2025-07-30T07:13:46.000Z</time>
</trkpt>
<trkpt lat="46.0488000" lon="10.3198060">
	<ele>1451.20</ele>
	<time>2025-07-30T07:13:47.000Z</time>
</trkpt>
<trkpt lat="46.0488000" lon="10.3197990">
	<ele>1451.20</ele>
	<time>2025-07-30T07:13:48.000Z</time>
</trkpt>
<trkpt lat="46.0488000" lon="10.3197920">
	<ele>1451.20</ele>
	<time>2025-07-30T07:13:49.000Z</time>
</trkpt>
<trkpt lat="46.0488000" lon="10.3197880">
	<ele>1451.20</ele>
	<time>2025-07-30T07:13:50.000Z</time>
</trkpt>
<trkpt lat="46.0488000" lon="10.3197850">
	<ele>1451.20</ele>
	<time>2025-07-30T07:13:51.000Z</time>
</trkpt>
<trkpt lat="46.0488010" lon="10.3197830">
	<ele>1451.20</ele>
	<time>2025-07-30T07:13:52.000Z</time>
</trkpt>
<trkpt lat="46.0488010" lon="10.3197820">
	<ele>1451.20</ele>
	<time>2025-07-30T07:13:53.000Z</time>
</trkpt>
<trkpt lat="46.0488010" lon="10.3197820">
	<ele>1451.20</ele>
	<time>2025-07-30T07:13:54.000Z</time>
</trkpt>
<trkpt lat="46.0488010" lon="10.3197820">
	<ele>1451.20</ele>
	<time>2025-07-30T07:13:55.000Z</time>
</trkpt>
<trkpt lat="46.0488010" lon="10.3197810">
	<ele>1451.20</ele>
	<time>2025-07-30T07:13:56.000Z</time>
</trkpt>
<trkpt lat="46.0488000" lon="10.3197810">
	<ele>1451.20</ele>
	<time>2025-07-30T07:13:57.000Z</time>
</trkpt>
<trkpt lat="46.0488000" lon="10.3197810">
	<ele>1451.20</ele>
	<time>2025-07-30T07:13:58.000Z</time>
</trkpt>
<trkpt lat="46.0488000" lon="10.3197810">
	<ele>1451.20</ele>
	<time>2025-07-30T07:13:59.000Z</time>
</trkpt>
<trkpt lat="46.0488000" lon="10.3197810">
	<ele>1451.20</ele>
	<time>2025-07-30T07:14:00.000Z</time>
</trkpt>
<trkpt lat="46.0488000" lon="10.3197810">
	<ele>1451.20</ele>
	<time>2025-07-30T07:14:01.000Z</time>
</trkpt>
<trkpt lat="46.0488000" lon="10.3197810">
	<ele>1451.20</ele>
	<time>2025-07-30T07:14:02.000Z</time>
</trkpt>
<trkpt lat="46.0488000" lon="10.3197810">
	<ele>1451.20</ele>
	<time>2025-07-30T07:14:03.000Z</time>
</trkpt>
<trkpt lat="46.0488000" lon="10.3197810">
	<ele>1451.20</ele>
	<time>2025-07-30T07:14:04.000Z</time>
</trkpt>
<trkpt lat="46.0488000" lon="10.3197810">
	<ele>1451.20</ele>
	<time>2025-07-30T07:14:05.000Z</time>
</trkpt>
<trkpt lat="46.0488000" lon="10.3197820">
	<ele>1451.20</ele>
	<time>2025-07-30T07:14:06.000Z</time>
</trkpt>
<trkpt lat="46.0488000" lon="10.3197820">
	<ele>1451.20</ele>
	<time>2025-07-30T07:14:07.000Z</time>
</trkpt>
<trkpt lat="46.0488000" lon="10.3197830">
	<ele>1451.20</ele>
	<time>2025-07-30T07:14:08.000Z</time>
</trkpt>
<trkpt lat="46.0488010" lon="10.3197840">
	<ele>1451.20</ele>
	<time>2025-07-30T07:14:09.000Z</time>
</trkpt>
<trkpt lat="46.0488010" lon="10.3197840">
	<ele>1451.20</ele>
	<time>2025-07-30T07:14:10.000Z</time>
</trkpt>
<trkpt lat="46.0488010" lon="10.3197850">
	<ele>1451.20</ele>
	<time>2025-07-30T07:14:11.000Z</time>
</trkpt>
<trkpt lat="46.0488010" lon="10.3197850">
	<ele>1451.20</ele>
	<time>2025-07-30T07:14:12.000Z</time>
</trkpt>
<trkpt lat="46.0488010" lon="10.3197860">
	<ele>1451.20</ele>
	<time>2025-07-30T07:14:13.000Z</time>
</trkpt>
<trkpt lat="46.0488020" lon="10.3197860">
	<ele>1451.20</ele>
	<time>2025-07-30T07:14:14.000Z</time>
</trkpt>
<trkpt lat="46.0488020" lon="10.3197860">
	<ele>1451.20</ele>
	<time>2025-07-30T07:14:15.000Z</time>
</trkpt>
<trkpt lat="46.0488020" lon="10.3197860">
	<ele>1451.20</ele>
	<time>2025-07-30T07:14:16.000Z</time>
</trkpt>
<trkpt lat="46.0488020" lon="10.3197860">
	<ele>1451.20</ele>
	<time>2025-07-30T07:14:17.000Z</time>
</trkpt>
<trkpt lat="46.0488040" lon="10.3197870">
	<ele>1451.20</ele>
	<time>2025-07-30T07:14:18.000Z</time>
</trkpt>
<trkpt lat="46.0488040" lon="10.3197870">
	<ele>1451.20</ele>
	<time>2025-07-30T07:14:19.000Z</time>
</trkpt>
<trkpt lat="46.0488050" lon="10.3197870">
	<ele>1451.20</ele>
	<time>2025-07-30T07:14:20.000Z</time>
</trkpt>
<trkpt lat="46.0488060" lon="10.3197870">
	<ele>1451.20</ele>
	<time>2025-07-30T07:14:21.000Z</time>
</trkpt>
<trkpt lat="46.0488070" lon="10.3197870">
	<ele>1451.20</ele>
	<time>2025-07-30T07:14:22.000Z</time>
</trkpt>
<trkpt lat="46.0488080" lon="10.3197870">
	<ele>1451.20</ele>
	<time>2025-07-30T07:14:23.000Z</time>
</trkpt>
<trkpt lat="46.0488080" lon="10.3197870">
	<ele>1451.20</ele>
	<time>2025-07-30T07:14:24.000Z</time>
</trkpt>
<trkpt lat="46.0488080" lon="10.3197870">
	<ele>1451.20</ele>
	<time>2025-07-30T07:14:25.000Z</time>
</trkpt>
<trkpt lat="46.0488090" lon="10.3197870">
	<ele>1451.20</ele>
	<time>2025-07-30T07:14:26.000Z</time>
</trkpt>
<trkpt lat="46.0488090" lon="10.3197880">
	<ele>1451.20</ele>
	<time>2025-07-30T07:14:27.000Z</time>
</trkpt>
<trkpt lat="46.0488090" lon="10.3197880">
	<ele>1451.20</ele>
	<time>2025-07-30T07:14:28.000Z</time>
</trkpt>
<trkpt lat="46.0488100" lon="10.3197880">
	<ele>1451.20</ele>
	<time>2025-07-30T07:14:29.000Z</time>
</trkpt>
<trkpt lat="46.0488100" lon="10.3197880">
	<ele>1451.20</ele>
	<time>2025-07-30T07:14:30.000Z</time>
</trkpt>
<trkpt lat="46.0488100" lon="10.3197880">
	<ele>1451.20</ele>
	<time>2025-07-30T07:14:31.000Z</time>
</trkpt>
<trkpt lat="46.0488110" lon="10.3197880">
	<ele>1451.20</ele>
	<time>2025-07-30T07:14:32.000Z</time>
</trkpt>
<trkpt lat="46.0488110" lon="10.3197890">
	<ele>1451.20</ele>
	<time>2025-07-30T07:14:33.000Z</time>
</trkpt>
<trkpt lat="46.0488110" lon="10.3197890">
	<ele>1451.20</ele>
	<time>2025-07-30T07:14:34.000Z</time>
</trkpt>
<trkpt lat="46.0488110" lon="10.3197890">
	<ele>1451.20</ele>
	<time>2025-07-30T07:14:35.000Z</time>
</trkpt>
<trkpt lat="46.0488110" lon="10.3197890">
	<ele>1451.20</ele>
	<time>2025-07-30T07:14:36.000Z</time>
</trkpt>
<trkpt lat="46.0488110" lon="10.3197890">
	<ele>1451.20</ele>
	<time>2025-07-30T07:14:37.000Z</time>
</trkpt>
<trkpt lat="46.0488110" lon="10.3197900">
	<ele>1451.20</ele>
	<time>2025-07-30T07:14:38.000Z</time>
</trkpt>
<trkpt lat="46.0488110" lon="10.3197910">
	<ele>1451.20</ele>
	<time>2025-07-30T07:14:39.000Z</time>
</trkpt>
<trkpt lat="46.0488110" lon="10.3197910">
	<ele>1451.20</ele>
	<time>2025-07-30T07:14:40.000Z</time>
</trkpt>
<trkpt lat="46.0488110" lon="10.3197920">
	<ele>1451.20</ele>
	<time>2025-07-30T07:14:41.000Z</time>
</trkpt>
<trkpt lat="46.0488110" lon="10.3197930">
	<ele>1451.20</ele>
	<time>2025-07-30T07:14:42.000Z</time>
</trkpt>
<trkpt lat="46.0488110" lon="10.3197930">
	<ele>1451.20</ele>
	<time>2025-07-30T07:14:43.000Z</time>
</trkpt>
<trkpt lat="46.0488110" lon="10.3197940">
	<ele>1451.20</ele>
	<time>2025-07-30T07:14:44.000Z</time>
</trkpt>
<trkpt lat="46.0488110" lon="10.3197940">
	<ele>1451.20</ele>
	<time>2025-07-30T07:14:45.000Z</time>
</trkpt>
<trkpt lat="46.0488110" lon="10.3197950">
	<ele>1451.20</ele>
	<time>2025-07-30T07:14:46.000Z</time>
</trkpt>
<trkpt lat="46.0488110" lon="10.3197950">
	<ele>1451.20</ele>
	<time>2025-07-30T07:14:47.000Z</time>
</trkpt>
<trkpt lat="46.0488110" lon="10.3197950">
	<ele>1451.20</ele>
	<time>2025-07-30T07:14:48.000Z</time>
</trkpt>
<trkpt lat="46.0488100" lon="10.3197960">
	<ele>1451.20</ele>
	<time>2025-07-30T07:14:49.000Z</time>
</trkpt>
<trkpt lat="46.0488100" lon="10.3197960">
	<ele>1451.20</ele>
	<time>2025-07-30T07:14:50.000Z</time>
</trkpt>
<trkpt lat="46.0488100" lon="10.3197960">
	<ele>1451.20</ele>
	<time>2025-07-30T07:14:51.000Z</time>
</trkpt>
<trkpt lat="46.0488110" lon="10.3197970">
	<ele>1451.20</ele>
	<time>2025-07-30T07:14:52.000Z</time>
</trkpt>
<trkpt lat="46.0488110" lon="10.3197970">
	<ele>1451.20</ele>
	<time>2025-07-30T07:14:53.000Z</time>
</trkpt>
<trkpt lat="46.0488110" lon="10.3197970">
	<ele>1451.20</ele>
	<time>2025-07-30T07:14:54.000Z</time>
</trkpt>
<trkpt lat="46.0488110" lon="10.3197970">
	<ele>1451.20</ele>
	<time>2025-07-30T07:14:55.000Z</time>
</trkpt>
<trkpt lat="46.0488110" lon="10.3197980">
	<ele>1451.20</ele>
	<time>2025-07-30T07:14:56.000Z</time>
</trkpt>
<trkpt lat="46.0488110" lon="10.3197980">
	<ele>1451.20</ele>
	<time>2025-07-30T07:14:57.000Z</time>
</trkpt>
<trkpt lat="46.0488110" lon="10.3197980">
	<ele>1451.20</ele>
	<time>2025-07-30T07:14:58.000Z</time>
</trkpt>
<trkpt lat="46.0488110" lon="10.3197990">
	<ele>1451.20</ele>
	<time>2025-07-30T07:14:59.000Z</time>
</trkpt>
<trkpt lat="46.0488110" lon="10.3197990">
	<ele>1451.20</ele>
	<time>2025-07-30T07:15:00.000Z</time>
</trkpt>
<trkpt lat="46.0488110" lon="10.3197990">
	<ele>1451.20</ele>
	<time>2025-07-30T07:15:01.000Z</time>
</trkpt>
<trkpt lat="46.0488110" lon="10.3197990">
	<ele>1451.20</ele>
	<time>2025-07-30T07:15:02.000Z</time>
</trkpt>
<trkpt lat="46.0488110" lon="10.3198000">
	<ele>1451.20</ele>
	<time>2025-07-30T07:15:03.000Z</time>
</trkpt>
<trkpt lat="46.0488110" lon="10.3198000">
	<ele>1451.20</ele>
	<time>2025-07-30T07:15:04.000Z</time>
</trkpt>
<trkpt lat="46.0488110" lon="10.3198000">
	<ele>1451.20</ele>
	<time>2025-07-30T07:15:05.000Z</time>
</trkpt>
<trkpt lat="46.0488110" lon="10.3198000">
	<ele>1451.20</ele>
	<time>2025-07-30T07:15:06.000Z</time>
</trkpt>
<trkpt lat="46.0488110" lon="10.3198000">
	<ele>1451.20</ele>
	<time>2025-07-30T07:15:07.000Z</time>
</trkpt>
<trkpt lat="46.0488110" lon="10.3198000">
	<ele>1451.20</ele>
	<time>2025-07-30T07:15:08.000Z</time>
</trkpt>
<trkpt lat="46.0488110" lon="10.3198000">
	<ele>1451.20</ele>
	<time>2025-07-30T07:15:09.000Z</time>
</trkpt>
<trkpt lat="46.0488110" lon="10.3198000">
	<ele>1451.20</ele>
	<time>2025-07-30T07:15:10.000Z</time>
</trkpt>
<trkpt lat="46.0488110" lon="10.3198000">
	<ele>1451.20</ele>
	<time>2025-07-30T07:15:11.000Z</time>
</trkpt>
<trkpt lat="46.0488120" lon="10.3198000">
	<ele>1451.20</ele>
	<time>2025-07-30T07:15:12.000Z</time>
</trkpt>
<trkpt lat="46.0488120" lon="10.3198000">
	<ele>1451.20</ele>
	<time>2025-07-30T07:15:13.000Z</time>
</trkpt>
<trkpt lat="46.0488120" lon="10.3198000">
	<ele>1451.20</ele>
	<time>2025-07-30T07:15:14.000Z</time>
</trkpt>
<trkpt lat="46.0488120" lon="10.3198000">
	<ele>1451.20</ele>
	<time>2025-07-30T07:15:15.000Z</time>
</trkpt>
<trkpt lat="46.0488120" lon="10.3198010">
	<ele>1451.20</ele>
	<time>2025-07-30T07:15:16.000Z</time>
</trkpt>
<trkpt lat="46.0488120" lon="10.3198010">
	<ele>1451.20</ele>
	<time>2025-07-30T07:15:17.000Z</time>
</trkpt>
<trkpt lat="46.0488120" lon="10.3198010">
	<ele>1451.20</ele>
	<time>2025-07-30T07:15:18.000Z</time>
</trkpt>
<trkpt lat="46.0488120" lon="10.3198010">
	<ele>1451.20</ele>
	<time>2025-07-30T07:15:19.000Z</time>
</trkpt>
<trkpt lat="46.0488120" lon="10.3198010">
	<ele>1451.20</ele>
	<time>2025-07-30T07:15:20.000Z</time>
</trkpt>
<trkpt lat="46.0488120" lon="10.3198010">
	<ele>1451.20</ele>
	<time>2025-07-30T07:15:21.000Z</time>
</trkpt>
<trkpt lat="46.0488120" lon="10.3198010">
	<ele>1451.20</ele>
	<time>2025-07-30T07:15:22.000Z</time>
</trkpt>
<trkpt lat="46.0488120" lon="10.3198010">
	<ele>1451.20</ele>
	<time>2025-07-30T07:15:23.000Z</time>
</trkpt>
<trkpt lat="46.0488120" lon="10.3198010">
	<ele>1451.20</ele>
	<time>2025-07-30T07:15:24.000Z</time>
</trkpt>
<trkpt lat="46.0488120" lon="10.3198010">
	<ele>1451.20</ele>
	<time>2025-07-30T07:15:25.000Z</time>
</trkpt>
<trkpt lat="46.0488120" lon="10.3198000">
	<ele>1451.20</ele>
	<time>2025-07-30T07:15:26.000Z</time>
</trkpt>
<trkpt lat="46.0488120" lon="10.3198000">
	<ele>1451.20</ele>
	<time>2025-07-30T07:15:27.000Z</time>
</trkpt>
<trkpt lat="46.0488120" lon="10.3198000">
	<ele>1451.20</ele>
	<time>2025-07-30T07:15:28.000Z</time>
</trkpt>
<trkpt lat="46.0488120" lon="10.3198000">
	<ele>1451.20</ele>
	<time>2025-07-30T07:15:29.000Z</time>
</trkpt>
<trkpt lat="46.0488120" lon="10.3198000">
	<ele>1451.20</ele>
	<time>2025-07-30T07:15:30.000Z</time>
</trkpt>
<trkpt lat="46.0488120" lon="10.3198000">
	<ele>1451.20</ele>
	<time>2025-07-30T07:15:31.000Z</time>
</trkpt>
<trkpt lat="46.0488120" lon="10.3198000">
	<ele>1451.20</ele>
	<time>2025-07-30T07:15:32.000Z</time>
</trkpt>
<trkpt lat="46.0488120" lon="10.3198000">
	<ele>1451.20</ele>
	<time>2025-07-30T07:15:33.000Z</time>
</trkpt>
<trkpt lat="46.0488120" lon="10.3198000">
	<ele>1451.20</ele>
	<time>2025-07-30T07:15:34.000Z</time>
</trkpt>
<trkpt lat="46.0488130" lon="10.3198000">
	<ele>1451.20</ele>
	<time>2025-07-30T07:15:35.000Z</time>
</trkpt>
<trkpt lat="46.0488130" lon="10.3198000">
	<ele>1451.20</ele>
	<time>2025-07-30T07:15:36.000Z</time>
</trkpt>
<trkpt lat="46.0488130" lon="10.3198000">
	<ele>1451.20</ele>
	<time>2025-07-30T07:15:37.000Z</time>
</trkpt>
<trkpt lat="46.0488130" lon="10.3198000">
	<ele>1451.20</ele>
	<time>2025-07-30T07:15:38.000Z</time>
</trkpt>
<trkpt lat="46.0488130" lon="10.3197990">
	<ele>1451.20</ele>
	<time>2025-07-30T07:15:39.000Z</time>
</trkpt>
<trkpt lat="46.0488130" lon="10.3197990">
	<ele>1451.20</ele>
	<time>2025-07-30T07:15:40.000Z</time>
</trkpt>
<trkpt lat="46.0488130" lon="10.3197990">
	<ele>1451.20</ele>
	<time>2025-07-30T07:15:41.000Z</time>
</trkpt>
<trkpt lat="46.0488130" lon="10.3197990">
	<ele>1451.20</ele>
	<time>2025-07-30T07:15:42.000Z</time>
</trkpt>
<trkpt lat="46.0488130" lon="10.3197990">
	<ele>1451.20</ele>
	<time>2025-07-30T07:15:43.000Z</time>
</trkpt>
<trkpt lat="46.0488130" lon="10.3197990">
	<ele>1451.20</ele>
	<time>2025-07-30T07:15:44.000Z</time>
</trkpt>
<trkpt lat="46.0488130" lon="10.3197990">
	<ele>1451.20</ele>
	<time>2025-07-30T07:15:45.000Z</time>
</trkpt>
<trkpt lat="46.0488130" lon="10.3197990">
	<ele>1451.20</ele>
	<time>2025-07-30T07:15:46.000Z</time>
</trkpt>
<trkpt lat="46.0488130" lon="10.3197990">
	<ele>1451.20</ele>
	<time>2025-07-30T07:15:47.000Z</time>
</trkpt>
<trkpt lat="46.0488130" lon="10.3197990">
	<ele>1451.20</ele>
	<time>2025-07-30T07:15:48.000Z</time>
</trkpt>
<trkpt lat="46.0488140" lon="10.3197990">
	<ele>1451.20</ele>
	<time>2025-07-30T07:15:49.000Z</time>
</trkpt>
<trkpt lat="46.0488140" lon="10.3197990">
	<ele>1451.20</ele>
	<time>2025-07-30T07:15:50.000Z</time>
</trkpt>
<trkpt lat="46.0488140" lon="10.3197990">
	<ele>1451.20</ele>
	<time>2025-07-30T07:15:51.000Z</time>
</trkpt>
<trkpt lat="46.0488140" lon="10.3197990">
	<ele>1451.20</ele>
	<time>2025-07-30T07:15:52.000Z</time>
</trkpt>
<trkpt lat="46.0488140" lon="10.3197990">
	<ele>1451.20</ele>
	<time>2025-07-30T07:15:53.000Z</time>
</trkpt>
<trkpt lat="46.0488140" lon="10.3197990">
	<ele>1451.20</ele>
	<time>2025-07-30T07:15:54.000Z</time>
</trkpt>
<trkpt lat="46.0488140" lon="10.3197990">
	<ele>1451.20</ele>
	<time>2025-07-30T07:15:55.000Z</time>
</trkpt>
<trkpt lat="46.0488140" lon="10.3197980">
	<ele>1451.20</ele>
	<time>2025-07-30T07:15:56.000Z</time>
</trkpt>
<trkpt lat="46.0488140" lon="10.3197980">
	<ele>1451.20</ele>
	<time>2025-07-30T07:15:57.000Z</time>
</trkpt>
<trkpt lat="46.0488140" lon="10.3197980">
	<ele>1451.20</ele>
	<time>2025-07-30T07:15:58.000Z</time>
</trkpt>
<trkpt lat="46.0488140" lon="10.3197980">
	<ele>1451.20</ele>
	<time>2025-07-30T07:15:59.000Z</time>
</trkpt>
<trkpt lat="46.0488140" lon="10.3197980">
	<ele>1451.20</ele>
	<time>2025-07-30T07:16:00.000Z</time>
</trkpt>
<trkpt lat="46.0488140" lon="10.3197980">
	<ele>1451.20</ele>
	<time>2025-07-30T07:16:01.000Z</time>
</trkpt>
<trkpt lat="46.0488140" lon="10.3197980">
	<ele>1451.20</ele>
	<time>2025-07-30T07:16:02.000Z</time>
</trkpt>
<trkpt lat="46.0488140" lon="10.3197980">
	<ele>1451.20</ele>
	<time>2025-07-30T07:16:03.000Z</time>
</trkpt>
<trkpt lat="46.0488140" lon="10.3197980">
	<ele>1451.20</ele>
	<time>2025-07-30T07:16:04.000Z</time>
</trkpt>
<trkpt lat="46.0488140" lon="10.3197980">
	<ele>1451.20</ele>
	<time>2025-07-30T07:16:05.000Z</time>
</trkpt>
<trkpt lat="46.0488140" lon="10.3197970">
	<ele>1451.20</ele>
	<time>2025-07-30T07:16:06.000Z</time>
</trkpt>
<trkpt lat="46.0488140" lon="10.3197970">
	<ele>1451.20</ele>
	<time>2025-07-30T07:16:07.000Z</time>
</trkpt>
<trkpt lat="46.0488140" lon="10.3197970">
	<ele>1451.20</ele>
	<time>2025-07-30T07:16:08.000Z</time>
</trkpt>
<trkpt lat="46.0488140" lon="10.3197970">
	<ele>1451.20</ele>
	<time>2025-07-30T07:16:09.000Z</time>
</trkpt>
<trkpt lat="46.0488140" lon="10.3197970">
	<ele>1451.20</ele>
	<time>2025-07-30T07:16:10.000Z</time>
</trkpt>
<trkpt lat="46.0488140" lon="10.3197970">
	<ele>1451.20</ele>
	<time>2025-07-30T07:16:11.000Z</time>
</trkpt>
<trkpt lat="46.0488140" lon="10.3197970">
	<ele>1451.20</ele>
	<time>2025-07-30T07:16:12.000Z</time>
</trkpt>
<trkpt lat="46.0488140" lon="10.3197970">
	<ele>1451.20</ele>
	<time>2025-07-30T07:16:13.000Z</time>
</trkpt>
<trkpt lat="46.0488150" lon="10.3197970">
	<ele>1451.20</ele>
	<time>2025-07-30T07:16:14.000Z</time>
</trkpt>
<trkpt lat="46.0488150" lon="10.3197970">
	<ele>1451.20</ele>
	<time>2025-07-30T07:16:15.000Z</time>
</trkpt>
<trkpt lat="46.0488150" lon="10.3197970">
	<ele>1451.20</ele>
	<time>2025-07-30T07:16:16.000Z</time>
</trkpt>
<trkpt lat="46.0488150" lon="10.3197970">
	<ele>1451.20</ele>
	<time>2025-07-30T07:16:17.000Z</time>
</trkpt>
<trkpt lat="46.0488150" lon="10.3197970">
	<ele>1451.20</ele>
	<time>2025-07-30T07:16:18.000Z</time>
</trkpt>
<trkpt lat="46.0488150" lon="10.3197970">
	<ele>1451.20</ele>
	<time>2025-07-30T07:16:19.000Z</time>
</trkpt>
<trkpt lat="46.0488150" lon="10.3197960">
	<ele>1451.20</ele>
	<time>2025-07-30T07:16:20.000Z</time>
</trkpt>
<trkpt lat="46.0488150" lon="10.3197960">
	<ele>1451.20</ele>
	<time>2025-07-30T07:16:21.000Z</time>
</trkpt>
<trkpt lat="46.0488150" lon="10.3197960">
	<ele>1451.20</ele>
	<time>2025-07-30T07:16:22.000Z</time>
</trkpt>
<trkpt lat="46.0488150" lon="10.3197960">
	<ele>1451.20</ele>
	<time>2025-07-30T07:16:23.000Z</time>
</trkpt>
<trkpt lat="46.0488150" lon="10.3197960">
	<ele>1451.20</ele>
	<time>2025-07-30T07:16:24.000Z</time>
</trkpt>
<trkpt lat="46.0488150" lon="10.3197960">
	<ele>1451.20</ele>
	<time>2025-07-30T07:16:25.000Z</time>
</trkpt>
<trkpt lat="46.0488150" lon="10.3197960">
	<ele>1451.20</ele>
	<time>2025-07-30T07:16:26.000Z</time>
</trkpt>
<trkpt lat="46.0488150" lon="10.3197960">
	<ele>1451.20</ele>
	<time>2025-07-30T07:16:27.000Z</time>
</trkpt>
<trkpt lat="46.0488150" lon="10.3197960">
	<ele>1451.20</ele>
	<time>2025-07-30T07:16:28.000Z</time>
</trkpt>
<trkpt lat="46.0488150" lon="10.3197960">
	<ele>1451.20</ele>
	<time>2025-07-30T07:16:29.000Z</time>
</trkpt>
<trkpt lat="46.0488150" lon="10.3197960">
	<ele>1451.20</ele>
	<time>2025-07-30T07:16:30.000Z</time>
</trkpt>
<trkpt lat="46.0488150" lon="10.3197960">
	<ele>1451.20</ele>
	<time>2025-07-30T07:16:31.000Z</time>
</trkpt>
<trkpt lat="46.0488150" lon="10.3197960">
	<ele>1451.20</ele>
	<time>2025-07-30T07:16:32.000Z</time>
</trkpt>
<trkpt lat="46.0488160" lon="10.3197960">
	<ele>1451.20</ele>
	<time>2025-07-30T07:16:33.000Z</time>
</trkpt>
<trkpt lat="46.0488160" lon="10.3197950">
	<ele>1451.20</ele>
	<time>2025-07-30T07:16:34.000Z</time>
</trkpt>
<trkpt lat="46.0488160" lon="10.3197950">
	<ele>1451.20</ele>
	<time>2025-07-30T07:16:35.000Z</time>
</trkpt>
<trkpt lat="46.0488160" lon="10.3197950">
	<ele>1451.20</ele>
	<time>2025-07-30T07:16:36.000Z</time>
</trkpt>
<trkpt lat="46.0488160" lon="10.3197950">
	<ele>1451.20</ele>
	<time>2025-07-30T07:16:37.000Z</time>
</trkpt>
<trkpt lat="46.0488160" lon="10.3197950">
	<ele>1451.20</ele>
	<time>2025-07-30T07:16:38.000Z</time>
</trkpt>
<trkpt lat="46.0488160" lon="10.3197950">
	<ele>1451.20</ele>
	<time>2025-07-30T07:16:39.000Z</time>
</trkpt>
<trkpt lat="46.0488160" lon="10.3197950">
	<ele>1451.20</ele>
	<time>2025-07-30T07:16:40.000Z</time>
</trkpt>
<trkpt lat="46.0488160" lon="10.3197950">
	<ele>1451.20</ele>
	<time>2025-07-30T07:16:41.000Z</time>
</trkpt>
<trkpt lat="46.0488160" lon="10.3197950">
	<ele>1451.20</ele>
	<time>2025-07-30T07:16:42.000Z</time>
</trkpt>
<trkpt lat="46.0488160" lon="10.3197950">
	<ele>1451.20</ele>
	<time>2025-07-30T07:16:43.000Z</time>
</trkpt>
<trkpt lat="46.0488160" lon="10.3197950">
	<ele>1451.20</ele>
	<time>2025-07-30T07:16:44.000Z</time>
</trkpt>
<trkpt lat="46.0488160" lon="10.3197950">
	<ele>1451.20</ele>
	<time>2025-07-30T07:16:45.000Z</time>
</trkpt>
<trkpt lat="46.0488160" lon="10.3197950">
	<ele>1451.20</ele>
	<time>2025-07-30T07:16:46.000Z</time>
</trkpt>
<trkpt lat="46.0488160" lon="10.3197950">
	<ele>1451.20</ele>
	<time>2025-07-30T07:16:47.000Z</time>
</trkpt>
<trkpt lat="46.0488160" lon="10.3197950">
	<ele>1451.20</ele>
	<time>2025-07-30T07:16:48.000Z</time>
</trkpt>
<trkpt lat="46.0488160" lon="10.3197950">
	<ele>1451.20</ele>
	<time>2025-07-30T07:16:49.000Z</time>
</trkpt>
<trkpt lat="46.0488160" lon="10.3197950">
	<ele>1451.20</ele>
	<time>2025-07-30T07:16:50.000Z</time>
</trkpt>
<trkpt lat="46.0488160" lon="10.3197950">
	<ele>1451.20</ele>
	<time>2025-07-30T07:16:51.000Z</time>
</trkpt>
<trkpt lat="46.0488160" lon="10.3197950">
	<ele>1451.20</ele>
	<time>2025-07-30T07:16:52.000Z</time>
</trkpt>
<trkpt lat="46.0488160" lon="10.3197950">
	<ele>1451.20</ele>
	<time>2025-07-30T07:16:53.000Z</time>
</trkpt>
<trkpt lat="46.0488160" lon="10.3197950">
	<ele>1451.20</ele>
	<time>2025-07-30T07:16:54.000Z</time>
</trkpt>
<trkpt lat="46.0488160" lon="10.3197940">
	<ele>1451.20</ele>
	<time>2025-07-30T07:16:55.000Z</time>
</trkpt>
<trkpt lat="46.0488160" lon="10.3197940">
	<ele>1451.20</ele>
	<time>2025-07-30T07:16:56.000Z</time>
</trkpt>
<trkpt lat="46.0488160" lon="10.3197940">
	<ele>1451.20</ele>
	<time>2025-07-30T07:16:57.000Z</time>
</trkpt>
<trkpt lat="46.0488160" lon="10.3197940">
	<ele>1451.20</ele>
	<time>2025-07-30T07:16:58.000Z</time>
</trkpt>
<trkpt lat="46.0488160" lon="10.3197940">
	<ele>1451.20</ele>
	<time>2025-07-30T07:16:59.000Z</time>
</trkpt>
<trkpt lat="46.0488160" lon="10.3197940">
	<ele>1451.20</ele>
	<time>2025-07-30T07:17:00.000Z</time>
</trkpt>
<trkpt lat="46.0488160" lon="10.3197940">
	<ele>1451.20</ele>
	<time>2025-07-30T07:17:01.000Z</time>
</trkpt>
<trkpt lat="46.0488160" lon="10.3197940">
	<ele>1451.20</ele>
	<time>2025-07-30T07:17:02.000Z</time>
</trkpt>
<trkpt lat="46.0488160" lon="10.3197940">
	<ele>1451.20</ele>
	<time>2025-07-30T07:17:03.000Z</time>
</trkpt>
<trkpt lat="46.0488170" lon="10.3197940">
	<ele>1451.20</ele>
	<time>2025-07-30T07:17:04.000Z</time>
</trkpt>
<trkpt lat="46.0488170" lon="10.3197940">
	<ele>1451.20</ele>
	<time>2025-07-30T07:17:05.000Z</time>
</trkpt>
<trkpt lat="46.0488170" lon="10.3197950">
	<ele>1451.20</ele>
	<time>2025-07-30T07:17:06.000Z</time>
</trkpt>
<trkpt lat="46.0488170" lon="10.3197950">
	<ele>1451.20</ele>
	<time>2025-07-30T07:17:07.000Z</time>
</trkpt>
<trkpt lat="46.0488170" lon="10.3197950">
	<ele>1451.20</ele>
	<time>2025-07-30T07:17:08.000Z</time>
</trkpt>
<trkpt lat="46.0488170" lon="10.3197940">
	<ele>1451.20</ele>
	<time>2025-07-30T07:17:09.000Z</time>
</trkpt>
<trkpt lat="46.0488160" lon="10.3197940">
	<ele>1451.20</ele>
	<time>2025-07-30T07:17:10.000Z</time>
</trkpt>
<trkpt lat="46.0488160" lon="10.3197940">
	<ele>1451.20</ele>
	<time>2025-07-30T07:17:11.000Z</time>
</trkpt>
<trkpt lat="46.0488160" lon="10.3197940">
	<ele>1451.20</ele>
	<time>2025-07-30T07:17:12.000Z</time>
</trkpt>
<trkpt lat="46.0488160" lon="10.3197940">
	<ele>1451.20</ele>
	<time>2025-07-30T07:17:13.000Z</time>
</trkpt>
<trkpt lat="46.0488160" lon="10.3197940">
	<ele>1451.20</ele>
	<time>2025-07-30T07:17:14.000Z</time>
</trkpt>
<trkpt lat="46.0488160" lon="10.3197940">
	<ele>1451.20</ele>
	<time>2025-07-30T07:17:15.000Z</time>
</trkpt>
<trkpt lat="46.0488160" lon="10.3197940">
	<ele>1451.20</ele>
	<time>2025-07-30T07:17:16.000Z</time>
</trkpt>
<trkpt lat="46.0488160" lon="10.3197940">
	<ele>1451.20</ele>
	<time>2025-07-30T07:17:17.000Z</time>
</trkpt>
<trkpt lat="46.0488160" lon="10.3197940">
	<ele>1451.20</ele>
	<time>2025-07-30T07:17:18.000Z</time>
</trkpt>
<trkpt lat="46.0488160" lon="10.3197940">
	<ele>1451.20</ele>
	<time>2025-07-30T07:17:19.000Z</time>
</trkpt>
<trkpt lat="46.0488160" lon="10.3197940">
	<ele>1451.20</ele>
	<time>2025-07-30T07:17:20.000Z</time>
</trkpt>
<trkpt lat="46.0488160" lon="10.3197940">
	<ele>1451.20</ele>
	<time>2025-07-30T07:17:21.000Z</time>
</trkpt>
<trkpt lat="46.0488160" lon="10.3197940">
	<ele>1451.20</ele>
	<time>2025-07-30T07:17:22.000Z</time>
</trkpt>
<trkpt lat="46.0488160" lon="10.3197940">
	<ele>1451.20</ele>
	<time>2025-07-30T07:17:23.000Z</time>
</trkpt>
<trkpt lat="46.0488170" lon="10.3197940">
	<ele>1451.20</ele>
	<time>2025-07-30T07:17:24.000Z</time>
</trkpt>
<trkpt lat="46.0488170" lon="10.3197950">
	<ele>1451.20</ele>
	<time>2025-07-30T07:17:25.000Z</time>
</trkpt>
<trkpt lat="46.0488170" lon="10.3197950">
	<ele>1451.20</ele>
	<time>2025-07-30T07:17:26.000Z</time>
</trkpt>
<trkpt lat="46.0488170" lon="10.3197950">
	<ele>1451.20</ele>
	<time>2025-07-30T07:17:27.000Z</time>
</trkpt>
<trkpt lat="46.0488170" lon="10.3197950">
	<ele>1451.20</ele>
	<time>2025-07-30T07:17:28.000Z</time>
</trkpt>
<trkpt lat="46.0488170" lon="10.3197950">
	<ele>1451.20</ele>
	<time>2025-07-30T07:17:29.000Z</time>
</trkpt>
<trkpt lat="46.0488170" lon="10.3197950">
	<ele>1451.20</ele>
	<time>2025-07-30T07:17:30.000Z</time>
</trkpt>
<trkpt lat="46.0488170" lon="10.3197950">
	<ele>1451.20</ele>
	<time>2025-07-30T07:17:31.000Z</time>
</trkpt>
<trkpt lat="46.0488170" lon="10.3197950">
	<ele>1451.20</ele>
	<time>2025-07-30T07:17:32.000Z</time>
</trkpt>
<trkpt lat="46.0488170" lon="10.3197950">
	<ele>1451.20</ele>
	<time>2025-07-30T07:17:33.000Z</time>
</trkpt>
<trkpt lat="46.0488170" lon="10.3197950">
	<ele>1451.20</ele>
	<time>2025-07-30T07:17:34.000Z</time>
</trkpt>
<trkpt lat="46.0488170" lon="10.3197950">
	<ele>1451.20</ele>
	<time>2025-07-30T07:17:35.000Z</time>
</trkpt>
<trkpt lat="46.0488170" lon="10.3197950">
	<ele>1451.20</ele>
	<time>2025-07-30T07:17:36.000Z</time>
</trkpt>
<trkpt lat="46.0488180" lon="10.3197950">
	<ele>1451.20</ele>
	<time>2025-07-30T07:17:37.000Z</time>
</trkpt>
<trkpt lat="46.0488180" lon="10.3197950">
	<ele>1451.20</ele>
	<time>2025-07-30T07:17:38.000Z</time>
</trkpt>
<trkpt lat="46.0488180" lon="10.3197950">
	<ele>1451.20</ele>
	<time>2025-07-30T07:17:39.000Z</time>
</trkpt>
<trkpt lat="46.0488180" lon="10.3197940">
	<ele>1451.20</ele>
	<time>2025-07-30T07:17:40.000Z</time>
</trkpt>
<trkpt lat="46.0488170" lon="10.3197940">
	<ele>1451.20</ele>
	<time>2025-07-30T07:17:41.000Z</time>
</trkpt>
<trkpt lat="46.0488170" lon="10.3197940">
	<ele>1451.20</ele>
	<time>2025-07-30T07:17:42.000Z</time>
</trkpt>
<trkpt lat="46.0488170" lon="10.3197940">
	<ele>1451.20</ele>
	<time>2025-07-30T07:17:43.000Z</time>
</trkpt>
<trkpt lat="46.0488170" lon="10.3197940">
	<ele>1451.20</ele>
	<time>2025-07-30T07:17:44.000Z</time>
</trkpt>
<trkpt lat="46.0488170" lon="10.3197940">
	<ele>1451.20</ele>
	<time>2025-07-30T07:17:45.000Z</time>
</trkpt>
<trkpt lat="46.0488170" lon="10.3197940">
	<ele>1451.20</ele>
	<time>2025-07-30T07:17:46.000Z</time>
</trkpt>
<trkpt lat="46.0488170" lon="10.3197940">
	<ele>1451.20</ele>
	<time>2025-07-30T07:17:47.000Z</time>
</trkpt>
<trkpt lat="46.0488170" lon="10.3197940">
	<ele>1451.20</ele>
	<time>2025-07-30T07:17:48.000Z</time>
</trkpt>
<trkpt lat="46.0488170" lon="10.3197940">
	<ele>1451.20</ele>
	<time>2025-07-30T07:17:49.000Z</time>
</trkpt>
<trkpt lat="46.0488170" lon="10.3197940">
	<ele>1451.20</ele>
	<time>2025-07-30T07:17:50.000Z</time>
</trkpt>
<trkpt lat="46.0488170" lon="10.3197940">
	<ele>1451.20</ele>
	<time>2025-07-30T07:17:51.000Z</time>
</trkpt>
<trkpt lat="46.0488170" lon="10.3197940">
	<ele>1451.20</ele>
	<time>2025-07-30T07:17:52.000Z</time>
</trkpt>
<trkpt lat="46.0488170" lon="10.3197940">
	<ele>1451.20</ele>
	<time>2025-07-30T07:17:53.000Z</time>
</trkpt>
<trkpt lat="46.0488170" lon="10.3197940">
	<ele>1451.20</ele>
	<time>2025-07-30T07:17:54.000Z</time>
</trkpt>
<trkpt lat="46.0488170" lon="10.3197940">
	<ele>1451.20</ele>
	<time>2025-07-30T07:17:55.000Z</time>
</trkpt>
<trkpt lat="46.0488170" lon="10.3197940">
	<ele>1451.20</ele>
	<time>2025-07-30T07:17:56.000Z</time>
</trkpt>
<trkpt lat="46.0488170" lon="10.3197940">
	<ele>1451.20</ele>
	<time>2025-07-30T07:17:57.000Z</time>
</trkpt>
<trkpt lat="46.0488170" lon="10.3197940">
	<ele>1451.20</ele>
	<time>2025-07-30T07:17:58.000Z</time>
</trkpt>
<trkpt lat="46.0488170" lon="10.3197940">
	<ele>1451.20</ele>
	<time>2025-07-30T07:17:59.000Z</time>
</trkpt>
<trkpt lat="46.0488180" lon="10.3197940">
	<ele>1451.20</ele>
	<time>2025-07-30T07:18:00.000Z</time>
</trkpt>
<trkpt lat="46.0488180" lon="10.3197940">
	<ele>1451.20</ele>
	<time>2025-07-30T07:18:01.000Z</time>
</trkpt>
<trkpt lat="46.0488180" lon="10.3197940">
	<ele>1451.20</ele>
	<time>2025-07-30T07:18:02.000Z</time>
</trkpt>
<trkpt lat="46.0488180" lon="10.3197940">
	<ele>1451.20</ele>
	<time>2025-07-30T07:18:03.000Z</time>
</trkpt>
<trkpt lat="46.0488180" lon="10.3197940">
	<ele>1451.20</ele>
	<time>2025-07-30T07:18:04.000Z</time>
</trkpt>
<trkpt lat="46.0488180" lon="10.3197940">
	<ele>1451.20</ele>
	<time>2025-07-30T07:18:05.000Z</time>
</trkpt>
<trkpt lat="46.0488180" lon="10.3197940">
	<ele>1451.20</ele>
	<time>2025-07-30T07:18:06.000Z</time>
</trkpt>
<trkpt lat="46.0488180" lon="10.3197940">
	<ele>1451.20</ele>
	<time>2025-07-30T07:18:07.000Z</time>
</trkpt>
<trkpt lat="46.0488180" lon="10.3197940">
	<ele>1451.20</ele>
	<time>2025-07-30T07:18:08.000Z</time>
</trkpt>
<trkpt lat="46.0488180" lon="10.3197940">
	<ele>1451.20</ele>
	<time>2025-07-30T07:18:09.000Z</time>
</trkpt>
<trkpt lat="46.0488180" lon="10.3197940">
	<ele>1451.20</ele>
	<time>2025-07-30T07:18:10.000Z</time>
</trkpt>
<trkpt lat="46.0488180" lon="10.3197940">
	<ele>1451.20</ele>
	<time>2025-07-30T07:18:11.000Z</time>
</trkpt>
<trkpt lat="46.0488180" lon="10.3197940">
	<ele>1451.20</ele>
	<time>2025-07-30T07:18:12.000Z</time>
</trkpt>
<trkpt lat="46.0488180" lon="10.3197940">
	<ele>1451.20</ele>
	<time>2025-07-30T07:18:13.000Z</time>
</trkpt>
<trkpt lat="46.0488180" lon="10.3197940">
	<ele>1451.20</ele>
	<time>2025-07-30T07:18:14.000Z</time>
</trkpt>
<trkpt lat="46.0488180" lon="10.3197940">
	<ele>1451.20</ele>
	<time>2025-07-30T07:18:15.000Z</time>
</trkpt>
<trkpt lat="46.0488180" lon="10.3197940">
	<ele>1451.20</ele>
	<time>2025-07-30T07:18:16.000Z</time>
</trkpt>
<trkpt lat="46.0488180" lon="10.3197940">
	<ele>1451.20</ele>
	<time>2025-07-30T07:18:17.000Z</time>
</trkpt>
<trkpt lat="46.0488180" lon="10.3197940">
	<ele>1451.20</ele>
	<time>2025-07-30T07:18:18.000Z</time>
</trkpt>
<trkpt lat="46.0488180" lon="10.3197940">
	<ele>1451.20</ele>
	<time>2025-07-30T07:18:19.000Z</time>
</trkpt>
<trkpt lat="46.0488180" lon="10.3197940">
	<ele>1451.20</ele>
	<time>2025-07-30T07:18:20.000Z</time>
</trkpt>
<trkpt lat="46.0488180" lon="10.3197940">
	<ele>1451.20</ele>
	<time>2025-07-30T07:18:21.000Z</time>
</trkpt>
<trkpt lat="46.0488180" lon="10.3197940">
	<ele>1451.20</ele>
	<time>2025-07-30T07:18:22.000Z</time>
</trkpt>
<trkpt lat="46.0488180" lon="10.3197940">
	<ele>1451.20</ele>
	<time>2025-07-30T07:18:23.000Z</time>
</trkpt>
<trkpt lat="46.0488180" lon="10.3197930">
	<ele>1451.20</ele>
	<time>2025-07-30T07:18:24.000Z</time>
</trkpt>
<trkpt lat="46.0488180" lon="10.3197940">
	<ele>1451.20</ele>
	<time>2025-07-30T07:18:25.000Z</time>
</trkpt>
<trkpt lat="46.0488180" lon="10.3197940">
	<ele>1451.20</ele>
	<time>2025-07-30T07:18:26.000Z</time>
</trkpt>
<trkpt lat="46.0488180" lon="10.3197940">
	<ele>1451.20</ele>
	<time>2025-07-30T07:18:27.000Z</time>
</trkpt>
<trkpt lat="46.0488180" lon="10.3197940">
	<ele>1451.20</ele>
	<time>2025-07-30T07:18:28.000Z</time>
</trkpt>
<trkpt lat="46.0488180" lon="10.3197940">
	<ele>1451.20</ele>
	<time>2025-07-30T07:18:29.000Z</time>
</trkpt>
<trkpt lat="46.0488180" lon="10.3197940">
	<ele>1451.20</ele>
	<time>2025-07-30T07:18:30.000Z</time>
</trkpt>
<trkpt lat="46.0488180" lon="10.3197940">
	<ele>1451.20</ele>
	<time>2025-07-30T07:18:31.000Z</time>
</trkpt>
<trkpt lat="46.0488180" lon="10.3197940">
	<ele>1451.20</ele>
	<time>2025-07-30T07:18:32.000Z</time>
</trkpt>
<trkpt lat="46.0488180" lon="10.3197940">
	<ele>1451.20</ele>
	<time>2025-07-30T07:18:33.000Z</time>
</trkpt>
<trkpt lat="46.0488180" lon="10.3197940">
	<ele>1451.20</ele>
	<time>2025-07-30T07:18:34.000Z</time>
</trkpt>
<trkpt lat="46.0488180" lon="10.3197940">
	<ele>1451.20</ele>
	<time>2025-07-30T07:18:35.000Z</time>
</trkpt>
<trkpt lat="46.0488180" lon="10.3197940">
	<ele>1451.20</ele>
	<time>2025-07-30T07:18:36.000Z</time>
</trkpt>
<trkpt lat="46.0488180" lon="10.3197940">
	<ele>1451.20</ele>
	<time>2025-07-30T07:18:37.000Z</time>
</trkpt>
<trkpt lat="46.0488180" lon="10.3197940">
	<ele>1451.20</ele>
	<time>2025-07-30T07:18:38.000Z</time>
</trkpt>
<trkpt lat="46.0488180" lon="10.3197940">
	<ele>1451.20</ele>
	<time>2025-07-30T07:18:39.000Z</time>
</trkpt>
<trkpt lat="46.0488180" lon="10.3197940">
	<ele>1451.20</ele>
	<time>2025-07-30T07:18:40.000Z</time>
</trkpt>
<trkpt lat="46.0488180" lon="10.3197940">
	<ele>1451.20</ele>
	<time>2025-07-30T07:18:41.000Z</time>
</trkpt>
<trkpt lat="46.0488150" lon="10.3198010">
	<ele>1451.20</ele>
	<time>2025-07-30T07:18:42.000Z</time>
</trkpt>
<trkpt lat="46.0488120" lon="10.3197910">
	<ele>1451.20</ele>
	<time>2025-07-30T07:18:43.000Z</time>
</trkpt>
<trkpt lat="46.0488080" lon="10.3197840">
	<ele>1451.20</ele>
	<time>2025-07-30T07:18:44.000Z</time>
</trkpt>
<trkpt lat="46.0488020" lon="10.3197780">
	<ele>1451.20</ele>
	<time>2025-07-30T07:18:45.000Z</time>
</trkpt>
<trkpt lat="46.0487960" lon="10.3197800">
	<ele>1451.20</ele>
	<time>2025-07-30T07:18:46.000Z</time>
</trkpt>
<trkpt lat="46.0487920" lon="10.3197890">
	<ele>1451.20</ele>
	<time>2025-07-30T07:18:47.000Z</time>
</trkpt>
<trkpt lat="46.0487880" lon="10.3197990">
	<ele>1451.20</ele>
	<time>2025-07-30T07:18:48.000Z</time>
</trkpt>
<trkpt lat="46.0487820" lon="10.3198070">
	<ele>1451.20</ele>
	<time>2025-07-30T07:18:49.000Z</time>
</trkpt>
<trkpt lat="46.0487770" lon="10.3198090">
	<ele>1451.20</ele>
	<time>2025-07-30T07:18:50.000Z</time>
</trkpt>
<trkpt lat="46.0487730" lon="10.3198090">
	<ele>1451.20</ele>
	<time>2025-07-30T07:18:51.000Z</time>
</trkpt>
<trkpt lat="46.0487710" lon="10.3198080">
	<ele>1451.20</ele>
	<time>2025-07-30T07:18:52.000Z</time>
</trkpt>
<trkpt lat="46.0487690" lon="10.3198080">
	<ele>1451.20</ele>
	<time>2025-07-30T07:18:53.000Z</time>
</trkpt>
<trkpt lat="46.0487710" lon="10.3198080">
	<ele>1451.20</ele>
	<time>2025-07-30T07:18:54.000Z</time>
</trkpt>
<trkpt lat="46.0487710" lon="10.3198060">
	<ele>1451.20</ele>
	<time>2025-07-30T07:18:55.000Z</time>
</trkpt>
<trkpt lat="46.0487650" lon="10.3197940">
	<ele>1451.20</ele>
	<time>2025-07-30T07:18:56.000Z</time>
</trkpt>
<trkpt lat="46.0487680" lon="10.3197910">
	<ele>1451.20</ele>
	<time>2025-07-30T07:18:57.000Z</time>
</trkpt>
<trkpt lat="46.0487660" lon="10.3197940">
	<ele>1451.20</ele>
	<time>2025-07-30T07:18:58.000Z</time>
</trkpt>
<trkpt lat="46.0487700" lon="10.3197980">
	<ele>1451.20</ele>
	<time>2025-07-30T07:18:59.000Z</time>
</trkpt>
<trkpt lat="46.0487760" lon="10.3198060">
	<ele>1451.20</ele>
	<time>2025-07-30T07:19:00.000Z</time>
</trkpt>
<trkpt lat="46.0487820" lon="10.3198220">
	<ele>1451.20</ele>
	<time>2025-07-30T07:19:01.000Z</time>
</trkpt>
<trkpt lat="46.0487940" lon="10.3198310">
	<ele>1451.20</ele>
	<time>2025-07-30T07:19:02.000Z</time>
</trkpt>
<trkpt lat="46.0488080" lon="10.3198330">
	<ele>1451.20</ele>
	<time>2025-07-30T07:19:03.000Z</time>
</trkpt>
<trkpt lat="46.0488150" lon="10.3198410">
	<ele>1451.20</ele>
	<time>2025-07-30T07:19:04.000Z</time>
</trkpt>
<trkpt lat="46.0488230" lon="10.3198530">
	<ele>1451.20</ele>
	<time>2025-07-30T07:19:05.000Z</time>
</trkpt>
<trkpt lat="46.0488290" lon="10.3198590">
	<ele>1451.20</ele>
	<time>2025-07-30T07:19:06.000Z</time>
</trkpt>
<trkpt lat="46.0488370" lon="10.3198620">
	<ele>1451.20</ele>
	<time>2025-07-30T07:19:07.000Z</time>
</trkpt>
<trkpt lat="46.0488440" lon="10.3198700">
	<ele>1451.20</ele>
	<time>2025-07-30T07:19:08.000Z</time>
</trkpt>
<trkpt lat="46.0488500" lon="10.3198750">
	<ele>1451.20</ele>
	<time>2025-07-30T07:19:09.000Z</time>
</trkpt>
<trkpt lat="46.0488510" lon="10.3198810">
	<ele>1451.20</ele>
	<time>2025-07-30T07:19:10.000Z</time>
</trkpt>
<trkpt lat="46.0488530" lon="10.3198860">
	<ele>1451.20</ele>
	<time>2025-07-30T07:19:11.000Z</time>
</trkpt>
<trkpt lat="46.0488560" lon="10.3198950">
	<ele>1451.20</ele>
	<time>2025-07-30T07:19:12.000Z</time>
</trkpt>
<trkpt lat="46.0488680" lon="10.3199080">
	<ele>1451.20</ele>
	<time>2025-07-30T07:19:13.000Z</time>
</trkpt>
<trkpt lat="46.0488710" lon="10.3199080">
	<ele>1451.20</ele>
	<time>2025-07-30T07:19:14.000Z</time>
</trkpt>
<trkpt lat="46.0488680" lon="10.3199270">
	<ele>1451.20</ele>
	<time>2025-07-30T07:19:15.000Z</time>
</trkpt>
<trkpt lat="46.0488710" lon="10.3199330">
	<ele>1451.20</ele>
	<time>2025-07-30T07:19:16.000Z</time>
</trkpt>
<trkpt lat="46.0488710" lon="10.3199310">
	<ele>1451.20</ele>
	<time>2025-07-30T07:19:17.000Z</time>
</trkpt>
<trkpt lat="46.0488670" lon="10.3199340">
	<ele>1451.20</ele>
	<time>2025-07-30T07:19:18.000Z</time>
</trkpt>
<trkpt lat="46.0488650" lon="10.3199340">
	<ele>1451.20</ele>
	<time>2025-07-30T07:19:19.000Z</time>
</trkpt>
<trkpt lat="46.0488620" lon="10.3199320">
	<ele>1451.20</ele>
	<time>2025-07-30T07:19:20.000Z</time>
</trkpt>
<trkpt lat="46.0488590" lon="10.3199290">
	<ele>1451.20</ele>
	<time>2025-07-30T07:19:21.000Z</time>
</trkpt>
<trkpt lat="46.0488550" lon="10.3199250">
	<ele>1451.20</ele>
	<time>2025-07-30T07:19:22.000Z</time>
</trkpt>
<trkpt lat="46.0488380" lon="10.3198770">
	<ele>1451.20</ele>
	<time>2025-07-30T07:19:23.000Z</time>
</trkpt>
<trkpt lat="46.0488190" lon="10.3198420">
	<ele>1451.20</ele>
	<time>2025-07-30T07:19:24.000Z</time>
</trkpt>
<trkpt lat="46.0488840" lon="10.3200620">
	<ele>1451.20</ele>
	<time>2025-07-30T07:24:37.000Z</time>
</trkpt>
<trkpt lat="46.0489550" lon="10.3202680">
	<ele>1451.20</ele>
	<time>2025-07-30T07:24:38.000Z</time>
</trkpt>
<trkpt lat="46.0494170" lon="10.3206150">
	<ele>1451.20</ele>
	<time>2025-07-30T07:25:08.000Z</time>
</trkpt>
<trkpt lat="46.0489250" lon="10.3197370">
	<ele>1451.20</ele>
	<time>2025-07-30T07:25:09.000Z</time>
</trkpt>
<trkpt lat="46.0470020" lon="10.3129680">
	<ele>1451.20</ele>
	<time>2025-07-30T07:25:18.000Z</time>
</trkpt>
<trkpt lat="46.0472950" lon="10.3144830">
	<ele>1451.20</ele>
	<time>2025-07-30T07:25:20.000Z</time>
</trkpt>
<trkpt lat="46.0476300" lon="10.3157370">
	<ele>1451.20</ele>
	<time>2025-07-30T07:25:21.000Z</time>
</trkpt>
<trkpt lat="46.0480670" lon="10.3171060">
	<ele>1451.20</ele>
	<time>2025-07-30T07:25:23.000Z</time>
</trkpt>
<trkpt lat="46.0480970" lon="10.3172050">
	<ele>1451.20</ele>
	<time>2025-07-30T07:25:24.000Z</time>
</trkpt>
<trkpt lat="46.0481370" lon="10.3173140">
	<ele>1451.20</ele>
	<time>2025-07-30T07:25:25.000Z</time>
</trkpt>
<trkpt lat="46.0482310" lon="10.3177780">
	<ele>1451.20</ele>
	<time>2025-07-30T07:25:26.000Z</time>
</trkpt>
<trkpt lat="46.0483750" lon="10.3180390">
	<ele>1451.20</ele>
	<time>2025-07-30T07:25:27.000Z</time>
</trkpt>
<trkpt lat="46.0484530" lon="10.3182380">
	<ele>1451.20</ele>
	<time>2025-07-30T07:25:28.000Z</time>
</trkpt>
<trkpt lat="46.0484700" lon="10.3183830">
	<ele>1451.20</ele>
	<time>2025-07-30T07:25:30.000Z</time>
</trkpt>
<trkpt lat="46.0485050" lon="10.3188060">
	<ele>1451.60</ele>
	<time>2025-07-30T07:25:32.000Z</time>
</trkpt>
<trkpt lat="46.0485810" lon="10.3190470">
	<ele>1451.80</ele>
	<time>2025-07-30T07:25:33.000Z</time>
</trkpt>
<trkpt lat="46.0486350" lon="10.3192420">
	<ele>1451.80</ele>
	<time>2025-07-30T07:25:34.000Z</time>
</trkpt>
<trkpt lat="46.0486840" lon="10.3193710">
	<ele>1451.80</ele>
	<time>2025-07-30T07:25:35.000Z</time>
</trkpt>
<trkpt lat="46.0487270" lon="10.3194710">
	<ele>1451.80</ele>
	<time>2025-07-30T07:25:36.000Z</time>
</trkpt>
<trkpt lat="46.0487370" lon="10.3195270">
	<ele>1451.80</ele>
	<time>2025-07-30T07:25:37.000Z</time>
</trkpt>
<trkpt lat="46.0487550" lon="10.3195900">
	<ele>1451.80</ele>
	<time>2025-07-30T07:25:38.000Z</time>
</trkpt>
<trkpt lat="46.0487700" lon="10.3196110">
	<ele>1451.80</ele>
	<time>2025-07-30T07:25:39.000Z</time>
</trkpt>
<trkpt lat="46.0487950" lon="10.3196770">
	<ele>1451.80</ele>
	<time>2025-07-30T07:25:40.000Z</time>
</trkpt>
<trkpt lat="46.0488120" lon="10.3197230">
	<ele>1451.80</ele>
	<time>2025-07-30T07:25:41.000Z</time>
</trkpt>
<trkpt lat="46.0488230" lon="10.3197830">
	<ele>1451.80</ele>
	<time>2025-07-30T07:25:42.000Z</time>
</trkpt>
<trkpt lat="46.0488270" lon="10.3198080">
	<ele>1451.80</ele>
	<time>2025-07-30T07:25:43.000Z</time>
</trkpt>
<trkpt lat="46.0488290" lon="10.3198230">
	<ele>1451.80</ele>
	<time>2025-07-30T07:25:44.000Z</time>
</trkpt>
<trkpt lat="46.0488300" lon="10.3198560">
	<ele>1451.80</ele>
	<time>2025-07-30T07:25:46.000Z</time>
</trkpt>
<trkpt lat="46.0488290" lon="10.3198710">
	<ele>1451.80</ele>
	<time>2025-07-30T07:25:47.000Z</time>
</trkpt>
<trkpt lat="46.0487500" lon="10.3200100">
	<ele>1452.00</ele>
	<time>2025-07-30T07:26:05.000Z</time>
</trkpt>
<trkpt lat="46.0486980" lon="10.3199080">
	<ele>1452.00</ele>
	<time>2025-07-30T07:26:06.000Z</time>
</trkpt>
<trkpt lat="46.0486830" lon="10.3198600">
	<ele>1452.00</ele>
	<time>2025-07-30T07:26:07.000Z</time>
</trkpt>
<trkpt lat="46.0487800" lon="10.3199730">
	<ele>1452.00</ele>
	<time>2025-07-30T07:26:08.000Z</time>
</trkpt>
<trkpt lat="46.0487950" lon="10.3200050">
	<ele>1452.00</ele>
	<time>2025-07-30T07:26:09.000Z</time>
</trkpt>
<trkpt lat="46.0487920" lon="10.3199840">
	<ele>1452.00</ele>
	<time>2025-07-30T07:26:10.000Z</time>
</trkpt>
<trkpt lat="46.0487780" lon="10.3199130">
	<ele>1452.00</ele>
	<time>2025-07-30T07:26:11.000Z</time>
</trkpt>
<trkpt lat="46.0487660" lon="10.3198350">
	<ele>1452.00</ele>
	<time>2025-07-30T07:26:12.000Z</time>
</trkpt>
<trkpt lat="46.0488490" lon="10.3200180">
	<ele>1452.00</ele>
	<time>2025-07-30T07:26:13.000Z</time>
</trkpt>
<trkpt lat="46.0488790" lon="10.3202020">
	<ele>1451.80</ele>
	<time>2025-07-30T07:26:16.000Z</time>
</trkpt>
<trkpt lat="46.0489020" lon="10.3201060">
	<ele>1451.80</ele>
	<time>2025-07-30T07:26:17.000Z</time>
</trkpt>
<trkpt lat="46.0489040" lon="10.3200970">
	<ele>1451.80</ele>
	<time>2025-07-30T07:26:18.000Z</time>
</trkpt>
<trkpt lat="46.0489120" lon="10.3200280">
	<ele>1452.00</ele>
	<time>2025-07-30T07:26:19.000Z</time>
</trkpt>
<trkpt lat="46.0489270" lon="10.3198670">
	<ele>1452.00</ele>
	<time>2025-07-30T07:26:20.000Z</time>
</trkpt>
<trkpt lat="46.0489220" lon="10.3198340">
	<ele>1452.00</ele>
	<time>2025-07-30T07:26:21.000Z</time>
</trkpt>
<trkpt lat="46.0489130" lon="10.3198500">
	<ele>1452.00</ele>
	<time>2025-07-30T07:26:22.000Z</time>
</trkpt>
<trkpt lat="46.0489200" lon="10.3198280">
	<ele>1452.00</ele>
	<time>2025-07-30T07:26:23.000Z</time>
</trkpt>
<trkpt lat="46.0489370" lon="10.3198780">
	<ele>1452.20</ele>
	<time>2025-07-30T07:26:26.000Z</time>
</trkpt>
<trkpt lat="46.0489560" lon="10.3200860">
	<ele>1452.20</ele>
	<time>2025-07-30T07:26:30.000Z</time>
</trkpt>
<trkpt lat="46.0489460" lon="10.3200640">
	<ele>1452.20</ele>
	<time>2025-07-30T07:26:31.000Z</time>
</trkpt>
<trkpt lat="46.0489320" lon="10.3200160">
	<ele>1452.20</ele>
	<time>2025-07-30T07:26:32.000Z</time>
</trkpt>
<trkpt lat="46.0488730" lon="10.3200350">
	<ele>1452.20</ele>
	<time>2025-07-30T07:27:55.000Z</time>
</trkpt>
<trkpt lat="46.0488860" lon="10.3202000">
	<ele>1452.20</ele>
	<time>2025-07-30T07:27:56.000Z</time>
</trkpt>
<trkpt lat="46.0488510" lon="10.3200960">
	<ele>1452.20</ele>
	<time>2025-07-30T07:27:57.000Z</time>
</trkpt>
<trkpt lat="46.0488180" lon="10.3199870">
	<ele>1452.20</ele>
	<time>2025-07-30T07:27:58.000Z</time>
</trkpt>
<trkpt lat="46.0488090" lon="10.3199510">
	<ele>1452.20</ele>
	<time>2025-07-30T07:27:59.000Z</time>
</trkpt>
<trkpt lat="46.0488080" lon="10.3199470">
	<ele>1452.20</ele>
	<time>2025-07-30T07:28:00.000Z</time>
</trkpt>
<trkpt lat="46.0488360" lon="10.3199580">
	<ele>1452.20</ele>
	<time>2025-07-30T07:28:01.000Z</time>
</trkpt>
<trkpt lat="46.0488310" lon="10.3199510">
	<ele>1452.20</ele>
	<time>2025-07-30T07:28:02.000Z</time>
</trkpt>
<trkpt lat="46.0488210" lon="10.3199340">
	<ele>1452.20</ele>
	<time>2025-07-30T07:28:03.000Z</time>
</trkpt>
<trkpt lat="46.0487960" lon="10.3199440">
	<ele>1452.40</ele>
	<time>2025-07-30T07:28:04.000Z</time>
</trkpt>
<trkpt lat="46.0487740" lon="10.3199430">
	<ele>1452.60</ele>
	<time>2025-07-30T07:28:05.000Z</time>
</trkpt>
<trkpt lat="46.0487580" lon="10.3199350">
	<ele>1452.80</ele>
	<time>2025-07-30T07:28:06.000Z</time>
</trkpt>
<trkpt lat="46.0487370" lon="10.3199250">
	<ele>1452.80</ele>
	<time>2025-07-30T07:28:07.000Z</time>
</trkpt>
<trkpt lat="46.0487230" lon="10.3199140">
	<ele>1452.80</ele>
	<time>2025-07-30T07:28:08.000Z</time>
</trkpt>
<trkpt lat="46.0487170" lon="10.3199050">
	<ele>1452.80</ele>
	<time>2025-07-30T07:28:09.000Z</time>
</trkpt>
<trkpt lat="46.0487230" lon="10.3198910">
	<ele>1452.80</ele>
	<time>2025-07-30T07:28:10.000Z</time>
</trkpt>
<trkpt lat="46.0487360" lon="10.3198840">
	<ele>1452.80</ele>
	<time>2025-07-30T07:28:11.000Z</time>
</trkpt>
<trkpt lat="46.0487360" lon="10.3198900">
	<ele>1452.80</ele>
	<time>2025-07-30T07:28:12.000Z</time>
</trkpt>
<trkpt lat="46.0487420" lon="10.3198940">
	<ele>1452.80</ele>
	<time>2025-07-30T07:28:13.000Z</time>
</trkpt>
<trkpt lat="46.0487470" lon="10.3199000">
	<ele>1452.80</ele>
	<time>2025-07-30T07:28:14.000Z</time>
</trkpt>
<trkpt lat="46.0487440" lon="10.3199010">
	<ele>1452.80</ele>
	<time>2025-07-30T07:28:15.000Z</time>
</trkpt>
<trkpt lat="46.0487450" lon="10.3198960">
	<ele>1452.80</ele>
	<time>2025-07-30T07:28:16.000Z</time>
</trkpt>
<trkpt lat="46.0487500" lon="10.3198830">
	<ele>1452.80</ele>
	<time>2025-07-30T07:28:17.000Z</time>
</trkpt>
<trkpt lat="46.0487530" lon="10.3198640">
	<ele>1452.80</ele>
	<time>2025-07-30T07:28:18.000Z</time>
</trkpt>
<trkpt lat="46.0487540" lon="10.3198550">
	<ele>1452.80</ele>
	<time>2025-07-30T07:28:19.000Z</time>
</trkpt>
<trkpt lat="46.0487560" lon="10.3198490">
	<ele>1453.00</ele>
	<time>2025-07-30T07:28:20.000Z</time>
</trkpt>
<trkpt lat="46.0487610" lon="10.3198420">
	<ele>1453.00</ele>
	<time>2025-07-30T07:28:21.000Z</time>
</trkpt>
<trkpt lat="46.0487630" lon="10.3198390">
	<ele>1453.00</ele>
	<time>2025-07-30T07:28:22.000Z</time>
</trkpt>
<trkpt lat="46.0487640" lon="10.3198330">
	<ele>1453.00</ele>
	<time>2025-07-30T07:28:23.000Z</time>
</trkpt>
<trkpt lat="46.0487710" lon="10.3198260">
	<ele>1452.80</ele>
	<time>2025-07-30T07:28:24.000Z</time>
</trkpt>
<trkpt lat="46.0487830" lon="10.3198190">
	<ele>1452.80</ele>
	<time>2025-07-30T07:28:25.000Z</time>
</trkpt>
<trkpt lat="46.0487860" lon="10.3198080">
	<ele>1452.80</ele>
	<time>2025-07-30T07:28:26.000Z</time>
</trkpt>
<trkpt lat="46.0487860" lon="10.3197980">
	<ele>1452.80</ele>
	<time>2025-07-30T07:28:27.000Z</time>
</trkpt>
<trkpt lat="46.0487320" lon="10.3197610">
	<ele>1452.80</ele>
	<time>2025-07-30T07:28:28.000Z</time>
</trkpt>
<trkpt lat="46.0487230" lon="10.3197570">
	<ele>1452.80</ele>
	<time>2025-07-30T07:28:29.000Z</time>
</trkpt>
<trkpt lat="46.0486810" lon="10.3197400">
	<ele>1452.80</ele>
	<time>2025-07-30T07:28:30.000Z</time>
</trkpt>
<trkpt lat="46.0486770" lon="10.3197440">
	<ele>1452.80</ele>
	<time>2025-07-30T07:28:31.000Z</time>
</trkpt>
<trkpt lat="46.0486340" lon="10.3197250">
	<ele>1452.80</ele>
	<time>2025-07-30T07:28:32.000Z</time>
</trkpt>
<trkpt lat="46.0486040" lon="10.3197140">
	<ele>1452.80</ele>
	<time>2025-07-30T07:28:33.000Z</time>
</trkpt>
<trkpt lat="46.0485930" lon="10.3197040">
	<ele>1452.80</ele>
	<time>2025-07-30T07:28:34.000Z</time>
</trkpt>
<trkpt lat="46.0485740" lon="10.3197080">
	<ele>1452.80</ele>
	<time>2025-07-30T07:28:35.000Z</time>
</trkpt>
<trkpt lat="46.0485650" lon="10.3197070">
	<ele>1452.80</ele>
	<time>2025-07-30T07:28:36.000Z</time>
</trkpt>
<trkpt lat="46.0485830" lon="10.3197210">
	<ele>1452.80</ele>
	<time>2025-07-30T07:28:37.000Z</time>
</trkpt>
<trkpt lat="46.0485990" lon="10.3197360">
	<ele>1452.80</ele>
	<time>2025-07-30T07:28:38.000Z</time>
</trkpt>
<trkpt lat="46.0485920" lon="10.3197350">
	<ele>1453.00</ele>
	<time>2025-07-30T07:28:39.000Z</time>
</trkpt>
<trkpt lat="46.0486070" lon="10.3197500">
	<ele>1453.00</ele>
	<time>2025-07-30T07:28:40.000Z</time>
</trkpt>
<trkpt lat="46.0486020" lon="10.3197490">
	<ele>1452.80</ele>
	<time>2025-07-30T07:28:41.000Z</time>
</trkpt>
<trkpt lat="46.0486120" lon="10.3197590">
	<ele>1453.00</ele>
	<time>2025-07-30T07:28:42.000Z</time>
</trkpt>
<trkpt lat="46.0486200" lon="10.3197660">
	<ele>1452.80</ele>
	<time>2025-07-30T07:28:43.000Z</time>
</trkpt>
<trkpt lat="46.0486300" lon="10.3197770">
	<ele>1452.80</ele>
	<time>2025-07-30T07:28:44.000Z</time>
</trkpt>
<trkpt lat="46.0486290" lon="10.3197800">
	<ele>1453.00</ele>
	<time>2025-07-30T07:28:45.000Z</time>
</trkpt>
<trkpt lat="46.0486360" lon="10.3197950">
	<ele>1453.00</ele>
	<time>2025-07-30T07:28:46.000Z</time>
</trkpt>
<trkpt lat="46.0486480" lon="10.3197990">
	<ele>1453.00</ele>
	<time>2025-07-30T07:28:47.000Z</time>
</trkpt>
<trkpt lat="46.0486510" lon="10.3198010">
	<ele>1453.00</ele>
	<time>2025-07-30T07:28:48.000Z</time>
</trkpt>
<trkpt lat="46.0486520" lon="10.3198030">
	<ele>1452.80</ele>
	<time>2025-07-30T07:28:49.000Z</time>
</trkpt>
<trkpt lat="46.0486520" lon="10.3198060">
	<ele>1452.80</ele>
	<time>2025-07-30T07:28:50.000Z</time>
</trkpt>
<trkpt lat="46.0486210" lon="10.3197660">
	<ele>1452.80</ele>
	<time>2025-07-30T07:28:51.000Z</time>
</trkpt>
<trkpt lat="46.0485830" lon="10.3197120">
	<ele>1452.80</ele>
	<time>2025-07-30T07:28:52.000Z</time>
</trkpt>
<trkpt lat="46.0485390" lon="10.3196610">
	<ele>1452.80</ele>
	<time>2025-07-30T07:28:53.000Z</time>
</trkpt>
<trkpt lat="46.0484600" lon="10.3195710">
	<ele>1452.80</ele>
	<time>2025-07-30T07:28:54.000Z</time>
</trkpt>
<trkpt lat="46.0485320" lon="10.3196390">
	<ele>1452.80</ele>
	<time>2025-07-30T07:28:55.000Z</time>
</trkpt>
<trkpt lat="46.0485390" lon="10.3196450">
	<ele>1452.80</ele>
	<time>2025-07-30T07:28:56.000Z</time>
</trkpt>
<trkpt lat="46.0485370" lon="10.3196470">
	<ele>1452.80</ele>
	<time>2025-07-30T07:28:57.000Z</time>
</trkpt>
<trkpt lat="46.0485350" lon="10.3196420">
	<ele>1452.80</ele>
	<time>2025-07-30T07:28:58.000Z</time>
</trkpt>
<trkpt lat="46.0485330" lon="10.3196400">
	<ele>1453.00</ele>
	<time>2025-07-30T07:28:59.000Z</time>
</trkpt>
<trkpt lat="46.0485260" lon="10.3196360">
	<ele>1453.00</ele>
	<time>2025-07-30T07:29:00.000Z</time>
</trkpt>
<trkpt lat="46.0485250" lon="10.3196340">
	<ele>1453.00</ele>
	<time>2025-07-30T07:29:01.000Z</time>
</trkpt>
<trkpt lat="46.0485070" lon="10.3196170">
	<ele>1453.00</ele>
	<time>2025-07-30T07:29:02.000Z</time>
</trkpt>
<trkpt lat="46.0484810" lon="10.3195990">
	<ele>1453.00</ele>
	<time>2025-07-30T07:29:03.000Z</time>
</trkpt>
<trkpt lat="46.0484420" lon="10.3195600">
	<ele>1453.00</ele>
	<time>2025-07-30T07:29:04.000Z</time>
</trkpt>
<trkpt lat="46.0484390" lon="10.3195570">
	<ele>1453.00</ele>
	<time>2025-07-30T07:29:05.000Z</time>
</trkpt>
<trkpt lat="46.0484170" lon="10.3195500">
	<ele>1453.00</ele>
	<time>2025-07-30T07:29:06.000Z</time>
</trkpt>
<trkpt lat="46.0484200" lon="10.3195640">
	<ele>1452.80</ele>
	<time>2025-07-30T07:29:07.000Z</time>
</trkpt>
<trkpt lat="46.0484160" lon="10.3195680">
	<ele>1452.80</ele>
	<time>2025-07-30T07:29:08.000Z</time>
</trkpt>
<trkpt lat="46.0483830" lon="10.3195390">
	<ele>1452.80</ele>
	<time>2025-07-30T07:29:09.000Z</time>
</trkpt>
<trkpt lat="46.0483560" lon="10.3195110">
	<ele>1453.00</ele>
	<time>2025-07-30T07:29:10.000Z</time>
</trkpt>
<trkpt lat="46.0483420" lon="10.3195000">
	<ele>1453.00</ele>
	<time>2025-07-30T07:29:11.000Z</time>
</trkpt>
<trkpt lat="46.0483280" lon="10.3194920">
	<ele>1453.00</ele>
	<time>2025-07-30T07:29:12.000Z</time>
</trkpt>
<trkpt lat="46.0483630" lon="10.3195140">
	<ele>1453.00</ele>
	<time>2025-07-30T07:29:13.000Z</time>
</trkpt>
<trkpt lat="46.0483920" lon="10.3195500">
	<ele>1453.00</ele>
	<time>2025-07-30T07:29:14.000Z</time>
</trkpt>
<trkpt lat="46.0483850" lon="10.3195520">
	<ele>1453.00</ele>
	<time>2025-07-30T07:29:15.000Z</time>
</trkpt>
<trkpt lat="46.0483830" lon="10.3195550">
	<ele>1453.00</ele>
	<time>2025-07-30T07:29:16.000Z</time>
</trkpt>
<trkpt lat="46.0483810" lon="10.3195550">
	<ele>1453.00</ele>
	<time>2025-07-30T07:29:17.000Z</time>
</trkpt>
<trkpt lat="46.0483820" lon="10.3195580">
	<ele>1453.00</ele>
	<time>2025-07-30T07:29:18.000Z</time>
</trkpt>
<trkpt lat="46.0483820" lon="10.3195580">
	<ele>1453.00</ele>
	<time>2025-07-30T07:29:19.000Z</time>
</trkpt>
<trkpt lat="46.0483880" lon="10.3195600">
	<ele>1453.00</ele>
	<time>2025-07-30T07:29:20.000Z</time>
</trkpt>
<trkpt lat="46.0483950" lon="10.3195690">
	<ele>1453.00</ele>
	<time>2025-07-30T07:29:21.000Z</time>
</trkpt>
<trkpt lat="46.0483980" lon="10.3195760">
	<ele>1453.00</ele>
	<time>2025-07-30T07:29:22.000Z</time>
</trkpt>
<trkpt lat="46.0484020" lon="10.3195860">
	<ele>1453.00</ele>
	<time>2025-07-30T07:29:23.000Z</time>
</trkpt>
<trkpt lat="46.0483930" lon="10.3195920">
	<ele>1453.00</ele>
	<time>2025-07-30T07:29:24.000Z</time>
</trkpt>
<trkpt lat="46.0483900" lon="10.3195970">
	<ele>1452.60</ele>
	<time>2025-07-30T07:29:25.000Z</time>
</trkpt>
<trkpt lat="46.0483890" lon="10.3196000">
	<ele>1452.60</ele>
	<time>2025-07-30T07:29:26.000Z</time>
</trkpt>
<trkpt lat="46.0483870" lon="10.3195980">
	<ele>1452.60</ele>
	<time>2025-07-30T07:29:27.000Z</time>
</trkpt>
<trkpt lat="46.0483870" lon="10.3196000">
	<ele>1452.60</ele>
	<time>2025-07-30T07:29:28.000Z</time>
</trkpt>
<trkpt lat="46.0483860" lon="10.3196020">
	<ele>1452.60</ele>
	<time>2025-07-30T07:29:29.000Z</time>
</trkpt>
<trkpt lat="46.0483850" lon="10.3196020">
	<ele>1452.60</ele>
	<time>2025-07-30T07:29:30.000Z</time>
</trkpt>
<trkpt lat="46.0483900" lon="10.3196110">
	<ele>1452.60</ele>
	<time>2025-07-30T07:29:31.000Z</time>
</trkpt>
<trkpt lat="46.0483960" lon="10.3196180">
	<ele>1452.60</ele>
	<time>2025-07-30T07:29:32.000Z</time>
</trkpt>
<trkpt lat="46.0483970" lon="10.3196210">
	<ele>1452.60</ele>
	<time>2025-07-30T07:29:33.000Z</time>
</trkpt>
<trkpt lat="46.0483960" lon="10.3196240">
	<ele>1452.60</ele>
	<time>2025-07-30T07:29:34.000Z</time>
</trkpt>
<trkpt lat="46.0484030" lon="10.3196330">
	<ele>1452.60</ele>
	<time>2025-07-30T07:29:35.000Z</time>
</trkpt>
<trkpt lat="46.0484100" lon="10.3196420">
	<ele>1452.60</ele>
	<time>2025-07-30T07:29:36.000Z</time>
</trkpt>
<trkpt lat="46.0484110" lon="10.3196460">
	<ele>1452.60</ele>
	<time>2025-07-30T07:29:37.000Z</time>
</trkpt>
<trkpt lat="46.0484120" lon="10.3196500">
	<ele>1452.60</ele>
	<time>2025-07-30T07:29:38.000Z</time>
</trkpt>
<trkpt lat="46.0484120" lon="10.3196520">
	<ele>1452.60</ele>
	<time>2025-07-30T07:29:39.000Z</time>
</trkpt>
<trkpt lat="46.0484100" lon="10.3196530">
	<ele>1452.60</ele>
	<time>2025-07-30T07:29:40.000Z</time>
</trkpt>
<trkpt lat="46.0484080" lon="10.3196550">
	<ele>1452.60</ele>
	<time>2025-07-30T07:29:41.000Z</time>
</trkpt>
<trkpt lat="46.0484080" lon="10.3196570">
	<ele>1452.60</ele>
	<time>2025-07-30T07:29:42.000Z</time>
</trkpt>
<trkpt lat="46.0484100" lon="10.3196610">
	<ele>1452.60</ele>
	<time>2025-07-30T07:29:43.000Z</time>
</trkpt>
<trkpt lat="46.0484100" lon="10.3196610">
	<ele>1452.60</ele>
	<time>2025-07-30T07:29:44.000Z</time>
</trkpt>
<trkpt lat="46.0484110" lon="10.3196610">
	<ele>1452.60</ele>
	<time>2025-07-30T07:29:45.000Z</time>
</trkpt>
<trkpt lat="46.0484120" lon="10.3196620">
	<ele>1452.60</ele>
	<time>2025-07-30T07:29:46.000Z</time>
</trkpt>
<trkpt lat="46.0484100" lon="10.3196640">
	<ele>1452.60</ele>
	<time>2025-07-30T07:29:47.000Z</time>
</trkpt>
<trkpt lat="46.0484080" lon="10.3196650">
	<ele>1452.60</ele>
	<time>2025-07-30T07:29:48.000Z</time>
</trkpt>
<trkpt lat="46.0484070" lon="10.3196650">
	<ele>1452.60</ele>
	<time>2025-07-30T07:29:49.000Z</time>
</trkpt>
<trkpt lat="46.0484070" lon="10.3196670">
	<ele>1452.60</ele>
	<time>2025-07-30T07:29:50.000Z</time>
</trkpt>
<trkpt lat="46.0484050" lon="10.3196680">
	<ele>1452.60</ele>
	<time>2025-07-30T07:29:51.000Z</time>
</trkpt>
<trkpt lat="46.0484050" lon="10.3196670">
	<ele>1452.60</ele>
	<time>2025-07-30T07:29:52.000Z</time>
</trkpt>
<trkpt lat="46.0484150" lon="10.3196790">
	<ele>1452.60</ele>
	<time>2025-07-30T07:29:53.000Z</time>
</trkpt>
<trkpt lat="46.0484140" lon="10.3196760">
	<ele>1452.60</ele>
	<time>2025-07-30T07:29:54.000Z</time>
</trkpt>
<trkpt lat="46.0484280" lon="10.3196830">
	<ele>1452.60</ele>
	<time>2025-07-30T07:29:55.000Z</time>
</trkpt>
<trkpt lat="46.0484270" lon="10.3196840">
	<ele>1452.60</ele>
	<time>2025-07-30T07:29:56.000Z</time>
</trkpt>
<trkpt lat="46.0484290" lon="10.3196860">
	<ele>1452.60</ele>
	<time>2025-07-30T07:29:57.000Z</time>
</trkpt>
<trkpt lat="46.0484280" lon="10.3196860">
	<ele>1452.60</ele>
	<time>2025-07-30T07:29:58.000Z</time>
</trkpt>
<trkpt lat="46.0484300" lon="10.3196870">
	<ele>1452.60</ele>
	<time>2025-07-30T07:29:59.000Z</time>
</trkpt>
<trkpt lat="46.0484300" lon="10.3196870">
	<ele>1452.60</ele>
	<time>2025-07-30T07:30:00.000Z</time>
</trkpt>
<trkpt lat="46.0484300" lon="10.3196870">
	<ele>1452.60</ele>
	<time>2025-07-30T07:30:01.000Z</time>
</trkpt>
<trkpt lat="46.0484300" lon="10.3196870">
	<ele>1452.60</ele>
	<time>2025-07-30T07:30:02.000Z</time>
</trkpt>
<trkpt lat="46.0484300" lon="10.3196870">
	<ele>1452.60</ele>
	<time>2025-07-30T07:30:03.000Z</time>
</trkpt>
<trkpt lat="46.0484300" lon="10.3196870">
	<ele>1452.60</ele>
	<time>2025-07-30T07:30:04.000Z</time>
</trkpt>
<trkpt lat="46.0484300" lon="10.3196870">
	<ele>1452.60</ele>
	<time>2025-07-30T07:30:05.000Z</time>
</trkpt>
<trkpt lat="46.0484300" lon="10.3196870">
	<ele>1452.60</ele>
	<time>2025-07-30T07:30:06.000Z</time>
</trkpt>
<trkpt lat="46.0484300" lon="10.3196870">
	<ele>1452.60</ele>
	<time>2025-07-30T07:30:07.000Z</time>
</trkpt>
<trkpt lat="46.0484300" lon="10.3196870">
	<ele>1452.60</ele>
	<time>2025-07-30T07:30:08.000Z</time>
</trkpt>
<trkpt lat="46.0484300" lon="10.3196870">
	<ele>1452.60</ele>
	<time>2025-07-30T07:30:09.000Z</time>
</trkpt>
<trkpt lat="46.0484300" lon="10.3196870">
	<ele>1452.60</ele>
	<time>2025-07-30T07:30:10.000Z</time>
</trkpt>
<trkpt lat="46.0484300" lon="10.3196870">
	<ele>1452.60</ele>
	<time>2025-07-30T07:30:11.000Z</time>
</trkpt>
<trkpt lat="46.0484300" lon="10.3196870">
	<ele>1452.60</ele>
	<time>2025-07-30T07:30:12.000Z</time>
</trkpt>
<trkpt lat="46.0484300" lon="10.3196870">
	<ele>1452.60</ele>
	<time>2025-07-30T07:30:13.000Z</time>
</trkpt>
<trkpt lat="46.0484340" lon="10.3196890">
	<ele>1452.60</ele>
	<time>2025-07-30T07:30:14.000Z</time>
</trkpt>
<trkpt lat="46.0484360" lon="10.3196930">
	<ele>1452.60</ele>
	<time>2025-07-30T07:30:15.000Z</time>
</trkpt>
<trkpt lat="46.0484340" lon="10.3196990">
	<ele>1452.60</ele>
	<time>2025-07-30T07:30:16.000Z</time>
</trkpt>
<trkpt lat="46.0484460" lon="10.3197130">
	<ele>1452.60</ele>
	<time>2025-07-30T07:30:17.000Z</time>
</trkpt>
<trkpt lat="46.0484660" lon="10.3197340">
	<ele>1452.60</ele>
	<time>2025-07-30T07:30:18.000Z</time>
</trkpt>
<trkpt lat="46.0484850" lon="10.3197520">
	<ele>1452.60</ele>
	<time>2025-07-30T07:30:19.000Z</time>
</trkpt>
<trkpt lat="46.0484910" lon="10.3197510">
	<ele>1452.60</ele>
	<time>2025-07-30T07:30:20.000Z</time>
</trkpt>
<trkpt lat="46.0484960" lon="10.3197550">
	<ele>1452.60</ele>
	<time>2025-07-30T07:30:21.000Z</time>
</trkpt>
<trkpt lat="46.0485220" lon="10.3197690">
	<ele>1452.60</ele>
	<time>2025-07-30T07:30:22.000Z</time>
</trkpt>
<trkpt lat="46.0485480" lon="10.3197710">
	<ele>1452.60</ele>
	<time>2025-07-30T07:30:23.000Z</time>
</trkpt>
<trkpt lat="46.0485700" lon="10.3197750">
	<ele>1452.60</ele>
	<time>2025-07-30T07:30:24.000Z</time>
</trkpt>
<trkpt lat="46.0485980" lon="10.3197840">
	<ele>1452.60</ele>
	<time>2025-07-30T07:30:25.000Z</time>
</trkpt>
<trkpt lat="46.0486020" lon="10.3197810">
	<ele>1452.60</ele>
	<time>2025-07-30T07:30:26.000Z</time>
</trkpt>
<trkpt lat="46.0486070" lon="10.3197940">
	<ele>1452.60</ele>
	<time>2025-07-30T07:30:27.000Z</time>
</trkpt>
<trkpt lat="46.0486290" lon="10.3198060">
	<ele>1452.60</ele>
	<time>2025-07-30T07:30:28.000Z</time>
</trkpt>
<trkpt lat="46.0486520" lon="10.3198120">
	<ele>1452.60</ele>
	<time>2025-07-30T07:30:29.000Z</time>
</trkpt>
<trkpt lat="46.0486730" lon="10.3198210">
	<ele>1452.60</ele>
	<time>2025-07-30T07:30:30.000Z</time>
</trkpt>
<trkpt lat="46.0486920" lon="10.3198130">
	<ele>1452.60</ele>
	<time>2025-07-30T07:30:31.000Z</time>
</trkpt>
<trkpt lat="46.0487110" lon="10.3198150">
	<ele>1452.60</ele>
	<time>2025-07-30T07:30:32.000Z</time>
</trkpt>
<trkpt lat="46.0487120" lon="10.3198140">
	<ele>1452.60</ele>
	<time>2025-07-30T07:30:33.000Z</time>
</trkpt>
<trkpt lat="46.0487130" lon="10.3198160">
	<ele>1452.60</ele>
	<time>2025-07-30T07:30:34.000Z</time>
</trkpt>
<trkpt lat="46.0487130" lon="10.3198180">
	<ele>1452.60</ele>
	<time>2025-07-30T07:30:35.000Z</time>
</trkpt>
<trkpt lat="46.0487120" lon="10.3198190">
	<ele>1452.80</ele>
	<time>2025-07-30T07:30:36.000Z</time>
</trkpt>
<trkpt lat="46.0487150" lon="10.3198160">
	<ele>1452.80</ele>
	<time>2025-07-30T07:30:37.000Z</time>
</trkpt>
<trkpt lat="46.0487220" lon="10.3198150">
	<ele>1452.80</ele>
	<time>2025-07-30T07:30:38.000Z</time>
</trkpt>
<trkpt lat="46.0487230" lon="10.3198170">
	<ele>1452.80</ele>
	<time>2025-07-30T07:30:39.000Z</time>
</trkpt>
<trkpt lat="46.0487230" lon="10.3198160">
	<ele>1452.80</ele>
	<time>2025-07-30T07:30:40.000Z</time>
</trkpt>
<trkpt lat="46.0487260" lon="10.3198150">
	<ele>1452.80</ele>
	<time>2025-07-30T07:30:41.000Z</time>
</trkpt>
<trkpt lat="46.0487330" lon="10.3198150">
	<ele>1453.00</ele>
	<time>2025-07-30T07:30:42.000Z</time>
</trkpt>
<trkpt lat="46.0487360" lon="10.3198140">
	<ele>1453.00</ele>
	<time>2025-07-30T07:30:43.000Z</time>
</trkpt>
<trkpt lat="46.0487370" lon="10.3198170">
	<ele>1453.00</ele>
	<time>2025-07-30T07:30:44.000Z</time>
</trkpt>
<trkpt lat="46.0487360" lon="10.3198210">
	<ele>1452.80</ele>
	<time>2025-07-30T07:30:45.000Z</time>
</trkpt>
<trkpt lat="46.0487350" lon="10.3198200">
	<ele>1452.80</ele>
	<time>2025-07-30T07:30:46.000Z</time>
</trkpt>
<trkpt lat="46.0487360" lon="10.3198180">
	<ele>1452.80</ele>
	<time>2025-07-30T07:30:47.000Z</time>
</trkpt>
<trkpt lat="46.0487360" lon="10.3198180">
	<ele>1452.80</ele>
	<time>2025-07-30T07:30:48.000Z</time>
</trkpt>
<trkpt lat="46.0487360" lon="10.3198180">
	<ele>1452.80</ele>
	<time>2025-07-30T07:30:49.000Z</time>
</trkpt>
<trkpt lat="46.0487360" lon="10.3198180">
	<ele>1452.80</ele>
	<time>2025-07-30T07:30:50.000Z</time>
</trkpt>
<trkpt lat="46.0487360" lon="10.3198180">
	<ele>1452.80</ele>
	<time>2025-07-30T07:30:51.000Z</time>
</trkpt>
<trkpt lat="46.0487360" lon="10.3198180">
	<ele>1452.80</ele>
	<time>2025-07-30T07:30:52.000Z</time>
</trkpt>
<trkpt lat="46.0487360" lon="10.3198180">
	<ele>1453.00</ele>
	<time>2025-07-30T07:30:53.000Z</time>
</trkpt>
<trkpt lat="46.0487360" lon="10.3198180">
	<ele>1453.00</ele>
	<time>2025-07-30T07:30:54.000Z</time>
</trkpt>
<trkpt lat="46.0487360" lon="10.3198180">
	<ele>1453.00</ele>
	<time>2025-07-30T07:30:55.000Z</time>
</trkpt>
<trkpt lat="46.0487360" lon="10.3198180">
	<ele>1453.00</ele>
	<time>2025-07-30T07:30:56.000Z</time>
</trkpt>
<trkpt lat="46.0487360" lon="10.3198180">
	<ele>1453.00</ele>
	<time>2025-07-30T07:30:57.000Z</time>
</trkpt>
<trkpt lat="46.0487360" lon="10.3198180">
	<ele>1453.20</ele>
	<time>2025-07-30T07:30:58.000Z</time>
</trkpt>
<trkpt lat="46.0487360" lon="10.3198180">
	<ele>1453.20</ele>
	<time>2025-07-30T07:30:59.000Z</time>
</trkpt>
<trkpt lat="46.0487360" lon="10.3198180">
	<ele>1453.20</ele>
	<time>2025-07-30T07:31:00.000Z</time>
</trkpt>
<trkpt lat="46.0487360" lon="10.3198180">
	<ele>1453.00</ele>
	<time>2025-07-30T07:31:01.000Z</time>
</trkpt>
<trkpt lat="46.0487360" lon="10.3198180">
	<ele>1453.00</ele>
	<time>2025-07-30T07:31:02.000Z</time>
</trkpt>
<trkpt lat="46.0487370" lon="10.3198180">
	<ele>1453.00</ele>
	<time>2025-07-30T07:31:03.000Z</time>
</trkpt>
<trkpt lat="46.0487370" lon="10.3198190">
	<ele>1453.00</ele>
	<time>2025-07-30T07:31:04.000Z</time>
</trkpt>
<trkpt lat="46.0487380" lon="10.3198200">
	<ele>1453.00</ele>
	<time>2025-07-30T07:31:05.000Z</time>
</trkpt>
<trkpt lat="46.0487380" lon="10.3198210">
	<ele>1453.00</ele>
	<time>2025-07-30T07:31:06.000Z</time>
</trkpt>
<trkpt lat="46.0487390" lon="10.3198230">
	<ele>1453.00</ele>
	<time>2025-07-30T07:31:07.000Z</time>
</trkpt>
<trkpt lat="46.0487430" lon="10.3198240">
	<ele>1453.00</ele>
	<time>2025-07-30T07:31:08.000Z</time>
</trkpt>
<trkpt lat="46.0487440" lon="10.3198240">
	<ele>1453.00</ele>
	<time>2025-07-30T07:31:09.000Z</time>
</trkpt>
<trkpt lat="46.0487500" lon="10.3198240">
	<ele>1453.00</ele>
	<time>2025-07-30T07:31:10.000Z</time>
</trkpt>
<trkpt lat="46.0487550" lon="10.3198250">
	<ele>1453.00</ele>
	<time>2025-07-30T07:31:11.000Z</time>
</trkpt>
<trkpt lat="46.0487580" lon="10.3198270">
	<ele>1453.00</ele>
	<time>2025-07-30T07:31:12.000Z</time>
</trkpt>
<trkpt lat="46.0487620" lon="10.3198290">
	<ele>1453.00</ele>
	<time>2025-07-30T07:31:13.000Z</time>
</trkpt>
<trkpt lat="46.0487640" lon="10.3198300">
	<ele>1453.00</ele>
	<time>2025-07-30T07:31:14.000Z</time>
</trkpt>
<trkpt lat="46.0487690" lon="10.3198330">
	<ele>1453.00</ele>
	<time>2025-07-30T07:31:15.000Z</time>
</trkpt>
<trkpt lat="46.0487700" lon="10.3198340">
	<ele>1453.00</ele>
	<time>2025-07-30T07:31:16.000Z</time>
</trkpt>
<trkpt lat="46.0487700" lon="10.3198340">
	<ele>1453.00</ele>
	<time>2025-07-30T07:31:17.000Z</time>
</trkpt>
<trkpt lat="46.0487710" lon="10.3198340">
	<ele>1453.00</ele>
	<time>2025-07-30T07:31:18.000Z</time>
</trkpt>
<trkpt lat="46.0487720" lon="10.3198340">
	<ele>1453.00</ele>
	<time>2025-07-30T07:31:19.000Z</time>
</trkpt>
<trkpt lat="46.0487720" lon="10.3198340">
	<ele>1453.00</ele>
	<time>2025-07-30T07:31:20.000Z</time>
</trkpt>
<trkpt lat="46.0487740" lon="10.3198350">
	<ele>1453.00</ele>
	<time>2025-07-30T07:31:21.000Z</time>
</trkpt>
<trkpt lat="46.0487750" lon="10.3198350">
	<ele>1453.00</ele>
	<time>2025-07-30T07:31:22.000Z</time>
</trkpt>
<trkpt lat="46.0487750" lon="10.3198350">
	<ele>1453.00</ele>
	<time>2025-07-30T07:31:23.000Z</time>
</trkpt>
<trkpt lat="46.0487750" lon="10.3198350">
	<ele>1453.00</ele>
	<time>2025-07-30T07:31:24.000Z</time>
</trkpt>
<trkpt lat="46.0487750" lon="10.3198350">
	<ele>1453.00</ele>
	<time>2025-07-30T07:31:25.000Z</time>
</trkpt>
<trkpt lat="46.0487760" lon="10.3198350">
	<ele>1453.00</ele>
	<time>2025-07-30T07:31:26.000Z</time>
</trkpt>
<trkpt lat="46.0487760" lon="10.3198350">
	<ele>1453.00</ele>
	<time>2025-07-30T07:31:27.000Z</time>
</trkpt>
<trkpt lat="46.0487760" lon="10.3198350">
	<ele>1453.00</ele>
	<time>2025-07-30T07:31:28.000Z</time>
</trkpt>
<trkpt lat="46.0487770" lon="10.3198350">
	<ele>1453.00</ele>
	<time>2025-07-30T07:31:29.000Z</time>
</trkpt>
<trkpt lat="46.0487770" lon="10.3198350">
	<ele>1453.00</ele>
	<time>2025-07-30T07:31:30.000Z</time>
</trkpt>
<trkpt lat="46.0487790" lon="10.3198350">
	<ele>1453.00</ele>
	<time>2025-07-30T07:31:31.000Z</time>
</trkpt>
<trkpt lat="46.0487790" lon="10.3198350">
	<ele>1453.00</ele>
	<time>2025-07-30T07:31:32.000Z</time>
</trkpt>
<trkpt lat="46.0487820" lon="10.3198350">
	<ele>1453.00</ele>
	<time>2025-07-30T07:31:33.000Z</time>
</trkpt>
<trkpt lat="46.0487850" lon="10.3198350">
	<ele>1453.00</ele>
	<time>2025-07-30T07:31:34.000Z</time>
</trkpt>
<trkpt lat="46.0487860" lon="10.3198340">
	<ele>1453.00</ele>
	<time>2025-07-30T07:31:35.000Z</time>
</trkpt>
<trkpt lat="46.0487870" lon="10.3198340">
	<ele>1453.00</ele>
	<time>2025-07-30T07:31:36.000Z</time>
</trkpt>
<trkpt lat="46.0487870" lon="10.3198340">
	<ele>1453.00</ele>
	<time>2025-07-30T07:31:37.000Z</time>
</trkpt>
<trkpt lat="46.0487880" lon="10.3198340">
	<ele>1452.80</ele>
	<time>2025-07-30T07:31:38.000Z</time>
</trkpt>
<trkpt lat="46.0487880" lon="10.3198340">
	<ele>1452.80</ele>
	<time>2025-07-30T07:31:39.000Z</time>
</trkpt>
<trkpt lat="46.0487880" lon="10.3198340">
	<ele>1452.80</ele>
	<time>2025-07-30T07:31:40.000Z</time>
</trkpt>
<trkpt lat="46.0487890" lon="10.3198340">
	<ele>1452.80</ele>
	<time>2025-07-30T07:31:41.000Z</time>
</trkpt>
<trkpt lat="46.0487890" lon="10.3198340">
	<ele>1452.80</ele>
	<time>2025-07-30T07:31:42.000Z</time>
</trkpt>
<trkpt lat="46.0487890" lon="10.3198340">
	<ele>1452.80</ele>
	<time>2025-07-30T07:31:43.000Z</time>
</trkpt>
<trkpt lat="46.0487900" lon="10.3198340">
	<ele>1452.80</ele>
	<time>2025-07-30T07:31:44.000Z</time>
</trkpt>
<trkpt lat="46.0487900" lon="10.3198340">
	<ele>1452.80</ele>
	<time>2025-07-30T07:31:45.000Z</time>
</trkpt>
<trkpt lat="46.0487910" lon="10.3198340">
	<ele>1452.80</ele>
	<time>2025-07-30T07:31:46.000Z</time>
</trkpt>
<trkpt lat="46.0487920" lon="10.3198350">
	<ele>1452.80</ele>
	<time>2025-07-30T07:31:47.000Z</time>
</trkpt>
<trkpt lat="46.0487950" lon="10.3198350">
	<ele>1452.80</ele>
	<time>2025-07-30T07:31:48.000Z</time>
</trkpt>
<trkpt lat="46.0488000" lon="10.3198350">
	<ele>1452.80</ele>
	<time>2025-07-30T07:31:49.000Z</time>
</trkpt>
<trkpt lat="46.0488050" lon="10.3198360">
	<ele>1452.80</ele>
	<time>2025-07-30T07:31:50.000Z</time>
</trkpt>
<trkpt lat="46.0488110" lon="10.3198380">
	<ele>1452.80</ele>
	<time>2025-07-30T07:31:51.000Z</time>
</trkpt>
<trkpt lat="46.0488140" lon="10.3198420">
	<ele>1452.80</ele>
	<time>2025-07-30T07:31:52.000Z</time>
</trkpt>
<trkpt lat="46.0488150" lon="10.3198460">
	<ele>1452.80</ele>
	<time>2025-07-30T07:31:53.000Z</time>
</trkpt>
<trkpt lat="46.0488160" lon="10.3198480">
	<ele>1452.80</ele>
	<time>2025-07-30T07:31:54.000Z</time>
</trkpt>
<trkpt lat="46.0488180" lon="10.3198490">
	<ele>1452.80</ele>
	<time>2025-07-30T07:31:55.000Z</time>
</trkpt>
<trkpt lat="46.0488180" lon="10.3198500">
	<ele>1452.80</ele>
	<time>2025-07-30T07:31:56.000Z</time>
</trkpt>
<trkpt lat="46.0488190" lon="10.3198530">
	<ele>1452.80</ele>
	<time>2025-07-30T07:31:57.000Z</time>
</trkpt>
<trkpt lat="46.0488190" lon="10.3198540">
	<ele>1452.80</ele>
	<time>2025-07-30T07:31:58.000Z</time>
</trkpt>
<trkpt lat="46.0488200" lon="10.3198550">
	<ele>1452.80</ele>
	<time>2025-07-30T07:31:59.000Z</time>
</trkpt>
<trkpt lat="46.0488200" lon="10.3198560">
	<ele>1452.80</ele>
	<time>2025-07-30T07:32:00.000Z</time>
</trkpt>
<trkpt lat="46.0488200" lon="10.3198560">
	<ele>1452.80</ele>
	<time>2025-07-30T07:32:01.000Z</time>
</trkpt>
<trkpt lat="46.0488200" lon="10.3198560">
	<ele>1452.80</ele>
	<time>2025-07-30T07:32:02.000Z</time>
</trkpt>
<trkpt lat="46.0488200" lon="10.3198570">
	<ele>1452.80</ele>
	<time>2025-07-30T07:32:03.000Z</time>
</trkpt>
<trkpt lat="46.0488210" lon="10.3198570">
	<ele>1452.80</ele>
	<time>2025-07-30T07:32:04.000Z</time>
</trkpt>
<trkpt lat="46.0488220" lon="10.3198570">
	<ele>1452.80</ele>
	<time>2025-07-30T07:32:05.000Z</time>
</trkpt>
<trkpt lat="46.0488220" lon="10.3198580">
	<ele>1452.80</ele>
	<time>2025-07-30T07:32:06.000Z</time>
</trkpt>
<trkpt lat="46.0488220" lon="10.3198580">
	<ele>1452.80</ele>
	<time>2025-07-30T07:32:07.000Z</time>
</trkpt>
<trkpt lat="46.0488230" lon="10.3198580">
	<ele>1452.80</ele>
	<time>2025-07-30T07:32:08.000Z</time>
</trkpt>
<trkpt lat="46.0488230" lon="10.3198590">
	<ele>1452.80</ele>
	<time>2025-07-30T07:32:09.000Z</time>
</trkpt>
<trkpt lat="46.0488240" lon="10.3198590">
	<ele>1452.80</ele>
	<time>2025-07-30T07:32:10.000Z</time>
</trkpt>
<trkpt lat="46.0488240" lon="10.3198600">
	<ele>1452.80</ele>
	<time>2025-07-30T07:32:11.000Z</time>
</trkpt>
<trkpt lat="46.0488240" lon="10.3198600">
	<ele>1452.80</ele>
	<time>2025-07-30T07:32:12.000Z</time>
</trkpt>
<trkpt lat="46.0488250" lon="10.3198610">
	<ele>1452.80</ele>
	<time>2025-07-30T07:32:13.000Z</time>
</trkpt>
<trkpt lat="46.0488260" lon="10.3198610">
	<ele>1452.80</ele>
	<time>2025-07-30T07:32:14.000Z</time>
</trkpt>
<trkpt lat="46.0488260" lon="10.3198610">
	<ele>1452.80</ele>
	<time>2025-07-30T07:32:15.000Z</time>
</trkpt>
<trkpt lat="46.0488260" lon="10.3198620">
	<ele>1452.80</ele>
	<time>2025-07-30T07:32:16.000Z</time>
</trkpt>
<trkpt lat="46.0488280" lon="10.3198650">
	<ele>1452.80</ele>
	<time>2025-07-30T07:32:17.000Z</time>
</trkpt>
<trkpt lat="46.0488340" lon="10.3198690">
	<ele>1452.80</ele>
	<time>2025-07-30T07:32:18.000Z</time>
</trkpt>
<trkpt lat="46.0488380" lon="10.3198730">
	<ele>1452.80</ele>
	<time>2025-07-30T07:32:19.000Z</time>
</trkpt>
<trkpt lat="46.0488400" lon="10.3198750">
	<ele>1452.80</ele>
	<time>2025-07-30T07:32:20.000Z</time>
</trkpt>
<trkpt lat="46.0488420" lon="10.3198770">
	<ele>1452.80</ele>
	<time>2025-07-30T07:32:21.000Z</time>
</trkpt>
<trkpt lat="46.0488430" lon="10.3198770">
	<ele>1452.80</ele>
	<time>2025-07-30T07:32:22.000Z</time>
</trkpt>
<trkpt lat="46.0488440" lon="10.3198780">
	<ele>1452.80</ele>
	<time>2025-07-30T07:32:23.000Z</time>
</trkpt>
<trkpt lat="46.0488460" lon="10.3198810">
	<ele>1452.80</ele>
	<time>2025-07-30T07:32:24.000Z</time>
</trkpt>
<trkpt lat="46.0488470" lon="10.3198840">
	<ele>1452.80</ele>
	<time>2025-07-30T07:32:25.000Z</time>
</trkpt>
<trkpt lat="46.0488480" lon="10.3198860">
	<ele>1452.80</ele>
	<time>2025-07-30T07:32:26.000Z</time>
</trkpt>
<trkpt lat="46.0488520" lon="10.3198930">
	<ele>1452.80</ele>
	<time>2025-07-30T07:32:27.000Z</time>
</trkpt>
<trkpt lat="46.0488570" lon="10.3199000">
	<ele>1452.80</ele>
	<time>2025-07-30T07:32:28.000Z</time>
</trkpt>
<trkpt lat="46.0488600" lon="10.3199030">
	<ele>1452.80</ele>
	<time>2025-07-30T07:32:29.000Z</time>
</trkpt>
<trkpt lat="46.0488630" lon="10.3199050">
	<ele>1452.80</ele>
	<time>2025-07-30T07:32:30.000Z</time>
</trkpt>
<trkpt lat="46.0488660" lon="10.3199060">
	<ele>1452.80</ele>
	<time>2025-07-30T07:32:31.000Z</time>
</trkpt>
<trkpt lat="46.0488670" lon="10.3199070">
	<ele>1452.80</ele>
	<time>2025-07-30T07:32:32.000Z</time>
</trkpt>
<trkpt lat="46.0488680" lon="10.3199080">
	<ele>1452.80</ele>
	<time>2025-07-30T07:32:33.000Z</time>
</trkpt>
<trkpt lat="46.0488680" lon="10.3199080">
	<ele>1452.80</ele>
	<time>2025-07-30T07:32:34.000Z</time>
</trkpt>
<trkpt lat="46.0488700" lon="10.3199090">
	<ele>1452.80</ele>
	<time>2025-07-30T07:32:35.000Z</time>
</trkpt>
<trkpt lat="46.0488700" lon="10.3199090">
	<ele>1452.80</ele>
	<time>2025-07-30T07:32:36.000Z</time>
</trkpt>
<trkpt lat="46.0488710" lon="10.3199100">
	<ele>1452.80</ele>
	<time>2025-07-30T07:32:37.000Z</time>
</trkpt>
<trkpt lat="46.0488720" lon="10.3199120">
	<ele>1452.80</ele>
	<time>2025-07-30T07:32:38.000Z</time>
</trkpt>
<trkpt lat="46.0488730" lon="10.3199140">
	<ele>1452.80</ele>
	<time>2025-07-30T07:32:39.000Z</time>
</trkpt>
<trkpt lat="46.0488740" lon="10.3199150">
	<ele>1452.80</ele>
	<time>2025-07-30T07:32:40.000Z</time>
</trkpt>
<trkpt lat="46.0488750" lon="10.3199160">
	<ele>1452.80</ele>
	<time>2025-07-30T07:32:41.000Z</time>
</trkpt>
<trkpt lat="46.0488770" lon="10.3199160">
	<ele>1452.80</ele>
	<time>2025-07-30T07:32:42.000Z</time>
</trkpt>
<trkpt lat="46.0488780" lon="10.3199170">
	<ele>1452.80</ele>
	<time>2025-07-30T07:32:43.000Z</time>
</trkpt>
<trkpt lat="46.0488780" lon="10.3199170">
	<ele>1452.80</ele>
	<time>2025-07-30T07:32:44.000Z</time>
</trkpt>
<trkpt lat="46.0488790" lon="10.3199170">
	<ele>1452.80</ele>
	<time>2025-07-30T07:32:45.000Z</time>
</trkpt>
<trkpt lat="46.0488800" lon="10.3199180">
	<ele>1452.80</ele>
	<time>2025-07-30T07:32:46.000Z</time>
</trkpt>
<trkpt lat="46.0488810" lon="10.3199180">
	<ele>1452.80</ele>
	<time>2025-07-30T07:32:47.000Z</time>
</trkpt>
<trkpt lat="46.0488820" lon="10.3199190">
	<ele>1452.80</ele>
	<time>2025-07-30T07:32:48.000Z</time>
</trkpt>
<trkpt lat="46.0488820" lon="10.3199190">
	<ele>1452.80</ele>
	<time>2025-07-30T07:32:49.000Z</time>
</trkpt>
<trkpt lat="46.0488830" lon="10.3199200">
	<ele>1452.80</ele>
	<time>2025-07-30T07:32:50.000Z</time>
</trkpt>
<trkpt lat="46.0488840" lon="10.3199200">
	<ele>1452.80</ele>
	<time>2025-07-30T07:32:51.000Z</time>
</trkpt>
<trkpt lat="46.0488840" lon="10.3199210">
	<ele>1452.80</ele>
	<time>2025-07-30T07:32:52.000Z</time>
</trkpt>
<trkpt lat="46.0488840" lon="10.3199220">
	<ele>1452.80</ele>
	<time>2025-07-30T07:32:53.000Z</time>
</trkpt>
<trkpt lat="46.0488830" lon="10.3199220">
	<ele>1452.80</ele>
	<time>2025-07-30T07:32:54.000Z</time>
</trkpt>
<trkpt lat="46.0488830" lon="10.3199220">
	<ele>1452.80</ele>
	<time>2025-07-30T07:32:55.000Z</time>
</trkpt>
<trkpt lat="46.0488830" lon="10.3199220">
	<ele>1452.80</ele>
	<time>2025-07-30T07:32:56.000Z</time>
</trkpt>
<trkpt lat="46.0488830" lon="10.3199220">
	<ele>1452.80</ele>
	<time>2025-07-30T07:32:57.000Z</time>
</trkpt>
<trkpt lat="46.0488830" lon="10.3199220">
	<ele>1452.80</ele>
	<time>2025-07-30T07:32:58.000Z</time>
</trkpt>
<trkpt lat="46.0488830" lon="10.3199220">
	<ele>1452.80</ele>
	<time>2025-07-30T07:32:59.000Z</time>
</trkpt>
<trkpt lat="46.0488820" lon="10.3199200">
	<ele>1452.80</ele>
	<time>2025-07-30T07:33:00.000Z</time>
</trkpt>
<trkpt lat="46.0488820" lon="10.3199200">
	<ele>1452.80</ele>
	<time>2025-07-30T07:33:01.000Z</time>
</trkpt>
<trkpt lat="46.0488820" lon="10.3199200">
	<ele>1452.80</ele>
	<time>2025-07-30T07:33:02.000Z</time>
</trkpt>
<trkpt lat="46.0488820" lon="10.3199200">
	<ele>1452.80</ele>
	<time>2025-07-30T07:33:03.000Z</time>
</trkpt>
<trkpt lat="46.0488820" lon="10.3199200">
	<ele>1452.80</ele>
	<time>2025-07-30T07:33:04.000Z</time>
</trkpt>
<trkpt lat="46.0488820" lon="10.3199200">
	<ele>1452.80</ele>
	<time>2025-07-30T07:33:05.000Z</time>
</trkpt>
<trkpt lat="46.0488820" lon="10.3199200">
	<ele>1452.80</ele>
	<time>2025-07-30T07:33:06.000Z</time>
</trkpt>
<trkpt lat="46.0488800" lon="10.3199160">
	<ele>1452.80</ele>
	<time>2025-07-30T07:33:07.000Z</time>
</trkpt>
<trkpt lat="46.0488820" lon="10.3199140">
	<ele>1452.80</ele>
	<time>2025-07-30T07:33:08.000Z</time>
</trkpt>
<trkpt lat="46.0488800" lon="10.3199100">
	<ele>1452.80</ele>
	<time>2025-07-30T07:33:09.000Z</time>
</trkpt>
<trkpt lat="46.0488810" lon="10.3199070">
	<ele>1452.80</ele>
	<time>2025-07-30T07:33:10.000Z</time>
</trkpt>
<trkpt lat="46.0488760" lon="10.3198970">
	<ele>1452.80</ele>
	<time>2025-07-30T07:33:11.000Z</time>
</trkpt>
<trkpt lat="46.0488780" lon="10.3198950">
	<ele>1452.80</ele>
	<time>2025-07-30T07:33:12.000Z</time>
</trkpt>
<trkpt lat="46.0488770" lon="10.3198920">
	<ele>1452.80</ele>
	<time>2025-07-30T07:33:13.000Z</time>
</trkpt>
<trkpt lat="46.0488770" lon="10.3198850">
	<ele>1452.80</ele>
	<time>2025-07-30T07:33:14.000Z</time>
</trkpt>
<trkpt lat="46.0488740" lon="10.3198800">
	<ele>1452.80</ele>
	<time>2025-07-30T07:33:15.000Z</time>
</trkpt>
<trkpt lat="46.0488690" lon="10.3198720">
	<ele>1452.80</ele>
	<time>2025-07-30T07:33:16.000Z</time>
</trkpt>
<trkpt lat="46.0488630" lon="10.3198670">
	<ele>1452.80</ele>
	<time>2025-07-30T07:33:17.000Z</time>
</trkpt>
<trkpt lat="46.0488590" lon="10.3198660">
	<ele>1452.80</ele>
	<time>2025-07-30T07:33:18.000Z</time>
</trkpt>
<trkpt lat="46.0488570" lon="10.3198660">
	<ele>1452.80</ele>
	<time>2025-07-30T07:33:19.000Z</time>
</trkpt>
<trkpt lat="46.0488550" lon="10.3198670">
	<ele>1452.80</ele>
	<time>2025-07-30T07:33:20.000Z</time>
</trkpt>
<trkpt lat="46.0488560" lon="10.3198630">
	<ele>1452.80</ele>
	<time>2025-07-30T07:33:21.000Z</time>
</trkpt>
<trkpt lat="46.0488600" lon="10.3198730">
	<ele>1452.80</ele>
	<time>2025-07-30T07:33:22.000Z</time>
</trkpt>
<trkpt lat="46.0488610" lon="10.3198770">
	<ele>1452.80</ele>
	<time>2025-07-30T07:33:23.000Z</time>
</trkpt>
<trkpt lat="46.0488630" lon="10.3198740">
	<ele>1452.80</ele>
	<time>2025-07-30T07:33:24.000Z</time>
</trkpt>
<trkpt lat="46.0488630" lon="10.3198700">
	<ele>1452.80</ele>
	<time>2025-07-30T07:33:25.000Z</time>
</trkpt>
<trkpt lat="46.0488620" lon="10.3198720">
	<ele>1452.80</ele>
	<time>2025-07-30T07:33:26.000Z</time>
</trkpt>
<trkpt lat="46.0488630" lon="10.3198750">
	<ele>1452.80</ele>
	<time>2025-07-30T07:33:27.000Z</time>
</trkpt>
<trkpt lat="46.0488620" lon="10.3198740">
	<ele>1452.80</ele>
	<time>2025-07-30T07:33:28.000Z</time>
</trkpt>
<trkpt lat="46.0488600" lon="10.3198810">
	<ele>1452.80</ele>
	<time>2025-07-30T07:33:29.000Z</time>
</trkpt>
<trkpt lat="46.0488530" lon="10.3198800">
	<ele>1452.80</ele>
	<time>2025-07-30T07:33:30.000Z</time>
</trkpt>
<trkpt lat="46.0488460" lon="10.3198680">
	<ele>1452.80</ele>
	<time>2025-07-30T07:33:31.000Z</time>
</trkpt>
<trkpt lat="46.0488410" lon="10.3198640">
	<ele>1452.80</ele>
	<time>2025-07-30T07:33:32.000Z</time>
</trkpt>
<trkpt lat="46.0488390" lon="10.3198790">
	<ele>1452.80</ele>
	<time>2025-07-30T07:33:33.000Z</time>
</trkpt>
<trkpt lat="46.0488340" lon="10.3198850">
	<ele>1452.80</ele>
	<time>2025-07-30T07:33:34.000Z</time>
</trkpt>
<trkpt lat="46.0488290" lon="10.3198900">
	<ele>1452.80</ele>
	<time>2025-07-30T07:33:35.000Z</time>
</trkpt>
<trkpt lat="46.0488290" lon="10.3199100">
	<ele>1452.80</ele>
	<time>2025-07-30T07:33:36.000Z</time>
</trkpt>
<trkpt lat="46.0488360" lon="10.3199280">
	<ele>1452.80</ele>
	<time>2025-07-30T07:33:37.000Z</time>
</trkpt>
<trkpt lat="46.0488420" lon="10.3199420">
	<ele>1452.80</ele>
	<time>2025-07-30T07:33:38.000Z</time>
</trkpt>
<trkpt lat="46.0488430" lon="10.3199510">
	<ele>1452.80</ele>
	<time>2025-07-30T07:33:39.000Z</time>
</trkpt>
<trkpt lat="46.0488430" lon="10.3199580">
	<ele>1452.80</ele>
	<time>2025-07-30T07:33:40.000Z</time>
</trkpt>
<trkpt lat="46.0488430" lon="10.3199620">
	<ele>1452.80</ele>
	<time>2025-07-30T07:33:41.000Z</time>
</trkpt>
<trkpt lat="46.0488430" lon="10.3199660">
	<ele>1452.80</ele>
	<time>2025-07-30T07:33:42.000Z</time>
</trkpt>
<trkpt lat="46.0488440" lon="10.3199680">
	<ele>1452.80</ele>
	<time>2025-07-30T07:33:43.000Z</time>
</trkpt>
<trkpt lat="46.0488430" lon="10.3199700">
	<ele>1452.80</ele>
	<time>2025-07-30T07:33:44.000Z</time>
</trkpt>
<trkpt lat="46.0488430" lon="10.3199700">
	<ele>1452.80</ele>
	<time>2025-07-30T07:33:45.000Z</time>
</trkpt>
<trkpt lat="46.0488430" lon="10.3199710">
	<ele>1452.80</ele>
	<time>2025-07-30T07:33:46.000Z</time>
</trkpt>
<trkpt lat="46.0488420" lon="10.3199720">
	<ele>1452.80</ele>
	<time>2025-07-30T07:33:47.000Z</time>
</trkpt>
<trkpt lat="46.0488390" lon="10.3199730">
	<ele>1452.80</ele>
	<time>2025-07-30T07:33:48.000Z</time>
</trkpt>
<trkpt lat="46.0488400" lon="10.3199740">
	<ele>1452.80</ele>
	<time>2025-07-30T07:33:49.000Z</time>
</trkpt>
<trkpt lat="46.0488380" lon="10.3199760">
	<ele>1452.80</ele>
	<time>2025-07-30T07:33:50.000Z</time>
</trkpt>
<trkpt lat="46.0488350" lon="10.3199750">
	<ele>1452.80</ele>
	<time>2025-07-30T07:33:51.000Z</time>
</trkpt>
<trkpt lat="46.0488300" lon="10.3199740">
	<ele>1452.80</ele>
	<time>2025-07-30T07:33:52.000Z</time>
</trkpt>
<trkpt lat="46.0488230" lon="10.3199810">
	<ele>1452.80</ele>
	<time>2025-07-30T07:33:53.000Z</time>
</trkpt>
<trkpt lat="46.0488170" lon="10.3199880">
	<ele>1452.80</ele>
	<time>2025-07-30T07:33:54.000Z</time>
</trkpt>
<trkpt lat="46.0488150" lon="10.3199940">
	<ele>1452.80</ele>
	<time>2025-07-30T07:33:55.000Z</time>
</trkpt>
<trkpt lat="46.0488170" lon="10.3200020">
	<ele>1452.80</ele>
	<time>2025-07-30T07:33:56.000Z</time>
</trkpt>
<trkpt lat="46.0488160" lon="10.3200050">
	<ele>1452.80</ele>
	<time>2025-07-30T07:33:57.000Z</time>
</trkpt>
<trkpt lat="46.0488150" lon="10.3200060">
	<ele>1452.80</ele>
	<time>2025-07-30T07:33:58.000Z</time>
</trkpt>
<trkpt lat="46.0488160" lon="10.3200070">
	<ele>1452.80</ele>
	<time>2025-07-30T07:33:59.000Z</time>
</trkpt>
<trkpt lat="46.0488180" lon="10.3200070">
	<ele>1452.80</ele>
	<time>2025-07-30T07:34:00.000Z</time>
</trkpt>
<trkpt lat="46.0488170" lon="10.3200060">
	<ele>1452.80</ele>
	<time>2025-07-30T07:34:01.000Z</time>
</trkpt>
<trkpt lat="46.0488170" lon="10.3200060">
	<ele>1452.80</ele>
	<time>2025-07-30T07:34:02.000Z</time>
</trkpt>
<trkpt lat="46.0488170" lon="10.3200060">
	<ele>1452.80</ele>
	<time>2025-07-30T07:34:03.000Z</time>
</trkpt>
<trkpt lat="46.0488170" lon="10.3200060">
	<ele>1452.80</ele>
	<time>2025-07-30T07:34:04.000Z</time>
</trkpt>
<trkpt lat="46.0488170" lon="10.3200060">
	<ele>1452.80</ele>
	<time>2025-07-30T07:34:05.000Z</time>
</trkpt>
<trkpt lat="46.0488170" lon="10.3200060">
	<ele>1452.80</ele>
	<time>2025-07-30T07:34:06.000Z</time>
</trkpt>
<trkpt lat="46.0488170" lon="10.3200060">
	<ele>1452.80</ele>
	<time>2025-07-30T07:34:07.000Z</time>
</trkpt>
<trkpt lat="46.0488170" lon="10.3200060">
	<ele>1452.80</ele>
	<time>2025-07-30T07:34:08.000Z</time>
</trkpt>
<trkpt lat="46.0488200" lon="10.3200010">
	<ele>1452.80</ele>
	<time>2025-07-30T07:34:09.000Z</time>
</trkpt>
<trkpt lat="46.0488330" lon="10.3199870">
	<ele>1452.80</ele>
	<time>2025-07-30T07:34:10.000Z</time>
</trkpt>
<trkpt lat="46.0488470" lon="10.3199700">
	<ele>1452.80</ele>
	<time>2025-07-30T07:34:11.000Z</time>
</trkpt>
<trkpt lat="46.0488570" lon="10.3199560">
	<ele>1452.80</ele>
	<time>2025-07-30T07:34:12.000Z</time>
</trkpt>
<trkpt lat="46.0488650" lon="10.3199420">
	<ele>1452.80</ele>
	<time>2025-07-30T07:34:13.000Z</time>
</trkpt>
<trkpt lat="46.0488670" lon="10.3199340">
	<ele>1452.80</ele>
	<time>2025-07-30T07:34:14.000Z</time>
</trkpt>
<trkpt lat="46.0488700" lon="10.3199260">
	<ele>1452.80</ele>
	<time>2025-07-30T07:34:15.000Z</time>
</trkpt>
<trkpt lat="46.0488700" lon="10.3199190">
	<ele>1452.80</ele>
	<time>2025-07-30T07:34:16.000Z</time>
</trkpt>
<trkpt lat="46.0488710" lon="10.3199130">
	<ele>1452.80</ele>
	<time>2025-07-30T07:34:17.000Z</time>
</trkpt>
<trkpt lat="46.0488730" lon="10.3199070">
	<ele>1452.80</ele>
	<time>2025-07-30T07:34:18.000Z</time>
</trkpt>
<trkpt lat="46.0488730" lon="10.3199070">
	<ele>1452.80</ele>
	<time>2025-07-30T07:34:19.000Z</time>
</trkpt>
<trkpt lat="46.0488720" lon="10.3199070">
	<ele>1453.00</ele>
	<time>2025-07-30T07:34:20.000Z</time>
</trkpt>
<trkpt lat="46.0488730" lon="10.3199080">
	<ele>1453.00</ele>
	<time>2025-07-30T07:34:21.000Z</time>
</trkpt>
<trkpt lat="46.0488720" lon="10.3199070">
	<ele>1453.00</ele>
	<time>2025-07-30T07:34:22.000Z</time>
</trkpt>
<trkpt lat="46.0488740" lon="10.3199070">
	<ele>1453.00</ele>
	<time>2025-07-30T07:34:23.000Z</time>
</trkpt>
<trkpt lat="46.0488760" lon="10.3199100">
	<ele>1453.20</ele>
	<time>2025-07-30T07:34:24.000Z</time>
</trkpt>
<trkpt lat="46.0488770" lon="10.3199110">
	<ele>1453.20</ele>
	<time>2025-07-30T07:34:25.000Z</time>
</trkpt>
<trkpt lat="46.0488790" lon="10.3199120">
	<ele>1453.20</ele>
	<time>2025-07-30T07:34:26.000Z</time>
</trkpt>
<trkpt lat="46.0488820" lon="10.3199120">
	<ele>1453.20</ele>
	<time>2025-07-30T07:34:27.000Z</time>
</trkpt>
<trkpt lat="46.0488860" lon="10.3199100">
	<ele>1453.40</ele>
	<time>2025-07-30T07:34:28.000Z</time>
</trkpt>
<trkpt lat="46.0488910" lon="10.3199090">
	<ele>1453.40</ele>
	<time>2025-07-30T07:34:29.000Z</time>
</trkpt>
<trkpt lat="46.0488950" lon="10.3199100">
	<ele>1453.40</ele>
	<time>2025-07-30T07:34:30.000Z</time>
</trkpt>
<trkpt lat="46.0488980" lon="10.3199100">
	<ele>1453.40</ele>
	<time>2025-07-30T07:34:31.000Z</time>
</trkpt>
<trkpt lat="46.0489010" lon="10.3199110">
	<ele>1453.40</ele>
	<time>2025-07-30T07:34:32.000Z</time>
</trkpt>
<trkpt lat="46.0489020" lon="10.3199120">
	<ele>1453.40</ele>
	<time>2025-07-30T07:34:33.000Z</time>
</trkpt>
<trkpt lat="46.0489050" lon="10.3199080">
	<ele>1453.40</ele>
	<time>2025-07-30T07:34:34.000Z</time>
</trkpt>
<trkpt lat="46.0489080" lon="10.3199080">
	<ele>1453.40</ele>
	<time>2025-07-30T07:34:35.000Z</time>
</trkpt>
<trkpt lat="46.0489120" lon="10.3199060">
	<ele>1453.40</ele>
	<time>2025-07-30T07:34:36.000Z</time>
</trkpt>
<trkpt lat="46.0489120" lon="10.3198980">
	<ele>1453.40</ele>
	<time>2025-07-30T07:34:37.000Z</time>
</trkpt>
<trkpt lat="46.0489140" lon="10.3198860">
	<ele>1453.20</ele>
	<time>2025-07-30T07:34:38.000Z</time>
</trkpt>
<trkpt lat="46.0489150" lon="10.3198750">
	<ele>1453.20</ele>
	<time>2025-07-30T07:34:39.000Z</time>
</trkpt>
<trkpt lat="46.0489090" lon="10.3198650">
	<ele>1453.20</ele>
	<time>2025-07-30T07:34:40.000Z</time>
</trkpt>
<trkpt lat="46.0489120" lon="10.3198520">
	<ele>1453.20</ele>
	<time>2025-07-30T07:34:41.000Z</time>
</trkpt>
<trkpt lat="46.0489160" lon="10.3198440">
	<ele>1453.20</ele>
	<time>2025-07-30T07:34:42.000Z</time>
</trkpt>
<trkpt lat="46.0489150" lon="10.3198380">
	<ele>1453.40</ele>
	<time>2025-07-30T07:34:43.000Z</time>
</trkpt>
<trkpt lat="46.0489170" lon="10.3198300">
	<ele>1453.40</ele>
	<time>2025-07-30T07:34:44.000Z</time>
</trkpt>
<trkpt lat="46.0489180" lon="10.3198260">
	<ele>1453.60</ele>
	<time>2025-07-30T07:34:45.000Z</time>
</trkpt>
<trkpt lat="46.0489230" lon="10.3198200">
	<ele>1453.60</ele>
	<time>2025-07-30T07:34:46.000Z</time>
</trkpt>
<trkpt lat="46.0489270" lon="10.3198180">
	<ele>1453.60</ele>
	<time>2025-07-30T07:34:47.000Z</time>
</trkpt>
<trkpt lat="46.0489290" lon="10.3198190">
	<ele>1453.80</ele>
	<time>2025-07-30T07:34:48.000Z</time>
</trkpt>
<trkpt lat="46.0489270" lon="10.3198190">
	<ele>1453.80</ele>
	<time>2025-07-30T07:34:49.000Z</time>
</trkpt>
<trkpt lat="46.0489270" lon="10.3198200">
	<ele>1453.80</ele>
	<time>2025-07-30T07:34:50.000Z</time>
</trkpt>
<trkpt lat="46.0489320" lon="10.3198240">
	<ele>1453.80</ele>
	<time>2025-07-30T07:34:51.000Z</time>
</trkpt>
<trkpt lat="46.0489320" lon="10.3198300">
	<ele>1453.60</ele>
	<time>2025-07-30T07:34:52.000Z</time>
</trkpt>
<trkpt lat="46.0489380" lon="10.3198350">
	<ele>1453.60</ele>
	<time>2025-07-30T07:34:53.000Z</time>
</trkpt>
<trkpt lat="46.0489410" lon="10.3198460">
	<ele>1453.60</ele>
	<time>2025-07-30T07:34:54.000Z</time>
</trkpt>
<trkpt lat="46.0489470" lon="10.3198560">
	<ele>1453.40</ele>
	<time>2025-07-30T07:34:55.000Z</time>
</trkpt>
<trkpt lat="46.0489450" lon="10.3198710">
	<ele>1453.40</ele>
	<time>2025-07-30T07:34:56.000Z</time>
</trkpt>
<trkpt lat="46.0489460" lon="10.3198860">
	<ele>1453.40</ele>
	<time>2025-07-30T07:34:57.000Z</time>
</trkpt>
<trkpt lat="46.0489490" lon="10.3199000">
	<ele>1453.40</ele>
	<time>2025-07-30T07:34:58.000Z</time>
</trkpt>
<trkpt lat="46.0489510" lon="10.3199130">
	<ele>1453.20</ele>
	<time>2025-07-30T07:34:59.000Z</time>
</trkpt>
<trkpt lat="46.0489530" lon="10.3199260">
	<ele>1453.20</ele>
	<time>2025-07-30T07:35:00.000Z</time>
</trkpt>
<trkpt lat="46.0489510" lon="10.3199350">
	<ele>1453.00</ele>
	<time>2025-07-30T07:35:01.000Z</time>
</trkpt>
<trkpt lat="46.0489500" lon="10.3199490">
	<ele>1453.00</ele>
	<time>2025-07-30T07:35:02.000Z</time>
</trkpt>
<trkpt lat="46.0489450" lon="10.3199610">
	<ele>1452.60</ele>
	<time>2025-07-30T07:35:03.000Z</time>
</trkpt>
<trkpt lat="46.0489420" lon="10.3199740">
	<ele>1452.20</ele>
	<time>2025-07-30T07:35:04.000Z</time>
</trkpt>
<trkpt lat="46.0489390" lon="10.3199900">
	<ele>1451.80</ele>
	<time>2025-07-30T07:35:05.000Z</time>
</trkpt>
<trkpt lat="46.0489310" lon="10.3200040">
	<ele>1451.60</ele>
	<time>2025-07-30T07:35:06.000Z</time>
</trkpt>
<trkpt lat="46.0489230" lon="10.3200120">
	<ele>1451.40</ele>
	<time>2025-07-30T07:35:07.000Z</time>
</trkpt>
<trkpt lat="46.0489120" lon="10.3200160">
	<ele>1451.40</ele>
	<time>2025-07-30T07:35:08.000Z</time>
</trkpt>
<trkpt lat="46.0489000" lon="10.3200270">
	<ele>1451.00</ele>
	<time>2025-07-30T07:35:09.000Z</time>
</trkpt>
<trkpt lat="46.0488940" lon="10.3200470">
	<ele>1450.60</ele>
	<time>2025-07-30T07:35:10.000Z</time>
</trkpt>
<trkpt lat="46.0488850" lon="10.3200650">
	<ele>1450.40</ele>
	<time>2025-07-30T07:35:11.000Z</time>
</trkpt>
<trkpt lat="46.0488920" lon="10.3200790">
	<ele>1450.20</ele>
	<time>2025-07-30T07:35:12.000Z</time>
</trkpt>
<trkpt lat="46.0488970" lon="10.3200940">
	<ele>1449.80</ele>
	<time>2025-07-30T07:35:13.000Z</time>
</trkpt>
<trkpt lat="46.0488960" lon="10.3201100">
	<ele>1449.60</ele>
	<time>2025-07-30T07:35:14.000Z</time>
</trkpt>
<trkpt lat="46.0488910" lon="10.3201250">
	<ele>1449.40</ele>
	<time>2025-07-30T07:35:15.000Z</time>
</trkpt>
<trkpt lat="46.0488850" lon="10.3201420">
	<ele>1449.00</ele>
	<time>2025-07-30T07:35:16.000Z</time>
</trkpt>
<trkpt lat="46.0488730" lon="10.3201570">
	<ele>1448.80</ele>
	<time>2025-07-30T07:35:17.000Z</time>
</trkpt>
<trkpt lat="46.0488610" lon="10.3201700">
	<ele>1448.60</ele>
	<time>2025-07-30T07:35:18.000Z</time>
</trkpt>
<trkpt lat="46.0488530" lon="10.3201860">
	<ele>1448.40</ele>
	<time>2025-07-30T07:35:19.000Z</time>
</trkpt>
<trkpt lat="46.0488510" lon="10.3202000">
	<ele>1448.20</ele>
	<time>2025-07-30T07:35:20.000Z</time>
</trkpt>
<trkpt lat="46.0488500" lon="10.3202160">
	<ele>1448.20</ele>
	<time>2025-07-30T07:35:21.000Z</time>
</trkpt>
<trkpt lat="46.0488470" lon="10.3202360">
	<ele>1447.80</ele>
	<time>2025-07-30T07:35:22.000Z</time>
</trkpt>
<trkpt lat="46.0488440" lon="10.3202530">
	<ele>1447.60</ele>
	<time>2025-07-30T07:35:23.000Z</time>
</trkpt>
<trkpt lat="46.0488440" lon="10.3202700">
	<ele>1447.40</ele>
	<time>2025-07-30T07:35:24.000Z</time>
</trkpt>
<trkpt lat="46.0488420" lon="10.3202870">
	<ele>1447.00</ele>
	<time>2025-07-30T07:35:25.000Z</time>
</trkpt>
<trkpt lat="46.0488440" lon="10.3203100">
	<ele>1446.80</ele>
	<time>2025-07-30T07:35:26.000Z</time>
</trkpt>
<trkpt lat="46.0488460" lon="10.3203290">
	<ele>1446.40</ele>
	<time>2025-07-30T07:35:27.000Z</time>
</trkpt>
<trkpt lat="46.0488460" lon="10.3203480">
	<ele>1446.00</ele>
	<time>2025-07-30T07:35:28.000Z</time>
</trkpt>
<trkpt lat="46.0488440" lon="10.3203680">
	<ele>1445.80</ele>
	<time>2025-07-30T07:35:29.000Z</time>
</trkpt>
<trkpt lat="46.0488380" lon="10.3203860">
	<ele>1445.40</ele>
	<time>2025-07-30T07:35:30.000Z</time>
</trkpt>
<trkpt lat="46.0488350" lon="10.3204040">
	<ele>1445.20</ele>
	<time>2025-07-30T07:35:31.000Z</time>
</trkpt>
<trkpt lat="46.0488360" lon="10.3204230">
	<ele>1445.00</ele>
	<time>2025-07-30T07:35:32.000Z</time>
</trkpt>
<trkpt lat="46.0488360" lon="10.3204420">
	<ele>1444.80</ele>
	<time>2025-07-30T07:35:33.000Z</time>
</trkpt>
<trkpt lat="46.0488330" lon="10.3204630">
	<ele>1444.60</ele>
	<time>2025-07-30T07:35:34.000Z</time>
</trkpt>
<trkpt lat="46.0488310" lon="10.3204840">
	<ele>1444.40</ele>
	<time>2025-07-30T07:35:35.000Z</time>
</trkpt>
<trkpt lat="46.0488330" lon="10.3205060">
	<ele>1444.20</ele>
	<time>2025-07-30T07:35:36.000Z</time>
</trkpt>
<trkpt lat="46.0488360" lon="10.3205290">
	<ele>1444.00</ele>
	<time>2025-07-30T07:35:37.000Z</time>
</trkpt>
<trkpt lat="46.0488390" lon="10.3205510">
	<ele>1443.80</ele>
	<time>2025-07-30T07:35:38.000Z</time>
</trkpt>
<trkpt lat="46.0488410" lon="10.3205710">
	<ele>1443.80</ele>
	<time>2025-07-30T07:35:39.000Z</time>
</trkpt>
<trkpt lat="46.0488430" lon="10.3205910">
	<ele>1443.60</ele>
	<time>2025-07-30T07:35:40.000Z</time>
</trkpt>
<trkpt lat="46.0488470" lon="10.3206100">
	<ele>1443.40</ele>
	<time>2025-07-30T07:35:41.000Z</time>
</trkpt>
<trkpt lat="46.0488490" lon="10.3206330">
	<ele>1443.20</ele>
	<time>2025-07-30T07:35:42.000Z</time>
</trkpt>
<trkpt lat="46.0488530" lon="10.3206540">
	<ele>1443.00</ele>
	<time>2025-07-30T07:35:43.000Z</time>
</trkpt>
<trkpt lat="46.0488520" lon="10.3206740">
	<ele>1442.80</ele>
	<time>2025-07-30T07:35:44.000Z</time>
</trkpt>
<trkpt lat="46.0488540" lon="10.3206950">
	<ele>1442.60</ele>
	<time>2025-07-30T07:35:45.000Z</time>
</trkpt>
<trkpt lat="46.0488520" lon="10.3207100">
	<ele>1442.60</ele>
	<time>2025-07-30T07:35:46.000Z</time>
</trkpt>
<trkpt lat="46.0488510" lon="10.3207240">
	<ele>1442.40</ele>
	<time>2025-07-30T07:35:47.000Z</time>
</trkpt>
<trkpt lat="46.0488530" lon="10.3207410">
	<ele>1442.20</ele>
	<time>2025-07-30T07:35:48.000Z</time>
</trkpt>
<trkpt lat="46.0488510" lon="10.3207570">
	<ele>1442.20</ele>
	<time>2025-07-30T07:35:49.000Z</time>
</trkpt>
<trkpt lat="46.0488510" lon="10.3207780">
	<ele>1442.00</ele>
	<time>2025-07-30T07:35:50.000Z</time>
</trkpt>
<trkpt lat="46.0488530" lon="10.3207990">
	<ele>1442.00</ele>
	<time>2025-07-30T07:35:51.000Z</time>
</trkpt>
<trkpt lat="46.0488580" lon="10.3208230">
	<ele>1441.80</ele>
	<time>2025-07-30T07:35:52.000Z</time>
</trkpt>
<trkpt lat="46.0488620" lon="10.3208420">
	<ele>1441.80</ele>
	<time>2025-07-30T07:35:53.000Z</time>
</trkpt>
<trkpt lat="46.0488660" lon="10.3208650">
	<ele>1441.80</ele>
	<time>2025-07-30T07:35:54.000Z</time>
</trkpt>
<trkpt lat="46.0488670" lon="10.3208830">
	<ele>1441.40</ele>
	<time>2025-07-30T07:35:55.000Z</time>
</trkpt>
<trkpt lat="46.0488680" lon="10.3208970">
	<ele>1441.20</ele>
	<time>2025-07-30T07:35:56.000Z</time>
</trkpt>
<trkpt lat="46.0488670" lon="10.3209160">
	<ele>1441.00</ele>
	<time>2025-07-30T07:35:57.000Z</time>
</trkpt>
<trkpt lat="46.0488630" lon="10.3209380">
	<ele>1440.80</ele>
	<time>2025-07-30T07:35:58.000Z</time>
</trkpt>
<trkpt lat="46.0488620" lon="10.3209550">
	<ele>1440.60</ele>
	<time>2025-07-30T07:35:59.000Z</time>
</trkpt>
<trkpt lat="46.0488620" lon="10.3209720">
	<ele>1440.40</ele>
	<time>2025-07-30T07:36:00.000Z</time>
</trkpt>
<trkpt lat="46.0488670" lon="10.3210000">
	<ele>1440.20</ele>
	<time>2025-07-30T07:36:01.000Z</time>
</trkpt>
<trkpt lat="46.0488730" lon="10.3210240">
	<ele>1440.20</ele>
	<time>2025-07-30T07:36:02.000Z</time>
</trkpt>
<trkpt lat="46.0488770" lon="10.3210430">
	<ele>1440.00</ele>
	<time>2025-07-30T07:36:03.000Z</time>
</trkpt>
<trkpt lat="46.0488810" lon="10.3210640">
	<ele>1440.00</ele>
	<time>2025-07-30T07:36:04.000Z</time>
</trkpt>
<trkpt lat="46.0488860" lon="10.3210830">
	<ele>1440.00</ele>
	<time>2025-07-30T07:36:05.000Z</time>
</trkpt>
<trkpt lat="46.0488870" lon="10.3211000">
	<ele>1439.80</ele>
	<time>2025-07-30T07:36:06.000Z</time>
</trkpt>
<trkpt lat="46.0488900" lon="10.3211150">
	<ele>1439.80</ele>
	<time>2025-07-30T07:36:07.000Z</time>
</trkpt>
<trkpt lat="46.0488920" lon="10.3211310">
	<ele>1439.80</ele>
	<time>2025-07-30T07:36:08.000Z</time>
</trkpt>
<trkpt lat="46.0488940" lon="10.3211480">
	<ele>1439.60</ele>
	<time>2025-07-30T07:36:09.000Z</time>
</trkpt>
<trkpt lat="46.0488890" lon="10.3211620">
	<ele>1439.40</ele>
	<time>2025-07-30T07:36:10.000Z</time>
</trkpt>
<trkpt lat="46.0488920" lon="10.3211810">
	<ele>1439.20</ele>
	<time>2025-07-30T07:36:11.000Z</time>
</trkpt>
<trkpt lat="46.0488920" lon="10.3212010">
	<ele>1438.60</ele>
	<time>2025-07-30T07:36:12.000Z</time>
</trkpt>
<trkpt lat="46.0488910" lon="10.3212250">
	<ele>1438.40</ele>
	<time>2025-07-30T07:36:13.000Z</time>
</trkpt>
<trkpt lat="46.0488930" lon="10.3212470">
	<ele>1438.00</ele>
	<time>2025-07-30T07:36:14.000Z</time>
</trkpt>
<trkpt lat="46.0488920" lon="10.3212650">
	<ele>1437.60</ele>
	<time>2025-07-30T07:36:15.000Z</time>
</trkpt>
<trkpt lat="46.0488950" lon="10.3212830">
	<ele>1437.60</ele>
	<time>2025-07-30T07:36:16.000Z</time>
</trkpt>
<trkpt lat="46.0488970" lon="10.3213030">
	<ele>1437.40</ele>
	<time>2025-07-30T07:36:17.000Z</time>
</trkpt>
<trkpt lat="46.0488960" lon="10.3213230">
	<ele>1437.00</ele>
	<time>2025-07-30T07:36:18.000Z</time>
</trkpt>
<trkpt lat="46.0488950" lon="10.3213440">
	<ele>1436.80</ele>
	<time>2025-07-30T07:36:19.000Z</time>
</trkpt>
<trkpt lat="46.0488950" lon="10.3213630">
	<ele>1436.60</ele>
	<time>2025-07-30T07:36:20.000Z</time>
</trkpt>
<trkpt lat="46.0488900" lon="10.3213800">
	<ele>1436.40</ele>
	<time>2025-07-30T07:36:21.000Z</time>
</trkpt>
<trkpt lat="46.0488880" lon="10.3213970">
	<ele>1436.20</ele>
	<time>2025-07-30T07:36:22.000Z</time>
</trkpt>
<trkpt lat="46.0488860" lon="10.3214150">
	<ele>1435.80</ele>
	<time>2025-07-30T07:36:23.000Z</time>
</trkpt>
<trkpt lat="46.0488840" lon="10.3214280">
	<ele>1435.40</ele>
	<time>2025-07-30T07:36:24.000Z</time>
</trkpt>
<trkpt lat="46.0488830" lon="10.3214410">
	<ele>1435.20</ele>
	<time>2025-07-30T07:36:25.000Z</time>
</trkpt>
<trkpt lat="46.0488870" lon="10.3214570">
	<ele>1435.00</ele>
	<time>2025-07-30T07:36:26.000Z</time>
</trkpt>
<trkpt lat="46.0488880" lon="10.3214710">
	<ele>1434.80</ele>
	<time>2025-07-30T07:36:27.000Z</time>
</trkpt>
<trkpt lat="46.0488860" lon="10.3214860">
	<ele>1434.60</ele>
	<time>2025-07-30T07:36:28.000Z</time>
</trkpt>
<trkpt lat="46.0488860" lon="10.3215020">
	<ele>1434.40</ele>
	<time>2025-07-30T07:36:29.000Z</time>
</trkpt>
<trkpt lat="46.0488850" lon="10.3215190">
	<ele>1434.00</ele>
	<time>2025-07-30T07:36:30.000Z</time>
</trkpt>
<trkpt lat="46.0488860" lon="10.3215350">
	<ele>1433.80</ele>
	<time>2025-07-30T07:36:31.000Z</time>
</trkpt>
<trkpt lat="46.0488910" lon="10.3215480">
	<ele>1433.60</ele>
	<time>2025-07-30T07:36:32.000Z</time>
</trkpt>
<trkpt lat="46.0488930" lon="10.3215600">
	<ele>1433.20</ele>
	<time>2025-07-30T07:36:33.000Z</time>
</trkpt>
<trkpt lat="46.0488930" lon="10.3215740">
	<ele>1433.00</ele>
	<time>2025-07-30T07:36:34.000Z</time>
</trkpt>
<trkpt lat="46.0488920" lon="10.3215910">
	<ele>1432.80</ele>
	<time>2025-07-30T07:36:35.000Z</time>
</trkpt>
<trkpt lat="46.0488910" lon="10.3216050">
	<ele>1432.40</ele>
	<time>2025-07-30T07:36:36.000Z</time>
</trkpt>
<trkpt lat="46.0488910" lon="10.3216150">
	<ele>1432.20</ele>
	<time>2025-07-30T07:36:37.000Z</time>
</trkpt>
<trkpt lat="46.0488900" lon="10.3216320">
	<ele>1432.00</ele>
	<time>2025-07-30T07:36:38.000Z</time>
</trkpt>
<trkpt lat="46.0488870" lon="10.3216470">
	<ele>1432.00</ele>
	<time>2025-07-30T07:36:39.000Z</time>
</trkpt>
<trkpt lat="46.0488830" lon="10.3216630">
	<ele>1431.80</ele>
	<time>2025-07-30T07:36:40.000Z</time>
</trkpt>
<trkpt lat="46.0488810" lon="10.3216800">
	<ele>1431.60</ele>
	<time>2025-07-30T07:36:41.000Z</time>
</trkpt>
<trkpt lat="46.0488760" lon="10.3216960">
	<ele>1431.40</ele>
	<time>2025-07-30T07:36:42.000Z</time>
</trkpt>
<trkpt lat="46.0488740" lon="10.3217140">
	<ele>1431.00</ele>
	<time>2025-07-30T07:36:43.000Z</time>
</trkpt>
<trkpt lat="46.0488770" lon="10.3217270">
	<ele>1430.80</ele>
	<time>2025-07-30T07:36:44.000Z</time>
</trkpt>
<trkpt lat="46.0488870" lon="10.3217390">
	<ele>1430.60</ele>
	<time>2025-07-30T07:36:45.000Z</time>
</trkpt>
<trkpt lat="46.0488920" lon="10.3217520">
	<ele>1430.60</ele>
	<time>2025-07-30T07:36:46.000Z</time>
</trkpt>
<trkpt lat="46.0488990" lon="10.3217640">
	<ele>1430.40</ele>
	<time>2025-07-30T07:36:47.000Z</time>
</trkpt>
<trkpt lat="46.0489070" lon="10.3217800">
	<ele>1430.20</ele>
	<time>2025-07-30T07:36:48.000Z</time>
</trkpt>
<trkpt lat="46.0489130" lon="10.3217980">
	<ele>1430.20</ele>
	<time>2025-07-30T07:36:49.000Z</time>
</trkpt>
<trkpt lat="46.0489130" lon="10.3218170">
	<ele>1430.00</ele>
	<time>2025-07-30T07:36:50.000Z</time>
</trkpt>
<trkpt lat="46.0489160" lon="10.3218350">
	<ele>1430.00</ele>
	<time>2025-07-30T07:36:51.000Z</time>
</trkpt>
<trkpt lat="46.0489160" lon="10.3218520">
	<ele>1429.80</ele>
	<time>2025-07-30T07:36:52.000Z</time>
</trkpt>
<trkpt lat="46.0489100" lon="10.3218670">
	<ele>1429.80</ele>
	<time>2025-07-30T07:36:53.000Z</time>
</trkpt>
<trkpt lat="46.0489090" lon="10.3218810">
	<ele>1429.60</ele>
	<time>2025-07-30T07:36:54.000Z</time>
</trkpt>
<trkpt lat="46.0489040" lon="10.3218950">
	<ele>1429.60</ele>
	<time>2025-07-30T07:36:55.000Z</time>
</trkpt>
<trkpt lat="46.0489050" lon="10.3219170">
	<ele>1429.40</ele>
	<time>2025-07-30T07:36:56.000Z</time>
</trkpt>
<trkpt lat="46.0489000" lon="10.3219360">
	<ele>1429.40</ele>
	<time>2025-07-30T07:36:57.000Z</time>
</trkpt>
<trkpt lat="46.0488950" lon="10.3219560">
	<ele>1429.20</ele>
	<time>2025-07-30T07:36:58.000Z</time>
</trkpt>
<trkpt lat="46.0488960" lon="10.3219750">
	<ele>1429.20</ele>
	<time>2025-07-30T07:36:59.000Z</time>
</trkpt>
<trkpt lat="46.0488940" lon="10.3219990">
	<ele>1429.00</ele>
	<time>2025-07-30T07:37:00.000Z</time>
</trkpt>
<trkpt lat="46.0488930" lon="10.3220160">
	<ele>1428.80</ele>
	<time>2025-07-30T07:37:01.000Z</time>
</trkpt>
<trkpt lat="46.0488890" lon="10.3220300">
	<ele>1428.60</ele>
	<time>2025-07-30T07:37:02.000Z</time>
</trkpt>
<trkpt lat="46.0488830" lon="10.3220460">
	<ele>1428.60</ele>
	<time>2025-07-30T07:37:03.000Z</time>
</trkpt>
<trkpt lat="46.0488770" lon="10.3220630">
	<ele>1428.60</ele>
	<time>2025-07-30T07:37:04.000Z</time>
</trkpt>
<trkpt lat="46.0488730" lon="10.3220820">
	<ele>1428.40</ele>
	<time>2025-07-30T07:37:05.000Z</time>
</trkpt>
<trkpt lat="46.0488730" lon="10.3220970">
	<ele>1428.40</ele>
	<time>2025-07-30T07:37:06.000Z</time>
</trkpt>
<trkpt lat="46.0488670" lon="10.3221110">
	<ele>1428.20</ele>
	<time>2025-07-30T07:37:07.000Z</time>
</trkpt>
<trkpt lat="46.0488550" lon="10.3221250">
	<ele>1428.00</ele>
	<time>2025-07-30T07:37:08.000Z</time>
</trkpt>
<trkpt lat="46.0488410" lon="10.3221390">
	<ele>1428.00</ele>
	<time>2025-07-30T07:37:09.000Z</time>
</trkpt>
<trkpt lat="46.0488280" lon="10.3221530">
	<ele>1428.00</ele>
	<time>2025-07-30T07:37:10.000Z</time>
</trkpt>
<trkpt lat="46.0488250" lon="10.3221720">
	<ele>1427.80</ele>
	<time>2025-07-30T07:37:11.000Z</time>
</trkpt>
<trkpt lat="46.0488250" lon="10.3221870">
	<ele>1427.60</ele>
	<time>2025-07-30T07:37:12.000Z</time>
</trkpt>
<trkpt lat="46.0488180" lon="10.3222060">
	<ele>1427.40</ele>
	<time>2025-07-30T07:37:13.000Z</time>
</trkpt>
<trkpt lat="46.0488150" lon="10.3222290">
	<ele>1427.40</ele>
	<time>2025-07-30T07:37:14.000Z</time>
</trkpt>
<trkpt lat="46.0488130" lon="10.3222480">
	<ele>1427.40</ele>
	<time>2025-07-30T07:37:15.000Z</time>
</trkpt>
<trkpt lat="46.0488100" lon="10.3222650">
	<ele>1427.20</ele>
	<time>2025-07-30T07:37:16.000Z</time>
</trkpt>
<trkpt lat="46.0488080" lon="10.3222810">
	<ele>1427.20</ele>
	<time>2025-07-30T07:37:17.000Z</time>
</trkpt>
<trkpt lat="46.0488070" lon="10.3222940">
	<ele>1427.20</ele>
	<time>2025-07-30T07:37:18.000Z</time>
</trkpt>
<trkpt lat="46.0488070" lon="10.3223070">
	<ele>1427.20</ele>
	<time>2025-07-30T07:37:19.000Z</time>
</trkpt>
<trkpt lat="46.0488080" lon="10.3223240">
	<ele>1427.00</ele>
	<time>2025-07-30T07:37:20.000Z</time>
</trkpt>
<trkpt lat="46.0488040" lon="10.3223410">
	<ele>1426.80</ele>
	<time>2025-07-30T07:37:21.000Z</time>
</trkpt>
<trkpt lat="46.0488060" lon="10.3223650">
	<ele>1426.80</ele>
	<time>2025-07-30T07:37:22.000Z</time>
</trkpt>
<trkpt lat="46.0488070" lon="10.3223900">
	<ele>1426.60</ele>
	<time>2025-07-30T07:37:23.000Z</time>
</trkpt>
<trkpt lat="46.0488050" lon="10.3224110">
	<ele>1426.40</ele>
	<time>2025-07-30T07:37:24.000Z</time>
</trkpt>
<trkpt lat="46.0488040" lon="10.3224300">
	<ele>1426.20</ele>
	<time>2025-07-30T07:37:25.000Z</time>
</trkpt>
<trkpt lat="46.0488010" lon="10.3224470">
	<ele>1426.20</ele>
	<time>2025-07-30T07:37:26.000Z</time>
</trkpt>
<trkpt lat="46.0488000" lon="10.3224640">
	<ele>1426.20</ele>
	<time>2025-07-30T07:37:27.000Z</time>
</trkpt>
<trkpt lat="46.0488010" lon="10.3224830">
	<ele>1426.20</ele>
	<time>2025-07-30T07:37:28.000Z</time>
</trkpt>
<trkpt lat="46.0488090" lon="10.3225030">
	<ele>1426.20</ele>
	<time>2025-07-30T07:37:29.000Z</time>
</trkpt>
<trkpt lat="46.0488150" lon="10.3225220">
	<ele>1426.20</ele>
	<time>2025-07-30T07:37:30.000Z</time>
</trkpt>
<trkpt lat="46.0488210" lon="10.3225400">
	<ele>1426.20</ele>
	<time>2025-07-30T07:37:31.000Z</time>
</trkpt>
<trkpt lat="46.0488260" lon="10.3225570">
	<ele>1426.20</ele>
	<time>2025-07-30T07:37:32.000Z</time>
</trkpt>
<trkpt lat="46.0488280" lon="10.3225760">
	<ele>1426.20</ele>
	<time>2025-07-30T07:37:33.000Z</time>
</trkpt>
<trkpt lat="46.0488340" lon="10.3225950">
	<ele>1426.20</ele>
	<time>2025-07-30T07:37:34.000Z</time>
</trkpt>
<trkpt lat="46.0488330" lon="10.3226100">
	<ele>1426.20</ele>
	<time>2025-07-30T07:37:35.000Z</time>
</trkpt>
<trkpt lat="46.0488370" lon="10.3226270">
	<ele>1426.00</ele>
	<time>2025-07-30T07:37:36.000Z</time>
</trkpt>
<trkpt lat="46.0488380" lon="10.3226410">
	<ele>1425.80</ele>
	<time>2025-07-30T07:37:37.000Z</time>
</trkpt>
<trkpt lat="46.0488380" lon="10.3226610">
	<ele>1425.80</ele>
	<time>2025-07-30T07:37:38.000Z</time>
</trkpt>
<trkpt lat="46.0488450" lon="10.3226790">
	<ele>1425.60</ele>
	<time>2025-07-30T07:37:39.000Z</time>
</trkpt>
<trkpt lat="46.0488530" lon="10.3226970">
	<ele>1425.60</ele>
	<time>2025-07-30T07:37:40.000Z</time>
</trkpt>
<trkpt lat="46.0488510" lon="10.3227150">
	<ele>1425.60</ele>
	<time>2025-07-30T07:37:41.000Z</time>
</trkpt>
<trkpt lat="46.0488520" lon="10.3227310">
	<ele>1425.60</ele>
	<time>2025-07-30T07:37:42.000Z</time>
</trkpt>
<trkpt lat="46.0488480" lon="10.3227470">
	<ele>1425.80</ele>
	<time>2025-07-30T07:37:43.000Z</time>
</trkpt>
<trkpt lat="46.0488510" lon="10.3227670">
	<ele>1425.80</ele>
	<time>2025-07-30T07:37:44.000Z</time>
</trkpt>
<trkpt lat="46.0488570" lon="10.3227860">
	<ele>1425.80</ele>
	<time>2025-07-30T07:37:45.000Z</time>
</trkpt>
<trkpt lat="46.0488600" lon="10.3228010">
	<ele>1425.80</ele>
	<time>2025-07-30T07:37:46.000Z</time>
</trkpt>
<trkpt lat="46.0488580" lon="10.3228180">
	<ele>1425.80</ele>
	<time>2025-07-30T07:37:47.000Z</time>
</trkpt>
<trkpt lat="46.0488460" lon="10.3228310">
	<ele>1425.60</ele>
	<time>2025-07-30T07:37:48.000Z</time>
</trkpt>
<trkpt lat="46.0488370" lon="10.3228470">
	<ele>1425.40</ele>
	<time>2025-07-30T07:37:49.000Z</time>
</trkpt>
<trkpt lat="46.0488310" lon="10.3228690">
	<ele>1425.40</ele>
	<time>2025-07-30T07:37:50.000Z</time>
</trkpt>
<trkpt lat="46.0488290" lon="10.3228890">
	<ele>1425.20</ele>
	<time>2025-07-30T07:37:51.000Z</time>
</trkpt>
<trkpt lat="46.0488280" lon="10.3229080">
	<ele>1424.60</ele>
	<time>2025-07-30T07:37:52.000Z</time>
</trkpt>
<trkpt lat="46.0488330" lon="10.3229270">
	<ele>1424.40</ele>
	<time>2025-07-30T07:37:53.000Z</time>
</trkpt>
<trkpt lat="46.0488400" lon="10.3229390">
	<ele>1424.20</ele>
	<time>2025-07-30T07:37:54.000Z</time>
</trkpt>
<trkpt lat="46.0488410" lon="10.3229580">
	<ele>1423.80</ele>
	<time>2025-07-30T07:37:55.000Z</time>
</trkpt>
<trkpt lat="46.0488430" lon="10.3229770">
	<ele>1423.60</ele>
	<time>2025-07-30T07:37:56.000Z</time>
</trkpt>
<trkpt lat="46.0488440" lon="10.3229950">
	<ele>1423.40</ele>
	<time>2025-07-30T07:37:57.000Z</time>
</trkpt>
<trkpt lat="46.0488460" lon="10.3230120">
	<ele>1423.00</ele>
	<time>2025-07-30T07:37:58.000Z</time>
</trkpt>
<trkpt lat="46.0488500" lon="10.3230320">
	<ele>1422.80</ele>
	<time>2025-07-30T07:37:59.000Z</time>
</trkpt>
<trkpt lat="46.0488550" lon="10.3230520">
	<ele>1422.40</ele>
	<time>2025-07-30T07:38:00.000Z</time>
</trkpt>
<trkpt lat="46.0488560" lon="10.3230710">
	<ele>1422.20</ele>
	<time>2025-07-30T07:38:01.000Z</time>
</trkpt>
<trkpt lat="46.0488600" lon="10.3230900">
	<ele>1421.80</ele>
	<time>2025-07-30T07:38:02.000Z</time>
</trkpt>
<trkpt lat="46.0488630" lon="10.3231080">
	<ele>1421.60</ele>
	<time>2025-07-30T07:38:03.000Z</time>
</trkpt>
<trkpt lat="46.0488710" lon="10.3231260">
	<ele>1421.40</ele>
	<time>2025-07-30T07:38:04.000Z</time>
</trkpt>
<trkpt lat="46.0488800" lon="10.3231420">
	<ele>1421.20</ele>
	<time>2025-07-30T07:38:05.000Z</time>
</trkpt>
<trkpt lat="46.0488870" lon="10.3231570">
	<ele>1420.80</ele>
	<time>2025-07-30T07:38:06.000Z</time>
</trkpt>
<trkpt lat="46.0488950" lon="10.3231730">
	<ele>1420.60</ele>
	<time>2025-07-30T07:38:07.000Z</time>
</trkpt>
<trkpt lat="46.0489050" lon="10.3231850">
	<ele>1420.40</ele>
	<time>2025-07-30T07:38:08.000Z</time>
</trkpt>
<trkpt lat="46.0489090" lon="10.3231980">
	<ele>1420.20</ele>
	<time>2025-07-30T07:38:09.000Z</time>
</trkpt>
<trkpt lat="46.0489160" lon="10.3232140">
	<ele>1420.20</ele>
	<time>2025-07-30T07:38:10.000Z</time>
</trkpt>
<trkpt lat="46.0489270" lon="10.3232280">
	<ele>1420.00</ele>
	<time>2025-07-30T07:38:11.000Z</time>
</trkpt>
<trkpt lat="46.0489350" lon="10.3232400">
	<ele>1419.80</ele>
	<time>2025-07-30T07:38:12.000Z</time>
</trkpt>
<trkpt lat="46.0489390" lon="10.3232540">
	<ele>1419.80</ele>
	<time>2025-07-30T07:38:13.000Z</time>
</trkpt>
<trkpt lat="46.0489420" lon="10.3232680">
	<ele>1419.60</ele>
	<time>2025-07-30T07:38:14.000Z</time>
</trkpt>
<trkpt lat="46.0489450" lon="10.3232870">
	<ele>1419.60</ele>
	<time>2025-07-30T07:38:15.000Z</time>
</trkpt>
<trkpt lat="46.0489470" lon="10.3233050">
	<ele>1419.60</ele>
	<time>2025-07-30T07:38:16.000Z</time>
</trkpt>
<trkpt lat="46.0489520" lon="10.3233210">
	<ele>1419.20</ele>
	<time>2025-07-30T07:38:17.000Z</time>
</trkpt>
<trkpt lat="46.0489570" lon="10.3233370">
	<ele>1418.80</ele>
	<time>2025-07-30T07:38:18.000Z</time>
</trkpt>
<trkpt lat="46.0489630" lon="10.3233540">
	<ele>1418.60</ele>
	<time>2025-07-30T07:38:19.000Z</time>
</trkpt>
<trkpt lat="46.0489650" lon="10.3233680">
	<ele>1418.40</ele>
	<time>2025-07-30T07:38:20.000Z</time>
</trkpt>
<trkpt lat="46.0489730" lon="10.3233850">
	<ele>1418.00</ele>
	<time>2025-07-30T07:38:21.000Z</time>
</trkpt>
<trkpt lat="46.0489830" lon="10.3234020">
	<ele>1417.80</ele>
	<time>2025-07-30T07:38:22.000Z</time>
</trkpt>
<trkpt lat="46.0489830" lon="10.3234180">
	<ele>1417.60</ele>
	<time>2025-07-30T07:38:23.000Z</time>
</trkpt>
<trkpt lat="46.0489840" lon="10.3234340">
	<ele>1417.20</ele>
	<time>2025-07-30T07:38:24.000Z</time>
</trkpt>
<trkpt lat="46.0489860" lon="10.3234490">
	<ele>1417.00</ele>
	<time>2025-07-30T07:38:25.000Z</time>
</trkpt>
<trkpt lat="46.0489900" lon="10.3234620">
	<ele>1416.80</ele>
	<time>2025-07-30T07:38:26.000Z</time>
</trkpt>
<trkpt lat="46.0489930" lon="10.3234750">
	<ele>1416.80</ele>
	<time>2025-07-30T07:38:27.000Z</time>
</trkpt>
<trkpt lat="46.0489890" lon="10.3234880">
	<ele>1416.40</ele>
	<time>2025-07-30T07:38:28.000Z</time>
</trkpt>
<trkpt lat="46.0489840" lon="10.3235050">
	<ele>1416.00</ele>
	<time>2025-07-30T07:38:29.000Z</time>
</trkpt>
<trkpt lat="46.0489800" lon="10.3235250">
	<ele>1415.60</ele>
	<time>2025-07-30T07:38:30.000Z</time>
</trkpt>
<trkpt lat="46.0489750" lon="10.3235430">
	<ele>1415.40</ele>
	<time>2025-07-30T07:38:31.000Z</time>
</trkpt>
<trkpt lat="46.0489670" lon="10.3235640">
	<ele>1415.20</ele>
	<time>2025-07-30T07:38:32.000Z</time>
</trkpt>
<trkpt lat="46.0489660" lon="10.3235830">
	<ele>1415.00</ele>
	<time>2025-07-30T07:38:33.000Z</time>
</trkpt>
<trkpt lat="46.0489630" lon="10.3235960">
	<ele>1414.80</ele>
	<time>2025-07-30T07:38:34.000Z</time>
</trkpt>
<trkpt lat="46.0489580" lon="10.3236070">
	<ele>1414.60</ele>
	<time>2025-07-30T07:38:35.000Z</time>
</trkpt>
<trkpt lat="46.0489530" lon="10.3236200">
	<ele>1414.40</ele>
	<time>2025-07-30T07:38:36.000Z</time>
</trkpt>
<trkpt lat="46.0489460" lon="10.3236350">
	<ele>1414.20</ele>
	<time>2025-07-30T07:38:37.000Z</time>
</trkpt>
<trkpt lat="46.0489400" lon="10.3236480">
	<ele>1414.00</ele>
	<time>2025-07-30T07:38:38.000Z</time>
</trkpt>
<trkpt lat="46.0489390" lon="10.3236640">
	<ele>1413.80</ele>
	<time>2025-07-30T07:38:39.000Z</time>
</trkpt>
<trkpt lat="46.0489350" lon="10.3236800">
	<ele>1413.40</ele>
	<time>2025-07-30T07:38:40.000Z</time>
</trkpt>
<trkpt lat="46.0489360" lon="10.3237000">
	<ele>1413.20</ele>
	<time>2025-07-30T07:38:41.000Z</time>
</trkpt>
<trkpt lat="46.0489260" lon="10.3237190">
	<ele>1413.00</ele>
	<time>2025-07-30T07:38:42.000Z</time>
</trkpt>
<trkpt lat="46.0489200" lon="10.3237300">
	<ele>1412.80</ele>
	<time>2025-07-30T07:38:43.000Z</time>
</trkpt>
<trkpt lat="46.0489170" lon="10.3237440">
	<ele>1412.60</ele>
	<time>2025-07-30T07:38:44.000Z</time>
</trkpt>
<trkpt lat="46.0489160" lon="10.3237600">
	<ele>1412.40</ele>
	<time>2025-07-30T07:38:45.000Z</time>
</trkpt>
<trkpt lat="46.0489110" lon="10.3237760">
	<ele>1412.40</ele>
	<time>2025-07-30T07:38:46.000Z</time>
</trkpt>
<trkpt lat="46.0489060" lon="10.3237890">
	<ele>1412.00</ele>
	<time>2025-07-30T07:38:47.000Z</time>
</trkpt>
<trkpt lat="46.0489050" lon="10.3238010">
	<ele>1411.80</ele>
	<time>2025-07-30T07:38:48.000Z</time>
</trkpt>
<trkpt lat="46.0489060" lon="10.3238140">
	<ele>1411.60</ele>
	<time>2025-07-30T07:38:49.000Z</time>
</trkpt>
<trkpt lat="46.0489040" lon="10.3238200">
	<ele>1411.20</ele>
	<time>2025-07-30T07:38:50.000Z</time>
</trkpt>
<trkpt lat="46.0489050" lon="10.3238370">
	<ele>1411.00</ele>
	<time>2025-07-30T07:38:51.000Z</time>
</trkpt>
<trkpt lat="46.0489010" lon="10.3238540">
	<ele>1410.80</ele>
	<time>2025-07-30T07:38:52.000Z</time>
</trkpt>
<trkpt lat="46.0488970" lon="10.3238700">
	<ele>1410.40</ele>
	<time>2025-07-30T07:38:53.000Z</time>
</trkpt>
<trkpt lat="46.0488940" lon="10.3238830">
	<ele>1410.20</ele>
	<time>2025-07-30T07:38:54.000Z</time>
</trkpt>
<trkpt lat="46.0488900" lon="10.3238950">
	<ele>1410.00</ele>
	<time>2025-07-30T07:38:55.000Z</time>
</trkpt>
<trkpt lat="46.0488890" lon="10.3239150">
	<ele>1409.60</ele>
	<time>2025-07-30T07:38:56.000Z</time>
</trkpt>
<trkpt lat="46.0488830" lon="10.3239330">
	<ele>1409.40</ele>
	<time>2025-07-30T07:38:57.000Z</time>
</trkpt>
<trkpt lat="46.0488730" lon="10.3239530">
	<ele>1409.20</ele>
	<time>2025-07-30T07:38:58.000Z</time>
</trkpt>
<trkpt lat="46.0488670" lon="10.3239700">
	<ele>1409.00</ele>
	<time>2025-07-30T07:38:59.000Z</time>
</trkpt>
<trkpt lat="46.0488620" lon="10.3239840">
	<ele>1408.80</ele>
	<time>2025-07-30T07:39:00.000Z</time>
</trkpt>
<trkpt lat="46.0488550" lon="10.3239970">
	<ele>1408.60</ele>
	<time>2025-07-30T07:39:01.000Z</time>
</trkpt>
<trkpt lat="46.0488480" lon="10.3240080">
	<ele>1408.60</ele>
	<time>2025-07-30T07:39:02.000Z</time>
</trkpt>
<trkpt lat="46.0488440" lon="10.3240160">
	<ele>1408.40</ele>
	<time>2025-07-30T07:39:03.000Z</time>
</trkpt>
<trkpt lat="46.0488390" lon="10.3240240">
	<ele>1408.20</ele>
	<time>2025-07-30T07:39:04.000Z</time>
</trkpt>
<trkpt lat="46.0488300" lon="10.3240240">
	<ele>1408.00</ele>
	<time>2025-07-30T07:39:05.000Z</time>
</trkpt>
<trkpt lat="46.0488170" lon="10.3240260">
	<ele>1408.00</ele>
	<time>2025-07-30T07:39:06.000Z</time>
</trkpt>
<trkpt lat="46.0488050" lon="10.3240360">
	<ele>1407.80</ele>
	<time>2025-07-30T07:39:07.000Z</time>
</trkpt>
<trkpt lat="46.0488010" lon="10.3240450">
	<ele>1407.80</ele>
	<time>2025-07-30T07:39:08.000Z</time>
</trkpt>
<trkpt lat="46.0487950" lon="10.3240600">
	<ele>1407.80</ele>
	<time>2025-07-30T07:39:09.000Z</time>
</trkpt>
<trkpt lat="46.0487890" lon="10.3240710">
	<ele>1407.60</ele>
	<time>2025-07-30T07:39:10.000Z</time>
</trkpt>
<trkpt lat="46.0487730" lon="10.3240780">
	<ele>1407.60</ele>
	<time>2025-07-30T07:39:11.000Z</time>
</trkpt>
<trkpt lat="46.0487570" lon="10.3240790">
	<ele>1407.40</ele>
	<time>2025-07-30T07:39:12.000Z</time>
</trkpt>
<trkpt lat="46.0487490" lon="10.3240800">
	<ele>1407.40</ele>
	<time>2025-07-30T07:39:13.000Z</time>
</trkpt>
<trkpt lat="46.0487440" lon="10.3240750">
	<ele>1407.20</ele>
	<time>2025-07-30T07:39:14.000Z</time>
</trkpt>
<trkpt lat="46.0487470" lon="10.3240720">
	<ele>1407.20</ele>
	<time>2025-07-30T07:39:15.000Z</time>
</trkpt>
<trkpt lat="46.0487580" lon="10.3240650">
	<ele>1407.00</ele>
	<time>2025-07-30T07:39:16.000Z</time>
</trkpt>
<trkpt lat="46.0487570" lon="10.3240600">
	<ele>1407.00</ele>
	<time>2025-07-30T07:39:17.000Z</time>
</trkpt>
<trkpt lat="46.0487560" lon="10.3240570">
	<ele>1407.00</ele>
	<time>2025-07-30T07:39:18.000Z</time>
</trkpt>
<trkpt lat="46.0487590" lon="10.3240600">
	<ele>1407.00</ele>
	<time>2025-07-30T07:39:19.000Z</time>
</trkpt>
<trkpt lat="46.0487570" lon="10.3240590">
	<ele>1407.00</ele>
	<time>2025-07-30T07:39:20.000Z</time>
</trkpt>
<trkpt lat="46.0487550" lon="10.3240610">
	<ele>1407.00</ele>
	<time>2025-07-30T07:39:21.000Z</time>
</trkpt>
<trkpt lat="46.0487540" lon="10.3240640">
	<ele>1406.80</ele>
	<time>2025-07-30T07:39:22.000Z</time>
</trkpt>
<trkpt lat="46.0487530" lon="10.3240640">
	<ele>1407.00</ele>
	<time>2025-07-30T07:39:23.000Z</time>
</trkpt>
<trkpt lat="46.0487510" lon="10.3240650">
	<ele>1407.00</ele>
	<time>2025-07-30T07:39:24.000Z</time>
</trkpt>
<trkpt lat="46.0487470" lon="10.3240650">
	<ele>1407.00</ele>
	<time>2025-07-30T07:39:25.000Z</time>
</trkpt>
<trkpt lat="46.0487450" lon="10.3240660">
	<ele>1407.00</ele>
	<time>2025-07-30T07:39:26.000Z</time>
</trkpt>
<trkpt lat="46.0487430" lon="10.3240680">
	<ele>1407.20</ele>
	<time>2025-07-30T07:39:27.000Z</time>
</trkpt>
<trkpt lat="46.0487510" lon="10.3240680">
	<ele>1407.40</ele>
	<time>2025-07-30T07:39:28.000Z</time>
</trkpt>
<trkpt lat="46.0487580" lon="10.3240630">
	<ele>1407.40</ele>
	<time>2025-07-30T07:39:29.000Z</time>
</trkpt>
<trkpt lat="46.0487590" lon="10.3240530">
	<ele>1407.40</ele>
	<time>2025-07-30T07:39:30.000Z</time>
</trkpt>
<trkpt lat="46.0487550" lon="10.3240600">
	<ele>1407.40</ele>
	<time>2025-07-30T07:39:31.000Z</time>
</trkpt>
<trkpt lat="46.0487440" lon="10.3240550">
	<ele>1407.40</ele>
	<time>2025-07-30T07:39:32.000Z</time>
</trkpt>
<trkpt lat="46.0487330" lon="10.3240620">
	<ele>1407.40</ele>
	<time>2025-07-30T07:39:33.000Z</time>
</trkpt>
<trkpt lat="46.0487230" lon="10.3240730">
	<ele>1407.40</ele>
	<time>2025-07-30T07:39:34.000Z</time>
</trkpt>
<trkpt lat="46.0487150" lon="10.3240770">
	<ele>1407.20</ele>
	<time>2025-07-30T07:39:35.000Z</time>
</trkpt>
<trkpt lat="46.0487110" lon="10.3240720">
	<ele>1407.00</ele>
	<time>2025-07-30T07:39:36.000Z</time>
</trkpt>
<trkpt lat="46.0487030" lon="10.3240610">
	<ele>1406.80</ele>
	<time>2025-07-30T07:39:37.000Z</time>
</trkpt>
<trkpt lat="46.0486930" lon="10.3240610">
	<ele>1406.80</ele>
	<time>2025-07-30T07:39:38.000Z</time>
</trkpt>
<trkpt lat="46.0486860" lon="10.3240650">
	<ele>1406.60</ele>
	<time>2025-07-30T07:39:39.000Z</time>
</trkpt>
<trkpt lat="46.0486820" lon="10.3240750">
	<ele>1406.60</ele>
	<time>2025-07-30T07:39:40.000Z</time>
</trkpt>
<trkpt lat="46.0486750" lon="10.3240820">
	<ele>1406.40</ele>
	<time>2025-07-30T07:39:41.000Z</time>
</trkpt>
<trkpt lat="46.0486670" lon="10.3240870">
	<ele>1406.40</ele>
	<time>2025-07-30T07:39:42.000Z</time>
</trkpt>
<trkpt lat="46.0486540" lon="10.3240930">
	<ele>1406.40</ele>
	<time>2025-07-30T07:39:43.000Z</time>
</trkpt>
<trkpt lat="46.0486480" lon="10.3240990">
	<ele>1406.40</ele>
	<time>2025-07-30T07:39:44.000Z</time>
</trkpt>
<trkpt lat="46.0486370" lon="10.3241020">
	<ele>1406.20</ele>
	<time>2025-07-30T07:39:45.000Z</time>
</trkpt>
<trkpt lat="46.0486230" lon="10.3241050">
	<ele>1406.20</ele>
	<time>2025-07-30T07:39:46.000Z</time>
</trkpt>
<trkpt lat="46.0486190" lon="10.3241060">
	<ele>1406.20</ele>
	<time>2025-07-30T07:39:47.000Z</time>
</trkpt>
<trkpt lat="46.0486150" lon="10.3241100">
	<ele>1406.00</ele>
	<time>2025-07-30T07:39:48.000Z</time>
</trkpt>
<trkpt lat="46.0486100" lon="10.3241080">
	<ele>1406.00</ele>
	<time>2025-07-30T07:39:49.000Z</time>
</trkpt>
<trkpt lat="46.0486070" lon="10.3241050">
	<ele>1405.80</ele>
	<time>2025-07-30T07:39:50.000Z</time>
</trkpt>
<trkpt lat="46.0486060" lon="10.3240990">
	<ele>1405.80</ele>
	<time>2025-07-30T07:39:51.000Z</time>
</trkpt>
<trkpt lat="46.0486060" lon="10.3240980">
	<ele>1405.80</ele>
	<time>2025-07-30T07:39:52.000Z</time>
</trkpt>
<trkpt lat="46.0485940" lon="10.3241000">
	<ele>1405.60</ele>
	<time>2025-07-30T07:39:53.000Z</time>
</trkpt>
<trkpt lat="46.0485910" lon="10.3241010">
	<ele>1405.60</ele>
	<time>2025-07-30T07:39:54.000Z</time>
</trkpt>
<trkpt lat="46.0485840" lon="10.3241080">
	<ele>1405.60</ele>
	<time>2025-07-30T07:39:55.000Z</time>
</trkpt>
<trkpt lat="46.0485850" lon="10.3241050">
	<ele>1405.60</ele>
	<time>2025-07-30T07:39:56.000Z</time>
</trkpt>
<trkpt lat="46.0485860" lon="10.3241010">
	<ele>1405.40</ele>
	<time>2025-07-30T07:39:57.000Z</time>
</trkpt>
<trkpt lat="46.0485860" lon="10.3240950">
	<ele>1405.40</ele>
	<time>2025-07-30T07:39:58.000Z</time>
</trkpt>
<trkpt lat="46.0485850" lon="10.3240930">
	<ele>1405.40</ele>
	<time>2025-07-30T07:39:59.000Z</time>
</trkpt>
<trkpt lat="46.0485830" lon="10.3240910">
	<ele>1405.40</ele>
	<time>2025-07-30T07:40:00.000Z</time>
</trkpt>
<trkpt lat="46.0485810" lon="10.3240900">
	<ele>1405.40</ele>
	<time>2025-07-30T07:40:01.000Z</time>
</trkpt>
<trkpt lat="46.0485800" lon="10.3240900">
	<ele>1405.40</ele>
	<time>2025-07-30T07:40:02.000Z</time>
</trkpt>
<trkpt lat="46.0485800" lon="10.3240930">
	<ele>1405.40</ele>
	<time>2025-07-30T07:40:03.000Z</time>
</trkpt>
<trkpt lat="46.0485790" lon="10.3240960">
	<ele>1405.40</ele>
	<time>2025-07-30T07:40:04.000Z</time>
</trkpt>
<trkpt lat="46.0485780" lon="10.3240960">
	<ele>1405.40</ele>
	<time>2025-07-30T07:40:05.000Z</time>
</trkpt>
<trkpt lat="46.0485780" lon="10.3240960">
	<ele>1405.40</ele>
	<time>2025-07-30T07:40:06.000Z</time>
</trkpt>
<trkpt lat="46.0485780" lon="10.3240960">
	<ele>1405.60</ele>
	<time>2025-07-30T07:40:07.000Z</time>
</trkpt>
<trkpt lat="46.0485780" lon="10.3240960">
	<ele>1405.60</ele>
	<time>2025-07-30T07:40:08.000Z</time>
</trkpt>
<trkpt lat="46.0485780" lon="10.3240960">
	<ele>1405.60</ele>
	<time>2025-07-30T07:40:09.000Z</time>
</trkpt>
<trkpt lat="46.0485780" lon="10.3240960">
	<ele>1405.60</ele>
	<time>2025-07-30T07:40:10.000Z</time>
</trkpt>
<trkpt lat="46.0485780" lon="10.3240960">
	<ele>1405.60</ele>
	<time>2025-07-30T07:40:11.000Z</time>
</trkpt>
<trkpt lat="46.0485780" lon="10.3240960">
	<ele>1405.60</ele>
	<time>2025-07-30T07:40:12.000Z</time>
</trkpt>
<trkpt lat="46.0485780" lon="10.3240960">
	<ele>1405.60</ele>
	<time>2025-07-30T07:40:13.000Z</time>
</trkpt>
<trkpt lat="46.0485780" lon="10.3240960">
	<ele>1405.60</ele>
	<time>2025-07-30T07:40:14.000Z</time>
</trkpt>
<trkpt lat="46.0485780" lon="10.3240960">
	<ele>1405.60</ele>
	<time>2025-07-30T07:40:15.000Z</time>
</trkpt>
<trkpt lat="46.0485780" lon="10.3240950">
	<ele>1405.60</ele>
	<time>2025-07-30T07:40:16.000Z</time>
</trkpt>
<trkpt lat="46.0485780" lon="10.3240940">
	<ele>1405.60</ele>
	<time>2025-07-30T07:40:17.000Z</time>
</trkpt>
<trkpt lat="46.0485780" lon="10.3240930">
	<ele>1405.60</ele>
	<time>2025-07-30T07:40:18.000Z</time>
</trkpt>
<trkpt lat="46.0485780" lon="10.3240930">
	<ele>1405.60</ele>
	<time>2025-07-30T07:40:19.000Z</time>
</trkpt>
<trkpt lat="46.0485780" lon="10.3240930">
	<ele>1405.60</ele>
	<time>2025-07-30T07:40:20.000Z</time>
</trkpt>
<trkpt lat="46.0485780" lon="10.3240930">
	<ele>1405.60</ele>
	<time>2025-07-30T07:40:21.000Z</time>
</trkpt>
<trkpt lat="46.0485780" lon="10.3240910">
	<ele>1405.60</ele>
	<time>2025-07-30T07:40:22.000Z</time>
</trkpt>
<trkpt lat="46.0485780" lon="10.3240910">
	<ele>1405.60</ele>
	<time>2025-07-30T07:40:23.000Z</time>
</trkpt>
<trkpt lat="46.0485780" lon="10.3240910">
	<ele>1405.60</ele>
	<time>2025-07-30T07:40:24.000Z</time>
</trkpt>
<trkpt lat="46.0485780" lon="10.3240910">
	<ele>1405.60</ele>
	<time>2025-07-30T07:40:25.000Z</time>
</trkpt>
<trkpt lat="46.0485780" lon="10.3240910">
	<ele>1405.60</ele>
	<time>2025-07-30T07:40:26.000Z</time>
</trkpt>
<trkpt lat="46.0485780" lon="10.3240910">
	<ele>1405.60</ele>
	<time>2025-07-30T07:40:27.000Z</time>
</trkpt>
<trkpt lat="46.0485780" lon="10.3240910">
	<ele>1405.60</ele>
	<time>2025-07-30T07:40:28.000Z</time>
</trkpt>
<trkpt lat="46.0485780" lon="10.3240910">
	<ele>1405.60</ele>
	<time>2025-07-30T07:40:29.000Z</time>
</trkpt>
<trkpt lat="46.0485770" lon="10.3240910">
	<ele>1405.60</ele>
	<time>2025-07-30T07:40:30.000Z</time>
</trkpt>
<trkpt lat="46.0485770" lon="10.3240930">
	<ele>1405.60</ele>
	<time>2025-07-30T07:40:31.000Z</time>
</trkpt>
<trkpt lat="46.0485770" lon="10.3240930">
	<ele>1405.60</ele>
	<time>2025-07-30T07:40:32.000Z</time>
</trkpt>
<trkpt lat="46.0485770" lon="10.3240930">
	<ele>1405.60</ele>
	<time>2025-07-30T07:40:33.000Z</time>
</trkpt>
<trkpt lat="46.0485770" lon="10.3240930">
	<ele>1405.60</ele>
	<time>2025-07-30T07:40:34.000Z</time>
</trkpt>
<trkpt lat="46.0485760" lon="10.3240930">
	<ele>1405.60</ele>
	<time>2025-07-30T07:40:35.000Z</time>
</trkpt>
<trkpt lat="46.0485750" lon="10.3240930">
	<ele>1405.60</ele>
	<time>2025-07-30T07:40:36.000Z</time>
</trkpt>
<trkpt lat="46.0485730" lon="10.3240990">
	<ele>1405.60</ele>
	<time>2025-07-30T07:40:37.000Z</time>
</trkpt>
<trkpt lat="46.0485700" lon="10.3241170">
	<ele>1405.80</ele>
	<time>2025-07-30T07:40:38.000Z</time>
</trkpt>
<trkpt lat="46.0485650" lon="10.3241320">
	<ele>1405.80</ele>
	<time>2025-07-30T07:40:39.000Z</time>
</trkpt>
<trkpt lat="46.0485620" lon="10.3241410">
	<ele>1405.80</ele>
	<time>2025-07-30T07:40:40.000Z</time>
</trkpt>
<trkpt lat="46.0485560" lon="10.3241470">
	<ele>1405.80</ele>
	<time>2025-07-30T07:40:41.000Z</time>
</trkpt>
<trkpt lat="46.0485410" lon="10.3241450">
	<ele>1405.80</ele>
	<time>2025-07-30T07:40:42.000Z</time>
</trkpt>
<trkpt lat="46.0485320" lon="10.3241460">
	<ele>1405.80</ele>
	<time>2025-07-30T07:40:43.000Z</time>
</trkpt>
<trkpt lat="46.0485230" lon="10.3241450">
	<ele>1405.80</ele>
	<time>2025-07-30T07:40:44.000Z</time>
</trkpt>
<trkpt lat="46.0485170" lon="10.3241450">
	<ele>1405.80</ele>
	<time>2025-07-30T07:40:45.000Z</time>
</trkpt>
<trkpt lat="46.0485090" lon="10.3241480">
	<ele>1405.60</ele>
	<time>2025-07-30T07:40:46.000Z</time>
</trkpt>
<trkpt lat="46.0485030" lon="10.3241460">
	<ele>1405.60</ele>
	<time>2025-07-30T07:40:47.000Z</time>
</trkpt>
<trkpt lat="46.0484950" lon="10.3241490">
	<ele>1405.60</ele>
	<time>2025-07-30T07:40:48.000Z</time>
</trkpt>
<trkpt lat="46.0484880" lon="10.3241400">
	<ele>1405.40</ele>
	<time>2025-07-30T07:40:49.000Z</time>
</trkpt>
<trkpt lat="46.0484730" lon="10.3241400">
	<ele>1405.20</ele>
	<time>2025-07-30T07:40:50.000Z</time>
</trkpt>
<trkpt lat="46.0484510" lon="10.3241450">
	<ele>1405.00</ele>
	<time>2025-07-30T07:40:51.000Z</time>
</trkpt>
<trkpt lat="46.0484400" lon="10.3241480">
	<ele>1404.60</ele>
	<time>2025-07-30T07:40:52.000Z</time>
</trkpt>
<trkpt lat="46.0484270" lon="10.3241490">
	<ele>1404.40</ele>
	<time>2025-07-30T07:40:53.000Z</time>
</trkpt>
<trkpt lat="46.0484180" lon="10.3241500">
	<ele>1404.40</ele>
	<time>2025-07-30T07:40:54.000Z</time>
</trkpt>
<trkpt lat="46.0484040" lon="10.3241510">
	<ele>1404.20</ele>
	<time>2025-07-30T07:40:55.000Z</time>
</trkpt>
<trkpt lat="46.0483900" lon="10.3241490">
	<ele>1404.00</ele>
	<time>2025-07-30T07:40:56.000Z</time>
</trkpt>
<trkpt lat="46.0483750" lon="10.3241470">
	<ele>1403.80</ele>
	<time>2025-07-30T07:40:57.000Z</time>
</trkpt>
<trkpt lat="46.0483640" lon="10.3241460">
	<ele>1403.60</ele>
	<time>2025-07-30T07:40:58.000Z</time>
</trkpt>
<trkpt lat="46.0483520" lon="10.3241480">
	<ele>1403.40</ele>
	<time>2025-07-30T07:40:59.000Z</time>
</trkpt>
<trkpt lat="46.0483420" lon="10.3241470">
	<ele>1403.20</ele>
	<time>2025-07-30T07:41:00.000Z</time>
</trkpt>
<trkpt lat="46.0483300" lon="10.3241450">
	<ele>1403.00</ele>
	<time>2025-07-30T07:41:01.000Z</time>
</trkpt>
<trkpt lat="46.0483170" lon="10.3241460">
	<ele>1402.80</ele>
	<time>2025-07-30T07:41:02.000Z</time>
</trkpt>
<trkpt lat="46.0482990" lon="10.3241460">
	<ele>1402.80</ele>
	<time>2025-07-30T07:41:03.000Z</time>
</trkpt>
<trkpt lat="46.0482880" lon="10.3241480">
	<ele>1402.60</ele>
	<time>2025-07-30T07:41:04.000Z</time>
</trkpt>
<trkpt lat="46.0482740" lon="10.3241510">
	<ele>1402.60</ele>
	<time>2025-07-30T07:41:05.000Z</time>
</trkpt>
<trkpt lat="46.0482640" lon="10.3241550">
	<ele>1402.40</ele>
	<time>2025-07-30T07:41:06.000Z</time>
</trkpt>
<trkpt lat="46.0482510" lon="10.3241540">
	<ele>1402.20</ele>
	<time>2025-07-30T07:41:07.000Z</time>
</trkpt>
<trkpt lat="46.0482390" lon="10.3241550">
	<ele>1402.00</ele>
	<time>2025-07-30T07:41:08.000Z</time>
</trkpt>
<trkpt lat="46.0482140" lon="10.3241530">
	<ele>1401.80</ele>
	<time>2025-07-30T07:41:09.000Z</time>
</trkpt>
<trkpt lat="46.0481920" lon="10.3241570">
	<ele>1401.80</ele>
	<time>2025-07-30T07:41:10.000Z</time>
</trkpt>
<trkpt lat="46.0481770" lon="10.3241580">
	<ele>1401.80</ele>
	<time>2025-07-30T07:41:11.000Z</time>
</trkpt>
<trkpt lat="46.0481660" lon="10.3241590">
	<ele>1401.60</ele>
	<time>2025-07-30T07:41:12.000Z</time>
</trkpt>
<trkpt lat="46.0481600" lon="10.3241680">
	<ele>1401.40</ele>
	<time>2025-07-30T07:41:13.000Z</time>
</trkpt>
<trkpt lat="46.0481520" lon="10.3241740">
	<ele>1401.40</ele>
	<time>2025-07-30T07:41:14.000Z</time>
</trkpt>
<trkpt lat="46.0481420" lon="10.3241780">
	<ele>1401.20</ele>
	<time>2025-07-30T07:41:15.000Z</time>
</trkpt>
<trkpt lat="46.0481310" lon="10.3241830">
	<ele>1401.20</ele>
	<time>2025-07-30T07:41:16.000Z</time>
</trkpt>
<trkpt lat="46.0481150" lon="10.3241900">
	<ele>1401.00</ele>
	<time>2025-07-30T07:41:17.000Z</time>
</trkpt>
<trkpt lat="46.0480990" lon="10.3241880">
	<ele>1400.80</ele>
	<time>2025-07-30T07:41:18.000Z</time>
</trkpt>
<trkpt lat="46.0480790" lon="10.3241900">
	<ele>1400.60</ele>
	<time>2025-07-30T07:41:19.000Z</time>
</trkpt>
<trkpt lat="46.0480680" lon="10.3241920">
	<ele>1400.60</ele>
	<time>2025-07-30T07:41:20.000Z</time>
</trkpt>
<trkpt lat="46.0480610" lon="10.3241960">
	<ele>1400.40</ele>
	<time>2025-07-30T07:41:21.000Z</time>
</trkpt>
<trkpt lat="46.0480510" lon="10.3242010">
	<ele>1400.20</ele>
	<time>2025-07-30T07:41:22.000Z</time>
</trkpt>
<trkpt lat="46.0480370" lon="10.3242070">
	<ele>1399.80</ele>
	<time>2025-07-30T07:41:23.000Z</time>
</trkpt>
<trkpt lat="46.0480310" lon="10.3242130">
	<ele>1399.80</ele>
	<time>2025-07-30T07:41:24.000Z</time>
</trkpt>
<trkpt lat="46.0480150" lon="10.3242170">
	<ele>1399.60</ele>
	<time>2025-07-30T07:41:25.000Z</time>
</trkpt>
<trkpt lat="46.0480030" lon="10.3242220">
	<ele>1399.40</ele>
	<time>2025-07-30T07:41:26.000Z</time>
</trkpt>
<trkpt lat="46.0479880" lon="10.3242250">
	<ele>1399.20</ele>
	<time>2025-07-30T07:41:27.000Z</time>
</trkpt>
<trkpt lat="46.0479700" lon="10.3242280">
	<ele>1399.00</ele>
	<time>2025-07-30T07:41:28.000Z</time>
</trkpt>
<trkpt lat="46.0479550" lon="10.3242340">
	<ele>1399.00</ele>
	<time>2025-07-30T07:41:29.000Z</time>
</trkpt>
<trkpt lat="46.0479460" lon="10.3242410">
	<ele>1398.80</ele>
	<time>2025-07-30T07:41:30.000Z</time>
</trkpt>
<trkpt lat="46.0479360" lon="10.3242470">
	<ele>1398.80</ele>
	<time>2025-07-30T07:41:31.000Z</time>
</trkpt>
<trkpt lat="46.0479250" lon="10.3242540">
	<ele>1398.80</ele>
	<time>2025-07-30T07:41:32.000Z</time>
</trkpt>
<trkpt lat="46.0479120" lon="10.3242590">
	<ele>1398.80</ele>
	<time>2025-07-30T07:41:33.000Z</time>
</trkpt>
<trkpt lat="46.0479070" lon="10.3242630">
	<ele>1398.60</ele>
	<time>2025-07-30T07:41:34.000Z</time>
</trkpt>
<trkpt lat="46.0478970" lon="10.3242670">
	<ele>1398.60</ele>
	<time>2025-07-30T07:41:35.000Z</time>
</trkpt>
<trkpt lat="46.0478860" lon="10.3242710">
	<ele>1398.40</ele>
	<time>2025-07-30T07:41:36.000Z</time>
</trkpt>
<trkpt lat="46.0478780" lon="10.3242770">
	<ele>1398.20</ele>
	<time>2025-07-30T07:41:37.000Z</time>
</trkpt>
<trkpt lat="46.0478670" lon="10.3242740">
	<ele>1398.00</ele>
	<time>2025-07-30T07:41:38.000Z</time>
</trkpt>
<trkpt lat="46.0478590" lon="10.3242720">
	<ele>1397.80</ele>
	<time>2025-07-30T07:41:39.000Z</time>
</trkpt>
<trkpt lat="46.0478570" lon="10.3242750">
	<ele>1397.40</ele>
	<time>2025-07-30T07:41:40.000Z</time>
</trkpt>
<trkpt lat="46.0478550" lon="10.3242810">
	<ele>1397.20</ele>
	<time>2025-07-30T07:41:41.000Z</time>
</trkpt>
<trkpt lat="46.0478510" lon="10.3242850">
	<ele>1397.00</ele>
	<time>2025-07-30T07:41:42.000Z</time>
</trkpt>
<trkpt lat="46.0478480" lon="10.3242880">
	<ele>1396.80</ele>
	<time>2025-07-30T07:41:43.000Z</time>
</trkpt>
<trkpt lat="46.0478470" lon="10.3242890">
	<ele>1396.60</ele>
	<time>2025-07-30T07:41:44.000Z</time>
</trkpt>
<trkpt lat="46.0478420" lon="10.3242890">
	<ele>1396.40</ele>
	<time>2025-07-30T07:41:45.000Z</time>
</trkpt>
<trkpt lat="46.0478380" lon="10.3242900">
	<ele>1396.20</ele>
	<time>2025-07-30T07:41:46.000Z</time>
</trkpt>
<trkpt lat="46.0478350" lon="10.3242910">
	<ele>1396.00</ele>
	<time>2025-07-30T07:41:47.000Z</time>
</trkpt>
<trkpt lat="46.0478320" lon="10.3242920">
	<ele>1395.80</ele>
	<time>2025-07-30T07:41:48.000Z</time>
</trkpt>
<trkpt lat="46.0478300" lon="10.3242910">
	<ele>1395.60</ele>
	<time>2025-07-30T07:41:49.000Z</time>
</trkpt>
<trkpt lat="46.0478290" lon="10.3242880">
	<ele>1395.40</ele>
	<time>2025-07-30T07:41:50.000Z</time>
</trkpt>
<trkpt lat="46.0478240" lon="10.3242900">
	<ele>1395.20</ele>
	<time>2025-07-30T07:41:51.000Z</time>
</trkpt>
<trkpt lat="46.0478200" lon="10.3242930">
	<ele>1395.20</ele>
	<time>2025-07-30T07:41:52.000Z</time>
</trkpt>
<trkpt lat="46.0478170" lon="10.3242960">
	<ele>1395.00</ele>
	<time>2025-07-30T07:41:53.000Z</time>
</trkpt>
<trkpt lat="46.0478070" lon="10.3242980">
	<ele>1394.80</ele>
	<time>2025-07-30T07:41:54.000Z</time>
</trkpt>
<trkpt lat="46.0478020" lon="10.3243010">
	<ele>1394.40</ele>
	<time>2025-07-30T07:41:55.000Z</time>
</trkpt>
<trkpt lat="46.0478010" lon="10.3243030">
	<ele>1394.00</ele>
	<time>2025-07-30T07:41:56.000Z</time>
</trkpt>
<trkpt lat="46.0477980" lon="10.3243070">
	<ele>1393.80</ele>
	<time>2025-07-30T07:41:57.000Z</time>
</trkpt>
<trkpt lat="46.0477930" lon="10.3243070">
	<ele>1393.80</ele>
	<time>2025-07-30T07:41:58.000Z</time>
</trkpt>
<trkpt lat="46.0477840" lon="10.3243070">
	<ele>1393.60</ele>
	<time>2025-07-30T07:41:59.000Z</time>
</trkpt>
<trkpt lat="46.0477770" lon="10.3243090">
	<ele>1393.40</ele>
	<time>2025-07-30T07:42:00.000Z</time>
</trkpt>
<trkpt lat="46.0477710" lon="10.3243070">
	<ele>1393.00</ele>
	<time>2025-07-30T07:42:01.000Z</time>
</trkpt>
<trkpt lat="46.0477610" lon="10.3243040">
	<ele>1392.60</ele>
	<time>2025-07-30T07:42:02.000Z</time>
</trkpt>
<trkpt lat="46.0477530" lon="10.3243050">
	<ele>1392.20</ele>
	<time>2025-07-30T07:42:03.000Z</time>
</trkpt>
<trkpt lat="46.0477430" lon="10.3243040">
	<ele>1391.80</ele>
	<time>2025-07-30T07:42:04.000Z</time>
</trkpt>
<trkpt lat="46.0477320" lon="10.3243020">
	<ele>1391.40</ele>
	<time>2025-07-30T07:42:05.000Z</time>
</trkpt>
<trkpt lat="46.0477200" lon="10.3243000">
	<ele>1391.00</ele>
	<time>2025-07-30T07:42:06.000Z</time>
</trkpt>
<trkpt lat="46.0477080" lon="10.3242990">
	<ele>1390.80</ele>
	<time>2025-07-30T07:42:07.000Z</time>
</trkpt>
<trkpt lat="46.0476980" lon="10.3243000">
	<ele>1390.60</ele>
	<time>2025-07-30T07:42:08.000Z</time>
</trkpt>
<trkpt lat="46.0476910" lon="10.3243030">
	<ele>1390.40</ele>
	<time>2025-07-30T07:42:09.000Z</time>
</trkpt>
<trkpt lat="46.0476820" lon="10.3243030">
	<ele>1390.00</ele>
	<time>2025-07-30T07:42:10.000Z</time>
</trkpt>
<trkpt lat="46.0476760" lon="10.3243040">
	<ele>1389.80</ele>
	<time>2025-07-30T07:42:11.000Z</time>
</trkpt>
<trkpt lat="46.0476700" lon="10.3243030">
	<ele>1389.40</ele>
	<time>2025-07-30T07:42:12.000Z</time>
</trkpt>
<trkpt lat="46.0476640" lon="10.3243070">
	<ele>1389.00</ele>
	<time>2025-07-30T07:42:13.000Z</time>
</trkpt>
<trkpt lat="46.0476590" lon="10.3243060">
	<ele>1388.80</ele>
	<time>2025-07-30T07:42:14.000Z</time>
</trkpt>
<trkpt lat="46.0476530" lon="10.3243090">
	<ele>1388.60</ele>
	<time>2025-07-30T07:42:15.000Z</time>
</trkpt>
<trkpt lat="46.0476490" lon="10.3243080">
	<ele>1388.00</ele>
	<time>2025-07-30T07:42:16.000Z</time>
</trkpt>
<trkpt lat="46.0476460" lon="10.3243040">
	<ele>1387.80</ele>
	<time>2025-07-30T07:42:17.000Z</time>
</trkpt>
<trkpt lat="46.0476420" lon="10.3243010">
	<ele>1387.40</ele>
	<time>2025-07-30T07:42:18.000Z</time>
</trkpt>
<trkpt lat="46.0476390" lon="10.3242960">
	<ele>1387.20</ele>
	<time>2025-07-30T07:42:19.000Z</time>
</trkpt>
<trkpt lat="46.0476290" lon="10.3242920">
	<ele>1386.80</ele>
	<time>2025-07-30T07:42:20.000Z</time>
</trkpt>
<trkpt lat="46.0476190" lon="10.3242930">
	<ele>1386.60</ele>
	<time>2025-07-30T07:42:21.000Z</time>
</trkpt>
<trkpt lat="46.0476110" lon="10.3242900">
	<ele>1386.20</ele>
	<time>2025-07-30T07:42:22.000Z</time>
</trkpt>
<trkpt lat="46.0476050" lon="10.3242910">
	<ele>1386.00</ele>
	<time>2025-07-30T07:42:23.000Z</time>
</trkpt>
<trkpt lat="46.0475990" lon="10.3242860">
	<ele>1385.80</ele>
	<time>2025-07-30T07:42:24.000Z</time>
</trkpt>
<trkpt lat="46.0475910" lon="10.3242800">
	<ele>1385.40</ele>
	<time>2025-07-30T07:42:25.000Z</time>
</trkpt>
<trkpt lat="46.0475840" lon="10.3242740">
	<ele>1385.20</ele>
	<time>2025-07-30T07:42:26.000Z</time>
</trkpt>
<trkpt lat="46.0475760" lon="10.3242670">
	<ele>1384.80</ele>
	<time>2025-07-30T07:42:27.000Z</time>
</trkpt>
<trkpt lat="46.0475670" lon="10.3242610">
	<ele>1384.60</ele>
	<time>2025-07-30T07:42:28.000Z</time>
</trkpt>
<trkpt lat="46.0475630" lon="10.3242500">
	<ele>1384.20</ele>
	<time>2025-07-30T07:42:29.000Z</time>
</trkpt>
<trkpt lat="46.0475600" lon="10.3242360">
	<ele>1384.00</ele>
	<time>2025-07-30T07:42:30.000Z</time>
</trkpt>
<trkpt lat="46.0475550" lon="10.3242210">
	<ele>1383.80</ele>
	<time>2025-07-30T07:42:31.000Z</time>
</trkpt>
<trkpt lat="46.0475490" lon="10.3242090">
	<ele>1383.40</ele>
	<time>2025-07-30T07:42:32.000Z</time>
</trkpt>
<trkpt lat="46.0475430" lon="10.3241970">
	<ele>1383.20</ele>
	<time>2025-07-30T07:42:33.000Z</time>
</trkpt>
<trkpt lat="46.0475350" lon="10.3241870">
	<ele>1382.80</ele>
	<time>2025-07-30T07:42:34.000Z</time>
</trkpt>
<trkpt lat="46.0475250" lon="10.3241790">
	<ele>1382.60</ele>
	<time>2025-07-30T07:42:35.000Z</time>
</trkpt>
<trkpt lat="46.0475180" lon="10.3241680">
	<ele>1382.20</ele>
	<time>2025-07-30T07:42:36.000Z</time>
</trkpt>
<trkpt lat="46.0475150" lon="10.3241590">
	<ele>1381.80</ele>
	<time>2025-07-30T07:42:37.000Z</time>
</trkpt>
<trkpt lat="46.0475130" lon="10.3241500">
	<ele>1381.60</ele>
	<time>2025-07-30T07:42:38.000Z</time>
</trkpt>
<trkpt lat="46.0475080" lon="10.3241390">
	<ele>1381.20</ele>
	<time>2025-07-30T07:42:39.000Z</time>
</trkpt>
<trkpt lat="46.0475020" lon="10.3241320">
	<ele>1380.80</ele>
	<time>2025-07-30T07:42:40.000Z</time>
</trkpt>
<trkpt lat="46.0475000" lon="10.3241220">
	<ele>1380.40</ele>
	<time>2025-07-30T07:42:41.000Z</time>
</trkpt>
<trkpt lat="46.0474960" lon="10.3241110">
	<ele>1380.00</ele>
	<time>2025-07-30T07:42:42.000Z</time>
</trkpt>
<trkpt lat="46.0474940" lon="10.3240990">
	<ele>1379.60</ele>
	<time>2025-07-30T07:42:43.000Z</time>
</trkpt>
<trkpt lat="46.0474890" lon="10.3240850">
	<ele>1379.40</ele>
	<time>2025-07-30T07:42:44.000Z</time>
</trkpt>
<trkpt lat="46.0474850" lon="10.3240730">
	<ele>1379.20</ele>
	<time>2025-07-30T07:42:45.000Z</time>
</trkpt>
<trkpt lat="46.0474820" lon="10.3240640">
	<ele>1378.80</ele>
	<time>2025-07-30T07:42:46.000Z</time>
</trkpt>
<trkpt lat="46.0474780" lon="10.3240530">
	<ele>1378.40</ele>
	<time>2025-07-30T07:42:47.000Z</time>
</trkpt>
<trkpt lat="46.0474740" lon="10.3240400">
	<ele>1378.20</ele>
	<time>2025-07-30T07:42:48.000Z</time>
</trkpt>
<trkpt lat="46.0474660" lon="10.3240340">
	<ele>1378.00</ele>
	<time>2025-07-30T07:42:49.000Z</time>
</trkpt>
<trkpt lat="46.0474570" lon="10.3240270">
	<ele>1377.60</ele>
	<time>2025-07-30T07:42:50.000Z</time>
</trkpt>
<trkpt lat="46.0474470" lon="10.3240250">
	<ele>1377.40</ele>
	<time>2025-07-30T07:42:51.000Z</time>
</trkpt>
<trkpt lat="46.0474400" lon="10.3240230">
	<ele>1377.00</ele>
	<time>2025-07-30T07:42:52.000Z</time>
</trkpt>
<trkpt lat="46.0474340" lon="10.3240230">
	<ele>1376.60</ele>
	<time>2025-07-30T07:42:53.000Z</time>
</trkpt>
<trkpt lat="46.0474290" lon="10.3240250">
	<ele>1376.40</ele>
	<time>2025-07-30T07:42:54.000Z</time>
</trkpt>
<trkpt lat="46.0474240" lon="10.3240320">
	<ele>1376.00</ele>
	<time>2025-07-30T07:42:55.000Z</time>
</trkpt>
<trkpt lat="46.0474190" lon="10.3240370">
	<ele>1375.80</ele>
	<time>2025-07-30T07:42:56.000Z</time>
</trkpt>
<trkpt lat="46.0474150" lon="10.3240400">
	<ele>1375.40</ele>
	<time>2025-07-30T07:42:57.000Z</time>
</trkpt>
<trkpt lat="46.0474040" lon="10.3240410">
	<ele>1375.20</ele>
	<time>2025-07-30T07:42:58.000Z</time>
</trkpt>
<trkpt lat="46.0473950" lon="10.3240410">
	<ele>1374.80</ele>
	<time>2025-07-30T07:42:59.000Z</time>
</trkpt>
<trkpt lat="46.0473930" lon="10.3240390">
	<ele>1374.60</ele>
	<time>2025-07-30T07:43:00.000Z</time>
</trkpt>
<trkpt lat="46.0473860" lon="10.3240350">
	<ele>1374.20</ele>
	<time>2025-07-30T07:43:01.000Z</time>
</trkpt>
<trkpt lat="46.0474010" lon="10.3240410">
	<ele>1373.80</ele>
	<time>2025-07-30T07:43:02.000Z</time>
</trkpt>
<trkpt lat="46.0473940" lon="10.3240510">
	<ele>1373.60</ele>
	<time>2025-07-30T07:43:03.000Z</time>
</trkpt>
<trkpt lat="46.0473780" lon="10.3240530">
	<ele>1373.40</ele>
	<time>2025-07-30T07:43:04.000Z</time>
</trkpt>
<trkpt lat="46.0473650" lon="10.3240560">
	<ele>1373.20</ele>
	<time>2025-07-30T07:43:05.000Z</time>
</trkpt>
<trkpt lat="46.0473510" lon="10.3240490">
	<ele>1373.20</ele>
	<time>2025-07-30T07:43:06.000Z</time>
</trkpt>
<trkpt lat="46.0473440" lon="10.3240470">
	<ele>1373.00</ele>
	<time>2025-07-30T07:43:07.000Z</time>
</trkpt>
<trkpt lat="46.0473420" lon="10.3240410">
	<ele>1372.60</ele>
	<time>2025-07-30T07:43:08.000Z</time>
</trkpt>
<trkpt lat="46.0473370" lon="10.3240340">
	<ele>1372.20</ele>
	<time>2025-07-30T07:43:09.000Z</time>
</trkpt>
<trkpt lat="46.0473340" lon="10.3240320">
	<ele>1372.00</ele>
	<time>2025-07-30T07:43:10.000Z</time>
</trkpt>
<trkpt lat="46.0473230" lon="10.3240280">
	<ele>1371.80</ele>
	<time>2025-07-30T07:43:11.000Z</time>
</trkpt>
<trkpt lat="46.0473040" lon="10.3240190">
	<ele>1371.40</ele>
	<time>2025-07-30T07:43:12.000Z</time>
</trkpt>
<trkpt lat="46.0472930" lon="10.3240100">
	<ele>1371.20</ele>
	<time>2025-07-30T07:43:13.000Z</time>
</trkpt>
<trkpt lat="46.0472880" lon="10.3240030">
	<ele>1370.80</ele>
	<time>2025-07-30T07:43:14.000Z</time>
</trkpt>
<trkpt lat="46.0472830" lon="10.3239960">
	<ele>1370.60</ele>
	<time>2025-07-30T07:43:15.000Z</time>
</trkpt>
<trkpt lat="46.0472780" lon="10.3239850">
	<ele>1370.20</ele>
	<time>2025-07-30T07:43:16.000Z</time>
</trkpt>
<trkpt lat="46.0472790" lon="10.3239760">
	<ele>1370.00</ele>
	<time>2025-07-30T07:43:17.000Z</time>
</trkpt>
<trkpt lat="46.0472760" lon="10.3239660">
	<ele>1369.80</ele>
	<time>2025-07-30T07:43:18.000Z</time>
</trkpt>
<trkpt lat="46.0472730" lon="10.3239600">
	<ele>1369.40</ele>
	<time>2025-07-30T07:43:19.000Z</time>
</trkpt>
<trkpt lat="46.0472660" lon="10.3239470">
	<ele>1369.20</ele>
	<time>2025-07-30T07:43:20.000Z</time>
</trkpt>
<trkpt lat="46.0472580" lon="10.3239350">
	<ele>1369.00</ele>
	<time>2025-07-30T07:43:21.000Z</time>
</trkpt>
<trkpt lat="46.0472500" lon="10.3239240">
	<ele>1368.80</ele>
	<time>2025-07-30T07:43:22.000Z</time>
</trkpt>
<trkpt lat="46.0472450" lon="10.3239200">
	<ele>1368.60</ele>
	<time>2025-07-30T07:43:23.000Z</time>
</trkpt>
<trkpt lat="46.0472440" lon="10.3239180">
	<ele>1368.20</ele>
	<time>2025-07-30T07:43:24.000Z</time>
</trkpt>
<trkpt lat="46.0472420" lon="10.3239130">
	<ele>1368.20</ele>
	<time>2025-07-30T07:43:25.000Z</time>
</trkpt>
<trkpt lat="46.0472390" lon="10.3239110">
	<ele>1368.00</ele>
	<time>2025-07-30T07:43:26.000Z</time>
</trkpt>
<trkpt lat="46.0472300" lon="10.3239080">
	<ele>1367.60</ele>
	<time>2025-07-30T07:43:27.000Z</time>
</trkpt>
<trkpt lat="46.0472180" lon="10.3239050">
	<ele>1367.20</ele>
	<time>2025-07-30T07:43:28.000Z</time>
</trkpt>
<trkpt lat="46.0472090" lon="10.3238980">
	<ele>1366.80</ele>
	<time>2025-07-30T07:43:29.000Z</time>
</trkpt>
<trkpt lat="46.0471980" lon="10.3238860">
	<ele>1366.40</ele>
	<time>2025-07-30T07:43:30.000Z</time>
</trkpt>
<trkpt lat="46.0471920" lon="10.3238700">
	<ele>1366.20</ele>
	<time>2025-07-30T07:43:31.000Z</time>
</trkpt>
<trkpt lat="46.0471840" lon="10.3238540">
	<ele>1365.80</ele>
	<time>2025-07-30T07:43:32.000Z</time>
</trkpt>
<trkpt lat="46.0471770" lon="10.3238390">
	<ele>1365.60</ele>
	<time>2025-07-30T07:43:33.000Z</time>
</trkpt>
<trkpt lat="46.0471720" lon="10.3238230">
	<ele>1365.40</ele>
	<time>2025-07-30T07:43:34.000Z</time>
</trkpt>
<trkpt lat="46.0471700" lon="10.3238050">
	<ele>1365.20</ele>
	<time>2025-07-30T07:43:35.000Z</time>
</trkpt>
<trkpt lat="46.0471680" lon="10.3237880">
	<ele>1365.00</ele>
	<time>2025-07-30T07:43:36.000Z</time>
</trkpt>
<trkpt lat="46.0471640" lon="10.3237700">
	<ele>1365.00</ele>
	<time>2025-07-30T07:43:37.000Z</time>
</trkpt>
<trkpt lat="46.0471610" lon="10.3237510">
	<ele>1364.80</ele>
	<time>2025-07-30T07:43:38.000Z</time>
</trkpt>
<trkpt lat="46.0471580" lon="10.3237330">
	<ele>1364.80</ele>
	<time>2025-07-30T07:43:39.000Z</time>
</trkpt>
<trkpt lat="46.0471550" lon="10.3237160">
	<ele>1364.80</ele>
	<time>2025-07-30T07:43:40.000Z</time>
</trkpt>
<trkpt lat="46.0471530" lon="10.3237050">
	<ele>1364.60</ele>
	<time>2025-07-30T07:43:41.000Z</time>
</trkpt>
<trkpt lat="46.0471500" lon="10.3236950">
	<ele>1364.60</ele>
	<time>2025-07-30T07:43:42.000Z</time>
</trkpt>
<trkpt lat="46.0471490" lon="10.3236790">
	<ele>1364.40</ele>
	<time>2025-07-30T07:43:43.000Z</time>
</trkpt>
<trkpt lat="46.0471440" lon="10.3236650">
	<ele>1364.20</ele>
	<time>2025-07-30T07:43:44.000Z</time>
</trkpt>
<trkpt lat="46.0471380" lon="10.3236550">
	<ele>1363.80</ele>
	<time>2025-07-30T07:43:45.000Z</time>
</trkpt>
<trkpt lat="46.0471360" lon="10.3236450">
	<ele>1363.60</ele>
	<time>2025-07-30T07:43:46.000Z</time>
</trkpt>
<trkpt lat="46.0471380" lon="10.3236350">
	<ele>1363.40</ele>
	<time>2025-07-30T07:43:47.000Z</time>
</trkpt>
<trkpt lat="46.0471420" lon="10.3236260">
	<ele>1363.20</ele>
	<time>2025-07-30T07:43:48.000Z</time>
</trkpt>
<trkpt lat="46.0471420" lon="10.3236120">
	<ele>1362.80</ele>
	<time>2025-07-30T07:43:49.000Z</time>
</trkpt>
<trkpt lat="46.0471320" lon="10.3236020">
	<ele>1362.60</ele>
	<time>2025-07-30T07:43:50.000Z</time>
</trkpt>
<trkpt lat="46.0471310" lon="10.3235900">
	<ele>1362.20</ele>
	<time>2025-07-30T07:43:51.000Z</time>
</trkpt>
<trkpt lat="46.0471320" lon="10.3235810">
	<ele>1362.00</ele>
	<time>2025-07-30T07:43:52.000Z</time>
</trkpt>
<trkpt lat="46.0471320" lon="10.3235740">
	<ele>1361.80</ele>
	<time>2025-07-30T07:43:53.000Z</time>
</trkpt>
<trkpt lat="46.0471260" lon="10.3235630">
	<ele>1361.40</ele>
	<time>2025-07-30T07:43:54.000Z</time>
</trkpt>
<trkpt lat="46.0471170" lon="10.3235540">
	<ele>1361.00</ele>
	<time>2025-07-30T07:43:55.000Z</time>
</trkpt>
<trkpt lat="46.0471120" lon="10.3235450">
	<ele>1360.80</ele>
	<time>2025-07-30T07:43:56.000Z</time>
</trkpt>
<trkpt lat="46.0471040" lon="10.3235340">
	<ele>1360.40</ele>
	<time>2025-07-30T07:43:57.000Z</time>
</trkpt>
<trkpt lat="46.0470950" lon="10.3235260">
	<ele>1360.20</ele>
	<time>2025-07-30T07:43:58.000Z</time>
</trkpt>
<trkpt lat="46.0470910" lon="10.3235200">
	<ele>1360.00</ele>
	<time>2025-07-30T07:43:59.000Z</time>
</trkpt>
<trkpt lat="46.0470890" lon="10.3235160">
	<ele>1359.60</ele>
	<time>2025-07-30T07:44:00.000Z</time>
</trkpt>
<trkpt lat="46.0470880" lon="10.3235050">
	<ele>1359.20</ele>
	<time>2025-07-30T07:44:01.000Z</time>
</trkpt>
<trkpt lat="46.0470850" lon="10.3234990">
	<ele>1359.00</ele>
	<time>2025-07-30T07:44:02.000Z</time>
</trkpt>
<trkpt lat="46.0470780" lon="10.3234900">
	<ele>1358.80</ele>
	<time>2025-07-30T07:44:03.000Z</time>
</trkpt>
<trkpt lat="46.0470680" lon="10.3234800">
	<ele>1358.40</ele>
	<time>2025-07-30T07:44:04.000Z</time>
</trkpt>
<trkpt lat="46.0470660" lon="10.3234690">
	<ele>1358.20</ele>
	<time>2025-07-30T07:44:05.000Z</time>
</trkpt>
<trkpt lat="46.0470590" lon="10.3234580">
	<ele>1358.00</ele>
	<time>2025-07-30T07:44:06.000Z</time>
</trkpt>
<trkpt lat="46.0470550" lon="10.3234500">
	<ele>1357.80</ele>
	<time>2025-07-30T07:44:07.000Z</time>
</trkpt>
<trkpt lat="46.0470530" lon="10.3234420">
	<ele>1357.40</ele>
	<time>2025-07-30T07:44:08.000Z</time>
</trkpt>
<trkpt lat="46.0470470" lon="10.3234360">
	<ele>1357.20</ele>
	<time>2025-07-30T07:44:09.000Z</time>
</trkpt>
<trkpt lat="46.0470430" lon="10.3234310">
	<ele>1357.00</ele>
	<time>2025-07-30T07:44:10.000Z</time>
</trkpt>
<trkpt lat="46.0470390" lon="10.3234250">
	<ele>1356.80</ele>
	<time>2025-07-30T07:44:11.000Z</time>
</trkpt>
<trkpt lat="46.0470350" lon="10.3234200">
	<ele>1356.40</ele>
	<time>2025-07-30T07:44:12.000Z</time>
</trkpt>
<trkpt lat="46.0470290" lon="10.3234130">
	<ele>1356.00</ele>
	<time>2025-07-30T07:44:13.000Z</time>
</trkpt>
<trkpt lat="46.0470240" lon="10.3234090">
	<ele>1355.80</ele>
	<time>2025-07-30T07:44:14.000Z</time>
</trkpt>
<trkpt lat="46.0470210" lon="10.3234080">
	<ele>1355.60</ele>
	<time>2025-07-30T07:44:15.000Z</time>
</trkpt>
<trkpt lat="46.0470160" lon="10.3234090">
	<ele>1355.20</ele>
	<time>2025-07-30T07:44:16.000Z</time>
</trkpt>
<trkpt lat="46.0470120" lon="10.3234050">
	<ele>1354.80</ele>
	<time>2025-07-30T07:44:17.000Z</time>
</trkpt>
<trkpt lat="46.0470070" lon="10.3234050">
	<ele>1354.60</ele>
	<time>2025-07-30T07:44:18.000Z</time>
</trkpt>
<trkpt lat="46.0470010" lon="10.3234040">
	<ele>1354.60</ele>
	<time>2025-07-30T07:44:19.000Z</time>
</trkpt>
<trkpt lat="46.0469970" lon="10.3234040">
	<ele>1354.60</ele>
	<time>2025-07-30T07:44:20.000Z</time>
</trkpt>
<trkpt lat="46.0469910" lon="10.3234050">
	<ele>1354.00</ele>
	<time>2025-07-30T07:44:21.000Z</time>
</trkpt>
<trkpt lat="46.0469870" lon="10.3233990">
	<ele>1353.80</ele>
	<time>2025-07-30T07:44:22.000Z</time>
</trkpt>
<trkpt lat="46.0469830" lon="10.3233910">
	<ele>1353.60</ele>
	<time>2025-07-30T07:44:23.000Z</time>
</trkpt>
<trkpt lat="46.0469780" lon="10.3233820">
	<ele>1353.40</ele>
	<time>2025-07-30T07:44:24.000Z</time>
</trkpt>
<trkpt lat="46.0469700" lon="10.3233720">
	<ele>1353.00</ele>
	<time>2025-07-30T07:44:25.000Z</time>
</trkpt>
<trkpt lat="46.0469620" lon="10.3233680">
	<ele>1352.80</ele>
	<time>2025-07-30T07:44:26.000Z</time>
</trkpt>
<trkpt lat="46.0469550" lon="10.3233570">
	<ele>1352.40</ele>
	<time>2025-07-30T07:44:27.000Z</time>
</trkpt>
<trkpt lat="46.0469510" lon="10.3233450">
	<ele>1352.20</ele>
	<time>2025-07-30T07:44:28.000Z</time>
</trkpt>
<trkpt lat="46.0469450" lon="10.3233290">
	<ele>1352.00</ele>
	<time>2025-07-30T07:44:29.000Z</time>
</trkpt>
<trkpt lat="46.0469430" lon="10.3233140">
	<ele>1351.60</ele>
	<time>2025-07-30T07:44:30.000Z</time>
</trkpt>
<trkpt lat="46.0469460" lon="10.3233030">
	<ele>1351.40</ele>
	<time>2025-07-30T07:44:31.000Z</time>
</trkpt>
<trkpt lat="46.0469460" lon="10.3232890">
	<ele>1351.00</ele>
	<time>2025-07-30T07:44:32.000Z</time>
</trkpt>
<trkpt lat="46.0469460" lon="10.3232750">
	<ele>1350.80</ele>
	<time>2025-07-30T07:44:33.000Z</time>
</trkpt>
<trkpt lat="46.0469470" lon="10.3232590">
	<ele>1350.60</ele>
	<time>2025-07-30T07:44:34.000Z</time>
</trkpt>
<trkpt lat="46.0469490" lon="10.3232420">
	<ele>1350.40</ele>
	<time>2025-07-30T07:44:35.000Z</time>
</trkpt>
<trkpt lat="46.0469470" lon="10.3232290">
	<ele>1350.20</ele>
	<time>2025-07-30T07:44:36.000Z</time>
</trkpt>
<trkpt lat="46.0469470" lon="10.3232190">
	<ele>1350.00</ele>
	<time>2025-07-30T07:44:37.000Z</time>
</trkpt>
<trkpt lat="46.0469480" lon="10.3232080">
	<ele>1349.80</ele>
	<time>2025-07-30T07:44:38.000Z</time>
</trkpt>
<trkpt lat="46.0469490" lon="10.3231940">
	<ele>1349.40</ele>
	<time>2025-07-30T07:44:39.000Z</time>
</trkpt>
<trkpt lat="46.0469510" lon="10.3231780">
	<ele>1349.40</ele>
	<time>2025-07-30T07:44:40.000Z</time>
</trkpt>
<trkpt lat="46.0469530" lon="10.3231610">
	<ele>1349.00</ele>
	<time>2025-07-30T07:44:41.000Z</time>
</trkpt>
<trkpt lat="46.0469500" lon="10.3231450">
	<ele>1348.80</ele>
	<time>2025-07-30T07:44:42.000Z</time>
</trkpt>
<trkpt lat="46.0469390" lon="10.3231340">
	<ele>1348.40</ele>
	<time>2025-07-30T07:44:43.000Z</time>
</trkpt>
<trkpt lat="46.0469260" lon="10.3231250">
	<ele>1348.00</ele>
	<time>2025-07-30T07:44:44.000Z</time>
</trkpt>
<trkpt lat="46.0469130" lon="10.3231150">
	<ele>1347.80</ele>
	<time>2025-07-30T07:44:45.000Z</time>
</trkpt>
<trkpt lat="46.0469060" lon="10.3231090">
	<ele>1347.60</ele>
	<time>2025-07-30T07:44:46.000Z</time>
</trkpt>
<trkpt lat="46.0468900" lon="10.3231060">
	<ele>1347.40</ele>
	<time>2025-07-30T07:44:47.000Z</time>
</trkpt>
<trkpt lat="46.0468800" lon="10.3230960">
	<ele>1347.00</ele>
	<time>2025-07-30T07:44:48.000Z</time>
</trkpt>
<trkpt lat="46.0468740" lon="10.3230870">
	<ele>1346.80</ele>
	<time>2025-07-30T07:44:49.000Z</time>
</trkpt>
<trkpt lat="46.0468790" lon="10.3230760">
	<ele>1346.60</ele>
	<time>2025-07-30T07:44:50.000Z</time>
</trkpt>
<trkpt lat="46.0468770" lon="10.3230630">
	<ele>1346.40</ele>
	<time>2025-07-30T07:44:51.000Z</time>
</trkpt>
<trkpt lat="46.0468700" lon="10.3230500">
	<ele>1346.20</ele>
	<time>2025-07-30T07:44:52.000Z</time>
</trkpt>
<trkpt lat="46.0468660" lon="10.3230390">
	<ele>1346.00</ele>
	<time>2025-07-30T07:44:53.000Z</time>
</trkpt>
<trkpt lat="46.0468580" lon="10.3230250">
	<ele>1345.80</ele>
	<time>2025-07-30T07:44:54.000Z</time>
</trkpt>
<trkpt lat="46.0468520" lon="10.3230090">
	<ele>1345.60</ele>
	<time>2025-07-30T07:44:55.000Z</time>
</trkpt>
<trkpt lat="46.0468490" lon="10.3229980">
	<ele>1345.20</ele>
	<time>2025-07-30T07:44:56.000Z</time>
</trkpt>
<trkpt lat="46.0468420" lon="10.3229860">
	<ele>1345.20</ele>
	<time>2025-07-30T07:44:57.000Z</time>
</trkpt>
<trkpt lat="46.0468400" lon="10.3229710">
	<ele>1344.80</ele>
	<time>2025-07-30T07:44:58.000Z</time>
</trkpt>
<trkpt lat="46.0468320" lon="10.3229550">
	<ele>1344.60</ele>
	<time>2025-07-30T07:44:59.000Z</time>
</trkpt>
<trkpt lat="46.0468250" lon="10.3229390">
	<ele>1344.40</ele>
	<time>2025-07-30T07:45:00.000Z</time>
</trkpt>
<trkpt lat="46.0468180" lon="10.3229270">
	<ele>1344.20</ele>
	<time>2025-07-30T07:45:01.000Z</time>
</trkpt>
<trkpt lat="46.0468120" lon="10.3229140">
	<ele>1344.00</ele>
	<time>2025-07-30T07:45:02.000Z</time>
</trkpt>
<trkpt lat="46.0468080" lon="10.3229020">
	<ele>1343.80</ele>
	<time>2025-07-30T07:45:03.000Z</time>
</trkpt>
<trkpt lat="46.0468070" lon="10.3228850">
	<ele>1343.60</ele>
	<time>2025-07-30T07:45:04.000Z</time>
</trkpt>
<trkpt lat="46.0468040" lon="10.3228670">
	<ele>1343.40</ele>
	<time>2025-07-30T07:45:05.000Z</time>
</trkpt>
<trkpt lat="46.0468010" lon="10.3228510">
	<ele>1343.00</ele>
	<time>2025-07-30T07:45:06.000Z</time>
</trkpt>
<trkpt lat="46.0468020" lon="10.3228350">
	<ele>1343.00</ele>
	<time>2025-07-30T07:45:07.000Z</time>
</trkpt>
<trkpt lat="46.0468110" lon="10.3228160">
	<ele>1343.00</ele>
	<time>2025-07-30T07:45:08.000Z</time>
</trkpt>
<trkpt lat="46.0468130" lon="10.3228050">
	<ele>1342.80</ele>
	<time>2025-07-30T07:45:09.000Z</time>
</trkpt>
<trkpt lat="46.0468190" lon="10.3227930">
	<ele>1342.80</ele>
	<time>2025-07-30T07:45:10.000Z</time>
</trkpt>
<trkpt lat="46.0468200" lon="10.3227790">
	<ele>1342.80</ele>
	<time>2025-07-30T07:45:11.000Z</time>
</trkpt>
<trkpt lat="46.0468170" lon="10.3227600">
	<ele>1342.80</ele>
	<time>2025-07-30T07:45:12.000Z</time>
</trkpt>
<trkpt lat="46.0468120" lon="10.3227410">
	<ele>1342.60</ele>
	<time>2025-07-30T07:45:13.000Z</time>
</trkpt>
<trkpt lat="46.0468090" lon="10.3227250">
	<ele>1342.60</ele>
	<time>2025-07-30T07:45:14.000Z</time>
</trkpt>
<trkpt lat="46.0468050" lon="10.3227100">
	<ele>1342.40</ele>
	<time>2025-07-30T07:45:15.000Z</time>
</trkpt>
<trkpt lat="46.0467970" lon="10.3226920">
	<ele>1342.20</ele>
	<time>2025-07-30T07:45:16.000Z</time>
</trkpt>
<trkpt lat="46.0467830" lon="10.3226840">
	<ele>1342.00</ele>
	<time>2025-07-30T07:45:17.000Z</time>
</trkpt>
<trkpt lat="46.0467860" lon="10.3226700">
	<ele>1342.00</ele>
	<time>2025-07-30T07:45:18.000Z</time>
</trkpt>
<trkpt lat="46.0467930" lon="10.3226570">
	<ele>1341.60</ele>
	<time>2025-07-30T07:45:19.000Z</time>
</trkpt>
<trkpt lat="46.0467950" lon="10.3226480">
	<ele>1341.20</ele>
	<time>2025-07-30T07:45:20.000Z</time>
</trkpt>
<trkpt lat="46.0467930" lon="10.3226360">
	<ele>1340.80</ele>
	<time>2025-07-30T07:45:21.000Z</time>
</trkpt>
<trkpt lat="46.0467900" lon="10.3226220">
	<ele>1340.40</ele>
	<time>2025-07-30T07:45:22.000Z</time>
</trkpt>
<trkpt lat="46.0467850" lon="10.3226100">
	<ele>1340.20</ele>
	<time>2025-07-30T07:45:23.000Z</time>
</trkpt>
<trkpt lat="46.0467860" lon="10.3226030">
	<ele>1339.80</ele>
	<time>2025-07-30T07:45:24.000Z</time>
</trkpt>
<trkpt lat="46.0467890" lon="10.3225950">
	<ele>1339.60</ele>
	<time>2025-07-30T07:45:25.000Z</time>
</trkpt>
<trkpt lat="46.0467810" lon="10.3225860">
	<ele>1339.20</ele>
	<time>2025-07-30T07:45:26.000Z</time>
</trkpt>
<trkpt lat="46.0467730" lon="10.3225770">
	<ele>1339.00</ele>
	<time>2025-07-30T07:45:27.000Z</time>
</trkpt>
<trkpt lat="46.0467630" lon="10.3225660">
	<ele>1338.80</ele>
	<time>2025-07-30T07:45:28.000Z</time>
</trkpt>
<trkpt lat="46.0467540" lon="10.3225520">
	<ele>1338.40</ele>
	<time>2025-07-30T07:45:29.000Z</time>
</trkpt>
<trkpt lat="46.0467520" lon="10.3225330">
	<ele>1338.00</ele>
	<time>2025-07-30T07:45:30.000Z</time>
</trkpt>
<trkpt lat="46.0467480" lon="10.3225070">
	<ele>1337.80</ele>
	<time>2025-07-30T07:45:31.000Z</time>
</trkpt>
<trkpt lat="46.0467510" lon="10.3224900">
	<ele>1337.60</ele>
	<time>2025-07-30T07:45:32.000Z</time>
</trkpt>
<trkpt lat="46.0467510" lon="10.3224720">
	<ele>1337.20</ele>
	<time>2025-07-30T07:45:33.000Z</time>
</trkpt>
<trkpt lat="46.0467470" lon="10.3224580">
	<ele>1337.00</ele>
	<time>2025-07-30T07:45:34.000Z</time>
</trkpt>
<trkpt lat="46.0467410" lon="10.3224410">
	<ele>1336.60</ele>
	<time>2025-07-30T07:45:35.000Z</time>
</trkpt>
<trkpt lat="46.0467340" lon="10.3224280">
	<ele>1336.40</ele>
	<time>2025-07-30T07:45:36.000Z</time>
</trkpt>
<trkpt lat="46.0467320" lon="10.3224230">
	<ele>1336.20</ele>
	<time>2025-07-30T07:45:37.000Z</time>
</trkpt>
<trkpt lat="46.0467300" lon="10.3224190">
	<ele>1335.60</ele>
	<time>2025-07-30T07:45:38.000Z</time>
</trkpt>
<trkpt lat="46.0467250" lon="10.3224110">
	<ele>1335.40</ele>
	<time>2025-07-30T07:45:39.000Z</time>
</trkpt>
<trkpt lat="46.0467240" lon="10.3223970">
	<ele>1335.00</ele>
	<time>2025-07-30T07:45:40.000Z</time>
</trkpt>
<trkpt lat="46.0467150" lon="10.3223800">
	<ele>1334.80</ele>
	<time>2025-07-30T07:45:41.000Z</time>
</trkpt>
<trkpt lat="46.0467090" lon="10.3223630">
	<ele>1334.40</ele>
	<time>2025-07-30T07:45:42.000Z</time>
</trkpt>
<trkpt lat="46.0467070" lon="10.3223440">
	<ele>1334.20</ele>
	<time>2025-07-30T07:45:43.000Z</time>
</trkpt>
<trkpt lat="46.0467000" lon="10.3223310">
	<ele>1333.80</ele>
	<time>2025-07-30T07:45:44.000Z</time>
</trkpt>
<trkpt lat="46.0466920" lon="10.3223200">
	<ele>1333.60</ele>
	<time>2025-07-30T07:45:45.000Z</time>
</trkpt>
<trkpt lat="46.0466830" lon="10.3223040">
	<ele>1333.20</ele>
	<time>2025-07-30T07:45:46.000Z</time>
</trkpt>
<trkpt lat="46.0466730" lon="10.3222890">
	<ele>1333.00</ele>
	<time>2025-07-30T07:45:47.000Z</time>
</trkpt>
<trkpt lat="46.0466670" lon="10.3222830">
	<ele>1332.40</ele>
	<time>2025-07-30T07:45:48.000Z</time>
</trkpt>
<trkpt lat="46.0466590" lon="10.3222690">
	<ele>1332.20</ele>
	<time>2025-07-30T07:45:49.000Z</time>
</trkpt>
<trkpt lat="46.0466510" lon="10.3222530">
	<ele>1331.80</ele>
	<time>2025-07-30T07:45:50.000Z</time>
</trkpt>
<trkpt lat="46.0466440" lon="10.3222440">
	<ele>1331.60</ele>
	<time>2025-07-30T07:45:51.000Z</time>
</trkpt>
<trkpt lat="46.0466480" lon="10.3222430">
	<ele>1331.20</ele>
	<time>2025-07-30T07:45:52.000Z</time>
</trkpt>
<trkpt lat="46.0466490" lon="10.3222300">
	<ele>1331.00</ele>
	<time>2025-07-30T07:45:53.000Z</time>
</trkpt>
<trkpt lat="46.0466390" lon="10.3222200">
	<ele>1330.60</ele>
	<time>2025-07-30T07:45:54.000Z</time>
</trkpt>
<trkpt lat="46.0466380" lon="10.3222120">
	<ele>1330.40</ele>
	<time>2025-07-30T07:45:55.000Z</time>
</trkpt>
<trkpt lat="46.0466390" lon="10.3221980">
	<ele>1330.00</ele>
	<time>2025-07-30T07:45:56.000Z</time>
</trkpt>
<trkpt lat="46.0466380" lon="10.3221820">
	<ele>1329.80</ele>
	<time>2025-07-30T07:45:57.000Z</time>
</trkpt>
<trkpt lat="46.0466340" lon="10.3221680">
	<ele>1329.60</ele>
	<time>2025-07-30T07:45:58.000Z</time>
</trkpt>
<trkpt lat="46.0466380" lon="10.3221560">
	<ele>1329.20</ele>
	<time>2025-07-30T07:45:59.000Z</time>
</trkpt>
<trkpt lat="46.0466450" lon="10.3221440">
	<ele>1329.00</ele>
	<time>2025-07-30T07:46:00.000Z</time>
</trkpt>
<trkpt lat="46.0466480" lon="10.3221260">
	<ele>1328.80</ele>
	<time>2025-07-30T07:46:01.000Z</time>
</trkpt>
<trkpt lat="46.0466560" lon="10.3221080">
	<ele>1328.60</ele>
	<time>2025-07-30T07:46:02.000Z</time>
</trkpt>
<trkpt lat="46.0466650" lon="10.3220860">
	<ele>1328.40</ele>
	<time>2025-07-30T07:46:03.000Z</time>
</trkpt>
<trkpt lat="46.0466750" lon="10.3220660">
	<ele>1328.20</ele>
	<time>2025-07-30T07:46:04.000Z</time>
</trkpt>
<trkpt lat="46.0466790" lon="10.3220490">
	<ele>1328.20</ele>
	<time>2025-07-30T07:46:05.000Z</time>
</trkpt>
<trkpt lat="46.0466840" lon="10.3220370">
	<ele>1328.00</ele>
	<time>2025-07-30T07:46:06.000Z</time>
</trkpt>
<trkpt lat="46.0466820" lon="10.3220240">
	<ele>1327.80</ele>
	<time>2025-07-30T07:46:07.000Z</time>
</trkpt>
<trkpt lat="46.0466830" lon="10.3220090">
	<ele>1327.80</ele>
	<time>2025-07-30T07:46:08.000Z</time>
</trkpt>
<trkpt lat="46.0466850" lon="10.3219910">
	<ele>1327.60</ele>
	<time>2025-07-30T07:46:09.000Z</time>
</trkpt>
<trkpt lat="46.0466810" lon="10.3219780">
	<ele>1327.40</ele>
	<time>2025-07-30T07:46:10.000Z</time>
</trkpt>
<trkpt lat="46.0466800" lon="10.3219620">
	<ele>1327.20</ele>
	<time>2025-07-30T07:46:11.000Z</time>
</trkpt>
<trkpt lat="46.0466800" lon="10.3219450">
	<ele>1327.00</ele>
	<time>2025-07-30T07:46:12.000Z</time>
</trkpt>
<trkpt lat="46.0466760" lon="10.3219280">
	<ele>1326.60</ele>
	<time>2025-07-30T07:46:13.000Z</time>
</trkpt>
<trkpt lat="46.0466770" lon="10.3219220">
	<ele>1326.20</ele>
	<time>2025-07-30T07:46:14.000Z</time>
</trkpt>
<trkpt lat="46.0466720" lon="10.3219080">
	<ele>1326.00</ele>
	<time>2025-07-30T07:46:15.000Z</time>
</trkpt>
<trkpt lat="46.0466680" lon="10.3219010">
	<ele>1325.80</ele>
	<time>2025-07-30T07:46:16.000Z</time>
</trkpt>
<trkpt lat="46.0466670" lon="10.3218900">
	<ele>1325.40</ele>
	<time>2025-07-30T07:46:17.000Z</time>
</trkpt>
<trkpt lat="46.0466600" lon="10.3218760">
	<ele>1325.20</ele>
	<time>2025-07-30T07:46:18.000Z</time>
</trkpt>
<trkpt lat="46.0466580" lon="10.3218610">
	<ele>1324.80</ele>
	<time>2025-07-30T07:46:19.000Z</time>
</trkpt>
<trkpt lat="46.0466610" lon="10.3218460">
	<ele>1324.60</ele>
	<time>2025-07-30T07:46:20.000Z</time>
</trkpt>
<trkpt lat="46.0466650" lon="10.3218290">
	<ele>1324.40</ele>
	<time>2025-07-30T07:46:21.000Z</time>
</trkpt>
<trkpt lat="46.0466680" lon="10.3218120">
	<ele>1324.00</ele>
	<time>2025-07-30T07:46:22.000Z</time>
</trkpt>
<trkpt lat="46.0466670" lon="10.3217990">
	<ele>1323.80</ele>
	<time>2025-07-30T07:46:23.000Z</time>
</trkpt>
<trkpt lat="46.0466680" lon="10.3217880">
	<ele>1323.60</ele>
	<time>2025-07-30T07:46:24.000Z</time>
</trkpt>
<trkpt lat="46.0466690" lon="10.3217710">
	<ele>1323.40</ele>
	<time>2025-07-30T07:46:25.000Z</time>
</trkpt>
<trkpt lat="46.0466710" lon="10.3217600">
	<ele>1323.00</ele>
	<time>2025-07-30T07:46:26.000Z</time>
</trkpt>
<trkpt lat="46.0466710" lon="10.3217460">
	<ele>1322.80</ele>
	<time>2025-07-30T07:46:27.000Z</time>
</trkpt>
<trkpt lat="46.0466720" lon="10.3217310">
	<ele>1322.60</ele>
	<time>2025-07-30T07:46:28.000Z</time>
</trkpt>
<trkpt lat="46.0466700" lon="10.3217200">
	<ele>1322.20</ele>
	<time>2025-07-30T07:46:29.000Z</time>
</trkpt>
<trkpt lat="46.0466700" lon="10.3217080">
	<ele>1321.80</ele>
	<time>2025-07-30T07:46:30.000Z</time>
</trkpt>
<trkpt lat="46.0466730" lon="10.3216960">
	<ele>1321.60</ele>
	<time>2025-07-30T07:46:31.000Z</time>
</trkpt>
<trkpt lat="46.0466720" lon="10.3216840">
	<ele>1321.20</ele>
	<time>2025-07-30T07:46:32.000Z</time>
</trkpt>
<trkpt lat="46.0466750" lon="10.3216690">
	<ele>1321.00</ele>
	<time>2025-07-30T07:46:33.000Z</time>
</trkpt>
<trkpt lat="46.0466770" lon="10.3216570">
	<ele>1320.60</ele>
	<time>2025-07-30T07:46:34.000Z</time>
</trkpt>
<trkpt lat="46.0466730" lon="10.3216470">
	<ele>1320.40</ele>
	<time>2025-07-30T07:46:35.000Z</time>
</trkpt>
<trkpt lat="46.0466700" lon="10.3216300">
	<ele>1320.00</ele>
	<time>2025-07-30T07:46:36.000Z</time>
</trkpt>
<trkpt lat="46.0466650" lon="10.3216140">
	<ele>1319.80</ele>
	<time>2025-07-30T07:46:37.000Z</time>
</trkpt>
<trkpt lat="46.0466610" lon="10.3216080">
	<ele>1319.40</ele>
	<time>2025-07-30T07:46:38.000Z</time>
</trkpt>
<trkpt lat="46.0466570" lon="10.3216050">
	<ele>1319.00</ele>
	<time>2025-07-30T07:46:39.000Z</time>
</trkpt>
<trkpt lat="46.0466500" lon="10.3216030">
	<ele>1318.80</ele>
	<time>2025-07-30T07:46:40.000Z</time>
</trkpt>
<trkpt lat="46.0466440" lon="10.3216070">
	<ele>1318.40</ele>
	<time>2025-07-30T07:46:41.000Z</time>
</trkpt>
<trkpt lat="46.0466380" lon="10.3216120">
	<ele>1318.20</ele>
	<time>2025-07-30T07:46:42.000Z</time>
</trkpt>
<trkpt lat="46.0466300" lon="10.3216170">
	<ele>1318.00</ele>
	<time>2025-07-30T07:46:43.000Z</time>
</trkpt>
<trkpt lat="46.0466190" lon="10.3216250">
	<ele>1317.60</ele>
	<time>2025-07-30T07:46:44.000Z</time>
</trkpt>
<trkpt lat="46.0466060" lon="10.3216340">
	<ele>1317.40</ele>
	<time>2025-07-30T07:46:45.000Z</time>
</trkpt>
<trkpt lat="46.0465960" lon="10.3216450">
	<ele>1317.00</ele>
	<time>2025-07-30T07:46:46.000Z</time>
</trkpt>
<trkpt lat="46.0465810" lon="10.3216520">
	<ele>1316.60</ele>
	<time>2025-07-30T07:46:47.000Z</time>
</trkpt>
<trkpt lat="46.0465660" lon="10.3216560">
	<ele>1316.40</ele>
	<time>2025-07-30T07:46:48.000Z</time>
</trkpt>
<trkpt lat="46.0465550" lon="10.3216600">
	<ele>1316.20</ele>
	<time>2025-07-30T07:46:49.000Z</time>
</trkpt>
<trkpt lat="46.0465440" lon="10.3216660">
	<ele>1316.00</ele>
	<time>2025-07-30T07:46:50.000Z</time>
</trkpt>
<trkpt lat="46.0465350" lon="10.3216770">
	<ele>1315.60</ele>
	<time>2025-07-30T07:46:51.000Z</time>
</trkpt>
<trkpt lat="46.0465300" lon="10.3216860">
	<ele>1315.40</ele>
	<time>2025-07-30T07:46:52.000Z</time>
</trkpt>
<trkpt lat="46.0465250" lon="10.3216920">
	<ele>1315.40</ele>
	<time>2025-07-30T07:46:53.000Z</time>
</trkpt>
<trkpt lat="46.0465160" lon="10.3217070">
	<ele>1315.20</ele>
	<time>2025-07-30T07:46:54.000Z</time>
</trkpt>
<trkpt lat="46.0465120" lon="10.3217210">
	<ele>1315.00</ele>
	<time>2025-07-30T07:46:55.000Z</time>
</trkpt>
<trkpt lat="46.0465030" lon="10.3217320">
	<ele>1314.80</ele>
	<time>2025-07-30T07:46:56.000Z</time>
</trkpt>
<trkpt lat="46.0464930" lon="10.3217370">
	<ele>1314.60</ele>
	<time>2025-07-30T07:46:57.000Z</time>
</trkpt>
<trkpt lat="46.0464770" lon="10.3217420">
	<ele>1314.40</ele>
	<time>2025-07-30T07:46:58.000Z</time>
</trkpt>
<trkpt lat="46.0464620" lon="10.3217460">
	<ele>1314.20</ele>
	<time>2025-07-30T07:46:59.000Z</time>
</trkpt>
<trkpt lat="46.0464580" lon="10.3217530">
	<ele>1314.00</ele>
	<time>2025-07-30T07:47:00.000Z</time>
</trkpt>
<trkpt lat="46.0464440" lon="10.3217610">
	<ele>1313.60</ele>
	<time>2025-07-30T07:47:01.000Z</time>
</trkpt>
<trkpt lat="46.0464370" lon="10.3217660">
	<ele>1313.40</ele>
	<time>2025-07-30T07:47:02.000Z</time>
</trkpt>
<trkpt lat="46.0464240" lon="10.3217730">
	<ele>1313.20</ele>
	<time>2025-07-30T07:47:03.000Z</time>
</trkpt>
<trkpt lat="46.0464180" lon="10.3217800">
	<ele>1312.80</ele>
	<time>2025-07-30T07:47:04.000Z</time>
</trkpt>
<trkpt lat="46.0464090" lon="10.3217880">
	<ele>1312.40</ele>
	<time>2025-07-30T07:47:05.000Z</time>
</trkpt>
<trkpt lat="46.0463950" lon="10.3217960">
	<ele>1312.20</ele>
	<time>2025-07-30T07:47:06.000Z</time>
</trkpt>
<trkpt lat="46.0463790" lon="10.3217990">
	<ele>1311.80</ele>
	<time>2025-07-30T07:47:07.000Z</time>
</trkpt>
<trkpt lat="46.0463700" lon="10.3218040">
	<ele>1311.60</ele>
	<time>2025-07-30T07:47:08.000Z</time>
</trkpt>
<trkpt lat="46.0463570" lon="10.3218120">
	<ele>1311.40</ele>
	<time>2025-07-30T07:47:09.000Z</time>
</trkpt>
<trkpt lat="46.0463520" lon="10.3218180">
	<ele>1311.20</ele>
	<time>2025-07-30T07:47:10.000Z</time>
</trkpt>
<trkpt lat="46.0463490" lon="10.3218260">
	<ele>1310.80</ele>
	<time>2025-07-30T07:47:11.000Z</time>
</trkpt>
<trkpt lat="46.0463420" lon="10.3218360">
	<ele>1310.40</ele>
	<time>2025-07-30T07:47:12.000Z</time>
</trkpt>
<trkpt lat="46.0463350" lon="10.3218490">
	<ele>1310.00</ele>
	<time>2025-07-30T07:47:13.000Z</time>
</trkpt>
<trkpt lat="46.0463310" lon="10.3218670">
	<ele>1309.80</ele>
	<time>2025-07-30T07:47:14.000Z</time>
</trkpt>
<trkpt lat="46.0463310" lon="10.3218850">
	<ele>1309.40</ele>
	<time>2025-07-30T07:47:15.000Z</time>
</trkpt>
<trkpt lat="46.0463290" lon="10.3219030">
	<ele>1309.20</ele>
	<time>2025-07-30T07:47:16.000Z</time>
</trkpt>
<trkpt lat="46.0463240" lon="10.3219230">
	<ele>1309.00</ele>
	<time>2025-07-30T07:47:17.000Z</time>
</trkpt>
<trkpt lat="46.0463210" lon="10.3219400">
	<ele>1309.00</ele>
	<time>2025-07-30T07:47:18.000Z</time>
</trkpt>
<trkpt lat="46.0463160" lon="10.3219560">
	<ele>1308.80</ele>
	<time>2025-07-30T07:47:19.000Z</time>
</trkpt>
<trkpt lat="46.0463060" lon="10.3219680">
	<ele>1308.80</ele>
	<time>2025-07-30T07:47:20.000Z</time>
</trkpt>
<trkpt lat="46.0462980" lon="10.3219840">
	<ele>1308.80</ele>
	<time>2025-07-30T07:47:21.000Z</time>
</trkpt>
<trkpt lat="46.0462950" lon="10.3220020">
	<ele>1308.60</ele>
	<time>2025-07-30T07:47:22.000Z</time>
</trkpt>
<trkpt lat="46.0462890" lon="10.3220180">
	<ele>1308.60</ele>
	<time>2025-07-30T07:47:23.000Z</time>
</trkpt>
<trkpt lat="46.0462840" lon="10.3220340">
	<ele>1308.40</ele>
	<time>2025-07-30T07:47:24.000Z</time>
</trkpt>
<trkpt lat="46.0462810" lon="10.3220510">
	<ele>1308.40</ele>
	<time>2025-07-30T07:47:25.000Z</time>
</trkpt>
<trkpt lat="46.0462740" lon="10.3220700">
	<ele>1308.20</ele>
	<time>2025-07-30T07:47:26.000Z</time>
</trkpt>
<trkpt lat="46.0462650" lon="10.3220850">
	<ele>1308.20</ele>
	<time>2025-07-30T07:47:27.000Z</time>
</trkpt>
<trkpt lat="46.0462500" lon="10.3220940">
	<ele>1308.00</ele>
	<time>2025-07-30T07:47:28.000Z</time>
</trkpt>
<trkpt lat="46.0462430" lon="10.3221050">
	<ele>1307.80</ele>
	<time>2025-07-30T07:47:29.000Z</time>
</trkpt>
<trkpt lat="46.0462420" lon="10.3221220">
	<ele>1307.60</ele>
	<time>2025-07-30T07:47:30.000Z</time>
</trkpt>
<trkpt lat="46.0462350" lon="10.3221300">
	<ele>1307.40</ele>
	<time>2025-07-30T07:47:31.000Z</time>
</trkpt>
<trkpt lat="46.0462290" lon="10.3221360">
	<ele>1307.40</ele>
	<time>2025-07-30T07:47:32.000Z</time>
</trkpt>
<trkpt lat="46.0462170" lon="10.3221450">
	<ele>1307.20</ele>
	<time>2025-07-30T07:47:33.000Z</time>
</trkpt>
<trkpt lat="46.0462040" lon="10.3221570">
	<ele>1307.20</ele>
	<time>2025-07-30T07:47:34.000Z</time>
</trkpt>
<trkpt lat="46.0461870" lon="10.3221720">
	<ele>1307.00</ele>
	<time>2025-07-30T07:47:35.000Z</time>
</trkpt>
<trkpt lat="46.0461760" lon="10.3221880">
	<ele>1306.80</ele>
	<time>2025-07-30T07:47:36.000Z</time>
</trkpt>
<trkpt lat="46.0461740" lon="10.3222090">
	<ele>1306.80</ele>
	<time>2025-07-30T07:47:37.000Z</time>
</trkpt>
<trkpt lat="46.0461720" lon="10.3222200">
	<ele>1306.80</ele>
	<time>2025-07-30T07:47:38.000Z</time>
</trkpt>
<trkpt lat="46.0461690" lon="10.3222350">
	<ele>1306.60</ele>
	<time>2025-07-30T07:47:39.000Z</time>
</trkpt>
<trkpt lat="46.0461650" lon="10.3222580">
	<ele>1306.40</ele>
	<time>2025-07-30T07:47:40.000Z</time>
</trkpt>
<trkpt lat="46.0461570" lon="10.3222750">
	<ele>1306.20</ele>
	<time>2025-07-30T07:47:41.000Z</time>
</trkpt>
<trkpt lat="46.0461520" lon="10.3222840">
	<ele>1306.20</ele>
	<time>2025-07-30T07:47:42.000Z</time>
</trkpt>
<trkpt lat="46.0461450" lon="10.3222990">
	<ele>1306.00</ele>
	<time>2025-07-30T07:47:43.000Z</time>
</trkpt>
<trkpt lat="46.0461400" lon="10.3223110">
	<ele>1305.80</ele>
	<time>2025-07-30T07:47:44.000Z</time>
</trkpt>
<trkpt lat="46.0461360" lon="10.3223230">
	<ele>1305.60</ele>
	<time>2025-07-30T07:47:45.000Z</time>
</trkpt>
<trkpt lat="46.0461360" lon="10.3223410">
	<ele>1305.20</ele>
	<time>2025-07-30T07:47:46.000Z</time>
</trkpt>
<trkpt lat="46.0461350" lon="10.3223590">
	<ele>1305.20</ele>
	<time>2025-07-30T07:47:47.000Z</time>
</trkpt>
<trkpt lat="46.0461360" lon="10.3223730">
	<ele>1305.00</ele>
	<time>2025-07-30T07:47:48.000Z</time>
</trkpt>
<trkpt lat="46.0461340" lon="10.3223820">
	<ele>1304.80</ele>
	<time>2025-07-30T07:47:49.000Z</time>
</trkpt>
<trkpt lat="46.0461300" lon="10.3223950">
	<ele>1304.60</ele>
	<time>2025-07-30T07:47:50.000Z</time>
</trkpt>
<trkpt lat="46.0461300" lon="10.3224080">
	<ele>1304.40</ele>
	<time>2025-07-30T07:47:51.000Z</time>
</trkpt>
<trkpt lat="46.0461340" lon="10.3224240">
	<ele>1304.40</ele>
	<time>2025-07-30T07:47:52.000Z</time>
</trkpt>
<trkpt lat="46.0461350" lon="10.3224390">
	<ele>1304.00</ele>
	<time>2025-07-30T07:47:53.000Z</time>
</trkpt>
<trkpt lat="46.0461340" lon="10.3224540">
	<ele>1303.80</ele>
	<time>2025-07-30T07:47:54.000Z</time>
</trkpt>
<trkpt lat="46.0461360" lon="10.3224710">
	<ele>1303.60</ele>
	<time>2025-07-30T07:47:55.000Z</time>
</trkpt>
<trkpt lat="46.0461350" lon="10.3224910">
	<ele>1303.40</ele>
	<time>2025-07-30T07:47:56.000Z</time>
</trkpt>
<trkpt lat="46.0461340" lon="10.3225090">
	<ele>1303.20</ele>
	<time>2025-07-30T07:47:57.000Z</time>
</trkpt>
<trkpt lat="46.0461330" lon="10.3225240">
	<ele>1303.00</ele>
	<time>2025-07-30T07:47:58.000Z</time>
</trkpt>
<trkpt lat="46.0461290" lon="10.3225400">
	<ele>1302.80</ele>
	<time>2025-07-30T07:47:59.000Z</time>
</trkpt>
<trkpt lat="46.0461270" lon="10.3225580">
	<ele>1302.60</ele>
	<time>2025-07-30T07:48:00.000Z</time>
</trkpt>
<trkpt lat="46.0461270" lon="10.3225750">
	<ele>1302.60</ele>
	<time>2025-07-30T07:48:01.000Z</time>
</trkpt>
<trkpt lat="46.0461280" lon="10.3225890">
	<ele>1302.40</ele>
	<time>2025-07-30T07:48:02.000Z</time>
</trkpt>
<trkpt lat="46.0461290" lon="10.3226020">
	<ele>1302.20</ele>
	<time>2025-07-30T07:48:03.000Z</time>
</trkpt>
<trkpt lat="46.0461290" lon="10.3226180">
	<ele>1302.00</ele>
	<time>2025-07-30T07:48:04.000Z</time>
</trkpt>
<trkpt lat="46.0461270" lon="10.3226310">
	<ele>1302.00</ele>
	<time>2025-07-30T07:48:05.000Z</time>
</trkpt>
<trkpt lat="46.0461260" lon="10.3226440">
	<ele>1301.80</ele>
	<time>2025-07-30T07:48:06.000Z</time>
</trkpt>
<trkpt lat="46.0461220" lon="10.3226540">
	<ele>1301.60</ele>
	<time>2025-07-30T07:48:07.000Z</time>
</trkpt>
<trkpt lat="46.0461170" lon="10.3226660">
	<ele>1301.20</ele>
	<time>2025-07-30T07:48:08.000Z</time>
</trkpt>
<trkpt lat="46.0461140" lon="10.3226810">
	<ele>1301.00</ele>
	<time>2025-07-30T07:48:09.000Z</time>
</trkpt>
<trkpt lat="46.0461120" lon="10.3226950">
	<ele>1300.80</ele>
	<time>2025-07-30T07:48:10.000Z</time>
</trkpt>
<trkpt lat="46.0461120" lon="10.3227080">
	<ele>1300.60</ele>
	<time>2025-07-30T07:48:11.000Z</time>
</trkpt>
<trkpt lat="46.0461120" lon="10.3227220">
	<ele>1300.40</ele>
	<time>2025-07-30T07:48:12.000Z</time>
</trkpt>
<trkpt lat="46.0461100" lon="10.3227320">
	<ele>1300.20</ele>
	<time>2025-07-30T07:48:13.000Z</time>
</trkpt>
<trkpt lat="46.0461080" lon="10.3227450">
	<ele>1300.00</ele>
	<time>2025-07-30T07:48:14.000Z</time>
</trkpt>
<trkpt lat="46.0461100" lon="10.3227580">
	<ele>1299.60</ele>
	<time>2025-07-30T07:48:15.000Z</time>
</trkpt>
<trkpt lat="46.0461050" lon="10.3227700">
	<ele>1299.20</ele>
	<time>2025-07-30T07:48:16.000Z</time>
</trkpt>
<trkpt lat="46.0460950" lon="10.3227800">
	<ele>1298.80</ele>
	<time>2025-07-30T07:48:17.000Z</time>
</trkpt>
<trkpt lat="46.0460790" lon="10.3227890">
	<ele>1298.60</ele>
	<time>2025-07-30T07:48:18.000Z</time>
</trkpt>
<trkpt lat="46.0460610" lon="10.3227980">
	<ele>1298.40</ele>
	<time>2025-07-30T07:48:19.000Z</time>
</trkpt>
<trkpt lat="46.0460510" lon="10.3228120">
	<ele>1298.20</ele>
	<time>2025-07-30T07:48:20.000Z</time>
</trkpt>
<trkpt lat="46.0460410" lon="10.3228330">
	<ele>1298.20</ele>
	<time>2025-07-30T07:48:21.000Z</time>
</trkpt>
<trkpt lat="46.0460410" lon="10.3228510">
	<ele>1297.80</ele>
	<time>2025-07-30T07:48:22.000Z</time>
</trkpt>
<trkpt lat="46.0460390" lon="10.3228660">
	<ele>1297.60</ele>
	<time>2025-07-30T07:48:23.000Z</time>
</trkpt>
<trkpt lat="46.0460380" lon="10.3228800">
	<ele>1297.40</ele>
	<time>2025-07-30T07:48:24.000Z</time>
</trkpt>
<trkpt lat="46.0460330" lon="10.3228960">
	<ele>1297.40</ele>
	<time>2025-07-30T07:48:25.000Z</time>
</trkpt>
<trkpt lat="46.0460250" lon="10.3229090">
	<ele>1297.00</ele>
	<time>2025-07-30T07:48:26.000Z</time>
</trkpt>
<trkpt lat="46.0460250" lon="10.3229230">
	<ele>1296.80</ele>
	<time>2025-07-30T07:48:27.000Z</time>
</trkpt>
<trkpt lat="46.0460240" lon="10.3229340">
	<ele>1296.80</ele>
	<time>2025-07-30T07:48:28.000Z</time>
</trkpt>
<trkpt lat="46.0460250" lon="10.3229460">
	<ele>1296.60</ele>
	<time>2025-07-30T07:48:29.000Z</time>
</trkpt>
<trkpt lat="46.0460270" lon="10.3229600">
	<ele>1296.40</ele>
	<time>2025-07-30T07:48:30.000Z</time>
</trkpt>
<trkpt lat="46.0460250" lon="10.3229740">
	<ele>1296.00</ele>
	<time>2025-07-30T07:48:31.000Z</time>
</trkpt>
<trkpt lat="46.0460260" lon="10.3229890">
	<ele>1295.80</ele>
	<time>2025-07-30T07:48:32.000Z</time>
</trkpt>
<trkpt lat="46.0460300" lon="10.3229970">
	<ele>1295.60</ele>
	<time>2025-07-30T07:48:33.000Z</time>
</trkpt>
<trkpt lat="46.0460370" lon="10.3230060">
	<ele>1295.40</ele>
	<time>2025-07-30T07:48:34.000Z</time>
</trkpt>
<trkpt lat="46.0460410" lon="10.3230160">
	<ele>1295.00</ele>
	<time>2025-07-30T07:48:35.000Z</time>
</trkpt>
<trkpt lat="46.0460430" lon="10.3230240">
	<ele>1294.80</ele>
	<time>2025-07-30T07:48:36.000Z</time>
</trkpt>
<trkpt lat="46.0460440" lon="10.3230350">
	<ele>1294.40</ele>
	<time>2025-07-30T07:48:37.000Z</time>
</trkpt>
<trkpt lat="46.0460480" lon="10.3230420">
	<ele>1294.00</ele>
	<time>2025-07-30T07:48:38.000Z</time>
</trkpt>
<trkpt lat="46.0460540" lon="10.3230510">
	<ele>1293.60</ele>
	<time>2025-07-30T07:48:39.000Z</time>
</trkpt>
<trkpt lat="46.0460580" lon="10.3230650">
	<ele>1293.40</ele>
	<time>2025-07-30T07:48:40.000Z</time>
</trkpt>
<trkpt lat="46.0460570" lon="10.3230810">
	<ele>1293.20</ele>
	<time>2025-07-30T07:48:41.000Z</time>
</trkpt>
<trkpt lat="46.0460570" lon="10.3230950">
	<ele>1293.00</ele>
	<time>2025-07-30T07:48:42.000Z</time>
</trkpt>
<trkpt lat="46.0460560" lon="10.3231070">
	<ele>1292.80</ele>
	<time>2025-07-30T07:48:43.000Z</time>
</trkpt>
<trkpt lat="46.0460570" lon="10.3231170">
	<ele>1292.40</ele>
	<time>2025-07-30T07:48:44.000Z</time>
</trkpt>
<trkpt lat="46.0460590" lon="10.3231260">
	<ele>1292.00</ele>
	<time>2025-07-30T07:48:45.000Z</time>
</trkpt>
<trkpt lat="46.0460620" lon="10.3231350">
	<ele>1291.80</ele>
	<time>2025-07-30T07:48:46.000Z</time>
</trkpt>
<trkpt lat="46.0460630" lon="10.3231470">
	<ele>1291.60</ele>
	<time>2025-07-30T07:48:47.000Z</time>
</trkpt>
<trkpt lat="46.0460620" lon="10.3231620">
	<ele>1291.40</ele>
	<time>2025-07-30T07:48:48.000Z</time>
</trkpt>
<trkpt lat="46.0460630" lon="10.3231670">
	<ele>1291.20</ele>
	<time>2025-07-30T07:48:49.000Z</time>
</trkpt>
<trkpt lat="46.0460640" lon="10.3231750">
	<ele>1291.00</ele>
	<time>2025-07-30T07:48:50.000Z</time>
</trkpt>
<trkpt lat="46.0460660" lon="10.3231850">
	<ele>1290.80</ele>
	<time>2025-07-30T07:48:51.000Z</time>
</trkpt>
<trkpt lat="46.0460670" lon="10.3231960">
	<ele>1290.60</ele>
	<time>2025-07-30T07:48:52.000Z</time>
</trkpt>
<trkpt lat="46.0460700" lon="10.3232090">
	<ele>1290.20</ele>
	<time>2025-07-30T07:48:53.000Z</time>
</trkpt>
<trkpt lat="46.0460670" lon="10.3232220">
	<ele>1290.00</ele>
	<time>2025-07-30T07:48:54.000Z</time>
</trkpt>
<trkpt lat="46.0460640" lon="10.3232390">
	<ele>1289.80</ele>
	<time>2025-07-30T07:48:55.000Z</time>
</trkpt>
<trkpt lat="46.0460620" lon="10.3232500">
	<ele>1289.40</ele>
	<time>2025-07-30T07:48:56.000Z</time>
</trkpt>
<trkpt lat="46.0460660" lon="10.3232600">
	<ele>1289.20</ele>
	<time>2025-07-30T07:48:57.000Z</time>
</trkpt>
<trkpt lat="46.0460630" lon="10.3232670">
	<ele>1288.80</ele>
	<time>2025-07-30T07:48:58.000Z</time>
</trkpt>
<trkpt lat="46.0460550" lon="10.3232720">
	<ele>1288.60</ele>
	<time>2025-07-30T07:48:59.000Z</time>
</trkpt>
<trkpt lat="46.0460480" lon="10.3232810">
	<ele>1288.40</ele>
	<time>2025-07-30T07:49:00.000Z</time>
</trkpt>
<trkpt lat="46.0460410" lon="10.3232990">
	<ele>1288.00</ele>
	<time>2025-07-30T07:49:01.000Z</time>
</trkpt>
<trkpt lat="46.0460370" lon="10.3233120">
	<ele>1287.80</ele>
	<time>2025-07-30T07:49:02.000Z</time>
</trkpt>
<trkpt lat="46.0460370" lon="10.3233280">
	<ele>1287.60</ele>
	<time>2025-07-30T07:49:03.000Z</time>
</trkpt>
<trkpt lat="46.0460310" lon="10.3233360">
	<ele>1287.40</ele>
	<time>2025-07-30T07:49:04.000Z</time>
</trkpt>
<trkpt lat="46.0460190" lon="10.3233360">
	<ele>1287.20</ele>
	<time>2025-07-30T07:49:05.000Z</time>
</trkpt>
<trkpt lat="46.0460080" lon="10.3233450">
	<ele>1287.20</ele>
	<time>2025-07-30T07:49:06.000Z</time>
</trkpt>
<trkpt lat="46.0459960" lon="10.3233510">
	<ele>1286.60</ele>
	<time>2025-07-30T07:49:07.000Z</time>
</trkpt>
<trkpt lat="46.0459810" lon="10.3233560">
	<ele>1286.40</ele>
	<time>2025-07-30T07:49:08.000Z</time>
</trkpt>
<trkpt lat="46.0459700" lon="10.3233640">
	<ele>1286.20</ele>
	<time>2025-07-30T07:49:09.000Z</time>
</trkpt>
<trkpt lat="46.0459570" lon="10.3233700">
	<ele>1286.00</ele>
	<time>2025-07-30T07:49:10.000Z</time>
</trkpt>
<trkpt lat="46.0459440" lon="10.3233760">
	<ele>1285.60</ele>
	<time>2025-07-30T07:49:11.000Z</time>
</trkpt>
<trkpt lat="46.0459340" lon="10.3233870">
	<ele>1285.40</ele>
	<time>2025-07-30T07:49:12.000Z</time>
</trkpt>
<trkpt lat="46.0459250" lon="10.3233920">
	<ele>1285.20</ele>
	<time>2025-07-30T07:49:13.000Z</time>
</trkpt>
<trkpt lat="46.0459270" lon="10.3234050">
	<ele>1285.00</ele>
	<time>2025-07-30T07:49:14.000Z</time>
</trkpt>
<trkpt lat="46.0459250" lon="10.3234140">
	<ele>1284.80</ele>
	<time>2025-07-30T07:49:15.000Z</time>
</trkpt>
<trkpt lat="46.0459180" lon="10.3234240">
	<ele>1284.40</ele>
	<time>2025-07-30T07:49:16.000Z</time>
</trkpt>
<trkpt lat="46.0459090" lon="10.3234360">
	<ele>1284.20</ele>
	<time>2025-07-30T07:49:17.000Z</time>
</trkpt>
<trkpt lat="46.0459000" lon="10.3234480">
	<ele>1284.00</ele>
	<time>2025-07-30T07:49:18.000Z</time>
</trkpt>
<trkpt lat="46.0458950" lon="10.3234560">
	<ele>1283.60</ele>
	<time>2025-07-30T07:49:19.000Z</time>
</trkpt>
<trkpt lat="46.0458900" lon="10.3234630">
	<ele>1283.20</ele>
	<time>2025-07-30T07:49:20.000Z</time>
</trkpt>
<trkpt lat="46.0458850" lon="10.3234670">
	<ele>1283.00</ele>
	<time>2025-07-30T07:49:21.000Z</time>
</trkpt>
<trkpt lat="46.0458800" lon="10.3234690">
	<ele>1282.60</ele>
	<time>2025-07-30T07:49:22.000Z</time>
</trkpt>
<trkpt lat="46.0458740" lon="10.3234790">
	<ele>1282.40</ele>
	<time>2025-07-30T07:49:23.000Z</time>
</trkpt>
<trkpt lat="46.0458670" lon="10.3234880">
	<ele>1282.00</ele>
	<time>2025-07-30T07:49:24.000Z</time>
</trkpt>
<trkpt lat="46.0458570" lon="10.3234940">
	<ele>1281.80</ele>
	<time>2025-07-30T07:49:25.000Z</time>
</trkpt>
<trkpt lat="46.0458420" lon="10.3235010">
	<ele>1281.40</ele>
	<time>2025-07-30T07:49:26.000Z</time>
</trkpt>
<trkpt lat="46.0458330" lon="10.3235050">
	<ele>1281.00</ele>
	<time>2025-07-30T07:49:27.000Z</time>
</trkpt>
<trkpt lat="46.0458220" lon="10.3235090">
	<ele>1281.00</ele>
	<time>2025-07-30T07:49:28.000Z</time>
</trkpt>
<trkpt lat="46.0458110" lon="10.3235200">
	<ele>1280.60</ele>
	<time>2025-07-30T07:49:29.000Z</time>
</trkpt>
<trkpt lat="46.0458060" lon="10.3235330">
	<ele>1280.40</ele>
	<time>2025-07-30T07:49:30.000Z</time>
</trkpt>
<trkpt lat="46.0458030" lon="10.3235520">
	<ele>1280.20</ele>
	<time>2025-07-30T07:49:31.000Z</time>
</trkpt>
<trkpt lat="46.0457970" lon="10.3235680">
	<ele>1280.00</ele>
	<time>2025-07-30T07:49:32.000Z</time>
</trkpt>
<trkpt lat="46.0457920" lon="10.3235850">
	<ele>1279.60</ele>
	<time>2025-07-30T07:49:33.000Z</time>
</trkpt>
<trkpt lat="46.0457850" lon="10.3236040">
	<ele>1279.60</ele>
	<time>2025-07-30T07:49:34.000Z</time>
</trkpt>
<trkpt lat="46.0457810" lon="10.3236270">
	<ele>1279.40</ele>
	<time>2025-07-30T07:49:35.000Z</time>
</trkpt>
<trkpt lat="46.0457740" lon="10.3236450">
	<ele>1279.20</ele>
	<time>2025-07-30T07:49:36.000Z</time>
</trkpt>
<trkpt lat="46.0457640" lon="10.3236580">
	<ele>1279.00</ele>
	<time>2025-07-30T07:49:37.000Z</time>
</trkpt>
<trkpt lat="46.0457510" lon="10.3236690">
	<ele>1279.00</ele>
	<time>2025-07-30T07:49:38.000Z</time>
</trkpt>
<trkpt lat="46.0457420" lon="10.3236880">
	<ele>1278.60</ele>
	<time>2025-07-30T07:49:39.000Z</time>
</trkpt>
<trkpt lat="46.0457400" lon="10.3237070">
	<ele>1278.40</ele>
	<time>2025-07-30T07:49:40.000Z</time>
</trkpt>
<trkpt lat="46.0457370" lon="10.3237210">
	<ele>1278.20</ele>
	<time>2025-07-30T07:49:41.000Z</time>
</trkpt>
<trkpt lat="46.0457310" lon="10.3237320">
	<ele>1278.20</ele>
	<time>2025-07-30T07:49:42.000Z</time>
</trkpt>
<trkpt lat="46.0457240" lon="10.3237460">
	<ele>1278.20</ele>
	<time>2025-07-30T07:49:43.000Z</time>
</trkpt>
<trkpt lat="46.0457140" lon="10.3237600">
	<ele>1278.20</ele>
	<time>2025-07-30T07:49:44.000Z</time>
</trkpt>
<trkpt lat="46.0457060" lon="10.3237740">
	<ele>1278.20</ele>
	<time>2025-07-30T07:49:45.000Z</time>
</trkpt>
<trkpt lat="46.0456980" lon="10.3237900">
	<ele>1278.20</ele>
	<time>2025-07-30T07:49:46.000Z</time>
</trkpt>
<trkpt lat="46.0456930" lon="10.3238040">
	<ele>1278.20</ele>
	<time>2025-07-30T07:49:47.000Z</time>
</trkpt>
<trkpt lat="46.0456900" lon="10.3238200">
	<ele>1278.20</ele>
	<time>2025-07-30T07:49:48.000Z</time>
</trkpt>
<trkpt lat="46.0456880" lon="10.3238360">
	<ele>1278.00</ele>
	<time>2025-07-30T07:49:49.000Z</time>
</trkpt>
<trkpt lat="46.0456880" lon="10.3238500">
	<ele>1278.00</ele>
	<time>2025-07-30T07:49:50.000Z</time>
</trkpt>
<trkpt lat="46.0456820" lon="10.3238630">
	<ele>1277.80</ele>
	<time>2025-07-30T07:49:51.000Z</time>
</trkpt>
<trkpt lat="46.0456830" lon="10.3238780">
	<ele>1277.80</ele>
	<time>2025-07-30T07:49:52.000Z</time>
</trkpt>
<trkpt lat="46.0456840" lon="10.3238880">
	<ele>1277.60</ele>
	<time>2025-07-30T07:49:53.000Z</time>
</trkpt>
<trkpt lat="46.0456900" lon="10.3239050">
	<ele>1277.40</ele>
	<time>2025-07-30T07:49:54.000Z</time>
</trkpt>
<trkpt lat="46.0456940" lon="10.3239160">
	<ele>1277.20</ele>
	<time>2025-07-30T07:49:55.000Z</time>
</trkpt>
<trkpt lat="46.0456940" lon="10.3239260">
	<ele>1277.20</ele>
	<time>2025-07-30T07:49:56.000Z</time>
</trkpt>
<trkpt lat="46.0456960" lon="10.3239390">
	<ele>1277.00</ele>
	<time>2025-07-30T07:49:57.000Z</time>
</trkpt>
<trkpt lat="46.0456960" lon="10.3239550">
	<ele>1276.60</ele>
	<time>2025-07-30T07:49:58.000Z</time>
</trkpt>
<trkpt lat="46.0456950" lon="10.3239700">
	<ele>1276.40</ele>
	<time>2025-07-30T07:49:59.000Z</time>
</trkpt>
<trkpt lat="46.0456930" lon="10.3239860">
	<ele>1276.20</ele>
	<time>2025-07-30T07:50:00.000Z</time>
</trkpt>
<trkpt lat="46.0456940" lon="10.3240030">
	<ele>1275.80</ele>
	<time>2025-07-30T07:50:01.000Z</time>
</trkpt>
<trkpt lat="46.0456930" lon="10.3240190">
	<ele>1275.80</ele>
	<time>2025-07-30T07:50:02.000Z</time>
</trkpt>
<trkpt lat="46.0456900" lon="10.3240370">
	<ele>1275.60</ele>
	<time>2025-07-30T07:50:03.000Z</time>
</trkpt>
<trkpt lat="46.0456890" lon="10.3240560">
	<ele>1275.40</ele>
	<time>2025-07-30T07:50:04.000Z</time>
</trkpt>
<trkpt lat="46.0456860" lon="10.3240730">
	<ele>1275.20</ele>
	<time>2025-07-30T07:50:05.000Z</time>
</trkpt>
<trkpt lat="46.0456810" lon="10.3240900">
	<ele>1275.20</ele>
	<time>2025-07-30T07:50:06.000Z</time>
</trkpt>
<trkpt lat="46.0456750" lon="10.3241080">
	<ele>1275.00</ele>
	<time>2025-07-30T07:50:07.000Z</time>
</trkpt>
<trkpt lat="46.0456720" lon="10.3241260">
	<ele>1275.00</ele>
	<time>2025-07-30T07:50:08.000Z</time>
</trkpt>
<trkpt lat="46.0456720" lon="10.3241430">
	<ele>1275.00</ele>
	<time>2025-07-30T07:50:09.000Z</time>
</trkpt>
<trkpt lat="46.0456740" lon="10.3241640">
	<ele>1274.80</ele>
	<time>2025-07-30T07:50:10.000Z</time>
</trkpt>
<trkpt lat="46.0456760" lon="10.3241830">
	<ele>1274.80</ele>
	<time>2025-07-30T07:50:11.000Z</time>
</trkpt>
<trkpt lat="46.0456790" lon="10.3242010">
	<ele>1274.80</ele>
	<time>2025-07-30T07:50:12.000Z</time>
</trkpt>
<trkpt lat="46.0456840" lon="10.3242210">
	<ele>1274.80</ele>
	<time>2025-07-30T07:50:13.000Z</time>
</trkpt>
<trkpt lat="46.0456900" lon="10.3242410">
	<ele>1274.80</ele>
	<time>2025-07-30T07:50:14.000Z</time>
</trkpt>
<trkpt lat="46.0456950" lon="10.3242560">
	<ele>1274.80</ele>
	<time>2025-07-30T07:50:15.000Z</time>
</trkpt>
<trkpt lat="46.0456990" lon="10.3242680">
	<ele>1274.80</ele>
	<time>2025-07-30T07:50:16.000Z</time>
</trkpt>
<trkpt lat="46.0457050" lon="10.3242820">
	<ele>1274.60</ele>
	<time>2025-07-30T07:50:17.000Z</time>
</trkpt>
<trkpt lat="46.0457120" lon="10.3242920">
	<ele>1274.60</ele>
	<time>2025-07-30T07:50:18.000Z</time>
</trkpt>
<trkpt lat="46.0457180" lon="10.3243020">
	<ele>1274.40</ele>
	<time>2025-07-30T07:50:19.000Z</time>
</trkpt>
<trkpt lat="46.0457270" lon="10.3243080">
	<ele>1274.40</ele>
	<time>2025-07-30T07:50:20.000Z</time>
</trkpt>
<trkpt lat="46.0457370" lon="10.3243150">
	<ele>1274.20</ele>
	<time>2025-07-30T07:50:21.000Z</time>
</trkpt>
<trkpt lat="46.0457450" lon="10.3243230">
	<ele>1274.00</ele>
	<time>2025-07-30T07:50:22.000Z</time>
</trkpt>
<trkpt lat="46.0457510" lon="10.3243350">
	<ele>1273.80</ele>
	<time>2025-07-30T07:50:23.000Z</time>
</trkpt>
<trkpt lat="46.0457520" lon="10.3243440">
	<ele>1273.60</ele>
	<time>2025-07-30T07:50:24.000Z</time>
</trkpt>
<trkpt lat="46.0457540" lon="10.3243530">
	<ele>1273.60</ele>
	<time>2025-07-30T07:50:25.000Z</time>
</trkpt>
<trkpt lat="46.0457570" lon="10.3243620">
	<ele>1273.20</ele>
	<time>2025-07-30T07:50:26.000Z</time>
</trkpt>
<trkpt lat="46.0457550" lon="10.3243700">
	<ele>1272.80</ele>
	<time>2025-07-30T07:50:27.000Z</time>
</trkpt>
<trkpt lat="46.0457500" lon="10.3243800">
	<ele>1272.60</ele>
	<time>2025-07-30T07:50:28.000Z</time>
</trkpt>
<trkpt lat="46.0457480" lon="10.3243960">
	<ele>1272.40</ele>
	<time>2025-07-30T07:50:29.000Z</time>
</trkpt>
<trkpt lat="46.0457420" lon="10.3244090">
	<ele>1272.20</ele>
	<time>2025-07-30T07:50:30.000Z</time>
</trkpt>
<trkpt lat="46.0457360" lon="10.3244210">
	<ele>1271.80</ele>
	<time>2025-07-30T07:50:31.000Z</time>
</trkpt>
<trkpt lat="46.0457340" lon="10.3244250">
	<ele>1271.60</ele>
	<time>2025-07-30T07:50:32.000Z</time>
</trkpt>
<trkpt lat="46.0457310" lon="10.3244360">
	<ele>1271.20</ele>
	<time>2025-07-30T07:50:33.000Z</time>
</trkpt>
<trkpt lat="46.0457280" lon="10.3244510">
	<ele>1270.80</ele>
	<time>2025-07-30T07:50:34.000Z</time>
</trkpt>
<trkpt lat="46.0457240" lon="10.3244640">
	<ele>1270.40</ele>
	<time>2025-07-30T07:50:35.000Z</time>
</trkpt>
<trkpt lat="46.0457210" lon="10.3244900">
	<ele>1270.20</ele>
	<time>2025-07-30T07:50:36.000Z</time>
</trkpt>
<trkpt lat="46.0457200" lon="10.3245220">
	<ele>1269.80</ele>
	<time>2025-07-30T07:50:37.000Z</time>
</trkpt>
<trkpt lat="46.0457160" lon="10.3245470">
	<ele>1269.60</ele>
	<time>2025-07-30T07:50:38.000Z</time>
</trkpt>
<trkpt lat="46.0457100" lon="10.3245710">
	<ele>1269.20</ele>
	<time>2025-07-30T07:50:39.000Z</time>
</trkpt>
<trkpt lat="46.0457070" lon="10.3245930">
	<ele>1269.00</ele>
	<time>2025-07-30T07:50:40.000Z</time>
</trkpt>
<trkpt lat="46.0457030" lon="10.3246130">
	<ele>1268.80</ele>
	<time>2025-07-30T07:50:41.000Z</time>
</trkpt>
<trkpt lat="46.0457010" lon="10.3246360">
	<ele>1268.60</ele>
	<time>2025-07-30T07:50:42.000Z</time>
</trkpt>
<trkpt lat="46.0456970" lon="10.3246560">
	<ele>1268.60</ele>
	<time>2025-07-30T07:50:43.000Z</time>
</trkpt>
<trkpt lat="46.0456930" lon="10.3246720">
	<ele>1268.40</ele>
	<time>2025-07-30T07:50:44.000Z</time>
</trkpt>
<trkpt lat="46.0456910" lon="10.3246870">
	<ele>1268.00</ele>
	<time>2025-07-30T07:50:45.000Z</time>
</trkpt>
<trkpt lat="46.0456860" lon="10.3246970">
	<ele>1267.80</ele>
	<time>2025-07-30T07:50:46.000Z</time>
</trkpt>
<trkpt lat="46.0456820" lon="10.3247060">
	<ele>1267.60</ele>
	<time>2025-07-30T07:50:47.000Z</time>
</trkpt>
<trkpt lat="46.0456770" lon="10.3247190">
	<ele>1267.40</ele>
	<time>2025-07-30T07:50:48.000Z</time>
</trkpt>
<trkpt lat="46.0456740" lon="10.3247270">
	<ele>1267.00</ele>
	<time>2025-07-30T07:50:49.000Z</time>
</trkpt>
<trkpt lat="46.0456710" lon="10.3247380">
	<ele>1266.80</ele>
	<time>2025-07-30T07:50:50.000Z</time>
</trkpt>
<trkpt lat="46.0456580" lon="10.3247430">
	<ele>1266.80</ele>
	<time>2025-07-30T07:50:51.000Z</time>
</trkpt>
<trkpt lat="46.0456460" lon="10.3247460">
	<ele>1266.40</ele>
	<time>2025-07-30T07:50:52.000Z</time>
</trkpt>
<trkpt lat="46.0456330" lon="10.3247510">
	<ele>1266.20</ele>
	<time>2025-07-30T07:50:53.000Z</time>
</trkpt>
<trkpt lat="46.0456220" lon="10.3247580">
	<ele>1265.80</ele>
	<time>2025-07-30T07:50:54.000Z</time>
</trkpt>
<trkpt lat="46.0456150" lon="10.3247610">
	<ele>1265.40</ele>
	<time>2025-07-30T07:50:55.000Z</time>
</trkpt>
<trkpt lat="46.0456130" lon="10.3247630">
	<ele>1265.20</ele>
	<time>2025-07-30T07:50:56.000Z</time>
</trkpt>
<trkpt lat="46.0456100" lon="10.3247590">
	<ele>1265.00</ele>
	<time>2025-07-30T07:50:57.000Z</time>
</trkpt>
<trkpt lat="46.0456090" lon="10.3247490">
	<ele>1264.60</ele>
	<time>2025-07-30T07:50:58.000Z</time>
</trkpt>
<trkpt lat="46.0456110" lon="10.3247440">
	<ele>1264.40</ele>
	<time>2025-07-30T07:50:59.000Z</time>
</trkpt>
<trkpt lat="46.0456040" lon="10.3247300">
	<ele>1264.20</ele>
	<time>2025-07-30T07:51:00.000Z</time>
</trkpt>
<trkpt lat="46.0455940" lon="10.3247150">
	<ele>1263.80</ele>
	<time>2025-07-30T07:51:01.000Z</time>
</trkpt>
<trkpt lat="46.0456020" lon="10.3247000">
	<ele>1263.60</ele>
	<time>2025-07-30T07:51:02.000Z</time>
</trkpt>
<trkpt lat="46.0456040" lon="10.3246790">
	<ele>1263.20</ele>
	<time>2025-07-30T07:51:03.000Z</time>
</trkpt>
<trkpt lat="46.0456140" lon="10.3246720">
	<ele>1263.00</ele>
	<time>2025-07-30T07:51:04.000Z</time>
</trkpt>
<trkpt lat="46.0456090" lon="10.3246550">
	<ele>1262.80</ele>
	<time>2025-07-30T07:51:05.000Z</time>
</trkpt>
<trkpt lat="46.0456080" lon="10.3246370">
	<ele>1262.40</ele>
	<time>2025-07-30T07:51:06.000Z</time>
</trkpt>
<trkpt lat="46.0455980" lon="10.3246180">
	<ele>1262.20</ele>
	<time>2025-07-30T07:51:07.000Z</time>
</trkpt>
<trkpt lat="46.0455880" lon="10.3246040">
	<ele>1262.00</ele>
	<time>2025-07-30T07:51:08.000Z</time>
</trkpt>
<trkpt lat="46.0455810" lon="10.3245940">
	<ele>1261.80</ele>
	<time>2025-07-30T07:51:09.000Z</time>
</trkpt>
<trkpt lat="46.0455800" lon="10.3245830">
	<ele>1261.40</ele>
	<time>2025-07-30T07:51:10.000Z</time>
</trkpt>
<trkpt lat="46.0455780" lon="10.3245720">
	<ele>1261.20</ele>
	<time>2025-07-30T07:51:11.000Z</time>
</trkpt>
<trkpt lat="46.0455790" lon="10.3245670">
	<ele>1261.00</ele>
	<time>2025-07-30T07:51:12.000Z</time>
</trkpt>
<trkpt lat="46.0455800" lon="10.3245590">
	<ele>1260.60</ele>
	<time>2025-07-30T07:51:13.000Z</time>
</trkpt>
<trkpt lat="46.0455800" lon="10.3245530">
	<ele>1260.40</ele>
	<time>2025-07-30T07:51:14.000Z</time>
</trkpt>
<trkpt lat="46.0455780" lon="10.3245470">
	<ele>1260.00</ele>
	<time>2025-07-30T07:51:15.000Z</time>
</trkpt>
<trkpt lat="46.0455730" lon="10.3245480">
	<ele>1259.60</ele>
	<time>2025-07-30T07:51:16.000Z</time>
</trkpt>
<trkpt lat="46.0455730" lon="10.3245470">
	<ele>1259.40</ele>
	<time>2025-07-30T07:51:17.000Z</time>
</trkpt>
<trkpt lat="46.0455680" lon="10.3245370">
	<ele>1259.20</ele>
	<time>2025-07-30T07:51:18.000Z</time>
</trkpt>
<trkpt lat="46.0455610" lon="10.3245250">
	<ele>1259.00</ele>
	<time>2025-07-30T07:51:19.000Z</time>
</trkpt>
<trkpt lat="46.0455500" lon="10.3245080">
	<ele>1258.60</ele>
	<time>2025-07-30T07:51:20.000Z</time>
</trkpt>
<trkpt lat="46.0455380" lon="10.3244960">
	<ele>1258.40</ele>
	<time>2025-07-30T07:51:21.000Z</time>
</trkpt>
<trkpt lat="46.0455300" lon="10.3244890">
	<ele>1258.00</ele>
	<time>2025-07-30T07:51:22.000Z</time>
</trkpt>
<trkpt lat="46.0455170" lon="10.3244790">
	<ele>1257.80</ele>
	<time>2025-07-30T07:51:23.000Z</time>
</trkpt>
<trkpt lat="46.0455080" lon="10.3244700">
	<ele>1257.40</ele>
	<time>2025-07-30T07:51:24.000Z</time>
</trkpt>
<trkpt lat="46.0454920" lon="10.3244670">
	<ele>1257.00</ele>
	<time>2025-07-30T07:51:25.000Z</time>
</trkpt>
<trkpt lat="46.0454800" lon="10.3244680">
	<ele>1256.80</ele>
	<time>2025-07-30T07:51:26.000Z</time>
</trkpt>
<trkpt lat="46.0454670" lon="10.3244710">
	<ele>1256.40</ele>
	<time>2025-07-30T07:51:27.000Z</time>
</trkpt>
<trkpt lat="46.0454590" lon="10.3244770">
	<ele>1256.20</ele>
	<time>2025-07-30T07:51:28.000Z</time>
</trkpt>
<trkpt lat="46.0454560" lon="10.3244880">
	<ele>1255.80</ele>
	<time>2025-07-30T07:51:29.000Z</time>
</trkpt>
<trkpt lat="46.0454500" lon="10.3244970">
	<ele>1255.60</ele>
	<time>2025-07-30T07:51:30.000Z</time>
</trkpt>
<trkpt lat="46.0454450" lon="10.3245010">
	<ele>1255.40</ele>
	<time>2025-07-30T07:51:31.000Z</time>
</trkpt>
<trkpt lat="46.0454400" lon="10.3245100">
	<ele>1255.00</ele>
	<time>2025-07-30T07:51:32.000Z</time>
</trkpt>
<trkpt lat="46.0454340" lon="10.3245180">
	<ele>1254.80</ele>
	<time>2025-07-30T07:51:33.000Z</time>
</trkpt>
<trkpt lat="46.0454300" lon="10.3245240">
	<ele>1254.40</ele>
	<time>2025-07-30T07:51:34.000Z</time>
</trkpt>
<trkpt lat="46.0454250" lon="10.3245280">
	<ele>1254.20</ele>
	<time>2025-07-30T07:51:35.000Z</time>
</trkpt>
<trkpt lat="46.0454200" lon="10.3245340">
	<ele>1254.00</ele>
	<time>2025-07-30T07:51:36.000Z</time>
</trkpt>
<trkpt lat="46.0454140" lon="10.3245430">
	<ele>1253.60</ele>
	<time>2025-07-30T07:51:37.000Z</time>
</trkpt>
<trkpt lat="46.0454070" lon="10.3245550">
	<ele>1253.40</ele>
	<time>2025-07-30T07:51:38.000Z</time>
</trkpt>
<trkpt lat="46.0454010" lon="10.3245640">
	<ele>1253.00</ele>
	<time>2025-07-30T07:51:39.000Z</time>
</trkpt>
<trkpt lat="46.0453920" lon="10.3245680">
	<ele>1252.40</ele>
	<time>2025-07-30T07:51:40.000Z</time>
</trkpt>
<trkpt lat="46.0453860" lon="10.3245750">
	<ele>1252.20</ele>
	<time>2025-07-30T07:51:41.000Z</time>
</trkpt>
<trkpt lat="46.0453810" lon="10.3245850">
	<ele>1252.00</ele>
	<time>2025-07-30T07:51:42.000Z</time>
</trkpt>
<trkpt lat="46.0453740" lon="10.3245980">
	<ele>1251.40</ele>
	<time>2025-07-30T07:51:43.000Z</time>
</trkpt>
<trkpt lat="46.0453700" lon="10.3246110">
	<ele>1251.20</ele>
	<time>2025-07-30T07:51:44.000Z</time>
</trkpt>
<trkpt lat="46.0453640" lon="10.3246170">
	<ele>1251.00</ele>
	<time>2025-07-30T07:51:45.000Z</time>
</trkpt>
<trkpt lat="46.0453550" lon="10.3246220">
	<ele>1250.60</ele>
	<time>2025-07-30T07:51:46.000Z</time>
</trkpt>
<trkpt lat="46.0453460" lon="10.3246310">
	<ele>1250.40</ele>
	<time>2025-07-30T07:51:47.000Z</time>
</trkpt>
<trkpt lat="46.0453370" lon="10.3246400">
	<ele>1250.00</ele>
	<time>2025-07-30T07:51:48.000Z</time>
</trkpt>
<trkpt lat="46.0453310" lon="10.3246460">
	<ele>1249.60</ele>
	<time>2025-07-30T07:51:49.000Z</time>
</trkpt>
<trkpt lat="46.0453220" lon="10.3246560">
	<ele>1249.40</ele>
	<time>2025-07-30T07:51:50.000Z</time>
</trkpt>
<trkpt lat="46.0453150" lon="10.3246670">
	<ele>1249.00</ele>
	<time>2025-07-30T07:51:51.000Z</time>
</trkpt>
<trkpt lat="46.0453080" lon="10.3246790">
	<ele>1248.80</ele>
	<time>2025-07-30T07:51:52.000Z</time>
</trkpt>
<trkpt lat="46.0453020" lon="10.3246910">
	<ele>1248.60</ele>
	<time>2025-07-30T07:51:53.000Z</time>
</trkpt>
<trkpt lat="46.0452980" lon="10.3247080">
	<ele>1248.40</ele>
	<time>2025-07-30T07:51:54.000Z</time>
</trkpt>
<trkpt lat="46.0452900" lon="10.3247240">
	<ele>1248.00</ele>
	<time>2025-07-30T07:51:55.000Z</time>
</trkpt>
<trkpt lat="46.0452770" lon="10.3247280">
	<ele>1247.80</ele>
	<time>2025-07-30T07:51:56.000Z</time>
</trkpt>
<trkpt lat="46.0452690" lon="10.3247300">
	<ele>1247.40</ele>
	<time>2025-07-30T07:51:57.000Z</time>
</trkpt>
<trkpt lat="46.0452640" lon="10.3247340">
	<ele>1247.00</ele>
	<time>2025-07-30T07:51:58.000Z</time>
</trkpt>
<trkpt lat="46.0452580" lon="10.3247350">
	<ele>1246.80</ele>
	<time>2025-07-30T07:51:59.000Z</time>
</trkpt>
<trkpt lat="46.0452490" lon="10.3247340">
	<ele>1246.40</ele>
	<time>2025-07-30T07:52:00.000Z</time>
</trkpt>
<trkpt lat="46.0452430" lon="10.3247340">
	<ele>1246.00</ele>
	<time>2025-07-30T07:52:01.000Z</time>
</trkpt>
<trkpt lat="46.0452410" lon="10.3247360">
	<ele>1245.80</ele>
	<time>2025-07-30T07:52:02.000Z</time>
</trkpt>
<trkpt lat="46.0452380" lon="10.3247330">
	<ele>1245.60</ele>
	<time>2025-07-30T07:52:03.000Z</time>
</trkpt>
<trkpt lat="46.0452350" lon="10.3247310">
	<ele>1245.40</ele>
	<time>2025-07-30T07:52:04.000Z</time>
</trkpt>
<trkpt lat="46.0452300" lon="10.3247270">
	<ele>1245.00</ele>
	<time>2025-07-30T07:52:05.000Z</time>
</trkpt>
<trkpt lat="46.0452260" lon="10.3247230">
	<ele>1244.80</ele>
	<time>2025-07-30T07:52:06.000Z</time>
</trkpt>
<trkpt lat="46.0452220" lon="10.3247150">
	<ele>1244.60</ele>
	<time>2025-07-30T07:52:07.000Z</time>
</trkpt>
<trkpt lat="46.0452170" lon="10.3247040">
	<ele>1244.20</ele>
	<time>2025-07-30T07:52:08.000Z</time>
</trkpt>
<trkpt lat="46.0452180" lon="10.3246880">
	<ele>1244.00</ele>
	<time>2025-07-30T07:52:09.000Z</time>
</trkpt>
<trkpt lat="46.0452180" lon="10.3246710">
	<ele>1243.60</ele>
	<time>2025-07-30T07:52:10.000Z</time>
</trkpt>
<trkpt lat="46.0452140" lon="10.3246550">
	<ele>1243.40</ele>
	<time>2025-07-30T07:52:11.000Z</time>
</trkpt>
<trkpt lat="46.0452120" lon="10.3246400">
	<ele>1243.20</ele>
	<time>2025-07-30T07:52:12.000Z</time>
</trkpt>
<trkpt lat="46.0452110" lon="10.3246260">
	<ele>1243.00</ele>
	<time>2025-07-30T07:52:13.000Z</time>
</trkpt>
<trkpt lat="46.0452080" lon="10.3246100">
	<ele>1242.60</ele>
	<time>2025-07-30T07:52:14.000Z</time>
</trkpt>
<trkpt lat="46.0452070" lon="10.3246020">
	<ele>1242.40</ele>
	<time>2025-07-30T07:52:15.000Z</time>
</trkpt>
<trkpt lat="46.0452060" lon="10.3245920">
	<ele>1242.20</ele>
	<time>2025-07-30T07:52:16.000Z</time>
</trkpt>
<trkpt lat="46.0452050" lon="10.3245810">
	<ele>1242.00</ele>
	<time>2025-07-30T07:52:17.000Z</time>
</trkpt>
<trkpt lat="46.0452050" lon="10.3245680">
	<ele>1241.60</ele>
	<time>2025-07-30T07:52:18.000Z</time>
</trkpt>
<trkpt lat="46.0452040" lon="10.3245560">
	<ele>1241.40</ele>
	<time>2025-07-30T07:52:19.000Z</time>
</trkpt>
<trkpt lat="46.0452020" lon="10.3245420">
	<ele>1241.20</ele>
	<time>2025-07-30T07:52:20.000Z</time>
</trkpt>
<trkpt lat="46.0452010" lon="10.3245330">
	<ele>1240.80</ele>
	<time>2025-07-30T07:52:21.000Z</time>
</trkpt>
<trkpt lat="46.0451980" lon="10.3245170">
	<ele>1240.60</ele>
	<time>2025-07-30T07:52:22.000Z</time>
</trkpt>
<trkpt lat="46.0451980" lon="10.3244990">
	<ele>1240.40</ele>
	<time>2025-07-30T07:52:23.000Z</time>
</trkpt>
<trkpt lat="46.0452040" lon="10.3244830">
	<ele>1240.00</ele>
	<time>2025-07-30T07:52:24.000Z</time>
</trkpt>
<trkpt lat="46.0452030" lon="10.3244680">
	<ele>1240.00</ele>
	<time>2025-07-30T07:52:25.000Z</time>
</trkpt>
<trkpt lat="46.0452000" lon="10.3244540">
	<ele>1239.80</ele>
	<time>2025-07-30T07:52:26.000Z</time>
</trkpt>
<trkpt lat="46.0452020" lon="10.3244430">
	<ele>1239.40</ele>
	<time>2025-07-30T07:52:27.000Z</time>
</trkpt>
<trkpt lat="46.0452020" lon="10.3244350">
	<ele>1239.20</ele>
	<time>2025-07-30T07:52:28.000Z</time>
</trkpt>
<trkpt lat="46.0452030" lon="10.3244270">
	<ele>1239.00</ele>
	<time>2025-07-30T07:52:29.000Z</time>
</trkpt>
<trkpt lat="46.0452030" lon="10.3244160">
	<ele>1238.60</ele>
	<time>2025-07-30T07:52:30.000Z</time>
</trkpt>
<trkpt lat="46.0452030" lon="10.3244040">
	<ele>1238.40</ele>
	<time>2025-07-30T07:52:31.000Z</time>
</trkpt>
<trkpt lat="46.0451980" lon="10.3243900">
	<ele>1238.00</ele>
	<time>2025-07-30T07:52:32.000Z</time>
</trkpt>
<trkpt lat="46.0451930" lon="10.3243760">
	<ele>1237.60</ele>
	<time>2025-07-30T07:52:33.000Z</time>
</trkpt>
<trkpt lat="46.0451870" lon="10.3243600">
	<ele>1237.20</ele>
	<time>2025-07-30T07:52:34.000Z</time>
</trkpt>
<trkpt lat="46.0451750" lon="10.3243470">
	<ele>1236.80</ele>
	<time>2025-07-30T07:52:35.000Z</time>
</trkpt>
<trkpt lat="46.0451670" lon="10.3243340">
	<ele>1236.60</ele>
	<time>2025-07-30T07:52:36.000Z</time>
</trkpt>
<trkpt lat="46.0451630" lon="10.3243200">
	<ele>1236.40</ele>
	<time>2025-07-30T07:52:37.000Z</time>
</trkpt>
<trkpt lat="46.0451600" lon="10.3243080">
	<ele>1236.20</ele>
	<time>2025-07-30T07:52:38.000Z</time>
</trkpt>
<trkpt lat="46.0451530" lon="10.3243000">
	<ele>1236.00</ele>
	<time>2025-07-30T07:52:39.000Z</time>
</trkpt>
<trkpt lat="46.0451530" lon="10.3242800">
	<ele>1235.80</ele>
	<time>2025-07-30T07:52:40.000Z</time>
</trkpt>
<trkpt lat="46.0451510" lon="10.3242670">
	<ele>1235.60</ele>
	<time>2025-07-30T07:52:41.000Z</time>
</trkpt>
<trkpt lat="46.0451510" lon="10.3242520">
	<ele>1235.40</ele>
	<time>2025-07-30T07:52:42.000Z</time>
</trkpt>
<trkpt lat="46.0451470" lon="10.3242370">
	<ele>1235.00</ele>
	<time>2025-07-30T07:52:43.000Z</time>
</trkpt>
<trkpt lat="46.0451410" lon="10.3242240">
	<ele>1234.80</ele>
	<time>2025-07-30T07:52:44.000Z</time>
</trkpt>
<trkpt lat="46.0451380" lon="10.3242120">
	<ele>1234.60</ele>
	<time>2025-07-30T07:52:45.000Z</time>
</trkpt>
<trkpt lat="46.0451320" lon="10.3242000">
	<ele>1234.20</ele>
	<time>2025-07-30T07:52:46.000Z</time>
</trkpt>
<trkpt lat="46.0451240" lon="10.3241850">
	<ele>1234.00</ele>
	<time>2025-07-30T07:52:47.000Z</time>
</trkpt>
<trkpt lat="46.0451090" lon="10.3241650">
	<ele>1233.80</ele>
	<time>2025-07-30T07:52:48.000Z</time>
</trkpt>
<trkpt lat="46.0451030" lon="10.3241540">
	<ele>1233.60</ele>
	<time>2025-07-30T07:52:49.000Z</time>
</trkpt>
<trkpt lat="46.0450990" lon="10.3241390">
	<ele>1233.20</ele>
	<time>2025-07-30T07:52:50.000Z</time>
</trkpt>
<trkpt lat="46.0450960" lon="10.3241310">
	<ele>1233.00</ele>
	<time>2025-07-30T07:52:51.000Z</time>
</trkpt>
<trkpt lat="46.0450840" lon="10.3241090">
	<ele>1232.80</ele>
	<time>2025-07-30T07:52:52.000Z</time>
</trkpt>
<trkpt lat="46.0450730" lon="10.3240910">
	<ele>1232.60</ele>
	<time>2025-07-30T07:52:53.000Z</time>
</trkpt>
<trkpt lat="46.0450620" lon="10.3240770">
	<ele>1232.40</ele>
	<time>2025-07-30T07:52:54.000Z</time>
</trkpt>
<trkpt lat="46.0450540" lon="10.3240640">
	<ele>1232.00</ele>
	<time>2025-07-30T07:52:55.000Z</time>
</trkpt>
<trkpt lat="46.0450470" lon="10.3240520">
	<ele>1231.80</ele>
	<time>2025-07-30T07:52:56.000Z</time>
</trkpt>
<trkpt lat="46.0450370" lon="10.3240390">
	<ele>1231.60</ele>
	<time>2025-07-30T07:52:57.000Z</time>
</trkpt>
<trkpt lat="46.0450320" lon="10.3240290">
	<ele>1231.20</ele>
	<time>2025-07-30T07:52:58.000Z</time>
</trkpt>
<trkpt lat="46.0450250" lon="10.3240200">
	<ele>1231.20</ele>
	<time>2025-07-30T07:52:59.000Z</time>
</trkpt>
<trkpt lat="46.0450210" lon="10.3240080">
	<ele>1230.80</ele>
	<time>2025-07-30T07:53:00.000Z</time>
</trkpt>
<trkpt lat="46.0450160" lon="10.3239950">
	<ele>1230.40</ele>
	<time>2025-07-30T07:53:01.000Z</time>
</trkpt>
<trkpt lat="46.0450030" lon="10.3239690">
	<ele>1230.00</ele>
	<time>2025-07-30T07:53:02.000Z</time>
</trkpt>
<trkpt lat="46.0449940" lon="10.3239560">
	<ele>1229.60</ele>
	<time>2025-07-30T07:53:03.000Z</time>
</trkpt>
<trkpt lat="46.0449930" lon="10.3239480">
	<ele>1229.40</ele>
	<time>2025-07-30T07:53:04.000Z</time>
</trkpt>
<trkpt lat="46.0449890" lon="10.3239470">
	<ele>1229.20</ele>
	<time>2025-07-30T07:53:05.000Z</time>
</trkpt>
<trkpt lat="46.0449860" lon="10.3239480">
	<ele>1228.80</ele>
	<time>2025-07-30T07:53:06.000Z</time>
</trkpt>
<trkpt lat="46.0449820" lon="10.3239480">
	<ele>1228.60</ele>
	<time>2025-07-30T07:53:07.000Z</time>
</trkpt>
<trkpt lat="46.0449870" lon="10.3239380">
	<ele>1228.40</ele>
	<time>2025-07-30T07:53:08.000Z</time>
</trkpt>
<trkpt lat="46.0449980" lon="10.3239340">
	<ele>1228.20</ele>
	<time>2025-07-30T07:53:09.000Z</time>
</trkpt>
<trkpt lat="46.0450050" lon="10.3239280">
	<ele>1228.00</ele>
	<time>2025-07-30T07:53:10.000Z</time>
</trkpt>
<trkpt lat="46.0450050" lon="10.3239230">
	<ele>1227.80</ele>
	<time>2025-07-30T07:53:11.000Z</time>
</trkpt>
<trkpt lat="46.0449990" lon="10.3239160">
	<ele>1227.60</ele>
	<time>2025-07-30T07:53:12.000Z</time>
</trkpt>
<trkpt lat="46.0449940" lon="10.3239110">
	<ele>1227.20</ele>
	<time>2025-07-30T07:53:13.000Z</time>
</trkpt>
<trkpt lat="46.0449830" lon="10.3239040">
	<ele>1227.00</ele>
	<time>2025-07-30T07:53:14.000Z</time>
</trkpt>
<trkpt lat="46.0449640" lon="10.3238880">
	<ele>1226.80</ele>
	<time>2025-07-30T07:53:15.000Z</time>
</trkpt>
<trkpt lat="46.0449430" lon="10.3238690">
	<ele>1226.40</ele>
	<time>2025-07-30T07:53:16.000Z</time>
</trkpt>
<trkpt lat="46.0449260" lon="10.3238500">
	<ele>1226.00</ele>
	<time>2025-07-30T07:53:17.000Z</time>
</trkpt>
<trkpt lat="46.0449140" lon="10.3238330">
	<ele>1225.60</ele>
	<time>2025-07-30T07:53:18.000Z</time>
</trkpt>
<trkpt lat="46.0449170" lon="10.3238280">
	<ele>1225.20</ele>
	<time>2025-07-30T07:53:19.000Z</time>
</trkpt>
<trkpt lat="46.0449200" lon="10.3238200">
	<ele>1224.80</ele>
	<time>2025-07-30T07:53:20.000Z</time>
</trkpt>
<trkpt lat="46.0449290" lon="10.3238100">
	<ele>1224.60</ele>
	<time>2025-07-30T07:53:21.000Z</time>
</trkpt>
<trkpt lat="46.0449320" lon="10.3237970">
	<ele>1224.20</ele>
	<time>2025-07-30T07:53:22.000Z</time>
</trkpt>
<trkpt lat="46.0449340" lon="10.3237790">
	<ele>1224.00</ele>
	<time>2025-07-30T07:53:23.000Z</time>
</trkpt>
<trkpt lat="46.0449320" lon="10.3237690">
	<ele>1223.60</ele>
	<time>2025-07-30T07:53:24.000Z</time>
</trkpt>
<trkpt lat="46.0449300" lon="10.3237560">
	<ele>1223.40</ele>
	<time>2025-07-30T07:53:25.000Z</time>
</trkpt>
<trkpt lat="46.0449330" lon="10.3237430">
	<ele>1223.00</ele>
	<time>2025-07-30T07:53:26.000Z</time>
</trkpt>
<trkpt lat="46.0449330" lon="10.3237300">
	<ele>1222.80</ele>
	<time>2025-07-30T07:53:27.000Z</time>
</trkpt>
<trkpt lat="46.0449330" lon="10.3237170">
	<ele>1222.40</ele>
	<time>2025-07-30T07:53:28.000Z</time>
</trkpt>
<trkpt lat="46.0449330" lon="10.3237030">
	<ele>1222.20</ele>
	<time>2025-07-30T07:53:29.000Z</time>
</trkpt>
<trkpt lat="46.0449330" lon="10.3236900">
	<ele>1222.20</ele>
	<time>2025-07-30T07:53:30.000Z</time>
</trkpt>
<trkpt lat="46.0449380" lon="10.3236770">
	<ele>1222.00</ele>
	<time>2025-07-30T07:53:31.000Z</time>
</trkpt>
<trkpt lat="46.0449370" lon="10.3236630">
	<ele>1221.80</ele>
	<time>2025-07-30T07:53:32.000Z</time>
</trkpt>
<trkpt lat="46.0449330" lon="10.3236470">
	<ele>1221.60</ele>
	<time>2025-07-30T07:53:33.000Z</time>
</trkpt>
<trkpt lat="46.0449290" lon="10.3236340">
	<ele>1221.40</ele>
	<time>2025-07-30T07:53:34.000Z</time>
</trkpt>
<trkpt lat="46.0449250" lon="10.3236210">
	<ele>1221.20</ele>
	<time>2025-07-30T07:53:35.000Z</time>
</trkpt>
<trkpt lat="46.0449200" lon="10.3236090">
	<ele>1220.80</ele>
	<time>2025-07-30T07:53:36.000Z</time>
</trkpt>
<trkpt lat="46.0449090" lon="10.3235980">
	<ele>1220.60</ele>
	<time>2025-07-30T07:53:37.000Z</time>
</trkpt>
<trkpt lat="46.0448960" lon="10.3235900">
	<ele>1220.20</ele>
	<time>2025-07-30T07:53:38.000Z</time>
</trkpt>
<trkpt lat="46.0448930" lon="10.3235770">
	<ele>1219.80</ele>
	<time>2025-07-30T07:53:39.000Z</time>
</trkpt>
<trkpt lat="46.0448880" lon="10.3235630">
	<ele>1219.40</ele>
	<time>2025-07-30T07:53:40.000Z</time>
</trkpt>
<trkpt lat="46.0448870" lon="10.3235530">
	<ele>1219.20</ele>
	<time>2025-07-30T07:53:41.000Z</time>
</trkpt>
<trkpt lat="46.0448810" lon="10.3235420">
	<ele>1219.00</ele>
	<time>2025-07-30T07:53:42.000Z</time>
</trkpt>
<trkpt lat="46.0448720" lon="10.3235360">
	<ele>1218.60</ele>
	<time>2025-07-30T07:53:43.000Z</time>
</trkpt>
<trkpt lat="46.0448620" lon="10.3235310">
	<ele>1218.40</ele>
	<time>2025-07-30T07:53:44.000Z</time>
</trkpt>
<trkpt lat="46.0448560" lon="10.3235300">
	<ele>1218.20</ele>
	<time>2025-07-30T07:53:45.000Z</time>
</trkpt>
<trkpt lat="46.0448500" lon="10.3235290">
	<ele>1218.00</ele>
	<time>2025-07-30T07:53:46.000Z</time>
</trkpt>
<trkpt lat="46.0448440" lon="10.3235160">
	<ele>1217.60</ele>
	<time>2025-07-30T07:53:47.000Z</time>
</trkpt>
<trkpt lat="46.0448320" lon="10.3234980">
	<ele>1217.60</ele>
	<time>2025-07-30T07:53:48.000Z</time>
</trkpt>
<trkpt lat="46.0448270" lon="10.3234960">
	<ele>1217.20</ele>
	<time>2025-07-30T07:53:49.000Z</time>
</trkpt>
<trkpt lat="46.0448210" lon="10.3234870">
	<ele>1217.00</ele>
	<time>2025-07-30T07:53:50.000Z</time>
</trkpt>
<trkpt lat="46.0448160" lon="10.3234790">
	<ele>1216.60</ele>
	<time>2025-07-30T07:53:51.000Z</time>
</trkpt>
<trkpt lat="46.0448130" lon="10.3234820">
	<ele>1216.20</ele>
	<time>2025-07-30T07:53:52.000Z</time>
</trkpt>
<trkpt lat="46.0448020" lon="10.3234730">
	<ele>1216.00</ele>
	<time>2025-07-30T07:53:53.000Z</time>
</trkpt>
<trkpt lat="46.0447940" lon="10.3234630">
	<ele>1215.80</ele>
	<time>2025-07-30T07:53:54.000Z</time>
</trkpt>
<trkpt lat="46.0447890" lon="10.3234570">
	<ele>1215.40</ele>
	<time>2025-07-30T07:53:55.000Z</time>
</trkpt>
<trkpt lat="46.0447740" lon="10.3234620">
	<ele>1215.20</ele>
	<time>2025-07-30T07:53:56.000Z</time>
</trkpt>
<trkpt lat="46.0447620" lon="10.3234660">
	<ele>1215.00</ele>
	<time>2025-07-30T07:53:57.000Z</time>
</trkpt>
<trkpt lat="46.0447490" lon="10.3234710">
	<ele>1214.60</ele>
	<time>2025-07-30T07:53:58.000Z</time>
</trkpt>
<trkpt lat="46.0447420" lon="10.3234870">
	<ele>1214.40</ele>
	<time>2025-07-30T07:53:59.000Z</time>
</trkpt>
<trkpt lat="46.0447300" lon="10.3234890">
	<ele>1214.40</ele>
	<time>2025-07-30T07:54:00.000Z</time>
</trkpt>
<trkpt lat="46.0447160" lon="10.3234850">
	<ele>1214.40</ele>
	<time>2025-07-30T07:54:01.000Z</time>
</trkpt>
<trkpt lat="46.0447010" lon="10.3234860">
	<ele>1214.00</ele>
	<time>2025-07-30T07:54:02.000Z</time>
</trkpt>
<trkpt lat="46.0446770" lon="10.3234830">
	<ele>1213.80</ele>
	<time>2025-07-30T07:54:03.000Z</time>
</trkpt>
<trkpt lat="46.0446750" lon="10.3234900">
	<ele>1213.40</ele>
	<time>2025-07-30T07:54:04.000Z</time>
</trkpt>
<trkpt lat="46.0446550" lon="10.3234790">
	<ele>1213.20</ele>
	<time>2025-07-30T07:54:05.000Z</time>
</trkpt>
<trkpt lat="46.0446490" lon="10.3234720">
	<ele>1213.00</ele>
	<time>2025-07-30T07:54:06.000Z</time>
</trkpt>
<trkpt lat="46.0446340" lon="10.3234600">
	<ele>1212.80</ele>
	<time>2025-07-30T07:54:07.000Z</time>
</trkpt>
<trkpt lat="46.0446220" lon="10.3234560">
	<ele>1212.60</ele>
	<time>2025-07-30T07:54:08.000Z</time>
</trkpt>
<trkpt lat="46.0446200" lon="10.3234620">
	<ele>1212.20</ele>
	<time>2025-07-30T07:54:09.000Z</time>
</trkpt>
<trkpt lat="46.0446180" lon="10.3234690">
	<ele>1212.00</ele>
	<time>2025-07-30T07:54:10.000Z</time>
</trkpt>
<trkpt lat="46.0446140" lon="10.3234800">
	<ele>1211.80</ele>
	<time>2025-07-30T07:54:11.000Z</time>
</trkpt>
<trkpt lat="46.0446060" lon="10.3234870">
	<ele>1211.60</ele>
	<time>2025-07-30T07:54:12.000Z</time>
</trkpt>
<trkpt lat="46.0446070" lon="10.3234930">
	<ele>1211.20</ele>
	<time>2025-07-30T07:54:13.000Z</time>
</trkpt>
<trkpt lat="46.0445950" lon="10.3234980">
	<ele>1211.00</ele>
	<time>2025-07-30T07:54:14.000Z</time>
</trkpt>
<trkpt lat="46.0445890" lon="10.3235100">
	<ele>1210.80</ele>
	<time>2025-07-30T07:54:15.000Z</time>
</trkpt>
<trkpt lat="46.0445840" lon="10.3235250">
	<ele>1210.60</ele>
	<time>2025-07-30T07:54:16.000Z</time>
</trkpt>
<trkpt lat="46.0445780" lon="10.3235420">
	<ele>1210.40</ele>
	<time>2025-07-30T07:54:17.000Z</time>
</trkpt>
<trkpt lat="46.0445670" lon="10.3235520">
	<ele>1210.20</ele>
	<time>2025-07-30T07:54:18.000Z</time>
</trkpt>
<trkpt lat="46.0445500" lon="10.3235510">
	<ele>1210.00</ele>
	<time>2025-07-30T07:54:19.000Z</time>
</trkpt>
<trkpt lat="46.0445400" lon="10.3235610">
	<ele>1209.60</ele>
	<time>2025-07-30T07:54:20.000Z</time>
</trkpt>
<trkpt lat="46.0445260" lon="10.3235580">
	<ele>1209.40</ele>
	<time>2025-07-30T07:54:21.000Z</time>
</trkpt>
<trkpt lat="46.0445250" lon="10.3235670">
	<ele>1209.20</ele>
	<time>2025-07-30T07:54:22.000Z</time>
</trkpt>
<trkpt lat="46.0445140" lon="10.3235770">
	<ele>1209.20</ele>
	<time>2025-07-30T07:54:23.000Z</time>
</trkpt>
<trkpt lat="46.0445020" lon="10.3235850">
	<ele>1209.00</ele>
	<time>2025-07-30T07:54:24.000Z</time>
</trkpt>
<trkpt lat="46.0444960" lon="10.3235960">
	<ele>1208.80</ele>
	<time>2025-07-30T07:54:25.000Z</time>
</trkpt>
<trkpt lat="46.0444950" lon="10.3236090">
	<ele>1208.80</ele>
	<time>2025-07-30T07:54:26.000Z</time>
</trkpt>
<trkpt lat="46.0445010" lon="10.3236250">
	<ele>1208.80</ele>
	<time>2025-07-30T07:54:27.000Z</time>
</trkpt>
<trkpt lat="46.0444990" lon="10.3236390">
	<ele>1208.60</ele>
	<time>2025-07-30T07:54:28.000Z</time>
</trkpt>
<trkpt lat="46.0444950" lon="10.3236490">
	<ele>1208.40</ele>
	<time>2025-07-30T07:54:29.000Z</time>
</trkpt>
<trkpt lat="46.0444900" lon="10.3236620">
	<ele>1208.40</ele>
	<time>2025-07-30T07:54:30.000Z</time>
</trkpt>
<trkpt lat="46.0444890" lon="10.3236700">
	<ele>1208.40</ele>
	<time>2025-07-30T07:54:31.000Z</time>
</trkpt>
<trkpt lat="46.0444900" lon="10.3236730">
	<ele>1208.20</ele>
	<time>2025-07-30T07:54:32.000Z</time>
</trkpt>
<trkpt lat="46.0444910" lon="10.3236710">
	<ele>1208.20</ele>
	<time>2025-07-30T07:54:33.000Z</time>
</trkpt>
<trkpt lat="46.0444960" lon="10.3236670">
	<ele>1208.20</ele>
	<time>2025-07-30T07:54:34.000Z</time>
</trkpt>
<trkpt lat="46.0445050" lon="10.3236660">
	<ele>1208.20</ele>
	<time>2025-07-30T07:54:35.000Z</time>
</trkpt>
<trkpt lat="46.0445080" lon="10.3236640">
	<ele>1208.00</ele>
	<time>2025-07-30T07:54:36.000Z</time>
</trkpt>
<trkpt lat="46.0445090" lon="10.3236650">
	<ele>1208.00</ele>
	<time>2025-07-30T07:54:37.000Z</time>
</trkpt>
<trkpt lat="46.0445120" lon="10.3236730">
	<ele>1208.00</ele>
	<time>2025-07-30T07:54:38.000Z</time>
</trkpt>
<trkpt lat="46.0445100" lon="10.3236810">
	<ele>1208.20</ele>
	<time>2025-07-30T07:54:39.000Z</time>
</trkpt>
<trkpt lat="46.0445080" lon="10.3236870">
	<ele>1208.20</ele>
	<time>2025-07-30T07:54:40.000Z</time>
</trkpt>
<trkpt lat="46.0445040" lon="10.3236940">
	<ele>1208.20</ele>
	<time>2025-07-30T07:54:41.000Z</time>
</trkpt>
<trkpt lat="46.0445050" lon="10.3237010">
	<ele>1208.40</ele>
	<time>2025-07-30T07:54:42.000Z</time>
</trkpt>
<trkpt lat="46.0445040" lon="10.3237110">
	<ele>1208.40</ele>
	<time>2025-07-30T07:54:43.000Z</time>
</trkpt>
<trkpt lat="46.0445070" lon="10.3237150">
	<ele>1208.40</ele>
	<time>2025-07-30T07:54:44.000Z</time>
</trkpt>
<trkpt lat="46.0445090" lon="10.3237210">
	<ele>1208.60</ele>
	<time>2025-07-30T07:54:45.000Z</time>
</trkpt>
<trkpt lat="46.0445120" lon="10.3237240">
	<ele>1208.40</ele>
	<time>2025-07-30T07:54:46.000Z</time>
</trkpt>
<trkpt lat="46.0445130" lon="10.3237250">
	<ele>1208.40</ele>
	<time>2025-07-30T07:54:47.000Z</time>
</trkpt>
<trkpt lat="46.0445130" lon="10.3237250">
	<ele>1208.40</ele>
	<time>2025-07-30T07:54:48.000Z</time>
</trkpt>
<trkpt lat="46.0445130" lon="10.3237250">
	<ele>1208.40</ele>
	<time>2025-07-30T07:54:49.000Z</time>
</trkpt>
<trkpt lat="46.0445130" lon="10.3237250">
	<ele>1208.40</ele>
	<time>2025-07-30T07:54:50.000Z</time>
</trkpt>
<trkpt lat="46.0445130" lon="10.3237250">
	<ele>1208.40</ele>
	<time>2025-07-30T07:54:51.000Z</time>
</trkpt>
<trkpt lat="46.0445130" lon="10.3237250">
	<ele>1208.40</ele>
	<time>2025-07-30T07:54:52.000Z</time>
</trkpt>
<trkpt lat="46.0445130" lon="10.3237250">
	<ele>1208.40</ele>
	<time>2025-07-30T07:54:53.000Z</time>
</trkpt>
<trkpt lat="46.0445130" lon="10.3237250">
	<ele>1208.40</ele>
	<time>2025-07-30T07:54:54.000Z</time>
</trkpt>
<trkpt lat="46.0445130" lon="10.3237250">
	<ele>1208.40</ele>
	<time>2025-07-30T07:54:55.000Z</time>
</trkpt>
<trkpt lat="46.0445130" lon="10.3237250">
	<ele>1208.20</ele>
	<time>2025-07-30T07:54:56.000Z</time>
</trkpt>
<trkpt lat="46.0445130" lon="10.3237250">
	<ele>1208.20</ele>
	<time>2025-07-30T07:54:57.000Z</time>
</trkpt>
<trkpt lat="46.0445130" lon="10.3237250">
	<ele>1208.40</ele>
	<time>2025-07-30T07:54:58.000Z</time>
</trkpt>
<trkpt lat="46.0445130" lon="10.3237250">
	<ele>1208.40</ele>
	<time>2025-07-30T07:54:59.000Z</time>
</trkpt>
<trkpt lat="46.0445130" lon="10.3237250">
	<ele>1208.40</ele>
	<time>2025-07-30T07:55:00.000Z</time>
</trkpt>
<trkpt lat="46.0445130" lon="10.3237250">
	<ele>1208.40</ele>
	<time>2025-07-30T07:55:01.000Z</time>
</trkpt>
<trkpt lat="46.0445130" lon="10.3237250">
	<ele>1208.40</ele>
	<time>2025-07-30T07:55:02.000Z</time>
</trkpt>
<trkpt lat="46.0445130" lon="10.3237250">
	<ele>1208.40</ele>
	<time>2025-07-30T07:55:03.000Z</time>
</trkpt>
<trkpt lat="46.0445130" lon="10.3237280">
	<ele>1208.40</ele>
	<time>2025-07-30T07:55:04.000Z</time>
</trkpt>
<trkpt lat="46.0445130" lon="10.3237300">
	<ele>1208.40</ele>
	<time>2025-07-30T07:55:05.000Z</time>
</trkpt>
<trkpt lat="46.0445130" lon="10.3237360">
	<ele>1208.40</ele>
	<time>2025-07-30T07:55:06.000Z</time>
</trkpt>
<trkpt lat="46.0445130" lon="10.3237360">
	<ele>1208.40</ele>
	<time>2025-07-30T07:55:07.000Z</time>
</trkpt>
<trkpt lat="46.0445130" lon="10.3237380">
	<ele>1208.40</ele>
	<time>2025-07-30T07:55:08.000Z</time>
</trkpt>
<trkpt lat="46.0445130" lon="10.3237390">
	<ele>1208.40</ele>
	<time>2025-07-30T07:55:09.000Z</time>
</trkpt>
<trkpt lat="46.0445130" lon="10.3237390">
	<ele>1208.40</ele>
	<time>2025-07-30T07:55:10.000Z</time>
</trkpt>
<trkpt lat="46.0445130" lon="10.3237390">
	<ele>1208.40</ele>
	<time>2025-07-30T07:55:11.000Z</time>
</trkpt>
<trkpt lat="46.0445130" lon="10.3237390">
	<ele>1208.60</ele>
	<time>2025-07-30T07:55:12.000Z</time>
</trkpt>
<trkpt lat="46.0445130" lon="10.3237390">
	<ele>1208.60</ele>
	<time>2025-07-30T07:55:13.000Z</time>
</trkpt>
<trkpt lat="46.0445130" lon="10.3237390">
	<ele>1208.60</ele>
	<time>2025-07-30T07:55:14.000Z</time>
</trkpt>
<trkpt lat="46.0445130" lon="10.3237390">
	<ele>1208.60</ele>
	<time>2025-07-30T07:55:15.000Z</time>
</trkpt>
<trkpt lat="46.0445130" lon="10.3237390">
	<ele>1208.60</ele>
	<time>2025-07-30T07:55:16.000Z</time>
</trkpt>
<trkpt lat="46.0445130" lon="10.3237390">
	<ele>1208.60</ele>
	<time>2025-07-30T07:55:17.000Z</time>
</trkpt>
<trkpt lat="46.0445130" lon="10.3237390">
	<ele>1208.60</ele>
	<time>2025-07-30T07:55:18.000Z</time>
</trkpt>
<trkpt lat="46.0445120" lon="10.3237390">
	<ele>1208.60</ele>
	<time>2025-07-30T07:55:19.000Z</time>
</trkpt>
<trkpt lat="46.0445110" lon="10.3237350">
	<ele>1208.40</ele>
	<time>2025-07-30T07:55:20.000Z</time>
</trkpt>
<trkpt lat="46.0445080" lon="10.3237240">
	<ele>1208.40</ele>
	<time>2025-07-30T07:55:21.000Z</time>
</trkpt>
<trkpt lat="46.0444990" lon="10.3237080">
	<ele>1208.40</ele>
	<time>2025-07-30T07:55:22.000Z</time>
</trkpt>
<trkpt lat="46.0444910" lon="10.3237010">
	<ele>1208.40</ele>
	<time>2025-07-30T07:55:23.000Z</time>
</trkpt>
<trkpt lat="46.0444870" lon="10.3237020">
	<ele>1208.40</ele>
	<time>2025-07-30T07:55:24.000Z</time>
</trkpt>
<trkpt lat="46.0444820" lon="10.3236990">
	<ele>1208.40</ele>
	<time>2025-07-30T07:55:25.000Z</time>
</trkpt>
<trkpt lat="46.0444790" lon="10.3236950">
	<ele>1208.40</ele>
	<time>2025-07-30T07:55:26.000Z</time>
</trkpt>
<trkpt lat="46.0444770" lon="10.3236900">
	<ele>1208.40</ele>
	<time>2025-07-30T07:55:27.000Z</time>
</trkpt>
<trkpt lat="46.0444730" lon="10.3236860">
	<ele>1208.40</ele>
	<time>2025-07-30T07:55:28.000Z</time>
</trkpt>
<trkpt lat="46.0444730" lon="10.3236820">
	<ele>1208.40</ele>
	<time>2025-07-30T07:55:29.000Z</time>
</trkpt>
<trkpt lat="46.0444710" lon="10.3236770">
	<ele>1208.40</ele>
	<time>2025-07-30T07:55:30.000Z</time>
</trkpt>
<trkpt lat="46.0444680" lon="10.3236780">
	<ele>1208.40</ele>
	<time>2025-07-30T07:55:31.000Z</time>
</trkpt>
<trkpt lat="46.0444600" lon="10.3236790">
	<ele>1208.40</ele>
	<time>2025-07-30T07:55:32.000Z</time>
</trkpt>
<trkpt lat="46.0444580" lon="10.3236880">
	<ele>1208.40</ele>
	<time>2025-07-30T07:55:33.000Z</time>
</trkpt>
<trkpt lat="46.0444580" lon="10.3236920">
	<ele>1208.20</ele>
	<time>2025-07-30T07:55:34.000Z</time>
</trkpt>
<trkpt lat="46.0444600" lon="10.3236960">
	<ele>1208.00</ele>
	<time>2025-07-30T07:55:35.000Z</time>
</trkpt>
<trkpt lat="46.0444610" lon="10.3236910">
	<ele>1207.80</ele>
	<time>2025-07-30T07:55:36.000Z</time>
</trkpt>
<trkpt lat="46.0444600" lon="10.3236960">
	<ele>1207.80</ele>
	<time>2025-07-30T07:55:37.000Z</time>
</trkpt>
<trkpt lat="46.0444600" lon="10.3236960">
	<ele>1207.80</ele>
	<time>2025-07-30T07:55:38.000Z</time>
</trkpt>
<trkpt lat="46.0444600" lon="10.3236960">
	<ele>1207.80</ele>
	<time>2025-07-30T07:55:39.000Z</time>
</trkpt>
<trkpt lat="46.0444600" lon="10.3236960">
	<ele>1207.80</ele>
	<time>2025-07-30T07:55:40.000Z</time>
</trkpt>
<trkpt lat="46.0444600" lon="10.3236960">
	<ele>1207.80</ele>
	<time>2025-07-30T07:55:41.000Z</time>
</trkpt>
<trkpt lat="46.0444600" lon="10.3236960">
	<ele>1207.80</ele>
	<time>2025-07-30T07:55:42.000Z</time>
</trkpt>
<trkpt lat="46.0444600" lon="10.3236960">
	<ele>1207.80</ele>
	<time>2025-07-30T07:55:43.000Z</time>
</trkpt>
<trkpt lat="46.0444600" lon="10.3236960">
	<ele>1207.80</ele>
	<time>2025-07-30T07:55:44.000Z</time>
</trkpt>
<trkpt lat="46.0444600" lon="10.3236960">
	<ele>1207.80</ele>
	<time>2025-07-30T07:55:45.000Z</time>
</trkpt>
<trkpt lat="46.0444600" lon="10.3236960">
	<ele>1207.80</ele>
	<time>2025-07-30T07:55:46.000Z</time>
</trkpt>
<trkpt lat="46.0444600" lon="10.3236960">
	<ele>1207.80</ele>
	<time>2025-07-30T07:55:47.000Z</time>
</trkpt>
<trkpt lat="46.0444600" lon="10.3236960">
	<ele>1207.80</ele>
	<time>2025-07-30T07:55:48.000Z</time>
</trkpt>
<trkpt lat="46.0444600" lon="10.3236960">
	<ele>1207.60</ele>
	<time>2025-07-30T07:55:49.000Z</time>
</trkpt>
<trkpt lat="46.0444600" lon="10.3236960">
	<ele>1207.60</ele>
	<time>2025-07-30T07:55:50.000Z</time>
</trkpt>
<trkpt lat="46.0444600" lon="10.3236960">
	<ele>1207.60</ele>
	<time>2025-07-30T07:55:51.000Z</time>
</trkpt>
<trkpt lat="46.0444600" lon="10.3236960">
	<ele>1207.60</ele>
	<time>2025-07-30T07:55:52.000Z</time>
</trkpt>
<trkpt lat="46.0444600" lon="10.3236960">
	<ele>1207.60</ele>
	<time>2025-07-30T07:55:53.000Z</time>
</trkpt>
<trkpt lat="46.0444600" lon="10.3236980">
	<ele>1207.60</ele>
	<time>2025-07-30T07:55:54.000Z</time>
</trkpt>
<trkpt lat="46.0444600" lon="10.3236980">
	<ele>1207.60</ele>
	<time>2025-07-30T07:55:55.000Z</time>
</trkpt>
<trkpt lat="46.0444600" lon="10.3236980">
	<ele>1207.60</ele>
	<time>2025-07-30T07:55:56.000Z</time>
</trkpt>
<trkpt lat="46.0444600" lon="10.3236980">
	<ele>1207.60</ele>
	<time>2025-07-30T07:55:57.000Z</time>
</trkpt>
<trkpt lat="46.0444600" lon="10.3236990">
	<ele>1207.60</ele>
	<time>2025-07-30T07:55:58.000Z</time>
</trkpt>
<trkpt lat="46.0444600" lon="10.3236990">
	<ele>1207.60</ele>
	<time>2025-07-30T07:55:59.000Z</time>
</trkpt>
<trkpt lat="46.0444600" lon="10.3236990">
	<ele>1207.60</ele>
	<time>2025-07-30T07:56:00.000Z</time>
</trkpt>
<trkpt lat="46.0444590" lon="10.3236990">
	<ele>1207.60</ele>
	<time>2025-07-30T07:56:01.000Z</time>
</trkpt>
<trkpt lat="46.0444590" lon="10.3236990">
	<ele>1207.60</ele>
	<time>2025-07-30T07:56:02.000Z</time>
</trkpt>
<trkpt lat="46.0444580" lon="10.3237000">
	<ele>1207.60</ele>
	<time>2025-07-30T07:56:03.000Z</time>
</trkpt>
<trkpt lat="46.0444580" lon="10.3237000">
	<ele>1207.60</ele>
	<time>2025-07-30T07:56:04.000Z</time>
</trkpt>
<trkpt lat="46.0444580" lon="10.3237000">
	<ele>1207.60</ele>
	<time>2025-07-30T07:56:05.000Z</time>
</trkpt>
<trkpt lat="46.0444570" lon="10.3237010">
	<ele>1207.60</ele>
	<time>2025-07-30T07:56:06.000Z</time>
</trkpt>
<trkpt lat="46.0444570" lon="10.3237010">
	<ele>1207.60</ele>
	<time>2025-07-30T07:56:07.000Z</time>
</trkpt>
<trkpt lat="46.0444570" lon="10.3237010">
	<ele>1207.60</ele>
	<time>2025-07-30T07:56:08.000Z</time>
</trkpt>
<trkpt lat="46.0444570" lon="10.3237010">
	<ele>1207.60</ele>
	<time>2025-07-30T07:56:09.000Z</time>
</trkpt>
<trkpt lat="46.0444560" lon="10.3237010">
	<ele>1207.60</ele>
	<time>2025-07-30T07:56:10.000Z</time>
</trkpt>
<trkpt lat="46.0444560" lon="10.3237010">
	<ele>1207.60</ele>
	<time>2025-07-30T07:56:11.000Z</time>
</trkpt>
<trkpt lat="46.0444560" lon="10.3237020">
	<ele>1207.60</ele>
	<time>2025-07-30T07:56:12.000Z</time>
</trkpt>
<trkpt lat="46.0444560" lon="10.3237020">
	<ele>1207.60</ele>
	<time>2025-07-30T07:56:13.000Z</time>
</trkpt>
<trkpt lat="46.0444560" lon="10.3237020">
	<ele>1207.40</ele>
	<time>2025-07-30T07:56:14.000Z</time>
</trkpt>
<trkpt lat="46.0444560" lon="10.3237030">
	<ele>1207.40</ele>
	<time>2025-07-30T07:56:15.000Z</time>
</trkpt>
<trkpt lat="46.0444540" lon="10.3237070">
	<ele>1207.20</ele>
	<time>2025-07-30T07:56:16.000Z</time>
</trkpt>
<trkpt lat="46.0444480" lon="10.3237220">
	<ele>1207.20</ele>
	<time>2025-07-30T07:56:17.000Z</time>
</trkpt>
<trkpt lat="46.0444450" lon="10.3237330">
	<ele>1206.80</ele>
	<time>2025-07-30T07:56:18.000Z</time>
</trkpt>
<trkpt lat="46.0444420" lon="10.3237440">
	<ele>1206.40</ele>
	<time>2025-07-30T07:56:19.000Z</time>
</trkpt>
<trkpt lat="46.0444390" lon="10.3237590">
	<ele>1206.20</ele>
	<time>2025-07-30T07:56:20.000Z</time>
</trkpt>
<trkpt lat="46.0444360" lon="10.3237760">
	<ele>1206.00</ele>
	<time>2025-07-30T07:56:21.000Z</time>
</trkpt>
<trkpt lat="46.0444330" lon="10.3237920">
	<ele>1205.80</ele>
	<time>2025-07-30T07:56:22.000Z</time>
</trkpt>
<trkpt lat="46.0444270" lon="10.3238080">
	<ele>1205.40</ele>
	<time>2025-07-30T07:56:23.000Z</time>
</trkpt>
<trkpt lat="46.0444180" lon="10.3238270">
	<ele>1205.00</ele>
	<time>2025-07-30T07:56:24.000Z</time>
</trkpt>
<trkpt lat="46.0444140" lon="10.3238450">
	<ele>1205.00</ele>
	<time>2025-07-30T07:56:25.000Z</time>
</trkpt>
<trkpt lat="46.0444120" lon="10.3238580">
	<ele>1204.80</ele>
	<time>2025-07-30T07:56:26.000Z</time>
</trkpt>
<trkpt lat="46.0444110" lon="10.3238660">
	<ele>1204.60</ele>
	<time>2025-07-30T07:56:27.000Z</time>
</trkpt>
<trkpt lat="46.0444120" lon="10.3238780">
	<ele>1204.60</ele>
	<time>2025-07-30T07:56:28.000Z</time>
</trkpt>
<trkpt lat="46.0444100" lon="10.3238910">
	<ele>1204.40</ele>
	<time>2025-07-30T07:56:29.000Z</time>
</trkpt>
<trkpt lat="46.0444080" lon="10.3239020">
	<ele>1204.40</ele>
	<time>2025-07-30T07:56:30.000Z</time>
</trkpt>
<trkpt lat="46.0444100" lon="10.3239190">
	<ele>1204.00</ele>
	<time>2025-07-30T07:56:31.000Z</time>
</trkpt>
<trkpt lat="46.0444100" lon="10.3239320">
	<ele>1203.80</ele>
	<time>2025-07-30T07:56:32.000Z</time>
</trkpt>
<trkpt lat="46.0444060" lon="10.3239440">
	<ele>1203.60</ele>
	<time>2025-07-30T07:56:33.000Z</time>
</trkpt>
<trkpt lat="46.0444080" lon="10.3239630">
	<ele>1203.20</ele>
	<time>2025-07-30T07:56:34.000Z</time>
</trkpt>
<trkpt lat="46.0444070" lon="10.3239770">
	<ele>1203.00</ele>
	<time>2025-07-30T07:56:35.000Z</time>
</trkpt>
<trkpt lat="46.0444040" lon="10.3239920">
	<ele>1202.60</ele>
	<time>2025-07-30T07:56:36.000Z</time>
</trkpt>
<trkpt lat="46.0444040" lon="10.3240090">
	<ele>1202.40</ele>
	<time>2025-07-30T07:56:37.000Z</time>
</trkpt>
<trkpt lat="46.0444050" lon="10.3240260">
	<ele>1202.40</ele>
	<time>2025-07-30T07:56:38.000Z</time>
</trkpt>
<trkpt lat="46.0444020" lon="10.3240430">
	<ele>1202.20</ele>
	<time>2025-07-30T07:56:39.000Z</time>
</trkpt>
<trkpt lat="46.0444010" lon="10.3240610">
	<ele>1202.20</ele>
	<time>2025-07-30T07:56:40.000Z</time>
</trkpt>
<trkpt lat="46.0444010" lon="10.3240850">
	<ele>1202.00</ele>
	<time>2025-07-30T07:56:41.000Z</time>
</trkpt>
<trkpt lat="46.0444050" lon="10.3241030">
	<ele>1201.80</ele>
	<time>2025-07-30T07:56:42.000Z</time>
</trkpt>
<trkpt lat="46.0444100" lon="10.3241220">
	<ele>1201.60</ele>
	<time>2025-07-30T07:56:43.000Z</time>
</trkpt>
<trkpt lat="46.0444120" lon="10.3241480">
	<ele>1201.60</ele>
	<time>2025-07-30T07:56:44.000Z</time>
</trkpt>
<trkpt lat="46.0444150" lon="10.3241660">
	<ele>1201.40</ele>
	<time>2025-07-30T07:56:45.000Z</time>
</trkpt>
<trkpt lat="46.0444200" lon="10.3241800">
	<ele>1201.40</ele>
	<time>2025-07-30T07:56:46.000Z</time>
</trkpt>
<trkpt lat="46.0444230" lon="10.3241960">
	<ele>1201.40</ele>
	<time>2025-07-30T07:56:47.000Z</time>
</trkpt>
<trkpt lat="46.0444210" lon="10.3242140">
	<ele>1201.40</ele>
	<time>2025-07-30T07:56:48.000Z</time>
</trkpt>
<trkpt lat="46.0444220" lon="10.3242340">
	<ele>1201.40</ele>
	<time>2025-07-30T07:56:49.000Z</time>
</trkpt>
<trkpt lat="46.0444270" lon="10.3242520">
	<ele>1201.20</ele>
	<time>2025-07-30T07:56:50.000Z</time>
</trkpt>
<trkpt lat="46.0444250" lon="10.3242660">
	<ele>1201.20</ele>
	<time>2025-07-30T07:56:51.000Z</time>
</trkpt>
<trkpt lat="46.0444240" lon="10.3242810">
	<ele>1201.00</ele>
	<time>2025-07-30T07:56:52.000Z</time>
</trkpt>
<trkpt lat="46.0444270" lon="10.3243030">
	<ele>1200.80</ele>
	<time>2025-07-30T07:56:53.000Z</time>
</trkpt>
<trkpt lat="46.0444280" lon="10.3243120">
	<ele>1200.60</ele>
	<time>2025-07-30T07:56:54.000Z</time>
</trkpt>
<trkpt lat="46.0444340" lon="10.3243240">
	<ele>1200.40</ele>
	<time>2025-07-30T07:56:55.000Z</time>
</trkpt>
<trkpt lat="46.0444410" lon="10.3243350">
	<ele>1200.20</ele>
	<time>2025-07-30T07:56:56.000Z</time>
</trkpt>
<trkpt lat="46.0444400" lon="10.3243540">
	<ele>1200.20</ele>
	<time>2025-07-30T07:56:57.000Z</time>
</trkpt>
<trkpt lat="46.0444400" lon="10.3243700">
	<ele>1200.00</ele>
	<time>2025-07-30T07:56:58.000Z</time>
</trkpt>
<trkpt lat="46.0444380" lon="10.3243870">
	<ele>1199.80</ele>
	<time>2025-07-30T07:56:59.000Z</time>
</trkpt>
<trkpt lat="46.0444360" lon="10.3244080">
	<ele>1199.60</ele>
	<time>2025-07-30T07:57:00.000Z</time>
</trkpt>
<trkpt lat="46.0444360" lon="10.3244230">
	<ele>1199.20</ele>
	<time>2025-07-30T07:57:01.000Z</time>
</trkpt>
<trkpt lat="46.0444510" lon="10.3244290">
	<ele>1199.00</ele>
	<time>2025-07-30T07:57:02.000Z</time>
</trkpt>
<trkpt lat="46.0444560" lon="10.3244440">
	<ele>1199.00</ele>
	<time>2025-07-30T07:57:03.000Z</time>
</trkpt>
<trkpt lat="46.0444540" lon="10.3244550">
	<ele>1198.60</ele>
	<time>2025-07-30T07:57:04.000Z</time>
</trkpt>
<trkpt lat="46.0444420" lon="10.3244690">
	<ele>1198.40</ele>
	<time>2025-07-30T07:57:05.000Z</time>
</trkpt>
<trkpt lat="46.0444280" lon="10.3244760">
	<ele>1198.00</ele>
	<time>2025-07-30T07:57:06.000Z</time>
</trkpt>
<trkpt lat="46.0444090" lon="10.3244810">
	<ele>1197.60</ele>
	<time>2025-07-30T07:57:07.000Z</time>
</trkpt>
<trkpt lat="46.0443990" lon="10.3244950">
	<ele>1197.40</ele>
	<time>2025-07-30T07:57:08.000Z</time>
</trkpt>
<trkpt lat="46.0443950" lon="10.3245110">
	<ele>1197.00</ele>
	<time>2025-07-30T07:57:09.000Z</time>
</trkpt>
<trkpt lat="46.0443870" lon="10.3245180">
	<ele>1196.60</ele>
	<time>2025-07-30T07:57:10.000Z</time>
</trkpt>
<trkpt lat="46.0443850" lon="10.3245320">
	<ele>1196.20</ele>
	<time>2025-07-30T07:57:11.000Z</time>
</trkpt>
<trkpt lat="46.0443870" lon="10.3245500">
	<ele>1196.00</ele>
	<time>2025-07-30T07:57:12.000Z</time>
</trkpt>
<trkpt lat="46.0443860" lon="10.3245720">
	<ele>1195.60</ele>
	<time>2025-07-30T07:57:13.000Z</time>
</trkpt>
<trkpt lat="46.0443870" lon="10.3245920">
	<ele>1195.20</ele>
	<time>2025-07-30T07:57:14.000Z</time>
</trkpt>
<trkpt lat="46.0443880" lon="10.3246100">
	<ele>1194.80</ele>
	<time>2025-07-30T07:57:15.000Z</time>
</trkpt>
<trkpt lat="46.0443930" lon="10.3246220">
	<ele>1194.60</ele>
	<time>2025-07-30T07:57:16.000Z</time>
</trkpt>
<trkpt lat="46.0443960" lon="10.3246320">
	<ele>1194.20</ele>
	<time>2025-07-30T07:57:17.000Z</time>
</trkpt>
<trkpt lat="46.0444010" lon="10.3246460">
	<ele>1193.80</ele>
	<time>2025-07-30T07:57:18.000Z</time>
</trkpt>
<trkpt lat="46.0444080" lon="10.3246630">
	<ele>1193.60</ele>
	<time>2025-07-30T07:57:19.000Z</time>
</trkpt>
<trkpt lat="46.0444090" lon="10.3246840">
	<ele>1193.20</ele>
	<time>2025-07-30T07:57:20.000Z</time>
</trkpt>
<trkpt lat="46.0444070" lon="10.3246980">
	<ele>1193.00</ele>
	<time>2025-07-30T07:57:21.000Z</time>
</trkpt>
<trkpt lat="46.0443990" lon="10.3247120">
	<ele>1192.60</ele>
	<time>2025-07-30T07:57:22.000Z</time>
</trkpt>
<trkpt lat="46.0443940" lon="10.3247240">
	<ele>1192.20</ele>
	<time>2025-07-30T07:57:23.000Z</time>
</trkpt>
<trkpt lat="46.0443980" lon="10.3247350">
	<ele>1192.00</ele>
	<time>2025-07-30T07:57:24.000Z</time>
</trkpt>
<trkpt lat="46.0444010" lon="10.3247480">
	<ele>1191.60</ele>
	<time>2025-07-30T07:57:25.000Z</time>
</trkpt>
<trkpt lat="46.0443980" lon="10.3247610">
	<ele>1191.40</ele>
	<time>2025-07-30T07:57:26.000Z</time>
</trkpt>
<trkpt lat="46.0443950" lon="10.3247710">
	<ele>1191.20</ele>
	<time>2025-07-30T07:57:27.000Z</time>
</trkpt>
<trkpt lat="46.0443820" lon="10.3247700">
	<ele>1190.80</ele>
	<time>2025-07-30T07:57:28.000Z</time>
</trkpt>
<trkpt lat="46.0443670" lon="10.3247750">
	<ele>1190.60</ele>
	<time>2025-07-30T07:57:29.000Z</time>
</trkpt>
<trkpt lat="46.0443630" lon="10.3247990">
	<ele>1190.20</ele>
	<time>2025-07-30T07:57:30.000Z</time>
</trkpt>
<trkpt lat="46.0443590" lon="10.3248070">
	<ele>1190.00</ele>
	<time>2025-07-30T07:57:31.000Z</time>
</trkpt>
<trkpt lat="46.0443730" lon="10.3248280">
	<ele>1189.80</ele>
	<time>2025-07-30T07:57:32.000Z</time>
</trkpt>
<trkpt lat="46.0443740" lon="10.3248490">
	<ele>1189.40</ele>
	<time>2025-07-30T07:57:33.000Z</time>
</trkpt>
<trkpt lat="46.0443690" lon="10.3248600">
	<ele>1189.00</ele>
	<time>2025-07-30T07:57:34.000Z</time>
</trkpt>
<trkpt lat="46.0443650" lon="10.3248670">
	<ele>1188.80</ele>
	<time>2025-07-30T07:57:35.000Z</time>
</trkpt>
<trkpt lat="46.0443600" lon="10.3248790">
	<ele>1188.20</ele>
	<time>2025-07-30T07:57:36.000Z</time>
</trkpt>
<trkpt lat="46.0443550" lon="10.3248950">
	<ele>1188.00</ele>
	<time>2025-07-30T07:57:37.000Z</time>
</trkpt>
<trkpt lat="46.0443540" lon="10.3249090">
	<ele>1187.60</ele>
	<time>2025-07-30T07:57:38.000Z</time>
</trkpt>
<trkpt lat="46.0443520" lon="10.3249250">
	<ele>1187.40</ele>
	<time>2025-07-30T07:57:39.000Z</time>
</trkpt>
<trkpt lat="46.0443480" lon="10.3249410">
	<ele>1187.20</ele>
	<time>2025-07-30T07:57:40.000Z</time>
</trkpt>
<trkpt lat="46.0443450" lon="10.3249540">
	<ele>1186.80</ele>
	<time>2025-07-30T07:57:41.000Z</time>
</trkpt>
<trkpt lat="46.0443440" lon="10.3249650">
	<ele>1186.60</ele>
	<time>2025-07-30T07:57:42.000Z</time>
</trkpt>
<trkpt lat="46.0443420" lon="10.3249760">
	<ele>1186.20</ele>
	<time>2025-07-30T07:57:43.000Z</time>
</trkpt>
<trkpt lat="46.0443400" lon="10.3249780">
	<ele>1185.80</ele>
	<time>2025-07-30T07:57:44.000Z</time>
</trkpt>
<trkpt lat="46.0443380" lon="10.3249780">
	<ele>1185.60</ele>
	<time>2025-07-30T07:57:45.000Z</time>
</trkpt>
<trkpt lat="46.0443310" lon="10.3249800">
	<ele>1185.40</ele>
	<time>2025-07-30T07:57:46.000Z</time>
</trkpt>
<trkpt lat="46.0443270" lon="10.3249820">
	<ele>1185.20</ele>
	<time>2025-07-30T07:57:47.000Z</time>
</trkpt>
<trkpt lat="46.0443230" lon="10.3249810">
	<ele>1184.80</ele>
	<time>2025-07-30T07:57:48.000Z</time>
</trkpt>
<trkpt lat="46.0443200" lon="10.3249790">
	<ele>1184.20</ele>
	<time>2025-07-30T07:57:49.000Z</time>
</trkpt>
<trkpt lat="46.0443180" lon="10.3249740">
	<ele>1184.00</ele>
	<time>2025-07-30T07:57:50.000Z</time>
</trkpt>
<trkpt lat="46.0443110" lon="10.3249690">
	<ele>1183.60</ele>
	<time>2025-07-30T07:57:51.000Z</time>
</trkpt>
<trkpt lat="46.0443020" lon="10.3249600">
	<ele>1183.20</ele>
	<time>2025-07-30T07:57:52.000Z</time>
</trkpt>
<trkpt lat="46.0442950" lon="10.3249540">
	<ele>1183.20</ele>
	<time>2025-07-30T07:57:53.000Z</time>
</trkpt>
<trkpt lat="46.0442900" lon="10.3249530">
	<ele>1183.00</ele>
	<time>2025-07-30T07:57:54.000Z</time>
</trkpt>
<trkpt lat="46.0442860" lon="10.3249470">
	<ele>1182.80</ele>
	<time>2025-07-30T07:57:55.000Z</time>
</trkpt>
<trkpt lat="46.0442820" lon="10.3249400">
	<ele>1182.60</ele>
	<time>2025-07-30T07:57:56.000Z</time>
</trkpt>
<trkpt lat="46.0442760" lon="10.3249350">
	<ele>1182.40</ele>
	<time>2025-07-30T07:57:57.000Z</time>
</trkpt>
<trkpt lat="46.0442720" lon="10.3249300">
	<ele>1182.00</ele>
	<time>2025-07-30T07:57:58.000Z</time>
</trkpt>
<trkpt lat="46.0442660" lon="10.3249310">
	<ele>1181.80</ele>
	<time>2025-07-30T07:57:59.000Z</time>
</trkpt>
<trkpt lat="46.0442570" lon="10.3249330">
	<ele>1181.60</ele>
	<time>2025-07-30T07:58:00.000Z</time>
</trkpt>
<trkpt lat="46.0442480" lon="10.3249310">
	<ele>1181.20</ele>
	<time>2025-07-30T07:58:01.000Z</time>
</trkpt>
<trkpt lat="46.0442350" lon="10.3249220">
	<ele>1180.80</ele>
	<time>2025-07-30T07:58:02.000Z</time>
</trkpt>
<trkpt lat="46.0442220" lon="10.3249210">
	<ele>1180.40</ele>
	<time>2025-07-30T07:58:03.000Z</time>
</trkpt>
<trkpt lat="46.0442080" lon="10.3249230">
	<ele>1180.00</ele>
	<time>2025-07-30T07:58:04.000Z</time>
</trkpt>
<trkpt lat="46.0441950" lon="10.3249280">
	<ele>1179.80</ele>
	<time>2025-07-30T07:58:05.000Z</time>
</trkpt>
<trkpt lat="46.0441900" lon="10.3249350">
	<ele>1179.60</ele>
	<time>2025-07-30T07:58:06.000Z</time>
</trkpt>
<trkpt lat="46.0441750" lon="10.3249390">
	<ele>1179.20</ele>
	<time>2025-07-30T07:58:07.000Z</time>
</trkpt>
<trkpt lat="46.0441650" lon="10.3249430">
	<ele>1178.80</ele>
	<time>2025-07-30T07:58:08.000Z</time>
</trkpt>
<trkpt lat="46.0441570" lon="10.3249530">
	<ele>1178.40</ele>
	<time>2025-07-30T07:58:09.000Z</time>
</trkpt>
<trkpt lat="46.0441560" lon="10.3249680">
	<ele>1178.40</ele>
	<time>2025-07-30T07:58:10.000Z</time>
</trkpt>
<trkpt lat="46.0441460" lon="10.3249830">
	<ele>1178.00</ele>
	<time>2025-07-30T07:58:11.000Z</time>
</trkpt>
<trkpt lat="46.0441370" lon="10.3249910">
	<ele>1177.60</ele>
	<time>2025-07-30T07:58:12.000Z</time>
</trkpt>
<trkpt lat="46.0441330" lon="10.3250080">
	<ele>1177.40</ele>
	<time>2025-07-30T07:58:13.000Z</time>
</trkpt>
<trkpt lat="46.0441320" lon="10.3250250">
	<ele>1177.20</ele>
	<time>2025-07-30T07:58:14.000Z</time>
</trkpt>
<trkpt lat="46.0441290" lon="10.3250400">
	<ele>1177.00</ele>
	<time>2025-07-30T07:58:15.000Z</time>
</trkpt>
<trkpt lat="46.0441250" lon="10.3250500">
	<ele>1176.40</ele>
	<time>2025-07-30T07:58:16.000Z</time>
</trkpt>
<trkpt lat="46.0441210" lon="10.3250640">
	<ele>1176.20</ele>
	<time>2025-07-30T07:58:17.000Z</time>
</trkpt>
<trkpt lat="46.0441210" lon="10.3250760">
	<ele>1176.00</ele>
	<time>2025-07-30T07:58:18.000Z</time>
</trkpt>
<trkpt lat="46.0441230" lon="10.3250920">
	<ele>1175.60</ele>
	<time>2025-07-30T07:58:19.000Z</time>
</trkpt>
<trkpt lat="46.0441280" lon="10.3251120">
	<ele>1175.20</ele>
	<time>2025-07-30T07:58:20.000Z</time>
</trkpt>
<trkpt lat="46.0441350" lon="10.3251330">
	<ele>1174.80</ele>
	<time>2025-07-30T07:58:21.000Z</time>
</trkpt>
<trkpt lat="46.0441390" lon="10.3251540">
	<ele>1174.60</ele>
	<time>2025-07-30T07:58:22.000Z</time>
</trkpt>
<trkpt lat="46.0441430" lon="10.3251610">
	<ele>1174.20</ele>
	<time>2025-07-30T07:58:23.000Z</time>
</trkpt>
<trkpt lat="46.0441480" lon="10.3251760">
	<ele>1174.00</ele>
	<time>2025-07-30T07:58:24.000Z</time>
</trkpt>
<trkpt lat="46.0441480" lon="10.3252160">
	<ele>1173.80</ele>
	<time>2025-07-30T07:58:25.000Z</time>
</trkpt>
<trkpt lat="46.0441630" lon="10.3252440">
	<ele>1173.40</ele>
	<time>2025-07-30T07:58:26.000Z</time>
</trkpt>
<trkpt lat="46.0441620" lon="10.3252540">
	<ele>1173.20</ele>
	<time>2025-07-30T07:58:27.000Z</time>
</trkpt>
<trkpt lat="46.0441570" lon="10.3252610">
	<ele>1172.80</ele>
	<time>2025-07-30T07:58:28.000Z</time>
</trkpt>
<trkpt lat="46.0441500" lon="10.3252650">
	<ele>1172.40</ele>
	<time>2025-07-30T07:58:29.000Z</time>
</trkpt>
<trkpt lat="46.0441510" lon="10.3252740">
	<ele>1172.20</ele>
	<time>2025-07-30T07:58:30.000Z</time>
</trkpt>
<trkpt lat="46.0441560" lon="10.3252930">
	<ele>1171.80</ele>
	<time>2025-07-30T07:58:31.000Z</time>
</trkpt>
<trkpt lat="46.0441540" lon="10.3253130">
	<ele>1171.40</ele>
	<time>2025-07-30T07:58:32.000Z</time>
</trkpt>
<trkpt lat="46.0441500" lon="10.3253340">
	<ele>1171.00</ele>
	<time>2025-07-30T07:58:33.000Z</time>
</trkpt>
<trkpt lat="46.0441540" lon="10.3253490">
	<ele>1170.60</ele>
	<time>2025-07-30T07:58:34.000Z</time>
</trkpt>
<trkpt lat="46.0441560" lon="10.3253640">
	<ele>1170.40</ele>
	<time>2025-07-30T07:58:35.000Z</time>
</trkpt>
<trkpt lat="46.0441590" lon="10.3253790">
	<ele>1170.00</ele>
	<time>2025-07-30T07:58:36.000Z</time>
</trkpt>
<trkpt lat="46.0441640" lon="10.3253910">
	<ele>1169.60</ele>
	<time>2025-07-30T07:58:37.000Z</time>
</trkpt>
<trkpt lat="46.0441690" lon="10.3254040">
	<ele>1169.20</ele>
	<time>2025-07-30T07:58:38.000Z</time>
</trkpt>
<trkpt lat="46.0441790" lon="10.3254130">
	<ele>1169.00</ele>
	<time>2025-07-30T07:58:39.000Z</time>
</trkpt>
<trkpt lat="46.0441860" lon="10.3254270">
	<ele>1168.80</ele>
	<time>2025-07-30T07:58:40.000Z</time>
</trkpt>
<trkpt lat="46.0441910" lon="10.3254350">
	<ele>1168.40</ele>
	<time>2025-07-30T07:58:41.000Z</time>
</trkpt>
<trkpt lat="46.0441920" lon="10.3254510">
	<ele>1168.20</ele>
	<time>2025-07-30T07:58:42.000Z</time>
</trkpt>
<trkpt lat="46.0441930" lon="10.3254640">
	<ele>1168.00</ele>
	<time>2025-07-30T07:58:43.000Z</time>
</trkpt>
<trkpt lat="46.0441990" lon="10.3254730">
	<ele>1167.80</ele>
	<time>2025-07-30T07:58:44.000Z</time>
</trkpt>
<trkpt lat="46.0442020" lon="10.3254880">
	<ele>1167.60</ele>
	<time>2025-07-30T07:58:45.000Z</time>
</trkpt>
<trkpt lat="46.0442000" lon="10.3255010">
	<ele>1167.40</ele>
	<time>2025-07-30T07:58:46.000Z</time>
</trkpt>
<trkpt lat="46.0441960" lon="10.3255160">
	<ele>1167.20</ele>
	<time>2025-07-30T07:58:47.000Z</time>
</trkpt>
<trkpt lat="46.0441940" lon="10.3255310">
	<ele>1167.00</ele>
	<time>2025-07-30T07:58:48.000Z</time>
</trkpt>
<trkpt lat="46.0442020" lon="10.3255530">
	<ele>1166.80</ele>
	<time>2025-07-30T07:58:49.000Z</time>
</trkpt>
<trkpt lat="46.0442080" lon="10.3255670">
	<ele>1166.60</ele>
	<time>2025-07-30T07:58:50.000Z</time>
</trkpt>
<trkpt lat="46.0442190" lon="10.3255830">
	<ele>1166.40</ele>
	<time>2025-07-30T07:58:51.000Z</time>
</trkpt>
<trkpt lat="46.0442340" lon="10.3256170">
	<ele>1166.20</ele>
	<time>2025-07-30T07:58:52.000Z</time>
</trkpt>
<trkpt lat="46.0442430" lon="10.3256440">
	<ele>1166.00</ele>
	<time>2025-07-30T07:58:53.000Z</time>
</trkpt>
<trkpt lat="46.0442540" lon="10.3256690">
	<ele>1165.80</ele>
	<time>2025-07-30T07:58:54.000Z</time>
</trkpt>
<trkpt lat="46.0442610" lon="10.3256900">
	<ele>1165.40</ele>
	<time>2025-07-30T07:58:55.000Z</time>
</trkpt>
<trkpt lat="46.0442710" lon="10.3256930">
	<ele>1165.20</ele>
	<time>2025-07-30T07:58:56.000Z</time>
</trkpt>
<trkpt lat="46.0442790" lon="10.3256950">
	<ele>1164.80</ele>
	<time>2025-07-30T07:58:57.000Z</time>
</trkpt>
<trkpt lat="46.0442810" lon="10.3256950">
	<ele>1164.40</ele>
	<time>2025-07-30T07:58:58.000Z</time>
</trkpt>
<trkpt lat="46.0442890" lon="10.3256950">
	<ele>1164.20</ele>
	<time>2025-07-30T07:58:59.000Z</time>
</trkpt>
<trkpt lat="46.0442850" lon="10.3256990">
	<ele>1164.00</ele>
	<time>2025-07-30T07:59:00.000Z</time>
</trkpt>
<trkpt lat="46.0442750" lon="10.3256990">
	<ele>1163.80</ele>
	<time>2025-07-30T07:59:01.000Z</time>
</trkpt>
<trkpt lat="46.0442690" lon="10.3256990">
	<ele>1163.40</ele>
	<time>2025-07-30T07:59:02.000Z</time>
</trkpt>
<trkpt lat="46.0442690" lon="10.3257030">
	<ele>1163.20</ele>
	<time>2025-07-30T07:59:03.000Z</time>
</trkpt>
<trkpt lat="46.0442680" lon="10.3257040">
	<ele>1163.00</ele>
	<time>2025-07-30T07:59:04.000Z</time>
</trkpt>
<trkpt lat="46.0442530" lon="10.3256880">
	<ele>1163.00</ele>
	<time>2025-07-30T07:59:05.000Z</time>
</trkpt>
<trkpt lat="46.0442500" lon="10.3256900">
	<ele>1162.80</ele>
	<time>2025-07-30T07:59:06.000Z</time>
</trkpt>
<trkpt lat="46.0442470" lon="10.3256890">
	<ele>1162.80</ele>
	<time>2025-07-30T07:59:07.000Z</time>
</trkpt>
<trkpt lat="46.0442490" lon="10.3256850">
	<ele>1162.60</ele>
	<time>2025-07-30T07:59:08.000Z</time>
</trkpt>
<trkpt lat="46.0442470" lon="10.3256860">
	<ele>1162.60</ele>
	<time>2025-07-30T07:59:09.000Z</time>
</trkpt>
<trkpt lat="46.0442420" lon="10.3256930">
	<ele>1162.60</ele>
	<time>2025-07-30T07:59:10.000Z</time>
</trkpt>
<trkpt lat="46.0442310" lon="10.3256920">
	<ele>1162.40</ele>
	<time>2025-07-30T07:59:11.000Z</time>
</trkpt>
<trkpt lat="46.0442170" lon="10.3256940">
	<ele>1162.20</ele>
	<time>2025-07-30T07:59:12.000Z</time>
</trkpt>
<trkpt lat="46.0442050" lon="10.3256900">
	<ele>1161.80</ele>
	<time>2025-07-30T07:59:13.000Z</time>
</trkpt>
<trkpt lat="46.0441920" lon="10.3256910">
	<ele>1161.40</ele>
	<time>2025-07-30T07:59:14.000Z</time>
</trkpt>
<trkpt lat="46.0441810" lon="10.3256980">
	<ele>1161.20</ele>
	<time>2025-07-30T07:59:15.000Z</time>
</trkpt>
<trkpt lat="46.0441710" lon="10.3257030">
	<ele>1160.80</ele>
	<time>2025-07-30T07:59:16.000Z</time>
</trkpt>
<trkpt lat="46.0441600" lon="10.3256990">
	<ele>1160.40</ele>
	<time>2025-07-30T07:59:17.000Z</time>
</trkpt>
<trkpt lat="46.0441500" lon="10.3256940">
	<ele>1160.20</ele>
	<time>2025-07-30T07:59:18.000Z</time>
</trkpt>
<trkpt lat="46.0441440" lon="10.3256990">
	<ele>1160.00</ele>
	<time>2025-07-30T07:59:19.000Z</time>
</trkpt>
<trkpt lat="46.0441400" lon="10.3257070">
	<ele>1159.60</ele>
	<time>2025-07-30T07:59:20.000Z</time>
</trkpt>
<trkpt lat="46.0441380" lon="10.3257090">
	<ele>1159.40</ele>
	<time>2025-07-30T07:59:21.000Z</time>
</trkpt>
<trkpt lat="46.0441360" lon="10.3257130">
	<ele>1159.20</ele>
	<time>2025-07-30T07:59:22.000Z</time>
</trkpt>
<trkpt lat="46.0441340" lon="10.3257230">
	<ele>1158.80</ele>
	<time>2025-07-30T07:59:23.000Z</time>
</trkpt>
<trkpt lat="46.0441290" lon="10.3257330">
	<ele>1158.60</ele>
	<time>2025-07-30T07:59:24.000Z</time>
</trkpt>
<trkpt lat="46.0441220" lon="10.3257400">
	<ele>1158.40</ele>
	<time>2025-07-30T07:59:25.000Z</time>
</trkpt>
<trkpt lat="46.0441150" lon="10.3257490">
	<ele>1158.00</ele>
	<time>2025-07-30T07:59:26.000Z</time>
</trkpt>
<trkpt lat="46.0441100" lon="10.3257510">
	<ele>1157.80</ele>
	<time>2025-07-30T07:59:27.000Z</time>
</trkpt>
<trkpt lat="46.0440940" lon="10.3257450">
	<ele>1157.60</ele>
	<time>2025-07-30T07:59:28.000Z</time>
</trkpt>
<trkpt lat="46.0440840" lon="10.3257380">
	<ele>1157.40</ele>
	<time>2025-07-30T07:59:29.000Z</time>
</trkpt>
<trkpt lat="46.0440770" lon="10.3257290">
	<ele>1157.20</ele>
	<time>2025-07-30T07:59:30.000Z</time>
</trkpt>
<trkpt lat="46.0440690" lon="10.3257180">
	<ele>1157.00</ele>
	<time>2025-07-30T07:59:31.000Z</time>
</trkpt>
<trkpt lat="46.0440570" lon="10.3257150">
	<ele>1156.80</ele>
	<time>2025-07-30T07:59:32.000Z</time>
</trkpt>
<trkpt lat="46.0440460" lon="10.3257090">
	<ele>1156.80</ele>
	<time>2025-07-30T07:59:33.000Z</time>
</trkpt>
<trkpt lat="46.0440400" lon="10.3256970">
	<ele>1156.80</ele>
	<time>2025-07-30T07:59:34.000Z</time>
</trkpt>
<trkpt lat="46.0440370" lon="10.3256850">
	<ele>1156.60</ele>
	<time>2025-07-30T07:59:35.000Z</time>
</trkpt>
<trkpt lat="46.0440340" lon="10.3256800">
	<ele>1156.40</ele>
	<time>2025-07-30T07:59:36.000Z</time>
</trkpt>
<trkpt lat="46.0440290" lon="10.3256820">
	<ele>1156.00</ele>
	<time>2025-07-30T07:59:37.000Z</time>
</trkpt>
<trkpt lat="46.0440240" lon="10.3256890">
	<ele>1155.80</ele>
	<time>2025-07-30T07:59:38.000Z</time>
</trkpt>
<trkpt lat="46.0440140" lon="10.3256970">
	<ele>1155.40</ele>
	<time>2025-07-30T07:59:39.000Z</time>
</trkpt>
<trkpt lat="46.0440000" lon="10.3257020">
	<ele>1155.20</ele>
	<time>2025-07-30T07:59:40.000Z</time>
</trkpt>
<trkpt lat="46.0439910" lon="10.3256980">
	<ele>1155.00</ele>
	<time>2025-07-30T07:59:41.000Z</time>
</trkpt>
<trkpt lat="46.0439880" lon="10.3256970">
	<ele>1154.80</ele>
	<time>2025-07-30T07:59:42.000Z</time>
</trkpt>
<trkpt lat="46.0439790" lon="10.3256860">
	<ele>1154.60</ele>
	<time>2025-07-30T07:59:43.000Z</time>
</trkpt>
<trkpt lat="46.0439750" lon="10.3256730">
	<ele>1154.60</ele>
	<time>2025-07-30T07:59:44.000Z</time>
</trkpt>
<trkpt lat="46.0439690" lon="10.3256620">
	<ele>1154.40</ele>
	<time>2025-07-30T07:59:45.000Z</time>
</trkpt>
<trkpt lat="46.0439590" lon="10.3256500">
	<ele>1154.00</ele>
	<time>2025-07-30T07:59:46.000Z</time>
</trkpt>
<trkpt lat="46.0439540" lon="10.3256400">
	<ele>1153.80</ele>
	<time>2025-07-30T07:59:47.000Z</time>
</trkpt>
<trkpt lat="46.0439470" lon="10.3256360">
	<ele>1153.40</ele>
	<time>2025-07-30T07:59:48.000Z</time>
</trkpt>
<trkpt lat="46.0439380" lon="10.3256310">
	<ele>1153.20</ele>
	<time>2025-07-30T07:59:49.000Z</time>
</trkpt>
<trkpt lat="46.0439300" lon="10.3256260">
	<ele>1153.00</ele>
	<time>2025-07-30T07:59:50.000Z</time>
</trkpt>
<trkpt lat="46.0439260" lon="10.3256260">
	<ele>1152.80</ele>
	<time>2025-07-30T07:59:51.000Z</time>
</trkpt>
<trkpt lat="46.0439260" lon="10.3256280">
	<ele>1152.60</ele>
	<time>2025-07-30T07:59:52.000Z</time>
</trkpt>
<trkpt lat="46.0439250" lon="10.3256290">
	<ele>1152.40</ele>
	<time>2025-07-30T07:59:53.000Z</time>
</trkpt>
<trkpt lat="46.0439240" lon="10.3256260">
	<ele>1152.20</ele>
	<time>2025-07-30T07:59:54.000Z</time>
</trkpt>
<trkpt lat="46.0439240" lon="10.3256280">
	<ele>1152.00</ele>
	<time>2025-07-30T07:59:55.000Z</time>
</trkpt>
<trkpt lat="46.0439160" lon="10.3256230">
	<ele>1151.60</ele>
	<time>2025-07-30T07:59:56.000Z</time>
</trkpt>
<trkpt lat="46.0439140" lon="10.3256240">
	<ele>1151.60</ele>
	<time>2025-07-30T07:59:57.000Z</time>
</trkpt>
<trkpt lat="46.0439090" lon="10.3256160">
	<ele>1151.20</ele>
	<time>2025-07-30T07:59:58.000Z</time>
</trkpt>
<trkpt lat="46.0438960" lon="10.3256070">
	<ele>1151.00</ele>
	<time>2025-07-30T07:59:59.000Z</time>
</trkpt>
<trkpt lat="46.0438850" lon="10.3255970">
	<ele>1150.80</ele>
	<time>2025-07-30T08:00:00.000Z</time>
</trkpt>
<trkpt lat="46.0438710" lon="10.3255890">
	<ele>1150.60</ele>
	<time>2025-07-30T08:00:01.000Z</time>
</trkpt>
<trkpt lat="46.0438560" lon="10.3255840">
	<ele>1150.20</ele>
	<time>2025-07-30T08:00:02.000Z</time>
</trkpt>
<trkpt lat="46.0438400" lon="10.3255750">
	<ele>1149.80</ele>
	<time>2025-07-30T08:00:03.000Z</time>
</trkpt>
<trkpt lat="46.0438280" lon="10.3255610">
	<ele>1149.60</ele>
	<time>2025-07-30T08:00:04.000Z</time>
</trkpt>
<trkpt lat="46.0438220" lon="10.3255510">
	<ele>1149.60</ele>
	<time>2025-07-30T08:00:05.000Z</time>
</trkpt>
<trkpt lat="46.0438140" lon="10.3255440">
	<ele>1149.40</ele>
	<time>2025-07-30T08:00:06.000Z</time>
</trkpt>
<trkpt lat="46.0437960" lon="10.3255350">
	<ele>1149.20</ele>
	<time>2025-07-30T08:00:07.000Z</time>
</trkpt>
<trkpt lat="46.0437800" lon="10.3255240">
	<ele>1149.00</ele>
	<time>2025-07-30T08:00:08.000Z</time>
</trkpt>
<trkpt lat="46.0437650" lon="10.3255140">
	<ele>1148.80</ele>
	<time>2025-07-30T08:00:09.000Z</time>
</trkpt>
<trkpt lat="46.0437620" lon="10.3255100">
	<ele>1148.60</ele>
	<time>2025-07-30T08:00:10.000Z</time>
</trkpt>
<trkpt lat="46.0437570" lon="10.3254880">
	<ele>1148.40</ele>
	<time>2025-07-30T08:00:11.000Z</time>
</trkpt>
<trkpt lat="46.0437600" lon="10.3254670">
	<ele>1148.20</ele>
	<time>2025-07-30T08:00:12.000Z</time>
</trkpt>
<trkpt lat="46.0437480" lon="10.3254470">
	<ele>1148.00</ele>
	<time>2025-07-30T08:00:13.000Z</time>
</trkpt>
<trkpt lat="46.0437350" lon="10.3254300">
	<ele>1148.00</ele>
	<time>2025-07-30T08:00:14.000Z</time>
</trkpt>
<trkpt lat="46.0437220" lon="10.3254120">
	<ele>1147.80</ele>
	<time>2025-07-30T08:00:15.000Z</time>
</trkpt>
<trkpt lat="46.0437130" lon="10.3253860">
	<ele>1147.80</ele>
	<time>2025-07-30T08:00:16.000Z</time>
</trkpt>
<trkpt lat="46.0437000" lon="10.3253570">
	<ele>1147.80</ele>
	<time>2025-07-30T08:00:17.000Z</time>
</trkpt>
<trkpt lat="46.0436830" lon="10.3253350">
	<ele>1147.80</ele>
	<time>2025-07-30T08:00:18.000Z</time>
</trkpt>
<trkpt lat="46.0436760" lon="10.3253110">
	<ele>1147.60</ele>
	<time>2025-07-30T08:00:19.000Z</time>
</trkpt>
<trkpt lat="46.0436630" lon="10.3252920">
	<ele>1147.60</ele>
	<time>2025-07-30T08:00:20.000Z</time>
</trkpt>
<trkpt lat="46.0436530" lon="10.3252670">
	<ele>1147.40</ele>
	<time>2025-07-30T08:00:21.000Z</time>
</trkpt>
<trkpt lat="46.0436500" lon="10.3252490">
	<ele>1147.20</ele>
	<time>2025-07-30T08:00:22.000Z</time>
</trkpt>
<trkpt lat="46.0436480" lon="10.3252340">
	<ele>1147.20</ele>
	<time>2025-07-30T08:00:23.000Z</time>
</trkpt>
<trkpt lat="46.0436420" lon="10.3252160">
	<ele>1147.00</ele>
	<time>2025-07-30T08:00:24.000Z</time>
</trkpt>
<trkpt lat="46.0436370" lon="10.3251970">
	<ele>1147.00</ele>
	<time>2025-07-30T08:00:25.000Z</time>
</trkpt>
<trkpt lat="46.0436200" lon="10.3251790">
	<ele>1146.60</ele>
	<time>2025-07-30T08:00:26.000Z</time>
</trkpt>
<trkpt lat="46.0436050" lon="10.3251600">
	<ele>1146.40</ele>
	<time>2025-07-30T08:00:27.000Z</time>
</trkpt>
<trkpt lat="46.0435970" lon="10.3251300">
	<ele>1146.40</ele>
	<time>2025-07-30T08:00:28.000Z</time>
</trkpt>
<trkpt lat="46.0435820" lon="10.3250980">
	<ele>1146.00</ele>
	<time>2025-07-30T08:00:29.000Z</time>
</trkpt>
<trkpt lat="46.0435700" lon="10.3250780">
	<ele>1146.00</ele>
	<time>2025-07-30T08:00:30.000Z</time>
</trkpt>
<trkpt lat="46.0435590" lon="10.3250570">
	<ele>1145.80</ele>
	<time>2025-07-30T08:00:31.000Z</time>
</trkpt>
<trkpt lat="46.0435520" lon="10.3250410">
	<ele>1145.80</ele>
	<time>2025-07-30T08:00:32.000Z</time>
</trkpt>
<trkpt lat="46.0435510" lon="10.3250220">
	<ele>1145.60</ele>
	<time>2025-07-30T08:00:33.000Z</time>
</trkpt>
<trkpt lat="46.0435600" lon="10.3250000">
	<ele>1145.60</ele>
	<time>2025-07-30T08:00:34.000Z</time>
</trkpt>
<trkpt lat="46.0435760" lon="10.3249850">
	<ele>1145.60</ele>
	<time>2025-07-30T08:00:35.000Z</time>
</trkpt>
<trkpt lat="46.0435870" lon="10.3249680">
	<ele>1145.40</ele>
	<time>2025-07-30T08:00:36.000Z</time>
</trkpt>
<trkpt lat="46.0435880" lon="10.3249480">
	<ele>1145.40</ele>
	<time>2025-07-30T08:00:37.000Z</time>
</trkpt>
<trkpt lat="46.0435840" lon="10.3249340">
	<ele>1145.20</ele>
	<time>2025-07-30T08:00:38.000Z</time>
</trkpt>
<trkpt lat="46.0435780" lon="10.3249210">
	<ele>1145.20</ele>
	<time>2025-07-30T08:00:39.000Z</time>
</trkpt>
<trkpt lat="46.0435740" lon="10.3249070">
	<ele>1145.20</ele>
	<time>2025-07-30T08:00:40.000Z</time>
</trkpt>
<trkpt lat="46.0435700" lon="10.3248930">
	<ele>1145.00</ele>
	<time>2025-07-30T08:00:41.000Z</time>
</trkpt>
<trkpt lat="46.0435680" lon="10.3248860">
	<ele>1144.80</ele>
	<time>2025-07-30T08:00:42.000Z</time>
</trkpt>
<trkpt lat="46.0435650" lon="10.3248740">
	<ele>1144.60</ele>
	<time>2025-07-30T08:00:43.000Z</time>
</trkpt>
<trkpt lat="46.0435630" lon="10.3248630">
	<ele>1144.60</ele>
	<time>2025-07-30T08:00:44.000Z</time>
</trkpt>
<trkpt lat="46.0435590" lon="10.3248560">
	<ele>1144.60</ele>
	<time>2025-07-30T08:00:45.000Z</time>
</trkpt>
<trkpt lat="46.0435520" lon="10.3248490">
	<ele>1144.00</ele>
	<time>2025-07-30T08:00:46.000Z</time>
</trkpt>
<trkpt lat="46.0435520" lon="10.3248440">
	<ele>1143.80</ele>
	<time>2025-07-30T08:00:47.000Z</time>
</trkpt>
<trkpt lat="46.0435410" lon="10.3248250">
	<ele>1143.40</ele>
	<time>2025-07-30T08:00:48.000Z</time>
</trkpt>
<trkpt lat="46.0435470" lon="10.3248050">
	<ele>1143.20</ele>
	<time>2025-07-30T08:00:49.000Z</time>
</trkpt>
<trkpt lat="46.0435470" lon="10.3247870">
	<ele>1142.80</ele>
	<time>2025-07-30T08:00:50.000Z</time>
</trkpt>
<trkpt lat="46.0435470" lon="10.3247730">
	<ele>1142.60</ele>
	<time>2025-07-30T08:00:51.000Z</time>
</trkpt>
<trkpt lat="46.0435450" lon="10.3247630">
	<ele>1142.40</ele>
	<time>2025-07-30T08:00:52.000Z</time>
</trkpt>
<trkpt lat="46.0435400" lon="10.3247470">
	<ele>1142.40</ele>
	<time>2025-07-30T08:00:53.000Z</time>
</trkpt>
<trkpt lat="46.0435360" lon="10.3247350">
	<ele>1142.00</ele>
	<time>2025-07-30T08:00:54.000Z</time>
</trkpt>
<trkpt lat="46.0435320" lon="10.3247210">
	<ele>1141.60</ele>
	<time>2025-07-30T08:00:55.000Z</time>
</trkpt>
<trkpt lat="46.0435290" lon="10.3247020">
	<ele>1141.40</ele>
	<time>2025-07-30T08:00:56.000Z</time>
</trkpt>
<trkpt lat="46.0435300" lon="10.3246820">
	<ele>1141.40</ele>
	<time>2025-07-30T08:00:57.000Z</time>
</trkpt>
<trkpt lat="46.0435290" lon="10.3246660">
	<ele>1141.00</ele>
	<time>2025-07-30T08:00:58.000Z</time>
</trkpt>
<trkpt lat="46.0435320" lon="10.3246520">
	<ele>1140.80</ele>
	<time>2025-07-30T08:00:59.000Z</time>
</trkpt>
<trkpt lat="46.0435280" lon="10.3246410">
	<ele>1140.80</ele>
	<time>2025-07-30T08:01:00.000Z</time>
</trkpt>
<trkpt lat="46.0435280" lon="10.3246340">
	<ele>1140.40</ele>
	<time>2025-07-30T08:01:01.000Z</time>
</trkpt>
<trkpt lat="46.0435220" lon="10.3246250">
	<ele>1140.20</ele>
	<time>2025-07-30T08:01:02.000Z</time>
</trkpt>
<trkpt lat="46.0435160" lon="10.3246160">
	<ele>1140.00</ele>
	<time>2025-07-30T08:01:03.000Z</time>
</trkpt>
<trkpt lat="46.0435080" lon="10.3246060">
	<ele>1139.80</ele>
	<time>2025-07-30T08:01:04.000Z</time>
</trkpt>
<trkpt lat="46.0434990" lon="10.3245920">
	<ele>1139.40</ele>
	<time>2025-07-30T08:01:05.000Z</time>
</trkpt>
<trkpt lat="46.0434970" lon="10.3245720">
	<ele>1139.20</ele>
	<time>2025-07-30T08:01:06.000Z</time>
</trkpt>
<trkpt lat="46.0434900" lon="10.3245540">
	<ele>1139.00</ele>
	<time>2025-07-30T08:01:07.000Z</time>
</trkpt>
<trkpt lat="46.0434850" lon="10.3245310">
	<ele>1138.80</ele>
	<time>2025-07-30T08:01:08.000Z</time>
</trkpt>
<trkpt lat="46.0434850" lon="10.3245170">
	<ele>1138.60</ele>
	<time>2025-07-30T08:01:09.000Z</time>
</trkpt>
<trkpt lat="46.0434840" lon="10.3245070">
	<ele>1138.20</ele>
	<time>2025-07-30T08:01:10.000Z</time>
</trkpt>
<trkpt lat="46.0434880" lon="10.3244930">
	<ele>1138.20</ele>
	<time>2025-07-30T08:01:11.000Z</time>
</trkpt>
<trkpt lat="46.0434870" lon="10.3244710">
	<ele>1137.80</ele>
	<time>2025-07-30T08:01:12.000Z</time>
</trkpt>
<trkpt lat="46.0434830" lon="10.3244460">
	<ele>1137.60</ele>
	<time>2025-07-30T08:01:13.000Z</time>
</trkpt>
<trkpt lat="46.0434860" lon="10.3244300">
	<ele>1137.40</ele>
	<time>2025-07-30T08:01:14.000Z</time>
</trkpt>
<trkpt lat="46.0434830" lon="10.3244240">
	<ele>1137.40</ele>
	<time>2025-07-30T08:01:15.000Z</time>
</trkpt>
<trkpt lat="46.0434770" lon="10.3244130">
	<ele>1137.20</ele>
	<time>2025-07-30T08:01:16.000Z</time>
</trkpt>
<trkpt lat="46.0434700" lon="10.3243990">
	<ele>1137.00</ele>
	<time>2025-07-30T08:01:17.000Z</time>
</trkpt>
<trkpt lat="46.0434660" lon="10.3243800">
	<ele>1136.80</ele>
	<time>2025-07-30T08:01:18.000Z</time>
</trkpt>
<trkpt lat="46.0434650" lon="10.3243730">
	<ele>1136.60</ele>
	<time>2025-07-30T08:01:19.000Z</time>
</trkpt>
<trkpt lat="46.0434610" lon="10.3243460">
	<ele>1136.20</ele>
	<time>2025-07-30T08:01:20.000Z</time>
</trkpt>
<trkpt lat="46.0434590" lon="10.3243390">
	<ele>1135.80</ele>
	<time>2025-07-30T08:01:21.000Z</time>
</trkpt>
<trkpt lat="46.0434630" lon="10.3243130">
	<ele>1135.60</ele>
	<time>2025-07-30T08:01:22.000Z</time>
</trkpt>
<trkpt lat="46.0434540" lon="10.3242920">
	<ele>1135.40</ele>
	<time>2025-07-30T08:01:23.000Z</time>
</trkpt>
<trkpt lat="46.0434560" lon="10.3242700">
	<ele>1135.20</ele>
	<time>2025-07-30T08:01:24.000Z</time>
</trkpt>
<trkpt lat="46.0434540" lon="10.3242530">
	<ele>1135.00</ele>
	<time>2025-07-30T08:01:25.000Z</time>
</trkpt>
<trkpt lat="46.0434550" lon="10.3242390">
	<ele>1134.80</ele>
	<time>2025-07-30T08:01:26.000Z</time>
</trkpt>
<trkpt lat="46.0434570" lon="10.3242260">
	<ele>1134.60</ele>
	<time>2025-07-30T08:01:27.000Z</time>
</trkpt>
<trkpt lat="46.0434620" lon="10.3242110">
	<ele>1134.60</ele>
	<time>2025-07-30T08:01:28.000Z</time>
</trkpt>
<trkpt lat="46.0434560" lon="10.3241890">
	<ele>1134.40</ele>
	<time>2025-07-30T08:01:29.000Z</time>
</trkpt>
<trkpt lat="46.0434490" lon="10.3241690">
	<ele>1134.20</ele>
	<time>2025-07-30T08:01:30.000Z</time>
</trkpt>
<trkpt lat="46.0434490" lon="10.3241490">
	<ele>1134.00</ele>
	<time>2025-07-30T08:01:31.000Z</time>
</trkpt>
<trkpt lat="46.0434510" lon="10.3241300">
	<ele>1133.60</ele>
	<time>2025-07-30T08:01:32.000Z</time>
</trkpt>
<trkpt lat="46.0434450" lon="10.3241090">
	<ele>1133.40</ele>
	<time>2025-07-30T08:01:33.000Z</time>
</trkpt>
<trkpt lat="46.0434480" lon="10.3240910">
	<ele>1133.20</ele>
	<time>2025-07-30T08:01:34.000Z</time>
</trkpt>
<trkpt lat="46.0434420" lon="10.3240750">
	<ele>1133.00</ele>
	<time>2025-07-30T08:01:35.000Z</time>
</trkpt>
<trkpt lat="46.0434340" lon="10.3240590">
	<ele>1132.80</ele>
	<time>2025-07-30T08:01:36.000Z</time>
</trkpt>
<trkpt lat="46.0434380" lon="10.3240390">
	<ele>1132.60</ele>
	<time>2025-07-30T08:01:37.000Z</time>
</trkpt>
<trkpt lat="46.0434380" lon="10.3240190">
	<ele>1132.40</ele>
	<time>2025-07-30T08:01:38.000Z</time>
</trkpt>
<trkpt lat="46.0434260" lon="10.3240000">
	<ele>1132.20</ele>
	<time>2025-07-30T08:01:39.000Z</time>
</trkpt>
<trkpt lat="46.0434280" lon="10.3239880">
	<ele>1132.00</ele>
	<time>2025-07-30T08:01:40.000Z</time>
</trkpt>
<trkpt lat="46.0434310" lon="10.3239730">
	<ele>1131.80</ele>
	<time>2025-07-30T08:01:41.000Z</time>
</trkpt>
<trkpt lat="46.0434330" lon="10.3239640">
	<ele>1131.60</ele>
	<time>2025-07-30T08:01:42.000Z</time>
</trkpt>
<trkpt lat="46.0434320" lon="10.3239600">
	<ele>1131.40</ele>
	<time>2025-07-30T08:01:43.000Z</time>
</trkpt>
<trkpt lat="46.0434280" lon="10.3239500">
	<ele>1131.40</ele>
	<time>2025-07-30T08:01:44.000Z</time>
</trkpt>
<trkpt lat="46.0434250" lon="10.3239310">
	<ele>1131.20</ele>
	<time>2025-07-30T08:01:45.000Z</time>
</trkpt>
<trkpt lat="46.0434220" lon="10.3239110">
	<ele>1131.00</ele>
	<time>2025-07-30T08:01:46.000Z</time>
</trkpt>
<trkpt lat="46.0434180" lon="10.3238920">
	<ele>1131.00</ele>
	<time>2025-07-30T08:01:47.000Z</time>
</trkpt>
<trkpt lat="46.0434180" lon="10.3238720">
	<ele>1130.80</ele>
	<time>2025-07-30T08:01:48.000Z</time>
</trkpt>
<trkpt lat="46.0434210" lon="10.3238510">
	<ele>1130.60</ele>
	<time>2025-07-30T08:01:49.000Z</time>
</trkpt>
<trkpt lat="46.0434350" lon="10.3238210">
	<ele>1130.40</ele>
	<time>2025-07-30T08:01:50.000Z</time>
</trkpt>
<trkpt lat="46.0434480" lon="10.3238090">
	<ele>1130.40</ele>
	<time>2025-07-30T08:01:51.000Z</time>
</trkpt>
<trkpt lat="46.0434480" lon="10.3238020">
	<ele>1130.20</ele>
	<time>2025-07-30T08:01:52.000Z</time>
</trkpt>
<trkpt lat="46.0434480" lon="10.3237940">
	<ele>1130.20</ele>
	<time>2025-07-30T08:01:53.000Z</time>
</trkpt>
<trkpt lat="46.0434500" lon="10.3237840">
	<ele>1130.00</ele>
	<time>2025-07-30T08:01:54.000Z</time>
</trkpt>
<trkpt lat="46.0434470" lon="10.3237700">
	<ele>1129.60</ele>
	<time>2025-07-30T08:01:55.000Z</time>
</trkpt>
<trkpt lat="46.0434410" lon="10.3237530">
	<ele>1129.40</ele>
	<time>2025-07-30T08:01:56.000Z</time>
</trkpt>
<trkpt lat="46.0434340" lon="10.3237350">
	<ele>1129.00</ele>
	<time>2025-07-30T08:01:57.000Z</time>
</trkpt>
<trkpt lat="46.0434320" lon="10.3237230">
	<ele>1128.60</ele>
	<time>2025-07-30T08:01:58.000Z</time>
</trkpt>
<trkpt lat="46.0434300" lon="10.3237100">
	<ele>1128.40</ele>
	<time>2025-07-30T08:01:59.000Z</time>
</trkpt>
<trkpt lat="46.0434200" lon="10.3236980">
	<ele>1128.20</ele>
	<time>2025-07-30T08:02:00.000Z</time>
</trkpt>
<trkpt lat="46.0434160" lon="10.3236840">
	<ele>1127.80</ele>
	<time>2025-07-30T08:02:01.000Z</time>
</trkpt>
<trkpt lat="46.0434070" lon="10.3236730">
	<ele>1127.60</ele>
	<time>2025-07-30T08:02:02.000Z</time>
</trkpt>
<trkpt lat="46.0433980" lon="10.3236620">
	<ele>1127.40</ele>
	<time>2025-07-30T08:02:03.000Z</time>
</trkpt>
<trkpt lat="46.0433920" lon="10.3236500">
	<ele>1127.20</ele>
	<time>2025-07-30T08:02:04.000Z</time>
</trkpt>
<trkpt lat="46.0433850" lon="10.3236370">
	<ele>1127.00</ele>
	<time>2025-07-30T08:02:05.000Z</time>
</trkpt>
<trkpt lat="46.0433810" lon="10.3236260">
	<ele>1126.80</ele>
	<time>2025-07-30T08:02:06.000Z</time>
</trkpt>
<trkpt lat="46.0433740" lon="10.3236140">
	<ele>1126.40</ele>
	<time>2025-07-30T08:02:07.000Z</time>
</trkpt>
<trkpt lat="46.0433620" lon="10.3236030">
	<ele>1126.20</ele>
	<time>2025-07-30T08:02:08.000Z</time>
</trkpt>
<trkpt lat="46.0433550" lon="10.3235910">
	<ele>1125.80</ele>
	<time>2025-07-30T08:02:09.000Z</time>
</trkpt>
<trkpt lat="46.0433580" lon="10.3235840">
	<ele>1125.60</ele>
	<time>2025-07-30T08:02:10.000Z</time>
</trkpt>
<trkpt lat="46.0433580" lon="10.3235710">
	<ele>1125.40</ele>
	<time>2025-07-30T08:02:11.000Z</time>
</trkpt>
<trkpt lat="46.0433590" lon="10.3235660">
	<ele>1125.20</ele>
	<time>2025-07-30T08:02:12.000Z</time>
</trkpt>
<trkpt lat="46.0433540" lon="10.3235510">
	<ele>1125.00</ele>
	<time>2025-07-30T08:02:13.000Z</time>
</trkpt>
<trkpt lat="46.0433520" lon="10.3235290">
	<ele>1124.80</ele>
	<time>2025-07-30T08:02:14.000Z</time>
</trkpt>
<trkpt lat="46.0433470" lon="10.3235040">
	<ele>1124.60</ele>
	<time>2025-07-30T08:02:15.000Z</time>
</trkpt>
<trkpt lat="46.0433450" lon="10.3234820">
	<ele>1124.20</ele>
	<time>2025-07-30T08:02:16.000Z</time>
</trkpt>
<trkpt lat="46.0433460" lon="10.3234680">
	<ele>1124.00</ele>
	<time>2025-07-30T08:02:17.000Z</time>
</trkpt>
<trkpt lat="46.0433440" lon="10.3234510">
	<ele>1123.60</ele>
	<time>2025-07-30T08:02:18.000Z</time>
</trkpt>
<trkpt lat="46.0433450" lon="10.3234350">
	<ele>1123.40</ele>
	<time>2025-07-30T08:02:19.000Z</time>
</trkpt>
<trkpt lat="46.0433520" lon="10.3234220">
	<ele>1123.20</ele>
	<time>2025-07-30T08:02:20.000Z</time>
</trkpt>
<trkpt lat="46.0433580" lon="10.3234110">
	<ele>1123.00</ele>
	<time>2025-07-30T08:02:21.000Z</time>
</trkpt>
<trkpt lat="46.0433690" lon="10.3234030">
	<ele>1122.80</ele>
	<time>2025-07-30T08:02:22.000Z</time>
</trkpt>
<trkpt lat="46.0433670" lon="10.3233850">
	<ele>1122.60</ele>
	<time>2025-07-30T08:02:23.000Z</time>
</trkpt>
<trkpt lat="46.0433680" lon="10.3233720">
	<ele>1122.40</ele>
	<time>2025-07-30T08:02:24.000Z</time>
</trkpt>
<trkpt lat="46.0433730" lon="10.3233620">
	<ele>1122.40</ele>
	<time>2025-07-30T08:02:25.000Z</time>
</trkpt>
<trkpt lat="46.0433800" lon="10.3233430">
	<ele>1122.20</ele>
	<time>2025-07-30T08:02:26.000Z</time>
</trkpt>
<trkpt lat="46.0433860" lon="10.3233260">
	<ele>1121.80</ele>
	<time>2025-07-30T08:02:27.000Z</time>
</trkpt>
<trkpt lat="46.0433920" lon="10.3233080">
	<ele>1121.60</ele>
	<time>2025-07-30T08:02:28.000Z</time>
</trkpt>
<trkpt lat="46.0433930" lon="10.3232910">
	<ele>1121.20</ele>
	<time>2025-07-30T08:02:29.000Z</time>
</trkpt>
<trkpt lat="46.0433970" lon="10.3232720">
	<ele>1121.00</ele>
	<time>2025-07-30T08:02:30.000Z</time>
</trkpt>
<trkpt lat="46.0433990" lon="10.3232560">
	<ele>1120.80</ele>
	<time>2025-07-30T08:02:31.000Z</time>
</trkpt>
<trkpt lat="46.0433970" lon="10.3232390">
	<ele>1120.40</ele>
	<time>2025-07-30T08:02:32.000Z</time>
</trkpt>
<trkpt lat="46.0433990" lon="10.3232300">
	<ele>1120.20</ele>
	<time>2025-07-30T08:02:33.000Z</time>
</trkpt>
<trkpt lat="46.0433800" lon="10.3232150">
	<ele>1119.80</ele>
	<time>2025-07-30T08:02:34.000Z</time>
</trkpt>
<trkpt lat="46.0433530" lon="10.3232010">
	<ele>1119.60</ele>
	<time>2025-07-30T08:02:35.000Z</time>
</trkpt>
<trkpt lat="46.0433410" lon="10.3231800">
	<ele>1119.20</ele>
	<time>2025-07-30T08:02:36.000Z</time>
</trkpt>
<trkpt lat="46.0433340" lon="10.3231560">
	<ele>1119.00</ele>
	<time>2025-07-30T08:02:37.000Z</time>
</trkpt>
<trkpt lat="46.0433220" lon="10.3231350">
	<ele>1118.60</ele>
	<time>2025-07-30T08:02:38.000Z</time>
</trkpt>
<trkpt lat="46.0433120" lon="10.3231240">
	<ele>1118.40</ele>
	<time>2025-07-30T08:02:39.000Z</time>
</trkpt>
<trkpt lat="46.0433060" lon="10.3231110">
	<ele>1118.00</ele>
	<time>2025-07-30T08:02:40.000Z</time>
</trkpt>
<trkpt lat="46.0433000" lon="10.3231050">
	<ele>1117.80</ele>
	<time>2025-07-30T08:02:41.000Z</time>
</trkpt>
<trkpt lat="46.0432860" lon="10.3230950">
	<ele>1117.40</ele>
	<time>2025-07-30T08:02:42.000Z</time>
</trkpt>
<trkpt lat="46.0432750" lon="10.3230890">
	<ele>1117.20</ele>
	<time>2025-07-30T08:02:43.000Z</time>
</trkpt>
<trkpt lat="46.0432580" lon="10.3230820">
	<ele>1116.80</ele>
	<time>2025-07-30T08:02:44.000Z</time>
</trkpt>
<trkpt lat="46.0432470" lon="10.3230940">
	<ele>1116.40</ele>
	<time>2025-07-30T08:02:45.000Z</time>
</trkpt>
<trkpt lat="46.0432440" lon="10.3231160">
	<ele>1116.20</ele>
	<time>2025-07-30T08:02:46.000Z</time>
</trkpt>
<trkpt lat="46.0432570" lon="10.3231460">
	<ele>1115.80</ele>
	<time>2025-07-30T08:02:47.000Z</time>
</trkpt>
<trkpt lat="46.0432480" lon="10.3231650">
	<ele>1115.60</ele>
	<time>2025-07-30T08:02:48.000Z</time>
</trkpt>
<trkpt lat="46.0432460" lon="10.3231800">
	<ele>1115.60</ele>
	<time>2025-07-30T08:02:49.000Z</time>
</trkpt>
<trkpt lat="46.0432390" lon="10.3231890">
	<ele>1115.20</ele>
	<time>2025-07-30T08:02:50.000Z</time>
</trkpt>
<trkpt lat="46.0432290" lon="10.3231920">
	<ele>1115.00</ele>
	<time>2025-07-30T08:02:51.000Z</time>
</trkpt>
<trkpt lat="46.0432220" lon="10.3232010">
	<ele>1114.80</ele>
	<time>2025-07-30T08:02:52.000Z</time>
</trkpt>
<trkpt lat="46.0432150" lon="10.3232080">
	<ele>1114.60</ele>
	<time>2025-07-30T08:02:53.000Z</time>
</trkpt>
<trkpt lat="46.0432060" lon="10.3232230">
	<ele>1114.20</ele>
	<time>2025-07-30T08:02:54.000Z</time>
</trkpt>
<trkpt lat="46.0431950" lon="10.3232390">
	<ele>1113.80</ele>
	<time>2025-07-30T08:02:55.000Z</time>
</trkpt>
<trkpt lat="46.0431860" lon="10.3232550">
	<ele>1113.60</ele>
	<time>2025-07-30T08:02:56.000Z</time>
</trkpt>
<trkpt lat="46.0431770" lon="10.3232670">
	<ele>1113.40</ele>
	<time>2025-07-30T08:02:57.000Z</time>
</trkpt>
<trkpt lat="46.0431720" lon="10.3232790">
	<ele>1113.20</ele>
	<time>2025-07-30T08:02:58.000Z</time>
</trkpt>
<trkpt lat="46.0431680" lon="10.3232890">
	<ele>1113.00</ele>
	<time>2025-07-30T08:02:59.000Z</time>
</trkpt>
<trkpt lat="46.0431580" lon="10.3232930">
	<ele>1112.60</ele>
	<time>2025-07-30T08:03:00.000Z</time>
</trkpt>
<trkpt lat="46.0431460" lon="10.3232980">
	<ele>1112.40</ele>
	<time>2025-07-30T08:03:01.000Z</time>
</trkpt>
<trkpt lat="46.0431320" lon="10.3233040">
	<ele>1112.20</ele>
	<time>2025-07-30T08:03:02.000Z</time>
</trkpt>
<trkpt lat="46.0431230" lon="10.3233140">
	<ele>1112.00</ele>
	<time>2025-07-30T08:03:03.000Z</time>
</trkpt>
<trkpt lat="46.0431200" lon="10.3233300">
	<ele>1111.80</ele>
	<time>2025-07-30T08:03:04.000Z</time>
</trkpt>
<trkpt lat="46.0431150" lon="10.3233420">
	<ele>1111.60</ele>
	<time>2025-07-30T08:03:05.000Z</time>
</trkpt>
<trkpt lat="46.0431090" lon="10.3233540">
	<ele>1111.40</ele>
	<time>2025-07-30T08:03:06.000Z</time>
</trkpt>
<trkpt lat="46.0431070" lon="10.3233750">
	<ele>1111.20</ele>
	<time>2025-07-30T08:03:07.000Z</time>
</trkpt>
<trkpt lat="46.0431000" lon="10.3233990">
	<ele>1111.00</ele>
	<time>2025-07-30T08:03:08.000Z</time>
</trkpt>
<trkpt lat="46.0430980" lon="10.3234210">
	<ele>1110.60</ele>
	<time>2025-07-30T08:03:09.000Z</time>
</trkpt>
<trkpt lat="46.0431030" lon="10.3234400">
	<ele>1110.20</ele>
	<time>2025-07-30T08:03:10.000Z</time>
</trkpt>
<trkpt lat="46.0431070" lon="10.3234570">
	<ele>1110.00</ele>
	<time>2025-07-30T08:03:11.000Z</time>
</trkpt>
<trkpt lat="46.0431070" lon="10.3234710">
	<ele>1109.60</ele>
	<time>2025-07-30T08:03:12.000Z</time>
</trkpt>
<trkpt lat="46.0431060" lon="10.3234850">
	<ele>1109.40</ele>
	<time>2025-07-30T08:03:13.000Z</time>
</trkpt>
<trkpt lat="46.0431040" lon="10.3235000">
	<ele>1109.20</ele>
	<time>2025-07-30T08:03:14.000Z</time>
</trkpt>
<trkpt lat="46.0431000" lon="10.3235130">
	<ele>1109.00</ele>
	<time>2025-07-30T08:03:15.000Z</time>
</trkpt>
<trkpt lat="46.0430940" lon="10.3235210">
	<ele>1108.80</ele>
	<time>2025-07-30T08:03:16.000Z</time>
</trkpt>
<trkpt lat="46.0430880" lon="10.3235310">
	<ele>1108.60</ele>
	<time>2025-07-30T08:03:17.000Z</time>
</trkpt>
<trkpt lat="46.0430820" lon="10.3235430">
	<ele>1108.40</ele>
	<time>2025-07-30T08:03:18.000Z</time>
</trkpt>
<trkpt lat="46.0430710" lon="10.3235530">
	<ele>1108.40</ele>
	<time>2025-07-30T08:03:19.000Z</time>
</trkpt>
<trkpt lat="46.0430570" lon="10.3235630">
	<ele>1108.20</ele>
	<time>2025-07-30T08:03:20.000Z</time>
</trkpt>
<trkpt lat="46.0430460" lon="10.3235740">
	<ele>1108.20</ele>
	<time>2025-07-30T08:03:21.000Z</time>
</trkpt>
<trkpt lat="46.0430400" lon="10.3235900">
	<ele>1108.00</ele>
	<time>2025-07-30T08:03:22.000Z</time>
</trkpt>
<trkpt lat="46.0430450" lon="10.3236080">
	<ele>1107.80</ele>
	<time>2025-07-30T08:03:23.000Z</time>
</trkpt>
<trkpt lat="46.0430380" lon="10.3236270">
	<ele>1107.60</ele>
	<time>2025-07-30T08:03:24.000Z</time>
</trkpt>
<trkpt lat="46.0430310" lon="10.3236430">
	<ele>1107.40</ele>
	<time>2025-07-30T08:03:25.000Z</time>
</trkpt>
<trkpt lat="46.0430270" lon="10.3236560">
	<ele>1107.20</ele>
	<time>2025-07-30T08:03:26.000Z</time>
</trkpt>
<trkpt lat="46.0430230" lon="10.3236710">
	<ele>1107.00</ele>
	<time>2025-07-30T08:03:27.000Z</time>
</trkpt>
<trkpt lat="46.0430230" lon="10.3236840">
	<ele>1106.80</ele>
	<time>2025-07-30T08:03:28.000Z</time>
</trkpt>
<trkpt lat="46.0430180" lon="10.3236980">
	<ele>1106.40</ele>
	<time>2025-07-30T08:03:29.000Z</time>
</trkpt>
<trkpt lat="46.0430120" lon="10.3237120">
	<ele>1106.20</ele>
	<time>2025-07-30T08:03:30.000Z</time>
</trkpt>
<trkpt lat="46.0430070" lon="10.3237260">
	<ele>1105.80</ele>
	<time>2025-07-30T08:03:31.000Z</time>
</trkpt>
<trkpt lat="46.0430110" lon="10.3237320">
	<ele>1105.40</ele>
	<time>2025-07-30T08:03:32.000Z</time>
</trkpt>
<trkpt lat="46.0430100" lon="10.3237340">
	<ele>1105.20</ele>
	<time>2025-07-30T08:03:33.000Z</time>
</trkpt>
<trkpt lat="46.0430000" lon="10.3237370">
	<ele>1105.00</ele>
	<time>2025-07-30T08:03:34.000Z</time>
</trkpt>
<trkpt lat="46.0429920" lon="10.3237410">
	<ele>1104.80</ele>
	<time>2025-07-30T08:03:35.000Z</time>
</trkpt>
<trkpt lat="46.0429870" lon="10.3237450">
	<ele>1104.40</ele>
	<time>2025-07-30T08:03:36.000Z</time>
</trkpt>
<trkpt lat="46.0429820" lon="10.3237600">
	<ele>1104.00</ele>
	<time>2025-07-30T08:03:37.000Z</time>
</trkpt>
<trkpt lat="46.0429760" lon="10.3237680">
	<ele>1103.80</ele>
	<time>2025-07-30T08:03:38.000Z</time>
</trkpt>
<trkpt lat="46.0429690" lon="10.3237730">
	<ele>1103.40</ele>
	<time>2025-07-30T08:03:39.000Z</time>
</trkpt>
<trkpt lat="46.0429650" lon="10.3237800">
	<ele>1103.20</ele>
	<time>2025-07-30T08:03:40.000Z</time>
</trkpt>
<trkpt lat="46.0429610" lon="10.3237930">
	<ele>1103.00</ele>
	<time>2025-07-30T08:03:41.000Z</time>
</trkpt>
<trkpt lat="46.0429550" lon="10.3238050">
	<ele>1102.80</ele>
	<time>2025-07-30T08:03:42.000Z</time>
</trkpt>
<trkpt lat="46.0429450" lon="10.3238180">
	<ele>1102.40</ele>
	<time>2025-07-30T08:03:43.000Z</time>
</trkpt>
<trkpt lat="46.0429370" lon="10.3238320">
	<ele>1102.20</ele>
	<time>2025-07-30T08:03:44.000Z</time>
</trkpt>
<trkpt lat="46.0429320" lon="10.3238420">
	<ele>1102.00</ele>
	<time>2025-07-30T08:03:45.000Z</time>
</trkpt>
<trkpt lat="46.0429280" lon="10.3238560">
	<ele>1101.80</ele>
	<time>2025-07-30T08:03:46.000Z</time>
</trkpt>
<trkpt lat="46.0429220" lon="10.3238700">
	<ele>1101.60</ele>
	<time>2025-07-30T08:03:47.000Z</time>
</trkpt>
<trkpt lat="46.0429140" lon="10.3238820">
	<ele>1101.40</ele>
	<time>2025-07-30T08:03:48.000Z</time>
</trkpt>
<trkpt lat="46.0429100" lon="10.3238950">
	<ele>1101.20</ele>
	<time>2025-07-30T08:03:49.000Z</time>
</trkpt>
<trkpt lat="46.0429130" lon="10.3239160">
	<ele>1100.80</ele>
	<time>2025-07-30T08:03:50.000Z</time>
</trkpt>
<trkpt lat="46.0429250" lon="10.3239390">
	<ele>1100.60</ele>
	<time>2025-07-30T08:03:51.000Z</time>
</trkpt>
<trkpt lat="46.0429190" lon="10.3239550">
	<ele>1100.40</ele>
	<time>2025-07-30T08:03:52.000Z</time>
</trkpt>
<trkpt lat="46.0429120" lon="10.3239640">
	<ele>1100.00</ele>
	<time>2025-07-30T08:03:53.000Z</time>
</trkpt>
<trkpt lat="46.0429110" lon="10.3239670">
	<ele>1099.60</ele>
	<time>2025-07-30T08:03:54.000Z</time>
</trkpt>
<trkpt lat="46.0428950" lon="10.3239810">
	<ele>1099.40</ele>
	<time>2025-07-30T08:03:55.000Z</time>
</trkpt>
<trkpt lat="46.0428810" lon="10.3239890">
	<ele>1099.20</ele>
	<time>2025-07-30T08:03:56.000Z</time>
</trkpt>
<trkpt lat="46.0428690" lon="10.3240010">
	<ele>1099.00</ele>
	<time>2025-07-30T08:03:57.000Z</time>
</trkpt>
<trkpt lat="46.0428580" lon="10.3240150">
	<ele>1098.80</ele>
	<time>2025-07-30T08:03:58.000Z</time>
</trkpt>
<trkpt lat="46.0428500" lon="10.3240320">
	<ele>1098.40</ele>
	<time>2025-07-30T08:03:59.000Z</time>
</trkpt>
<trkpt lat="46.0428250" lon="10.3240460">
	<ele>1098.20</ele>
	<time>2025-07-30T08:04:00.000Z</time>
</trkpt>
<trkpt lat="46.0428160" lon="10.3240590">
	<ele>1098.00</ele>
	<time>2025-07-30T08:04:01.000Z</time>
</trkpt>
<trkpt lat="46.0428140" lon="10.3240750">
	<ele>1097.80</ele>
	<time>2025-07-30T08:04:02.000Z</time>
</trkpt>
<trkpt lat="46.0428100" lon="10.3240890">
	<ele>1097.60</ele>
	<time>2025-07-30T08:04:03.000Z</time>
</trkpt>
<trkpt lat="46.0428040" lon="10.3241050">
	<ele>1097.40</ele>
	<time>2025-07-30T08:04:04.000Z</time>
</trkpt>
<trkpt lat="46.0428040" lon="10.3241210">
	<ele>1097.00</ele>
	<time>2025-07-30T08:04:05.000Z</time>
</trkpt>
<trkpt lat="46.0427980" lon="10.3241420">
	<ele>1096.60</ele>
	<time>2025-07-30T08:04:06.000Z</time>
</trkpt>
<trkpt lat="46.0427920" lon="10.3241600">
	<ele>1096.40</ele>
	<time>2025-07-30T08:04:07.000Z</time>
</trkpt>
<trkpt lat="46.0427830" lon="10.3241810">
	<ele>1096.20</ele>
	<time>2025-07-30T08:04:08.000Z</time>
</trkpt>
<trkpt lat="46.0427720" lon="10.3241980">
	<ele>1096.00</ele>
	<time>2025-07-30T08:04:09.000Z</time>
</trkpt>
<trkpt lat="46.0427690" lon="10.3242120">
	<ele>1095.80</ele>
	<time>2025-07-30T08:04:10.000Z</time>
</trkpt>
<trkpt lat="46.0427670" lon="10.3242330">
	<ele>1095.40</ele>
	<time>2025-07-30T08:04:11.000Z</time>
</trkpt>
<trkpt lat="46.0427670" lon="10.3242510">
	<ele>1095.20</ele>
	<time>2025-07-30T08:04:12.000Z</time>
</trkpt>
<trkpt lat="46.0427730" lon="10.3242610">
	<ele>1094.80</ele>
	<time>2025-07-30T08:04:13.000Z</time>
</trkpt>
<trkpt lat="46.0427750" lon="10.3242780">
	<ele>1094.60</ele>
	<time>2025-07-30T08:04:14.000Z</time>
</trkpt>
<trkpt lat="46.0427680" lon="10.3242880">
	<ele>1094.40</ele>
	<time>2025-07-30T08:04:15.000Z</time>
</trkpt>
<trkpt lat="46.0427610" lon="10.3242950">
	<ele>1094.00</ele>
	<time>2025-07-30T08:04:16.000Z</time>
</trkpt>
<trkpt lat="46.0427580" lon="10.3243090">
	<ele>1093.80</ele>
	<time>2025-07-30T08:04:17.000Z</time>
</trkpt>
<trkpt lat="46.0427500" lon="10.3243200">
	<ele>1093.60</ele>
	<time>2025-07-30T08:04:18.000Z</time>
</trkpt>
<trkpt lat="46.0427430" lon="10.3243270">
	<ele>1093.40</ele>
	<time>2025-07-30T08:04:19.000Z</time>
</trkpt>
<trkpt lat="46.0427390" lon="10.3243400">
	<ele>1093.00</ele>
	<time>2025-07-30T08:04:20.000Z</time>
</trkpt>
<trkpt lat="46.0427290" lon="10.3243590">
	<ele>1092.80</ele>
	<time>2025-07-30T08:04:21.000Z</time>
</trkpt>
<trkpt lat="46.0427210" lon="10.3243820">
	<ele>1092.60</ele>
	<time>2025-07-30T08:04:22.000Z</time>
</trkpt>
<trkpt lat="46.0427030" lon="10.3243950">
	<ele>1092.40</ele>
	<time>2025-07-30T08:04:23.000Z</time>
</trkpt>
<trkpt lat="46.0426960" lon="10.3244150">
	<ele>1092.20</ele>
	<time>2025-07-30T08:04:24.000Z</time>
</trkpt>
<trkpt lat="46.0426950" lon="10.3244360">
	<ele>1092.20</ele>
	<time>2025-07-30T08:04:25.000Z</time>
</trkpt>
<trkpt lat="46.0426940" lon="10.3244460">
	<ele>1092.00</ele>
	<time>2025-07-30T08:04:26.000Z</time>
</trkpt>
<trkpt lat="46.0426970" lon="10.3244610">
	<ele>1091.80</ele>
	<time>2025-07-30T08:04:27.000Z</time>
</trkpt>
<trkpt lat="46.0426950" lon="10.3244780">
	<ele>1091.80</ele>
	<time>2025-07-30T08:04:28.000Z</time>
</trkpt>
<trkpt lat="46.0426860" lon="10.3244990">
	<ele>1091.60</ele>
	<time>2025-07-30T08:04:29.000Z</time>
</trkpt>
<trkpt lat="46.0426720" lon="10.3245210">
	<ele>1091.40</ele>
	<time>2025-07-30T08:04:30.000Z</time>
</trkpt>
<trkpt lat="46.0426730" lon="10.3245410">
	<ele>1091.20</ele>
	<time>2025-07-30T08:04:31.000Z</time>
</trkpt>
<trkpt lat="46.0426720" lon="10.3245560">
	<ele>1091.00</ele>
	<time>2025-07-30T08:04:32.000Z</time>
</trkpt>
<trkpt lat="46.0426760" lon="10.3245800">
	<ele>1091.00</ele>
	<time>2025-07-30T08:04:33.000Z</time>
</trkpt>
<trkpt lat="46.0426820" lon="10.3245990">
	<ele>1090.80</ele>
	<time>2025-07-30T08:04:34.000Z</time>
</trkpt>
<trkpt lat="46.0426880" lon="10.3246180">
	<ele>1090.60</ele>
	<time>2025-07-30T08:04:35.000Z</time>
</trkpt>
<trkpt lat="46.0426920" lon="10.3246210">
	<ele>1090.40</ele>
	<time>2025-07-30T08:04:36.000Z</time>
</trkpt>
<trkpt lat="46.0426940" lon="10.3246250">
	<ele>1090.00</ele>
	<time>2025-07-30T08:04:37.000Z</time>
</trkpt>
<trkpt lat="46.0426940" lon="10.3246400">
	<ele>1089.80</ele>
	<time>2025-07-30T08:04:38.000Z</time>
</trkpt>
<trkpt lat="46.0426930" lon="10.3246550">
	<ele>1089.60</ele>
	<time>2025-07-30T08:04:39.000Z</time>
</trkpt>
<trkpt lat="46.0426890" lon="10.3246660">
	<ele>1089.40</ele>
	<time>2025-07-30T08:04:40.000Z</time>
</trkpt>
<trkpt lat="46.0426850" lon="10.3246790">
	<ele>1089.20</ele>
	<time>2025-07-30T08:04:41.000Z</time>
</trkpt>
<trkpt lat="46.0426830" lon="10.3246940">
	<ele>1089.00</ele>
	<time>2025-07-30T08:04:42.000Z</time>
</trkpt>
<trkpt lat="46.0426790" lon="10.3247100">
	<ele>1088.60</ele>
	<time>2025-07-30T08:04:43.000Z</time>
</trkpt>
<trkpt lat="46.0426790" lon="10.3247230">
	<ele>1088.40</ele>
	<time>2025-07-30T08:04:44.000Z</time>
</trkpt>
<trkpt lat="46.0426810" lon="10.3247350">
	<ele>1088.20</ele>
	<time>2025-07-30T08:04:45.000Z</time>
</trkpt>
<trkpt lat="46.0426800" lon="10.3247480">
	<ele>1088.00</ele>
	<time>2025-07-30T08:04:46.000Z</time>
</trkpt>
<trkpt lat="46.0426770" lon="10.3247590">
	<ele>1087.80</ele>
	<time>2025-07-30T08:04:47.000Z</time>
</trkpt>
<trkpt lat="46.0426800" lon="10.3247760">
	<ele>1087.40</ele>
	<time>2025-07-30T08:04:48.000Z</time>
</trkpt>
<trkpt lat="46.0426760" lon="10.3247900">
	<ele>1087.20</ele>
	<time>2025-07-30T08:04:49.000Z</time>
</trkpt>
<trkpt lat="46.0426800" lon="10.3248010">
	<ele>1087.00</ele>
	<time>2025-07-30T08:04:50.000Z</time>
</trkpt>
<trkpt lat="46.0426860" lon="10.3248090">
	<ele>1086.80</ele>
	<time>2025-07-30T08:04:51.000Z</time>
</trkpt>
<trkpt lat="46.0426900" lon="10.3248160">
	<ele>1086.60</ele>
	<time>2025-07-30T08:04:52.000Z</time>
</trkpt>
<trkpt lat="46.0426920" lon="10.3248300">
	<ele>1086.20</ele>
	<time>2025-07-30T08:04:53.000Z</time>
</trkpt>
<trkpt lat="46.0426930" lon="10.3248450">
	<ele>1086.00</ele>
	<time>2025-07-30T08:04:54.000Z</time>
</trkpt>
<trkpt lat="46.0426910" lon="10.3248600">
	<ele>1085.80</ele>
	<time>2025-07-30T08:04:55.000Z</time>
</trkpt>
<trkpt lat="46.0426950" lon="10.3248750">
	<ele>1085.40</ele>
	<time>2025-07-30T08:04:56.000Z</time>
</trkpt>
<trkpt lat="46.0426920" lon="10.3248910">
	<ele>1085.20</ele>
	<time>2025-07-30T08:04:57.000Z</time>
</trkpt>
<trkpt lat="46.0426890" lon="10.3249090">
	<ele>1084.80</ele>
	<time>2025-07-30T08:04:58.000Z</time>
</trkpt>
<trkpt lat="46.0426860" lon="10.3249260">
	<ele>1084.60</ele>
	<time>2025-07-30T08:04:59.000Z</time>
</trkpt>
<trkpt lat="46.0426750" lon="10.3249500">
	<ele>1084.40</ele>
	<time>2025-07-30T08:05:00.000Z</time>
</trkpt>
<trkpt lat="46.0426760" lon="10.3249750">
	<ele>1084.20</ele>
	<time>2025-07-30T08:05:01.000Z</time>
</trkpt>
<trkpt lat="46.0426800" lon="10.3249960">
	<ele>1084.00</ele>
	<time>2025-07-30T08:05:02.000Z</time>
</trkpt>
<trkpt lat="46.0426840" lon="10.3250190">
	<ele>1083.80</ele>
	<time>2025-07-30T08:05:03.000Z</time>
</trkpt>
<trkpt lat="46.0426820" lon="10.3250370">
	<ele>1083.80</ele>
	<time>2025-07-30T08:05:04.000Z</time>
</trkpt>
<trkpt lat="46.0426880" lon="10.3250730">
	<ele>1083.60</ele>
	<time>2025-07-30T08:05:05.000Z</time>
</trkpt>
<trkpt lat="46.0426980" lon="10.3250900">
	<ele>1083.60</ele>
	<time>2025-07-30T08:05:06.000Z</time>
</trkpt>
<trkpt lat="46.0427050" lon="10.3251060">
	<ele>1083.40</ele>
	<time>2025-07-30T08:05:07.000Z</time>
</trkpt>
<trkpt lat="46.0427120" lon="10.3251280">
	<ele>1083.20</ele>
	<time>2025-07-30T08:05:08.000Z</time>
</trkpt>
<trkpt lat="46.0427120" lon="10.3251560">
	<ele>1083.00</ele>
	<time>2025-07-30T08:05:09.000Z</time>
</trkpt>
<trkpt lat="46.0427130" lon="10.3251760">
	<ele>1083.00</ele>
	<time>2025-07-30T08:05:10.000Z</time>
</trkpt>
<trkpt lat="46.0427170" lon="10.3251910">
	<ele>1082.80</ele>
	<time>2025-07-30T08:05:11.000Z</time>
</trkpt>
<trkpt lat="46.0427130" lon="10.3252170">
	<ele>1082.80</ele>
	<time>2025-07-30T08:05:12.000Z</time>
</trkpt>
<trkpt lat="46.0427200" lon="10.3252390">
	<ele>1082.60</ele>
	<time>2025-07-30T08:05:13.000Z</time>
</trkpt>
<trkpt lat="46.0427140" lon="10.3252560">
	<ele>1082.40</ele>
	<time>2025-07-30T08:05:14.000Z</time>
</trkpt>
<trkpt lat="46.0427180" lon="10.3252750">
	<ele>1082.40</ele>
	<time>2025-07-30T08:05:15.000Z</time>
</trkpt>
<trkpt lat="46.0427190" lon="10.3252880">
	<ele>1082.20</ele>
	<time>2025-07-30T08:05:16.000Z</time>
</trkpt>
<trkpt lat="46.0427220" lon="10.3253050">
	<ele>1082.00</ele>
	<time>2025-07-30T08:05:17.000Z</time>
</trkpt>
<trkpt lat="46.0427240" lon="10.3253180">
	<ele>1081.80</ele>
	<time>2025-07-30T08:05:18.000Z</time>
</trkpt>
<trkpt lat="46.0427280" lon="10.3253380">
	<ele>1081.80</ele>
	<time>2025-07-30T08:05:19.000Z</time>
</trkpt>
<trkpt lat="46.0427340" lon="10.3253560">
	<ele>1081.80</ele>
	<time>2025-07-30T08:05:20.000Z</time>
</trkpt>
<trkpt lat="46.0427380" lon="10.3253730">
	<ele>1081.80</ele>
	<time>2025-07-30T08:05:21.000Z</time>
</trkpt>
<trkpt lat="46.0427380" lon="10.3253920">
	<ele>1081.60</ele>
	<time>2025-07-30T08:05:22.000Z</time>
</trkpt>
<trkpt lat="46.0427400" lon="10.3254060">
	<ele>1081.60</ele>
	<time>2025-07-30T08:05:23.000Z</time>
</trkpt>
<trkpt lat="46.0427410" lon="10.3254230">
	<ele>1081.40</ele>
	<time>2025-07-30T08:05:24.000Z</time>
</trkpt>
<trkpt lat="46.0427350" lon="10.3254420">
	<ele>1081.40</ele>
	<time>2025-07-30T08:05:25.000Z</time>
</trkpt>
<trkpt lat="46.0427280" lon="10.3254600">
	<ele>1081.20</ele>
	<time>2025-07-30T08:05:26.000Z</time>
</trkpt>
<trkpt lat="46.0427270" lon="10.3254810">
	<ele>1081.20</ele>
	<time>2025-07-30T08:05:27.000Z</time>
</trkpt>
<trkpt lat="46.0427310" lon="10.3254960">
	<ele>1081.00</ele>
	<time>2025-07-30T08:05:28.000Z</time>
</trkpt>
<trkpt lat="46.0427300" lon="10.3255100">
	<ele>1080.80</ele>
	<time>2025-07-30T08:05:29.000Z</time>
</trkpt>
<trkpt lat="46.0427320" lon="10.3255280">
	<ele>1080.80</ele>
	<time>2025-07-30T08:05:30.000Z</time>
</trkpt>
<trkpt lat="46.0427320" lon="10.3255460">
	<ele>1080.60</ele>
	<time>2025-07-30T08:05:31.000Z</time>
</trkpt>
<trkpt lat="46.0427310" lon="10.3255650">
	<ele>1080.20</ele>
	<time>2025-07-30T08:05:32.000Z</time>
</trkpt>
<trkpt lat="46.0427290" lon="10.3255850">
	<ele>1079.80</ele>
	<time>2025-07-30T08:05:33.000Z</time>
</trkpt>
<trkpt lat="46.0427300" lon="10.3256020">
	<ele>1079.60</ele>
	<time>2025-07-30T08:05:34.000Z</time>
</trkpt>
<trkpt lat="46.0427330" lon="10.3256140">
	<ele>1079.40</ele>
	<time>2025-07-30T08:05:35.000Z</time>
</trkpt>
<trkpt lat="46.0427320" lon="10.3256250">
	<ele>1079.20</ele>
	<time>2025-07-30T08:05:36.000Z</time>
</trkpt>
<trkpt lat="46.0427380" lon="10.3256400">
	<ele>1079.00</ele>
	<time>2025-07-30T08:05:37.000Z</time>
</trkpt>
<trkpt lat="46.0427410" lon="10.3256540">
	<ele>1078.80</ele>
	<time>2025-07-30T08:05:38.000Z</time>
</trkpt>
<trkpt lat="46.0427430" lon="10.3256670">
	<ele>1078.60</ele>
	<time>2025-07-30T08:05:39.000Z</time>
</trkpt>
<trkpt lat="46.0427370" lon="10.3256830">
	<ele>1078.20</ele>
	<time>2025-07-30T08:05:40.000Z</time>
</trkpt>
<trkpt lat="46.0427410" lon="10.3257110">
	<ele>1078.00</ele>
	<time>2025-07-30T08:05:41.000Z</time>
</trkpt>
<trkpt lat="46.0427390" lon="10.3257320">
	<ele>1078.00</ele>
	<time>2025-07-30T08:05:42.000Z</time>
</trkpt>
<trkpt lat="46.0427410" lon="10.3257500">
	<ele>1077.80</ele>
	<time>2025-07-30T08:05:43.000Z</time>
</trkpt>
<trkpt lat="46.0427440" lon="10.3257700">
	<ele>1077.60</ele>
	<time>2025-07-30T08:05:44.000Z</time>
</trkpt>
<trkpt lat="46.0427470" lon="10.3257880">
	<ele>1077.40</ele>
	<time>2025-07-30T08:05:45.000Z</time>
</trkpt>
<trkpt lat="46.0427470" lon="10.3258060">
	<ele>1077.20</ele>
	<time>2025-07-30T08:05:46.000Z</time>
</trkpt>
<trkpt lat="46.0427470" lon="10.3258140">
	<ele>1077.00</ele>
	<time>2025-07-30T08:05:47.000Z</time>
</trkpt>
<trkpt lat="46.0427470" lon="10.3258230">
	<ele>1077.00</ele>
	<time>2025-07-30T08:05:48.000Z</time>
</trkpt>
<trkpt lat="46.0427510" lon="10.3258370">
	<ele>1076.80</ele>
	<time>2025-07-30T08:05:49.000Z</time>
</trkpt>
<trkpt lat="46.0427530" lon="10.3258440">
	<ele>1076.60</ele>
	<time>2025-07-30T08:05:50.000Z</time>
</trkpt>
<trkpt lat="46.0427520" lon="10.3258540">
	<ele>1076.60</ele>
	<time>2025-07-30T08:05:51.000Z</time>
</trkpt>
<trkpt lat="46.0427530" lon="10.3258690">
	<ele>1076.20</ele>
	<time>2025-07-30T08:05:52.000Z</time>
</trkpt>
<trkpt lat="46.0427510" lon="10.3258900">
	<ele>1075.80</ele>
	<time>2025-07-30T08:05:53.000Z</time>
</trkpt>
<trkpt lat="46.0427540" lon="10.3259060">
	<ele>1075.80</ele>
	<time>2025-07-30T08:05:54.000Z</time>
</trkpt>
<trkpt lat="46.0427610" lon="10.3259270">
	<ele>1075.60</ele>
	<time>2025-07-30T08:05:55.000Z</time>
</trkpt>
<trkpt lat="46.0427660" lon="10.3259470">
	<ele>1075.20</ele>
	<time>2025-07-30T08:05:56.000Z</time>
</trkpt>
<trkpt lat="46.0427670" lon="10.3259550">
	<ele>1075.00</ele>
	<time>2025-07-30T08:05:57.000Z</time>
</trkpt>
<trkpt lat="46.0427800" lon="10.3259750">
	<ele>1074.60</ele>
	<time>2025-07-30T08:05:58.000Z</time>
</trkpt>
<trkpt lat="46.0427930" lon="10.3259990">
	<ele>1074.40</ele>
	<time>2025-07-30T08:05:59.000Z</time>
</trkpt>
<trkpt lat="46.0427990" lon="10.3260260">
	<ele>1074.00</ele>
	<time>2025-07-30T08:06:00.000Z</time>
</trkpt>
<trkpt lat="46.0427890" lon="10.3260680">
	<ele>1074.00</ele>
	<time>2025-07-30T08:06:01.000Z</time>
</trkpt>
<trkpt lat="46.0427860" lon="10.3261000">
	<ele>1073.80</ele>
	<time>2025-07-30T08:06:02.000Z</time>
</trkpt>
<trkpt lat="46.0427830" lon="10.3261140">
	<ele>1073.80</ele>
	<time>2025-07-30T08:06:03.000Z</time>
</trkpt>
<trkpt lat="46.0427920" lon="10.3261340">
	<ele>1073.60</ele>
	<time>2025-07-30T08:06:04.000Z</time>
</trkpt>
<trkpt lat="46.0427960" lon="10.3261610">
	<ele>1073.60</ele>
	<time>2025-07-30T08:06:05.000Z</time>
</trkpt>
<trkpt lat="46.0428010" lon="10.3261770">
	<ele>1073.40</ele>
	<time>2025-07-30T08:06:06.000Z</time>
</trkpt>
<trkpt lat="46.0428050" lon="10.3261930">
	<ele>1073.20</ele>
	<time>2025-07-30T08:06:07.000Z</time>
</trkpt>
<trkpt lat="46.0428070" lon="10.3262040">
	<ele>1073.20</ele>
	<time>2025-07-30T08:06:08.000Z</time>
</trkpt>
<trkpt lat="46.0428050" lon="10.3262160">
	<ele>1073.00</ele>
	<time>2025-07-30T08:06:09.000Z</time>
</trkpt>
<trkpt lat="46.0427940" lon="10.3262370">
	<ele>1072.60</ele>
	<time>2025-07-30T08:06:10.000Z</time>
</trkpt>
<trkpt lat="46.0427950" lon="10.3262510">
	<ele>1072.40</ele>
	<time>2025-07-30T08:06:11.000Z</time>
</trkpt>
<trkpt lat="46.0427950" lon="10.3262640">
	<ele>1072.00</ele>
	<time>2025-07-30T08:06:12.000Z</time>
</trkpt>
<trkpt lat="46.0427900" lon="10.3262730">
	<ele>1071.80</ele>
	<time>2025-07-30T08:06:13.000Z</time>
</trkpt>
<trkpt lat="46.0427880" lon="10.3262840">
	<ele>1071.40</ele>
	<time>2025-07-30T08:06:14.000Z</time>
</trkpt>
<trkpt lat="46.0427820" lon="10.3263010">
	<ele>1071.00</ele>
	<time>2025-07-30T08:06:15.000Z</time>
</trkpt>
<trkpt lat="46.0427830" lon="10.3263110">
	<ele>1070.80</ele>
	<time>2025-07-30T08:06:16.000Z</time>
</trkpt>
<trkpt lat="46.0427850" lon="10.3263200">
	<ele>1070.40</ele>
	<time>2025-07-30T08:06:17.000Z</time>
</trkpt>
<trkpt lat="46.0427810" lon="10.3263280">
	<ele>1070.00</ele>
	<time>2025-07-30T08:06:18.000Z</time>
</trkpt>
<trkpt lat="46.0427790" lon="10.3263370">
	<ele>1069.60</ele>
	<time>2025-07-30T08:06:19.000Z</time>
</trkpt>
<trkpt lat="46.0427720" lon="10.3263440">
	<ele>1069.40</ele>
	<time>2025-07-30T08:06:20.000Z</time>
</trkpt>
<trkpt lat="46.0427640" lon="10.3263500">
	<ele>1069.00</ele>
	<time>2025-07-30T08:06:21.000Z</time>
</trkpt>
<trkpt lat="46.0427570" lon="10.3263610">
	<ele>1068.80</ele>
	<time>2025-07-30T08:06:22.000Z</time>
</trkpt>
<trkpt lat="46.0427430" lon="10.3263680">
	<ele>1068.60</ele>
	<time>2025-07-30T08:06:23.000Z</time>
</trkpt>
<trkpt lat="46.0427340" lon="10.3263790">
	<ele>1068.20</ele>
	<time>2025-07-30T08:06:24.000Z</time>
</trkpt>
<trkpt lat="46.0427290" lon="10.3263870">
	<ele>1068.00</ele>
	<time>2025-07-30T08:06:25.000Z</time>
</trkpt>
<trkpt lat="46.0427180" lon="10.3263980">
	<ele>1067.60</ele>
	<time>2025-07-30T08:06:26.000Z</time>
</trkpt>
<trkpt lat="46.0427120" lon="10.3264090">
	<ele>1067.40</ele>
	<time>2025-07-30T08:06:27.000Z</time>
</trkpt>
<trkpt lat="46.0427110" lon="10.3264150">
	<ele>1067.20</ele>
	<time>2025-07-30T08:06:28.000Z</time>
</trkpt>
<trkpt lat="46.0427160" lon="10.3264270">
	<ele>1067.00</ele>
	<time>2025-07-30T08:06:29.000Z</time>
</trkpt>
<trkpt lat="46.0427180" lon="10.3264340">
	<ele>1066.60</ele>
	<time>2025-07-30T08:06:30.000Z</time>
</trkpt>
<trkpt lat="46.0427150" lon="10.3264330">
	<ele>1066.40</ele>
	<time>2025-07-30T08:06:31.000Z</time>
</trkpt>
<trkpt lat="46.0427140" lon="10.3264370">
	<ele>1066.20</ele>
	<time>2025-07-30T08:06:32.000Z</time>
</trkpt>
<trkpt lat="46.0427070" lon="10.3264400">
	<ele>1066.00</ele>
	<time>2025-07-30T08:06:33.000Z</time>
</trkpt>
<trkpt lat="46.0427040" lon="10.3264520">
	<ele>1065.40</ele>
	<time>2025-07-30T08:06:34.000Z</time>
</trkpt>
<trkpt lat="46.0427010" lon="10.3264630">
	<ele>1065.20</ele>
	<time>2025-07-30T08:06:35.000Z</time>
</trkpt>
<trkpt lat="46.0426960" lon="10.3264840">
	<ele>1064.80</ele>
	<time>2025-07-30T08:06:36.000Z</time>
</trkpt>
<trkpt lat="46.0426910" lon="10.3265060">
	<ele>1064.60</ele>
	<time>2025-07-30T08:06:37.000Z</time>
</trkpt>
<trkpt lat="46.0426930" lon="10.3265270">
	<ele>1064.20</ele>
	<time>2025-07-30T08:06:38.000Z</time>
</trkpt>
<trkpt lat="46.0426940" lon="10.3265510">
	<ele>1064.00</ele>
	<time>2025-07-30T08:06:39.000Z</time>
</trkpt>
<trkpt lat="46.0426950" lon="10.3265700">
	<ele>1063.80</ele>
	<time>2025-07-30T08:06:40.000Z</time>
</trkpt>
<trkpt lat="46.0426960" lon="10.3265840">
	<ele>1063.60</ele>
	<time>2025-07-30T08:06:41.000Z</time>
</trkpt>
<trkpt lat="46.0426940" lon="10.3265960">
	<ele>1063.40</ele>
	<time>2025-07-30T08:06:42.000Z</time>
</trkpt>
<trkpt lat="46.0426940" lon="10.3266030">
	<ele>1063.20</ele>
	<time>2025-07-30T08:06:43.000Z</time>
</trkpt>
<trkpt lat="46.0426940" lon="10.3266100">
	<ele>1063.00</ele>
	<time>2025-07-30T08:06:44.000Z</time>
</trkpt>
<trkpt lat="46.0426950" lon="10.3266250">
	<ele>1062.60</ele>
	<time>2025-07-30T08:06:45.000Z</time>
</trkpt>
<trkpt lat="46.0426950" lon="10.3266440">
	<ele>1062.20</ele>
	<time>2025-07-30T08:06:46.000Z</time>
</trkpt>
<trkpt lat="46.0426970" lon="10.3266600">
	<ele>1062.00</ele>
	<time>2025-07-30T08:06:47.000Z</time>
</trkpt>
<trkpt lat="46.0427010" lon="10.3266700">
	<ele>1061.80</ele>
	<time>2025-07-30T08:06:48.000Z</time>
</trkpt>
<trkpt lat="46.0427060" lon="10.3266780">
	<ele>1061.60</ele>
	<time>2025-07-30T08:06:49.000Z</time>
</trkpt>
<trkpt lat="46.0427110" lon="10.3266840">
	<ele>1061.40</ele>
	<time>2025-07-30T08:06:50.000Z</time>
</trkpt>
<trkpt lat="46.0427130" lon="10.3266900">
	<ele>1061.20</ele>
	<time>2025-07-30T08:06:51.000Z</time>
</trkpt>
<trkpt lat="46.0427140" lon="10.3267010">
	<ele>1061.00</ele>
	<time>2025-07-30T08:06:52.000Z</time>
</trkpt>
<trkpt lat="46.0427160" lon="10.3267110">
	<ele>1061.00</ele>
	<time>2025-07-30T08:06:53.000Z</time>
</trkpt>
<trkpt lat="46.0427160" lon="10.3267120">
	<ele>1060.60</ele>
	<time>2025-07-30T08:06:54.000Z</time>
</trkpt>
<trkpt lat="46.0427130" lon="10.3267340">
	<ele>1060.40</ele>
	<time>2025-07-30T08:06:55.000Z</time>
</trkpt>
<trkpt lat="46.0427130" lon="10.3267310">
	<ele>1060.20</ele>
	<time>2025-07-30T08:06:56.000Z</time>
</trkpt>
<trkpt lat="46.0427130" lon="10.3267290">
	<ele>1060.20</ele>
	<time>2025-07-30T08:06:57.000Z</time>
</trkpt>
<trkpt lat="46.0427130" lon="10.3267280">
	<ele>1060.20</ele>
	<time>2025-07-30T08:06:58.000Z</time>
</trkpt>
<trkpt lat="46.0427140" lon="10.3267360">
	<ele>1060.00</ele>
	<time>2025-07-30T08:06:59.000Z</time>
</trkpt>
<trkpt lat="46.0427130" lon="10.3267350">
	<ele>1060.00</ele>
	<time>2025-07-30T08:07:00.000Z</time>
</trkpt>
<trkpt lat="46.0427120" lon="10.3267350">
	<ele>1060.00</ele>
	<time>2025-07-30T08:07:01.000Z</time>
</trkpt>
<trkpt lat="46.0427100" lon="10.3267350">
	<ele>1060.00</ele>
	<time>2025-07-30T08:07:02.000Z</time>
</trkpt>
<trkpt lat="46.0427110" lon="10.3267380">
	<ele>1060.00</ele>
	<time>2025-07-30T08:07:03.000Z</time>
</trkpt>
<trkpt lat="46.0427140" lon="10.3267440">
	<ele>1060.00</ele>
	<time>2025-07-30T08:07:04.000Z</time>
</trkpt>
<trkpt lat="46.0427140" lon="10.3267450">
	<ele>1060.00</ele>
	<time>2025-07-30T08:07:05.000Z</time>
</trkpt>
<trkpt lat="46.0427130" lon="10.3267470">
	<ele>1060.00</ele>
	<time>2025-07-30T08:07:06.000Z</time>
</trkpt>
<trkpt lat="46.0427110" lon="10.3267480">
	<ele>1060.00</ele>
	<time>2025-07-30T08:07:07.000Z</time>
</trkpt>
<trkpt lat="46.0427100" lon="10.3267500">
	<ele>1060.00</ele>
	<time>2025-07-30T08:07:08.000Z</time>
</trkpt>
<trkpt lat="46.0427100" lon="10.3267550">
	<ele>1060.20</ele>
	<time>2025-07-30T08:07:09.000Z</time>
</trkpt>
<trkpt lat="46.0427110" lon="10.3267560">
	<ele>1060.20</ele>
	<time>2025-07-30T08:07:10.000Z</time>
</trkpt>
<trkpt lat="46.0427110" lon="10.3267560">
	<ele>1060.20</ele>
	<time>2025-07-30T08:07:11.000Z</time>
</trkpt>
<trkpt lat="46.0427120" lon="10.3267540">
	<ele>1060.20</ele>
	<time>2025-07-30T08:07:12.000Z</time>
</trkpt>
<trkpt lat="46.0427110" lon="10.3267540">
	<ele>1060.20</ele>
	<time>2025-07-30T08:07:13.000Z</time>
</trkpt>
<trkpt lat="46.0427090" lon="10.3267540">
	<ele>1060.00</ele>
	<time>2025-07-30T08:07:14.000Z</time>
</trkpt>
<trkpt lat="46.0427080" lon="10.3267540">
	<ele>1060.00</ele>
	<time>2025-07-30T08:07:15.000Z</time>
</trkpt>
<trkpt lat="46.0427060" lon="10.3267530">
	<ele>1060.00</ele>
	<time>2025-07-30T08:07:16.000Z</time>
</trkpt>
<trkpt lat="46.0427060" lon="10.3267530">
	<ele>1060.00</ele>
	<time>2025-07-30T08:07:17.000Z</time>
</trkpt>
<trkpt lat="46.0427060" lon="10.3267530">
	<ele>1060.00</ele>
	<time>2025-07-30T08:07:18.000Z</time>
</trkpt>
<trkpt lat="46.0427060" lon="10.3267530">
	<ele>1060.20</ele>
	<time>2025-07-30T08:07:19.000Z</time>
</trkpt>
<trkpt lat="46.0427060" lon="10.3267530">
	<ele>1060.00</ele>
	<time>2025-07-30T08:07:20.000Z</time>
</trkpt>
<trkpt lat="46.0427060" lon="10.3267530">
	<ele>1060.00</ele>
	<time>2025-07-30T08:07:21.000Z</time>
</trkpt>
<trkpt lat="46.0427060" lon="10.3267530">
	<ele>1060.00</ele>
	<time>2025-07-30T08:07:22.000Z</time>
</trkpt>
<trkpt lat="46.0427060" lon="10.3267530">
	<ele>1060.00</ele>
	<time>2025-07-30T08:07:23.000Z</time>
</trkpt>
<trkpt lat="46.0427060" lon="10.3267530">
	<ele>1060.00</ele>
	<time>2025-07-30T08:07:24.000Z</time>
</trkpt>
<trkpt lat="46.0427060" lon="10.3267530">
	<ele>1060.00</ele>
	<time>2025-07-30T08:07:25.000Z</time>
</trkpt>
<trkpt lat="46.0427060" lon="10.3267530">
	<ele>1060.00</ele>
	<time>2025-07-30T08:07:26.000Z</time>
</trkpt>
<trkpt lat="46.0427060" lon="10.3267540">
	<ele>1060.00</ele>
	<time>2025-07-30T08:07:27.000Z</time>
</trkpt>
<trkpt lat="46.0427060" lon="10.3267540">
	<ele>1060.00</ele>
	<time>2025-07-30T08:07:28.000Z</time>
</trkpt>
<trkpt lat="46.0427060" lon="10.3267540">
	<ele>1060.00</ele>
	<time>2025-07-30T08:07:29.000Z</time>
</trkpt>
<trkpt lat="46.0427060" lon="10.3267540">
	<ele>1060.00</ele>
	<time>2025-07-30T08:07:30.000Z</time>
</trkpt>
<trkpt lat="46.0427060" lon="10.3267540">
	<ele>1060.00</ele>
	<time>2025-07-30T08:07:31.000Z</time>
</trkpt>
<trkpt lat="46.0427060" lon="10.3267550">
	<ele>1060.00</ele>
	<time>2025-07-30T08:07:32.000Z</time>
</trkpt>
<trkpt lat="46.0427060" lon="10.3267560">
	<ele>1060.00</ele>
	<time>2025-07-30T08:07:33.000Z</time>
</trkpt>
<trkpt lat="46.0427060" lon="10.3267560">
	<ele>1060.00</ele>
	<time>2025-07-30T08:07:34.000Z</time>
</trkpt>
<trkpt lat="46.0427050" lon="10.3267560">
	<ele>1060.20</ele>
	<time>2025-07-30T08:07:35.000Z</time>
</trkpt>
<trkpt lat="46.0427040" lon="10.3267570">
	<ele>1060.20</ele>
	<time>2025-07-30T08:07:36.000Z</time>
</trkpt>
<trkpt lat="46.0427030" lon="10.3267570">
	<ele>1060.20</ele>
	<time>2025-07-30T08:07:37.000Z</time>
</trkpt>
<trkpt lat="46.0427030" lon="10.3267570">
	<ele>1060.00</ele>
	<time>2025-07-30T08:07:38.000Z</time>
</trkpt>
<trkpt lat="46.0427020" lon="10.3267590">
	<ele>1060.00</ele>
	<time>2025-07-30T08:07:39.000Z</time>
</trkpt>
<trkpt lat="46.0427000" lon="10.3267600">
	<ele>1060.00</ele>
	<time>2025-07-30T08:07:40.000Z</time>
</trkpt>
<trkpt lat="46.0427000" lon="10.3267600">
	<ele>1060.00</ele>
	<time>2025-07-30T08:07:41.000Z</time>
</trkpt>
<trkpt lat="46.0426990" lon="10.3267610">
	<ele>1060.00</ele>
	<time>2025-07-30T08:07:42.000Z</time>
</trkpt>
<trkpt lat="46.0426990" lon="10.3267620">
	<ele>1060.00</ele>
	<time>2025-07-30T08:07:43.000Z</time>
</trkpt>
<trkpt lat="46.0426990" lon="10.3267620">
	<ele>1060.00</ele>
	<time>2025-07-30T08:07:44.000Z</time>
</trkpt>
<trkpt lat="46.0426990" lon="10.3267620">
	<ele>1060.00</ele>
	<time>2025-07-30T08:07:45.000Z</time>
</trkpt>
<trkpt lat="46.0426990" lon="10.3267620">
	<ele>1060.00</ele>
	<time>2025-07-30T08:07:46.000Z</time>
</trkpt>
<trkpt lat="46.0426990" lon="10.3267630">
	<ele>1060.00</ele>
	<time>2025-07-30T08:07:47.000Z</time>
</trkpt>
<trkpt lat="46.0426990" lon="10.3267650">
	<ele>1060.00</ele>
	<time>2025-07-30T08:07:48.000Z</time>
</trkpt>
<trkpt lat="46.0426980" lon="10.3267660">
	<ele>1060.00</ele>
	<time>2025-07-30T08:07:49.000Z</time>
</trkpt>
<trkpt lat="46.0426980" lon="10.3267660">
	<ele>1060.00</ele>
	<time>2025-07-30T08:07:50.000Z</time>
</trkpt>
<trkpt lat="46.0426980" lon="10.3267700">
	<ele>1060.00</ele>
	<time>2025-07-30T08:07:51.000Z</time>
</trkpt>
<trkpt lat="46.0426980" lon="10.3267710">
	<ele>1060.00</ele>
	<time>2025-07-30T08:07:52.000Z</time>
</trkpt>
<trkpt lat="46.0426980" lon="10.3267720">
	<ele>1060.00</ele>
	<time>2025-07-30T08:07:53.000Z</time>
</trkpt>
<trkpt lat="46.0426980" lon="10.3267720">
	<ele>1060.00</ele>
	<time>2025-07-30T08:07:54.000Z</time>
</trkpt>
<trkpt lat="46.0426980" lon="10.3267720">
	<ele>1060.00</ele>
	<time>2025-07-30T08:07:55.000Z</time>
</trkpt>
<trkpt lat="46.0426980" lon="10.3267740">
	<ele>1060.00</ele>
	<time>2025-07-30T08:07:56.000Z</time>
</trkpt>
<trkpt lat="46.0426980" lon="10.3267750">
	<ele>1060.00</ele>
	<time>2025-07-30T08:07:57.000Z</time>
</trkpt>
<trkpt lat="46.0426980" lon="10.3267760">
	<ele>1060.00</ele>
	<time>2025-07-30T08:07:58.000Z</time>
</trkpt>
<trkpt lat="46.0426980" lon="10.3267760">
	<ele>1060.00</ele>
	<time>2025-07-30T08:07:59.000Z</time>
</trkpt>
<trkpt lat="46.0426980" lon="10.3267770">
	<ele>1060.00</ele>
	<time>2025-07-30T08:08:00.000Z</time>
</trkpt>
<trkpt lat="46.0426980" lon="10.3267770">
	<ele>1060.00</ele>
	<time>2025-07-30T08:08:01.000Z</time>
</trkpt>
<trkpt lat="46.0426980" lon="10.3267800">
	<ele>1060.00</ele>
	<time>2025-07-30T08:08:02.000Z</time>
</trkpt>
<trkpt lat="46.0426970" lon="10.3267820">
	<ele>1060.00</ele>
	<time>2025-07-30T08:08:03.000Z</time>
</trkpt>
<trkpt lat="46.0426970" lon="10.3267830">
	<ele>1059.80</ele>
	<time>2025-07-30T08:08:04.000Z</time>
</trkpt>
<trkpt lat="46.0426970" lon="10.3267830">
	<ele>1059.80</ele>
	<time>2025-07-30T08:08:05.000Z</time>
</trkpt>
<trkpt lat="46.0426970" lon="10.3267830">
	<ele>1059.80</ele>
	<time>2025-07-30T08:08:06.000Z</time>
</trkpt>
<trkpt lat="46.0426970" lon="10.3267860">
	<ele>1059.80</ele>
	<time>2025-07-30T08:08:07.000Z</time>
</trkpt>
<trkpt lat="46.0426970" lon="10.3267860">
	<ele>1059.80</ele>
	<time>2025-07-30T08:08:08.000Z</time>
</trkpt>
<trkpt lat="46.0427000" lon="10.3267900">
	<ele>1059.80</ele>
	<time>2025-07-30T08:08:09.000Z</time>
</trkpt>
<trkpt lat="46.0427240" lon="10.3268160">
	<ele>1059.80</ele>
	<time>2025-07-30T08:08:10.000Z</time>
</trkpt>
<trkpt lat="46.0427370" lon="10.3268350">
	<ele>1059.80</ele>
	<time>2025-07-30T08:08:11.000Z</time>
</trkpt>
<trkpt lat="46.0427450" lon="10.3268450">
	<ele>1059.80</ele>
	<time>2025-07-30T08:08:12.000Z</time>
</trkpt>
<trkpt lat="46.0427510" lon="10.3268540">
	<ele>1059.80</ele>
	<time>2025-07-30T08:08:13.000Z</time>
</trkpt>
<trkpt lat="46.0427540" lon="10.3268600">
	<ele>1059.80</ele>
	<time>2025-07-30T08:08:14.000Z</time>
</trkpt>
<trkpt lat="46.0427570" lon="10.3268660">
	<ele>1059.80</ele>
	<time>2025-07-30T08:08:15.000Z</time>
</trkpt>
<trkpt lat="46.0427650" lon="10.3268800">
	<ele>1059.80</ele>
	<time>2025-07-30T08:08:16.000Z</time>
</trkpt>
<trkpt lat="46.0427660" lon="10.3268890">
	<ele>1059.80</ele>
	<time>2025-07-30T08:08:17.000Z</time>
</trkpt>
<trkpt lat="46.0427670" lon="10.3268940">
	<ele>1059.80</ele>
	<time>2025-07-30T08:08:18.000Z</time>
</trkpt>
<trkpt lat="46.0427660" lon="10.3268960">
	<ele>1059.80</ele>
	<time>2025-07-30T08:08:19.000Z</time>
</trkpt>
<trkpt lat="46.0427650" lon="10.3268980">
	<ele>1059.80</ele>
	<time>2025-07-30T08:08:20.000Z</time>
</trkpt>
<trkpt lat="46.0427690" lon="10.3268980">
	<ele>1059.80</ele>
	<time>2025-07-30T08:08:21.000Z</time>
</trkpt>
<trkpt lat="46.0427720" lon="10.3268990">
	<ele>1059.80</ele>
	<time>2025-07-30T08:08:22.000Z</time>
</trkpt>
<trkpt lat="46.0427700" lon="10.3269070">
	<ele>1059.80</ele>
	<time>2025-07-30T08:08:23.000Z</time>
</trkpt>
<trkpt lat="46.0427720" lon="10.3269110">
	<ele>1059.80</ele>
	<time>2025-07-30T08:08:24.000Z</time>
</trkpt>
<trkpt lat="46.0427740" lon="10.3269210">
	<ele>1059.80</ele>
	<time>2025-07-30T08:08:25.000Z</time>
</trkpt>
<trkpt lat="46.0427730" lon="10.3269330">
	<ele>1059.80</ele>
	<time>2025-07-30T08:08:26.000Z</time>
</trkpt>
<trkpt lat="46.0427690" lon="10.3269460">
	<ele>1059.80</ele>
	<time>2025-07-30T08:08:27.000Z</time>
</trkpt>
<trkpt lat="46.0427700" lon="10.3269590">
	<ele>1059.80</ele>
	<time>2025-07-30T08:08:28.000Z</time>
</trkpt>
<trkpt lat="46.0427700" lon="10.3269700">
	<ele>1059.80</ele>
	<time>2025-07-30T08:08:29.000Z</time>
</trkpt>
<trkpt lat="46.0427700" lon="10.3269810">
	<ele>1059.80</ele>
	<time>2025-07-30T08:08:30.000Z</time>
</trkpt>
<trkpt lat="46.0427730" lon="10.3269920">
	<ele>1059.80</ele>
	<time>2025-07-30T08:08:31.000Z</time>
</trkpt>
<trkpt lat="46.0427740" lon="10.3270010">
	<ele>1059.80</ele>
	<time>2025-07-30T08:08:32.000Z</time>
</trkpt>
<trkpt lat="46.0427770" lon="10.3270100">
	<ele>1059.80</ele>
	<time>2025-07-30T08:08:33.000Z</time>
</trkpt>
<trkpt lat="46.0427750" lon="10.3270190">
	<ele>1059.80</ele>
	<time>2025-07-30T08:08:34.000Z</time>
</trkpt>
<trkpt lat="46.0427730" lon="10.3270250">
	<ele>1059.80</ele>
	<time>2025-07-30T08:08:35.000Z</time>
</trkpt>
<trkpt lat="46.0427690" lon="10.3270320">
	<ele>1059.80</ele>
	<time>2025-07-30T08:08:36.000Z</time>
</trkpt>
<trkpt lat="46.0427690" lon="10.3270380">
	<ele>1059.80</ele>
	<time>2025-07-30T08:08:37.000Z</time>
</trkpt>
<trkpt lat="46.0427680" lon="10.3270500">
	<ele>1059.80</ele>
	<time>2025-07-30T08:08:38.000Z</time>
</trkpt>
<trkpt lat="46.0427630" lon="10.3270600">
	<ele>1059.80</ele>
	<time>2025-07-30T08:08:39.000Z</time>
</trkpt>
<trkpt lat="46.0427600" lon="10.3270720">
	<ele>1059.80</ele>
	<time>2025-07-30T08:08:40.000Z</time>
</trkpt>
<trkpt lat="46.0427610" lon="10.3270790">
	<ele>1059.80</ele>
	<time>2025-07-30T08:08:41.000Z</time>
</trkpt>
<trkpt lat="46.0427620" lon="10.3270930">
	<ele>1059.80</ele>
	<time>2025-07-30T08:08:42.000Z</time>
</trkpt>
<trkpt lat="46.0427600" lon="10.3271100">
	<ele>1059.80</ele>
	<time>2025-07-30T08:08:43.000Z</time>
</trkpt>
<trkpt lat="46.0427570" lon="10.3271250">
	<ele>1059.80</ele>
	<time>2025-07-30T08:08:44.000Z</time>
</trkpt>
<trkpt lat="46.0427580" lon="10.3271380">
	<ele>1059.80</ele>
	<time>2025-07-30T08:08:45.000Z</time>
</trkpt>
<trkpt lat="46.0427580" lon="10.3271490">
	<ele>1059.80</ele>
	<time>2025-07-30T08:08:46.000Z</time>
</trkpt>
<trkpt lat="46.0427610" lon="10.3271580">
	<ele>1056.00</ele>
	<time>2025-07-30T08:08:47.000Z</time>
</trkpt>
<trkpt lat="46.0427640" lon="10.3271650">
	<ele>1054.00</ele>
	<time>2025-07-30T08:08:48.000Z</time>
</trkpt>
<trkpt lat="46.0427670" lon="10.3271760">
	<ele>1052.80</ele>
	<time>2025-07-30T08:08:49.000Z</time>
</trkpt>
<trkpt lat="46.0427680" lon="10.3271850">
	<ele>1052.00</ele>
	<time>2025-07-30T08:08:50.000Z</time>
</trkpt>
<trkpt lat="46.0427700" lon="10.3271910">
	<ele>1051.40</ele>
	<time>2025-07-30T08:08:51.000Z</time>
</trkpt>
<trkpt lat="46.0427700" lon="10.3272010">
	<ele>1051.20</ele>
	<time>2025-07-30T08:08:52.000Z</time>
</trkpt>
<trkpt lat="46.0427700" lon="10.3272100">
	<ele>1050.80</ele>
	<time>2025-07-30T08:08:53.000Z</time>
</trkpt>
<trkpt lat="46.0427740" lon="10.3272290">
	<ele>1050.40</ele>
	<time>2025-07-30T08:08:54.000Z</time>
</trkpt>
<trkpt lat="46.0427700" lon="10.3272470">
	<ele>1050.20</ele>
	<time>2025-07-30T08:08:55.000Z</time>
</trkpt>
<trkpt lat="46.0427640" lon="10.3272670">
	<ele>1050.00</ele>
	<time>2025-07-30T08:08:56.000Z</time>
</trkpt>
<trkpt lat="46.0427610" lon="10.3272850">
	<ele>1049.60</ele>
	<time>2025-07-30T08:08:57.000Z</time>
</trkpt>
<trkpt lat="46.0427610" lon="10.3273010">
	<ele>1049.40</ele>
	<time>2025-07-30T08:08:58.000Z</time>
</trkpt>
<trkpt lat="46.0427600" lon="10.3273230">
	<ele>1049.20</ele>
	<time>2025-07-30T08:08:59.000Z</time>
</trkpt>
<trkpt lat="46.0427560" lon="10.3273420">
	<ele>1049.00</ele>
	<time>2025-07-30T08:09:00.000Z</time>
</trkpt>
<trkpt lat="46.0427550" lon="10.3273590">
	<ele>1048.60</ele>
	<time>2025-07-30T08:09:01.000Z</time>
</trkpt>
<trkpt lat="46.0427550" lon="10.3273740">
	<ele>1048.20</ele>
	<time>2025-07-30T08:09:02.000Z</time>
</trkpt>
<trkpt lat="46.0427560" lon="10.3273900">
	<ele>1047.80</ele>
	<time>2025-07-30T08:09:03.000Z</time>
</trkpt>
<trkpt lat="46.0427520" lon="10.3274020">
	<ele>1047.40</ele>
	<time>2025-07-30T08:09:04.000Z</time>
</trkpt>
<trkpt lat="46.0427480" lon="10.3274200">
	<ele>1047.00</ele>
	<time>2025-07-30T08:09:05.000Z</time>
</trkpt>
<trkpt lat="46.0427460" lon="10.3274370">
	<ele>1046.80</ele>
	<time>2025-07-30T08:09:06.000Z</time>
</trkpt>
<trkpt lat="46.0427420" lon="10.3274520">
	<ele>1046.60</ele>
	<time>2025-07-30T08:09:07.000Z</time>
</trkpt>
<trkpt lat="46.0427410" lon="10.3274670">
	<ele>1046.60</ele>
	<time>2025-07-30T08:09:08.000Z</time>
</trkpt>
<trkpt lat="46.0427360" lon="10.3274830">
	<ele>1046.40</ele>
	<time>2025-07-30T08:09:09.000Z</time>
</trkpt>
<trkpt lat="46.0427340" lon="10.3275040">
	<ele>1046.20</ele>
	<time>2025-07-30T08:09:10.000Z</time>
</trkpt>
<trkpt lat="46.0427280" lon="10.3275240">
	<ele>1045.80</ele>
	<time>2025-07-30T08:09:11.000Z</time>
</trkpt>
<trkpt lat="46.0427230" lon="10.3275420">
	<ele>1045.40</ele>
	<time>2025-07-30T08:09:12.000Z</time>
</trkpt>
<trkpt lat="46.0427220" lon="10.3275550">
	<ele>1045.20</ele>
	<time>2025-07-30T08:09:13.000Z</time>
</trkpt>
<trkpt lat="46.0427190" lon="10.3275720">
	<ele>1045.00</ele>
	<time>2025-07-30T08:09:14.000Z</time>
</trkpt>
<trkpt lat="46.0427160" lon="10.3275880">
	<ele>1044.60</ele>
	<time>2025-07-30T08:09:15.000Z</time>
</trkpt>
<trkpt lat="46.0427130" lon="10.3276000">
	<ele>1044.40</ele>
	<time>2025-07-30T08:09:16.000Z</time>
</trkpt>
<trkpt lat="46.0427120" lon="10.3276150">
	<ele>1044.20</ele>
	<time>2025-07-30T08:09:17.000Z</time>
</trkpt>
<trkpt lat="46.0427070" lon="10.3276290">
	<ele>1044.00</ele>
	<time>2025-07-30T08:09:18.000Z</time>
</trkpt>
<trkpt lat="46.0427040" lon="10.3276420">
	<ele>1043.60</ele>
	<time>2025-07-30T08:09:19.000Z</time>
</trkpt>
<trkpt lat="46.0427000" lon="10.3276550">
	<ele>1043.20</ele>
	<time>2025-07-30T08:09:20.000Z</time>
</trkpt>
<trkpt lat="46.0426980" lon="10.3276670">
	<ele>1043.00</ele>
	<time>2025-07-30T08:09:21.000Z</time>
</trkpt>
<trkpt lat="46.0426900" lon="10.3276790">
	<ele>1042.80</ele>
	<time>2025-07-30T08:09:22.000Z</time>
</trkpt>
<trkpt lat="46.0426850" lon="10.3276860">
	<ele>1042.40</ele>
	<time>2025-07-30T08:09:23.000Z</time>
</trkpt>
<trkpt lat="46.0426800" lon="10.3276990">
	<ele>1042.20</ele>
	<time>2025-07-30T08:09:24.000Z</time>
</trkpt>
<trkpt lat="46.0426750" lon="10.3277100">
	<ele>1041.60</ele>
	<time>2025-07-30T08:09:25.000Z</time>
</trkpt>
<trkpt lat="46.0426650" lon="10.3277150">
	<ele>1041.20</ele>
	<time>2025-07-30T08:09:26.000Z</time>
</trkpt>
<trkpt lat="46.0426540" lon="10.3277130">
	<ele>1040.80</ele>
	<time>2025-07-30T08:09:27.000Z</time>
</trkpt>
<trkpt lat="46.0426420" lon="10.3277080">
	<ele>1040.60</ele>
	<time>2025-07-30T08:09:28.000Z</time>
</trkpt>
<trkpt lat="46.0426340" lon="10.3277060">
	<ele>1040.40</ele>
	<time>2025-07-30T08:09:29.000Z</time>
</trkpt>
<trkpt lat="46.0426260" lon="10.3277040">
	<ele>1040.00</ele>
	<time>2025-07-30T08:09:30.000Z</time>
</trkpt>
<trkpt lat="46.0426150" lon="10.3277000">
	<ele>1039.60</ele>
	<time>2025-07-30T08:09:31.000Z</time>
</trkpt>
<trkpt lat="46.0426030" lon="10.3276920">
	<ele>1039.20</ele>
	<time>2025-07-30T08:09:32.000Z</time>
</trkpt>
<trkpt lat="46.0425910" lon="10.3276840">
	<ele>1038.80</ele>
	<time>2025-07-30T08:09:33.000Z</time>
</trkpt>
<trkpt lat="46.0425830" lon="10.3276790">
	<ele>1038.40</ele>
	<time>2025-07-30T08:09:34.000Z</time>
</trkpt>
<trkpt lat="46.0425720" lon="10.3276770">
	<ele>1038.00</ele>
	<time>2025-07-30T08:09:35.000Z</time>
</trkpt>
<trkpt lat="46.0425630" lon="10.3276790">
	<ele>1037.60</ele>
	<time>2025-07-30T08:09:36.000Z</time>
</trkpt>
<trkpt lat="46.0425520" lon="10.3276780">
	<ele>1037.20</ele>
	<time>2025-07-30T08:09:37.000Z</time>
</trkpt>
<trkpt lat="46.0425390" lon="10.3276770">
	<ele>1037.00</ele>
	<time>2025-07-30T08:09:38.000Z</time>
</trkpt>
<trkpt lat="46.0425290" lon="10.3276770">
	<ele>1036.80</ele>
	<time>2025-07-30T08:09:39.000Z</time>
</trkpt>
<trkpt lat="46.0425200" lon="10.3276770">
	<ele>1036.40</ele>
	<time>2025-07-30T08:09:40.000Z</time>
</trkpt>
<trkpt lat="46.0425170" lon="10.3276830">
	<ele>1036.00</ele>
	<time>2025-07-30T08:09:41.000Z</time>
</trkpt>
<trkpt lat="46.0425150" lon="10.3276850">
	<ele>1035.80</ele>
	<time>2025-07-30T08:09:42.000Z</time>
</trkpt>
<trkpt lat="46.0425070" lon="10.3276790">
	<ele>1035.80</ele>
	<time>2025-07-30T08:09:43.000Z</time>
</trkpt>
<trkpt lat="46.0425020" lon="10.3276760">
	<ele>1035.60</ele>
	<time>2025-07-30T08:09:44.000Z</time>
</trkpt>
<trkpt lat="46.0425010" lon="10.3276850">
	<ele>1035.60</ele>
	<time>2025-07-30T08:09:45.000Z</time>
</trkpt>
<trkpt lat="46.0425010" lon="10.3276870">
	<ele>1035.60</ele>
	<time>2025-07-30T08:09:46.000Z</time>
</trkpt>
<trkpt lat="46.0424980" lon="10.3276860">
	<ele>1035.40</ele>
	<time>2025-07-30T08:09:47.000Z</time>
</trkpt>
<trkpt lat="46.0425010" lon="10.3276940">
	<ele>1035.40</ele>
	<time>2025-07-30T08:09:48.000Z</time>
</trkpt>
<trkpt lat="46.0425080" lon="10.3277000">
	<ele>1035.40</ele>
	<time>2025-07-30T08:09:49.000Z</time>
</trkpt>
<trkpt lat="46.0425150" lon="10.3277090">
	<ele>1035.40</ele>
	<time>2025-07-30T08:09:50.000Z</time>
</trkpt>
<trkpt lat="46.0425240" lon="10.3277160">
	<ele>1035.60</ele>
	<time>2025-07-30T08:09:51.000Z</time>
</trkpt>
<trkpt lat="46.0425380" lon="10.3277170">
	<ele>1035.60</ele>
	<time>2025-07-30T08:09:52.000Z</time>
</trkpt>
<trkpt lat="46.0425490" lon="10.3277250">
	<ele>1035.60</ele>
	<time>2025-07-30T08:09:53.000Z</time>
</trkpt>
<trkpt lat="46.0425610" lon="10.3277320">
	<ele>1035.60</ele>
	<time>2025-07-30T08:09:54.000Z</time>
</trkpt>
<trkpt lat="46.0425790" lon="10.3277480">
	<ele>1035.80</ele>
	<time>2025-07-30T08:09:55.000Z</time>
</trkpt>
<trkpt lat="46.0425930" lon="10.3277530">
	<ele>1035.80</ele>
	<time>2025-07-30T08:09:56.000Z</time>
</trkpt>
<trkpt lat="46.0425950" lon="10.3277560">
	<ele>1036.00</ele>
	<time>2025-07-30T08:09:57.000Z</time>
</trkpt>
<trkpt lat="46.0425970" lon="10.3277610">
	<ele>1036.20</ele>
	<time>2025-07-30T08:09:58.000Z</time>
</trkpt>
<trkpt lat="46.0425980" lon="10.3277620">
	<ele>1036.40</ele>
	<time>2025-07-30T08:09:59.000Z</time>
</trkpt>
<trkpt lat="46.0425990" lon="10.3277620">
	<ele>1036.40</ele>
	<time>2025-07-30T08:10:00.000Z</time>
</trkpt>
<trkpt lat="46.0425980" lon="10.3277590">
	<ele>1036.40</ele>
	<time>2025-07-30T08:10:01.000Z</time>
</trkpt>
<trkpt lat="46.0426000" lon="10.3277590">
	<ele>1036.40</ele>
	<time>2025-07-30T08:10:02.000Z</time>
</trkpt>
<trkpt lat="46.0426010" lon="10.3277600">
	<ele>1036.40</ele>
	<time>2025-07-30T08:10:03.000Z</time>
</trkpt>
<trkpt lat="46.0426000" lon="10.3277590">
	<ele>1036.60</ele>
	<time>2025-07-30T08:10:04.000Z</time>
</trkpt>
<trkpt lat="46.0425990" lon="10.3277600">
	<ele>1036.60</ele>
	<time>2025-07-30T08:10:05.000Z</time>
</trkpt>
<trkpt lat="46.0425990" lon="10.3277620">
	<ele>1036.60</ele>
	<time>2025-07-30T08:10:06.000Z</time>
</trkpt>
<trkpt lat="46.0425970" lon="10.3277600">
	<ele>1036.60</ele>
	<time>2025-07-30T08:10:07.000Z</time>
</trkpt>
<trkpt lat="46.0425870" lon="10.3277480">
	<ele>1036.60</ele>
	<time>2025-07-30T08:10:08.000Z</time>
</trkpt>
<trkpt lat="46.0425860" lon="10.3277480">
	<ele>1036.60</ele>
	<time>2025-07-30T08:10:09.000Z</time>
</trkpt>
<trkpt lat="46.0425850" lon="10.3277500">
	<ele>1036.60</ele>
	<time>2025-07-30T08:10:10.000Z</time>
</trkpt>
<trkpt lat="46.0425860" lon="10.3277540">
	<ele>1036.60</ele>
	<time>2025-07-30T08:10:11.000Z</time>
</trkpt>
<trkpt lat="46.0425720" lon="10.3277400">
	<ele>1036.60</ele>
	<time>2025-07-30T08:10:12.000Z</time>
</trkpt>
<trkpt lat="46.0425710" lon="10.3277420">
	<ele>1036.40</ele>
	<time>2025-07-30T08:10:13.000Z</time>
</trkpt>
<trkpt lat="46.0425720" lon="10.3277490">
	<ele>1036.40</ele>
	<time>2025-07-30T08:10:14.000Z</time>
</trkpt>
<trkpt lat="46.0425730" lon="10.3277570">
	<ele>1036.40</ele>
	<time>2025-07-30T08:10:15.000Z</time>
</trkpt>
<trkpt lat="46.0425730" lon="10.3277620">
	<ele>1036.40</ele>
	<time>2025-07-30T08:10:16.000Z</time>
</trkpt>
<trkpt lat="46.0425770" lon="10.3277720">
	<ele>1036.40</ele>
	<time>2025-07-30T08:10:17.000Z</time>
</trkpt>
<trkpt lat="46.0425830" lon="10.3277880">
	<ele>1036.40</ele>
	<time>2025-07-30T08:10:18.000Z</time>
</trkpt>
<trkpt lat="46.0425910" lon="10.3278010">
	<ele>1036.20</ele>
	<time>2025-07-30T08:10:19.000Z</time>
</trkpt>
<trkpt lat="46.0425910" lon="10.3278050">
	<ele>1036.20</ele>
	<time>2025-07-30T08:10:20.000Z</time>
</trkpt>
<trkpt lat="46.0425960" lon="10.3278150">
	<ele>1035.80</ele>
	<time>2025-07-30T08:10:21.000Z</time>
</trkpt>
<trkpt lat="46.0426000" lon="10.3278230">
	<ele>1035.60</ele>
	<time>2025-07-30T08:10:22.000Z</time>
</trkpt>
<trkpt lat="46.0426000" lon="10.3278390">
	<ele>1035.40</ele>
	<time>2025-07-30T08:10:23.000Z</time>
</trkpt>
<trkpt lat="46.0425970" lon="10.3278580">
	<ele>1035.00</ele>
	<time>2025-07-30T08:10:24.000Z</time>
</trkpt>
<trkpt lat="46.0425990" lon="10.3278630">
	<ele>1034.60</ele>
	<time>2025-07-30T08:10:25.000Z</time>
</trkpt>
<trkpt lat="46.0425990" lon="10.3278790">
	<ele>1034.40</ele>
	<time>2025-07-30T08:10:26.000Z</time>
</trkpt>
<trkpt lat="46.0425990" lon="10.3279000">
	<ele>1034.20</ele>
	<time>2025-07-30T08:10:27.000Z</time>
</trkpt>
<trkpt lat="46.0426020" lon="10.3279180">
	<ele>1033.80</ele>
	<time>2025-07-30T08:10:28.000Z</time>
</trkpt>
<trkpt lat="46.0426040" lon="10.3279320">
	<ele>1033.60</ele>
	<time>2025-07-30T08:10:29.000Z</time>
</trkpt>
<trkpt lat="46.0426070" lon="10.3279480">
	<ele>1033.40</ele>
	<time>2025-07-30T08:10:30.000Z</time>
</trkpt>
<trkpt lat="46.0426100" lon="10.3279650">
	<ele>1033.20</ele>
	<time>2025-07-30T08:10:31.000Z</time>
</trkpt>
<trkpt lat="46.0426110" lon="10.3279860">
	<ele>1033.20</ele>
	<time>2025-07-30T08:10:32.000Z</time>
</trkpt>
<trkpt lat="46.0426190" lon="10.3280050">
	<ele>1032.80</ele>
	<time>2025-07-30T08:10:33.000Z</time>
</trkpt>
<trkpt lat="46.0426280" lon="10.3280220">
	<ele>1032.40</ele>
	<time>2025-07-30T08:10:34.000Z</time>
</trkpt>
<trkpt lat="46.0426340" lon="10.3280430">
	<ele>1032.00</ele>
	<time>2025-07-30T08:10:35.000Z</time>
</trkpt>
<trkpt lat="46.0426420" lon="10.3280600">
	<ele>1031.60</ele>
	<time>2025-07-30T08:10:36.000Z</time>
</trkpt>
<trkpt lat="46.0426480" lon="10.3280750">
	<ele>1031.40</ele>
	<time>2025-07-30T08:10:37.000Z</time>
</trkpt>
<trkpt lat="46.0426540" lon="10.3280870">
	<ele>1031.20</ele>
	<time>2025-07-30T08:10:38.000Z</time>
</trkpt>
<trkpt lat="46.0426580" lon="10.3281040">
	<ele>1031.00</ele>
	<time>2025-07-30T08:10:39.000Z</time>
</trkpt>
<trkpt lat="46.0426620" lon="10.3281220">
	<ele>1031.00</ele>
	<time>2025-07-30T08:10:40.000Z</time>
</trkpt>
<trkpt lat="46.0426670" lon="10.3281380">
	<ele>1030.80</ele>
	<time>2025-07-30T08:10:41.000Z</time>
</trkpt>
<trkpt lat="46.0426750" lon="10.3281560">
	<ele>1030.80</ele>
	<time>2025-07-30T08:10:42.000Z</time>
</trkpt>
<trkpt lat="46.0426830" lon="10.3281700">
	<ele>1030.60</ele>
	<time>2025-07-30T08:10:43.000Z</time>
</trkpt>
<trkpt lat="46.0426900" lon="10.3281840">
	<ele>1030.40</ele>
	<time>2025-07-30T08:10:44.000Z</time>
</trkpt>
<trkpt lat="46.0426960" lon="10.3281970">
	<ele>1030.40</ele>
	<time>2025-07-30T08:10:45.000Z</time>
</trkpt>
<trkpt lat="46.0427010" lon="10.3282110">
	<ele>1030.20</ele>
	<time>2025-07-30T08:10:46.000Z</time>
</trkpt>
<trkpt lat="46.0427080" lon="10.3282280">
	<ele>1030.20</ele>
	<time>2025-07-30T08:10:47.000Z</time>
</trkpt>
<trkpt lat="46.0427190" lon="10.3282390">
	<ele>1030.00</ele>
	<time>2025-07-30T08:10:48.000Z</time>
</trkpt>
<trkpt lat="46.0427260" lon="10.3282470">
	<ele>1030.00</ele>
	<time>2025-07-30T08:10:49.000Z</time>
</trkpt>
<trkpt lat="46.0427370" lon="10.3282540">
	<ele>1030.00</ele>
	<time>2025-07-30T08:10:50.000Z</time>
</trkpt>
<trkpt lat="46.0427470" lon="10.3282600">
	<ele>1030.00</ele>
	<time>2025-07-30T08:10:51.000Z</time>
</trkpt>
<trkpt lat="46.0427480" lon="10.3282660">
	<ele>1029.80</ele>
	<time>2025-07-30T08:10:52.000Z</time>
</trkpt>
<trkpt lat="46.0427490" lon="10.3282710">
	<ele>1029.80</ele>
	<time>2025-07-30T08:10:53.000Z</time>
</trkpt>
<trkpt lat="46.0427500" lon="10.3282810">
	<ele>1029.80</ele>
	<time>2025-07-30T08:10:54.000Z</time>
</trkpt>
<trkpt lat="46.0427560" lon="10.3282960">
	<ele>1029.60</ele>
	<time>2025-07-30T08:10:55.000Z</time>
</trkpt>
<trkpt lat="46.0427620" lon="10.3283140">
	<ele>1029.40</ele>
	<time>2025-07-30T08:10:56.000Z</time>
</trkpt>
<trkpt lat="46.0427620" lon="10.3283460">
	<ele>1029.20</ele>
	<time>2025-07-30T08:10:57.000Z</time>
</trkpt>
<trkpt lat="46.0427690" lon="10.3283510">
	<ele>1029.20</ele>
	<time>2025-07-30T08:10:58.000Z</time>
</trkpt>
<trkpt lat="46.0427800" lon="10.3283640">
	<ele>1028.80</ele>
	<time>2025-07-30T08:10:59.000Z</time>
</trkpt>
<trkpt lat="46.0427840" lon="10.3283860">
	<ele>1028.60</ele>
	<time>2025-07-30T08:11:00.000Z</time>
</trkpt>
<trkpt lat="46.0427920" lon="10.3283970">
	<ele>1028.40</ele>
	<time>2025-07-30T08:11:01.000Z</time>
</trkpt>
<trkpt lat="46.0427980" lon="10.3284250">
	<ele>1028.00</ele>
	<time>2025-07-30T08:11:02.000Z</time>
</trkpt>
<trkpt lat="46.0428030" lon="10.3284570">
	<ele>1027.40</ele>
	<time>2025-07-30T08:11:03.000Z</time>
</trkpt>
<trkpt lat="46.0428070" lon="10.3284680">
	<ele>1027.20</ele>
	<time>2025-07-30T08:11:04.000Z</time>
</trkpt>
<trkpt lat="46.0428100" lon="10.3284860">
	<ele>1026.80</ele>
	<time>2025-07-30T08:11:05.000Z</time>
</trkpt>
<trkpt lat="46.0428090" lon="10.3284960">
	<ele>1026.40</ele>
	<time>2025-07-30T08:11:06.000Z</time>
</trkpt>
<trkpt lat="46.0428160" lon="10.3285090">
	<ele>1026.20</ele>
	<time>2025-07-30T08:11:07.000Z</time>
</trkpt>
<trkpt lat="46.0428230" lon="10.3285170">
	<ele>1025.80</ele>
	<time>2025-07-30T08:11:08.000Z</time>
</trkpt>
<trkpt lat="46.0428340" lon="10.3285260">
	<ele>1025.60</ele>
	<time>2025-07-30T08:11:09.000Z</time>
</trkpt>
<trkpt lat="46.0428430" lon="10.3285340">
	<ele>1025.20</ele>
	<time>2025-07-30T08:11:10.000Z</time>
</trkpt>
<trkpt lat="46.0428530" lon="10.3285410">
	<ele>1025.00</ele>
	<time>2025-07-30T08:11:11.000Z</time>
</trkpt>
<trkpt lat="46.0428620" lon="10.3285540">
	<ele>1024.60</ele>
	<time>2025-07-30T08:11:12.000Z</time>
</trkpt>
<trkpt lat="46.0428730" lon="10.3285780">
	<ele>1024.40</ele>
	<time>2025-07-30T08:11:13.000Z</time>
</trkpt>
<trkpt lat="46.0428820" lon="10.3285930">
	<ele>1024.20</ele>
	<time>2025-07-30T08:11:14.000Z</time>
</trkpt>
<trkpt lat="46.0428950" lon="10.3286090">
	<ele>1024.00</ele>
	<time>2025-07-30T08:11:15.000Z</time>
</trkpt>
<trkpt lat="46.0429100" lon="10.3286310">
	<ele>1023.80</ele>
	<time>2025-07-30T08:11:16.000Z</time>
</trkpt>
<trkpt lat="46.0429260" lon="10.3286470">
	<ele>1023.40</ele>
	<time>2025-07-30T08:11:17.000Z</time>
</trkpt>
<trkpt lat="46.0429380" lon="10.3286560">
	<ele>1023.00</ele>
	<time>2025-07-30T08:11:18.000Z</time>
</trkpt>
<trkpt lat="46.0429420" lon="10.3286670">
	<ele>1022.80</ele>
	<time>2025-07-30T08:11:19.000Z</time>
</trkpt>
<trkpt lat="46.0429440" lon="10.3286670">
	<ele>1022.60</ele>
	<time>2025-07-30T08:11:20.000Z</time>
</trkpt>
<trkpt lat="46.0429450" lon="10.3286680">
	<ele>1022.40</ele>
	<time>2025-07-30T08:11:21.000Z</time>
</trkpt>
<trkpt lat="46.0429460" lon="10.3286780">
	<ele>1022.20</ele>
	<time>2025-07-30T08:11:22.000Z</time>
</trkpt>
<trkpt lat="46.0429500" lon="10.3286990">
	<ele>1021.80</ele>
	<time>2025-07-30T08:11:23.000Z</time>
</trkpt>
<trkpt lat="46.0429530" lon="10.3287230">
	<ele>1021.80</ele>
	<time>2025-07-30T08:11:24.000Z</time>
</trkpt>
<trkpt lat="46.0429570" lon="10.3287420">
	<ele>1021.40</ele>
	<time>2025-07-30T08:11:25.000Z</time>
</trkpt>
<trkpt lat="46.0429560" lon="10.3287530">
	<ele>1021.20</ele>
	<time>2025-07-30T08:11:26.000Z</time>
</trkpt>
<trkpt lat="46.0429640" lon="10.3287600">
	<ele>1020.80</ele>
	<time>2025-07-30T08:11:27.000Z</time>
</trkpt>
<trkpt lat="46.0429730" lon="10.3287670">
	<ele>1020.60</ele>
	<time>2025-07-30T08:11:28.000Z</time>
</trkpt>
<trkpt lat="46.0429790" lon="10.3287800">
	<ele>1020.20</ele>
	<time>2025-07-30T08:11:29.000Z</time>
</trkpt>
<trkpt lat="46.0429850" lon="10.3287920">
	<ele>1020.00</ele>
	<time>2025-07-30T08:11:30.000Z</time>
</trkpt>
<trkpt lat="46.0429920" lon="10.3288040">
	<ele>1019.80</ele>
	<time>2025-07-30T08:11:31.000Z</time>
</trkpt>
<trkpt lat="46.0430080" lon="10.3288150">
	<ele>1019.40</ele>
	<time>2025-07-30T08:11:32.000Z</time>
</trkpt>
<trkpt lat="46.0430170" lon="10.3288300">
	<ele>1019.20</ele>
	<time>2025-07-30T08:11:33.000Z</time>
</trkpt>
<trkpt lat="46.0430210" lon="10.3288440">
	<ele>1018.80</ele>
	<time>2025-07-30T08:11:34.000Z</time>
</trkpt>
<trkpt lat="46.0430290" lon="10.3288650">
	<ele>1018.60</ele>
	<time>2025-07-30T08:11:35.000Z</time>
</trkpt>
<trkpt lat="46.0430360" lon="10.3288770">
	<ele>1018.20</ele>
	<time>2025-07-30T08:11:36.000Z</time>
</trkpt>
<trkpt lat="46.0430410" lon="10.3288980">
	<ele>1018.00</ele>
	<time>2025-07-30T08:11:37.000Z</time>
</trkpt>
<trkpt lat="46.0430460" lon="10.3289240">
	<ele>1018.00</ele>
	<time>2025-07-30T08:11:38.000Z</time>
</trkpt>
<trkpt lat="46.0430510" lon="10.3289500">
	<ele>1017.80</ele>
	<time>2025-07-30T08:11:39.000Z</time>
</trkpt>
<trkpt lat="46.0430560" lon="10.3289710">
	<ele>1017.80</ele>
	<time>2025-07-30T08:11:40.000Z</time>
</trkpt>
<trkpt lat="46.0430600" lon="10.3289840">
	<ele>1017.60</ele>
	<time>2025-07-30T08:11:41.000Z</time>
</trkpt>
<trkpt lat="46.0430670" lon="10.3290000">
	<ele>1017.40</ele>
	<time>2025-07-30T08:11:42.000Z</time>
</trkpt>
<trkpt lat="46.0430790" lon="10.3290120">
	<ele>1017.20</ele>
	<time>2025-07-30T08:11:43.000Z</time>
</trkpt>
<trkpt lat="46.0430880" lon="10.3290300">
	<ele>1017.00</ele>
	<time>2025-07-30T08:11:44.000Z</time>
</trkpt>
<trkpt lat="46.0430970" lon="10.3290480">
	<ele>1016.80</ele>
	<time>2025-07-30T08:11:45.000Z</time>
</trkpt>
<trkpt lat="46.0431050" lon="10.3290670">
	<ele>1016.80</ele>
	<time>2025-07-30T08:11:46.000Z</time>
</trkpt>
<trkpt lat="46.0431150" lon="10.3290880">
	<ele>1016.80</ele>
	<time>2025-07-30T08:11:47.000Z</time>
</trkpt>
<trkpt lat="46.0431240" lon="10.3291080">
	<ele>1016.60</ele>
	<time>2025-07-30T08:11:48.000Z</time>
</trkpt>
<trkpt lat="46.0431300" lon="10.3291180">
	<ele>1016.60</ele>
	<time>2025-07-30T08:11:49.000Z</time>
</trkpt>
<trkpt lat="46.0431370" lon="10.3291320">
	<ele>1016.60</ele>
	<time>2025-07-30T08:11:50.000Z</time>
</trkpt>
<trkpt lat="46.0431480" lon="10.3291470">
	<ele>1016.40</ele>
	<time>2025-07-30T08:11:51.000Z</time>
</trkpt>
<trkpt lat="46.0431580" lon="10.3291550">
	<ele>1016.40</ele>
	<time>2025-07-30T08:11:52.000Z</time>
</trkpt>
<trkpt lat="46.0431650" lon="10.3291730">
	<ele>1016.20</ele>
	<time>2025-07-30T08:11:53.000Z</time>
</trkpt>
<trkpt lat="46.0431720" lon="10.3291940">
	<ele>1016.20</ele>
	<time>2025-07-30T08:11:54.000Z</time>
</trkpt>
<trkpt lat="46.0431800" lon="10.3292180">
	<ele>1016.20</ele>
	<time>2025-07-30T08:11:55.000Z</time>
</trkpt>
<trkpt lat="46.0431850" lon="10.3292410">
	<ele>1016.20</ele>
	<time>2025-07-30T08:11:56.000Z</time>
</trkpt>
<trkpt lat="46.0431890" lon="10.3292660">
	<ele>1016.00</ele>
	<time>2025-07-30T08:11:57.000Z</time>
</trkpt>
<trkpt lat="46.0431900" lon="10.3292800">
	<ele>1016.00</ele>
	<time>2025-07-30T08:11:58.000Z</time>
</trkpt>
<trkpt lat="46.0431940" lon="10.3292850">
	<ele>1016.00</ele>
	<time>2025-07-30T08:11:59.000Z</time>
</trkpt>
<trkpt lat="46.0432090" lon="10.3292950">
	<ele>1016.00</ele>
	<time>2025-07-30T08:12:00.000Z</time>
</trkpt>
<trkpt lat="46.0432200" lon="10.3292940">
	<ele>1015.80</ele>
	<time>2025-07-30T08:12:01.000Z</time>
</trkpt>
<trkpt lat="46.0432360" lon="10.3292970">
	<ele>1015.60</ele>
	<time>2025-07-30T08:12:02.000Z</time>
</trkpt>
<trkpt lat="46.0432490" lon="10.3293150">
	<ele>1015.40</ele>
	<time>2025-07-30T08:12:03.000Z</time>
</trkpt>
<trkpt lat="46.0432570" lon="10.3293410">
	<ele>1015.20</ele>
	<time>2025-07-30T08:12:04.000Z</time>
</trkpt>
<trkpt lat="46.0432580" lon="10.3293600">
	<ele>1014.80</ele>
	<time>2025-07-30T08:12:05.000Z</time>
</trkpt>
<trkpt lat="46.0432610" lon="10.3293730">
	<ele>1014.20</ele>
	<time>2025-07-30T08:12:06.000Z</time>
</trkpt>
<trkpt lat="46.0432620" lon="10.3293800">
	<ele>1014.00</ele>
	<time>2025-07-30T08:12:07.000Z</time>
</trkpt>
<trkpt lat="46.0432620" lon="10.3293840">
	<ele>1013.80</ele>
	<time>2025-07-30T08:12:08.000Z</time>
</trkpt>
<trkpt lat="46.0432680" lon="10.3293900">
	<ele>1013.60</ele>
	<time>2025-07-30T08:12:09.000Z</time>
</trkpt>
<trkpt lat="46.0432690" lon="10.3293910">
	<ele>1013.60</ele>
	<time>2025-07-30T08:12:10.000Z</time>
</trkpt>
<trkpt lat="46.0432690" lon="10.3293920">
	<ele>1013.60</ele>
	<time>2025-07-30T08:12:11.000Z</time>
</trkpt>
<trkpt lat="46.0432700" lon="10.3293920">
	<ele>1013.40</ele>
	<time>2025-07-30T08:12:12.000Z</time>
</trkpt>
<trkpt lat="46.0432710" lon="10.3293910">
	<ele>1013.40</ele>
	<time>2025-07-30T08:12:13.000Z</time>
</trkpt>
<trkpt lat="46.0432720" lon="10.3293900">
	<ele>1013.60</ele>
	<time>2025-07-30T08:12:14.000Z</time>
</trkpt>
<trkpt lat="46.0432720" lon="10.3293900">
	<ele>1013.60</ele>
	<time>2025-07-30T08:12:15.000Z</time>
</trkpt>
<trkpt lat="46.0432820" lon="10.3293850">
	<ele>1013.60</ele>
	<time>2025-07-30T08:12:16.000Z</time>
</trkpt>
<trkpt lat="46.0432930" lon="10.3293860">
	<ele>1013.80</ele>
	<time>2025-07-30T08:12:17.000Z</time>
</trkpt>
<trkpt lat="46.0432980" lon="10.3293950">
	<ele>1013.80</ele>
	<time>2025-07-30T08:12:18.000Z</time>
</trkpt>
<trkpt lat="46.0433110" lon="10.3293970">
	<ele>1013.40</ele>
	<time>2025-07-30T08:12:19.000Z</time>
</trkpt>
<trkpt lat="46.0433160" lon="10.3294100">
	<ele>1013.20</ele>
	<time>2025-07-30T08:12:20.000Z</time>
</trkpt>
<trkpt lat="46.0433200" lon="10.3294290">
	<ele>1013.20</ele>
	<time>2025-07-30T08:12:21.000Z</time>
</trkpt>
<trkpt lat="46.0433240" lon="10.3294390">
	<ele>1013.00</ele>
	<time>2025-07-30T08:12:22.000Z</time>
</trkpt>
<trkpt lat="46.0433310" lon="10.3294500">
	<ele>1012.60</ele>
	<time>2025-07-30T08:12:23.000Z</time>
</trkpt>
<trkpt lat="46.0433350" lon="10.3294610">
	<ele>1012.40</ele>
	<time>2025-07-30T08:12:24.000Z</time>
</trkpt>
<trkpt lat="46.0433380" lon="10.3294740">
	<ele>1012.20</ele>
	<time>2025-07-30T08:12:25.000Z</time>
</trkpt>
<trkpt lat="46.0433450" lon="10.3294940">
	<ele>1012.00</ele>
	<time>2025-07-30T08:12:26.000Z</time>
</trkpt>
<trkpt lat="46.0433480" lon="10.3295110">
	<ele>1011.80</ele>
	<time>2025-07-30T08:12:27.000Z</time>
</trkpt>
<trkpt lat="46.0433510" lon="10.3295280">
	<ele>1011.80</ele>
	<time>2025-07-30T08:12:28.000Z</time>
</trkpt>
<trkpt lat="46.0433470" lon="10.3295450">
	<ele>1011.40</ele>
	<time>2025-07-30T08:12:29.000Z</time>
</trkpt>
<trkpt lat="46.0433450" lon="10.3295560">
	<ele>1011.20</ele>
	<time>2025-07-30T08:12:30.000Z</time>
</trkpt>
<trkpt lat="46.0433500" lon="10.3295710">
	<ele>1011.20</ele>
	<time>2025-07-30T08:12:31.000Z</time>
</trkpt>
<trkpt lat="46.0433510" lon="10.3295820">
	<ele>1011.00</ele>
	<time>2025-07-30T08:12:32.000Z</time>
</trkpt>
<trkpt lat="46.0433520" lon="10.3295970">
	<ele>1011.00</ele>
	<time>2025-07-30T08:12:33.000Z</time>
</trkpt>
<trkpt lat="46.0433550" lon="10.3296100">
	<ele>1010.80</ele>
	<time>2025-07-30T08:12:34.000Z</time>
</trkpt>
<trkpt lat="46.0433620" lon="10.3296260">
	<ele>1010.60</ele>
	<time>2025-07-30T08:12:35.000Z</time>
</trkpt>
<trkpt lat="46.0433670" lon="10.3296320">
	<ele>1010.40</ele>
	<time>2025-07-30T08:12:36.000Z</time>
</trkpt>
<trkpt lat="46.0433710" lon="10.3296460">
	<ele>1010.40</ele>
	<time>2025-07-30T08:12:37.000Z</time>
</trkpt>
<trkpt lat="46.0433720" lon="10.3296480">
	<ele>1010.00</ele>
	<time>2025-07-30T08:12:38.000Z</time>
</trkpt>
<trkpt lat="46.0433740" lon="10.3296610">
	<ele>1009.80</ele>
	<time>2025-07-30T08:12:39.000Z</time>
</trkpt>
<trkpt lat="46.0433770" lon="10.3296740">
	<ele>1009.60</ele>
	<time>2025-07-30T08:12:40.000Z</time>
</trkpt>
<trkpt lat="46.0433790" lon="10.3296900">
	<ele>1009.40</ele>
	<time>2025-07-30T08:12:41.000Z</time>
</trkpt>
<trkpt lat="46.0433810" lon="10.3297060">
	<ele>1009.20</ele>
	<time>2025-07-30T08:12:42.000Z</time>
</trkpt>
<trkpt lat="46.0433850" lon="10.3297210">
	<ele>1009.00</ele>
	<time>2025-07-30T08:12:43.000Z</time>
</trkpt>
<trkpt lat="46.0433860" lon="10.3297340">
	<ele>1008.60</ele>
	<time>2025-07-30T08:12:44.000Z</time>
</trkpt>
<trkpt lat="46.0433850" lon="10.3297450">
	<ele>1008.40</ele>
	<time>2025-07-30T08:12:45.000Z</time>
</trkpt>
<trkpt lat="46.0433900" lon="10.3297580">
	<ele>1008.20</ele>
	<time>2025-07-30T08:12:46.000Z</time>
</trkpt>
<trkpt lat="46.0433950" lon="10.3297660">
	<ele>1007.80</ele>
	<time>2025-07-30T08:12:47.000Z</time>
</trkpt>
<trkpt lat="46.0433980" lon="10.3297720">
	<ele>1007.60</ele>
	<time>2025-07-30T08:12:48.000Z</time>
</trkpt>
<trkpt lat="46.0434010" lon="10.3297860">
	<ele>1007.20</ele>
	<time>2025-07-30T08:12:49.000Z</time>
</trkpt>
<trkpt lat="46.0434010" lon="10.3298060">
	<ele>1007.00</ele>
	<time>2025-07-30T08:12:50.000Z</time>
</trkpt>
<trkpt lat="46.0434020" lon="10.3298230">
	<ele>1006.60</ele>
	<time>2025-07-30T08:12:51.000Z</time>
</trkpt>
<trkpt lat="46.0434030" lon="10.3298300">
	<ele>1006.40</ele>
	<time>2025-07-30T08:12:52.000Z</time>
</trkpt>
<trkpt lat="46.0433970" lon="10.3298450">
	<ele>1006.20</ele>
	<time>2025-07-30T08:12:53.000Z</time>
</trkpt>
<trkpt lat="46.0433860" lon="10.3298600">
	<ele>1006.00</ele>
	<time>2025-07-30T08:12:54.000Z</time>
</trkpt>
<trkpt lat="46.0433800" lon="10.3298710">
	<ele>1005.60</ele>
	<time>2025-07-30T08:12:55.000Z</time>
</trkpt>
<trkpt lat="46.0433830" lon="10.3298760">
	<ele>1005.40</ele>
	<time>2025-07-30T08:12:56.000Z</time>
</trkpt>
<trkpt lat="46.0433850" lon="10.3298800">
	<ele>1005.20</ele>
	<time>2025-07-30T08:12:57.000Z</time>
</trkpt>
<trkpt lat="46.0433880" lon="10.3298820">
	<ele>1004.80</ele>
	<time>2025-07-30T08:12:58.000Z</time>
</trkpt>
<trkpt lat="46.0433880" lon="10.3298870">
	<ele>1004.60</ele>
	<time>2025-07-30T08:12:59.000Z</time>
</trkpt>
<trkpt lat="46.0433810" lon="10.3298850">
	<ele>1004.20</ele>
	<time>2025-07-30T08:13:00.000Z</time>
</trkpt>
<trkpt lat="46.0433730" lon="10.3298930">
	<ele>1004.00</ele>
	<time>2025-07-30T08:13:01.000Z</time>
</trkpt>
<trkpt lat="46.0433760" lon="10.3299170">
	<ele>1004.00</ele>
	<time>2025-07-30T08:13:02.000Z</time>
</trkpt>
<trkpt lat="46.0433780" lon="10.3299430">
	<ele>1003.80</ele>
	<time>2025-07-30T08:13:03.000Z</time>
</trkpt>
<trkpt lat="46.0433740" lon="10.3299610">
	<ele>1003.60</ele>
	<time>2025-07-30T08:13:04.000Z</time>
</trkpt>
<trkpt lat="46.0433790" lon="10.3299780">
	<ele>1003.20</ele>
	<time>2025-07-30T08:13:05.000Z</time>
</trkpt>
<trkpt lat="46.0433840" lon="10.3299900">
	<ele>1003.00</ele>
	<time>2025-07-30T08:13:06.000Z</time>
</trkpt>
<trkpt lat="46.0433850" lon="10.3299950">
	<ele>1002.80</ele>
	<time>2025-07-30T08:13:07.000Z</time>
</trkpt>
<trkpt lat="46.0433810" lon="10.3300110">
	<ele>1002.40</ele>
	<time>2025-07-30T08:13:08.000Z</time>
</trkpt>
<trkpt lat="46.0433780" lon="10.3300220">
	<ele>1002.20</ele>
	<time>2025-07-30T08:13:09.000Z</time>
</trkpt>
<trkpt lat="46.0433830" lon="10.3300310">
	<ele>1001.80</ele>
	<time>2025-07-30T08:13:10.000Z</time>
</trkpt>
<trkpt lat="46.0433910" lon="10.3300460">
	<ele>1001.40</ele>
	<time>2025-07-30T08:13:11.000Z</time>
</trkpt>
<trkpt lat="46.0433960" lon="10.3300610">
	<ele>1001.20</ele>
	<time>2025-07-30T08:13:12.000Z</time>
</trkpt>
<trkpt lat="46.0433990" lon="10.3300730">
	<ele>1001.00</ele>
	<time>2025-07-30T08:13:13.000Z</time>
</trkpt>
<trkpt lat="46.0433940" lon="10.3300860">
	<ele>1000.60</ele>
	<time>2025-07-30T08:13:14.000Z</time>
</trkpt>
<trkpt lat="46.0433900" lon="10.3301040">
	<ele>1000.20</ele>
	<time>2025-07-30T08:13:15.000Z</time>
</trkpt>
<trkpt lat="46.0433870" lon="10.3301250">
	<ele>1000.00</ele>
	<time>2025-07-30T08:13:16.000Z</time>
</trkpt>
<trkpt lat="46.0433810" lon="10.3301450">
	<ele>999.80</ele>
	<time>2025-07-30T08:13:17.000Z</time>
</trkpt>
<trkpt lat="46.0433780" lon="10.3301630">
	<ele>999.60</ele>
	<time>2025-07-30T08:13:18.000Z</time>
</trkpt>
<trkpt lat="46.0433770" lon="10.3301740">
	<ele>999.40</ele>
	<time>2025-07-30T08:13:19.000Z</time>
</trkpt>
<trkpt lat="46.0433760" lon="10.3301770">
	<ele>999.20</ele>
	<time>2025-07-30T08:13:20.000Z</time>
</trkpt>
<trkpt lat="46.0433740" lon="10.3301830">
	<ele>999.00</ele>
	<time>2025-07-30T08:13:21.000Z</time>
</trkpt>
<trkpt lat="46.0433710" lon="10.3301890">
	<ele>998.80</ele>
	<time>2025-07-30T08:13:22.000Z</time>
</trkpt>
<trkpt lat="46.0433710" lon="10.3301910">
	<ele>998.60</ele>
	<time>2025-07-30T08:13:23.000Z</time>
</trkpt>
<trkpt lat="46.0433670" lon="10.3301960">
	<ele>998.20</ele>
	<time>2025-07-30T08:13:24.000Z</time>
</trkpt>
<trkpt lat="46.0433630" lon="10.3302110">
	<ele>998.00</ele>
	<time>2025-07-30T08:13:25.000Z</time>
</trkpt>
<trkpt lat="46.0433610" lon="10.3302290">
	<ele>997.80</ele>
	<time>2025-07-30T08:13:26.000Z</time>
</trkpt>
<trkpt lat="46.0433570" lon="10.3302400">
	<ele>997.40</ele>
	<time>2025-07-30T08:13:27.000Z</time>
</trkpt>
<trkpt lat="46.0433470" lon="10.3302440">
	<ele>997.00</ele>
	<time>2025-07-30T08:13:28.000Z</time>
</trkpt>
<trkpt lat="46.0433410" lon="10.3302470">
	<ele>996.80</ele>
	<time>2025-07-30T08:13:29.000Z</time>
</trkpt>
<trkpt lat="46.0433330" lon="10.3302580">
	<ele>996.40</ele>
	<time>2025-07-30T08:13:30.000Z</time>
</trkpt>
<trkpt lat="46.0433360" lon="10.3302620">
	<ele>996.00</ele>
	<time>2025-07-30T08:13:31.000Z</time>
</trkpt>
<trkpt lat="46.0433340" lon="10.3302670">
	<ele>995.60</ele>
	<time>2025-07-30T08:13:32.000Z</time>
</trkpt>
<trkpt lat="46.0433120" lon="10.3302770">
	<ele>995.20</ele>
	<time>2025-07-30T08:13:33.000Z</time>
</trkpt>
<trkpt lat="46.0432900" lon="10.3302950">
	<ele>994.80</ele>
	<time>2025-07-30T08:13:34.000Z</time>
</trkpt>
<trkpt lat="46.0432880" lon="10.3303300">
	<ele>994.40</ele>
	<time>2025-07-30T08:13:35.000Z</time>
</trkpt>
<trkpt lat="46.0432840" lon="10.3303360">
	<ele>994.20</ele>
	<time>2025-07-30T08:13:36.000Z</time>
</trkpt>
<trkpt lat="46.0432820" lon="10.3303380">
	<ele>993.80</ele>
	<time>2025-07-30T08:13:37.000Z</time>
</trkpt>
<trkpt lat="46.0432780" lon="10.3303360">
	<ele>993.60</ele>
	<time>2025-07-30T08:13:38.000Z</time>
</trkpt>
<trkpt lat="46.0432760" lon="10.3303350">
	<ele>993.20</ele>
	<time>2025-07-30T08:13:39.000Z</time>
</trkpt>
<trkpt lat="46.0432720" lon="10.3303360">
	<ele>993.00</ele>
	<time>2025-07-30T08:13:40.000Z</time>
</trkpt>
<trkpt lat="46.0432610" lon="10.3303350">
	<ele>992.80</ele>
	<time>2025-07-30T08:13:41.000Z</time>
</trkpt>
<trkpt lat="46.0432540" lon="10.3303390">
	<ele>992.60</ele>
	<time>2025-07-30T08:13:42.000Z</time>
</trkpt>
<trkpt lat="46.0432470" lon="10.3303330">
	<ele>992.60</ele>
	<time>2025-07-30T08:13:43.000Z</time>
</trkpt>
<trkpt lat="46.0432340" lon="10.3303330">
	<ele>992.20</ele>
	<time>2025-07-30T08:13:44.000Z</time>
</trkpt>
<trkpt lat="46.0432230" lon="10.3303450">
	<ele>992.00</ele>
	<time>2025-07-30T08:13:45.000Z</time>
</trkpt>
<trkpt lat="46.0432130" lon="10.3303520">
	<ele>992.00</ele>
	<time>2025-07-30T08:13:46.000Z</time>
</trkpt>
<trkpt lat="46.0432010" lon="10.3303570">
	<ele>991.80</ele>
	<time>2025-07-30T08:13:47.000Z</time>
</trkpt>
<trkpt lat="46.0431910" lon="10.3303590">
	<ele>991.60</ele>
	<time>2025-07-30T08:13:48.000Z</time>
</trkpt>
<trkpt lat="46.0431820" lon="10.3303620">
	<ele>991.60</ele>
	<time>2025-07-30T08:13:49.000Z</time>
</trkpt>
<trkpt lat="46.0431740" lon="10.3303640">
	<ele>991.40</ele>
	<time>2025-07-30T08:13:50.000Z</time>
</trkpt>
<trkpt lat="46.0431680" lon="10.3303650">
	<ele>991.20</ele>
	<time>2025-07-30T08:13:51.000Z</time>
</trkpt>
<trkpt lat="46.0431590" lon="10.3303640">
	<ele>991.00</ele>
	<time>2025-07-30T08:13:52.000Z</time>
</trkpt>
<trkpt lat="46.0431490" lon="10.3303620">
	<ele>991.00</ele>
	<time>2025-07-30T08:13:53.000Z</time>
</trkpt>
<trkpt lat="46.0431410" lon="10.3303610">
	<ele>990.80</ele>
	<time>2025-07-30T08:13:54.000Z</time>
</trkpt>
<trkpt lat="46.0431360" lon="10.3303620">
	<ele>990.80</ele>
	<time>2025-07-30T08:13:55.000Z</time>
</trkpt>
<trkpt lat="46.0431280" lon="10.3303590">
	<ele>990.60</ele>
	<time>2025-07-30T08:13:56.000Z</time>
</trkpt>
<trkpt lat="46.0431200" lon="10.3303590">
	<ele>990.20</ele>
	<time>2025-07-30T08:13:57.000Z</time>
</trkpt>
<trkpt lat="46.0431090" lon="10.3303530">
	<ele>990.00</ele>
	<time>2025-07-30T08:13:58.000Z</time>
</trkpt>
<trkpt lat="46.0431060" lon="10.3303550">
	<ele>989.80</ele>
	<time>2025-07-30T08:13:59.000Z</time>
</trkpt>
<trkpt lat="46.0431030" lon="10.3303530">
	<ele>989.60</ele>
	<time>2025-07-30T08:14:00.000Z</time>
</trkpt>
<trkpt lat="46.0431030" lon="10.3303520">
	<ele>989.60</ele>
	<time>2025-07-30T08:14:01.000Z</time>
</trkpt>
<trkpt lat="46.0431030" lon="10.3303510">
	<ele>989.40</ele>
	<time>2025-07-30T08:14:02.000Z</time>
</trkpt>
<trkpt lat="46.0431010" lon="10.3303500">
	<ele>989.40</ele>
	<time>2025-07-30T08:14:03.000Z</time>
</trkpt>
<trkpt lat="46.0430930" lon="10.3303470">
	<ele>989.40</ele>
	<time>2025-07-30T08:14:04.000Z</time>
</trkpt>
<trkpt lat="46.0430910" lon="10.3303460">
	<ele>989.40</ele>
	<time>2025-07-30T08:14:05.000Z</time>
</trkpt>
<trkpt lat="46.0430890" lon="10.3303440">
	<ele>989.40</ele>
	<time>2025-07-30T08:14:06.000Z</time>
</trkpt>
<trkpt lat="46.0430880" lon="10.3303410">
	<ele>989.40</ele>
	<time>2025-07-30T08:14:07.000Z</time>
</trkpt>
<trkpt lat="46.0430880" lon="10.3303410">
	<ele>989.40</ele>
	<time>2025-07-30T08:14:08.000Z</time>
</trkpt>
<trkpt lat="46.0430870" lon="10.3303410">
	<ele>989.40</ele>
	<time>2025-07-30T08:14:09.000Z</time>
</trkpt>
<trkpt lat="46.0430870" lon="10.3303410">
	<ele>989.20</ele>
	<time>2025-07-30T08:14:10.000Z</time>
</trkpt>
<trkpt lat="46.0430870" lon="10.3303410">
	<ele>989.20</ele>
	<time>2025-07-30T08:14:11.000Z</time>
</trkpt>
<trkpt lat="46.0430870" lon="10.3303400">
	<ele>989.20</ele>
	<time>2025-07-30T08:14:12.000Z</time>
</trkpt>
<trkpt lat="46.0430880" lon="10.3303370">
	<ele>989.20</ele>
	<time>2025-07-30T08:14:13.000Z</time>
</trkpt>
<trkpt lat="46.0430890" lon="10.3303280">
	<ele>989.20</ele>
	<time>2025-07-30T08:14:14.000Z</time>
</trkpt>
<trkpt lat="46.0430870" lon="10.3303240">
	<ele>989.20</ele>
	<time>2025-07-30T08:14:15.000Z</time>
</trkpt>
<trkpt lat="46.0430870" lon="10.3303210">
	<ele>989.20</ele>
	<time>2025-07-30T08:14:16.000Z</time>
</trkpt>
<trkpt lat="46.0430870" lon="10.3303190">
	<ele>989.20</ele>
	<time>2025-07-30T08:14:17.000Z</time>
</trkpt>
<trkpt lat="46.0430870" lon="10.3303190">
	<ele>989.20</ele>
	<time>2025-07-30T08:14:18.000Z</time>
</trkpt>
<trkpt lat="46.0430870" lon="10.3303190">
	<ele>989.20</ele>
	<time>2025-07-30T08:14:19.000Z</time>
</trkpt>
<trkpt lat="46.0430870" lon="10.3303190">
	<ele>989.20</ele>
	<time>2025-07-30T08:14:20.000Z</time>
</trkpt>
<trkpt lat="46.0430870" lon="10.3303190">
	<ele>989.20</ele>
	<time>2025-07-30T08:14:21.000Z</time>
</trkpt>
<trkpt lat="46.0430870" lon="10.3303190">
	<ele>989.20</ele>
	<time>2025-07-30T08:14:22.000Z</time>
</trkpt>
<trkpt lat="46.0430870" lon="10.3303190">
	<ele>989.20</ele>
	<time>2025-07-30T08:14:23.000Z</time>
</trkpt>
<trkpt lat="46.0430870" lon="10.3303190">
	<ele>989.20</ele>
	<time>2025-07-30T08:14:24.000Z</time>
</trkpt>
<trkpt lat="46.0430870" lon="10.3303190">
	<ele>989.20</ele>
	<time>2025-07-30T08:14:25.000Z</time>
</trkpt>
<trkpt lat="46.0430870" lon="10.3303190">
	<ele>989.20</ele>
	<time>2025-07-30T08:14:26.000Z</time>
</trkpt>
<trkpt lat="46.0430870" lon="10.3303190">
	<ele>989.20</ele>
	<time>2025-07-30T08:14:27.000Z</time>
</trkpt>
<trkpt lat="46.0430870" lon="10.3303200">
	<ele>989.20</ele>
	<time>2025-07-30T08:14:28.000Z</time>
</trkpt>
<trkpt lat="46.0430870" lon="10.3303210">
	<ele>989.20</ele>
	<time>2025-07-30T08:14:29.000Z</time>
</trkpt>
<trkpt lat="46.0430870" lon="10.3303210">
	<ele>989.20</ele>
	<time>2025-07-30T08:14:30.000Z</time>
</trkpt>
<trkpt lat="46.0430870" lon="10.3303220">
	<ele>989.00</ele>
	<time>2025-07-30T08:14:31.000Z</time>
</trkpt>
<trkpt lat="46.0430870" lon="10.3303240">
	<ele>989.00</ele>
	<time>2025-07-30T08:14:32.000Z</time>
</trkpt>
<trkpt lat="46.0430870" lon="10.3303240">
	<ele>988.80</ele>
	<time>2025-07-30T08:14:33.000Z</time>
</trkpt>
<trkpt lat="46.0430820" lon="10.3303260">
	<ele>988.60</ele>
	<time>2025-07-30T08:14:34.000Z</time>
</trkpt>
<trkpt lat="46.0430690" lon="10.3303300">
	<ele>988.40</ele>
	<time>2025-07-30T08:14:35.000Z</time>
</trkpt>
<trkpt lat="46.0430570" lon="10.3303310">
	<ele>988.20</ele>
	<time>2025-07-30T08:14:36.000Z</time>
</trkpt>
<trkpt lat="46.0430430" lon="10.3303320">
	<ele>988.00</ele>
	<time>2025-07-30T08:14:37.000Z</time>
</trkpt>
<trkpt lat="46.0430300" lon="10.3303290">
	<ele>987.80</ele>
	<time>2025-07-30T08:14:38.000Z</time>
</trkpt>
<trkpt lat="46.0430180" lon="10.3303250">
	<ele>987.60</ele>
	<time>2025-07-30T08:14:39.000Z</time>
</trkpt>
<trkpt lat="46.0430040" lon="10.3303270">
	<ele>987.20</ele>
	<time>2025-07-30T08:14:40.000Z</time>
</trkpt>
<trkpt lat="46.0429890" lon="10.3303260">
	<ele>987.00</ele>
	<time>2025-07-30T08:14:41.000Z</time>
</trkpt>
<trkpt lat="46.0429740" lon="10.3303240">
	<ele>986.80</ele>
	<time>2025-07-30T08:14:42.000Z</time>
</trkpt>
<trkpt lat="46.0429550" lon="10.3303220">
	<ele>986.60</ele>
	<time>2025-07-30T08:14:43.000Z</time>
</trkpt>
<trkpt lat="46.0429430" lon="10.3303200">
	<ele>986.40</ele>
	<time>2025-07-30T08:14:44.000Z</time>
</trkpt>
<trkpt lat="46.0429310" lon="10.3303180">
	<ele>986.20</ele>
	<time>2025-07-30T08:14:45.000Z</time>
</trkpt>
<trkpt lat="46.0429220" lon="10.3303130">
	<ele>985.80</ele>
	<time>2025-07-30T08:14:46.000Z</time>
</trkpt>
<trkpt lat="46.0429140" lon="10.3303090">
	<ele>985.60</ele>
	<time>2025-07-30T08:14:47.000Z</time>
</trkpt>
<trkpt lat="46.0429030" lon="10.3303050">
	<ele>985.40</ele>
	<time>2025-07-30T08:14:48.000Z</time>
</trkpt>
<trkpt lat="46.0428910" lon="10.3302990">
	<ele>985.00</ele>
	<time>2025-07-30T08:14:49.000Z</time>
</trkpt>
<trkpt lat="46.0428820" lon="10.3302910">
	<ele>984.60</ele>
	<time>2025-07-30T08:14:50.000Z</time>
</trkpt>
<trkpt lat="46.0428710" lon="10.3302880">
	<ele>984.40</ele>
	<time>2025-07-30T08:14:51.000Z</time>
</trkpt>
<trkpt lat="46.0428600" lon="10.3302790">
	<ele>984.20</ele>
	<time>2025-07-30T08:14:52.000Z</time>
</trkpt>
<trkpt lat="46.0428530" lon="10.3302700">
	<ele>983.80</ele>
	<time>2025-07-30T08:14:53.000Z</time>
</trkpt>
<trkpt lat="46.0428430" lon="10.3302620">
	<ele>983.60</ele>
	<time>2025-07-30T08:14:54.000Z</time>
</trkpt>
<trkpt lat="46.0428290" lon="10.3302550">
	<ele>983.40</ele>
	<time>2025-07-30T08:14:55.000Z</time>
</trkpt>
<trkpt lat="46.0428150" lon="10.3302470">
	<ele>983.20</ele>
	<time>2025-07-30T08:14:56.000Z</time>
</trkpt>
<trkpt lat="46.0428060" lon="10.3302360">
	<ele>983.00</ele>
	<time>2025-07-30T08:14:57.000Z</time>
</trkpt>
<trkpt lat="46.0427940" lon="10.3302240">
	<ele>982.80</ele>
	<time>2025-07-30T08:14:58.000Z</time>
</trkpt>
<trkpt lat="46.0427820" lon="10.3302060">
	<ele>982.60</ele>
	<time>2025-07-30T08:14:59.000Z</time>
</trkpt>
<trkpt lat="46.0427720" lon="10.3301950">
	<ele>982.60</ele>
	<time>2025-07-30T08:15:00.000Z</time>
</trkpt>
<trkpt lat="46.0427650" lon="10.3301920">
	<ele>982.40</ele>
	<time>2025-07-30T08:15:01.000Z</time>
</trkpt>
<trkpt lat="46.0427550" lon="10.3301840">
	<ele>982.40</ele>
	<time>2025-07-30T08:15:02.000Z</time>
</trkpt>
<trkpt lat="46.0427450" lon="10.3301740">
	<ele>982.20</ele>
	<time>2025-07-30T08:15:03.000Z</time>
</trkpt>
<trkpt lat="46.0427360" lon="10.3301630">
	<ele>982.00</ele>
	<time>2025-07-30T08:15:04.000Z</time>
</trkpt>
<trkpt lat="46.0427230" lon="10.3301520">
	<ele>982.00</ele>
	<time>2025-07-30T08:15:05.000Z</time>
</trkpt>
<trkpt lat="46.0427070" lon="10.3301430">
	<ele>982.00</ele>
	<time>2025-07-30T08:15:06.000Z</time>
</trkpt>
<trkpt lat="46.0426920" lon="10.3301350">
	<ele>981.80</ele>
	<time>2025-07-30T08:15:07.000Z</time>
</trkpt>
<trkpt lat="46.0426800" lon="10.3301240">
	<ele>981.80</ele>
	<time>2025-07-30T08:15:08.000Z</time>
</trkpt>
<trkpt lat="46.0426710" lon="10.3301130">
	<ele>981.60</ele>
	<time>2025-07-30T08:15:09.000Z</time>
</trkpt>
<trkpt lat="46.0426610" lon="10.3301120">
	<ele>981.60</ele>
	<time>2025-07-30T08:15:10.000Z</time>
</trkpt>
<trkpt lat="46.0426500" lon="10.3301080">
	<ele>981.60</ele>
	<time>2025-07-30T08:15:11.000Z</time>
</trkpt>
<trkpt lat="46.0426390" lon="10.3300950">
	<ele>981.40</ele>
	<time>2025-07-30T08:15:12.000Z</time>
</trkpt>
<trkpt lat="46.0426270" lon="10.3300880">
	<ele>981.20</ele>
	<time>2025-07-30T08:15:13.000Z</time>
</trkpt>
<trkpt lat="46.0426160" lon="10.3300800">
	<ele>981.20</ele>
	<time>2025-07-30T08:15:14.000Z</time>
</trkpt>
<trkpt lat="46.0426060" lon="10.3300760">
	<ele>981.20</ele>
	<time>2025-07-30T08:15:15.000Z</time>
</trkpt>
<trkpt lat="46.0425960" lon="10.3300730">
	<ele>981.00</ele>
	<time>2025-07-30T08:15:16.000Z</time>
</trkpt>
<trkpt lat="46.0425920" lon="10.3300620">
	<ele>981.00</ele>
	<time>2025-07-30T08:15:17.000Z</time>
</trkpt>
<trkpt lat="46.0425830" lon="10.3300510">
	<ele>981.00</ele>
	<time>2025-07-30T08:15:18.000Z</time>
</trkpt>
<trkpt lat="46.0425720" lon="10.3300440">
	<ele>980.80</ele>
	<time>2025-07-30T08:15:19.000Z</time>
</trkpt>
<trkpt lat="46.0425640" lon="10.3300340">
	<ele>980.60</ele>
	<time>2025-07-30T08:15:20.000Z</time>
</trkpt>
<trkpt lat="46.0425550" lon="10.3300190">
	<ele>980.40</ele>
	<time>2025-07-30T08:15:21.000Z</time>
</trkpt>
<trkpt lat="46.0425430" lon="10.3300060">
	<ele>980.20</ele>
	<time>2025-07-30T08:15:22.000Z</time>
</trkpt>
<trkpt lat="46.0425310" lon="10.3299950">
	<ele>980.00</ele>
	<time>2025-07-30T08:15:23.000Z</time>
</trkpt>
<trkpt lat="46.0425240" lon="10.3299830">
	<ele>980.00</ele>
	<time>2025-07-30T08:15:24.000Z</time>
</trkpt>
<trkpt lat="46.0425140" lon="10.3299730">
	<ele>979.80</ele>
	<time>2025-07-30T08:15:25.000Z</time>
</trkpt>
<trkpt lat="46.0425090" lon="10.3299640">
	<ele>979.60</ele>
	<time>2025-07-30T08:15:26.000Z</time>
</trkpt>
<trkpt lat="46.0425010" lon="10.3299570">
	<ele>979.40</ele>
	<time>2025-07-30T08:15:27.000Z</time>
</trkpt>
<trkpt lat="46.0424980" lon="10.3299370">
	<ele>979.40</ele>
	<time>2025-07-30T08:15:28.000Z</time>
</trkpt>
<trkpt lat="46.0424940" lon="10.3299180">
	<ele>979.20</ele>
	<time>2025-07-30T08:15:29.000Z</time>
</trkpt>
<trkpt lat="46.0424870" lon="10.3299060">
	<ele>979.00</ele>
	<time>2025-07-30T08:15:30.000Z</time>
</trkpt>
<trkpt lat="46.0424780" lon="10.3298940">
	<ele>979.00</ele>
	<time>2025-07-30T08:15:31.000Z</time>
</trkpt>
<trkpt lat="46.0424710" lon="10.3298900">
	<ele>979.00</ele>
	<time>2025-07-30T08:15:32.000Z</time>
</trkpt>
<trkpt lat="46.0424660" lon="10.3298750">
	<ele>978.80</ele>
	<time>2025-07-30T08:15:33.000Z</time>
</trkpt>
<trkpt lat="46.0424620" lon="10.3298630">
	<ele>978.60</ele>
	<time>2025-07-30T08:15:34.000Z</time>
</trkpt>
<trkpt lat="46.0424490" lon="10.3298560">
	<ele>978.60</ele>
	<time>2025-07-30T08:15:35.000Z</time>
</trkpt>
<trkpt lat="46.0424360" lon="10.3298400">
	<ele>978.40</ele>
	<time>2025-07-30T08:15:36.000Z</time>
</trkpt>
<trkpt lat="46.0424220" lon="10.3298310">
	<ele>978.20</ele>
	<time>2025-07-30T08:15:37.000Z</time>
</trkpt>
<trkpt lat="46.0424050" lon="10.3298170">
	<ele>978.00</ele>
	<time>2025-07-30T08:15:38.000Z</time>
</trkpt>
<trkpt lat="46.0423930" lon="10.3298090">
	<ele>977.80</ele>
	<time>2025-07-30T08:15:39.000Z</time>
</trkpt>
<trkpt lat="46.0423790" lon="10.3297930">
	<ele>977.40</ele>
	<time>2025-07-30T08:15:40.000Z</time>
</trkpt>
<trkpt lat="46.0423700" lon="10.3297830">
	<ele>977.20</ele>
	<time>2025-07-30T08:15:41.000Z</time>
</trkpt>
<trkpt lat="46.0423650" lon="10.3297830">
	<ele>977.00</ele>
	<time>2025-07-30T08:15:42.000Z</time>
</trkpt>
<trkpt lat="46.0423630" lon="10.3297730">
	<ele>976.80</ele>
	<time>2025-07-30T08:15:43.000Z</time>
</trkpt>
<trkpt lat="46.0423590" lon="10.3297720">
	<ele>976.60</ele>
	<time>2025-07-30T08:15:44.000Z</time>
</trkpt>
<trkpt lat="46.0423510" lon="10.3297640">
	<ele>976.40</ele>
	<time>2025-07-30T08:15:45.000Z</time>
</trkpt>
<trkpt lat="46.0423410" lon="10.3297580">
	<ele>976.20</ele>
	<time>2025-07-30T08:15:46.000Z</time>
</trkpt>
<trkpt lat="46.0423310" lon="10.3297510">
	<ele>975.80</ele>
	<time>2025-07-30T08:15:47.000Z</time>
</trkpt>
<trkpt lat="46.0423170" lon="10.3297450">
	<ele>975.40</ele>
	<time>2025-07-30T08:15:48.000Z</time>
</trkpt>
<trkpt lat="46.0423040" lon="10.3297450">
	<ele>975.40</ele>
	<time>2025-07-30T08:15:49.000Z</time>
</trkpt>
<trkpt lat="46.0422990" lon="10.3297470">
	<ele>975.00</ele>
	<time>2025-07-30T08:15:50.000Z</time>
</trkpt>
<trkpt lat="46.0422930" lon="10.3297480">
	<ele>974.60</ele>
	<time>2025-07-30T08:15:51.000Z</time>
</trkpt>
<trkpt lat="46.0422850" lon="10.3297440">
	<ele>974.40</ele>
	<time>2025-07-30T08:15:52.000Z</time>
</trkpt>
<trkpt lat="46.0422780" lon="10.3297450">
	<ele>974.20</ele>
	<time>2025-07-30T08:15:53.000Z</time>
</trkpt>
<trkpt lat="46.0422730" lon="10.3297480">
	<ele>974.00</ele>
	<time>2025-07-30T08:15:54.000Z</time>
</trkpt>
<trkpt lat="46.0422720" lon="10.3297490">
	<ele>973.80</ele>
	<time>2025-07-30T08:15:55.000Z</time>
</trkpt>
<trkpt lat="46.0422700" lon="10.3297500">
	<ele>973.60</ele>
	<time>2025-07-30T08:15:56.000Z</time>
</trkpt>
<trkpt lat="46.0422670" lon="10.3297550">
	<ele>973.40</ele>
	<time>2025-07-30T08:15:57.000Z</time>
</trkpt>
<trkpt lat="46.0422540" lon="10.3297620">
	<ele>973.40</ele>
	<time>2025-07-30T08:15:58.000Z</time>
</trkpt>
<trkpt lat="46.0422500" lon="10.3297650">
	<ele>973.20</ele>
	<time>2025-07-30T08:15:59.000Z</time>
</trkpt>
<trkpt lat="46.0422490" lon="10.3297730">
	<ele>973.00</ele>
	<time>2025-07-30T08:16:00.000Z</time>
</trkpt>
<trkpt lat="46.0422490" lon="10.3297710">
	<ele>972.80</ele>
	<time>2025-07-30T08:16:01.000Z</time>
</trkpt>
<trkpt lat="46.0422530" lon="10.3297630">
	<ele>972.60</ele>
	<time>2025-07-30T08:16:02.000Z</time>
</trkpt>
<trkpt lat="46.0422520" lon="10.3297640">
	<ele>972.60</ele>
	<time>2025-07-30T08:16:03.000Z</time>
</trkpt>
<trkpt lat="46.0422520" lon="10.3297640">
	<ele>972.40</ele>
	<time>2025-07-30T08:16:04.000Z</time>
</trkpt>
<trkpt lat="46.0422540" lon="10.3297630">
	<ele>972.40</ele>
	<time>2025-07-30T08:16:05.000Z</time>
</trkpt>
<trkpt lat="46.0422510" lon="10.3297580">
	<ele>972.40</ele>
	<time>2025-07-30T08:16:06.000Z</time>
</trkpt>
<trkpt lat="46.0422480" lon="10.3297590">
	<ele>972.40</ele>
	<time>2025-07-30T08:16:07.000Z</time>
</trkpt>
<trkpt lat="46.0422460" lon="10.3297630">
	<ele>972.40</ele>
	<time>2025-07-30T08:16:08.000Z</time>
</trkpt>
<trkpt lat="46.0422400" lon="10.3297600">
	<ele>972.20</ele>
	<time>2025-07-30T08:16:09.000Z</time>
</trkpt>
<trkpt lat="46.0422340" lon="10.3297610">
	<ele>972.20</ele>
	<time>2025-07-30T08:16:10.000Z</time>
</trkpt>
<trkpt lat="46.0422300" lon="10.3297640">
	<ele>972.00</ele>
	<time>2025-07-30T08:16:11.000Z</time>
</trkpt>
<trkpt lat="46.0422270" lon="10.3297640">
	<ele>971.80</ele>
	<time>2025-07-30T08:16:12.000Z</time>
</trkpt>
<trkpt lat="46.0422200" lon="10.3297700">
	<ele>971.60</ele>
	<time>2025-07-30T08:16:13.000Z</time>
</trkpt>
<trkpt lat="46.0422110" lon="10.3297740">
	<ele>971.20</ele>
	<time>2025-07-30T08:16:14.000Z</time>
</trkpt>
<trkpt lat="46.0422010" lon="10.3297760">
	<ele>971.00</ele>
	<time>2025-07-30T08:16:15.000Z</time>
</trkpt>
<trkpt lat="46.0421880" lon="10.3297830">
	<ele>970.80</ele>
	<time>2025-07-30T08:16:16.000Z</time>
</trkpt>
<trkpt lat="46.0421850" lon="10.3297880">
	<ele>970.40</ele>
	<time>2025-07-30T08:16:17.000Z</time>
</trkpt>
<trkpt lat="46.0421780" lon="10.3297980">
	<ele>970.00</ele>
	<time>2025-07-30T08:16:18.000Z</time>
</trkpt>
<trkpt lat="46.0421700" lon="10.3298050">
	<ele>969.60</ele>
	<time>2025-07-30T08:16:19.000Z</time>
</trkpt>
<trkpt lat="46.0421630" lon="10.3298140">
	<ele>969.40</ele>
	<time>2025-07-30T08:16:20.000Z</time>
</trkpt>
<trkpt lat="46.0421540" lon="10.3298260">
	<ele>969.20</ele>
	<time>2025-07-30T08:16:21.000Z</time>
</trkpt>
<trkpt lat="46.0421410" lon="10.3298350">
	<ele>969.00</ele>
	<time>2025-07-30T08:16:22.000Z</time>
</trkpt>
<trkpt lat="46.0421310" lon="10.3298430">
	<ele>968.80</ele>
	<time>2025-07-30T08:16:23.000Z</time>
</trkpt>
<trkpt lat="46.0421160" lon="10.3298560">
	<ele>968.80</ele>
	<time>2025-07-30T08:16:24.000Z</time>
</trkpt>
<trkpt lat="46.0421020" lon="10.3298700">
	<ele>968.60</ele>
	<time>2025-07-30T08:16:25.000Z</time>
</trkpt>
<trkpt lat="46.0420890" lon="10.3298880">
	<ele>968.60</ele>
	<time>2025-07-30T08:16:26.000Z</time>
</trkpt>
<trkpt lat="46.0420800" lon="10.3299100">
	<ele>968.60</ele>
	<time>2025-07-30T08:16:27.000Z</time>
</trkpt>
<trkpt lat="46.0420720" lon="10.3299320">
	<ele>968.40</ele>
	<time>2025-07-30T08:16:28.000Z</time>
</trkpt>
<trkpt lat="46.0420640" lon="10.3299480">
	<ele>968.40</ele>
	<time>2025-07-30T08:16:29.000Z</time>
</trkpt>
<trkpt lat="46.0420590" lon="10.3299620">
	<ele>968.20</ele>
	<time>2025-07-30T08:16:30.000Z</time>
</trkpt>
<trkpt lat="46.0420600" lon="10.3299730">
	<ele>968.20</ele>
	<time>2025-07-30T08:16:31.000Z</time>
</trkpt>
<trkpt lat="46.0420560" lon="10.3299870">
	<ele>968.20</ele>
	<time>2025-07-30T08:16:32.000Z</time>
</trkpt>
<trkpt lat="46.0420530" lon="10.3299970">
	<ele>968.00</ele>
	<time>2025-07-30T08:16:33.000Z</time>
</trkpt>
<trkpt lat="46.0420470" lon="10.3300200">
	<ele>967.80</ele>
	<time>2025-07-30T08:16:34.000Z</time>
</trkpt>
<trkpt lat="46.0420400" lon="10.3300330">
	<ele>967.80</ele>
	<time>2025-07-30T08:16:35.000Z</time>
</trkpt>
<trkpt lat="46.0420400" lon="10.3300500">
	<ele>967.60</ele>
	<time>2025-07-30T08:16:36.000Z</time>
</trkpt>
<trkpt lat="46.0420410" lon="10.3300580">
	<ele>967.60</ele>
	<time>2025-07-30T08:16:37.000Z</time>
</trkpt>
<trkpt lat="46.0420340" lon="10.3300720">
	<ele>967.40</ele>
	<time>2025-07-30T08:16:38.000Z</time>
</trkpt>
<trkpt lat="46.0420230" lon="10.3300920">
	<ele>967.20</ele>
	<time>2025-07-30T08:16:39.000Z</time>
</trkpt>
<trkpt lat="46.0420140" lon="10.3301120">
	<ele>967.20</ele>
	<time>2025-07-30T08:16:40.000Z</time>
</trkpt>
<trkpt lat="46.0420030" lon="10.3301270">
	<ele>967.00</ele>
	<time>2025-07-30T08:16:41.000Z</time>
</trkpt>
<trkpt lat="46.0419980" lon="10.3301410">
	<ele>966.80</ele>
	<time>2025-07-30T08:16:42.000Z</time>
</trkpt>
<trkpt lat="46.0419910" lon="10.3301620">
	<ele>966.60</ele>
	<time>2025-07-30T08:16:43.000Z</time>
</trkpt>
<trkpt lat="46.0419830" lon="10.3301810">
	<ele>966.40</ele>
	<time>2025-07-30T08:16:44.000Z</time>
</trkpt>
<trkpt lat="46.0419720" lon="10.3301900">
	<ele>966.00</ele>
	<time>2025-07-30T08:16:45.000Z</time>
</trkpt>
<trkpt lat="46.0419680" lon="10.3302150">
	<ele>965.80</ele>
	<time>2025-07-30T08:16:46.000Z</time>
</trkpt>
<trkpt lat="46.0419540" lon="10.3302370">
	<ele>965.40</ele>
	<time>2025-07-30T08:16:47.000Z</time>
</trkpt>
<trkpt lat="46.0419430" lon="10.3302420">
	<ele>965.20</ele>
	<time>2025-07-30T08:16:48.000Z</time>
</trkpt>
<trkpt lat="46.0419350" lon="10.3302430">
	<ele>965.00</ele>
	<time>2025-07-30T08:16:49.000Z</time>
</trkpt>
<trkpt lat="46.0419200" lon="10.3302450">
	<ele>964.80</ele>
	<time>2025-07-30T08:16:50.000Z</time>
</trkpt>
<trkpt lat="46.0419160" lon="10.3302440">
	<ele>964.40</ele>
	<time>2025-07-30T08:16:51.000Z</time>
</trkpt>
<trkpt lat="46.0419080" lon="10.3302450">
	<ele>964.20</ele>
	<time>2025-07-30T08:16:52.000Z</time>
</trkpt>
<trkpt lat="46.0419010" lon="10.3302470">
	<ele>963.80</ele>
	<time>2025-07-30T08:16:53.000Z</time>
</trkpt>
<trkpt lat="46.0419000" lon="10.3302350">
	<ele>963.60</ele>
	<time>2025-07-30T08:16:54.000Z</time>
</trkpt>
<trkpt lat="46.0418970" lon="10.3302340">
	<ele>963.40</ele>
	<time>2025-07-30T08:16:55.000Z</time>
</trkpt>
<trkpt lat="46.0418950" lon="10.3302330">
	<ele>963.40</ele>
	<time>2025-07-30T08:16:56.000Z</time>
</trkpt>
<trkpt lat="46.0418940" lon="10.3302310">
	<ele>963.40</ele>
	<time>2025-07-30T08:16:57.000Z</time>
</trkpt>
<trkpt lat="46.0418940" lon="10.3302300">
	<ele>963.20</ele>
	<time>2025-07-30T08:16:58.000Z</time>
</trkpt>
<trkpt lat="46.0418920" lon="10.3302280">
	<ele>963.20</ele>
	<time>2025-07-30T08:16:59.000Z</time>
</trkpt>
<trkpt lat="46.0418850" lon="10.3302250">
	<ele>963.20</ele>
	<time>2025-07-30T08:17:00.000Z</time>
</trkpt>
<trkpt lat="46.0418780" lon="10.3302240">
	<ele>963.20</ele>
	<time>2025-07-30T08:17:01.000Z</time>
</trkpt>
<trkpt lat="46.0418700" lon="10.3302150">
	<ele>963.20</ele>
	<time>2025-07-30T08:17:02.000Z</time>
</trkpt>
<trkpt lat="46.0418710" lon="10.3302070">
	<ele>963.00</ele>
	<time>2025-07-30T08:17:03.000Z</time>
</trkpt>
<trkpt lat="46.0418700" lon="10.3302060">
	<ele>962.80</ele>
	<time>2025-07-30T08:17:04.000Z</time>
</trkpt>
<trkpt lat="46.0418700" lon="10.3302060">
	<ele>962.60</ele>
	<time>2025-07-30T08:17:05.000Z</time>
</trkpt>
<trkpt lat="46.0418690" lon="10.3302030">
	<ele>962.60</ele>
	<time>2025-07-30T08:17:06.000Z</time>
</trkpt>
<trkpt lat="46.0418700" lon="10.3302020">
	<ele>962.60</ele>
	<time>2025-07-30T08:17:07.000Z</time>
</trkpt>
<trkpt lat="46.0418700" lon="10.3302010">
	<ele>962.60</ele>
	<time>2025-07-30T08:17:08.000Z</time>
</trkpt>
<trkpt lat="46.0418720" lon="10.3301990">
	<ele>962.60</ele>
	<time>2025-07-30T08:17:09.000Z</time>
</trkpt>
<trkpt lat="46.0418730" lon="10.3301970">
	<ele>962.60</ele>
	<time>2025-07-30T08:17:10.000Z</time>
</trkpt>
<trkpt lat="46.0418750" lon="10.3301960">
	<ele>962.60</ele>
	<time>2025-07-30T08:17:11.000Z</time>
</trkpt>
<trkpt lat="46.0418780" lon="10.3301950">
	<ele>962.60</ele>
	<time>2025-07-30T08:17:12.000Z</time>
</trkpt>
<trkpt lat="46.0418800" lon="10.3301950">
	<ele>962.60</ele>
	<time>2025-07-30T08:17:13.000Z</time>
</trkpt>
<trkpt lat="46.0418810" lon="10.3301970">
	<ele>962.60</ele>
	<time>2025-07-30T08:17:14.000Z</time>
</trkpt>
<trkpt lat="46.0418810" lon="10.3301990">
	<ele>962.40</ele>
	<time>2025-07-30T08:17:15.000Z</time>
</trkpt>
<trkpt lat="46.0418810" lon="10.3302000">
	<ele>962.60</ele>
	<time>2025-07-30T08:17:16.000Z</time>
</trkpt>
<trkpt lat="46.0418810" lon="10.3301990">
	<ele>962.60</ele>
	<time>2025-07-30T08:17:17.000Z</time>
</trkpt>
<trkpt lat="46.0418810" lon="10.3301990">
	<ele>962.60</ele>
	<time>2025-07-30T08:17:18.000Z</time>
</trkpt>
<trkpt lat="46.0418810" lon="10.3301990">
	<ele>962.40</ele>
	<time>2025-07-30T08:17:19.000Z</time>
</trkpt>
<trkpt lat="46.0418810" lon="10.3301990">
	<ele>962.40</ele>
	<time>2025-07-30T08:17:20.000Z</time>
</trkpt>
<trkpt lat="46.0418810" lon="10.3301990">
	<ele>962.40</ele>
	<time>2025-07-30T08:17:21.000Z</time>
</trkpt>
<trkpt lat="46.0418810" lon="10.3301990">
	<ele>962.40</ele>
	<time>2025-07-30T08:17:22.000Z</time>
</trkpt>
<trkpt lat="46.0418810" lon="10.3301990">
	<ele>962.40</ele>
	<time>2025-07-30T08:17:23.000Z</time>
</trkpt>
<trkpt lat="46.0418810" lon="10.3301990">
	<ele>962.40</ele>
	<time>2025-07-30T08:17:24.000Z</time>
</trkpt>
<trkpt lat="46.0418810" lon="10.3301990">
	<ele>962.60</ele>
	<time>2025-07-30T08:17:25.000Z</time>
</trkpt>
<trkpt lat="46.0418810" lon="10.3301990">
	<ele>962.60</ele>
	<time>2025-07-30T08:17:26.000Z</time>
</trkpt>
<trkpt lat="46.0418810" lon="10.3301990">
	<ele>962.60</ele>
	<time>2025-07-30T08:17:27.000Z</time>
</trkpt>
<trkpt lat="46.0418810" lon="10.3301990">
	<ele>962.60</ele>
	<time>2025-07-30T08:17:28.000Z</time>
</trkpt>
<trkpt lat="46.0418810" lon="10.3301990">
	<ele>962.60</ele>
	<time>2025-07-30T08:17:29.000Z</time>
</trkpt>
<trkpt lat="46.0418810" lon="10.3301990">
	<ele>962.60</ele>
	<time>2025-07-30T08:17:30.000Z</time>
</trkpt>
<trkpt lat="46.0418810" lon="10.3301990">
	<ele>962.60</ele>
	<time>2025-07-30T08:17:31.000Z</time>
</trkpt>
<trkpt lat="46.0418810" lon="10.3301990">
	<ele>962.60</ele>
	<time>2025-07-30T08:17:32.000Z</time>
</trkpt>
<trkpt lat="46.0418820" lon="10.3301980">
	<ele>962.60</ele>
	<time>2025-07-30T08:17:33.000Z</time>
</trkpt>
<trkpt lat="46.0418830" lon="10.3301980">
	<ele>962.60</ele>
	<time>2025-07-30T08:17:34.000Z</time>
</trkpt>
<trkpt lat="46.0418840" lon="10.3301980">
	<ele>962.60</ele>
	<time>2025-07-30T08:17:35.000Z</time>
</trkpt>
<trkpt lat="46.0418840" lon="10.3301980">
	<ele>962.60</ele>
	<time>2025-07-30T08:17:36.000Z</time>
</trkpt>
<trkpt lat="46.0418840" lon="10.3301980">
	<ele>962.40</ele>
	<time>2025-07-30T08:17:37.000Z</time>
</trkpt>
<trkpt lat="46.0418850" lon="10.3301980">
	<ele>962.40</ele>
	<time>2025-07-30T08:17:38.000Z</time>
</trkpt>
<trkpt lat="46.0418850" lon="10.3301970">
	<ele>962.40</ele>
	<time>2025-07-30T08:17:39.000Z</time>
</trkpt>
<trkpt lat="46.0418860" lon="10.3301970">
	<ele>962.40</ele>
	<time>2025-07-30T08:17:40.000Z</time>
</trkpt>
<trkpt lat="46.0418860" lon="10.3301970">
	<ele>962.40</ele>
	<time>2025-07-30T08:17:41.000Z</time>
</trkpt>
<trkpt lat="46.0418860" lon="10.3301970">
	<ele>962.40</ele>
	<time>2025-07-30T08:17:42.000Z</time>
</trkpt>
<trkpt lat="46.0418860" lon="10.3301970">
	<ele>962.40</ele>
	<time>2025-07-30T08:17:43.000Z</time>
</trkpt>
<trkpt lat="46.0418860" lon="10.3301970">
	<ele>962.40</ele>
	<time>2025-07-30T08:17:44.000Z</time>
</trkpt>
<trkpt lat="46.0418860" lon="10.3301970">
	<ele>962.40</ele>
	<time>2025-07-30T08:17:45.000Z</time>
</trkpt>
<trkpt lat="46.0418860" lon="10.3301970">
	<ele>962.60</ele>
	<time>2025-07-30T08:17:46.000Z</time>
</trkpt>
<trkpt lat="46.0418870" lon="10.3301970">
	<ele>962.60</ele>
	<time>2025-07-30T08:17:47.000Z</time>
</trkpt>
<trkpt lat="46.0418870" lon="10.3301970">
	<ele>962.40</ele>
	<time>2025-07-30T08:17:48.000Z</time>
</trkpt>
<trkpt lat="46.0418870" lon="10.3301970">
	<ele>962.40</ele>
	<time>2025-07-30T08:17:49.000Z</time>
</trkpt>
<trkpt lat="46.0418870" lon="10.3301970">
	<ele>962.40</ele>
	<time>2025-07-30T08:17:50.000Z</time>
</trkpt>
<trkpt lat="46.0418870" lon="10.3301970">
	<ele>962.40</ele>
	<time>2025-07-30T08:17:51.000Z</time>
</trkpt>
<trkpt lat="46.0418870" lon="10.3301970">
	<ele>962.40</ele>
	<time>2025-07-30T08:17:52.000Z</time>
</trkpt>
<trkpt lat="46.0418870" lon="10.3301970">
	<ele>962.40</ele>
	<time>2025-07-30T08:17:53.000Z</time>
</trkpt>
<trkpt lat="46.0418840" lon="10.3301970">
	<ele>962.20</ele>
	<time>2025-07-30T08:17:54.000Z</time>
</trkpt>
<trkpt lat="46.0418780" lon="10.3301950">
	<ele>962.00</ele>
	<time>2025-07-30T08:17:55.000Z</time>
</trkpt>
<trkpt lat="46.0418700" lon="10.3301940">
	<ele>961.60</ele>
	<time>2025-07-30T08:17:56.000Z</time>
</trkpt>
<trkpt lat="46.0418600" lon="10.3301920">
	<ele>961.40</ele>
	<time>2025-07-30T08:17:57.000Z</time>
</trkpt>
<trkpt lat="46.0418470" lon="10.3301910">
	<ele>961.20</ele>
	<time>2025-07-30T08:17:58.000Z</time>
</trkpt>
<trkpt lat="46.0418330" lon="10.3301880">
	<ele>961.00</ele>
	<time>2025-07-30T08:17:59.000Z</time>
</trkpt>
<trkpt lat="46.0418220" lon="10.3301860">
	<ele>960.80</ele>
	<time>2025-07-30T08:18:00.000Z</time>
</trkpt>
<trkpt lat="46.0418090" lon="10.3301810">
	<ele>960.40</ele>
	<time>2025-07-30T08:18:01.000Z</time>
</trkpt>
<trkpt lat="46.0417960" lon="10.3301760">
	<ele>960.20</ele>
	<time>2025-07-30T08:18:02.000Z</time>
</trkpt>
<trkpt lat="46.0417820" lon="10.3301680">
	<ele>959.80</ele>
	<time>2025-07-30T08:18:03.000Z</time>
</trkpt>
<trkpt lat="46.0417740" lon="10.3301580">
	<ele>959.40</ele>
	<time>2025-07-30T08:18:04.000Z</time>
</trkpt>
<trkpt lat="46.0417660" lon="10.3301490">
	<ele>959.00</ele>
	<time>2025-07-30T08:18:05.000Z</time>
</trkpt>
<trkpt lat="46.0417600" lon="10.3301410">
	<ele>958.60</ele>
	<time>2025-07-30T08:18:06.000Z</time>
</trkpt>
<trkpt lat="46.0417540" lon="10.3301330">
	<ele>958.20</ele>
	<time>2025-07-30T08:18:07.000Z</time>
</trkpt>
<trkpt lat="46.0417470" lon="10.3301240">
	<ele>958.00</ele>
	<time>2025-07-30T08:18:08.000Z</time>
</trkpt>
<trkpt lat="46.0417400" lon="10.3301190">
	<ele>957.80</ele>
	<time>2025-07-30T08:18:09.000Z</time>
</trkpt>
<trkpt lat="46.0417300" lon="10.3301100">
	<ele>957.40</ele>
	<time>2025-07-30T08:18:10.000Z</time>
</trkpt>
<trkpt lat="46.0417230" lon="10.3301030">
	<ele>957.00</ele>
	<time>2025-07-30T08:18:11.000Z</time>
</trkpt>
<trkpt lat="46.0417160" lon="10.3300980">
	<ele>956.60</ele>
	<time>2025-07-30T08:18:12.000Z</time>
</trkpt>
<trkpt lat="46.0417100" lon="10.3300860">
	<ele>956.40</ele>
	<time>2025-07-30T08:18:13.000Z</time>
</trkpt>
<trkpt lat="46.0417030" lon="10.3300790">
	<ele>956.00</ele>
	<time>2025-07-30T08:18:14.000Z</time>
</trkpt>
<trkpt lat="46.0416920" lon="10.3300610">
	<ele>955.80</ele>
	<time>2025-07-30T08:18:15.000Z</time>
</trkpt>
<trkpt lat="46.0416750" lon="10.3300480">
	<ele>955.40</ele>
	<time>2025-07-30T08:18:16.000Z</time>
</trkpt>
<trkpt lat="46.0416640" lon="10.3300350">
	<ele>954.80</ele>
	<time>2025-07-30T08:18:17.000Z</time>
</trkpt>
<trkpt lat="46.0416550" lon="10.3300230">
	<ele>954.60</ele>
	<time>2025-07-30T08:18:18.000Z</time>
</trkpt>
<trkpt lat="46.0416460" lon="10.3300090">
	<ele>954.20</ele>
	<time>2025-07-30T08:18:19.000Z</time>
</trkpt>
<trkpt lat="46.0416410" lon="10.3299950">
	<ele>953.80</ele>
	<time>2025-07-30T08:18:20.000Z</time>
</trkpt>
<trkpt lat="46.0416320" lon="10.3299840">
	<ele>953.40</ele>
	<time>2025-07-30T08:18:21.000Z</time>
</trkpt>
<trkpt lat="46.0416230" lon="10.3299770">
	<ele>953.00</ele>
	<time>2025-07-30T08:18:22.000Z</time>
</trkpt>
<trkpt lat="46.0416140" lon="10.3299650">
	<ele>952.80</ele>
	<time>2025-07-30T08:18:23.000Z</time>
</trkpt>
<trkpt lat="46.0416030" lon="10.3299490">
	<ele>952.40</ele>
	<time>2025-07-30T08:18:24.000Z</time>
</trkpt>
<trkpt lat="46.0415930" lon="10.3299400">
	<ele>952.00</ele>
	<time>2025-07-30T08:18:25.000Z</time>
</trkpt>
<trkpt lat="46.0415840" lon="10.3299310">
	<ele>951.60</ele>
	<time>2025-07-30T08:18:26.000Z</time>
</trkpt>
<trkpt lat="46.0415740" lon="10.3299220">
	<ele>951.00</ele>
	<time>2025-07-30T08:18:27.000Z</time>
</trkpt>
<trkpt lat="46.0415660" lon="10.3299120">
	<ele>950.60</ele>
	<time>2025-07-30T08:18:28.000Z</time>
</trkpt>
<trkpt lat="46.0415560" lon="10.3298950">
	<ele>950.20</ele>
	<time>2025-07-30T08:18:29.000Z</time>
</trkpt>
<trkpt lat="46.0415450" lon="10.3298830">
	<ele>949.80</ele>
	<time>2025-07-30T08:18:30.000Z</time>
</trkpt>
<trkpt lat="46.0415350" lon="10.3298760">
	<ele>949.40</ele>
	<time>2025-07-30T08:18:31.000Z</time>
</trkpt>
<trkpt lat="46.0415220" lon="10.3298650">
	<ele>949.00</ele>
	<time>2025-07-30T08:18:32.000Z</time>
</trkpt>
<trkpt lat="46.0415140" lon="10.3298560">
	<ele>948.60</ele>
	<time>2025-07-30T08:18:33.000Z</time>
</trkpt>
<trkpt lat="46.0415080" lon="10.3298480">
	<ele>948.40</ele>
	<time>2025-07-30T08:18:34.000Z</time>
</trkpt>
<trkpt lat="46.0414960" lon="10.3298360">
	<ele>948.20</ele>
	<time>2025-07-30T08:18:35.000Z</time>
</trkpt>
<trkpt lat="46.0414900" lon="10.3298300">
	<ele>947.80</ele>
	<time>2025-07-30T08:18:36.000Z</time>
</trkpt>
<trkpt lat="46.0414810" lon="10.3298180">
	<ele>947.40</ele>
	<time>2025-07-30T08:18:37.000Z</time>
</trkpt>
<trkpt lat="46.0414730" lon="10.3298060">
	<ele>947.20</ele>
	<time>2025-07-30T08:18:38.000Z</time>
</trkpt>
<trkpt lat="46.0414620" lon="10.3297950">
	<ele>946.80</ele>
	<time>2025-07-30T08:18:39.000Z</time>
</trkpt>
<trkpt lat="46.0414520" lon="10.3297900">
	<ele>946.40</ele>
	<time>2025-07-30T08:18:40.000Z</time>
</trkpt>
<trkpt lat="46.0414390" lon="10.3297820">
	<ele>946.20</ele>
	<time>2025-07-30T08:18:41.000Z</time>
</trkpt>
<trkpt lat="46.0414300" lon="10.3297730">
	<ele>945.80</ele>
	<time>2025-07-30T08:18:42.000Z</time>
</trkpt>
<trkpt lat="46.0414240" lon="10.3297610">
	<ele>945.40</ele>
	<time>2025-07-30T08:18:43.000Z</time>
</trkpt>
<trkpt lat="46.0414180" lon="10.3297490">
	<ele>945.00</ele>
	<time>2025-07-30T08:18:44.000Z</time>
</trkpt>
<trkpt lat="46.0414110" lon="10.3297390">
	<ele>944.60</ele>
	<time>2025-07-30T08:18:45.000Z</time>
</trkpt>
<trkpt lat="46.0414070" lon="10.3297290">
	<ele>944.20</ele>
	<time>2025-07-30T08:18:46.000Z</time>
</trkpt>
<trkpt lat="46.0414040" lon="10.3297160">
	<ele>943.80</ele>
	<time>2025-07-30T08:18:47.000Z</time>
</trkpt>
<trkpt lat="46.0414090" lon="10.3297080">
	<ele>943.20</ele>
	<time>2025-07-30T08:18:48.000Z</time>
</trkpt>
<trkpt lat="46.0414100" lon="10.3297020">
	<ele>942.80</ele>
	<time>2025-07-30T08:18:49.000Z</time>
</trkpt>
<trkpt lat="46.0414090" lon="10.3296920">
	<ele>942.60</ele>
	<time>2025-07-30T08:18:50.000Z</time>
</trkpt>
<trkpt lat="46.0414090" lon="10.3296730">
	<ele>942.00</ele>
	<time>2025-07-30T08:18:51.000Z</time>
</trkpt>
<trkpt lat="46.0414090" lon="10.3296530">
	<ele>941.60</ele>
	<time>2025-07-30T08:18:52.000Z</time>
</trkpt>
<trkpt lat="46.0413970" lon="10.3296390">
	<ele>941.20</ele>
	<time>2025-07-30T08:18:53.000Z</time>
</trkpt>
<trkpt lat="46.0413940" lon="10.3296240">
	<ele>940.80</ele>
	<time>2025-07-30T08:18:54.000Z</time>
</trkpt>
<trkpt lat="46.0413930" lon="10.3296090">
	<ele>940.20</ele>
	<time>2025-07-30T08:18:55.000Z</time>
</trkpt>
<trkpt lat="46.0413950" lon="10.3295930">
	<ele>939.80</ele>
	<time>2025-07-30T08:18:56.000Z</time>
</trkpt>
<trkpt lat="46.0413980" lon="10.3295810">
	<ele>939.20</ele>
	<time>2025-07-30T08:18:57.000Z</time>
</trkpt>
<trkpt lat="46.0413990" lon="10.3295630">
	<ele>938.60</ele>
	<time>2025-07-30T08:18:58.000Z</time>
</trkpt>
<trkpt lat="46.0413990" lon="10.3295480">
	<ele>938.20</ele>
	<time>2025-07-30T08:18:59.000Z</time>
</trkpt>
<trkpt lat="46.0414020" lon="10.3295300">
	<ele>937.80</ele>
	<time>2025-07-30T08:19:00.000Z</time>
</trkpt>
<trkpt lat="46.0414030" lon="10.3295100">
	<ele>937.40</ele>
	<time>2025-07-30T08:19:01.000Z</time>
</trkpt>
<trkpt lat="46.0414010" lon="10.3294970">
	<ele>937.00</ele>
	<time>2025-07-30T08:19:02.000Z</time>
</trkpt>
<trkpt lat="46.0413950" lon="10.3294810">
	<ele>936.60</ele>
	<time>2025-07-30T08:19:03.000Z</time>
</trkpt>
<trkpt lat="46.0413870" lon="10.3294600">
	<ele>936.20</ele>
	<time>2025-07-30T08:19:04.000Z</time>
</trkpt>
<trkpt lat="46.0413760" lon="10.3294430">
	<ele>935.80</ele>
	<time>2025-07-30T08:19:05.000Z</time>
</trkpt>
<trkpt lat="46.0413700" lon="10.3294320">
	<ele>935.40</ele>
	<time>2025-07-30T08:19:06.000Z</time>
</trkpt>
<trkpt lat="46.0413650" lon="10.3294230">
	<ele>935.20</ele>
	<time>2025-07-30T08:19:07.000Z</time>
</trkpt>
<trkpt lat="46.0413650" lon="10.3294180">
	<ele>934.60</ele>
	<time>2025-07-30T08:19:08.000Z</time>
</trkpt>
<trkpt lat="46.0413680" lon="10.3293990">
	<ele>934.40</ele>
	<time>2025-07-30T08:19:09.000Z</time>
</trkpt>
<trkpt lat="46.0413710" lon="10.3293740">
	<ele>934.00</ele>
	<time>2025-07-30T08:19:10.000Z</time>
</trkpt>
<trkpt lat="46.0413680" lon="10.3293560">
	<ele>933.60</ele>
	<time>2025-07-30T08:19:11.000Z</time>
</trkpt>
<trkpt lat="46.0413640" lon="10.3293410">
	<ele>933.40</ele>
	<time>2025-07-30T08:19:12.000Z</time>
</trkpt>
<trkpt lat="46.0413630" lon="10.3293330">
	<ele>932.80</ele>
	<time>2025-07-30T08:19:13.000Z</time>
</trkpt>
<trkpt lat="46.0413620" lon="10.3293300">
	<ele>932.40</ele>
	<time>2025-07-30T08:19:14.000Z</time>
</trkpt>
<trkpt lat="46.0413640" lon="10.3293280">
	<ele>932.20</ele>
	<time>2025-07-30T08:19:15.000Z</time>
</trkpt>
<trkpt lat="46.0413610" lon="10.3293220">
	<ele>932.20</ele>
	<time>2025-07-30T08:19:16.000Z</time>
</trkpt>
<trkpt lat="46.0413560" lon="10.3293130">
	<ele>932.00</ele>
	<time>2025-07-30T08:19:17.000Z</time>
</trkpt>
<trkpt lat="46.0413490" lon="10.3293040">
	<ele>932.00</ele>
	<time>2025-07-30T08:19:18.000Z</time>
</trkpt>
<trkpt lat="46.0413390" lon="10.3292940">
	<ele>931.80</ele>
	<time>2025-07-30T08:19:19.000Z</time>
</trkpt>
<trkpt lat="46.0413300" lon="10.3292830">
	<ele>931.40</ele>
	<time>2025-07-30T08:19:20.000Z</time>
</trkpt>
<trkpt lat="46.0413180" lon="10.3292690">
	<ele>931.20</ele>
	<time>2025-07-30T08:19:21.000Z</time>
</trkpt>
<trkpt lat="46.0413040" lon="10.3292590">
	<ele>931.00</ele>
	<time>2025-07-30T08:19:22.000Z</time>
</trkpt>
<trkpt lat="46.0412890" lon="10.3292470">
	<ele>930.60</ele>
	<time>2025-07-30T08:19:23.000Z</time>
</trkpt>
<trkpt lat="46.0412740" lon="10.3292370">
	<ele>930.40</ele>
	<time>2025-07-30T08:19:24.000Z</time>
</trkpt>
<trkpt lat="46.0412650" lon="10.3292230">
	<ele>930.00</ele>
	<time>2025-07-30T08:19:25.000Z</time>
</trkpt>
<trkpt lat="46.0412480" lon="10.3292160">
	<ele>929.80</ele>
	<time>2025-07-30T08:19:26.000Z</time>
</trkpt>
<trkpt lat="46.0412340" lon="10.3292070">
	<ele>929.60</ele>
	<time>2025-07-30T08:19:27.000Z</time>
</trkpt>
<trkpt lat="46.0412180" lon="10.3291940">
	<ele>929.40</ele>
	<time>2025-07-30T08:19:28.000Z</time>
</trkpt>
<trkpt lat="46.0412080" lon="10.3291850">
	<ele>929.20</ele>
	<time>2025-07-30T08:19:29.000Z</time>
</trkpt>
<trkpt lat="46.0411970" lon="10.3291760">
	<ele>928.80</ele>
	<time>2025-07-30T08:19:30.000Z</time>
</trkpt>
<trkpt lat="46.0411860" lon="10.3291660">
	<ele>928.60</ele>
	<time>2025-07-30T08:19:31.000Z</time>
</trkpt>
<trkpt lat="46.0411770" lon="10.3291530">
	<ele>928.40</ele>
	<time>2025-07-30T08:19:32.000Z</time>
</trkpt>
<trkpt lat="46.0411680" lon="10.3291390">
	<ele>928.20</ele>
	<time>2025-07-30T08:19:33.000Z</time>
</trkpt>
<trkpt lat="46.0411620" lon="10.3291270">
	<ele>927.80</ele>
	<time>2025-07-30T08:19:34.000Z</time>
</trkpt>
<trkpt lat="46.0411560" lon="10.3291150">
	<ele>927.60</ele>
	<time>2025-07-30T08:19:35.000Z</time>
</trkpt>
<trkpt lat="46.0411510" lon="10.3290970">
	<ele>927.20</ele>
	<time>2025-07-30T08:19:36.000Z</time>
</trkpt>
<trkpt lat="46.0411420" lon="10.3290830">
	<ele>927.20</ele>
	<time>2025-07-30T08:19:37.000Z</time>
</trkpt>
<trkpt lat="46.0411330" lon="10.3290680">
	<ele>926.80</ele>
	<time>2025-07-30T08:19:38.000Z</time>
</trkpt>
<trkpt lat="46.0411220" lon="10.3290540">
	<ele>926.60</ele>
	<time>2025-07-30T08:19:39.000Z</time>
</trkpt>
<trkpt lat="46.0411130" lon="10.3290380">
	<ele>926.40</ele>
	<time>2025-07-30T08:19:40.000Z</time>
</trkpt>
<trkpt lat="46.0411040" lon="10.3290190">
	<ele>926.20</ele>
	<time>2025-07-30T08:19:41.000Z</time>
</trkpt>
<trkpt lat="46.0410950" lon="10.3290020">
	<ele>926.00</ele>
	<time>2025-07-30T08:19:42.000Z</time>
</trkpt>
<trkpt lat="46.0410890" lon="10.3289860">
	<ele>926.00</ele>
	<time>2025-07-30T08:19:43.000Z</time>
</trkpt>
<trkpt lat="46.0410840" lon="10.3289670">
	<ele>925.80</ele>
	<time>2025-07-30T08:19:44.000Z</time>
</trkpt>
<trkpt lat="46.0410830" lon="10.3289490">
	<ele>925.40</ele>
	<time>2025-07-30T08:19:45.000Z</time>
</trkpt>
<trkpt lat="46.0410840" lon="10.3289340">
	<ele>925.20</ele>
	<time>2025-07-30T08:19:46.000Z</time>
</trkpt>
<trkpt lat="46.0410820" lon="10.3289110">
	<ele>925.20</ele>
	<time>2025-07-30T08:19:47.000Z</time>
</trkpt>
<trkpt lat="46.0410810" lon="10.3288840">
	<ele>925.00</ele>
	<time>2025-07-30T08:19:48.000Z</time>
</trkpt>
<trkpt lat="46.0410790" lon="10.3288590">
	<ele>924.80</ele>
	<time>2025-07-30T08:19:49.000Z</time>
</trkpt>
<trkpt lat="46.0410760" lon="10.3288390">
	<ele>924.40</ele>
	<time>2025-07-30T08:19:50.000Z</time>
</trkpt>
<trkpt lat="46.0410680" lon="10.3288260">
	<ele>924.20</ele>
	<time>2025-07-30T08:19:51.000Z</time>
</trkpt>
<trkpt lat="46.0410530" lon="10.3288160">
	<ele>924.00</ele>
	<time>2025-07-30T08:19:52.000Z</time>
</trkpt>
<trkpt lat="46.0410380" lon="10.3288120">
	<ele>923.80</ele>
	<time>2025-07-30T08:19:53.000Z</time>
</trkpt>
<trkpt lat="46.0410290" lon="10.3288050">
	<ele>923.40</ele>
	<time>2025-07-30T08:19:54.000Z</time>
</trkpt>
<trkpt lat="46.0410240" lon="10.3287900">
	<ele>923.20</ele>
	<time>2025-07-30T08:19:55.000Z</time>
</trkpt>
<trkpt lat="46.0410190" lon="10.3287790">
	<ele>922.80</ele>
	<time>2025-07-30T08:19:56.000Z</time>
</trkpt>
<trkpt lat="46.0410130" lon="10.3287670">
	<ele>922.60</ele>
	<time>2025-07-30T08:19:57.000Z</time>
</trkpt>
<trkpt lat="46.0410060" lon="10.3287500">
	<ele>922.40</ele>
	<time>2025-07-30T08:19:58.000Z</time>
</trkpt>
<trkpt lat="46.0410010" lon="10.3287310">
	<ele>922.20</ele>
	<time>2025-07-30T08:19:59.000Z</time>
</trkpt>
<trkpt lat="46.0409970" lon="10.3287170">
	<ele>921.80</ele>
	<time>2025-07-30T08:20:00.000Z</time>
</trkpt>
<trkpt lat="46.0409950" lon="10.3287030">
	<ele>921.60</ele>
	<time>2025-07-30T08:20:01.000Z</time>
</trkpt>
<trkpt lat="46.0409910" lon="10.3286900">
	<ele>921.40</ele>
	<time>2025-07-30T08:20:02.000Z</time>
</trkpt>
<trkpt lat="46.0409830" lon="10.3286790">
	<ele>921.20</ele>
	<time>2025-07-30T08:20:03.000Z</time>
</trkpt>
<trkpt lat="46.0409790" lon="10.3286760">
	<ele>921.00</ele>
	<time>2025-07-30T08:20:04.000Z</time>
</trkpt>
<trkpt lat="46.0409650" lon="10.3286710">
	<ele>920.80</ele>
	<time>2025-07-30T08:20:05.000Z</time>
</trkpt>
<trkpt lat="46.0409500" lon="10.3286650">
	<ele>920.60</ele>
	<time>2025-07-30T08:20:06.000Z</time>
</trkpt>
<trkpt lat="46.0409340" lon="10.3286600">
	<ele>920.40</ele>
	<time>2025-07-30T08:20:07.000Z</time>
</trkpt>
<trkpt lat="46.0409180" lon="10.3286550">
	<ele>920.20</ele>
	<time>2025-07-30T08:20:08.000Z</time>
</trkpt>
<trkpt lat="46.0409040" lon="10.3286430">
	<ele>920.20</ele>
	<time>2025-07-30T08:20:09.000Z</time>
</trkpt>
<trkpt lat="46.0408960" lon="10.3286260">
	<ele>920.00</ele>
	<time>2025-07-30T08:20:10.000Z</time>
</trkpt>
<trkpt lat="46.0408870" lon="10.3286150">
	<ele>919.80</ele>
	<time>2025-07-30T08:20:11.000Z</time>
</trkpt>
<trkpt lat="46.0408790" lon="10.3286030">
	<ele>919.60</ele>
	<time>2025-07-30T08:20:12.000Z</time>
</trkpt>
<trkpt lat="46.0408750" lon="10.3285930">
	<ele>919.40</ele>
	<time>2025-07-30T08:20:13.000Z</time>
</trkpt>
<trkpt lat="46.0408680" lon="10.3285780">
	<ele>919.20</ele>
	<time>2025-07-30T08:20:14.000Z</time>
</trkpt>
<trkpt lat="46.0408650" lon="10.3285720">
	<ele>919.00</ele>
	<time>2025-07-30T08:20:15.000Z</time>
</trkpt>
<trkpt lat="46.0408550" lon="10.3285570">
	<ele>919.00</ele>
	<time>2025-07-30T08:20:16.000Z</time>
</trkpt>
<trkpt lat="46.0408400" lon="10.3285460">
	<ele>918.80</ele>
	<time>2025-07-30T08:20:17.000Z</time>
</trkpt>
<trkpt lat="46.0408270" lon="10.3285370">
	<ele>918.60</ele>
	<time>2025-07-30T08:20:18.000Z</time>
</trkpt>
<trkpt lat="46.0408190" lon="10.3285170">
	<ele>918.20</ele>
	<time>2025-07-30T08:20:19.000Z</time>
</trkpt>
<trkpt lat="46.0408180" lon="10.3284970">
	<ele>918.00</ele>
	<time>2025-07-30T08:20:20.000Z</time>
</trkpt>
<trkpt lat="46.0408140" lon="10.3284830">
	<ele>917.80</ele>
	<time>2025-07-30T08:20:21.000Z</time>
</trkpt>
<trkpt lat="46.0408000" lon="10.3284660">
	<ele>917.60</ele>
	<time>2025-07-30T08:20:22.000Z</time>
</trkpt>
<trkpt lat="46.0407820" lon="10.3284490">
	<ele>917.40</ele>
	<time>2025-07-30T08:20:23.000Z</time>
</trkpt>
<trkpt lat="46.0407670" lon="10.3284440">
	<ele>917.20</ele>
	<time>2025-07-30T08:20:24.000Z</time>
</trkpt>
<trkpt lat="46.0407620" lon="10.3284280">
	<ele>917.00</ele>
	<time>2025-07-30T08:20:25.000Z</time>
</trkpt>
<trkpt lat="46.0407580" lon="10.3284190">
	<ele>916.80</ele>
	<time>2025-07-30T08:20:26.000Z</time>
</trkpt>
<trkpt lat="46.0407480" lon="10.3284030">
	<ele>916.60</ele>
	<time>2025-07-30T08:20:27.000Z</time>
</trkpt>
<trkpt lat="46.0407360" lon="10.3283940">
	<ele>916.20</ele>
	<time>2025-07-30T08:20:28.000Z</time>
</trkpt>
<trkpt lat="46.0407250" lon="10.3283840">
	<ele>915.80</ele>
	<time>2025-07-30T08:20:29.000Z</time>
</trkpt>
<trkpt lat="46.0407150" lon="10.3283740">
	<ele>915.60</ele>
	<time>2025-07-30T08:20:30.000Z</time>
</trkpt>
<trkpt lat="46.0407020" lon="10.3283650">
	<ele>915.40</ele>
	<time>2025-07-30T08:20:31.000Z</time>
</trkpt>
<trkpt lat="46.0406930" lon="10.3283550">
	<ele>915.20</ele>
	<time>2025-07-30T08:20:32.000Z</time>
</trkpt>
<trkpt lat="46.0406880" lon="10.3283440">
	<ele>915.00</ele>
	<time>2025-07-30T08:20:33.000Z</time>
</trkpt>
<trkpt lat="46.0406820" lon="10.3283270">
	<ele>914.80</ele>
	<time>2025-07-30T08:20:34.000Z</time>
</trkpt>
<trkpt lat="46.0406780" lon="10.3283140">
	<ele>914.60</ele>
	<time>2025-07-30T08:20:35.000Z</time>
</trkpt>
<trkpt lat="46.0406740" lon="10.3283030">
	<ele>914.60</ele>
	<time>2025-07-30T08:20:36.000Z</time>
</trkpt>
<trkpt lat="46.0406730" lon="10.3282870">
	<ele>914.40</ele>
	<time>2025-07-30T08:20:37.000Z</time>
</trkpt>
<trkpt lat="46.0406680" lon="10.3282710">
	<ele>914.20</ele>
	<time>2025-07-30T08:20:38.000Z</time>
</trkpt>
<trkpt lat="46.0406590" lon="10.3282600">
	<ele>914.00</ele>
	<time>2025-07-30T08:20:39.000Z</time>
</trkpt>
<trkpt lat="46.0406470" lon="10.3282530">
	<ele>913.80</ele>
	<time>2025-07-30T08:20:40.000Z</time>
</trkpt>
<trkpt lat="46.0406400" lon="10.3282440">
	<ele>913.60</ele>
	<time>2025-07-30T08:20:41.000Z</time>
</trkpt>
<trkpt lat="46.0406340" lon="10.3282370">
	<ele>913.40</ele>
	<time>2025-07-30T08:20:42.000Z</time>
</trkpt>
<trkpt lat="46.0406260" lon="10.3282290">
	<ele>913.20</ele>
	<time>2025-07-30T08:20:43.000Z</time>
</trkpt>
<trkpt lat="46.0406200" lon="10.3282200">
	<ele>913.00</ele>
	<time>2025-07-30T08:20:44.000Z</time>
</trkpt>
<trkpt lat="46.0406130" lon="10.3282160">
	<ele>913.00</ele>
	<time>2025-07-30T08:20:45.000Z</time>
</trkpt>
<trkpt lat="46.0406040" lon="10.3282050">
	<ele>912.60</ele>
	<time>2025-07-30T08:20:46.000Z</time>
</trkpt>
<trkpt lat="46.0406000" lon="10.3281890">
	<ele>912.40</ele>
	<time>2025-07-30T08:20:47.000Z</time>
</trkpt>
<trkpt lat="46.0405930" lon="10.3281720">
	<ele>912.00</ele>
	<time>2025-07-30T08:20:48.000Z</time>
</trkpt>
<trkpt lat="46.0405870" lon="10.3281510">
	<ele>911.80</ele>
	<time>2025-07-30T08:20:49.000Z</time>
</trkpt>
<trkpt lat="46.0405830" lon="10.3281320">
	<ele>911.60</ele>
	<time>2025-07-30T08:20:50.000Z</time>
</trkpt>
<trkpt lat="46.0405810" lon="10.3281150">
	<ele>911.40</ele>
	<time>2025-07-30T08:20:51.000Z</time>
</trkpt>
<trkpt lat="46.0405740" lon="10.3281070">
	<ele>911.00</ele>
	<time>2025-07-30T08:20:52.000Z</time>
</trkpt>
<trkpt lat="46.0405650" lon="10.3280950">
	<ele>910.60</ele>
	<time>2025-07-30T08:20:53.000Z</time>
</trkpt>
<trkpt lat="46.0405600" lon="10.3280750">
	<ele>910.60</ele>
	<time>2025-07-30T08:20:54.000Z</time>
</trkpt>
<trkpt lat="46.0405650" lon="10.3280560">
	<ele>910.40</ele>
	<time>2025-07-30T08:20:55.000Z</time>
</trkpt>
<trkpt lat="46.0405640" lon="10.3280450">
	<ele>910.20</ele>
	<time>2025-07-30T08:20:56.000Z</time>
</trkpt>
<trkpt lat="46.0405610" lon="10.3280360">
	<ele>910.00</ele>
	<time>2025-07-30T08:20:57.000Z</time>
</trkpt>
<trkpt lat="46.0405570" lon="10.3280290">
	<ele>909.60</ele>
	<time>2025-07-30T08:20:58.000Z</time>
</trkpt>
<trkpt lat="46.0405600" lon="10.3280150">
	<ele>909.40</ele>
	<time>2025-07-30T08:20:59.000Z</time>
</trkpt>
<trkpt lat="46.0405620" lon="10.3279980">
	<ele>909.20</ele>
	<time>2025-07-30T08:21:00.000Z</time>
</trkpt>
<trkpt lat="46.0405620" lon="10.3279890">
	<ele>909.20</ele>
	<time>2025-07-30T08:21:01.000Z</time>
</trkpt>
<trkpt lat="46.0405590" lon="10.3279770">
	<ele>908.80</ele>
	<time>2025-07-30T08:21:02.000Z</time>
</trkpt>
<trkpt lat="46.0405560" lon="10.3279620">
	<ele>908.80</ele>
	<time>2025-07-30T08:21:03.000Z</time>
</trkpt>
<trkpt lat="46.0405550" lon="10.3279480">
	<ele>908.60</ele>
	<time>2025-07-30T08:21:04.000Z</time>
</trkpt>
<trkpt lat="46.0405460" lon="10.3279330">
	<ele>908.20</ele>
	<time>2025-07-30T08:21:05.000Z</time>
</trkpt>
<trkpt lat="46.0405430" lon="10.3279270">
	<ele>908.00</ele>
	<time>2025-07-30T08:21:06.000Z</time>
</trkpt>
<trkpt lat="46.0405350" lon="10.3279210">
	<ele>907.80</ele>
	<time>2025-07-30T08:21:07.000Z</time>
</trkpt>
<trkpt lat="46.0405260" lon="10.3279120">
	<ele>907.60</ele>
	<time>2025-07-30T08:21:08.000Z</time>
</trkpt>
<trkpt lat="46.0405220" lon="10.3279130">
	<ele>907.40</ele>
	<time>2025-07-30T08:21:09.000Z</time>
</trkpt>
<trkpt lat="46.0405100" lon="10.3278950">
	<ele>907.20</ele>
	<time>2025-07-30T08:21:10.000Z</time>
</trkpt>
<trkpt lat="46.0405010" lon="10.3278870">
	<ele>907.00</ele>
	<time>2025-07-30T08:21:11.000Z</time>
</trkpt>
<trkpt lat="46.0404980" lon="10.3278810">
	<ele>907.00</ele>
	<time>2025-07-30T08:21:12.000Z</time>
</trkpt>
<trkpt lat="46.0404920" lon="10.3278790">
	<ele>907.00</ele>
	<time>2025-07-30T08:21:13.000Z</time>
</trkpt>
<trkpt lat="46.0404900" lon="10.3278810">
	<ele>906.80</ele>
	<time>2025-07-30T08:21:14.000Z</time>
</trkpt>
<trkpt lat="46.0404870" lon="10.3278830">
	<ele>906.60</ele>
	<time>2025-07-30T08:21:15.000Z</time>
</trkpt>
<trkpt lat="46.0404800" lon="10.3278800">
	<ele>906.20</ele>
	<time>2025-07-30T08:21:16.000Z</time>
</trkpt>
<trkpt lat="46.0404770" lon="10.3278790">
	<ele>906.20</ele>
	<time>2025-07-30T08:21:17.000Z</time>
</trkpt>
<trkpt lat="46.0404780" lon="10.3278700">
	<ele>906.00</ele>
	<time>2025-07-30T08:21:18.000Z</time>
</trkpt>
<trkpt lat="46.0404750" lon="10.3278630">
	<ele>905.60</ele>
	<time>2025-07-30T08:21:19.000Z</time>
</trkpt>
<trkpt lat="46.0404730" lon="10.3278620">
	<ele>905.40</ele>
	<time>2025-07-30T08:21:20.000Z</time>
</trkpt>
<trkpt lat="46.0404750" lon="10.3278630">
	<ele>905.20</ele>
	<time>2025-07-30T08:21:21.000Z</time>
</trkpt>
<trkpt lat="46.0404540" lon="10.3278540">
	<ele>905.00</ele>
	<time>2025-07-30T08:21:22.000Z</time>
</trkpt>
<trkpt lat="46.0404510" lon="10.3278530">
	<ele>904.80</ele>
	<time>2025-07-30T08:21:23.000Z</time>
</trkpt>
<trkpt lat="46.0404510" lon="10.3278550">
	<ele>904.60</ele>
	<time>2025-07-30T08:21:24.000Z</time>
</trkpt>
<trkpt lat="46.0404450" lon="10.3278330">
	<ele>904.60</ele>
	<time>2025-07-30T08:21:25.000Z</time>
</trkpt>
<trkpt lat="46.0404350" lon="10.3278130">
	<ele>904.20</ele>
	<time>2025-07-30T08:21:26.000Z</time>
</trkpt>
<trkpt lat="46.0404240" lon="10.3277980">
	<ele>904.20</ele>
	<time>2025-07-30T08:21:27.000Z</time>
</trkpt>
<trkpt lat="46.0404190" lon="10.3277960">
	<ele>904.00</ele>
	<time>2025-07-30T08:21:28.000Z</time>
</trkpt>
<trkpt lat="46.0404170" lon="10.3277930">
	<ele>904.00</ele>
	<time>2025-07-30T08:21:29.000Z</time>
</trkpt>
<trkpt lat="46.0404160" lon="10.3277910">
	<ele>904.00</ele>
	<time>2025-07-30T08:21:30.000Z</time>
</trkpt>
<trkpt lat="46.0404130" lon="10.3277890">
	<ele>904.00</ele>
	<time>2025-07-30T08:21:31.000Z</time>
</trkpt>
<trkpt lat="46.0404110" lon="10.3277870">
	<ele>904.00</ele>
	<time>2025-07-30T08:21:32.000Z</time>
</trkpt>
<trkpt lat="46.0404100" lon="10.3277850">
	<ele>904.00</ele>
	<time>2025-07-30T08:21:33.000Z</time>
</trkpt>
<trkpt lat="46.0404080" lon="10.3277850">
	<ele>903.80</ele>
	<time>2025-07-30T08:21:34.000Z</time>
</trkpt>
<trkpt lat="46.0403980" lon="10.3277760">
	<ele>903.60</ele>
	<time>2025-07-30T08:21:35.000Z</time>
</trkpt>
<trkpt lat="46.0403880" lon="10.3277670">
	<ele>903.40</ele>
	<time>2025-07-30T08:21:36.000Z</time>
</trkpt>
<trkpt lat="46.0403740" lon="10.3277550">
	<ele>903.20</ele>
	<time>2025-07-30T08:21:37.000Z</time>
</trkpt>
<trkpt lat="46.0403580" lon="10.3277390">
	<ele>903.00</ele>
	<time>2025-07-30T08:21:38.000Z</time>
</trkpt>
<trkpt lat="46.0403430" lon="10.3277270">
	<ele>902.80</ele>
	<time>2025-07-30T08:21:39.000Z</time>
</trkpt>
<trkpt lat="46.0403310" lon="10.3277170">
	<ele>902.60</ele>
	<time>2025-07-30T08:21:40.000Z</time>
</trkpt>
<trkpt lat="46.0403180" lon="10.3277090">
	<ele>902.60</ele>
	<time>2025-07-30T08:21:41.000Z</time>
</trkpt>
<trkpt lat="46.0403060" lon="10.3277020">
	<ele>902.60</ele>
	<time>2025-07-30T08:21:42.000Z</time>
</trkpt>
<trkpt lat="46.0402940" lon="10.3276950">
	<ele>902.60</ele>
	<time>2025-07-30T08:21:43.000Z</time>
</trkpt>
<trkpt lat="46.0402820" lon="10.3276900">
	<ele>902.40</ele>
	<time>2025-07-30T08:21:44.000Z</time>
</trkpt>
<trkpt lat="46.0402700" lon="10.3276870">
	<ele>902.40</ele>
	<time>2025-07-30T08:21:45.000Z</time>
</trkpt>
<trkpt lat="46.0402570" lon="10.3276870">
	<ele>902.20</ele>
	<time>2025-07-30T08:21:46.000Z</time>
</trkpt>
<trkpt lat="46.0402450" lon="10.3276880">
	<ele>902.00</ele>
	<time>2025-07-30T08:21:47.000Z</time>
</trkpt>
<trkpt lat="46.0402340" lon="10.3276890">
	<ele>901.80</ele>
	<time>2025-07-30T08:21:48.000Z</time>
</trkpt>
<trkpt lat="46.0402220" lon="10.3276900">
	<ele>901.40</ele>
	<time>2025-07-30T08:21:49.000Z</time>
</trkpt>
<trkpt lat="46.0402090" lon="10.3276850">
	<ele>901.20</ele>
	<time>2025-07-30T08:21:50.000Z</time>
</trkpt>
<trkpt lat="46.0401990" lon="10.3276830">
	<ele>901.00</ele>
	<time>2025-07-30T08:21:51.000Z</time>
</trkpt>
<trkpt lat="46.0401770" lon="10.3276740">
	<ele>900.80</ele>
	<time>2025-07-30T08:21:52.000Z</time>
</trkpt>
<trkpt lat="46.0401590" lon="10.3276720">
	<ele>900.60</ele>
	<time>2025-07-30T08:21:53.000Z</time>
</trkpt>
<trkpt lat="46.0401420" lon="10.3276710">
	<ele>900.40</ele>
	<time>2025-07-30T08:21:54.000Z</time>
</trkpt>
<trkpt lat="46.0401340" lon="10.3276740">
	<ele>900.40</ele>
	<time>2025-07-30T08:21:55.000Z</time>
</trkpt>
<trkpt lat="46.0401200" lon="10.3276720">
	<ele>900.20</ele>
	<time>2025-07-30T08:21:56.000Z</time>
</trkpt>
<trkpt lat="46.0401080" lon="10.3276670">
	<ele>900.00</ele>
	<time>2025-07-30T08:21:57.000Z</time>
</trkpt>
<trkpt lat="46.0400930" lon="10.3276590">
	<ele>900.00</ele>
	<time>2025-07-30T08:21:58.000Z</time>
</trkpt>
<trkpt lat="46.0400740" lon="10.3276550">
	<ele>899.80</ele>
	<time>2025-07-30T08:21:59.000Z</time>
</trkpt>
<trkpt lat="46.0400610" lon="10.3276540">
	<ele>899.60</ele>
	<time>2025-07-30T08:22:00.000Z</time>
</trkpt>
<trkpt lat="46.0400510" lon="10.3276490">
	<ele>899.60</ele>
	<time>2025-07-30T08:22:01.000Z</time>
</trkpt>
<trkpt lat="46.0400460" lon="10.3276450">
	<ele>899.40</ele>
	<time>2025-07-30T08:22:02.000Z</time>
</trkpt>
<trkpt lat="46.0400360" lon="10.3276400">
	<ele>899.40</ele>
	<time>2025-07-30T08:22:03.000Z</time>
</trkpt>
<trkpt lat="46.0400310" lon="10.3276400">
	<ele>899.20</ele>
	<time>2025-07-30T08:22:04.000Z</time>
</trkpt>
<trkpt lat="46.0400290" lon="10.3276400">
	<ele>899.20</ele>
	<time>2025-07-30T08:22:05.000Z</time>
</trkpt>
<trkpt lat="46.0400230" lon="10.3276420">
	<ele>899.20</ele>
	<time>2025-07-30T08:22:06.000Z</time>
</trkpt>
<trkpt lat="46.0400130" lon="10.3276420">
	<ele>899.00</ele>
	<time>2025-07-30T08:22:07.000Z</time>
</trkpt>
<trkpt lat="46.0400010" lon="10.3276440">
	<ele>898.60</ele>
	<time>2025-07-30T08:22:08.000Z</time>
</trkpt>
<trkpt lat="46.0399870" lon="10.3276400">
	<ele>898.40</ele>
	<time>2025-07-30T08:22:09.000Z</time>
</trkpt>
<trkpt lat="46.0399700" lon="10.3276280">
	<ele>898.20</ele>
	<time>2025-07-30T08:22:10.000Z</time>
</trkpt>
<trkpt lat="46.0399470" lon="10.3276020">
	<ele>898.20</ele>
	<time>2025-07-30T08:22:11.000Z</time>
</trkpt>
<trkpt lat="46.0399340" lon="10.3275750">
	<ele>898.00</ele>
	<time>2025-07-30T08:22:12.000Z</time>
</trkpt>
<trkpt lat="46.0399160" lon="10.3275590">
	<ele>897.80</ele>
	<time>2025-07-30T08:22:13.000Z</time>
</trkpt>
<trkpt lat="46.0399010" lon="10.3275590">
	<ele>897.80</ele>
	<time>2025-07-30T08:22:14.000Z</time>
</trkpt>
<trkpt lat="46.0398830" lon="10.3275580">
	<ele>897.60</ele>
	<time>2025-07-30T08:22:15.000Z</time>
</trkpt>
<trkpt lat="46.0398730" lon="10.3275590">
	<ele>897.40</ele>
	<time>2025-07-30T08:22:16.000Z</time>
</trkpt>
<trkpt lat="46.0398590" lon="10.3275570">
	<ele>897.20</ele>
	<time>2025-07-30T08:22:17.000Z</time>
</trkpt>
<trkpt lat="46.0398480" lon="10.3275570">
	<ele>897.20</ele>
	<time>2025-07-30T08:22:18.000Z</time>
</trkpt>
<trkpt lat="46.0398330" lon="10.3275590">
	<ele>897.00</ele>
	<time>2025-07-30T08:22:19.000Z</time>
</trkpt>
<trkpt lat="46.0398190" lon="10.3275580">
	<ele>897.00</ele>
	<time>2025-07-30T08:22:20.000Z</time>
</trkpt>
<trkpt lat="46.0398030" lon="10.3275470">
	<ele>896.80</ele>
	<time>2025-07-30T08:22:21.000Z</time>
</trkpt>
<trkpt lat="46.0397860" lon="10.3275410">
	<ele>896.60</ele>
	<time>2025-07-30T08:22:22.000Z</time>
</trkpt>
<trkpt lat="46.0397680" lon="10.3275380">
	<ele>896.40</ele>
	<time>2025-07-30T08:22:23.000Z</time>
</trkpt>
<trkpt lat="46.0397440" lon="10.3275270">
	<ele>896.20</ele>
	<time>2025-07-30T08:22:24.000Z</time>
</trkpt>
<trkpt lat="46.0397280" lon="10.3275300">
	<ele>896.00</ele>
	<time>2025-07-30T08:22:25.000Z</time>
</trkpt>
<trkpt lat="46.0397160" lon="10.3275370">
	<ele>896.00</ele>
	<time>2025-07-30T08:22:26.000Z</time>
</trkpt>
<trkpt lat="46.0397020" lon="10.3275480">
	<ele>895.80</ele>
	<time>2025-07-30T08:22:27.000Z</time>
</trkpt>
<trkpt lat="46.0396860" lon="10.3275550">
	<ele>895.80</ele>
	<time>2025-07-30T08:22:28.000Z</time>
</trkpt>
<trkpt lat="46.0396760" lon="10.3275660">
	<ele>895.40</ele>
	<time>2025-07-30T08:22:29.000Z</time>
</trkpt>
<trkpt lat="46.0396660" lon="10.3275750">
	<ele>895.20</ele>
	<time>2025-07-30T08:22:30.000Z</time>
</trkpt>
<trkpt lat="46.0396510" lon="10.3275800">
	<ele>895.20</ele>
	<time>2025-07-30T08:22:31.000Z</time>
</trkpt>
<trkpt lat="46.0396370" lon="10.3275830">
	<ele>895.00</ele>
	<time>2025-07-30T08:22:32.000Z</time>
</trkpt>
<trkpt lat="46.0396220" lon="10.3275860">
	<ele>894.80</ele>
	<time>2025-07-30T08:22:33.000Z</time>
</trkpt>
<trkpt lat="46.0396090" lon="10.3275900">
	<ele>894.60</ele>
	<time>2025-07-30T08:22:34.000Z</time>
</trkpt>
<trkpt lat="46.0395980" lon="10.3275940">
	<ele>894.40</ele>
	<time>2025-07-30T08:22:35.000Z</time>
</trkpt>
<trkpt lat="46.0395880" lon="10.3275970">
	<ele>894.20</ele>
	<time>2025-07-30T08:22:36.000Z</time>
</trkpt>
<trkpt lat="46.0395740" lon="10.3276000">
	<ele>894.00</ele>
	<time>2025-07-30T08:22:37.000Z</time>
</trkpt>
<trkpt lat="46.0395650" lon="10.3276070">
	<ele>894.00</ele>
	<time>2025-07-30T08:22:38.000Z</time>
</trkpt>
<trkpt lat="46.0395560" lon="10.3276130">
	<ele>893.80</ele>
	<time>2025-07-30T08:22:39.000Z</time>
</trkpt>
<trkpt lat="46.0395450" lon="10.3276150">
	<ele>893.60</ele>
	<time>2025-07-30T08:22:40.000Z</time>
</trkpt>
<trkpt lat="46.0395350" lon="10.3276200">
	<ele>893.40</ele>
	<time>2025-07-30T08:22:41.000Z</time>
</trkpt>
<trkpt lat="46.0395270" lon="10.3276260">
	<ele>893.20</ele>
	<time>2025-07-30T08:22:42.000Z</time>
</trkpt>
<trkpt lat="46.0395210" lon="10.3276280">
	<ele>893.20</ele>
	<time>2025-07-30T08:22:43.000Z</time>
</trkpt>
<trkpt lat="46.0395120" lon="10.3276330">
	<ele>893.00</ele>
	<time>2025-07-30T08:22:44.000Z</time>
</trkpt>
<trkpt lat="46.0395070" lon="10.3276420">
	<ele>892.80</ele>
	<time>2025-07-30T08:22:45.000Z</time>
</trkpt>
<trkpt lat="46.0395030" lon="10.3276430">
	<ele>892.60</ele>
	<time>2025-07-30T08:22:46.000Z</time>
</trkpt>
<trkpt lat="46.0395000" lon="10.3276450">
	<ele>892.60</ele>
	<time>2025-07-30T08:22:47.000Z</time>
</trkpt>
<trkpt lat="46.0395010" lon="10.3276480">
	<ele>892.60</ele>
	<time>2025-07-30T08:22:48.000Z</time>
</trkpt>
<trkpt lat="46.0394990" lon="10.3276470">
	<ele>892.60</ele>
	<time>2025-07-30T08:22:49.000Z</time>
</trkpt>
<trkpt lat="46.0394970" lon="10.3276470">
	<ele>892.60</ele>
	<time>2025-07-30T08:22:50.000Z</time>
</trkpt>
<trkpt lat="46.0394960" lon="10.3276490">
	<ele>892.80</ele>
	<time>2025-07-30T08:22:51.000Z</time>
</trkpt>
<trkpt lat="46.0394970" lon="10.3276500">
	<ele>893.00</ele>
	<time>2025-07-30T08:22:52.000Z</time>
</trkpt>
<trkpt lat="46.0394970" lon="10.3276510">
	<ele>893.00</ele>
	<time>2025-07-30T08:22:53.000Z</time>
</trkpt>
<trkpt lat="46.0394970" lon="10.3276500">
	<ele>893.00</ele>
	<time>2025-07-30T08:22:54.000Z</time>
</trkpt>
<trkpt lat="46.0394970" lon="10.3276480">
	<ele>893.00</ele>
	<time>2025-07-30T08:22:55.000Z</time>
</trkpt>
<trkpt lat="46.0395010" lon="10.3276460">
	<ele>892.80</ele>
	<time>2025-07-30T08:22:56.000Z</time>
</trkpt>
<trkpt lat="46.0395020" lon="10.3276470">
	<ele>892.80</ele>
	<time>2025-07-30T08:22:57.000Z</time>
</trkpt>
<trkpt lat="46.0395160" lon="10.3276530">
	<ele>892.80</ele>
	<time>2025-07-30T08:22:58.000Z</time>
</trkpt>
<trkpt lat="46.0395270" lon="10.3276560">
	<ele>892.80</ele>
	<time>2025-07-30T08:22:59.000Z</time>
</trkpt>
<trkpt lat="46.0395420" lon="10.3276560">
	<ele>892.80</ele>
	<time>2025-07-30T08:23:00.000Z</time>
</trkpt>
<trkpt lat="46.0395500" lon="10.3276570">
	<ele>892.80</ele>
	<time>2025-07-30T08:23:01.000Z</time>
</trkpt>
<trkpt lat="46.0395590" lon="10.3276580">
	<ele>892.60</ele>
	<time>2025-07-30T08:23:02.000Z</time>
</trkpt>
<trkpt lat="46.0395660" lon="10.3276550">
	<ele>892.80</ele>
	<time>2025-07-30T08:23:03.000Z</time>
</trkpt>
<trkpt lat="46.0395730" lon="10.3276560">
	<ele>893.00</ele>
	<time>2025-07-30T08:23:04.000Z</time>
</trkpt>
<trkpt lat="46.0395820" lon="10.3276550">
	<ele>893.00</ele>
	<time>2025-07-30T08:23:05.000Z</time>
</trkpt>
<trkpt lat="46.0395900" lon="10.3276530">
	<ele>893.20</ele>
	<time>2025-07-30T08:23:06.000Z</time>
</trkpt>
<trkpt lat="46.0395960" lon="10.3276520">
	<ele>893.60</ele>
	<time>2025-07-30T08:23:07.000Z</time>
</trkpt>
<trkpt lat="46.0395990" lon="10.3276530">
	<ele>893.80</ele>
	<time>2025-07-30T08:23:08.000Z</time>
</trkpt>
<trkpt lat="46.0396020" lon="10.3276540">
	<ele>894.00</ele>
	<time>2025-07-30T08:23:09.000Z</time>
</trkpt>
<trkpt lat="46.0396030" lon="10.3276530">
	<ele>894.20</ele>
	<time>2025-07-30T08:23:10.000Z</time>
</trkpt>
<trkpt lat="46.0396030" lon="10.3276540">
	<ele>894.40</ele>
	<time>2025-07-30T08:23:11.000Z</time>
</trkpt>
<trkpt lat="46.0396020" lon="10.3276540">
	<ele>894.40</ele>
	<time>2025-07-30T08:23:12.000Z</time>
</trkpt>
<trkpt lat="46.0395990" lon="10.3276590">
	<ele>894.40</ele>
	<time>2025-07-30T08:23:13.000Z</time>
</trkpt>
<trkpt lat="46.0395910" lon="10.3276540">
	<ele>894.20</ele>
	<time>2025-07-30T08:23:14.000Z</time>
</trkpt>
<trkpt lat="46.0395870" lon="10.3276510">
	<ele>894.00</ele>
	<time>2025-07-30T08:23:15.000Z</time>
</trkpt>
<trkpt lat="46.0395790" lon="10.3276560">
	<ele>893.80</ele>
	<time>2025-07-30T08:23:16.000Z</time>
</trkpt>
<trkpt lat="46.0395740" lon="10.3276610">
	<ele>893.80</ele>
	<time>2025-07-30T08:23:17.000Z</time>
</trkpt>
<trkpt lat="46.0395680" lon="10.3276590">
	<ele>893.80</ele>
	<time>2025-07-30T08:23:18.000Z</time>
</trkpt>
<trkpt lat="46.0395620" lon="10.3276620">
	<ele>893.60</ele>
	<time>2025-07-30T08:23:19.000Z</time>
</trkpt>
<trkpt lat="46.0395550" lon="10.3276640">
	<ele>893.40</ele>
	<time>2025-07-30T08:23:20.000Z</time>
</trkpt>
<trkpt lat="46.0395470" lon="10.3276640">
	<ele>893.20</ele>
	<time>2025-07-30T08:23:21.000Z</time>
</trkpt>
<trkpt lat="46.0395430" lon="10.3276660">
	<ele>893.00</ele>
	<time>2025-07-30T08:23:22.000Z</time>
</trkpt>
<trkpt lat="46.0395390" lon="10.3276730">
	<ele>892.80</ele>
	<time>2025-07-30T08:23:23.000Z</time>
</trkpt>
<trkpt lat="46.0395330" lon="10.3276800">
	<ele>892.60</ele>
	<time>2025-07-30T08:23:24.000Z</time>
</trkpt>
<trkpt lat="46.0395320" lon="10.3276880">
	<ele>892.40</ele>
	<time>2025-07-30T08:23:25.000Z</time>
</trkpt>
<trkpt lat="46.0395310" lon="10.3276980">
	<ele>892.20</ele>
	<time>2025-07-30T08:23:26.000Z</time>
</trkpt>
<trkpt lat="46.0395330" lon="10.3277030">
	<ele>891.80</ele>
	<time>2025-07-30T08:23:27.000Z</time>
</trkpt>
<trkpt lat="46.0395270" lon="10.3277010">
	<ele>891.40</ele>
	<time>2025-07-30T08:23:28.000Z</time>
</trkpt>
<trkpt lat="46.0395180" lon="10.3277150">
	<ele>891.20</ele>
	<time>2025-07-30T08:23:29.000Z</time>
</trkpt>
<trkpt lat="46.0395160" lon="10.3277180">
	<ele>890.80</ele>
	<time>2025-07-30T08:23:30.000Z</time>
</trkpt>
<trkpt lat="46.0395140" lon="10.3277160">
	<ele>890.40</ele>
	<time>2025-07-30T08:23:31.000Z</time>
</trkpt>
<trkpt lat="46.0395130" lon="10.3277170">
	<ele>890.20</ele>
	<time>2025-07-30T08:23:32.000Z</time>
</trkpt>
<trkpt lat="46.0395130" lon="10.3277280">
	<ele>890.00</ele>
	<time>2025-07-30T08:23:33.000Z</time>
</trkpt>
<trkpt lat="46.0395130" lon="10.3277410">
	<ele>889.60</ele>
	<time>2025-07-30T08:23:34.000Z</time>
</trkpt>
<trkpt lat="46.0395150" lon="10.3277440">
	<ele>889.40</ele>
	<time>2025-07-30T08:23:35.000Z</time>
</trkpt>
<trkpt lat="46.0395090" lon="10.3277460">
	<ele>889.20</ele>
	<time>2025-07-30T08:23:36.000Z</time>
</trkpt>
<trkpt lat="46.0395020" lon="10.3277440">
	<ele>889.00</ele>
	<time>2025-07-30T08:23:37.000Z</time>
</trkpt>
<trkpt lat="46.0394930" lon="10.3277450">
	<ele>888.80</ele>
	<time>2025-07-30T08:23:38.000Z</time>
</trkpt>
<trkpt lat="46.0394860" lon="10.3277540">
	<ele>888.40</ele>
	<time>2025-07-30T08:23:39.000Z</time>
</trkpt>
<trkpt lat="46.0394850" lon="10.3277550">
	<ele>888.40</ele>
	<time>2025-07-30T08:23:40.000Z</time>
</trkpt>
<trkpt lat="46.0394800" lon="10.3277670">
	<ele>888.00</ele>
	<time>2025-07-30T08:23:41.000Z</time>
</trkpt>
<trkpt lat="46.0394750" lon="10.3277760">
	<ele>887.80</ele>
	<time>2025-07-30T08:23:42.000Z</time>
</trkpt>
<trkpt lat="46.0394680" lon="10.3277830">
	<ele>887.40</ele>
	<time>2025-07-30T08:23:43.000Z</time>
</trkpt>
<trkpt lat="46.0394560" lon="10.3277940">
	<ele>887.20</ele>
	<time>2025-07-30T08:23:44.000Z</time>
</trkpt>
<trkpt lat="46.0394470" lon="10.3278090">
	<ele>887.00</ele>
	<time>2025-07-30T08:23:45.000Z</time>
</trkpt>
<trkpt lat="46.0394410" lon="10.3278150">
	<ele>886.80</ele>
	<time>2025-07-30T08:23:46.000Z</time>
</trkpt>
<trkpt lat="46.0394380" lon="10.3278160">
	<ele>886.60</ele>
	<time>2025-07-30T08:23:47.000Z</time>
</trkpt>
<trkpt lat="46.0394310" lon="10.3278280">
	<ele>886.40</ele>
	<time>2025-07-30T08:23:48.000Z</time>
</trkpt>
<trkpt lat="46.0394270" lon="10.3278280">
	<ele>886.20</ele>
	<time>2025-07-30T08:23:49.000Z</time>
</trkpt>
<trkpt lat="46.0394170" lon="10.3278360">
	<ele>886.20</ele>
	<time>2025-07-30T08:23:50.000Z</time>
</trkpt>
<trkpt lat="46.0394100" lon="10.3278490">
	<ele>885.80</ele>
	<time>2025-07-30T08:23:51.000Z</time>
</trkpt>
<trkpt lat="46.0394030" lon="10.3278640">
	<ele>885.40</ele>
	<time>2025-07-30T08:23:52.000Z</time>
</trkpt>
<trkpt lat="46.0393990" lon="10.3278680">
	<ele>885.20</ele>
	<time>2025-07-30T08:23:53.000Z</time>
</trkpt>
<trkpt lat="46.0393930" lon="10.3278770">
	<ele>885.00</ele>
	<time>2025-07-30T08:23:54.000Z</time>
</trkpt>
<trkpt lat="46.0393820" lon="10.3279020">
	<ele>884.80</ele>
	<time>2025-07-30T08:23:55.000Z</time>
</trkpt>
<trkpt lat="46.0393800" lon="10.3279230">
	<ele>884.60</ele>
	<time>2025-07-30T08:23:56.000Z</time>
</trkpt>
<trkpt lat="46.0393780" lon="10.3279440">
	<ele>884.40</ele>
	<time>2025-07-30T08:23:57.000Z</time>
</trkpt>
<trkpt lat="46.0393740" lon="10.3279630">
	<ele>884.40</ele>
	<time>2025-07-30T08:23:58.000Z</time>
</trkpt>
<trkpt lat="46.0393640" lon="10.3279780">
	<ele>884.20</ele>
	<time>2025-07-30T08:23:59.000Z</time>
</trkpt>
<trkpt lat="46.0393530" lon="10.3279930">
	<ele>884.20</ele>
	<time>2025-07-30T08:24:00.000Z</time>
</trkpt>
<trkpt lat="46.0393430" lon="10.3280090">
	<ele>884.20</ele>
	<time>2025-07-30T08:24:01.000Z</time>
</trkpt>
<trkpt lat="46.0393340" lon="10.3280240">
	<ele>884.00</ele>
	<time>2025-07-30T08:24:02.000Z</time>
</trkpt>
<trkpt lat="46.0393310" lon="10.3280390">
	<ele>883.80</ele>
	<time>2025-07-30T08:24:03.000Z</time>
</trkpt>
<trkpt lat="46.0393320" lon="10.3280540">
	<ele>883.40</ele>
	<time>2025-07-30T08:24:04.000Z</time>
</trkpt>
<trkpt lat="46.0393350" lon="10.3280690">
	<ele>883.20</ele>
	<time>2025-07-30T08:24:05.000Z</time>
</trkpt>
<trkpt lat="46.0393400" lon="10.3280820">
	<ele>883.00</ele>
	<time>2025-07-30T08:24:06.000Z</time>
</trkpt>
<trkpt lat="46.0393340" lon="10.3280990">
	<ele>882.60</ele>
	<time>2025-07-30T08:24:07.000Z</time>
</trkpt>
<trkpt lat="46.0393210" lon="10.3281180">
	<ele>882.20</ele>
	<time>2025-07-30T08:24:08.000Z</time>
</trkpt>
<trkpt lat="46.0393060" lon="10.3281380">
	<ele>882.00</ele>
	<time>2025-07-30T08:24:09.000Z</time>
</trkpt>
<trkpt lat="46.0392920" lon="10.3281590">
	<ele>881.60</ele>
	<time>2025-07-30T08:24:10.000Z</time>
</trkpt>
<trkpt lat="46.0392810" lon="10.3281830">
	<ele>881.20</ele>
	<time>2025-07-30T08:24:11.000Z</time>
</trkpt>
<trkpt lat="46.0392750" lon="10.3281990">
	<ele>881.00</ele>
	<time>2025-07-30T08:24:12.000Z</time>
</trkpt>
<trkpt lat="46.0392670" lon="10.3282180">
	<ele>880.60</ele>
	<time>2025-07-30T08:24:13.000Z</time>
</trkpt>
<trkpt lat="46.0392590" lon="10.3282370">
	<ele>880.40</ele>
	<time>2025-07-30T08:24:14.000Z</time>
</trkpt>
<trkpt lat="46.0392500" lon="10.3282610">
	<ele>880.20</ele>
	<time>2025-07-30T08:24:15.000Z</time>
</trkpt>
<trkpt lat="46.0392480" lon="10.3282840">
	<ele>880.00</ele>
	<time>2025-07-30T08:24:16.000Z</time>
</trkpt>
<trkpt lat="46.0392460" lon="10.3283020">
	<ele>879.80</ele>
	<time>2025-07-30T08:24:17.000Z</time>
</trkpt>
<trkpt lat="46.0392440" lon="10.3283190">
	<ele>879.60</ele>
	<time>2025-07-30T08:24:18.000Z</time>
</trkpt>
<trkpt lat="46.0392390" lon="10.3283350">
	<ele>879.40</ele>
	<time>2025-07-30T08:24:19.000Z</time>
</trkpt>
<trkpt lat="46.0392330" lon="10.3283480">
	<ele>879.40</ele>
	<time>2025-07-30T08:24:20.000Z</time>
</trkpt>
<trkpt lat="46.0392230" lon="10.3283700">
	<ele>879.00</ele>
	<time>2025-07-30T08:24:21.000Z</time>
</trkpt>
<trkpt lat="46.0392130" lon="10.3283940">
	<ele>878.80</ele>
	<time>2025-07-30T08:24:22.000Z</time>
</trkpt>
<trkpt lat="46.0391990" lon="10.3284200">
	<ele>878.60</ele>
	<time>2025-07-30T08:24:23.000Z</time>
</trkpt>
<trkpt lat="46.0391870" lon="10.3284380">
	<ele>878.40</ele>
	<time>2025-07-30T08:24:24.000Z</time>
</trkpt>
<trkpt lat="46.0391800" lon="10.3284560">
	<ele>878.20</ele>
	<time>2025-07-30T08:24:25.000Z</time>
</trkpt>
<trkpt lat="46.0391680" lon="10.3284740">
	<ele>878.00</ele>
	<time>2025-07-30T08:24:26.000Z</time>
</trkpt>
<trkpt lat="46.0391720" lon="10.3284900">
	<ele>877.80</ele>
	<time>2025-07-30T08:24:27.000Z</time>
</trkpt>
<trkpt lat="46.0391610" lon="10.3285080">
	<ele>877.60</ele>
	<time>2025-07-30T08:24:28.000Z</time>
</trkpt>
<trkpt lat="46.0391530" lon="10.3285230">
	<ele>877.40</ele>
	<time>2025-07-30T08:24:29.000Z</time>
</trkpt>
<trkpt lat="46.0391490" lon="10.3285450">
	<ele>877.00</ele>
	<time>2025-07-30T08:24:30.000Z</time>
</trkpt>
<trkpt lat="46.0391370" lon="10.3285620">
	<ele>876.80</ele>
	<time>2025-07-30T08:24:31.000Z</time>
</trkpt>
<trkpt lat="46.0391300" lon="10.3285790">
	<ele>876.60</ele>
	<time>2025-07-30T08:24:32.000Z</time>
</trkpt>
<trkpt lat="46.0391250" lon="10.3285950">
	<ele>876.40</ele>
	<time>2025-07-30T08:24:33.000Z</time>
</trkpt>
<trkpt lat="46.0391210" lon="10.3286090">
	<ele>876.40</ele>
	<time>2025-07-30T08:24:34.000Z</time>
</trkpt>
<trkpt lat="46.0391060" lon="10.3286270">
	<ele>876.20</ele>
	<time>2025-07-30T08:24:35.000Z</time>
</trkpt>
<trkpt lat="46.0390890" lon="10.3286500">
	<ele>876.00</ele>
	<time>2025-07-30T08:24:36.000Z</time>
</trkpt>
<trkpt lat="46.0390740" lon="10.3286740">
	<ele>875.80</ele>
	<time>2025-07-30T08:24:37.000Z</time>
</trkpt>
<trkpt lat="46.0390610" lon="10.3286930">
	<ele>875.80</ele>
	<time>2025-07-30T08:24:38.000Z</time>
</trkpt>
<trkpt lat="46.0390500" lon="10.3287060">
	<ele>875.60</ele>
	<time>2025-07-30T08:24:39.000Z</time>
</trkpt>
<trkpt lat="46.0390370" lon="10.3287220">
	<ele>875.60</ele>
	<time>2025-07-30T08:24:40.000Z</time>
</trkpt>
<trkpt lat="46.0390310" lon="10.3287310">
	<ele>875.40</ele>
	<time>2025-07-30T08:24:41.000Z</time>
</trkpt>
<trkpt lat="46.0390190" lon="10.3287430">
	<ele>875.40</ele>
	<time>2025-07-30T08:24:42.000Z</time>
</trkpt>
<trkpt lat="46.0390030" lon="10.3287530">
	<ele>875.20</ele>
	<time>2025-07-30T08:24:43.000Z</time>
</trkpt>
<trkpt lat="46.0389870" lon="10.3287670">
	<ele>875.00</ele>
	<time>2025-07-30T08:24:44.000Z</time>
</trkpt>
<trkpt lat="46.0389770" lon="10.3287820">
	<ele>875.00</ele>
	<time>2025-07-30T08:24:45.000Z</time>
</trkpt>
<trkpt lat="46.0389670" lon="10.3287950">
	<ele>875.00</ele>
	<time>2025-07-30T08:24:46.000Z</time>
</trkpt>
<trkpt lat="46.0389580" lon="10.3288100">
	<ele>874.80</ele>
	<time>2025-07-30T08:24:47.000Z</time>
</trkpt>
<trkpt lat="46.0389540" lon="10.3288240">
	<ele>874.80</ele>
	<time>2025-07-30T08:24:48.000Z</time>
</trkpt>
<trkpt lat="46.0389470" lon="10.3288310">
	<ele>874.60</ele>
	<time>2025-07-30T08:24:49.000Z</time>
</trkpt>
<trkpt lat="46.0389420" lon="10.3288410">
	<ele>874.60</ele>
	<time>2025-07-30T08:24:50.000Z</time>
</trkpt>
<trkpt lat="46.0389320" lon="10.3288480">
	<ele>874.40</ele>
	<time>2025-07-30T08:24:51.000Z</time>
</trkpt>
<trkpt lat="46.0389250" lon="10.3288540">
	<ele>874.40</ele>
	<time>2025-07-30T08:24:52.000Z</time>
</trkpt>
<trkpt lat="46.0389110" lon="10.3288600">
	<ele>874.20</ele>
	<time>2025-07-30T08:24:53.000Z</time>
</trkpt>
<trkpt lat="46.0388920" lon="10.3288650">
	<ele>874.20</ele>
	<time>2025-07-30T08:24:54.000Z</time>
</trkpt>
<trkpt lat="46.0388800" lon="10.3288730">
	<ele>874.00</ele>
	<time>2025-07-30T08:24:55.000Z</time>
</trkpt>
<trkpt lat="46.0388680" lon="10.3288820">
	<ele>873.60</ele>
	<time>2025-07-30T08:24:56.000Z</time>
</trkpt>
<trkpt lat="46.0388570" lon="10.3288910">
	<ele>873.40</ele>
	<time>2025-07-30T08:24:57.000Z</time>
</trkpt>
<trkpt lat="46.0388480" lon="10.3289040">
	<ele>873.20</ele>
	<time>2025-07-30T08:24:58.000Z</time>
</trkpt>
<trkpt lat="46.0388380" lon="10.3289130">
	<ele>873.00</ele>
	<time>2025-07-30T08:24:59.000Z</time>
</trkpt>
<trkpt lat="46.0388290" lon="10.3289170">
	<ele>872.60</ele>
	<time>2025-07-30T08:25:00.000Z</time>
</trkpt>
<trkpt lat="46.0388150" lon="10.3289230">
	<ele>872.40</ele>
	<time>2025-07-30T08:25:01.000Z</time>
</trkpt>
<trkpt lat="46.0388040" lon="10.3289300">
	<ele>872.20</ele>
	<time>2025-07-30T08:25:02.000Z</time>
</trkpt>
<trkpt lat="46.0387910" lon="10.3289330">
	<ele>871.80</ele>
	<time>2025-07-30T08:25:03.000Z</time>
</trkpt>
<trkpt lat="46.0387790" lon="10.3289320">
	<ele>871.60</ele>
	<time>2025-07-30T08:25:04.000Z</time>
</trkpt>
<trkpt lat="46.0387730" lon="10.3289310">
	<ele>871.40</ele>
	<time>2025-07-30T08:25:05.000Z</time>
</trkpt>
<trkpt lat="46.0387680" lon="10.3289260">
	<ele>871.00</ele>
	<time>2025-07-30T08:25:06.000Z</time>
</trkpt>
<trkpt lat="46.0387590" lon="10.3289280">
	<ele>870.60</ele>
	<time>2025-07-30T08:25:07.000Z</time>
</trkpt>
<trkpt lat="46.0387490" lon="10.3289310">
	<ele>870.40</ele>
	<time>2025-07-30T08:25:08.000Z</time>
</trkpt>
<trkpt lat="46.0387380" lon="10.3289380">
	<ele>870.20</ele>
	<time>2025-07-30T08:25:09.000Z</time>
</trkpt>
<trkpt lat="46.0387280" lon="10.3289430">
	<ele>870.00</ele>
	<time>2025-07-30T08:25:10.000Z</time>
</trkpt>
<trkpt lat="46.0387140" lon="10.3289440">
	<ele>869.80</ele>
	<time>2025-07-30T08:25:11.000Z</time>
</trkpt>
<trkpt lat="46.0387020" lon="10.3289440">
	<ele>869.60</ele>
	<time>2025-07-30T08:25:12.000Z</time>
</trkpt>
<trkpt lat="46.0386910" lon="10.3289330">
	<ele>869.40</ele>
	<time>2025-07-30T08:25:13.000Z</time>
</trkpt>
<trkpt lat="46.0386830" lon="10.3289280">
	<ele>869.20</ele>
	<time>2025-07-30T08:25:14.000Z</time>
</trkpt>
<trkpt lat="46.0386830" lon="10.3289260">
	<ele>869.20</ele>
	<time>2025-07-30T08:25:15.000Z</time>
</trkpt>
<trkpt lat="46.0386830" lon="10.3289250">
	<ele>869.00</ele>
	<time>2025-07-30T08:25:16.000Z</time>
</trkpt>
<trkpt lat="46.0386820" lon="10.3289230">
	<ele>869.00</ele>
	<time>2025-07-30T08:25:17.000Z</time>
</trkpt>
<trkpt lat="46.0386780" lon="10.3289200">
	<ele>868.80</ele>
	<time>2025-07-30T08:25:18.000Z</time>
</trkpt>
<trkpt lat="46.0386730" lon="10.3289200">
	<ele>868.80</ele>
	<time>2025-07-30T08:25:19.000Z</time>
</trkpt>
<trkpt lat="46.0386660" lon="10.3289220">
	<ele>868.80</ele>
	<time>2025-07-30T08:25:20.000Z</time>
</trkpt>
<trkpt lat="46.0386560" lon="10.3289250">
	<ele>868.60</ele>
	<time>2025-07-30T08:25:21.000Z</time>
</trkpt>
<trkpt lat="46.0386470" lon="10.3289300">
	<ele>868.40</ele>
	<time>2025-07-30T08:25:22.000Z</time>
</trkpt>
<trkpt lat="46.0386380" lon="10.3289340">
	<ele>868.40</ele>
	<time>2025-07-30T08:25:23.000Z</time>
</trkpt>
<trkpt lat="46.0386290" lon="10.3289340">
	<ele>868.00</ele>
	<time>2025-07-30T08:25:24.000Z</time>
</trkpt>
<trkpt lat="46.0386190" lon="10.3289410">
	<ele>867.80</ele>
	<time>2025-07-30T08:25:25.000Z</time>
</trkpt>
<trkpt lat="46.0386120" lon="10.3289480">
	<ele>867.80</ele>
	<time>2025-07-30T08:25:26.000Z</time>
</trkpt>
<trkpt lat="46.0386050" lon="10.3289550">
	<ele>867.60</ele>
	<time>2025-07-30T08:25:27.000Z</time>
</trkpt>
<trkpt lat="46.0385940" lon="10.3289670">
	<ele>867.40</ele>
	<time>2025-07-30T08:25:28.000Z</time>
</trkpt>
<trkpt lat="46.0385820" lon="10.3289790">
	<ele>867.20</ele>
	<time>2025-07-30T08:25:29.000Z</time>
</trkpt>
<trkpt lat="46.0385700" lon="10.3289870">
	<ele>866.80</ele>
	<time>2025-07-30T08:25:30.000Z</time>
</trkpt>
<trkpt lat="46.0385500" lon="10.3289920">
	<ele>866.60</ele>
	<time>2025-07-30T08:25:31.000Z</time>
</trkpt>
<trkpt lat="46.0385340" lon="10.3289920">
	<ele>866.60</ele>
	<time>2025-07-30T08:25:32.000Z</time>
</trkpt>
<trkpt lat="46.0385140" lon="10.3289950">
	<ele>866.60</ele>
	<time>2025-07-30T08:25:33.000Z</time>
</trkpt>
<trkpt lat="46.0385040" lon="10.3290050">
	<ele>866.40</ele>
	<time>2025-07-30T08:25:34.000Z</time>
</trkpt>
<trkpt lat="46.0384970" lon="10.3290030">
	<ele>866.20</ele>
	<time>2025-07-30T08:25:35.000Z</time>
</trkpt>
<trkpt lat="46.0384850" lon="10.3290060">
	<ele>866.20</ele>
	<time>2025-07-30T08:25:36.000Z</time>
</trkpt>
<trkpt lat="46.0384690" lon="10.3290080">
	<ele>866.20</ele>
	<time>2025-07-30T08:25:37.000Z</time>
</trkpt>
<trkpt lat="46.0384580" lon="10.3290070">
	<ele>866.00</ele>
	<time>2025-07-30T08:25:38.000Z</time>
</trkpt>
<trkpt lat="46.0384490" lon="10.3290110">
	<ele>866.00</ele>
	<time>2025-07-30T08:25:39.000Z</time>
</trkpt>
<trkpt lat="46.0384420" lon="10.3290150">
	<ele>866.00</ele>
	<time>2025-07-30T08:25:40.000Z</time>
</trkpt>
<trkpt lat="46.0384330" lon="10.3290150">
	<ele>866.00</ele>
	<time>2025-07-30T08:25:41.000Z</time>
</trkpt>
<trkpt lat="46.0384240" lon="10.3290220">
	<ele>865.60</ele>
	<time>2025-07-30T08:25:42.000Z</time>
</trkpt>
<trkpt lat="46.0384230" lon="10.3290200">
	<ele>865.60</ele>
	<time>2025-07-30T08:25:43.000Z</time>
</trkpt>
<trkpt lat="46.0384230" lon="10.3290180">
	<ele>865.40</ele>
	<time>2025-07-30T08:25:44.000Z</time>
</trkpt>
<trkpt lat="46.0384130" lon="10.3290250">
	<ele>865.40</ele>
	<time>2025-07-30T08:25:45.000Z</time>
</trkpt>
<trkpt lat="46.0384120" lon="10.3290280">
	<ele>865.20</ele>
	<time>2025-07-30T08:25:46.000Z</time>
</trkpt>
<trkpt lat="46.0384010" lon="10.3290350">
	<ele>865.20</ele>
	<time>2025-07-30T08:25:47.000Z</time>
</trkpt>
<trkpt lat="46.0384020" lon="10.3290380">
	<ele>865.20</ele>
	<time>2025-07-30T08:25:48.000Z</time>
</trkpt>
<trkpt lat="46.0383940" lon="10.3290420">
	<ele>865.00</ele>
	<time>2025-07-30T08:25:49.000Z</time>
</trkpt>
<trkpt lat="46.0383940" lon="10.3290420">
	<ele>865.00</ele>
	<time>2025-07-30T08:25:50.000Z</time>
</trkpt>
<trkpt lat="46.0383930" lon="10.3290350">
	<ele>865.00</ele>
	<time>2025-07-30T08:25:51.000Z</time>
</trkpt>
<trkpt lat="46.0383930" lon="10.3290220">
	<ele>865.00</ele>
	<time>2025-07-30T08:25:52.000Z</time>
</trkpt>
<trkpt lat="46.0383960" lon="10.3290180">
	<ele>865.00</ele>
	<time>2025-07-30T08:25:53.000Z</time>
</trkpt>
<trkpt lat="46.0383970" lon="10.3290140">
	<ele>865.00</ele>
	<time>2025-07-30T08:25:54.000Z</time>
</trkpt>
<trkpt lat="46.0383970" lon="10.3290130">
	<ele>865.00</ele>
	<time>2025-07-30T08:25:55.000Z</time>
</trkpt>
<trkpt lat="46.0383970" lon="10.3290130">
	<ele>865.00</ele>
	<time>2025-07-30T08:25:56.000Z</time>
</trkpt>
<trkpt lat="46.0383970" lon="10.3290090">
	<ele>865.00</ele>
	<time>2025-07-30T08:25:57.000Z</time>
</trkpt>
<trkpt lat="46.0383990" lon="10.3290040">
	<ele>865.00</ele>
	<time>2025-07-30T08:25:58.000Z</time>
</trkpt>
<trkpt lat="46.0383950" lon="10.3290090">
	<ele>865.00</ele>
	<time>2025-07-30T08:25:59.000Z</time>
</trkpt>
<trkpt lat="46.0383900" lon="10.3290090">
	<ele>865.00</ele>
	<time>2025-07-30T08:26:00.000Z</time>
</trkpt>
<trkpt lat="46.0383840" lon="10.3290060">
	<ele>865.00</ele>
	<time>2025-07-30T08:26:01.000Z</time>
</trkpt>
<trkpt lat="46.0383750" lon="10.3289940">
	<ele>864.80</ele>
	<time>2025-07-30T08:26:02.000Z</time>
</trkpt>
<trkpt lat="46.0383660" lon="10.3289840">
	<ele>864.80</ele>
	<time>2025-07-30T08:26:03.000Z</time>
</trkpt>
<trkpt lat="46.0383590" lon="10.3289800">
	<ele>864.80</ele>
	<time>2025-07-30T08:26:04.000Z</time>
</trkpt>
<trkpt lat="46.0383570" lon="10.3289730">
	<ele>864.60</ele>
	<time>2025-07-30T08:26:05.000Z</time>
</trkpt>
<trkpt lat="46.0383540" lon="10.3289790">
	<ele>864.60</ele>
	<time>2025-07-30T08:26:06.000Z</time>
</trkpt>
<trkpt lat="46.0383510" lon="10.3289860">
	<ele>864.60</ele>
	<time>2025-07-30T08:26:07.000Z</time>
</trkpt>
<trkpt lat="46.0383480" lon="10.3289930">
	<ele>864.80</ele>
	<time>2025-07-30T08:26:08.000Z</time>
</trkpt>
<trkpt lat="46.0383510" lon="10.3289980">
	<ele>864.80</ele>
	<time>2025-07-30T08:26:09.000Z</time>
</trkpt>
<trkpt lat="46.0383560" lon="10.3289960">
	<ele>864.80</ele>
	<time>2025-07-30T08:26:10.000Z</time>
</trkpt>
<trkpt lat="46.0383570" lon="10.3289960">
	<ele>864.80</ele>
	<time>2025-07-30T08:26:11.000Z</time>
</trkpt>
<trkpt lat="46.0383600" lon="10.3289900">
	<ele>865.00</ele>
	<time>2025-07-30T08:26:12.000Z</time>
</trkpt>
<trkpt lat="46.0383640" lon="10.3289950">
	<ele>864.80</ele>
	<time>2025-07-30T08:26:13.000Z</time>
</trkpt>
<trkpt lat="46.0383670" lon="10.3290000">
	<ele>864.80</ele>
	<time>2025-07-30T08:26:14.000Z</time>
</trkpt>
<trkpt lat="46.0383690" lon="10.3289990">
	<ele>864.80</ele>
	<time>2025-07-30T08:26:15.000Z</time>
</trkpt>
<trkpt lat="46.0383720" lon="10.3289960">
	<ele>864.80</ele>
	<time>2025-07-30T08:26:16.000Z</time>
</trkpt>
<trkpt lat="46.0383740" lon="10.3289960">
	<ele>864.80</ele>
	<time>2025-07-30T08:26:17.000Z</time>
</trkpt>
<trkpt lat="46.0383760" lon="10.3289950">
	<ele>864.80</ele>
	<time>2025-07-30T08:26:18.000Z</time>
</trkpt>
<trkpt lat="46.0383750" lon="10.3289950">
	<ele>864.80</ele>
	<time>2025-07-30T08:26:19.000Z</time>
</trkpt>
<trkpt lat="46.0383680" lon="10.3290040">
	<ele>864.80</ele>
	<time>2025-07-30T08:26:20.000Z</time>
</trkpt>
<trkpt lat="46.0383600" lon="10.3290000">
	<ele>864.60</ele>
	<time>2025-07-30T08:26:21.000Z</time>
</trkpt>
<trkpt lat="46.0383480" lon="10.3290030">
	<ele>864.60</ele>
	<time>2025-07-30T08:26:22.000Z</time>
</trkpt>
<trkpt lat="46.0383330" lon="10.3290110">
	<ele>864.40</ele>
	<time>2025-07-30T08:26:23.000Z</time>
</trkpt>
<trkpt lat="46.0383190" lon="10.3290160">
	<ele>864.40</ele>
	<time>2025-07-30T08:26:24.000Z</time>
</trkpt>
<trkpt lat="46.0383050" lon="10.3290220">
	<ele>864.40</ele>
	<time>2025-07-30T08:26:25.000Z</time>
</trkpt>
<trkpt lat="46.0382960" lon="10.3290240">
	<ele>864.40</ele>
	<time>2025-07-30T08:26:26.000Z</time>
</trkpt>
<trkpt lat="46.0382930" lon="10.3290270">
	<ele>864.20</ele>
	<time>2025-07-30T08:26:27.000Z</time>
</trkpt>
<trkpt lat="46.0382890" lon="10.3290330">
	<ele>864.20</ele>
	<time>2025-07-30T08:26:28.000Z</time>
</trkpt>
<trkpt lat="46.0382820" lon="10.3290350">
	<ele>864.00</ele>
	<time>2025-07-30T08:26:29.000Z</time>
</trkpt>
<trkpt lat="46.0382730" lon="10.3290400">
	<ele>864.00</ele>
	<time>2025-07-30T08:26:30.000Z</time>
</trkpt>
<trkpt lat="46.0382660" lon="10.3290470">
	<ele>864.00</ele>
	<time>2025-07-30T08:26:31.000Z</time>
</trkpt>
<trkpt lat="46.0382550" lon="10.3290580">
	<ele>864.00</ele>
	<time>2025-07-30T08:26:32.000Z</time>
</trkpt>
<trkpt lat="46.0382440" lon="10.3290670">
	<ele>863.80</ele>
	<time>2025-07-30T08:26:33.000Z</time>
</trkpt>
<trkpt lat="46.0382330" lon="10.3290790">
	<ele>863.80</ele>
	<time>2025-07-30T08:26:34.000Z</time>
</trkpt>
<trkpt lat="46.0382200" lon="10.3290920">
	<ele>863.80</ele>
	<time>2025-07-30T08:26:35.000Z</time>
</trkpt>
<trkpt lat="46.0382030" lon="10.3291020">
	<ele>863.40</ele>
	<time>2025-07-30T08:26:36.000Z</time>
</trkpt>
<trkpt lat="46.0381920" lon="10.3291040">
	<ele>863.20</ele>
	<time>2025-07-30T08:26:37.000Z</time>
</trkpt>
<trkpt lat="46.0381810" lon="10.3291070">
	<ele>863.00</ele>
	<time>2025-07-30T08:26:38.000Z</time>
</trkpt>
<trkpt lat="46.0381780" lon="10.3291060">
	<ele>862.80</ele>
	<time>2025-07-30T08:26:39.000Z</time>
</trkpt>
<trkpt lat="46.0381690" lon="10.3291070">
	<ele>862.60</ele>
	<time>2025-07-30T08:26:40.000Z</time>
</trkpt>
<trkpt lat="46.0381550" lon="10.3291270">
	<ele>862.40</ele>
	<time>2025-07-30T08:26:41.000Z</time>
</trkpt>
<trkpt lat="46.0381310" lon="10.3291400">
	<ele>862.40</ele>
	<time>2025-07-30T08:26:42.000Z</time>
</trkpt>
<trkpt lat="46.0381030" lon="10.3291450">
	<ele>862.00</ele>
	<time>2025-07-30T08:26:43.000Z</time>
</trkpt>
<trkpt lat="46.0380790" lon="10.3291520">
	<ele>861.80</ele>
	<time>2025-07-30T08:26:44.000Z</time>
</trkpt>
<trkpt lat="46.0380560" lon="10.3291570">
	<ele>861.80</ele>
	<time>2025-07-30T08:26:45.000Z</time>
</trkpt>
<trkpt lat="46.0380400" lon="10.3291610">
	<ele>861.60</ele>
	<time>2025-07-30T08:26:46.000Z</time>
</trkpt>
<trkpt lat="46.0380210" lon="10.3291560">
	<ele>861.40</ele>
	<time>2025-07-30T08:26:47.000Z</time>
</trkpt>
<trkpt lat="46.0380130" lon="10.3291560">
	<ele>861.40</ele>
	<time>2025-07-30T08:26:48.000Z</time>
</trkpt>
<trkpt lat="46.0380030" lon="10.3291600">
	<ele>861.20</ele>
	<time>2025-07-30T08:26:49.000Z</time>
</trkpt>
<trkpt lat="46.0379950" lon="10.3291650">
	<ele>861.00</ele>
	<time>2025-07-30T08:26:50.000Z</time>
</trkpt>
<trkpt lat="46.0379830" lon="10.3291600">
	<ele>860.80</ele>
	<time>2025-07-30T08:26:51.000Z</time>
</trkpt>
<trkpt lat="46.0379650" lon="10.3291700">
	<ele>860.40</ele>
	<time>2025-07-30T08:26:52.000Z</time>
</trkpt>
<trkpt lat="46.0379510" lon="10.3291720">
	<ele>860.20</ele>
	<time>2025-07-30T08:26:53.000Z</time>
</trkpt>
<trkpt lat="46.0379330" lon="10.3291720">
	<ele>860.20</ele>
	<time>2025-07-30T08:26:54.000Z</time>
</trkpt>
<trkpt lat="46.0379130" lon="10.3291650">
	<ele>860.00</ele>
	<time>2025-07-30T08:26:55.000Z</time>
</trkpt>
<trkpt lat="46.0379030" lon="10.3291590">
	<ele>860.00</ele>
	<time>2025-07-30T08:26:56.000Z</time>
</trkpt>
<trkpt lat="46.0378980" lon="10.3291530">
	<ele>860.00</ele>
	<time>2025-07-30T08:26:57.000Z</time>
</trkpt>
<trkpt lat="46.0378920" lon="10.3291420">
	<ele>860.00</ele>
	<time>2025-07-30T08:26:58.000Z</time>
</trkpt>
<trkpt lat="46.0378810" lon="10.3291320">
	<ele>860.00</ele>
	<time>2025-07-30T08:26:59.000Z</time>
</trkpt>
<trkpt lat="46.0378610" lon="10.3291170">
	<ele>859.80</ele>
	<time>2025-07-30T08:27:00.000Z</time>
</trkpt>
<trkpt lat="46.0378500" lon="10.3291180">
	<ele>859.60</ele>
	<time>2025-07-30T08:27:01.000Z</time>
</trkpt>
<trkpt lat="46.0378410" lon="10.3291210">
	<ele>859.60</ele>
	<time>2025-07-30T08:27:02.000Z</time>
</trkpt>
<trkpt lat="46.0378280" lon="10.3291290">
	<ele>859.40</ele>
	<time>2025-07-30T08:27:03.000Z</time>
</trkpt>
<trkpt lat="46.0378180" lon="10.3291360">
	<ele>859.40</ele>
	<time>2025-07-30T08:27:04.000Z</time>
</trkpt>
<trkpt lat="46.0378120" lon="10.3291360">
	<ele>859.20</ele>
	<time>2025-07-30T08:27:05.000Z</time>
</trkpt>
<trkpt lat="46.0378080" lon="10.3291380">
	<ele>859.20</ele>
	<time>2025-07-30T08:27:06.000Z</time>
</trkpt>
<trkpt lat="46.0378050" lon="10.3291420">
	<ele>859.20</ele>
	<time>2025-07-30T08:27:07.000Z</time>
</trkpt>
<trkpt lat="46.0378030" lon="10.3291410">
	<ele>859.20</ele>
	<time>2025-07-30T08:27:08.000Z</time>
</trkpt>
<trkpt lat="46.0378010" lon="10.3291410">
	<ele>859.20</ele>
	<time>2025-07-30T08:27:09.000Z</time>
</trkpt>
<trkpt lat="46.0378010" lon="10.3291400">
	<ele>859.00</ele>
	<time>2025-07-30T08:27:10.000Z</time>
</trkpt>
<trkpt lat="46.0377990" lon="10.3291500">
	<ele>859.00</ele>
	<time>2025-07-30T08:27:11.000Z</time>
</trkpt>
<trkpt lat="46.0377990" lon="10.3291490">
	<ele>859.20</ele>
	<time>2025-07-30T08:27:12.000Z</time>
</trkpt>
<trkpt lat="46.0378020" lon="10.3291420">
	<ele>859.20</ele>
	<time>2025-07-30T08:27:13.000Z</time>
</trkpt>
<trkpt lat="46.0378050" lon="10.3291420">
	<ele>859.20</ele>
	<time>2025-07-30T08:27:14.000Z</time>
</trkpt>
<trkpt lat="46.0378050" lon="10.3291470">
	<ele>859.20</ele>
	<time>2025-07-30T08:27:15.000Z</time>
</trkpt>
<trkpt lat="46.0378050" lon="10.3291510">
	<ele>859.20</ele>
	<time>2025-07-30T08:27:16.000Z</time>
</trkpt>
<trkpt lat="46.0378030" lon="10.3291570">
	<ele>859.00</ele>
	<time>2025-07-30T08:27:17.000Z</time>
</trkpt>
<trkpt lat="46.0378030" lon="10.3291600">
	<ele>859.20</ele>
	<time>2025-07-30T08:27:18.000Z</time>
</trkpt>
<trkpt lat="46.0378010" lon="10.3291620">
	<ele>859.00</ele>
	<time>2025-07-30T08:27:19.000Z</time>
</trkpt>
<trkpt lat="46.0378010" lon="10.3291610">
	<ele>859.00</ele>
	<time>2025-07-30T08:27:20.000Z</time>
</trkpt>
<trkpt lat="46.0378110" lon="10.3291530">
	<ele>859.00</ele>
	<time>2025-07-30T08:27:21.000Z</time>
</trkpt>
<trkpt lat="46.0378220" lon="10.3291450">
	<ele>859.00</ele>
	<time>2025-07-30T08:27:22.000Z</time>
</trkpt>
<trkpt lat="46.0378230" lon="10.3291440">
	<ele>859.00</ele>
	<time>2025-07-30T08:27:23.000Z</time>
</trkpt>
<trkpt lat="46.0378230" lon="10.3291440">
	<ele>859.00</ele>
	<time>2025-07-30T08:27:24.000Z</time>
</trkpt>
<trkpt lat="46.0378230" lon="10.3291440">
	<ele>859.00</ele>
	<time>2025-07-30T08:27:25.000Z</time>
</trkpt>
<trkpt lat="46.0378230" lon="10.3291440">
	<ele>859.00</ele>
	<time>2025-07-30T08:27:26.000Z</time>
</trkpt>
<trkpt lat="46.0378230" lon="10.3291440">
	<ele>859.00</ele>
	<time>2025-07-30T08:27:27.000Z</time>
</trkpt>
<trkpt lat="46.0378230" lon="10.3291440">
	<ele>859.00</ele>
	<time>2025-07-30T08:27:28.000Z</time>
</trkpt>
<trkpt lat="46.0378230" lon="10.3291440">
	<ele>859.00</ele>
	<time>2025-07-30T08:27:29.000Z</time>
</trkpt>
<trkpt lat="46.0378230" lon="10.3291440">
	<ele>859.00</ele>
	<time>2025-07-30T08:27:30.000Z</time>
</trkpt>
<trkpt lat="46.0378230" lon="10.3291440">
	<ele>859.00</ele>
	<time>2025-07-30T08:27:31.000Z</time>
</trkpt>
<trkpt lat="46.0378230" lon="10.3291440">
	<ele>859.00</ele>
	<time>2025-07-30T08:27:32.000Z</time>
</trkpt>
<trkpt lat="46.0378230" lon="10.3291440">
	<ele>859.00</ele>
	<time>2025-07-30T08:27:33.000Z</time>
</trkpt>
<trkpt lat="46.0378230" lon="10.3291440">
	<ele>859.00</ele>
	<time>2025-07-30T08:27:34.000Z</time>
</trkpt>
<trkpt lat="46.0378230" lon="10.3291440">
	<ele>859.00</ele>
	<time>2025-07-30T08:27:35.000Z</time>
</trkpt>
<trkpt lat="46.0378230" lon="10.3291440">
	<ele>859.00</ele>
	<time>2025-07-30T08:27:36.000Z</time>
</trkpt>
<trkpt lat="46.0378230" lon="10.3291440">
	<ele>859.00</ele>
	<time>2025-07-30T08:27:37.000Z</time>
</trkpt>
<trkpt lat="46.0378230" lon="10.3291440">
	<ele>859.00</ele>
	<time>2025-07-30T08:27:38.000Z</time>
</trkpt>
<trkpt lat="46.0378230" lon="10.3291440">
	<ele>859.00</ele>
	<time>2025-07-30T08:27:39.000Z</time>
</trkpt>
<trkpt lat="46.0378230" lon="10.3291440">
	<ele>859.00</ele>
	<time>2025-07-30T08:27:40.000Z</time>
</trkpt>
<trkpt lat="46.0378230" lon="10.3291440">
	<ele>859.00</ele>
	<time>2025-07-30T08:27:41.000Z</time>
</trkpt>
<trkpt lat="46.0378230" lon="10.3291440">
	<ele>859.00</ele>
	<time>2025-07-30T08:27:42.000Z</time>
</trkpt>
<trkpt lat="46.0378230" lon="10.3291450">
	<ele>859.00</ele>
	<time>2025-07-30T08:27:43.000Z</time>
</trkpt>
<trkpt lat="46.0378230" lon="10.3291450">
	<ele>859.00</ele>
	<time>2025-07-30T08:27:44.000Z</time>
</trkpt>
<trkpt lat="46.0378230" lon="10.3291450">
	<ele>859.00</ele>
	<time>2025-07-30T08:27:45.000Z</time>
</trkpt>
<trkpt lat="46.0378230" lon="10.3291450">
	<ele>859.00</ele>
	<time>2025-07-30T08:27:46.000Z</time>
</trkpt>
<trkpt lat="46.0378230" lon="10.3291450">
	<ele>859.00</ele>
	<time>2025-07-30T08:27:47.000Z</time>
</trkpt>
<trkpt lat="46.0378230" lon="10.3291450">
	<ele>859.00</ele>
	<time>2025-07-30T08:27:48.000Z</time>
</trkpt>
<trkpt lat="46.0378230" lon="10.3291450">
	<ele>859.00</ele>
	<time>2025-07-30T08:27:49.000Z</time>
</trkpt>
<trkpt lat="46.0378230" lon="10.3291450">
	<ele>859.00</ele>
	<time>2025-07-30T08:27:50.000Z</time>
</trkpt>
<trkpt lat="46.0378230" lon="10.3291450">
	<ele>859.20</ele>
	<time>2025-07-30T08:27:51.000Z</time>
</trkpt>
<trkpt lat="46.0378230" lon="10.3291480">
	<ele>859.20</ele>
	<time>2025-07-30T08:27:52.000Z</time>
</trkpt>
<trkpt lat="46.0378240" lon="10.3291530">
	<ele>859.20</ele>
	<time>2025-07-30T08:27:53.000Z</time>
</trkpt>
<trkpt lat="46.0378250" lon="10.3291550">
	<ele>859.20</ele>
	<time>2025-07-30T08:27:54.000Z</time>
</trkpt>
<trkpt lat="46.0378250" lon="10.3291570">
	<ele>859.20</ele>
	<time>2025-07-30T08:27:55.000Z</time>
</trkpt>
<trkpt lat="46.0378250" lon="10.3291570">
	<ele>859.40</ele>
	<time>2025-07-30T08:27:56.000Z</time>
</trkpt>
<trkpt lat="46.0378260" lon="10.3291590">
	<ele>859.40</ele>
	<time>2025-07-30T08:27:57.000Z</time>
</trkpt>
<trkpt lat="46.0378270" lon="10.3291610">
	<ele>859.60</ele>
	<time>2025-07-30T08:27:58.000Z</time>
</trkpt>
<trkpt lat="46.0378280" lon="10.3291650">
	<ele>859.60</ele>
	<time>2025-07-30T08:27:59.000Z</time>
</trkpt>
<trkpt lat="46.0378280" lon="10.3291670">
	<ele>859.60</ele>
	<time>2025-07-30T08:28:00.000Z</time>
</trkpt>
<trkpt lat="46.0378280" lon="10.3291680">
	<ele>859.60</ele>
	<time>2025-07-30T08:28:01.000Z</time>
</trkpt>
<trkpt lat="46.0378280" lon="10.3291700">
	<ele>859.60</ele>
	<time>2025-07-30T08:28:02.000Z</time>
</trkpt>
<trkpt lat="46.0378280" lon="10.3291700">
	<ele>859.60</ele>
	<time>2025-07-30T08:28:03.000Z</time>
</trkpt>
<trkpt lat="46.0378270" lon="10.3291710">
	<ele>859.40</ele>
	<time>2025-07-30T08:28:04.000Z</time>
</trkpt>
<trkpt lat="46.0378260" lon="10.3291720">
	<ele>859.40</ele>
	<time>2025-07-30T08:28:05.000Z</time>
</trkpt>
<trkpt lat="46.0378260" lon="10.3291720">
	<ele>859.40</ele>
	<time>2025-07-30T08:28:06.000Z</time>
</trkpt>
<trkpt lat="46.0378220" lon="10.3291730">
	<ele>859.20</ele>
	<time>2025-07-30T08:28:07.000Z</time>
</trkpt>
<trkpt lat="46.0378210" lon="10.3291740">
	<ele>859.20</ele>
	<time>2025-07-30T08:28:08.000Z</time>
</trkpt>
<trkpt lat="46.0378200" lon="10.3291750">
	<ele>859.20</ele>
	<time>2025-07-30T08:28:09.000Z</time>
</trkpt>
<trkpt lat="46.0378200" lon="10.3291770">
	<ele>859.00</ele>
	<time>2025-07-30T08:28:10.000Z</time>
</trkpt>
<trkpt lat="46.0378200" lon="10.3291780">
	<ele>858.80</ele>
	<time>2025-07-30T08:28:11.000Z</time>
</trkpt>
<trkpt lat="46.0378200" lon="10.3291800">
	<ele>858.60</ele>
	<time>2025-07-30T08:28:12.000Z</time>
</trkpt>
<trkpt lat="46.0378200" lon="10.3291810">
	<ele>858.40</ele>
	<time>2025-07-30T08:28:13.000Z</time>
</trkpt>
<trkpt lat="46.0378200" lon="10.3291810">
	<ele>858.20</ele>
	<time>2025-07-30T08:28:14.000Z</time>
</trkpt>
<trkpt lat="46.0378200" lon="10.3291820">
	<ele>858.00</ele>
	<time>2025-07-30T08:28:15.000Z</time>
</trkpt>
<trkpt lat="46.0378200" lon="10.3291820">
	<ele>857.60</ele>
	<time>2025-07-30T08:28:16.000Z</time>
</trkpt>
<trkpt lat="46.0378200" lon="10.3291830">
	<ele>857.40</ele>
	<time>2025-07-30T08:28:17.000Z</time>
</trkpt>
<trkpt lat="46.0378100" lon="10.3291860">
	<ele>857.20</ele>
	<time>2025-07-30T08:28:18.000Z</time>
</trkpt>
<trkpt lat="46.0377900" lon="10.3291940">
	<ele>857.00</ele>
	<time>2025-07-30T08:28:19.000Z</time>
</trkpt>
<trkpt lat="46.0377770" lon="10.3291990">
	<ele>856.60</ele>
	<time>2025-07-30T08:28:20.000Z</time>
</trkpt>
<trkpt lat="46.0377470" lon="10.3291930">
	<ele>856.60</ele>
	<time>2025-07-30T08:28:21.000Z</time>
</trkpt>
<trkpt lat="46.0377180" lon="10.3291830">
	<ele>856.20</ele>
	<time>2025-07-30T08:28:22.000Z</time>
</trkpt>
<trkpt lat="46.0376910" lon="10.3291780">
	<ele>856.20</ele>
	<time>2025-07-30T08:28:23.000Z</time>
</trkpt>
<trkpt lat="46.0376680" lon="10.3291780">
	<ele>856.00</ele>
	<time>2025-07-30T08:28:24.000Z</time>
</trkpt>
<trkpt lat="46.0376420" lon="10.3291830">
	<ele>855.60</ele>
	<time>2025-07-30T08:28:25.000Z</time>
</trkpt>
<trkpt lat="46.0376190" lon="10.3291920">
	<ele>855.40</ele>
	<time>2025-07-30T08:28:26.000Z</time>
</trkpt>
<trkpt lat="46.0376030" lon="10.3291980">
	<ele>855.20</ele>
	<time>2025-07-30T08:28:27.000Z</time>
</trkpt>
<trkpt lat="46.0375960" lon="10.3292050">
	<ele>855.20</ele>
	<time>2025-07-30T08:28:28.000Z</time>
</trkpt>
<trkpt lat="46.0375950" lon="10.3292090">
	<ele>855.20</ele>
	<time>2025-07-30T08:28:29.000Z</time>
</trkpt>
<trkpt lat="46.0375930" lon="10.3292090">
	<ele>855.20</ele>
	<time>2025-07-30T08:28:30.000Z</time>
</trkpt>
<trkpt lat="46.0375830" lon="10.3292150">
	<ele>855.00</ele>
	<time>2025-07-30T08:28:31.000Z</time>
</trkpt>
<trkpt lat="46.0375780" lon="10.3292200">
	<ele>855.00</ele>
	<time>2025-07-30T08:28:32.000Z</time>
</trkpt>
<trkpt lat="46.0375700" lon="10.3292230">
	<ele>854.60</ele>
	<time>2025-07-30T08:28:33.000Z</time>
</trkpt>
<trkpt lat="46.0375690" lon="10.3292240">
	<ele>854.40</ele>
	<time>2025-07-30T08:28:34.000Z</time>
</trkpt>
<trkpt lat="46.0375620" lon="10.3292210">
	<ele>854.20</ele>
	<time>2025-07-30T08:28:35.000Z</time>
</trkpt>
<trkpt lat="46.0375590" lon="10.3292180">
	<ele>854.00</ele>
	<time>2025-07-30T08:28:36.000Z</time>
</trkpt>
<trkpt lat="46.0375560" lon="10.3292160">
	<ele>853.80</ele>
	<time>2025-07-30T08:28:37.000Z</time>
</trkpt>
<trkpt lat="46.0375500" lon="10.3292080">
	<ele>853.80</ele>
	<time>2025-07-30T08:28:38.000Z</time>
</trkpt>
<trkpt lat="46.0375530" lon="10.3292040">
	<ele>853.80</ele>
	<time>2025-07-30T08:28:39.000Z</time>
</trkpt>
<trkpt lat="46.0375500" lon="10.3291940">
	<ele>853.80</ele>
	<time>2025-07-30T08:28:40.000Z</time>
</trkpt>
<trkpt lat="46.0375520" lon="10.3291930">
	<ele>853.60</ele>
	<time>2025-07-30T08:28:41.000Z</time>
</trkpt>
<trkpt lat="46.0375540" lon="10.3291930">
	<ele>853.60</ele>
	<time>2025-07-30T08:28:42.000Z</time>
</trkpt>
<trkpt lat="46.0375550" lon="10.3291940">
	<ele>853.40</ele>
	<time>2025-07-30T08:28:43.000Z</time>
</trkpt>
<trkpt lat="46.0375460" lon="10.3291920">
	<ele>853.40</ele>
	<time>2025-07-30T08:28:44.000Z</time>
</trkpt>
<trkpt lat="46.0375480" lon="10.3291880">
	<ele>853.40</ele>
	<time>2025-07-30T08:28:45.000Z</time>
</trkpt>
<trkpt lat="46.0375490" lon="10.3291860">
	<ele>853.40</ele>
	<time>2025-07-30T08:28:46.000Z</time>
</trkpt>
<trkpt lat="46.0375500" lon="10.3291820">
	<ele>853.40</ele>
	<time>2025-07-30T08:28:47.000Z</time>
</trkpt>
<trkpt lat="46.0375500" lon="10.3291790">
	<ele>853.40</ele>
	<time>2025-07-30T08:28:48.000Z</time>
</trkpt>
<trkpt lat="46.0375500" lon="10.3291780">
	<ele>853.40</ele>
	<time>2025-07-30T08:28:49.000Z</time>
</trkpt>
<trkpt lat="46.0375500" lon="10.3291790">
	<ele>853.40</ele>
	<time>2025-07-30T08:28:50.000Z</time>
</trkpt>
<trkpt lat="46.0375500" lon="10.3291800">
	<ele>853.40</ele>
	<time>2025-07-30T08:28:51.000Z</time>
</trkpt>
<trkpt lat="46.0375500" lon="10.3291800">
	<ele>853.40</ele>
	<time>2025-07-30T08:28:52.000Z</time>
</trkpt>
<trkpt lat="46.0375500" lon="10.3291800">
	<ele>853.40</ele>
	<time>2025-07-30T08:28:53.000Z</time>
</trkpt>
<trkpt lat="46.0375500" lon="10.3291800">
	<ele>853.20</ele>
	<time>2025-07-30T08:28:54.000Z</time>
</trkpt>
<trkpt lat="46.0375500" lon="10.3291800">
	<ele>853.20</ele>
	<time>2025-07-30T08:28:55.000Z</time>
</trkpt>
<trkpt lat="46.0375500" lon="10.3291800">
	<ele>853.40</ele>
	<time>2025-07-30T08:28:56.000Z</time>
</trkpt>
<trkpt lat="46.0375500" lon="10.3291800">
	<ele>853.40</ele>
	<time>2025-07-30T08:28:57.000Z</time>
</trkpt>
<trkpt lat="46.0375500" lon="10.3291800">
	<ele>853.40</ele>
	<time>2025-07-30T08:28:58.000Z</time>
</trkpt>
<trkpt lat="46.0375500" lon="10.3291800">
	<ele>853.40</ele>
	<time>2025-07-30T08:28:59.000Z</time>
</trkpt>
<trkpt lat="46.0375500" lon="10.3291800">
	<ele>853.40</ele>
	<time>2025-07-30T08:29:00.000Z</time>
</trkpt>
<trkpt lat="46.0375500" lon="10.3291800">
	<ele>853.40</ele>
	<time>2025-07-30T08:29:01.000Z</time>
</trkpt>
<trkpt lat="46.0375500" lon="10.3291810">
	<ele>853.40</ele>
	<time>2025-07-30T08:29:02.000Z</time>
</trkpt>
<trkpt lat="46.0375500" lon="10.3291820">
	<ele>853.40</ele>
	<time>2025-07-30T08:29:03.000Z</time>
</trkpt>
<trkpt lat="46.0375500" lon="10.3291840">
	<ele>853.20</ele>
	<time>2025-07-30T08:29:04.000Z</time>
</trkpt>
<trkpt lat="46.0375490" lon="10.3291860">
	<ele>853.20</ele>
	<time>2025-07-30T08:29:05.000Z</time>
</trkpt>
<trkpt lat="46.0375490" lon="10.3291860">
	<ele>853.20</ele>
	<time>2025-07-30T08:29:06.000Z</time>
</trkpt>
<trkpt lat="46.0375480" lon="10.3291860">
	<ele>853.20</ele>
	<time>2025-07-30T08:29:07.000Z</time>
</trkpt>
<trkpt lat="46.0375470" lon="10.3291860">
	<ele>853.20</ele>
	<time>2025-07-30T08:29:08.000Z</time>
</trkpt>
<trkpt lat="46.0375460" lon="10.3291860">
	<ele>853.20</ele>
	<time>2025-07-30T08:29:09.000Z</time>
</trkpt>
<trkpt lat="46.0375450" lon="10.3291860">
	<ele>853.20</ele>
	<time>2025-07-30T08:29:10.000Z</time>
</trkpt>
<trkpt lat="46.0375450" lon="10.3291860">
	<ele>853.20</ele>
	<time>2025-07-30T08:29:11.000Z</time>
</trkpt>
<trkpt lat="46.0375450" lon="10.3291860">
	<ele>853.20</ele>
	<time>2025-07-30T08:29:12.000Z</time>
</trkpt>
<trkpt lat="46.0375450" lon="10.3291850">
	<ele>853.20</ele>
	<time>2025-07-30T08:29:13.000Z</time>
</trkpt>
<trkpt lat="46.0375450" lon="10.3291840">
	<ele>853.20</ele>
	<time>2025-07-30T08:29:14.000Z</time>
</trkpt>
<trkpt lat="46.0375450" lon="10.3291820">
	<ele>853.20</ele>
	<time>2025-07-30T08:29:15.000Z</time>
</trkpt>
<trkpt lat="46.0375450" lon="10.3291810">
	<ele>853.20</ele>
	<time>2025-07-30T08:29:16.000Z</time>
</trkpt>
<trkpt lat="46.0375450" lon="10.3291810">
	<ele>853.20</ele>
	<time>2025-07-30T08:29:17.000Z</time>
</trkpt>
<trkpt lat="46.0375450" lon="10.3291800">
	<ele>853.20</ele>
	<time>2025-07-30T08:29:18.000Z</time>
</trkpt>
<trkpt lat="46.0375440" lon="10.3291800">
	<ele>853.20</ele>
	<time>2025-07-30T08:29:19.000Z</time>
</trkpt>
<trkpt lat="46.0375440" lon="10.3291800">
	<ele>853.20</ele>
	<time>2025-07-30T08:29:20.000Z</time>
</trkpt>
<trkpt lat="46.0375440" lon="10.3291780">
	<ele>853.20</ele>
	<time>2025-07-30T08:29:21.000Z</time>
</trkpt>
<trkpt lat="46.0375440" lon="10.3291730">
	<ele>853.20</ele>
	<time>2025-07-30T08:29:22.000Z</time>
</trkpt>
<trkpt lat="46.0375440" lon="10.3291700">
	<ele>853.20</ele>
	<time>2025-07-30T08:29:23.000Z</time>
</trkpt>
<trkpt lat="46.0375440" lon="10.3291690">
	<ele>853.20</ele>
	<time>2025-07-30T08:29:24.000Z</time>
</trkpt>
<trkpt lat="46.0375440" lon="10.3291690">
	<ele>853.20</ele>
	<time>2025-07-30T08:29:25.000Z</time>
</trkpt>
<trkpt lat="46.0375440" lon="10.3291690">
	<ele>853.20</ele>
	<time>2025-07-30T08:29:26.000Z</time>
</trkpt>
<trkpt lat="46.0375440" lon="10.3291690">
	<ele>853.20</ele>
	<time>2025-07-30T08:29:27.000Z</time>
</trkpt>
<trkpt lat="46.0375430" lon="10.3291690">
	<ele>853.20</ele>
	<time>2025-07-30T08:29:28.000Z</time>
</trkpt>
<trkpt lat="46.0375430" lon="10.3291690">
	<ele>853.20</ele>
	<time>2025-07-30T08:29:29.000Z</time>
</trkpt>
<trkpt lat="46.0375430" lon="10.3291690">
	<ele>853.20</ele>
	<time>2025-07-30T08:29:30.000Z</time>
</trkpt>
<trkpt lat="46.0375420" lon="10.3291690">
	<ele>853.20</ele>
	<time>2025-07-30T08:29:31.000Z</time>
</trkpt>
<trkpt lat="46.0375420" lon="10.3291690">
	<ele>853.20</ele>
	<time>2025-07-30T08:29:32.000Z</time>
</trkpt>
<trkpt lat="46.0375410" lon="10.3291690">
	<ele>853.20</ele>
	<time>2025-07-30T08:29:33.000Z</time>
</trkpt>
<trkpt lat="46.0375410" lon="10.3291690">
	<ele>853.20</ele>
	<time>2025-07-30T08:29:34.000Z</time>
</trkpt>
<trkpt lat="46.0375410" lon="10.3291690">
	<ele>853.20</ele>
	<time>2025-07-30T08:29:35.000Z</time>
</trkpt>
<trkpt lat="46.0375400" lon="10.3291690">
	<ele>853.20</ele>
	<time>2025-07-30T08:29:36.000Z</time>
</trkpt>
<trkpt lat="46.0375390" lon="10.3291690">
	<ele>853.20</ele>
	<time>2025-07-30T08:29:37.000Z</time>
</trkpt>
<trkpt lat="46.0375320" lon="10.3291750">
	<ele>853.20</ele>
	<time>2025-07-30T08:29:38.000Z</time>
</trkpt>
<trkpt lat="46.0375300" lon="10.3291790">
	<ele>853.20</ele>
	<time>2025-07-30T08:29:39.000Z</time>
</trkpt>
<trkpt lat="46.0375290" lon="10.3291820">
	<ele>853.20</ele>
	<time>2025-07-30T08:29:40.000Z</time>
</trkpt>
<trkpt lat="46.0375280" lon="10.3291830">
	<ele>853.20</ele>
	<time>2025-07-30T08:29:41.000Z</time>
</trkpt>
<trkpt lat="46.0375270" lon="10.3291860">
	<ele>853.20</ele>
	<time>2025-07-30T08:29:42.000Z</time>
</trkpt>
<trkpt lat="46.0375260" lon="10.3291890">
	<ele>853.20</ele>
	<time>2025-07-30T08:29:43.000Z</time>
</trkpt>
<trkpt lat="46.0375250" lon="10.3291920">
	<ele>853.40</ele>
	<time>2025-07-30T08:29:44.000Z</time>
</trkpt>
<trkpt lat="46.0375250" lon="10.3291930">
	<ele>853.40</ele>
	<time>2025-07-30T08:29:45.000Z</time>
</trkpt>
<trkpt lat="46.0375240" lon="10.3291950">
	<ele>853.40</ele>
	<time>2025-07-30T08:29:46.000Z</time>
</trkpt>
<trkpt lat="46.0375230" lon="10.3291950">
	<ele>853.40</ele>
	<time>2025-07-30T08:29:47.000Z</time>
</trkpt>
<trkpt lat="46.0375230" lon="10.3291950">
	<ele>853.40</ele>
	<time>2025-07-30T08:29:48.000Z</time>
</trkpt>
<trkpt lat="46.0375220" lon="10.3291960">
	<ele>853.40</ele>
	<time>2025-07-30T08:29:49.000Z</time>
</trkpt>
<trkpt lat="46.0375210" lon="10.3291980">
	<ele>853.40</ele>
	<time>2025-07-30T08:29:50.000Z</time>
</trkpt>
<trkpt lat="46.0375140" lon="10.3291980">
	<ele>853.40</ele>
	<time>2025-07-30T08:29:51.000Z</time>
</trkpt>
<trkpt lat="46.0374950" lon="10.3292050">
	<ele>853.40</ele>
	<time>2025-07-30T08:29:52.000Z</time>
</trkpt>
<trkpt lat="46.0374760" lon="10.3292210">
	<ele>853.40</ele>
	<time>2025-07-30T08:29:53.000Z</time>
</trkpt>
<trkpt lat="46.0374610" lon="10.3292310">
	<ele>853.40</ele>
	<time>2025-07-30T08:29:54.000Z</time>
</trkpt>
<trkpt lat="46.0374480" lon="10.3292200">
	<ele>853.40</ele>
	<time>2025-07-30T08:29:55.000Z</time>
</trkpt>
<trkpt lat="46.0374350" lon="10.3292100">
	<ele>853.40</ele>
	<time>2025-07-30T08:29:56.000Z</time>
</trkpt>
<trkpt lat="46.0374220" lon="10.3291960">
	<ele>853.40</ele>
	<time>2025-07-30T08:29:57.000Z</time>
</trkpt>
<trkpt lat="46.0374120" lon="10.3291950">
	<ele>853.40</ele>
	<time>2025-07-30T08:29:58.000Z</time>
</trkpt>
<trkpt lat="46.0374020" lon="10.3291850">
	<ele>853.40</ele>
	<time>2025-07-30T08:29:59.000Z</time>
</trkpt>
<trkpt lat="46.0373900" lon="10.3291660">
	<ele>852.80</ele>
	<time>2025-07-30T08:30:00.000Z</time>
</trkpt>
<trkpt lat="46.0373800" lon="10.3291550">
	<ele>852.20</ele>
	<time>2025-07-30T08:30:01.000Z</time>
</trkpt>
<trkpt lat="46.0373680" lon="10.3291440">
	<ele>851.80</ele>
	<time>2025-07-30T08:30:02.000Z</time>
</trkpt>
<trkpt lat="46.0373630" lon="10.3291450">
	<ele>851.60</ele>
	<time>2025-07-30T08:30:03.000Z</time>
</trkpt>
<trkpt lat="46.0373450" lon="10.3291370">
	<ele>851.20</ele>
	<time>2025-07-30T08:30:04.000Z</time>
</trkpt>
<trkpt lat="46.0373270" lon="10.3291310">
	<ele>851.20</ele>
	<time>2025-07-30T08:30:05.000Z</time>
</trkpt>
<trkpt lat="46.0373100" lon="10.3291140">
	<ele>851.00</ele>
	<time>2025-07-30T08:30:06.000Z</time>
</trkpt>
<trkpt lat="46.0373000" lon="10.3291000">
	<ele>850.80</ele>
	<time>2025-07-30T08:30:07.000Z</time>
</trkpt>
<trkpt lat="46.0372860" lon="10.3290880">
	<ele>850.80</ele>
	<time>2025-07-30T08:30:08.000Z</time>
</trkpt>
<trkpt lat="46.0372660" lon="10.3290780">
	<ele>850.80</ele>
	<time>2025-07-30T08:30:09.000Z</time>
</trkpt>
<trkpt lat="46.0372470" lon="10.3290730">
	<ele>850.60</ele>
	<time>2025-07-30T08:30:10.000Z</time>
</trkpt>
<trkpt lat="46.0372310" lon="10.3290670">
	<ele>850.40</ele>
	<time>2025-07-30T08:30:11.000Z</time>
</trkpt>
<trkpt lat="46.0372150" lon="10.3290590">
	<ele>850.40</ele>
	<time>2025-07-30T08:30:12.000Z</time>
</trkpt>
<trkpt lat="46.0372050" lon="10.3290490">
	<ele>850.40</ele>
	<time>2025-07-30T08:30:13.000Z</time>
</trkpt>
<trkpt lat="46.0371910" lon="10.3290390">
	<ele>850.40</ele>
	<time>2025-07-30T08:30:14.000Z</time>
</trkpt>
<trkpt lat="46.0371750" lon="10.3290290">
	<ele>850.40</ele>
	<time>2025-07-30T08:30:15.000Z</time>
</trkpt>
<trkpt lat="46.0371590" lon="10.3290230">
	<ele>850.40</ele>
	<time>2025-07-30T08:30:16.000Z</time>
</trkpt>
<trkpt lat="46.0371420" lon="10.3290120">
	<ele>850.20</ele>
	<time>2025-07-30T08:30:17.000Z</time>
</trkpt>
<trkpt lat="46.0371260" lon="10.3289990">
	<ele>850.20</ele>
	<time>2025-07-30T08:30:18.000Z</time>
</trkpt>
<trkpt lat="46.0371070" lon="10.3289870">
	<ele>850.20</ele>
	<time>2025-07-30T08:30:19.000Z</time>
</trkpt>
<trkpt lat="46.0370920" lon="10.3289750">
	<ele>850.00</ele>
	<time>2025-07-30T08:30:20.000Z</time>
</trkpt>
<trkpt lat="46.0370770" lon="10.3289630">
	<ele>850.00</ele>
	<time>2025-07-30T08:30:21.000Z</time>
</trkpt>
<trkpt lat="46.0370650" lon="10.3289530">
	<ele>850.00</ele>
	<time>2025-07-30T08:30:22.000Z</time>
</trkpt>
<trkpt lat="46.0370540" lon="10.3289500">
	<ele>849.80</ele>
	<time>2025-07-30T08:30:23.000Z</time>
</trkpt>
<trkpt lat="46.0370400" lon="10.3289500">
	<ele>849.60</ele>
	<time>2025-07-30T08:30:24.000Z</time>
</trkpt>
<trkpt lat="46.0370310" lon="10.3289480">
	<ele>849.60</ele>
	<time>2025-07-30T08:30:25.000Z</time>
</trkpt>
<trkpt lat="46.0370200" lon="10.3289470">
	<ele>849.60</ele>
	<time>2025-07-30T08:30:26.000Z</time>
</trkpt>
<trkpt lat="46.0370090" lon="10.3289490">
	<ele>849.60</ele>
	<time>2025-07-30T08:30:27.000Z</time>
</trkpt>
<trkpt lat="46.0369930" lon="10.3289520">
	<ele>849.60</ele>
	<time>2025-07-30T08:30:28.000Z</time>
</trkpt>
<trkpt lat="46.0369770" lon="10.3289540">
	<ele>849.60</ele>
	<time>2025-07-30T08:30:29.000Z</time>
</trkpt>
<trkpt lat="46.0369630" lon="10.3289510">
	<ele>849.60</ele>
	<time>2025-07-30T08:30:30.000Z</time>
</trkpt>
<trkpt lat="46.0369500" lon="10.3289480">
	<ele>849.40</ele>
	<time>2025-07-30T08:30:31.000Z</time>
</trkpt>
<trkpt lat="46.0369380" lon="10.3289480">
	<ele>849.40</ele>
	<time>2025-07-30T08:30:32.000Z</time>
</trkpt>
<trkpt lat="46.0369260" lon="10.3289470">
	<ele>849.20</ele>
	<time>2025-07-30T08:30:33.000Z</time>
</trkpt>
<trkpt lat="46.0369120" lon="10.3289480">
	<ele>849.20</ele>
	<time>2025-07-30T08:30:34.000Z</time>
</trkpt>
<trkpt lat="46.0368990" lon="10.3289450">
	<ele>849.00</ele>
	<time>2025-07-30T08:30:35.000Z</time>
</trkpt>
<trkpt lat="46.0368890" lon="10.3289420">
	<ele>848.60</ele>
	<time>2025-07-30T08:30:36.000Z</time>
</trkpt>
<trkpt lat="46.0368790" lon="10.3289370">
	<ele>848.40</ele>
	<time>2025-07-30T08:30:37.000Z</time>
</trkpt>
<trkpt lat="46.0368660" lon="10.3289340">
	<ele>848.20</ele>
	<time>2025-07-30T08:30:38.000Z</time>
</trkpt>
<trkpt lat="46.0368570" lon="10.3289310">
	<ele>848.00</ele>
	<time>2025-07-30T08:30:39.000Z</time>
</trkpt>
<trkpt lat="46.0368520" lon="10.3289290">
	<ele>847.80</ele>
	<time>2025-07-30T08:30:40.000Z</time>
</trkpt>
<trkpt lat="46.0368500" lon="10.3289280">
	<ele>847.80</ele>
	<time>2025-07-30T08:30:41.000Z</time>
</trkpt>
<trkpt lat="46.0368420" lon="10.3289350">
	<ele>847.60</ele>
	<time>2025-07-30T08:30:42.000Z</time>
</trkpt>
<trkpt lat="46.0368260" lon="10.3289370">
	<ele>847.60</ele>
	<time>2025-07-30T08:30:43.000Z</time>
</trkpt>
<trkpt lat="46.0368080" lon="10.3289280">
	<ele>847.40</ele>
	<time>2025-07-30T08:30:44.000Z</time>
</trkpt>
<trkpt lat="46.0367920" lon="10.3289110">
	<ele>847.20</ele>
	<time>2025-07-30T08:30:45.000Z</time>
</trkpt>
<trkpt lat="46.0367820" lon="10.3289090">
	<ele>847.00</ele>
	<time>2025-07-30T08:30:46.000Z</time>
</trkpt>
<trkpt lat="46.0367730" lon="10.3289010">
	<ele>847.00</ele>
	<time>2025-07-30T08:30:47.000Z</time>
</trkpt>
<trkpt lat="46.0367660" lon="10.3288910">
	<ele>846.80</ele>
	<time>2025-07-30T08:30:48.000Z</time>
</trkpt>
<trkpt lat="46.0367600" lon="10.3288750">
	<ele>846.60</ele>
	<time>2025-07-30T08:30:49.000Z</time>
</trkpt>
<trkpt lat="46.0367540" lon="10.3288410">
	<ele>846.40</ele>
	<time>2025-07-30T08:30:50.000Z</time>
</trkpt>
<trkpt lat="46.0367580" lon="10.3288170">
	<ele>846.40</ele>
	<time>2025-07-30T08:30:51.000Z</time>
</trkpt>
<trkpt lat="46.0367530" lon="10.3287990">
	<ele>846.00</ele>
	<time>2025-07-30T08:30:52.000Z</time>
</trkpt>
<trkpt lat="46.0367440" lon="10.3287960">
	<ele>845.80</ele>
	<time>2025-07-30T08:30:53.000Z</time>
</trkpt>
<trkpt lat="46.0367380" lon="10.3287940">
	<ele>845.60</ele>
	<time>2025-07-30T08:30:54.000Z</time>
</trkpt>
<trkpt lat="46.0367320" lon="10.3287860">
	<ele>845.60</ele>
	<time>2025-07-30T08:30:55.000Z</time>
</trkpt>
<trkpt lat="46.0367310" lon="10.3287640">
	<ele>845.40</ele>
	<time>2025-07-30T08:30:56.000Z</time>
</trkpt>
<trkpt lat="46.0367220" lon="10.3287460">
	<ele>845.40</ele>
	<time>2025-07-30T08:30:57.000Z</time>
</trkpt>
<trkpt lat="46.0367120" lon="10.3287270">
	<ele>845.40</ele>
	<time>2025-07-30T08:30:58.000Z</time>
</trkpt>
<trkpt lat="46.0366990" lon="10.3287090">
	<ele>845.20</ele>
	<time>2025-07-30T08:30:59.000Z</time>
</trkpt>
<trkpt lat="46.0366820" lon="10.3287010">
	<ele>845.20</ele>
	<time>2025-07-30T08:31:00.000Z</time>
</trkpt>
<trkpt lat="46.0366590" lon="10.3287050">
	<ele>845.20</ele>
	<time>2025-07-30T08:31:01.000Z</time>
</trkpt>
<trkpt lat="46.0366340" lon="10.3287070">
	<ele>845.00</ele>
	<time>2025-07-30T08:31:02.000Z</time>
</trkpt>
<trkpt lat="46.0366180" lon="10.3287120">
	<ele>844.80</ele>
	<time>2025-07-30T08:31:03.000Z</time>
</trkpt>
<trkpt lat="46.0366100" lon="10.3287210">
	<ele>844.60</ele>
	<time>2025-07-30T08:31:04.000Z</time>
</trkpt>
<trkpt lat="46.0366010" lon="10.3287330">
	<ele>844.40</ele>
	<time>2025-07-30T08:31:05.000Z</time>
</trkpt>
<trkpt lat="46.0365940" lon="10.3287440">
	<ele>844.20</ele>
	<time>2025-07-30T08:31:06.000Z</time>
</trkpt>
<trkpt lat="46.0365890" lon="10.3287520">
	<ele>843.80</ele>
	<time>2025-07-30T08:31:07.000Z</time>
</trkpt>
<trkpt lat="46.0365850" lon="10.3287570">
	<ele>843.60</ele>
	<time>2025-07-30T08:31:08.000Z</time>
</trkpt>
<trkpt lat="46.0365830" lon="10.3287610">
	<ele>843.40</ele>
	<time>2025-07-30T08:31:09.000Z</time>
</trkpt>
<trkpt lat="46.0365810" lon="10.3287630">
	<ele>843.00</ele>
	<time>2025-07-30T08:31:10.000Z</time>
</trkpt>
<trkpt lat="46.0365780" lon="10.3287670">
	<ele>843.00</ele>
	<time>2025-07-30T08:31:11.000Z</time>
</trkpt>
<trkpt lat="46.0365680" lon="10.3287710">
	<ele>842.80</ele>
	<time>2025-07-30T08:31:12.000Z</time>
</trkpt>
<trkpt lat="46.0365570" lon="10.3287760">
	<ele>842.80</ele>
	<time>2025-07-30T08:31:13.000Z</time>
</trkpt>
<trkpt lat="46.0365480" lon="10.3287840">
	<ele>842.60</ele>
	<time>2025-07-30T08:31:14.000Z</time>
</trkpt>
<trkpt lat="46.0365390" lon="10.3287950">
	<ele>842.20</ele>
	<time>2025-07-30T08:31:15.000Z</time>
</trkpt>
<trkpt lat="46.0365340" lon="10.3288020">
	<ele>842.00</ele>
	<time>2025-07-30T08:31:16.000Z</time>
</trkpt>
<trkpt lat="46.0365290" lon="10.3288070">
	<ele>841.80</ele>
	<time>2025-07-30T08:31:17.000Z</time>
</trkpt>
<trkpt lat="46.0365180" lon="10.3288100">
	<ele>841.60</ele>
	<time>2025-07-30T08:31:18.000Z</time>
</trkpt>
<trkpt lat="46.0365090" lon="10.3288120">
	<ele>841.40</ele>
	<time>2025-07-30T08:31:19.000Z</time>
</trkpt>
<trkpt lat="46.0365020" lon="10.3288110">
	<ele>841.00</ele>
	<time>2025-07-30T08:31:20.000Z</time>
</trkpt>
<trkpt lat="46.0364860" lon="10.3288140">
	<ele>841.00</ele>
	<time>2025-07-30T08:31:21.000Z</time>
</trkpt>
<trkpt lat="46.0364720" lon="10.3288080">
	<ele>840.80</ele>
	<time>2025-07-30T08:31:22.000Z</time>
</trkpt>
<trkpt lat="46.0364610" lon="10.3288050">
	<ele>840.60</ele>
	<time>2025-07-30T08:31:23.000Z</time>
</trkpt>
<trkpt lat="46.0364490" lon="10.3287890">
	<ele>840.40</ele>
	<time>2025-07-30T08:31:24.000Z</time>
</trkpt>
<trkpt lat="46.0364380" lon="10.3287810">
	<ele>840.20</ele>
	<time>2025-07-30T08:31:25.000Z</time>
</trkpt>
<trkpt lat="46.0364200" lon="10.3287680">
	<ele>839.80</ele>
	<time>2025-07-30T08:31:26.000Z</time>
</trkpt>
<trkpt lat="46.0364020" lon="10.3287690">
	<ele>839.60</ele>
	<time>2025-07-30T08:31:27.000Z</time>
</trkpt>
<trkpt lat="46.0363890" lon="10.3287710">
	<ele>839.20</ele>
	<time>2025-07-30T08:31:28.000Z</time>
</trkpt>
<trkpt lat="46.0363800" lon="10.3287680">
	<ele>839.00</ele>
	<time>2025-07-30T08:31:29.000Z</time>
</trkpt>
<trkpt lat="46.0363710" lon="10.3287620">
	<ele>838.80</ele>
	<time>2025-07-30T08:31:30.000Z</time>
</trkpt>
<trkpt lat="46.0363550" lon="10.3287630">
	<ele>838.40</ele>
	<time>2025-07-30T08:31:31.000Z</time>
</trkpt>
<trkpt lat="46.0363470" lon="10.3287640">
	<ele>838.20</ele>
	<time>2025-07-30T08:31:32.000Z</time>
</trkpt>
<trkpt lat="46.0363410" lon="10.3287540">
	<ele>838.00</ele>
	<time>2025-07-30T08:31:33.000Z</time>
</trkpt>
<trkpt lat="46.0363250" lon="10.3287510">
	<ele>837.80</ele>
	<time>2025-07-30T08:31:34.000Z</time>
</trkpt>
<trkpt lat="46.0363170" lon="10.3287460">
	<ele>837.60</ele>
	<time>2025-07-30T08:31:35.000Z</time>
</trkpt>
<trkpt lat="46.0363050" lon="10.3287400">
	<ele>837.20</ele>
	<time>2025-07-30T08:31:36.000Z</time>
</trkpt>
<trkpt lat="46.0363000" lon="10.3287280">
	<ele>837.00</ele>
	<time>2025-07-30T08:31:37.000Z</time>
</trkpt>
<trkpt lat="46.0362880" lon="10.3287200">
	<ele>836.60</ele>
	<time>2025-07-30T08:31:38.000Z</time>
</trkpt>
<trkpt lat="46.0362800" lon="10.3287030">
	<ele>836.20</ele>
	<time>2025-07-30T08:31:39.000Z</time>
</trkpt>
<trkpt lat="46.0362650" lon="10.3286840">
	<ele>835.80</ele>
	<time>2025-07-30T08:31:40.000Z</time>
</trkpt>
<trkpt lat="46.0362600" lon="10.3286700">
	<ele>835.60</ele>
	<time>2025-07-30T08:31:41.000Z</time>
</trkpt>
<trkpt lat="46.0362490" lon="10.3286580">
	<ele>835.40</ele>
	<time>2025-07-30T08:31:42.000Z</time>
</trkpt>
<trkpt lat="46.0362380" lon="10.3286450">
	<ele>835.20</ele>
	<time>2025-07-30T08:31:43.000Z</time>
</trkpt>
<trkpt lat="46.0362290" lon="10.3286320">
	<ele>835.20</ele>
	<time>2025-07-30T08:31:44.000Z</time>
</trkpt>
<trkpt lat="46.0362160" lon="10.3286210">
	<ele>835.00</ele>
	<time>2025-07-30T08:31:45.000Z</time>
</trkpt>
<trkpt lat="46.0362030" lon="10.3286190">
	<ele>835.00</ele>
	<time>2025-07-30T08:31:46.000Z</time>
</trkpt>
<trkpt lat="46.0361940" lon="10.3286170">
	<ele>834.60</ele>
	<time>2025-07-30T08:31:47.000Z</time>
</trkpt>
<trkpt lat="46.0361840" lon="10.3286100">
	<ele>834.20</ele>
	<time>2025-07-30T08:31:48.000Z</time>
</trkpt>
<trkpt lat="46.0361730" lon="10.3286010">
	<ele>834.00</ele>
	<time>2025-07-30T08:31:49.000Z</time>
</trkpt>
<trkpt lat="46.0361620" lon="10.3285950">
	<ele>833.80</ele>
	<time>2025-07-30T08:31:50.000Z</time>
</trkpt>
<trkpt lat="46.0361540" lon="10.3285890">
	<ele>833.60</ele>
	<time>2025-07-30T08:31:51.000Z</time>
</trkpt>
<trkpt lat="46.0361470" lon="10.3285810">
	<ele>833.20</ele>
	<time>2025-07-30T08:31:52.000Z</time>
</trkpt>
<trkpt lat="46.0361380" lon="10.3285690">
	<ele>833.00</ele>
	<time>2025-07-30T08:31:53.000Z</time>
</trkpt>
<trkpt lat="46.0361320" lon="10.3285570">
	<ele>832.80</ele>
	<time>2025-07-30T08:31:54.000Z</time>
</trkpt>
<trkpt lat="46.0361250" lon="10.3285390">
	<ele>832.60</ele>
	<time>2025-07-30T08:31:55.000Z</time>
</trkpt>
<trkpt lat="46.0361150" lon="10.3285200">
	<ele>832.20</ele>
	<time>2025-07-30T08:31:56.000Z</time>
</trkpt>
<trkpt lat="46.0361050" lon="10.3285040">
	<ele>832.20</ele>
	<time>2025-07-30T08:31:57.000Z</time>
</trkpt>
<trkpt lat="46.0361000" lon="10.3284890">
	<ele>832.00</ele>
	<time>2025-07-30T08:31:58.000Z</time>
</trkpt>
<trkpt lat="46.0360950" lon="10.3284720">
	<ele>831.80</ele>
	<time>2025-07-30T08:31:59.000Z</time>
</trkpt>
<trkpt lat="46.0360870" lon="10.3284550">
	<ele>831.80</ele>
	<time>2025-07-30T08:32:00.000Z</time>
</trkpt>
<trkpt lat="46.0360780" lon="10.3284440">
	<ele>831.40</ele>
	<time>2025-07-30T08:32:01.000Z</time>
</trkpt>
<trkpt lat="46.0360660" lon="10.3284290">
	<ele>831.20</ele>
	<time>2025-07-30T08:32:02.000Z</time>
</trkpt>
<trkpt lat="46.0360560" lon="10.3284160">
	<ele>831.00</ele>
	<time>2025-07-30T08:32:03.000Z</time>
</trkpt>
<trkpt lat="46.0360500" lon="10.3284020">
	<ele>830.80</ele>
	<time>2025-07-30T08:32:04.000Z</time>
</trkpt>
<trkpt lat="46.0360440" lon="10.3283870">
	<ele>830.60</ele>
	<time>2025-07-30T08:32:05.000Z</time>
</trkpt>
<trkpt lat="46.0360330" lon="10.3283710">
	<ele>830.00</ele>
	<time>2025-07-30T08:32:06.000Z</time>
</trkpt>
<trkpt lat="46.0360240" lon="10.3283610">
	<ele>829.60</ele>
	<time>2025-07-30T08:32:07.000Z</time>
</trkpt>
<trkpt lat="46.0360150" lon="10.3283480">
	<ele>829.20</ele>
	<time>2025-07-30T08:32:08.000Z</time>
</trkpt>
<trkpt lat="46.0360070" lon="10.3283370">
	<ele>828.80</ele>
	<time>2025-07-30T08:32:09.000Z</time>
</trkpt>
<trkpt lat="46.0360000" lon="10.3283200">
	<ele>828.60</ele>
	<time>2025-07-30T08:32:10.000Z</time>
</trkpt>
<trkpt lat="46.0359910" lon="10.3283060">
	<ele>828.40</ele>
	<time>2025-07-30T08:32:11.000Z</time>
</trkpt>
<trkpt lat="46.0359740" lon="10.3282940">
	<ele>828.00</ele>
	<time>2025-07-30T08:32:12.000Z</time>
</trkpt>
<trkpt lat="46.0359650" lon="10.3282820">
	<ele>827.60</ele>
	<time>2025-07-30T08:32:13.000Z</time>
</trkpt>
<trkpt lat="46.0359580" lon="10.3282710">
	<ele>827.40</ele>
	<time>2025-07-30T08:32:14.000Z</time>
</trkpt>
<trkpt lat="46.0359500" lon="10.3282560">
	<ele>827.00</ele>
	<time>2025-07-30T08:32:15.000Z</time>
</trkpt>
<trkpt lat="46.0359390" lon="10.3282420">
	<ele>826.80</ele>
	<time>2025-07-30T08:32:16.000Z</time>
</trkpt>
<trkpt lat="46.0359270" lon="10.3282280">
	<ele>826.60</ele>
	<time>2025-07-30T08:32:17.000Z</time>
</trkpt>
<trkpt lat="46.0359180" lon="10.3282100">
	<ele>826.40</ele>
	<time>2025-07-30T08:32:18.000Z</time>
</trkpt>
<trkpt lat="46.0359040" lon="10.3281930">
	<ele>826.40</ele>
	<time>2025-07-30T08:32:19.000Z</time>
</trkpt>
<trkpt lat="46.0358880" lon="10.3281800">
	<ele>826.20</ele>
	<time>2025-07-30T08:32:20.000Z</time>
</trkpt>
<trkpt lat="46.0358750" lon="10.3281660">
	<ele>826.00</ele>
	<time>2025-07-30T08:32:21.000Z</time>
</trkpt>
<trkpt lat="46.0358610" lon="10.3281510">
	<ele>825.60</ele>
	<time>2025-07-30T08:32:22.000Z</time>
</trkpt>
<trkpt lat="46.0358450" lon="10.3281310">
	<ele>825.40</ele>
	<time>2025-07-30T08:32:23.000Z</time>
</trkpt>
<trkpt lat="46.0358370" lon="10.3281170">
	<ele>825.20</ele>
	<time>2025-07-30T08:32:24.000Z</time>
</trkpt>
<trkpt lat="46.0358290" lon="10.3281010">
	<ele>825.00</ele>
	<time>2025-07-30T08:32:25.000Z</time>
</trkpt>
<trkpt lat="46.0358220" lon="10.3280850">
	<ele>824.80</ele>
	<time>2025-07-30T08:32:26.000Z</time>
</trkpt>
<trkpt lat="46.0358180" lon="10.3280740">
	<ele>824.80</ele>
	<time>2025-07-30T08:32:27.000Z</time>
</trkpt>
<trkpt lat="46.0358080" lon="10.3280520">
	<ele>824.60</ele>
	<time>2025-07-30T08:32:28.000Z</time>
</trkpt>
<trkpt lat="46.0358030" lon="10.3280280">
	<ele>824.60</ele>
	<time>2025-07-30T08:32:29.000Z</time>
</trkpt>
<trkpt lat="46.0358060" lon="10.3280130">
	<ele>824.40</ele>
	<time>2025-07-30T08:32:30.000Z</time>
</trkpt>
<trkpt lat="46.0358060" lon="10.3279980">
	<ele>824.00</ele>
	<time>2025-07-30T08:32:31.000Z</time>
</trkpt>
<trkpt lat="46.0358010" lon="10.3279740">
	<ele>823.80</ele>
	<time>2025-07-30T08:32:32.000Z</time>
</trkpt>
<trkpt lat="46.0357960" lon="10.3279630">
	<ele>823.40</ele>
	<time>2025-07-30T08:32:33.000Z</time>
</trkpt>
<trkpt lat="46.0357830" lon="10.3279500">
	<ele>823.00</ele>
	<time>2025-07-30T08:32:34.000Z</time>
</trkpt>
<trkpt lat="46.0357740" lon="10.3279380">
	<ele>822.60</ele>
	<time>2025-07-30T08:32:35.000Z</time>
</trkpt>
<trkpt lat="46.0357600" lon="10.3279220">
	<ele>822.40</ele>
	<time>2025-07-30T08:32:36.000Z</time>
</trkpt>
<trkpt lat="46.0357560" lon="10.3279100">
	<ele>822.20</ele>
	<time>2025-07-30T08:32:37.000Z</time>
</trkpt>
<trkpt lat="46.0357460" lon="10.3278980">
	<ele>821.80</ele>
	<time>2025-07-30T08:32:38.000Z</time>
</trkpt>
<trkpt lat="46.0357340" lon="10.3278870">
	<ele>821.40</ele>
	<time>2025-07-30T08:32:39.000Z</time>
</trkpt>
<trkpt lat="46.0357220" lon="10.3278750">
	<ele>821.20</ele>
	<time>2025-07-30T08:32:40.000Z</time>
</trkpt>
<trkpt lat="46.0357110" lon="10.3278670">
	<ele>821.00</ele>
	<time>2025-07-30T08:32:41.000Z</time>
</trkpt>
<trkpt lat="46.0356990" lon="10.3278560">
	<ele>820.60</ele>
	<time>2025-07-30T08:32:42.000Z</time>
</trkpt>
<trkpt lat="46.0356880" lon="10.3278460">
	<ele>820.40</ele>
	<time>2025-07-30T08:32:43.000Z</time>
</trkpt>
<trkpt lat="46.0356790" lon="10.3278340">
	<ele>819.80</ele>
	<time>2025-07-30T08:32:44.000Z</time>
</trkpt>
<trkpt lat="46.0356670" lon="10.3278320">
	<ele>819.60</ele>
	<time>2025-07-30T08:32:45.000Z</time>
</trkpt>
<trkpt lat="46.0356490" lon="10.3278200">
	<ele>819.40</ele>
	<time>2025-07-30T08:32:46.000Z</time>
</trkpt>
<trkpt lat="46.0356390" lon="10.3278150">
	<ele>819.00</ele>
	<time>2025-07-30T08:32:47.000Z</time>
</trkpt>
<trkpt lat="46.0356240" lon="10.3278000">
	<ele>818.80</ele>
	<time>2025-07-30T08:32:48.000Z</time>
</trkpt>
<trkpt lat="46.0356160" lon="10.3277910">
	<ele>818.40</ele>
	<time>2025-07-30T08:32:49.000Z</time>
</trkpt>
<trkpt lat="46.0356020" lon="10.3277760">
	<ele>818.20</ele>
	<time>2025-07-30T08:32:50.000Z</time>
</trkpt>
<trkpt lat="46.0355950" lon="10.3277620">
	<ele>818.00</ele>
	<time>2025-07-30T08:32:51.000Z</time>
</trkpt>
<trkpt lat="46.0355920" lon="10.3277530">
	<ele>818.00</ele>
	<time>2025-07-30T08:32:52.000Z</time>
</trkpt>
<trkpt lat="46.0355840" lon="10.3277360">
	<ele>817.80</ele>
	<time>2025-07-30T08:32:53.000Z</time>
</trkpt>
<trkpt lat="46.0355800" lon="10.3277160">
	<ele>817.80</ele>
	<time>2025-07-30T08:32:54.000Z</time>
</trkpt>
<trkpt lat="46.0355680" lon="10.3277100">
	<ele>817.60</ele>
	<time>2025-07-30T08:32:55.000Z</time>
</trkpt>
<trkpt lat="46.0355530" lon="10.3276930">
	<ele>817.40</ele>
	<time>2025-07-30T08:32:56.000Z</time>
</trkpt>
<trkpt lat="46.0355380" lon="10.3276850">
	<ele>817.20</ele>
	<time>2025-07-30T08:32:57.000Z</time>
</trkpt>
<trkpt lat="46.0355240" lon="10.3276770">
	<ele>816.80</ele>
	<time>2025-07-30T08:32:58.000Z</time>
</trkpt>
<trkpt lat="46.0355090" lon="10.3276710">
	<ele>816.40</ele>
	<time>2025-07-30T08:32:59.000Z</time>
</trkpt>
<trkpt lat="46.0354980" lon="10.3276660">
	<ele>816.20</ele>
	<time>2025-07-30T08:33:00.000Z</time>
</trkpt>
<trkpt lat="46.0354890" lon="10.3276550">
	<ele>815.60</ele>
	<time>2025-07-30T08:33:01.000Z</time>
</trkpt>
<trkpt lat="46.0354830" lon="10.3276490">
	<ele>815.40</ele>
	<time>2025-07-30T08:33:02.000Z</time>
</trkpt>
<trkpt lat="46.0354710" lon="10.3276370">
	<ele>815.00</ele>
	<time>2025-07-30T08:33:03.000Z</time>
</trkpt>
<trkpt lat="46.0354590" lon="10.3276250">
	<ele>814.60</ele>
	<time>2025-07-30T08:33:04.000Z</time>
</trkpt>
<trkpt lat="46.0354540" lon="10.3276100">
	<ele>814.40</ele>
	<time>2025-07-30T08:33:05.000Z</time>
</trkpt>
<trkpt lat="46.0354420" lon="10.3275980">
	<ele>814.00</ele>
	<time>2025-07-30T08:33:06.000Z</time>
</trkpt>
<trkpt lat="46.0354330" lon="10.3275850">
	<ele>813.60</ele>
	<time>2025-07-30T08:33:07.000Z</time>
</trkpt>
<trkpt lat="46.0354220" lon="10.3275580">
	<ele>813.40</ele>
	<time>2025-07-30T08:33:08.000Z</time>
</trkpt>
<trkpt lat="46.0354110" lon="10.3275420">
	<ele>813.00</ele>
	<time>2025-07-30T08:33:09.000Z</time>
</trkpt>
<trkpt lat="46.0354000" lon="10.3275340">
	<ele>812.80</ele>
	<time>2025-07-30T08:33:10.000Z</time>
</trkpt>
<trkpt lat="46.0353940" lon="10.3275230">
	<ele>812.40</ele>
	<time>2025-07-30T08:33:11.000Z</time>
</trkpt>
<trkpt lat="46.0353900" lon="10.3275080">
	<ele>811.80</ele>
	<time>2025-07-30T08:33:12.000Z</time>
</trkpt>
<trkpt lat="46.0353790" lon="10.3274800">
	<ele>811.40</ele>
	<time>2025-07-30T08:33:13.000Z</time>
</trkpt>
<trkpt lat="46.0353700" lon="10.3274590">
	<ele>811.20</ele>
	<time>2025-07-30T08:33:14.000Z</time>
</trkpt>
<trkpt lat="46.0353590" lon="10.3274420">
	<ele>811.00</ele>
	<time>2025-07-30T08:33:15.000Z</time>
</trkpt>
<trkpt lat="46.0353550" lon="10.3274250">
	<ele>810.80</ele>
	<time>2025-07-30T08:33:16.000Z</time>
</trkpt>
<trkpt lat="46.0353480" lon="10.3274140">
	<ele>810.40</ele>
	<time>2025-07-30T08:33:17.000Z</time>
</trkpt>
<trkpt lat="46.0353460" lon="10.3274020">
	<ele>810.20</ele>
	<time>2025-07-30T08:33:18.000Z</time>
</trkpt>
<trkpt lat="46.0353470" lon="10.3274010">
	<ele>810.20</ele>
	<time>2025-07-30T08:33:19.000Z</time>
</trkpt>
<trkpt lat="46.0353480" lon="10.3274080">
	<ele>810.00</ele>
	<time>2025-07-30T08:33:20.000Z</time>
</trkpt>
<trkpt lat="46.0353470" lon="10.3274140">
	<ele>810.00</ele>
	<time>2025-07-30T08:33:21.000Z</time>
</trkpt>
<trkpt lat="46.0353450" lon="10.3274190">
	<ele>810.00</ele>
	<time>2025-07-30T08:33:22.000Z</time>
</trkpt>
<trkpt lat="46.0353440" lon="10.3274230">
	<ele>809.80</ele>
	<time>2025-07-30T08:33:23.000Z</time>
</trkpt>
<trkpt lat="46.0353440" lon="10.3274290">
	<ele>809.80</ele>
	<time>2025-07-30T08:33:24.000Z</time>
</trkpt>
<trkpt lat="46.0353460" lon="10.3274310">
	<ele>809.80</ele>
	<time>2025-07-30T08:33:25.000Z</time>
</trkpt>
<trkpt lat="46.0353480" lon="10.3274330">
	<ele>809.80</ele>
	<time>2025-07-30T08:33:26.000Z</time>
</trkpt>
<trkpt lat="46.0353510" lon="10.3274310">
	<ele>809.80</ele>
	<time>2025-07-30T08:33:27.000Z</time>
</trkpt>
<trkpt lat="46.0353570" lon="10.3274240">
	<ele>809.80</ele>
	<time>2025-07-30T08:33:28.000Z</time>
</trkpt>
<trkpt lat="46.0353610" lon="10.3274230">
	<ele>809.80</ele>
	<time>2025-07-30T08:33:29.000Z</time>
</trkpt>
<trkpt lat="46.0353640" lon="10.3274270">
	<ele>809.80</ele>
	<time>2025-07-30T08:33:30.000Z</time>
</trkpt>
<trkpt lat="46.0353630" lon="10.3274280">
	<ele>809.80</ele>
	<time>2025-07-30T08:33:31.000Z</time>
</trkpt>
<trkpt lat="46.0353660" lon="10.3274280">
	<ele>810.00</ele>
	<time>2025-07-30T08:33:32.000Z</time>
</trkpt>
<trkpt lat="46.0353660" lon="10.3274260">
	<ele>810.00</ele>
	<time>2025-07-30T08:33:33.000Z</time>
</trkpt>
<trkpt lat="46.0353660" lon="10.3274240">
	<ele>810.00</ele>
	<time>2025-07-30T08:33:34.000Z</time>
</trkpt>
<trkpt lat="46.0353720" lon="10.3274120">
	<ele>810.00</ele>
	<time>2025-07-30T08:33:35.000Z</time>
</trkpt>
<trkpt lat="46.0353730" lon="10.3273990">
	<ele>810.00</ele>
	<time>2025-07-30T08:33:36.000Z</time>
</trkpt>
<trkpt lat="46.0353680" lon="10.3273870">
	<ele>810.00</ele>
	<time>2025-07-30T08:33:37.000Z</time>
</trkpt>
<trkpt lat="46.0353600" lon="10.3273770">
	<ele>810.00</ele>
	<time>2025-07-30T08:33:38.000Z</time>
</trkpt>
<trkpt lat="46.0353490" lon="10.3273680">
	<ele>809.80</ele>
	<time>2025-07-30T08:33:39.000Z</time>
</trkpt>
<trkpt lat="46.0353390" lon="10.3273620">
	<ele>809.60</ele>
	<time>2025-07-30T08:33:40.000Z</time>
</trkpt>
<trkpt lat="46.0353300" lon="10.3273580">
	<ele>809.40</ele>
	<time>2025-07-30T08:33:41.000Z</time>
</trkpt>
<trkpt lat="46.0353160" lon="10.3273460">
	<ele>809.20</ele>
	<time>2025-07-30T08:33:42.000Z</time>
</trkpt>
<trkpt lat="46.0353080" lon="10.3273280">
	<ele>808.80</ele>
	<time>2025-07-30T08:33:43.000Z</time>
</trkpt>
<trkpt lat="46.0353020" lon="10.3273100">
	<ele>808.60</ele>
	<time>2025-07-30T08:33:44.000Z</time>
</trkpt>
<trkpt lat="46.0352980" lon="10.3272970">
	<ele>808.20</ele>
	<time>2025-07-30T08:33:45.000Z</time>
</trkpt>
<trkpt lat="46.0352910" lon="10.3272780">
	<ele>808.00</ele>
	<time>2025-07-30T08:33:46.000Z</time>
</trkpt>
<trkpt lat="46.0352870" lon="10.3272690">
	<ele>807.80</ele>
	<time>2025-07-30T08:33:47.000Z</time>
</trkpt>
<trkpt lat="46.0352850" lon="10.3272500">
	<ele>807.40</ele>
	<time>2025-07-30T08:33:48.000Z</time>
</trkpt>
<trkpt lat="46.0352850" lon="10.3272230">
	<ele>807.20</ele>
	<time>2025-07-30T08:33:49.000Z</time>
</trkpt>
<trkpt lat="46.0352820" lon="10.3272060">
	<ele>807.00</ele>
	<time>2025-07-30T08:33:50.000Z</time>
</trkpt>
<trkpt lat="46.0352830" lon="10.3271750">
	<ele>806.60</ele>
	<time>2025-07-30T08:33:51.000Z</time>
</trkpt>
<trkpt lat="46.0352830" lon="10.3271500">
	<ele>806.20</ele>
	<time>2025-07-30T08:33:52.000Z</time>
</trkpt>
<trkpt lat="46.0352840" lon="10.3271270">
	<ele>805.80</ele>
	<time>2025-07-30T08:33:53.000Z</time>
</trkpt>
<trkpt lat="46.0352750" lon="10.3271110">
	<ele>805.60</ele>
	<time>2025-07-30T08:33:54.000Z</time>
</trkpt>
<trkpt lat="46.0352610" lon="10.3270960">
	<ele>805.60</ele>
	<time>2025-07-30T08:33:55.000Z</time>
</trkpt>
<trkpt lat="46.0352560" lon="10.3270850">
	<ele>805.60</ele>
	<time>2025-07-30T08:33:56.000Z</time>
</trkpt>
<trkpt lat="46.0352540" lon="10.3270660">
	<ele>805.40</ele>
	<time>2025-07-30T08:33:57.000Z</time>
</trkpt>
<trkpt lat="46.0352490" lon="10.3270500">
	<ele>805.40</ele>
	<time>2025-07-30T08:33:58.000Z</time>
</trkpt>
<trkpt lat="46.0352410" lon="10.3270420">
	<ele>805.20</ele>
	<time>2025-07-30T08:33:59.000Z</time>
</trkpt>
<trkpt lat="46.0352330" lon="10.3270290">
	<ele>805.00</ele>
	<time>2025-07-30T08:34:00.000Z</time>
</trkpt>
<trkpt lat="46.0352240" lon="10.3270110">
	<ele>804.80</ele>
	<time>2025-07-30T08:34:01.000Z</time>
</trkpt>
<trkpt lat="46.0352240" lon="10.3269940">
	<ele>804.80</ele>
	<time>2025-07-30T08:34:02.000Z</time>
</trkpt>
<trkpt lat="46.0352310" lon="10.3269740">
	<ele>804.60</ele>
	<time>2025-07-30T08:34:03.000Z</time>
</trkpt>
<trkpt lat="46.0352430" lon="10.3269570">
	<ele>804.60</ele>
	<time>2025-07-30T08:34:04.000Z</time>
</trkpt>
<trkpt lat="46.0352490" lon="10.3269490">
	<ele>804.40</ele>
	<time>2025-07-30T08:34:05.000Z</time>
</trkpt>
<trkpt lat="46.0352550" lon="10.3269380">
	<ele>804.40</ele>
	<time>2025-07-30T08:34:06.000Z</time>
</trkpt>
<trkpt lat="46.0352620" lon="10.3269270">
	<ele>804.40</ele>
	<time>2025-07-30T08:34:07.000Z</time>
</trkpt>
<trkpt lat="46.0352670" lon="10.3269170">
	<ele>804.40</ele>
	<time>2025-07-30T08:34:08.000Z</time>
</trkpt>
<trkpt lat="46.0352750" lon="10.3268990">
	<ele>804.20</ele>
	<time>2025-07-30T08:34:09.000Z</time>
</trkpt>
<trkpt lat="46.0352750" lon="10.3268780">
	<ele>804.20</ele>
	<time>2025-07-30T08:34:10.000Z</time>
</trkpt>
<trkpt lat="46.0352700" lon="10.3268530">
	<ele>804.40</ele>
	<time>2025-07-30T08:34:11.000Z</time>
</trkpt>
<trkpt lat="46.0352670" lon="10.3268390">
	<ele>804.20</ele>
	<time>2025-07-30T08:34:12.000Z</time>
</trkpt>
<trkpt lat="46.0352640" lon="10.3268200">
	<ele>804.20</ele>
	<time>2025-07-30T08:34:13.000Z</time>
</trkpt>
<trkpt lat="46.0352600" lon="10.3267980">
	<ele>804.20</ele>
	<time>2025-07-30T08:34:14.000Z</time>
</trkpt>
<trkpt lat="46.0352570" lon="10.3267760">
	<ele>804.20</ele>
	<time>2025-07-30T08:34:15.000Z</time>
</trkpt>
<trkpt lat="46.0352570" lon="10.3267570">
	<ele>804.00</ele>
	<time>2025-07-30T08:34:16.000Z</time>
</trkpt>
<trkpt lat="46.0352570" lon="10.3267370">
	<ele>804.00</ele>
	<time>2025-07-30T08:34:17.000Z</time>
</trkpt>
<trkpt lat="46.0352550" lon="10.3267210">
	<ele>803.60</ele>
	<time>2025-07-30T08:34:18.000Z</time>
</trkpt>
<trkpt lat="46.0352580" lon="10.3267010">
	<ele>803.40</ele>
	<time>2025-07-30T08:34:19.000Z</time>
</trkpt>
<trkpt lat="46.0352600" lon="10.3266930">
	<ele>803.20</ele>
	<time>2025-07-30T08:34:20.000Z</time>
</trkpt>
<trkpt lat="46.0352610" lon="10.3266790">
	<ele>803.00</ele>
	<time>2025-07-30T08:34:21.000Z</time>
</trkpt>
<trkpt lat="46.0352590" lon="10.3266610">
	<ele>803.00</ele>
	<time>2025-07-30T08:34:22.000Z</time>
</trkpt>
<trkpt lat="46.0352650" lon="10.3266430">
	<ele>802.80</ele>
	<time>2025-07-30T08:34:23.000Z</time>
</trkpt>
<trkpt lat="46.0352750" lon="10.3266240">
	<ele>802.40</ele>
	<time>2025-07-30T08:34:24.000Z</time>
</trkpt>
<trkpt lat="46.0352830" lon="10.3266230">
	<ele>802.00</ele>
	<time>2025-07-30T08:34:25.000Z</time>
</trkpt>
<trkpt lat="46.0352920" lon="10.3266190">
	<ele>801.80</ele>
	<time>2025-07-30T08:34:26.000Z</time>
</trkpt>
<trkpt lat="46.0353010" lon="10.3266050">
	<ele>801.40</ele>
	<time>2025-07-30T08:34:27.000Z</time>
</trkpt>
<trkpt lat="46.0353130" lon="10.3265950">
	<ele>801.00</ele>
	<time>2025-07-30T08:34:28.000Z</time>
</trkpt>
<trkpt lat="46.0353230" lon="10.3265900">
	<ele>800.40</ele>
	<time>2025-07-30T08:34:29.000Z</time>
</trkpt>
<trkpt lat="46.0353350" lon="10.3265800">
	<ele>800.20</ele>
	<time>2025-07-30T08:34:30.000Z</time>
</trkpt>
<trkpt lat="46.0353470" lon="10.3265650">
	<ele>799.80</ele>
	<time>2025-07-30T08:34:31.000Z</time>
</trkpt>
<trkpt lat="46.0353570" lon="10.3265540">
	<ele>799.40</ele>
	<time>2025-07-30T08:34:32.000Z</time>
</trkpt>
<trkpt lat="46.0353630" lon="10.3265420">
	<ele>799.00</ele>
	<time>2025-07-30T08:34:33.000Z</time>
</trkpt>
<trkpt lat="46.0353660" lon="10.3265330">
	<ele>798.60</ele>
	<time>2025-07-30T08:34:34.000Z</time>
</trkpt>
<trkpt lat="46.0353710" lon="10.3265020">
	<ele>798.20</ele>
	<time>2025-07-30T08:34:35.000Z</time>
</trkpt>
<trkpt lat="46.0353730" lon="10.3264870">
	<ele>797.80</ele>
	<time>2025-07-30T08:34:36.000Z</time>
</trkpt>
<trkpt lat="46.0353810" lon="10.3264740">
	<ele>797.40</ele>
	<time>2025-07-30T08:34:37.000Z</time>
</trkpt>
<trkpt lat="46.0353930" lon="10.3264440">
	<ele>797.00</ele>
	<time>2025-07-30T08:34:38.000Z</time>
</trkpt>
<trkpt lat="46.0353980" lon="10.3264270">
	<ele>796.60</ele>
	<time>2025-07-30T08:34:39.000Z</time>
</trkpt>
<trkpt lat="46.0354060" lon="10.3264070">
	<ele>796.40</ele>
	<time>2025-07-30T08:34:40.000Z</time>
</trkpt>
<trkpt lat="46.0354140" lon="10.3263990">
	<ele>795.80</ele>
	<time>2025-07-30T08:34:41.000Z</time>
</trkpt>
<trkpt lat="46.0354190" lon="10.3263810">
	<ele>795.40</ele>
	<time>2025-07-30T08:34:42.000Z</time>
</trkpt>
<trkpt lat="46.0354220" lon="10.3263570">
	<ele>795.00</ele>
	<time>2025-07-30T08:34:43.000Z</time>
</trkpt>
<trkpt lat="46.0354340" lon="10.3263340">
	<ele>794.40</ele>
	<time>2025-07-30T08:34:44.000Z</time>
</trkpt>
<trkpt lat="46.0354420" lon="10.3263150">
	<ele>794.20</ele>
	<time>2025-07-30T08:34:45.000Z</time>
</trkpt>
<trkpt lat="46.0354470" lon="10.3262960">
	<ele>793.80</ele>
	<time>2025-07-30T08:34:46.000Z</time>
</trkpt>
<trkpt lat="46.0354540" lon="10.3262780">
	<ele>793.40</ele>
	<time>2025-07-30T08:34:47.000Z</time>
</trkpt>
<trkpt lat="46.0354580" lon="10.3262600">
	<ele>793.00</ele>
	<time>2025-07-30T08:34:48.000Z</time>
</trkpt>
<trkpt lat="46.0354610" lon="10.3262460">
	<ele>792.80</ele>
	<time>2025-07-30T08:34:49.000Z</time>
</trkpt>
<trkpt lat="46.0354640" lon="10.3262270">
	<ele>792.60</ele>
	<time>2025-07-30T08:34:50.000Z</time>
</trkpt>
<trkpt lat="46.0354730" lon="10.3262070">
	<ele>792.40</ele>
	<time>2025-07-30T08:34:51.000Z</time>
</trkpt>
<trkpt lat="46.0354810" lon="10.3261880">
	<ele>792.20</ele>
	<time>2025-07-30T08:34:52.000Z</time>
</trkpt>
<trkpt lat="46.0354850" lon="10.3261720">
	<ele>792.00</ele>
	<time>2025-07-30T08:34:53.000Z</time>
</trkpt>
<trkpt lat="46.0354890" lon="10.3261570">
	<ele>791.60</ele>
	<time>2025-07-30T08:34:54.000Z</time>
</trkpt>
<trkpt lat="46.0354940" lon="10.3261420">
	<ele>791.40</ele>
	<time>2025-07-30T08:34:55.000Z</time>
</trkpt>
<trkpt lat="46.0355030" lon="10.3261400">
	<ele>791.20</ele>
	<time>2025-07-30T08:34:56.000Z</time>
</trkpt>
<trkpt lat="46.0355110" lon="10.3261280">
	<ele>791.00</ele>
	<time>2025-07-30T08:34:57.000Z</time>
</trkpt>
<trkpt lat="46.0355200" lon="10.3261060">
	<ele>790.80</ele>
	<time>2025-07-30T08:34:58.000Z</time>
</trkpt>
<trkpt lat="46.0355260" lon="10.3260780">
	<ele>790.60</ele>
	<time>2025-07-30T08:34:59.000Z</time>
</trkpt>
<trkpt lat="46.0355340" lon="10.3260550">
	<ele>790.40</ele>
	<time>2025-07-30T08:35:00.000Z</time>
</trkpt>
<trkpt lat="46.0355350" lon="10.3260340">
	<ele>790.40</ele>
	<time>2025-07-30T08:35:01.000Z</time>
</trkpt>
<trkpt lat="46.0355300" lon="10.3260200">
	<ele>790.00</ele>
	<time>2025-07-30T08:35:02.000Z</time>
</trkpt>
<trkpt lat="46.0355220" lon="10.3260090">
	<ele>789.80</ele>
	<time>2025-07-30T08:35:03.000Z</time>
</trkpt>
<trkpt lat="46.0355120" lon="10.3259940">
	<ele>789.60</ele>
	<time>2025-07-30T08:35:04.000Z</time>
</trkpt>
<trkpt lat="46.0355010" lon="10.3259830">
	<ele>789.40</ele>
	<time>2025-07-30T08:35:05.000Z</time>
</trkpt>
<trkpt lat="46.0354890" lon="10.3259710">
	<ele>789.20</ele>
	<time>2025-07-30T08:35:06.000Z</time>
</trkpt>
<trkpt lat="46.0354830" lon="10.3259610">
	<ele>788.80</ele>
	<time>2025-07-30T08:35:07.000Z</time>
</trkpt>
<trkpt lat="46.0354740" lon="10.3259440">
	<ele>788.60</ele>
	<time>2025-07-30T08:35:08.000Z</time>
</trkpt>
<trkpt lat="46.0354650" lon="10.3259300">
	<ele>788.20</ele>
	<time>2025-07-30T08:35:09.000Z</time>
</trkpt>
<trkpt lat="46.0354630" lon="10.3259270">
	<ele>788.00</ele>
	<time>2025-07-30T08:35:10.000Z</time>
</trkpt>
<trkpt lat="46.0354630" lon="10.3259220">
	<ele>787.80</ele>
	<time>2025-07-30T08:35:11.000Z</time>
</trkpt>
<trkpt lat="46.0354620" lon="10.3259120">
	<ele>787.60</ele>
	<time>2025-07-30T08:35:12.000Z</time>
</trkpt>
<trkpt lat="46.0354620" lon="10.3259090">
	<ele>787.40</ele>
	<time>2025-07-30T08:35:13.000Z</time>
</trkpt>
<trkpt lat="46.0354620" lon="10.3259060">
	<ele>787.40</ele>
	<time>2025-07-30T08:35:14.000Z</time>
</trkpt>
<trkpt lat="46.0354620" lon="10.3259000">
	<ele>787.40</ele>
	<time>2025-07-30T08:35:15.000Z</time>
</trkpt>
<trkpt lat="46.0354630" lon="10.3258950">
	<ele>787.40</ele>
	<time>2025-07-30T08:35:16.000Z</time>
</trkpt>
<trkpt lat="46.0354640" lon="10.3258920">
	<ele>787.20</ele>
	<time>2025-07-30T08:35:17.000Z</time>
</trkpt>
<trkpt lat="46.0354650" lon="10.3258860">
	<ele>787.20</ele>
	<time>2025-07-30T08:35:18.000Z</time>
</trkpt>
<trkpt lat="46.0354670" lon="10.3258840">
	<ele>787.20</ele>
	<time>2025-07-30T08:35:19.000Z</time>
</trkpt>
<trkpt lat="46.0354650" lon="10.3258740">
	<ele>787.20</ele>
	<time>2025-07-30T08:35:20.000Z</time>
</trkpt>
<trkpt lat="46.0354610" lon="10.3258700">
	<ele>787.20</ele>
	<time>2025-07-30T08:35:21.000Z</time>
</trkpt>
<trkpt lat="46.0354580" lon="10.3258660">
	<ele>787.20</ele>
	<time>2025-07-30T08:35:22.000Z</time>
</trkpt>
<trkpt lat="46.0354550" lon="10.3258650">
	<ele>787.20</ele>
	<time>2025-07-30T08:35:23.000Z</time>
</trkpt>
<trkpt lat="46.0354580" lon="10.3258680">
	<ele>787.20</ele>
	<time>2025-07-30T08:35:24.000Z</time>
</trkpt>
<trkpt lat="46.0354660" lon="10.3258800">
	<ele>787.00</ele>
	<time>2025-07-30T08:35:25.000Z</time>
</trkpt>
<trkpt lat="46.0354720" lon="10.3258960">
	<ele>787.00</ele>
	<time>2025-07-30T08:35:26.000Z</time>
</trkpt>
<trkpt lat="46.0354800" lon="10.3259230">
	<ele>787.00</ele>
	<time>2025-07-30T08:35:27.000Z</time>
</trkpt>
<trkpt lat="46.0354850" lon="10.3259370">
	<ele>787.00</ele>
	<time>2025-07-30T08:35:28.000Z</time>
</trkpt>
<trkpt lat="46.0354860" lon="10.3259440">
	<ele>787.20</ele>
	<time>2025-07-30T08:35:29.000Z</time>
</trkpt>
<trkpt lat="46.0354890" lon="10.3259450">
	<ele>787.40</ele>
	<time>2025-07-30T08:35:30.000Z</time>
</trkpt>
<trkpt lat="46.0354900" lon="10.3259460">
	<ele>787.40</ele>
	<time>2025-07-30T08:35:31.000Z</time>
</trkpt>
<trkpt lat="46.0354900" lon="10.3259490">
	<ele>787.80</ele>
	<time>2025-07-30T08:35:32.000Z</time>
</trkpt>
<trkpt lat="46.0354920" lon="10.3259530">
	<ele>787.80</ele>
	<time>2025-07-30T08:35:33.000Z</time>
</trkpt>
<trkpt lat="46.0354920" lon="10.3259510">
	<ele>788.00</ele>
	<time>2025-07-30T08:35:34.000Z</time>
</trkpt>
<trkpt lat="46.0354920" lon="10.3259450">
	<ele>788.00</ele>
	<time>2025-07-30T08:35:35.000Z</time>
</trkpt>
<trkpt lat="46.0354890" lon="10.3259350">
	<ele>788.00</ele>
	<time>2025-07-30T08:35:36.000Z</time>
</trkpt>
<trkpt lat="46.0354850" lon="10.3259260">
	<ele>787.80</ele>
	<time>2025-07-30T08:35:37.000Z</time>
</trkpt>
<trkpt lat="46.0354800" lon="10.3259260">
	<ele>787.60</ele>
	<time>2025-07-30T08:35:38.000Z</time>
</trkpt>
<trkpt lat="46.0354710" lon="10.3259230">
	<ele>787.40</ele>
	<time>2025-07-30T08:35:39.000Z</time>
</trkpt>
<trkpt lat="46.0354610" lon="10.3259270">
	<ele>787.20</ele>
	<time>2025-07-30T08:35:40.000Z</time>
</trkpt>
<trkpt lat="46.0354520" lon="10.3259270">
	<ele>787.00</ele>
	<time>2025-07-30T08:35:41.000Z</time>
</trkpt>
<trkpt lat="46.0354420" lon="10.3259250">
	<ele>786.80</ele>
	<time>2025-07-30T08:35:42.000Z</time>
</trkpt>
<trkpt lat="46.0354370" lon="10.3259260">
	<ele>786.60</ele>
	<time>2025-07-30T08:35:43.000Z</time>
</trkpt>
<trkpt lat="46.0354280" lon="10.3259180">
	<ele>786.40</ele>
	<time>2025-07-30T08:35:44.000Z</time>
</trkpt>
<trkpt lat="46.0354160" lon="10.3259060">
	<ele>786.40</ele>
	<time>2025-07-30T08:35:45.000Z</time>
</trkpt>
<trkpt lat="46.0354040" lon="10.3258900">
	<ele>786.20</ele>
	<time>2025-07-30T08:35:46.000Z</time>
</trkpt>
<trkpt lat="46.0353950" lon="10.3258740">
	<ele>786.20</ele>
	<time>2025-07-30T08:35:47.000Z</time>
</trkpt>
<trkpt lat="46.0353880" lon="10.3258550">
	<ele>786.00</ele>
	<time>2025-07-30T08:35:48.000Z</time>
</trkpt>
<trkpt lat="46.0353850" lon="10.3258450">
	<ele>785.80</ele>
	<time>2025-07-30T08:35:49.000Z</time>
</trkpt>
<trkpt lat="46.0353850" lon="10.3258270">
	<ele>785.80</ele>
	<time>2025-07-30T08:35:50.000Z</time>
</trkpt>
<trkpt lat="46.0353800" lon="10.3258090">
	<ele>785.60</ele>
	<time>2025-07-30T08:35:51.000Z</time>
</trkpt>
<trkpt lat="46.0353700" lon="10.3257860">
	<ele>785.40</ele>
	<time>2025-07-30T08:35:52.000Z</time>
</trkpt>
<trkpt lat="46.0353580" lon="10.3257720">
	<ele>785.20</ele>
	<time>2025-07-30T08:35:53.000Z</time>
</trkpt>
<trkpt lat="46.0353550" lon="10.3257740">
	<ele>785.20</ele>
	<time>2025-07-30T08:35:54.000Z</time>
</trkpt>
<trkpt lat="46.0353370" lon="10.3257720">
	<ele>785.00</ele>
	<time>2025-07-30T08:35:55.000Z</time>
</trkpt>
<trkpt lat="46.0353200" lon="10.3257780">
	<ele>784.80</ele>
	<time>2025-07-30T08:35:56.000Z</time>
</trkpt>
<trkpt lat="46.0353060" lon="10.3257830">
	<ele>784.80</ele>
	<time>2025-07-30T08:35:57.000Z</time>
</trkpt>
<trkpt lat="46.0352970" lon="10.3257890">
	<ele>784.60</ele>
	<time>2025-07-30T08:35:58.000Z</time>
</trkpt>
<trkpt lat="46.0352920" lon="10.3257810">
	<ele>784.40</ele>
	<time>2025-07-30T08:35:59.000Z</time>
</trkpt>
<trkpt lat="46.0352850" lon="10.3257690">
	<ele>784.40</ele>
	<time>2025-07-30T08:36:00.000Z</time>
</trkpt>
<trkpt lat="46.0352760" lon="10.3257550">
	<ele>784.20</ele>
	<time>2025-07-30T08:36:01.000Z</time>
</trkpt>
<trkpt lat="46.0352620" lon="10.3257420">
	<ele>784.00</ele>
	<time>2025-07-30T08:36:02.000Z</time>
</trkpt>
<trkpt lat="46.0352480" lon="10.3257360">
	<ele>784.00</ele>
	<time>2025-07-30T08:36:03.000Z</time>
</trkpt>
<trkpt lat="46.0352360" lon="10.3257270">
	<ele>783.80</ele>
	<time>2025-07-30T08:36:04.000Z</time>
</trkpt>
<trkpt lat="46.0352260" lon="10.3257160">
	<ele>783.80</ele>
	<time>2025-07-30T08:36:05.000Z</time>
</trkpt>
<trkpt lat="46.0352250" lon="10.3257050">
	<ele>783.60</ele>
	<time>2025-07-30T08:36:06.000Z</time>
</trkpt>
<trkpt lat="46.0352240" lon="10.3256840">
	<ele>783.40</ele>
	<time>2025-07-30T08:36:07.000Z</time>
</trkpt>
<trkpt lat="46.0352240" lon="10.3256780">
	<ele>783.20</ele>
	<time>2025-07-30T08:36:08.000Z</time>
</trkpt>
<trkpt lat="46.0352230" lon="10.3256770">
	<ele>783.00</ele>
	<time>2025-07-30T08:36:09.000Z</time>
</trkpt>
<trkpt lat="46.0351990" lon="10.3256360">
	<ele>782.80</ele>
	<time>2025-07-30T08:36:10.000Z</time>
</trkpt>
<trkpt lat="46.0351610" lon="10.3256100">
	<ele>782.80</ele>
	<time>2025-07-30T08:36:11.000Z</time>
</trkpt>
<trkpt lat="46.0351550" lon="10.3256100">
	<ele>782.80</ele>
	<time>2025-07-30T08:36:12.000Z</time>
</trkpt>
<trkpt lat="46.0351520" lon="10.3256090">
	<ele>782.80</ele>
	<time>2025-07-30T08:36:13.000Z</time>
</trkpt>
<trkpt lat="46.0351370" lon="10.3256010">
	<ele>782.60</ele>
	<time>2025-07-30T08:36:14.000Z</time>
</trkpt>
<trkpt lat="46.0351220" lon="10.3256000">
	<ele>782.60</ele>
	<time>2025-07-30T08:36:15.000Z</time>
</trkpt>
<trkpt lat="46.0351140" lon="10.3255880">
	<ele>782.60</ele>
	<time>2025-07-30T08:36:16.000Z</time>
</trkpt>
<trkpt lat="46.0350990" lon="10.3255700">
	<ele>782.60</ele>
	<time>2025-07-30T08:36:17.000Z</time>
</trkpt>
<trkpt lat="46.0350850" lon="10.3255440">
	<ele>782.40</ele>
	<time>2025-07-30T08:36:18.000Z</time>
</trkpt>
<trkpt lat="46.0350700" lon="10.3255160">
	<ele>782.20</ele>
	<time>2025-07-30T08:36:19.000Z</time>
</trkpt>
<trkpt lat="46.0350590" lon="10.3254950">
	<ele>782.00</ele>
	<time>2025-07-30T08:36:20.000Z</time>
</trkpt>
<trkpt lat="46.0350520" lon="10.3254740">
	<ele>781.80</ele>
	<time>2025-07-30T08:36:21.000Z</time>
</trkpt>
<trkpt lat="46.0350450" lon="10.3254500">
	<ele>781.40</ele>
	<time>2025-07-30T08:36:22.000Z</time>
</trkpt>
<trkpt lat="46.0350430" lon="10.3254230">
	<ele>781.20</ele>
	<time>2025-07-30T08:36:23.000Z</time>
</trkpt>
<trkpt lat="46.0350380" lon="10.3254040">
	<ele>781.00</ele>
	<time>2025-07-30T08:36:24.000Z</time>
</trkpt>
<trkpt lat="46.0350310" lon="10.3253860">
	<ele>781.00</ele>
	<time>2025-07-30T08:36:25.000Z</time>
</trkpt>
<trkpt lat="46.0350220" lon="10.3253660">
	<ele>780.80</ele>
	<time>2025-07-30T08:36:26.000Z</time>
</trkpt>
<trkpt lat="46.0350150" lon="10.3253500">
	<ele>780.80</ele>
	<time>2025-07-30T08:36:27.000Z</time>
</trkpt>
<trkpt lat="46.0350100" lon="10.3253470">
	<ele>780.60</ele>
	<time>2025-07-30T08:36:28.000Z</time>
</trkpt>
<trkpt lat="46.0350040" lon="10.3253420">
	<ele>780.40</ele>
	<time>2025-07-30T08:36:29.000Z</time>
</trkpt>
<trkpt lat="46.0349990" lon="10.3253420">
	<ele>780.00</ele>
	<time>2025-07-30T08:36:30.000Z</time>
</trkpt>
<trkpt lat="46.0349950" lon="10.3253440">
	<ele>779.80</ele>
	<time>2025-07-30T08:36:31.000Z</time>
</trkpt>
<trkpt lat="46.0349920" lon="10.3253460">
	<ele>779.60</ele>
	<time>2025-07-30T08:36:32.000Z</time>
</trkpt>
<trkpt lat="46.0349780" lon="10.3253420">
	<ele>779.40</ele>
	<time>2025-07-30T08:36:33.000Z</time>
</trkpt>
<trkpt lat="46.0349650" lon="10.3253390">
	<ele>779.00</ele>
	<time>2025-07-30T08:36:34.000Z</time>
</trkpt>
<trkpt lat="46.0349620" lon="10.3253440">
	<ele>778.80</ele>
	<time>2025-07-30T08:36:35.000Z</time>
</trkpt>
<trkpt lat="46.0349430" lon="10.3253420">
	<ele>778.40</ele>
	<time>2025-07-30T08:36:36.000Z</time>
</trkpt>
<trkpt lat="46.0349300" lon="10.3253380">
	<ele>778.20</ele>
	<time>2025-07-30T08:36:37.000Z</time>
</trkpt>
<trkpt lat="46.0349210" lon="10.3253370">
	<ele>777.80</ele>
	<time>2025-07-30T08:36:38.000Z</time>
</trkpt>
<trkpt lat="46.0349140" lon="10.3253390">
	<ele>777.60</ele>
	<time>2025-07-30T08:36:39.000Z</time>
</trkpt>
<trkpt lat="46.0349100" lon="10.3253370">
	<ele>777.40</ele>
	<time>2025-07-30T08:36:40.000Z</time>
</trkpt>
<trkpt lat="46.0348970" lon="10.3253320">
	<ele>777.20</ele>
	<time>2025-07-30T08:36:41.000Z</time>
</trkpt>
<trkpt lat="46.0348790" lon="10.3253320">
	<ele>777.00</ele>
	<time>2025-07-30T08:36:42.000Z</time>
</trkpt>
<trkpt lat="46.0348730" lon="10.3253350">
	<ele>776.80</ele>
	<time>2025-07-30T08:36:43.000Z</time>
</trkpt>
<trkpt lat="46.0348660" lon="10.3253340">
	<ele>776.60</ele>
	<time>2025-07-30T08:36:44.000Z</time>
</trkpt>
<trkpt lat="46.0348490" lon="10.3253430">
	<ele>776.40</ele>
	<time>2025-07-30T08:36:45.000Z</time>
</trkpt>
<trkpt lat="46.0348420" lon="10.3253460">
	<ele>776.20</ele>
	<time>2025-07-30T08:36:46.000Z</time>
</trkpt>
<trkpt lat="46.0348390" lon="10.3253500">
	<ele>776.00</ele>
	<time>2025-07-30T08:36:47.000Z</time>
</trkpt>
<trkpt lat="46.0348350" lon="10.3253420">
	<ele>775.80</ele>
	<time>2025-07-30T08:36:48.000Z</time>
</trkpt>
<trkpt lat="46.0348290" lon="10.3253310">
	<ele>775.60</ele>
	<time>2025-07-30T08:36:49.000Z</time>
</trkpt>
<trkpt lat="46.0348220" lon="10.3253200">
	<ele>775.60</ele>
	<time>2025-07-30T08:36:50.000Z</time>
</trkpt>
<trkpt lat="46.0348140" lon="10.3253110">
	<ele>775.40</ele>
	<time>2025-07-30T08:36:51.000Z</time>
</trkpt>
<trkpt lat="46.0348040" lon="10.3253130">
	<ele>775.00</ele>
	<time>2025-07-30T08:36:52.000Z</time>
</trkpt>
<trkpt lat="46.0347940" lon="10.3253080">
	<ele>774.60</ele>
	<time>2025-07-30T08:36:53.000Z</time>
</trkpt>
<trkpt lat="46.0347860" lon="10.3253030">
	<ele>774.40</ele>
	<time>2025-07-30T08:36:54.000Z</time>
</trkpt>
<trkpt lat="46.0347770" lon="10.3252990">
	<ele>774.20</ele>
	<time>2025-07-30T08:36:55.000Z</time>
</trkpt>
<trkpt lat="46.0347630" lon="10.3252990">
	<ele>774.00</ele>
	<time>2025-07-30T08:36:56.000Z</time>
</trkpt>
<trkpt lat="46.0347540" lon="10.3252970">
	<ele>773.80</ele>
	<time>2025-07-30T08:36:57.000Z</time>
</trkpt>
<trkpt lat="46.0347390" lon="10.3252870">
	<ele>773.60</ele>
	<time>2025-07-30T08:36:58.000Z</time>
</trkpt>
<trkpt lat="46.0347320" lon="10.3252740">
	<ele>773.40</ele>
	<time>2025-07-30T08:36:59.000Z</time>
</trkpt>
<trkpt lat="46.0347260" lon="10.3252610">
	<ele>773.20</ele>
	<time>2025-07-30T08:37:00.000Z</time>
</trkpt>
<trkpt lat="46.0347080" lon="10.3252530">
	<ele>772.80</ele>
	<time>2025-07-30T08:37:01.000Z</time>
</trkpt>
<trkpt lat="46.0346950" lon="10.3252370">
	<ele>772.60</ele>
	<time>2025-07-30T08:37:02.000Z</time>
</trkpt>
<trkpt lat="46.0346930" lon="10.3252150">
	<ele>772.20</ele>
	<time>2025-07-30T08:37:03.000Z</time>
</trkpt>
<trkpt lat="46.0346920" lon="10.3251920">
	<ele>771.80</ele>
	<time>2025-07-30T08:37:04.000Z</time>
</trkpt>
<trkpt lat="46.0346910" lon="10.3251920">
	<ele>771.60</ele>
	<time>2025-07-30T08:37:05.000Z</time>
</trkpt>
<trkpt lat="46.0346930" lon="10.3251770">
	<ele>771.40</ele>
	<time>2025-07-30T08:37:06.000Z</time>
</trkpt>
<trkpt lat="46.0346870" lon="10.3251620">
	<ele>771.20</ele>
	<time>2025-07-30T08:37:07.000Z</time>
</trkpt>
<trkpt lat="46.0346720" lon="10.3251490">
	<ele>771.00</ele>
	<time>2025-07-30T08:37:08.000Z</time>
</trkpt>
<trkpt lat="46.0346550" lon="10.3251320">
	<ele>770.80</ele>
	<time>2025-07-30T08:37:09.000Z</time>
</trkpt>
<trkpt lat="46.0346420" lon="10.3251260">
	<ele>770.60</ele>
	<time>2025-07-30T08:37:10.000Z</time>
</trkpt>
<trkpt lat="46.0346370" lon="10.3251200">
	<ele>770.20</ele>
	<time>2025-07-30T08:37:11.000Z</time>
</trkpt>
<trkpt lat="46.0346280" lon="10.3251200">
	<ele>770.00</ele>
	<time>2025-07-30T08:37:12.000Z</time>
</trkpt>
<trkpt lat="46.0346220" lon="10.3251160">
	<ele>769.60</ele>
	<time>2025-07-30T08:37:13.000Z</time>
</trkpt>
<trkpt lat="46.0346120" lon="10.3251140">
	<ele>769.60</ele>
	<time>2025-07-30T08:37:14.000Z</time>
</trkpt>
<trkpt lat="46.0345990" lon="10.3251160">
	<ele>769.40</ele>
	<time>2025-07-30T08:37:15.000Z</time>
</trkpt>
<trkpt lat="46.0345900" lon="10.3251170">
	<ele>769.00</ele>
	<time>2025-07-30T08:37:16.000Z</time>
</trkpt>
<trkpt lat="46.0345830" lon="10.3251140">
	<ele>768.60</ele>
	<time>2025-07-30T08:37:17.000Z</time>
</trkpt>
<trkpt lat="46.0345830" lon="10.3251080">
	<ele>768.40</ele>
	<time>2025-07-30T08:37:18.000Z</time>
</trkpt>
<trkpt lat="46.0345800" lon="10.3251040">
	<ele>768.00</ele>
	<time>2025-07-30T08:37:19.000Z</time>
</trkpt>
<trkpt lat="46.0345810" lon="10.3250980">
	<ele>767.80</ele>
	<time>2025-07-30T08:37:20.000Z</time>
</trkpt>
<trkpt lat="46.0345810" lon="10.3250890">
	<ele>767.60</ele>
	<time>2025-07-30T08:37:21.000Z</time>
</trkpt>
<trkpt lat="46.0345780" lon="10.3250820">
	<ele>767.40</ele>
	<time>2025-07-30T08:37:22.000Z</time>
</trkpt>
<trkpt lat="46.0345700" lon="10.3250760">
	<ele>767.20</ele>
	<time>2025-07-30T08:37:23.000Z</time>
</trkpt>
<trkpt lat="46.0345590" lon="10.3250740">
	<ele>767.00</ele>
	<time>2025-07-30T08:37:24.000Z</time>
</trkpt>
<trkpt lat="46.0345440" lon="10.3250570">
	<ele>766.60</ele>
	<time>2025-07-30T08:37:25.000Z</time>
</trkpt>
<trkpt lat="46.0345370" lon="10.3250260">
	<ele>766.40</ele>
	<time>2025-07-30T08:37:26.000Z</time>
</trkpt>
<trkpt lat="46.0345310" lon="10.3250000">
	<ele>766.20</ele>
	<time>2025-07-30T08:37:27.000Z</time>
</trkpt>
<trkpt lat="46.0345270" lon="10.3249840">
	<ele>765.80</ele>
	<time>2025-07-30T08:37:28.000Z</time>
</trkpt>
<trkpt lat="46.0345150" lon="10.3249790">
	<ele>765.40</ele>
	<time>2025-07-30T08:37:29.000Z</time>
</trkpt>
<trkpt lat="46.0345020" lon="10.3249760">
	<ele>765.20</ele>
	<time>2025-07-30T08:37:30.000Z</time>
</trkpt>
<trkpt lat="46.0344980" lon="10.3249750">
	<ele>764.80</ele>
	<time>2025-07-30T08:37:31.000Z</time>
</trkpt>
<trkpt lat="46.0344940" lon="10.3249750">
	<ele>764.40</ele>
	<time>2025-07-30T08:37:32.000Z</time>
</trkpt>
<trkpt lat="46.0344850" lon="10.3249730">
	<ele>764.20</ele>
	<time>2025-07-30T08:37:33.000Z</time>
</trkpt>
<trkpt lat="46.0344780" lon="10.3249710">
	<ele>763.60</ele>
	<time>2025-07-30T08:37:34.000Z</time>
</trkpt>
<trkpt lat="46.0344660" lon="10.3249600">
	<ele>763.40</ele>
	<time>2025-07-30T08:37:35.000Z</time>
</trkpt>
<trkpt lat="46.0344540" lon="10.3249460">
	<ele>763.00</ele>
	<time>2025-07-30T08:37:36.000Z</time>
</trkpt>
<trkpt lat="46.0344430" lon="10.3249250">
	<ele>762.60</ele>
	<time>2025-07-30T08:37:37.000Z</time>
</trkpt>
<trkpt lat="46.0344350" lon="10.3249070">
	<ele>762.40</ele>
	<time>2025-07-30T08:37:38.000Z</time>
</trkpt>
<trkpt lat="46.0344290" lon="10.3248910">
	<ele>762.20</ele>
	<time>2025-07-30T08:37:39.000Z</time>
</trkpt>
<trkpt lat="46.0344240" lon="10.3248840">
	<ele>761.80</ele>
	<time>2025-07-30T08:37:40.000Z</time>
</trkpt>
<trkpt lat="46.0344150" lon="10.3248850">
	<ele>761.60</ele>
	<time>2025-07-30T08:37:41.000Z</time>
</trkpt>
<trkpt lat="46.0344100" lon="10.3248740">
	<ele>761.20</ele>
	<time>2025-07-30T08:37:42.000Z</time>
</trkpt>
<trkpt lat="46.0344040" lon="10.3248680">
	<ele>760.80</ele>
	<time>2025-07-30T08:37:43.000Z</time>
</trkpt>
<trkpt lat="46.0343970" lon="10.3248720">
	<ele>760.60</ele>
	<time>2025-07-30T08:37:44.000Z</time>
</trkpt>
<trkpt lat="46.0343910" lon="10.3248750">
	<ele>760.40</ele>
	<time>2025-07-30T08:37:45.000Z</time>
</trkpt>
<trkpt lat="46.0343900" lon="10.3248710">
	<ele>760.00</ele>
	<time>2025-07-30T08:37:46.000Z</time>
</trkpt>
<trkpt lat="46.0343810" lon="10.3248670">
	<ele>759.60</ele>
	<time>2025-07-30T08:37:47.000Z</time>
</trkpt>
<trkpt lat="46.0343700" lon="10.3248570">
	<ele>759.40</ele>
	<time>2025-07-30T08:37:48.000Z</time>
</trkpt>
<trkpt lat="46.0343660" lon="10.3248420">
	<ele>759.00</ele>
	<time>2025-07-30T08:37:49.000Z</time>
</trkpt>
<trkpt lat="46.0343600" lon="10.3248300">
	<ele>758.60</ele>
	<time>2025-07-30T08:37:50.000Z</time>
</trkpt>
<trkpt lat="46.0343520" lon="10.3248190">
	<ele>758.40</ele>
	<time>2025-07-30T08:37:51.000Z</time>
</trkpt>
<trkpt lat="46.0343400" lon="10.3247980">
	<ele>758.00</ele>
	<time>2025-07-30T08:37:52.000Z</time>
</trkpt>
<trkpt lat="46.0343270" lon="10.3247790">
	<ele>757.80</ele>
	<time>2025-07-30T08:37:53.000Z</time>
</trkpt>
<trkpt lat="46.0343250" lon="10.3247660">
	<ele>757.40</ele>
	<time>2025-07-30T08:37:54.000Z</time>
</trkpt>
<trkpt lat="46.0343190" lon="10.3247560">
	<ele>757.00</ele>
	<time>2025-07-30T08:37:55.000Z</time>
</trkpt>
<trkpt lat="46.0343000" lon="10.3247470">
	<ele>756.80</ele>
	<time>2025-07-30T08:37:56.000Z</time>
</trkpt>
<trkpt lat="46.0342860" lon="10.3247440">
	<ele>756.60</ele>
	<time>2025-07-30T08:37:57.000Z</time>
</trkpt>
<trkpt lat="46.0342750" lon="10.3247470">
	<ele>756.40</ele>
	<time>2025-07-30T08:37:58.000Z</time>
</trkpt>
<trkpt lat="46.0342660" lon="10.3247240">
	<ele>756.20</ele>
	<time>2025-07-30T08:37:59.000Z</time>
</trkpt>
<trkpt lat="46.0342580" lon="10.3246970">
	<ele>756.00</ele>
	<time>2025-07-30T08:38:00.000Z</time>
</trkpt>
<trkpt lat="46.0342540" lon="10.3246870">
	<ele>755.80</ele>
	<time>2025-07-30T08:38:01.000Z</time>
</trkpt>
<trkpt lat="46.0342510" lon="10.3246790">
	<ele>755.40</ele>
	<time>2025-07-30T08:38:02.000Z</time>
</trkpt>
<trkpt lat="46.0342480" lon="10.3246750">
	<ele>755.00</ele>
	<time>2025-07-30T08:38:03.000Z</time>
</trkpt>
<trkpt lat="46.0342430" lon="10.3246680">
	<ele>754.60</ele>
	<time>2025-07-30T08:38:04.000Z</time>
</trkpt>
<trkpt lat="46.0342380" lon="10.3246620">
	<ele>754.20</ele>
	<time>2025-07-30T08:38:05.000Z</time>
</trkpt>
<trkpt lat="46.0342350" lon="10.3246540">
	<ele>753.80</ele>
	<time>2025-07-30T08:38:06.000Z</time>
</trkpt>
<trkpt lat="46.0342320" lon="10.3246490">
	<ele>753.60</ele>
	<time>2025-07-30T08:38:07.000Z</time>
</trkpt>
<trkpt lat="46.0342300" lon="10.3246470">
	<ele>753.00</ele>
	<time>2025-07-30T08:38:08.000Z</time>
</trkpt>
<trkpt lat="46.0342290" lon="10.3246460">
	<ele>752.60</ele>
	<time>2025-07-30T08:38:09.000Z</time>
</trkpt>
<trkpt lat="46.0342280" lon="10.3246450">
	<ele>752.40</ele>
	<time>2025-07-30T08:38:10.000Z</time>
</trkpt>
<trkpt lat="46.0342270" lon="10.3246450">
	<ele>752.20</ele>
	<time>2025-07-30T08:38:11.000Z</time>
</trkpt>
<trkpt lat="46.0342260" lon="10.3246440">
	<ele>752.20</ele>
	<time>2025-07-30T08:38:12.000Z</time>
</trkpt>
<trkpt lat="46.0342260" lon="10.3246430">
	<ele>752.00</ele>
	<time>2025-07-30T08:38:13.000Z</time>
</trkpt>
<trkpt lat="46.0342260" lon="10.3246410">
	<ele>752.00</ele>
	<time>2025-07-30T08:38:14.000Z</time>
</trkpt>
<trkpt lat="46.0342250" lon="10.3246400">
	<ele>752.00</ele>
	<time>2025-07-30T08:38:15.000Z</time>
</trkpt>
<trkpt lat="46.0342260" lon="10.3246390">
	<ele>752.00</ele>
	<time>2025-07-30T08:38:16.000Z</time>
</trkpt>
<trkpt lat="46.0342260" lon="10.3246400">
	<ele>752.00</ele>
	<time>2025-07-30T08:38:17.000Z</time>
</trkpt>
<trkpt lat="46.0342270" lon="10.3246390">
	<ele>752.00</ele>
	<time>2025-07-30T08:38:18.000Z</time>
</trkpt>
<trkpt lat="46.0342290" lon="10.3246410">
	<ele>752.00</ele>
	<time>2025-07-30T08:38:19.000Z</time>
</trkpt>
<trkpt lat="46.0342290" lon="10.3246390">
	<ele>752.00</ele>
	<time>2025-07-30T08:38:20.000Z</time>
</trkpt>
<trkpt lat="46.0342290" lon="10.3246390">
	<ele>752.00</ele>
	<time>2025-07-30T08:38:21.000Z</time>
</trkpt>
<trkpt lat="46.0342290" lon="10.3246390">
	<ele>752.00</ele>
	<time>2025-07-30T08:38:22.000Z</time>
</trkpt>
<trkpt lat="46.0342290" lon="10.3246390">
	<ele>752.00</ele>
	<time>2025-07-30T08:38:23.000Z</time>
</trkpt>
<trkpt lat="46.0342290" lon="10.3246390">
	<ele>752.00</ele>
	<time>2025-07-30T08:38:24.000Z</time>
</trkpt>
<trkpt lat="46.0342290" lon="10.3246390">
	<ele>752.00</ele>
	<time>2025-07-30T08:38:25.000Z</time>
</trkpt>
<trkpt lat="46.0342290" lon="10.3246390">
	<ele>752.00</ele>
	<time>2025-07-30T08:38:26.000Z</time>
</trkpt>
<trkpt lat="46.0342290" lon="10.3246390">
	<ele>752.00</ele>
	<time>2025-07-30T08:38:27.000Z</time>
</trkpt>
<trkpt lat="46.0342290" lon="10.3246390">
	<ele>752.00</ele>
	<time>2025-07-30T08:38:28.000Z</time>
</trkpt>
<trkpt lat="46.0342270" lon="10.3246390">
	<ele>752.00</ele>
	<time>2025-07-30T08:38:29.000Z</time>
</trkpt>
<trkpt lat="46.0342260" lon="10.3246390">
	<ele>751.80</ele>
	<time>2025-07-30T08:38:30.000Z</time>
</trkpt>
<trkpt lat="46.0342260" lon="10.3246390">
	<ele>751.60</ele>
	<time>2025-07-30T08:38:31.000Z</time>
</trkpt>
<trkpt lat="46.0342260" lon="10.3246390">
	<ele>751.20</ele>
	<time>2025-07-30T08:38:32.000Z</time>
</trkpt>
<trkpt lat="46.0342260" lon="10.3246390">
	<ele>750.80</ele>
	<time>2025-07-30T08:38:33.000Z</time>
</trkpt>
<trkpt lat="46.0342260" lon="10.3246390">
	<ele>750.40</ele>
	<time>2025-07-30T08:38:34.000Z</time>
</trkpt>
<trkpt lat="46.0342250" lon="10.3246390">
	<ele>750.20</ele>
	<time>2025-07-30T08:38:35.000Z</time>
</trkpt>
<trkpt lat="46.0342230" lon="10.3246330">
	<ele>750.20</ele>
	<time>2025-07-30T08:38:36.000Z</time>
</trkpt>
<trkpt lat="46.0342140" lon="10.3246300">
	<ele>749.60</ele>
	<time>2025-07-30T08:38:37.000Z</time>
</trkpt>
<trkpt lat="46.0342130" lon="10.3246290">
	<ele>749.40</ele>
	<time>2025-07-30T08:38:38.000Z</time>
</trkpt>
<trkpt lat="46.0342090" lon="10.3246200">
	<ele>749.00</ele>
	<time>2025-07-30T08:38:39.000Z</time>
</trkpt>
<trkpt lat="46.0342010" lon="10.3245970">
	<ele>748.80</ele>
	<time>2025-07-30T08:38:40.000Z</time>
</trkpt>
<trkpt lat="46.0341880" lon="10.3245870">
	<ele>748.60</ele>
	<time>2025-07-30T08:38:41.000Z</time>
</trkpt>
<trkpt lat="46.0341750" lon="10.3245760">
	<ele>748.20</ele>
	<time>2025-07-30T08:38:42.000Z</time>
</trkpt>
<trkpt lat="46.0341640" lon="10.3245670">
	<ele>748.00</ele>
	<time>2025-07-30T08:38:43.000Z</time>
</trkpt>
<trkpt lat="46.0341560" lon="10.3245550">
	<ele>747.80</ele>
	<time>2025-07-30T08:38:44.000Z</time>
</trkpt>
<trkpt lat="46.0341490" lon="10.3245370">
	<ele>747.40</ele>
	<time>2025-07-30T08:38:45.000Z</time>
</trkpt>
<trkpt lat="46.0341440" lon="10.3245220">
	<ele>747.20</ele>
	<time>2025-07-30T08:38:46.000Z</time>
</trkpt>
<trkpt lat="46.0341330" lon="10.3245060">
	<ele>747.00</ele>
	<time>2025-07-30T08:38:47.000Z</time>
</trkpt>
<trkpt lat="46.0341210" lon="10.3244810">
	<ele>746.80</ele>
	<time>2025-07-30T08:38:48.000Z</time>
</trkpt>
<trkpt lat="46.0341120" lon="10.3244640">
	<ele>746.40</ele>
	<time>2025-07-30T08:38:49.000Z</time>
</trkpt>
<trkpt lat="46.0341100" lon="10.3244600">
	<ele>746.20</ele>
	<time>2025-07-30T08:38:50.000Z</time>
</trkpt>
<trkpt lat="46.0340970" lon="10.3244520">
	<ele>745.60</ele>
	<time>2025-07-30T08:38:51.000Z</time>
</trkpt>
<trkpt lat="46.0340850" lon="10.3244490">
	<ele>745.40</ele>
	<time>2025-07-30T08:38:52.000Z</time>
</trkpt>
<trkpt lat="46.0340700" lon="10.3244430">
	<ele>745.00</ele>
	<time>2025-07-30T08:38:53.000Z</time>
</trkpt>
<trkpt lat="46.0340560" lon="10.3244270">
	<ele>744.80</ele>
	<time>2025-07-30T08:38:54.000Z</time>
</trkpt>
<trkpt lat="46.0340510" lon="10.3244110">
	<ele>744.60</ele>
	<time>2025-07-30T08:38:55.000Z</time>
</trkpt>
<trkpt lat="46.0340460" lon="10.3243990">
	<ele>744.20</ele>
	<time>2025-07-30T08:38:56.000Z</time>
</trkpt>
<trkpt lat="46.0340410" lon="10.3243840">
	<ele>744.00</ele>
	<time>2025-07-30T08:38:57.000Z</time>
</trkpt>
<trkpt lat="46.0340340" lon="10.3243770">
	<ele>743.80</ele>
	<time>2025-07-30T08:38:58.000Z</time>
</trkpt>
<trkpt lat="46.0340250" lon="10.3243740">
	<ele>743.40</ele>
	<time>2025-07-30T08:38:59.000Z</time>
</trkpt>
<trkpt lat="46.0340160" lon="10.3243690">
	<ele>743.00</ele>
	<time>2025-07-30T08:39:00.000Z</time>
</trkpt>
<trkpt lat="46.0340120" lon="10.3243610">
	<ele>742.80</ele>
	<time>2025-07-30T08:39:01.000Z</time>
</trkpt>
<trkpt lat="46.0340070" lon="10.3243440">
	<ele>742.40</ele>
	<time>2025-07-30T08:39:02.000Z</time>
</trkpt>
<trkpt lat="46.0340010" lon="10.3243290">
	<ele>742.20</ele>
	<time>2025-07-30T08:39:03.000Z</time>
</trkpt>
<trkpt lat="46.0339920" lon="10.3243150">
	<ele>741.80</ele>
	<time>2025-07-30T08:39:04.000Z</time>
</trkpt>
<trkpt lat="46.0339810" lon="10.3243020">
	<ele>741.80</ele>
	<time>2025-07-30T08:39:05.000Z</time>
</trkpt>
<trkpt lat="46.0339680" lon="10.3242860">
	<ele>741.40</ele>
	<time>2025-07-30T08:39:06.000Z</time>
</trkpt>
<trkpt lat="46.0339620" lon="10.3242770">
	<ele>741.20</ele>
	<time>2025-07-30T08:39:07.000Z</time>
</trkpt>
<trkpt lat="46.0339540" lon="10.3242740">
	<ele>740.80</ele>
	<time>2025-07-30T08:39:08.000Z</time>
</trkpt>
<trkpt lat="46.0339440" lon="10.3242700">
	<ele>740.60</ele>
	<time>2025-07-30T08:39:09.000Z</time>
</trkpt>
<trkpt lat="46.0339360" lon="10.3242650">
	<ele>740.40</ele>
	<time>2025-07-30T08:39:10.000Z</time>
</trkpt>
<trkpt lat="46.0339240" lon="10.3242560">
	<ele>740.20</ele>
	<time>2025-07-30T08:39:11.000Z</time>
</trkpt>
<trkpt lat="46.0339170" lon="10.3242420">
	<ele>740.00</ele>
	<time>2025-07-30T08:39:12.000Z</time>
</trkpt>
<trkpt lat="46.0339080" lon="10.3242270">
	<ele>739.60</ele>
	<time>2025-07-30T08:39:13.000Z</time>
</trkpt>
<trkpt lat="46.0338910" lon="10.3242230">
	<ele>739.40</ele>
	<time>2025-07-30T08:39:14.000Z</time>
</trkpt>
<trkpt lat="46.0338860" lon="10.3242190">
	<ele>739.00</ele>
	<time>2025-07-30T08:39:15.000Z</time>
</trkpt>
<trkpt lat="46.0338850" lon="10.3242250">
	<ele>738.60</ele>
	<time>2025-07-30T08:39:16.000Z</time>
</trkpt>
<trkpt lat="46.0338820" lon="10.3242350">
	<ele>738.40</ele>
	<time>2025-07-30T08:39:17.000Z</time>
</trkpt>
<trkpt lat="46.0338760" lon="10.3242480">
	<ele>738.20</ele>
	<time>2025-07-30T08:39:18.000Z</time>
</trkpt>
<trkpt lat="46.0338770" lon="10.3242510">
	<ele>738.00</ele>
	<time>2025-07-30T08:39:19.000Z</time>
</trkpt>
<trkpt lat="46.0338760" lon="10.3242540">
	<ele>737.80</ele>
	<time>2025-07-30T08:39:20.000Z</time>
</trkpt>
<trkpt lat="46.0338650" lon="10.3242660">
	<ele>737.40</ele>
	<time>2025-07-30T08:39:21.000Z</time>
</trkpt>
<trkpt lat="46.0338590" lon="10.3242820">
	<ele>737.00</ele>
	<time>2025-07-30T08:39:22.000Z</time>
</trkpt>
<trkpt lat="46.0338560" lon="10.3243010">
	<ele>736.60</ele>
	<time>2025-07-30T08:39:23.000Z</time>
</trkpt>
<trkpt lat="46.0338560" lon="10.3243130">
	<ele>736.40</ele>
	<time>2025-07-30T08:39:24.000Z</time>
</trkpt>
<trkpt lat="46.0338560" lon="10.3243190">
	<ele>736.20</ele>
	<time>2025-07-30T08:39:25.000Z</time>
</trkpt>
<trkpt lat="46.0338560" lon="10.3243230">
	<ele>735.80</ele>
	<time>2025-07-30T08:39:26.000Z</time>
</trkpt>
<trkpt lat="46.0338540" lon="10.3243290">
	<ele>735.40</ele>
	<time>2025-07-30T08:39:27.000Z</time>
</trkpt>
<trkpt lat="46.0338500" lon="10.3243360">
	<ele>735.20</ele>
	<time>2025-07-30T08:39:28.000Z</time>
</trkpt>
<trkpt lat="46.0338490" lon="10.3243370">
	<ele>735.00</ele>
	<time>2025-07-30T08:39:29.000Z</time>
</trkpt>
<trkpt lat="46.0338450" lon="10.3243650">
	<ele>734.80</ele>
	<time>2025-07-30T08:39:30.000Z</time>
</trkpt>
<trkpt lat="46.0338460" lon="10.3243720">
	<ele>734.40</ele>
	<time>2025-07-30T08:39:31.000Z</time>
</trkpt>
<trkpt lat="46.0338450" lon="10.3243790">
	<ele>734.00</ele>
	<time>2025-07-30T08:39:32.000Z</time>
</trkpt>
<trkpt lat="46.0338420" lon="10.3243890">
	<ele>733.80</ele>
	<time>2025-07-30T08:39:33.000Z</time>
</trkpt>
<trkpt lat="46.0338290" lon="10.3244110">
	<ele>733.20</ele>
	<time>2025-07-30T08:39:34.000Z</time>
</trkpt>
<trkpt lat="46.0338240" lon="10.3244400">
	<ele>733.00</ele>
	<time>2025-07-30T08:39:35.000Z</time>
</trkpt>
<trkpt lat="46.0338250" lon="10.3244450">
	<ele>732.80</ele>
	<time>2025-07-30T08:39:36.000Z</time>
</trkpt>
<trkpt lat="46.0338230" lon="10.3244690">
	<ele>732.40</ele>
	<time>2025-07-30T08:39:37.000Z</time>
</trkpt>
<trkpt lat="46.0338260" lon="10.3244900">
	<ele>731.80</ele>
	<time>2025-07-30T08:39:38.000Z</time>
</trkpt>
<trkpt lat="46.0338300" lon="10.3245090">
	<ele>731.60</ele>
	<time>2025-07-30T08:39:39.000Z</time>
</trkpt>
<trkpt lat="46.0338330" lon="10.3245170">
	<ele>731.20</ele>
	<time>2025-07-30T08:39:40.000Z</time>
</trkpt>
<trkpt lat="46.0338260" lon="10.3245310">
	<ele>731.00</ele>
	<time>2025-07-30T08:39:41.000Z</time>
</trkpt>
<trkpt lat="46.0338200" lon="10.3245460">
	<ele>730.80</ele>
	<time>2025-07-30T08:39:42.000Z</time>
</trkpt>
<trkpt lat="46.0338090" lon="10.3245620">
	<ele>730.60</ele>
	<time>2025-07-30T08:39:43.000Z</time>
</trkpt>
<trkpt lat="46.0337970" lon="10.3245790">
	<ele>730.20</ele>
	<time>2025-07-30T08:39:44.000Z</time>
</trkpt>
<trkpt lat="46.0337830" lon="10.3245960">
	<ele>730.00</ele>
	<time>2025-07-30T08:39:45.000Z</time>
</trkpt>
<trkpt lat="46.0337830" lon="10.3246010">
	<ele>729.80</ele>
	<time>2025-07-30T08:39:46.000Z</time>
</trkpt>
<trkpt lat="46.0337880" lon="10.3246080">
	<ele>729.60</ele>
	<time>2025-07-30T08:39:47.000Z</time>
</trkpt>
<trkpt lat="46.0337910" lon="10.3246130">
	<ele>729.20</ele>
	<time>2025-07-30T08:39:48.000Z</time>
</trkpt>
<trkpt lat="46.0337950" lon="10.3246040">
	<ele>729.00</ele>
	<time>2025-07-30T08:39:49.000Z</time>
</trkpt>
<trkpt lat="46.0337940" lon="10.3246100">
	<ele>728.60</ele>
	<time>2025-07-30T08:39:50.000Z</time>
</trkpt>
<trkpt lat="46.0337910" lon="10.3246160">
	<ele>728.40</ele>
	<time>2025-07-30T08:39:51.000Z</time>
</trkpt>
<trkpt lat="46.0337890" lon="10.3246270">
	<ele>728.20</ele>
	<time>2025-07-30T08:39:52.000Z</time>
</trkpt>
<trkpt lat="46.0337930" lon="10.3246460">
	<ele>727.80</ele>
	<time>2025-07-30T08:39:53.000Z</time>
</trkpt>
<trkpt lat="46.0338020" lon="10.3246560">
	<ele>727.60</ele>
	<time>2025-07-30T08:39:54.000Z</time>
</trkpt>
<trkpt lat="46.0338080" lon="10.3246690">
	<ele>727.40</ele>
	<time>2025-07-30T08:39:55.000Z</time>
</trkpt>
<trkpt lat="46.0338080" lon="10.3246700">
	<ele>727.20</ele>
	<time>2025-07-30T08:39:56.000Z</time>
</trkpt>
<trkpt lat="46.0338110" lon="10.3246800">
	<ele>727.00</ele>
	<time>2025-07-30T08:39:57.000Z</time>
</trkpt>
<trkpt lat="46.0338110" lon="10.3246800">
	<ele>726.80</ele>
	<time>2025-07-30T08:39:58.000Z</time>
</trkpt>
<trkpt lat="46.0338130" lon="10.3246800">
	<ele>726.80</ele>
	<time>2025-07-30T08:39:59.000Z</time>
</trkpt>
<trkpt lat="46.0338150" lon="10.3246820">
	<ele>726.60</ele>
	<time>2025-07-30T08:40:00.000Z</time>
</trkpt>
<trkpt lat="46.0338130" lon="10.3246840">
	<ele>726.60</ele>
	<time>2025-07-30T08:40:01.000Z</time>
</trkpt>
<trkpt lat="46.0338140" lon="10.3246860">
	<ele>726.60</ele>
	<time>2025-07-30T08:40:02.000Z</time>
</trkpt>
<trkpt lat="46.0338120" lon="10.3246930">
	<ele>726.60</ele>
	<time>2025-07-30T08:40:03.000Z</time>
</trkpt>
<trkpt lat="46.0338090" lon="10.3247000">
	<ele>726.20</ele>
	<time>2025-07-30T08:40:04.000Z</time>
</trkpt>
<trkpt lat="46.0338010" lon="10.3247070">
	<ele>726.00</ele>
	<time>2025-07-30T08:40:05.000Z</time>
</trkpt>
<trkpt lat="46.0337960" lon="10.3247130">
	<ele>725.80</ele>
	<time>2025-07-30T08:40:06.000Z</time>
</trkpt>
<trkpt lat="46.0337910" lon="10.3247210">
	<ele>725.60</ele>
	<time>2025-07-30T08:40:07.000Z</time>
</trkpt>
<trkpt lat="46.0337790" lon="10.3247250">
	<ele>725.20</ele>
	<time>2025-07-30T08:40:08.000Z</time>
</trkpt>
<trkpt lat="46.0337610" lon="10.3247240">
	<ele>725.00</ele>
	<time>2025-07-30T08:40:09.000Z</time>
</trkpt>
<trkpt lat="46.0337510" lon="10.3247220">
	<ele>724.80</ele>
	<time>2025-07-30T08:40:10.000Z</time>
</trkpt>
<trkpt lat="46.0337420" lon="10.3247180">
	<ele>724.40</ele>
	<time>2025-07-30T08:40:11.000Z</time>
</trkpt>
<trkpt lat="46.0337360" lon="10.3247120">
	<ele>724.00</ele>
	<time>2025-07-30T08:40:12.000Z</time>
</trkpt>
<trkpt lat="46.0337280" lon="10.3247080">
	<ele>723.80</ele>
	<time>2025-07-30T08:40:13.000Z</time>
</trkpt>
<trkpt lat="46.0337260" lon="10.3247030">
	<ele>723.40</ele>
	<time>2025-07-30T08:40:14.000Z</time>
</trkpt>
<trkpt lat="46.0337270" lon="10.3246960">
	<ele>723.00</ele>
	<time>2025-07-30T08:40:15.000Z</time>
</trkpt>
<trkpt lat="46.0337260" lon="10.3246930">
	<ele>722.60</ele>
	<time>2025-07-30T08:40:16.000Z</time>
</trkpt>
<trkpt lat="46.0337200" lon="10.3246860">
	<ele>722.00</ele>
	<time>2025-07-30T08:40:17.000Z</time>
</trkpt>
<trkpt lat="46.0337140" lon="10.3246740">
	<ele>721.80</ele>
	<time>2025-07-30T08:40:18.000Z</time>
</trkpt>
<trkpt lat="46.0337130" lon="10.3246640">
	<ele>721.40</ele>
	<time>2025-07-30T08:40:19.000Z</time>
</trkpt>
<trkpt lat="46.0337100" lon="10.3246490">
	<ele>721.20</ele>
	<time>2025-07-30T08:40:20.000Z</time>
</trkpt>
<trkpt lat="46.0337100" lon="10.3246380">
	<ele>721.00</ele>
	<time>2025-07-30T08:40:21.000Z</time>
</trkpt>
<trkpt lat="46.0337070" lon="10.3246340">
	<ele>720.80</ele>
	<time>2025-07-30T08:40:22.000Z</time>
</trkpt>
<trkpt lat="46.0337050" lon="10.3246330">
	<ele>720.40</ele>
	<time>2025-07-30T08:40:23.000Z</time>
</trkpt>
<trkpt lat="46.0337020" lon="10.3246290">
	<ele>720.00</ele>
	<time>2025-07-30T08:40:24.000Z</time>
</trkpt>
<trkpt lat="46.0337010" lon="10.3246150">
	<ele>719.60</ele>
	<time>2025-07-30T08:40:25.000Z</time>
</trkpt>
<trkpt lat="46.0336960" lon="10.3246060">
	<ele>719.20</ele>
	<time>2025-07-30T08:40:26.000Z</time>
</trkpt>
<trkpt lat="46.0336920" lon="10.3245910">
	<ele>719.00</ele>
	<time>2025-07-30T08:40:27.000Z</time>
</trkpt>
<trkpt lat="46.0336870" lon="10.3245770">
	<ele>718.60</ele>
	<time>2025-07-30T08:40:28.000Z</time>
</trkpt>
<trkpt lat="46.0336870" lon="10.3245650">
	<ele>718.20</ele>
	<time>2025-07-30T08:40:29.000Z</time>
</trkpt>
<trkpt lat="46.0336890" lon="10.3245540">
	<ele>718.00</ele>
	<time>2025-07-30T08:40:30.000Z</time>
</trkpt>
<trkpt lat="46.0336810" lon="10.3245420">
	<ele>717.60</ele>
	<time>2025-07-30T08:40:31.000Z</time>
</trkpt>
<trkpt lat="46.0336730" lon="10.3245270">
	<ele>717.20</ele>
	<time>2025-07-30T08:40:32.000Z</time>
</trkpt>
<trkpt lat="46.0336570" lon="10.3245130">
	<ele>717.00</ele>
	<time>2025-07-30T08:40:33.000Z</time>
</trkpt>
<trkpt lat="46.0336450" lon="10.3244980">
	<ele>716.40</ele>
	<time>2025-07-30T08:40:34.000Z</time>
</trkpt>
<trkpt lat="46.0336410" lon="10.3244840">
	<ele>716.20</ele>
	<time>2025-07-30T08:40:35.000Z</time>
</trkpt>
<trkpt lat="46.0336400" lon="10.3244780">
	<ele>715.80</ele>
	<time>2025-07-30T08:40:36.000Z</time>
</trkpt>
<trkpt lat="46.0336340" lon="10.3244780">
	<ele>715.60</ele>
	<time>2025-07-30T08:40:37.000Z</time>
</trkpt>
<trkpt lat="46.0336220" lon="10.3244770">
	<ele>715.20</ele>
	<time>2025-07-30T08:40:38.000Z</time>
</trkpt>
<trkpt lat="46.0336120" lon="10.3244730">
	<ele>714.80</ele>
	<time>2025-07-30T08:40:39.000Z</time>
</trkpt>
<trkpt lat="46.0336050" lon="10.3244690">
	<ele>714.60</ele>
	<time>2025-07-30T08:40:40.000Z</time>
</trkpt>
<trkpt lat="46.0335960" lon="10.3244610">
	<ele>714.40</ele>
	<time>2025-07-30T08:40:41.000Z</time>
</trkpt>
<trkpt lat="46.0335850" lon="10.3244520">
	<ele>714.00</ele>
	<time>2025-07-30T08:40:42.000Z</time>
</trkpt>
<trkpt lat="46.0335740" lon="10.3244410">
	<ele>713.80</ele>
	<time>2025-07-30T08:40:43.000Z</time>
</trkpt>
<trkpt lat="46.0335620" lon="10.3244320">
	<ele>713.40</ele>
	<time>2025-07-30T08:40:44.000Z</time>
</trkpt>
<trkpt lat="46.0335510" lon="10.3244220">
	<ele>713.20</ele>
	<time>2025-07-30T08:40:45.000Z</time>
</trkpt>
<trkpt lat="46.0335430" lon="10.3244160">
	<ele>713.00</ele>
	<time>2025-07-30T08:40:46.000Z</time>
</trkpt>
<trkpt lat="46.0335340" lon="10.3244060">
	<ele>712.60</ele>
	<time>2025-07-30T08:40:47.000Z</time>
</trkpt>
<trkpt lat="46.0335200" lon="10.3244000">
	<ele>712.20</ele>
	<time>2025-07-30T08:40:48.000Z</time>
</trkpt>
<trkpt lat="46.0335090" lon="10.3243960">
	<ele>711.80</ele>
	<time>2025-07-30T08:40:49.000Z</time>
</trkpt>
<trkpt lat="46.0335050" lon="10.3243930">
	<ele>711.60</ele>
	<time>2025-07-30T08:40:50.000Z</time>
</trkpt>
<trkpt lat="46.0334970" lon="10.3243900">
	<ele>711.20</ele>
	<time>2025-07-30T08:40:51.000Z</time>
</trkpt>
<trkpt lat="46.0334870" lon="10.3243850">
	<ele>710.80</ele>
	<time>2025-07-30T08:40:52.000Z</time>
</trkpt>
<trkpt lat="46.0334730" lon="10.3243880">
	<ele>710.40</ele>
	<time>2025-07-30T08:40:53.000Z</time>
</trkpt>
<trkpt lat="46.0334570" lon="10.3243860">
	<ele>710.20</ele>
	<time>2025-07-30T08:40:54.000Z</time>
</trkpt>
<trkpt lat="46.0334400" lon="10.3243740">
	<ele>709.80</ele>
	<time>2025-07-30T08:40:55.000Z</time>
</trkpt>
<trkpt lat="46.0334290" lon="10.3243710">
	<ele>709.60</ele>
	<time>2025-07-30T08:40:56.000Z</time>
</trkpt>
<trkpt lat="46.0334180" lon="10.3243710">
	<ele>709.40</ele>
	<time>2025-07-30T08:40:57.000Z</time>
</trkpt>
<trkpt lat="46.0334130" lon="10.3243720">
	<ele>708.80</ele>
	<time>2025-07-30T08:40:58.000Z</time>
</trkpt>
<trkpt lat="46.0334070" lon="10.3243730">
	<ele>708.40</ele>
	<time>2025-07-30T08:40:59.000Z</time>
</trkpt>
<trkpt lat="46.0333990" lon="10.3243820">
	<ele>708.00</ele>
	<time>2025-07-30T08:41:00.000Z</time>
</trkpt>
<trkpt lat="46.0333920" lon="10.3243910">
	<ele>707.60</ele>
	<time>2025-07-30T08:41:01.000Z</time>
</trkpt>
<trkpt lat="46.0333780" lon="10.3243930">
	<ele>707.40</ele>
	<time>2025-07-30T08:41:02.000Z</time>
</trkpt>
<trkpt lat="46.0333670" lon="10.3243970">
	<ele>707.20</ele>
	<time>2025-07-30T08:41:03.000Z</time>
</trkpt>
<trkpt lat="46.0333570" lon="10.3244100">
	<ele>707.00</ele>
	<time>2025-07-30T08:41:04.000Z</time>
</trkpt>
<trkpt lat="46.0333370" lon="10.3244190">
	<ele>707.00</ele>
	<time>2025-07-30T08:41:05.000Z</time>
</trkpt>
<trkpt lat="46.0333220" lon="10.3244230">
	<ele>706.60</ele>
	<time>2025-07-30T08:41:06.000Z</time>
</trkpt>
<trkpt lat="46.0333070" lon="10.3244250">
	<ele>706.00</ele>
	<time>2025-07-30T08:41:07.000Z</time>
</trkpt>
<trkpt lat="46.0332930" lon="10.3244330">
	<ele>705.60</ele>
	<time>2025-07-30T08:41:08.000Z</time>
</trkpt>
<trkpt lat="46.0332860" lon="10.3244370">
	<ele>705.20</ele>
	<time>2025-07-30T08:41:09.000Z</time>
</trkpt>
<trkpt lat="46.0332780" lon="10.3244480">
	<ele>704.80</ele>
	<time>2025-07-30T08:41:10.000Z</time>
</trkpt>
<trkpt lat="46.0332670" lon="10.3244530">
	<ele>704.60</ele>
	<time>2025-07-30T08:41:11.000Z</time>
</trkpt>
<trkpt lat="46.0332590" lon="10.3244620">
	<ele>704.20</ele>
	<time>2025-07-30T08:41:12.000Z</time>
</trkpt>
<trkpt lat="46.0332520" lon="10.3244720">
	<ele>704.20</ele>
	<time>2025-07-30T08:41:13.000Z</time>
</trkpt>
<trkpt lat="46.0332470" lon="10.3244800">
	<ele>704.00</ele>
	<time>2025-07-30T08:41:14.000Z</time>
</trkpt>
<trkpt lat="46.0332280" lon="10.3244890">
	<ele>703.80</ele>
	<time>2025-07-30T08:41:15.000Z</time>
</trkpt>
<trkpt lat="46.0332170" lon="10.3244980">
	<ele>703.80</ele>
	<time>2025-07-30T08:41:16.000Z</time>
</trkpt>
<trkpt lat="46.0332050" lon="10.3245090">
	<ele>703.60</ele>
	<time>2025-07-30T08:41:17.000Z</time>
</trkpt>
<trkpt lat="46.0331960" lon="10.3245160">
	<ele>703.40</ele>
	<time>2025-07-30T08:41:18.000Z</time>
</trkpt>
<trkpt lat="46.0331820" lon="10.3245250">
	<ele>703.00</ele>
	<time>2025-07-30T08:41:19.000Z</time>
</trkpt>
<trkpt lat="46.0331740" lon="10.3245290">
	<ele>703.00</ele>
	<time>2025-07-30T08:41:20.000Z</time>
</trkpt>
<trkpt lat="46.0331720" lon="10.3245330">
	<ele>702.60</ele>
	<time>2025-07-30T08:41:21.000Z</time>
</trkpt>
<trkpt lat="46.0331710" lon="10.3245330">
	<ele>702.20</ele>
	<time>2025-07-30T08:41:22.000Z</time>
</trkpt>
<trkpt lat="46.0331680" lon="10.3245360">
	<ele>702.00</ele>
	<time>2025-07-30T08:41:23.000Z</time>
</trkpt>
<trkpt lat="46.0331570" lon="10.3245310">
	<ele>701.80</ele>
	<time>2025-07-30T08:41:24.000Z</time>
</trkpt>
<trkpt lat="46.0331450" lon="10.3245310">
	<ele>701.60</ele>
	<time>2025-07-30T08:41:25.000Z</time>
</trkpt>
<trkpt lat="46.0331340" lon="10.3245340">
	<ele>701.40</ele>
	<time>2025-07-30T08:41:26.000Z</time>
</trkpt>
<trkpt lat="46.0331280" lon="10.3245410">
	<ele>701.00</ele>
	<time>2025-07-30T08:41:27.000Z</time>
</trkpt>
<trkpt lat="46.0331230" lon="10.3245480">
	<ele>700.80</ele>
	<time>2025-07-30T08:41:28.000Z</time>
</trkpt>
<trkpt lat="46.0331150" lon="10.3245570">
	<ele>700.40</ele>
	<time>2025-07-30T08:41:29.000Z</time>
</trkpt>
<trkpt lat="46.0331060" lon="10.3245660">
	<ele>700.20</ele>
	<time>2025-07-30T08:41:30.000Z</time>
</trkpt>
<trkpt lat="46.0330970" lon="10.3245690">
	<ele>699.80</ele>
	<time>2025-07-30T08:41:31.000Z</time>
</trkpt>
<trkpt lat="46.0330840" lon="10.3245770">
	<ele>699.60</ele>
	<time>2025-07-30T08:41:32.000Z</time>
</trkpt>
<trkpt lat="46.0330740" lon="10.3245840">
	<ele>699.20</ele>
	<time>2025-07-30T08:41:33.000Z</time>
</trkpt>
<trkpt lat="46.0330630" lon="10.3245890">
	<ele>699.00</ele>
	<time>2025-07-30T08:41:34.000Z</time>
</trkpt>
<trkpt lat="46.0330560" lon="10.3245960">
	<ele>698.60</ele>
	<time>2025-07-30T08:41:35.000Z</time>
</trkpt>
<trkpt lat="46.0330430" lon="10.3246000">
	<ele>698.20</ele>
	<time>2025-07-30T08:41:36.000Z</time>
</trkpt>
<trkpt lat="46.0330270" lon="10.3246060">
	<ele>698.00</ele>
	<time>2025-07-30T08:41:37.000Z</time>
</trkpt>
<trkpt lat="46.0330120" lon="10.3246070">
	<ele>697.40</ele>
	<time>2025-07-30T08:41:38.000Z</time>
</trkpt>
<trkpt lat="46.0329980" lon="10.3246140">
	<ele>697.20</ele>
	<time>2025-07-30T08:41:39.000Z</time>
</trkpt>
<trkpt lat="46.0329870" lon="10.3246210">
	<ele>697.00</ele>
	<time>2025-07-30T08:41:40.000Z</time>
</trkpt>
<trkpt lat="46.0329750" lon="10.3246310">
	<ele>696.60</ele>
	<time>2025-07-30T08:41:41.000Z</time>
</trkpt>
<trkpt lat="46.0329600" lon="10.3246330">
	<ele>696.20</ele>
	<time>2025-07-30T08:41:42.000Z</time>
</trkpt>
<trkpt lat="46.0329450" lon="10.3246330">
	<ele>696.00</ele>
	<time>2025-07-30T08:41:43.000Z</time>
</trkpt>
<trkpt lat="46.0329360" lon="10.3246350">
	<ele>695.60</ele>
	<time>2025-07-30T08:41:44.000Z</time>
</trkpt>
<trkpt lat="46.0329300" lon="10.3246330">
	<ele>695.40</ele>
	<time>2025-07-30T08:41:45.000Z</time>
</trkpt>
<trkpt lat="46.0329230" lon="10.3246330">
	<ele>695.20</ele>
	<time>2025-07-30T08:41:46.000Z</time>
</trkpt>
<trkpt lat="46.0329140" lon="10.3246310">
	<ele>694.80</ele>
	<time>2025-07-30T08:41:47.000Z</time>
</trkpt>
<trkpt lat="46.0329060" lon="10.3246310">
	<ele>694.60</ele>
	<time>2025-07-30T08:41:48.000Z</time>
</trkpt>
<trkpt lat="46.0328990" lon="10.3246310">
	<ele>694.20</ele>
	<time>2025-07-30T08:41:49.000Z</time>
</trkpt>
<trkpt lat="46.0328880" lon="10.3246290">
	<ele>694.00</ele>
	<time>2025-07-30T08:41:50.000Z</time>
</trkpt>
<trkpt lat="46.0328750" lon="10.3246220">
	<ele>693.60</ele>
	<time>2025-07-30T08:41:51.000Z</time>
</trkpt>
<trkpt lat="46.0328630" lon="10.3246220">
	<ele>693.20</ele>
	<time>2025-07-30T08:41:52.000Z</time>
</trkpt>
<trkpt lat="46.0328540" lon="10.3246250">
	<ele>693.00</ele>
	<time>2025-07-30T08:41:53.000Z</time>
</trkpt>
<trkpt lat="46.0328370" lon="10.3246290">
	<ele>692.80</ele>
	<time>2025-07-30T08:41:54.000Z</time>
</trkpt>
<trkpt lat="46.0328290" lon="10.3246270">
	<ele>692.60</ele>
	<time>2025-07-30T08:41:55.000Z</time>
</trkpt>
<trkpt lat="46.0328140" lon="10.3246320">
	<ele>692.20</ele>
	<time>2025-07-30T08:41:56.000Z</time>
</trkpt>
<trkpt lat="46.0328050" lon="10.3246430">
	<ele>692.00</ele>
	<time>2025-07-30T08:41:57.000Z</time>
</trkpt>
<trkpt lat="46.0327970" lon="10.3246510">
	<ele>691.60</ele>
	<time>2025-07-30T08:41:58.000Z</time>
</trkpt>
<trkpt lat="46.0327840" lon="10.3246520">
	<ele>691.60</ele>
	<time>2025-07-30T08:41:59.000Z</time>
</trkpt>
<trkpt lat="46.0327670" lon="10.3246470">
	<ele>691.20</ele>
	<time>2025-07-30T08:42:00.000Z</time>
</trkpt>
<trkpt lat="46.0327540" lon="10.3246380">
	<ele>691.20</ele>
	<time>2025-07-30T08:42:01.000Z</time>
</trkpt>
<trkpt lat="46.0327380" lon="10.3246370">
	<ele>690.80</ele>
	<time>2025-07-30T08:42:02.000Z</time>
</trkpt>
<trkpt lat="46.0327270" lon="10.3246450">
	<ele>690.60</ele>
	<time>2025-07-30T08:42:03.000Z</time>
</trkpt>
<trkpt lat="46.0327130" lon="10.3246510">
	<ele>690.20</ele>
	<time>2025-07-30T08:42:04.000Z</time>
</trkpt>
<trkpt lat="46.0327000" lon="10.3246500">
	<ele>690.00</ele>
	<time>2025-07-30T08:42:05.000Z</time>
</trkpt>
<trkpt lat="46.0326910" lon="10.3246540">
	<ele>689.80</ele>
	<time>2025-07-30T08:42:06.000Z</time>
</trkpt>
<trkpt lat="46.0326940" lon="10.3246630">
	<ele>689.60</ele>
	<time>2025-07-30T08:42:07.000Z</time>
</trkpt>
<trkpt lat="46.0326920" lon="10.3246780">
	<ele>689.40</ele>
	<time>2025-07-30T08:42:08.000Z</time>
</trkpt>
<trkpt lat="46.0326930" lon="10.3247010">
	<ele>689.20</ele>
	<time>2025-07-30T08:42:09.000Z</time>
</trkpt>
<trkpt lat="46.0326860" lon="10.3247130">
	<ele>688.60</ele>
	<time>2025-07-30T08:42:10.000Z</time>
</trkpt>
<trkpt lat="46.0326680" lon="10.3247200">
	<ele>688.40</ele>
	<time>2025-07-30T08:42:11.000Z</time>
</trkpt>
<trkpt lat="46.0326400" lon="10.3247150">
	<ele>688.20</ele>
	<time>2025-07-30T08:42:12.000Z</time>
</trkpt>
<trkpt lat="46.0326280" lon="10.3246960">
	<ele>687.80</ele>
	<time>2025-07-30T08:42:13.000Z</time>
</trkpt>
<trkpt lat="46.0326230" lon="10.3246820">
	<ele>687.60</ele>
	<time>2025-07-30T08:42:14.000Z</time>
</trkpt>
<trkpt lat="46.0326160" lon="10.3246830">
	<ele>687.20</ele>
	<time>2025-07-30T08:42:15.000Z</time>
</trkpt>
<trkpt lat="46.0326070" lon="10.3246860">
	<ele>686.80</ele>
	<time>2025-07-30T08:42:16.000Z</time>
</trkpt>
<trkpt lat="46.0325970" lon="10.3246850">
	<ele>686.60</ele>
	<time>2025-07-30T08:42:17.000Z</time>
</trkpt>
<trkpt lat="46.0325880" lon="10.3246940">
	<ele>686.40</ele>
	<time>2025-07-30T08:42:18.000Z</time>
</trkpt>
<trkpt lat="46.0325780" lon="10.3247080">
	<ele>685.80</ele>
	<time>2025-07-30T08:42:19.000Z</time>
</trkpt>
<trkpt lat="46.0325760" lon="10.3247140">
	<ele>685.60</ele>
	<time>2025-07-30T08:42:20.000Z</time>
</trkpt>
<trkpt lat="46.0325680" lon="10.3247240">
	<ele>685.20</ele>
	<time>2025-07-30T08:42:21.000Z</time>
</trkpt>
<trkpt lat="46.0325640" lon="10.3247350">
	<ele>684.80</ele>
	<time>2025-07-30T08:42:22.000Z</time>
</trkpt>
<trkpt lat="46.0325610" lon="10.3247440">
	<ele>684.40</ele>
	<time>2025-07-30T08:42:23.000Z</time>
</trkpt>
<trkpt lat="46.0325550" lon="10.3247560">
	<ele>684.00</ele>
	<time>2025-07-30T08:42:24.000Z</time>
</trkpt>
<trkpt lat="46.0325470" lon="10.3247600">
	<ele>683.60</ele>
	<time>2025-07-30T08:42:25.000Z</time>
</trkpt>
<trkpt lat="46.0325360" lon="10.3247600">
	<ele>683.40</ele>
	<time>2025-07-30T08:42:26.000Z</time>
</trkpt>
<trkpt lat="46.0325270" lon="10.3247640">
	<ele>683.00</ele>
	<time>2025-07-30T08:42:27.000Z</time>
</trkpt>
<trkpt lat="46.0325190" lon="10.3247670">
	<ele>682.60</ele>
	<time>2025-07-30T08:42:28.000Z</time>
</trkpt>
<trkpt lat="46.0325110" lon="10.3247690">
	<ele>682.40</ele>
	<time>2025-07-30T08:42:29.000Z</time>
</trkpt>
<trkpt lat="46.0325050" lon="10.3247660">
	<ele>682.00</ele>
	<time>2025-07-30T08:42:30.000Z</time>
</trkpt>
<trkpt lat="46.0324970" lon="10.3247650">
	<ele>681.60</ele>
	<time>2025-07-30T08:42:31.000Z</time>
</trkpt>
<trkpt lat="46.0324900" lon="10.3247610">
	<ele>681.20</ele>
	<time>2025-07-30T08:42:32.000Z</time>
</trkpt>
<trkpt lat="46.0324850" lon="10.3247550">
	<ele>681.00</ele>
	<time>2025-07-30T08:42:33.000Z</time>
</trkpt>
<trkpt lat="46.0324790" lon="10.3247500">
	<ele>680.60</ele>
	<time>2025-07-30T08:42:34.000Z</time>
</trkpt>
<trkpt lat="46.0324710" lon="10.3247470">
	<ele>680.20</ele>
	<time>2025-07-30T08:42:35.000Z</time>
</trkpt>
<trkpt lat="46.0324640" lon="10.3247410">
	<ele>680.00</ele>
	<time>2025-07-30T08:42:36.000Z</time>
</trkpt>
<trkpt lat="46.0324520" lon="10.3247370">
	<ele>679.60</ele>
	<time>2025-07-30T08:42:37.000Z</time>
</trkpt>
<trkpt lat="46.0324450" lon="10.3247360">
	<ele>679.40</ele>
	<time>2025-07-30T08:42:38.000Z</time>
</trkpt>
<trkpt lat="46.0324350" lon="10.3247310">
	<ele>679.00</ele>
	<time>2025-07-30T08:42:39.000Z</time>
</trkpt>
<trkpt lat="46.0324260" lon="10.3247300">
	<ele>678.80</ele>
	<time>2025-07-30T08:42:40.000Z</time>
</trkpt>
<trkpt lat="46.0324190" lon="10.3247280">
	<ele>678.40</ele>
	<time>2025-07-30T08:42:41.000Z</time>
</trkpt>
<trkpt lat="46.0324160" lon="10.3247290">
	<ele>678.20</ele>
	<time>2025-07-30T08:42:42.000Z</time>
</trkpt>
<trkpt lat="46.0324150" lon="10.3247300">
	<ele>677.80</ele>
	<time>2025-07-30T08:42:43.000Z</time>
</trkpt>
<trkpt lat="46.0324200" lon="10.3247310">
	<ele>677.60</ele>
	<time>2025-07-30T08:42:44.000Z</time>
</trkpt>
<trkpt lat="46.0324190" lon="10.3247320">
	<ele>677.40</ele>
	<time>2025-07-30T08:42:45.000Z</time>
</trkpt>
<trkpt lat="46.0324200" lon="10.3247340">
	<ele>677.40</ele>
	<time>2025-07-30T08:42:46.000Z</time>
</trkpt>
<trkpt lat="46.0324160" lon="10.3247310">
	<ele>677.20</ele>
	<time>2025-07-30T08:42:47.000Z</time>
</trkpt>
<trkpt lat="46.0324050" lon="10.3247270">
	<ele>677.20</ele>
	<time>2025-07-30T08:42:48.000Z</time>
</trkpt>
<trkpt lat="46.0323920" lon="10.3247220">
	<ele>677.20</ele>
	<time>2025-07-30T08:42:49.000Z</time>
</trkpt>
<trkpt lat="46.0323810" lon="10.3247190">
	<ele>676.80</ele>
	<time>2025-07-30T08:42:50.000Z</time>
</trkpt>
<trkpt lat="46.0323700" lon="10.3247180">
	<ele>676.40</ele>
	<time>2025-07-30T08:42:51.000Z</time>
</trkpt>
<trkpt lat="46.0323570" lon="10.3247190">
	<ele>676.20</ele>
	<time>2025-07-30T08:42:52.000Z</time>
</trkpt>
<trkpt lat="46.0323480" lon="10.3247240">
	<ele>675.80</ele>
	<time>2025-07-30T08:42:53.000Z</time>
</trkpt>
<trkpt lat="46.0323380" lon="10.3247270">
	<ele>675.60</ele>
	<time>2025-07-30T08:42:54.000Z</time>
</trkpt>
<trkpt lat="46.0323280" lon="10.3247240">
	<ele>675.20</ele>
	<time>2025-07-30T08:42:55.000Z</time>
</trkpt>
<trkpt lat="46.0323080" lon="10.3247290">
	<ele>675.00</ele>
	<time>2025-07-30T08:42:56.000Z</time>
</trkpt>
<trkpt lat="46.0322920" lon="10.3247330">
	<ele>674.60</ele>
	<time>2025-07-30T08:42:57.000Z</time>
</trkpt>
<trkpt lat="46.0322810" lon="10.3247460">
	<ele>674.40</ele>
	<time>2025-07-30T08:42:58.000Z</time>
</trkpt>
<trkpt lat="46.0322800" lon="10.3247550">
	<ele>674.20</ele>
	<time>2025-07-30T08:42:59.000Z</time>
</trkpt>
<trkpt lat="46.0322800" lon="10.3247650">
	<ele>674.00</ele>
	<time>2025-07-30T08:43:00.000Z</time>
</trkpt>
<trkpt lat="46.0322810" lon="10.3247790">
	<ele>674.00</ele>
	<time>2025-07-30T08:43:01.000Z</time>
</trkpt>
<trkpt lat="46.0322990" lon="10.3247960">
	<ele>673.80</ele>
	<time>2025-07-30T08:43:02.000Z</time>
</trkpt>
<trkpt lat="46.0322940" lon="10.3248180">
	<ele>673.60</ele>
	<time>2025-07-30T08:43:03.000Z</time>
</trkpt>
<trkpt lat="46.0322950" lon="10.3248290">
	<ele>673.40</ele>
	<time>2025-07-30T08:43:04.000Z</time>
</trkpt>
<trkpt lat="46.0322750" lon="10.3248300">
	<ele>673.40</ele>
	<time>2025-07-30T08:43:05.000Z</time>
</trkpt>
<trkpt lat="46.0322540" lon="10.3248360">
	<ele>673.40</ele>
	<time>2025-07-30T08:43:06.000Z</time>
</trkpt>
<trkpt lat="46.0322430" lon="10.3248490">
	<ele>673.20</ele>
	<time>2025-07-30T08:43:07.000Z</time>
</trkpt>
<trkpt lat="46.0322350" lon="10.3248730">
	<ele>673.20</ele>
	<time>2025-07-30T08:43:08.000Z</time>
</trkpt>
<trkpt lat="46.0322400" lon="10.3248950">
	<ele>673.00</ele>
	<time>2025-07-30T08:43:09.000Z</time>
</trkpt>
<trkpt lat="46.0322430" lon="10.3249200">
	<ele>673.00</ele>
	<time>2025-07-30T08:43:10.000Z</time>
</trkpt>
<trkpt lat="46.0322440" lon="10.3249370">
	<ele>673.00</ele>
	<time>2025-07-30T08:43:11.000Z</time>
</trkpt>
<trkpt lat="46.0322490" lon="10.3249530">
	<ele>672.80</ele>
	<time>2025-07-30T08:43:12.000Z</time>
</trkpt>
<trkpt lat="46.0322520" lon="10.3249720">
	<ele>672.60</ele>
	<time>2025-07-30T08:43:13.000Z</time>
</trkpt>
<trkpt lat="46.0322560" lon="10.3249860">
	<ele>672.60</ele>
	<time>2025-07-30T08:43:14.000Z</time>
</trkpt>
<trkpt lat="46.0322590" lon="10.3250060">
	<ele>672.40</ele>
	<time>2025-07-30T08:43:15.000Z</time>
</trkpt>
<trkpt lat="46.0322590" lon="10.3250210">
	<ele>672.00</ele>
	<time>2025-07-30T08:43:16.000Z</time>
</trkpt>
<trkpt lat="46.0322590" lon="10.3250360">
	<ele>671.80</ele>
	<time>2025-07-30T08:43:17.000Z</time>
</trkpt>
<trkpt lat="46.0322600" lon="10.3250410">
	<ele>671.80</ele>
	<time>2025-07-30T08:43:18.000Z</time>
</trkpt>
<trkpt lat="46.0322620" lon="10.3250420">
	<ele>671.80</ele>
	<time>2025-07-30T08:43:19.000Z</time>
</trkpt>
<trkpt lat="46.0322630" lon="10.3250430">
	<ele>671.80</ele>
	<time>2025-07-30T08:43:20.000Z</time>
</trkpt>
<trkpt lat="46.0322650" lon="10.3250400">
	<ele>671.80</ele>
	<time>2025-07-30T08:43:21.000Z</time>
</trkpt>
<trkpt lat="46.0322660" lon="10.3250410">
	<ele>671.80</ele>
	<time>2025-07-30T08:43:22.000Z</time>
</trkpt>
<trkpt lat="46.0322650" lon="10.3250430">
	<ele>671.80</ele>
	<time>2025-07-30T08:43:23.000Z</time>
</trkpt>
<trkpt lat="46.0322640" lon="10.3250440">
	<ele>672.00</ele>
	<time>2025-07-30T08:43:24.000Z</time>
</trkpt>
<trkpt lat="46.0322650" lon="10.3250460">
	<ele>672.00</ele>
	<time>2025-07-30T08:43:25.000Z</time>
</trkpt>
<trkpt lat="46.0322670" lon="10.3250440">
	<ele>672.00</ele>
	<time>2025-07-30T08:43:26.000Z</time>
</trkpt>
<trkpt lat="46.0322670" lon="10.3250470">
	<ele>671.80</ele>
	<time>2025-07-30T08:43:27.000Z</time>
</trkpt>
<trkpt lat="46.0322740" lon="10.3250520">
	<ele>671.60</ele>
	<time>2025-07-30T08:43:28.000Z</time>
</trkpt>
<trkpt lat="46.0322840" lon="10.3250650">
	<ele>671.60</ele>
	<time>2025-07-30T08:43:29.000Z</time>
</trkpt>
<trkpt lat="46.0322910" lon="10.3250770">
	<ele>671.60</ele>
	<time>2025-07-30T08:43:30.000Z</time>
</trkpt>
<trkpt lat="46.0322970" lon="10.3250860">
	<ele>671.40</ele>
	<time>2025-07-30T08:43:31.000Z</time>
</trkpt>
<trkpt lat="46.0323040" lon="10.3251040">
	<ele>671.20</ele>
	<time>2025-07-30T08:43:32.000Z</time>
</trkpt>
<trkpt lat="46.0323130" lon="10.3251250">
	<ele>671.20</ele>
	<time>2025-07-30T08:43:33.000Z</time>
</trkpt>
<trkpt lat="46.0323160" lon="10.3251430">
	<ele>671.00</ele>
	<time>2025-07-30T08:43:34.000Z</time>
</trkpt>
<trkpt lat="46.0323200" lon="10.3251630">
	<ele>671.00</ele>
	<time>2025-07-30T08:43:35.000Z</time>
</trkpt>
<trkpt lat="46.0323260" lon="10.3251790">
	<ele>671.00</ele>
	<time>2025-07-30T08:43:36.000Z</time>
</trkpt>
<trkpt lat="46.0323350" lon="10.3251890">
	<ele>670.80</ele>
	<time>2025-07-30T08:43:37.000Z</time>
</trkpt>
<trkpt lat="46.0323480" lon="10.3251950">
	<ele>670.80</ele>
	<time>2025-07-30T08:43:38.000Z</time>
</trkpt>
<trkpt lat="46.0323550" lon="10.3252020">
	<ele>670.60</ele>
	<time>2025-07-30T08:43:39.000Z</time>
</trkpt>
<trkpt lat="46.0323670" lon="10.3252130">
	<ele>670.40</ele>
	<time>2025-07-30T08:43:40.000Z</time>
</trkpt>
<trkpt lat="46.0323770" lon="10.3252140">
	<ele>670.20</ele>
	<time>2025-07-30T08:43:41.000Z</time>
</trkpt>
<trkpt lat="46.0323870" lon="10.3252090">
	<ele>670.00</ele>
	<time>2025-07-30T08:43:42.000Z</time>
</trkpt>
<trkpt lat="46.0324000" lon="10.3252040">
	<ele>669.60</ele>
	<time>2025-07-30T08:43:43.000Z</time>
</trkpt>
<trkpt lat="46.0324090" lon="10.3252050">
	<ele>669.40</ele>
	<time>2025-07-30T08:43:44.000Z</time>
</trkpt>
<trkpt lat="46.0324220" lon="10.3252070">
	<ele>669.20</ele>
	<time>2025-07-30T08:43:45.000Z</time>
</trkpt>
<trkpt lat="46.0324300" lon="10.3252160">
	<ele>669.00</ele>
	<time>2025-07-30T08:43:46.000Z</time>
</trkpt>
<trkpt lat="46.0324400" lon="10.3252260">
	<ele>668.80</ele>
	<time>2025-07-30T08:43:47.000Z</time>
</trkpt>
<trkpt lat="46.0324480" lon="10.3252460">
	<ele>668.80</ele>
	<time>2025-07-30T08:43:48.000Z</time>
</trkpt>
<trkpt lat="46.0324540" lon="10.3252590">
	<ele>668.60</ele>
	<time>2025-07-30T08:43:49.000Z</time>
</trkpt>
<trkpt lat="46.0324590" lon="10.3252730">
	<ele>668.60</ele>
	<time>2025-07-30T08:43:50.000Z</time>
</trkpt>
<trkpt lat="46.0324650" lon="10.3252860">
	<ele>668.40</ele>
	<time>2025-07-30T08:43:51.000Z</time>
</trkpt>
<trkpt lat="46.0324720" lon="10.3252970">
	<ele>668.20</ele>
	<time>2025-07-30T08:43:52.000Z</time>
</trkpt>
<trkpt lat="46.0324810" lon="10.3253080">
	<ele>668.00</ele>
	<time>2025-07-30T08:43:53.000Z</time>
</trkpt>
<trkpt lat="46.0324910" lon="10.3253160">
	<ele>667.80</ele>
	<time>2025-07-30T08:43:54.000Z</time>
</trkpt>
<trkpt lat="46.0325010" lon="10.3253200">
	<ele>667.60</ele>
	<time>2025-07-30T08:43:55.000Z</time>
</trkpt>
<trkpt lat="46.0325090" lon="10.3253210">
	<ele>667.20</ele>
	<time>2025-07-30T08:43:56.000Z</time>
</trkpt>
<trkpt lat="46.0325110" lon="10.3253330">
	<ele>667.00</ele>
	<time>2025-07-30T08:43:57.000Z</time>
</trkpt>
<trkpt lat="46.0325130" lon="10.3253410">
	<ele>667.00</ele>
	<time>2025-07-30T08:43:58.000Z</time>
</trkpt>
<trkpt lat="46.0325140" lon="10.3253530">
	<ele>666.80</ele>
	<time>2025-07-30T08:43:59.000Z</time>
</trkpt>
<trkpt lat="46.0325270" lon="10.3253710">
	<ele>666.80</ele>
	<time>2025-07-30T08:44:00.000Z</time>
</trkpt>
<trkpt lat="46.0325480" lon="10.3253730">
	<ele>666.60</ele>
	<time>2025-07-30T08:44:01.000Z</time>
</trkpt>
<trkpt lat="46.0325600" lon="10.3253860">
	<ele>666.60</ele>
	<time>2025-07-30T08:44:02.000Z</time>
</trkpt>
<trkpt lat="46.0325740" lon="10.3253930">
	<ele>666.40</ele>
	<time>2025-07-30T08:44:03.000Z</time>
</trkpt>
<trkpt lat="46.0325830" lon="10.3253990">
	<ele>666.40</ele>
	<time>2025-07-30T08:44:04.000Z</time>
</trkpt>
<trkpt lat="46.0325890" lon="10.3254080">
	<ele>666.20</ele>
	<time>2025-07-30T08:44:05.000Z</time>
</trkpt>
<trkpt lat="46.0325930" lon="10.3254190">
	<ele>666.20</ele>
	<time>2025-07-30T08:44:06.000Z</time>
</trkpt>
<trkpt lat="46.0325990" lon="10.3254290">
	<ele>666.00</ele>
	<time>2025-07-30T08:44:07.000Z</time>
</trkpt>
<trkpt lat="46.0326020" lon="10.3254460">
	<ele>666.00</ele>
	<time>2025-07-30T08:44:08.000Z</time>
</trkpt>
<trkpt lat="46.0326100" lon="10.3254610">
	<ele>665.80</ele>
	<time>2025-07-30T08:44:09.000Z</time>
</trkpt>
<trkpt lat="46.0326180" lon="10.3254690">
	<ele>665.40</ele>
	<time>2025-07-30T08:44:10.000Z</time>
</trkpt>
<trkpt lat="46.0326240" lon="10.3254790">
	<ele>665.40</ele>
	<time>2025-07-30T08:44:11.000Z</time>
</trkpt>
<trkpt lat="46.0326360" lon="10.3254880">
	<ele>665.20</ele>
	<time>2025-07-30T08:44:12.000Z</time>
</trkpt>
<trkpt lat="46.0326430" lon="10.3255100">
	<ele>665.00</ele>
	<time>2025-07-30T08:44:13.000Z</time>
</trkpt>
<trkpt lat="46.0326460" lon="10.3255300">
	<ele>664.80</ele>
	<time>2025-07-30T08:44:14.000Z</time>
</trkpt>
<trkpt lat="46.0326460" lon="10.3255520">
	<ele>664.80</ele>
	<time>2025-07-30T08:44:15.000Z</time>
</trkpt>
<trkpt lat="46.0326480" lon="10.3255550">
	<ele>664.60</ele>
	<time>2025-07-30T08:44:16.000Z</time>
</trkpt>
<trkpt lat="46.0326510" lon="10.3255590">
	<ele>664.60</ele>
	<time>2025-07-30T08:44:17.000Z</time>
</trkpt>
<trkpt lat="46.0326500" lon="10.3255630">
	<ele>664.40</ele>
	<time>2025-07-30T08:44:18.000Z</time>
</trkpt>
<trkpt lat="46.0326630" lon="10.3255530">
	<ele>664.40</ele>
	<time>2025-07-30T08:44:19.000Z</time>
</trkpt>
<trkpt lat="46.0326750" lon="10.3255420">
	<ele>664.40</ele>
	<time>2025-07-30T08:44:20.000Z</time>
</trkpt>
<trkpt lat="46.0326920" lon="10.3255320">
	<ele>664.40</ele>
	<time>2025-07-30T08:44:21.000Z</time>
</trkpt>
<trkpt lat="46.0327010" lon="10.3255240">
	<ele>664.40</ele>
	<time>2025-07-30T08:44:22.000Z</time>
</trkpt>
<trkpt lat="46.0327140" lon="10.3255170">
	<ele>664.60</ele>
	<time>2025-07-30T08:44:23.000Z</time>
</trkpt>
<trkpt lat="46.0327270" lon="10.3255100">
	<ele>664.60</ele>
	<time>2025-07-30T08:44:24.000Z</time>
</trkpt>
<trkpt lat="46.0327450" lon="10.3255120">
	<ele>664.80</ele>
	<time>2025-07-30T08:44:25.000Z</time>
</trkpt>
<trkpt lat="46.0327550" lon="10.3255170">
	<ele>664.80</ele>
	<time>2025-07-30T08:44:26.000Z</time>
</trkpt>
<trkpt lat="46.0327470" lon="10.3255310">
	<ele>664.80</ele>
	<time>2025-07-30T08:44:27.000Z</time>
</trkpt>
<trkpt lat="46.0327260" lon="10.3255460">
	<ele>664.80</ele>
	<time>2025-07-30T08:44:28.000Z</time>
</trkpt>
<trkpt lat="46.0327070" lon="10.3255570">
	<ele>664.80</ele>
	<time>2025-07-30T08:44:29.000Z</time>
</trkpt>
<trkpt lat="46.0327090" lon="10.3255730">
	<ele>664.40</ele>
	<time>2025-07-30T08:44:30.000Z</time>
</trkpt>
<trkpt lat="46.0327070" lon="10.3255840">
	<ele>664.00</ele>
	<time>2025-07-30T08:44:31.000Z</time>
</trkpt>
<trkpt lat="46.0327040" lon="10.3255940">
	<ele>663.80</ele>
	<time>2025-07-30T08:44:32.000Z</time>
</trkpt>
<trkpt lat="46.0327050" lon="10.3255980">
	<ele>663.40</ele>
	<time>2025-07-30T08:44:33.000Z</time>
</trkpt>
<trkpt lat="46.0327040" lon="10.3255830">
	<ele>663.40</ele>
	<time>2025-07-30T08:44:34.000Z</time>
</trkpt>
<trkpt lat="46.0327020" lon="10.3255780">
	<ele>663.20</ele>
	<time>2025-07-30T08:44:35.000Z</time>
</trkpt>
<trkpt lat="46.0326980" lon="10.3255810">
	<ele>663.40</ele>
	<time>2025-07-30T08:44:36.000Z</time>
</trkpt>
<trkpt lat="46.0326970" lon="10.3255780">
	<ele>663.40</ele>
	<time>2025-07-30T08:44:37.000Z</time>
</trkpt>
<trkpt lat="46.0327020" lon="10.3255780">
	<ele>663.40</ele>
	<time>2025-07-30T08:44:38.000Z</time>
</trkpt>
<trkpt lat="46.0327060" lon="10.3255880">
	<ele>663.40</ele>
	<time>2025-07-30T08:44:39.000Z</time>
</trkpt>
<trkpt lat="46.0327090" lon="10.3255910">
	<ele>663.40</ele>
	<time>2025-07-30T08:44:40.000Z</time>
</trkpt>
<trkpt lat="46.0327090" lon="10.3255990">
	<ele>663.40</ele>
	<time>2025-07-30T08:44:41.000Z</time>
</trkpt>
<trkpt lat="46.0327070" lon="10.3256970">
	<ele>663.00</ele>
	<time>2025-07-30T08:44:42.000Z</time>
</trkpt>
<trkpt lat="46.0327040" lon="10.3257890">
	<ele>662.80</ele>
	<time>2025-07-30T08:44:43.000Z</time>
</trkpt>
<trkpt lat="46.0327030" lon="10.3258530">
	<ele>662.60</ele>
	<time>2025-07-30T08:44:44.000Z</time>
</trkpt>
<trkpt lat="46.0327060" lon="10.3259350">
	<ele>662.40</ele>
	<time>2025-07-30T08:44:45.000Z</time>
</trkpt>
<trkpt lat="46.0327100" lon="10.3260790">
	<ele>662.40</ele>
	<time>2025-07-30T08:44:46.000Z</time>
</trkpt>
<trkpt lat="46.0327070" lon="10.3261350">
	<ele>662.00</ele>
	<time>2025-07-30T08:44:47.000Z</time>
</trkpt>
<trkpt lat="46.0327060" lon="10.3262030">
	<ele>662.00</ele>
	<time>2025-07-30T08:44:48.000Z</time>
</trkpt>
<trkpt lat="46.0326980" lon="10.3262490">
	<ele>661.80</ele>
	<time>2025-07-30T08:44:49.000Z</time>
</trkpt>
<trkpt lat="46.0326950" lon="10.3262500">
	<ele>661.80</ele>
	<time>2025-07-30T08:44:50.000Z</time>
</trkpt>
<trkpt lat="46.0326980" lon="10.3261600">
	<ele>661.60</ele>
	<time>2025-07-30T08:44:51.000Z</time>
</trkpt>
<trkpt lat="46.0326920" lon="10.3261120">
	<ele>661.60</ele>
	<time>2025-07-30T08:44:52.000Z</time>
</trkpt>
<trkpt lat="46.0326900" lon="10.3261060">
	<ele>661.80</ele>
	<time>2025-07-30T08:44:53.000Z</time>
</trkpt>
<trkpt lat="46.0326950" lon="10.3260630">
	<ele>661.80</ele>
	<time>2025-07-30T08:44:54.000Z</time>
</trkpt>
<trkpt lat="46.0326960" lon="10.3260280">
	<ele>662.00</ele>
	<time>2025-07-30T08:44:55.000Z</time>
</trkpt>
<trkpt lat="46.0326960" lon="10.3259910">
	<ele>662.00</ele>
	<time>2025-07-30T08:44:56.000Z</time>
</trkpt>
<trkpt lat="46.0326960" lon="10.3259720">
	<ele>662.00</ele>
	<time>2025-07-30T08:44:57.000Z</time>
</trkpt>
<trkpt lat="46.0326950" lon="10.3259540">
	<ele>662.00</ele>
	<time>2025-07-30T08:44:58.000Z</time>
</trkpt>
<trkpt lat="46.0326900" lon="10.3259370">
	<ele>662.00</ele>
	<time>2025-07-30T08:44:59.000Z</time>
</trkpt>
<trkpt lat="46.0326850" lon="10.3259390">
	<ele>661.60</ele>
	<time>2025-07-30T08:45:00.000Z</time>
</trkpt>
<trkpt lat="46.0326830" lon="10.3259410">
	<ele>661.20</ele>
	<time>2025-07-30T08:45:01.000Z</time>
</trkpt>
<trkpt lat="46.0326860" lon="10.3259350">
	<ele>661.00</ele>
	<time>2025-07-30T08:45:02.000Z</time>
</trkpt>
<trkpt lat="46.0326950" lon="10.3259300">
	<ele>660.80</ele>
	<time>2025-07-30T08:45:03.000Z</time>
</trkpt>
<trkpt lat="46.0327000" lon="10.3259280">
	<ele>660.60</ele>
	<time>2025-07-30T08:45:04.000Z</time>
</trkpt>
<trkpt lat="46.0327030" lon="10.3259320">
	<ele>660.20</ele>
	<time>2025-07-30T08:45:05.000Z</time>
</trkpt>
<trkpt lat="46.0327020" lon="10.3259350">
	<ele>660.00</ele>
	<time>2025-07-30T08:45:06.000Z</time>
</trkpt>
<trkpt lat="46.0326980" lon="10.3259370">
	<ele>659.60</ele>
	<time>2025-07-30T08:45:07.000Z</time>
</trkpt>
<trkpt lat="46.0326950" lon="10.3259420">
	<ele>659.60</ele>
	<time>2025-07-30T08:45:08.000Z</time>
</trkpt>
<trkpt lat="46.0326900" lon="10.3259630">
	<ele>659.20</ele>
	<time>2025-07-30T08:45:09.000Z</time>
</trkpt>
<trkpt lat="46.0326800" lon="10.3259750">
	<ele>659.00</ele>
	<time>2025-07-30T08:45:10.000Z</time>
</trkpt>
<trkpt lat="46.0326730" lon="10.3259920">
	<ele>658.80</ele>
	<time>2025-07-30T08:45:11.000Z</time>
</trkpt>
<trkpt lat="46.0326710" lon="10.3260100">
	<ele>658.60</ele>
	<time>2025-07-30T08:45:12.000Z</time>
</trkpt>
<trkpt lat="46.0326690" lon="10.3260070">
	<ele>658.60</ele>
	<time>2025-07-30T08:45:13.000Z</time>
</trkpt>
<trkpt lat="46.0326660" lon="10.3260070">
	<ele>658.40</ele>
	<time>2025-07-30T08:45:14.000Z</time>
</trkpt>
<trkpt lat="46.0326550" lon="10.3260160">
	<ele>658.20</ele>
	<time>2025-07-30T08:45:15.000Z</time>
</trkpt>
<trkpt lat="46.0326450" lon="10.3260250">
	<ele>658.20</ele>
	<time>2025-07-30T08:45:16.000Z</time>
</trkpt>
<trkpt lat="46.0326430" lon="10.3260270">
	<ele>658.00</ele>
	<time>2025-07-30T08:45:17.000Z</time>
</trkpt>
<trkpt lat="46.0326410" lon="10.3260330">
	<ele>657.80</ele>
	<time>2025-07-30T08:45:18.000Z</time>
</trkpt>
<trkpt lat="46.0326370" lon="10.3260420">
	<ele>657.60</ele>
	<time>2025-07-30T08:45:19.000Z</time>
</trkpt>
<trkpt lat="46.0326370" lon="10.3260490">
	<ele>657.60</ele>
	<time>2025-07-30T08:45:20.000Z</time>
</trkpt>
<trkpt lat="46.0326380" lon="10.3260500">
	<ele>657.60</ele>
	<time>2025-07-30T08:45:21.000Z</time>
</trkpt>
<trkpt lat="46.0326400" lon="10.3260420">
	<ele>657.60</ele>
	<time>2025-07-30T08:45:22.000Z</time>
</trkpt>
<trkpt lat="46.0326420" lon="10.3260410">
	<ele>657.60</ele>
	<time>2025-07-30T08:45:23.000Z</time>
</trkpt>
<trkpt lat="46.0326400" lon="10.3260350">
	<ele>657.60</ele>
	<time>2025-07-30T08:45:24.000Z</time>
</trkpt>
<trkpt lat="46.0326400" lon="10.3260350">
	<ele>657.40</ele>
	<time>2025-07-30T08:45:25.000Z</time>
</trkpt>
<trkpt lat="46.0326400" lon="10.3260360">
	<ele>657.40</ele>
	<time>2025-07-30T08:45:26.000Z</time>
</trkpt>
<trkpt lat="46.0326420" lon="10.3260250">
	<ele>657.40</ele>
	<time>2025-07-30T08:45:27.000Z</time>
</trkpt>
<trkpt lat="46.0326460" lon="10.3260150">
	<ele>657.40</ele>
	<time>2025-07-30T08:45:28.000Z</time>
</trkpt>
<trkpt lat="46.0326490" lon="10.3260130">
	<ele>657.40</ele>
	<time>2025-07-30T08:45:29.000Z</time>
</trkpt>
<trkpt lat="46.0326500" lon="10.3260120">
	<ele>657.40</ele>
	<time>2025-07-30T08:45:30.000Z</time>
</trkpt>
<trkpt lat="46.0326410" lon="10.3260000">
	<ele>657.40</ele>
	<time>2025-07-30T08:45:31.000Z</time>
</trkpt>
<trkpt lat="46.0326410" lon="10.3259990">
	<ele>657.20</ele>
	<time>2025-07-30T08:45:32.000Z</time>
</trkpt>
<trkpt lat="46.0326350" lon="10.3259970">
	<ele>657.20</ele>
	<time>2025-07-30T08:45:33.000Z</time>
</trkpt>
<trkpt lat="46.0326370" lon="10.3259930">
	<ele>657.00</ele>
	<time>2025-07-30T08:45:34.000Z</time>
</trkpt>
<trkpt lat="46.0326380" lon="10.3259930">
	<ele>657.00</ele>
	<time>2025-07-30T08:45:35.000Z</time>
</trkpt>
<trkpt lat="46.0326360" lon="10.3259930">
	<ele>657.00</ele>
	<time>2025-07-30T08:45:36.000Z</time>
</trkpt>
<trkpt lat="46.0326360" lon="10.3259910">
	<ele>657.00</ele>
	<time>2025-07-30T08:45:37.000Z</time>
</trkpt>
<trkpt lat="46.0326340" lon="10.3259920">
	<ele>657.00</ele>
	<time>2025-07-30T08:45:38.000Z</time>
</trkpt>
<trkpt lat="46.0326320" lon="10.3259900">
	<ele>657.00</ele>
	<time>2025-07-30T08:45:39.000Z</time>
</trkpt>
<trkpt lat="46.0326290" lon="10.3259870">
	<ele>657.00</ele>
	<time>2025-07-30T08:45:40.000Z</time>
</trkpt>
<trkpt lat="46.0326310" lon="10.3259880">
	<ele>657.00</ele>
	<time>2025-07-30T08:45:41.000Z</time>
</trkpt>
<trkpt lat="46.0326320" lon="10.3259880">
	<ele>657.00</ele>
	<time>2025-07-30T08:45:42.000Z</time>
</trkpt>
<trkpt lat="46.0326320" lon="10.3259880">
	<ele>657.00</ele>
	<time>2025-07-30T08:45:43.000Z</time>
</trkpt>
<trkpt lat="46.0326320" lon="10.3259880">
	<ele>657.00</ele>
	<time>2025-07-30T08:45:44.000Z</time>
</trkpt>
<trkpt lat="46.0326320" lon="10.3259880">
	<ele>657.00</ele>
	<time>2025-07-30T08:45:45.000Z</time>
</trkpt>
<trkpt lat="46.0326320" lon="10.3259880">
	<ele>657.20</ele>
	<time>2025-07-30T08:45:46.000Z</time>
</trkpt>
<trkpt lat="46.0326320" lon="10.3259880">
	<ele>657.20</ele>
	<time>2025-07-30T08:45:47.000Z</time>
</trkpt>
<trkpt lat="46.0326320" lon="10.3259880">
	<ele>657.20</ele>
	<time>2025-07-30T08:45:48.000Z</time>
</trkpt>
<trkpt lat="46.0326320" lon="10.3259880">
	<ele>657.20</ele>
	<time>2025-07-30T08:45:49.000Z</time>
</trkpt>
<trkpt lat="46.0326320" lon="10.3259880">
	<ele>657.20</ele>
	<time>2025-07-30T08:45:50.000Z</time>
</trkpt>
<trkpt lat="46.0326320" lon="10.3259880">
	<ele>657.20</ele>
	<time>2025-07-30T08:45:51.000Z</time>
</trkpt>
<trkpt lat="46.0326320" lon="10.3259880">
	<ele>657.20</ele>
	<time>2025-07-30T08:45:52.000Z</time>
</trkpt>
<trkpt lat="46.0326320" lon="10.3259880">
	<ele>657.20</ele>
	<time>2025-07-30T08:45:53.000Z</time>
</trkpt>
<trkpt lat="46.0326320" lon="10.3259880">
	<ele>657.20</ele>
	<time>2025-07-30T08:45:54.000Z</time>
</trkpt>
<trkpt lat="46.0326320" lon="10.3259880">
	<ele>657.20</ele>
	<time>2025-07-30T08:45:55.000Z</time>
</trkpt>
<trkpt lat="46.0326320" lon="10.3259880">
	<ele>657.20</ele>
	<time>2025-07-30T08:45:56.000Z</time>
</trkpt>
<trkpt lat="46.0326320" lon="10.3259890">
	<ele>657.20</ele>
	<time>2025-07-30T08:45:57.000Z</time>
</trkpt>
<trkpt lat="46.0326320" lon="10.3259890">
	<ele>657.20</ele>
	<time>2025-07-30T08:45:58.000Z</time>
</trkpt>
<trkpt lat="46.0326320" lon="10.3259900">
	<ele>657.00</ele>
	<time>2025-07-30T08:45:59.000Z</time>
</trkpt>
<trkpt lat="46.0326320" lon="10.3259900">
	<ele>657.00</ele>
	<time>2025-07-30T08:46:00.000Z</time>
</trkpt>
<trkpt lat="46.0326310" lon="10.3259910">
	<ele>656.80</ele>
	<time>2025-07-30T08:46:01.000Z</time>
</trkpt>
<trkpt lat="46.0326310" lon="10.3259910">
	<ele>656.60</ele>
	<time>2025-07-30T08:46:02.000Z</time>
</trkpt>
<trkpt lat="46.0326300" lon="10.3259910">
	<ele>656.40</ele>
	<time>2025-07-30T08:46:03.000Z</time>
</trkpt>
<trkpt lat="46.0326300" lon="10.3259910">
	<ele>656.20</ele>
	<time>2025-07-30T08:46:04.000Z</time>
</trkpt>
<trkpt lat="46.0326300" lon="10.3259910">
	<ele>656.00</ele>
	<time>2025-07-30T08:46:05.000Z</time>
</trkpt>
<trkpt lat="46.0326290" lon="10.3259910">
	<ele>655.80</ele>
	<time>2025-07-30T08:46:06.000Z</time>
</trkpt>
<trkpt lat="46.0326290" lon="10.3259910">
	<ele>655.60</ele>
	<time>2025-07-30T08:46:07.000Z</time>
</trkpt>
<trkpt lat="46.0326250" lon="10.3259910">
	<ele>655.60</ele>
	<time>2025-07-30T08:46:08.000Z</time>
</trkpt>
<trkpt lat="46.0326230" lon="10.3259920">
	<ele>655.40</ele>
	<time>2025-07-30T08:46:09.000Z</time>
</trkpt>
<trkpt lat="46.0326210" lon="10.3259930">
	<ele>655.20</ele>
	<time>2025-07-30T08:46:10.000Z</time>
</trkpt>
<trkpt lat="46.0326200" lon="10.3259950">
	<ele>655.00</ele>
	<time>2025-07-30T08:46:11.000Z</time>
</trkpt>
<trkpt lat="46.0326190" lon="10.3259980">
	<ele>655.00</ele>
	<time>2025-07-30T08:46:12.000Z</time>
</trkpt>
<trkpt lat="46.0326190" lon="10.3260020">
	<ele>655.00</ele>
	<time>2025-07-30T08:46:13.000Z</time>
</trkpt>
<trkpt lat="46.0326170" lon="10.3260040">
	<ele>655.00</ele>
	<time>2025-07-30T08:46:14.000Z</time>
</trkpt>
<trkpt lat="46.0326160" lon="10.3260070">
	<ele>655.00</ele>
	<time>2025-07-30T08:46:15.000Z</time>
</trkpt>
<trkpt lat="46.0326150" lon="10.3260090">
	<ele>655.00</ele>
	<time>2025-07-30T08:46:16.000Z</time>
</trkpt>
<trkpt lat="46.0326140" lon="10.3260100">
	<ele>654.80</ele>
	<time>2025-07-30T08:46:17.000Z</time>
</trkpt>
<trkpt lat="46.0326140" lon="10.3260110">
	<ele>654.80</ele>
	<time>2025-07-30T08:46:18.000Z</time>
</trkpt>
<trkpt lat="46.0326080" lon="10.3260120">
	<ele>654.60</ele>
	<time>2025-07-30T08:46:19.000Z</time>
</trkpt>
<trkpt lat="46.0326050" lon="10.3260140">
	<ele>654.40</ele>
	<time>2025-07-30T08:46:20.000Z</time>
</trkpt>
<trkpt lat="46.0326020" lon="10.3260150">
	<ele>654.40</ele>
	<time>2025-07-30T08:46:21.000Z</time>
</trkpt>
<trkpt lat="46.0325990" lon="10.3260150">
	<ele>654.40</ele>
	<time>2025-07-30T08:46:22.000Z</time>
</trkpt>
<trkpt lat="46.0325980" lon="10.3260180">
	<ele>654.40</ele>
	<time>2025-07-30T08:46:23.000Z</time>
</trkpt>
<trkpt lat="46.0325980" lon="10.3260280">
	<ele>654.40</ele>
	<time>2025-07-30T08:46:24.000Z</time>
</trkpt>
<trkpt lat="46.0325970" lon="10.3260310">
	<ele>654.40</ele>
	<time>2025-07-30T08:46:25.000Z</time>
</trkpt>
<trkpt lat="46.0325960" lon="10.3260340">
	<ele>654.40</ele>
	<time>2025-07-30T08:46:26.000Z</time>
</trkpt>
<trkpt lat="46.0325950" lon="10.3260370">
	<ele>654.20</ele>
	<time>2025-07-30T08:46:27.000Z</time>
</trkpt>
<trkpt lat="46.0325950" lon="10.3260430">
	<ele>654.20</ele>
	<time>2025-07-30T08:46:28.000Z</time>
</trkpt>
<trkpt lat="46.0325950" lon="10.3260490">
	<ele>654.00</ele>
	<time>2025-07-30T08:46:29.000Z</time>
</trkpt>
<trkpt lat="46.0325950" lon="10.3260510">
	<ele>654.00</ele>
	<time>2025-07-30T08:46:30.000Z</time>
</trkpt>
<trkpt lat="46.0325950" lon="10.3260590">
	<ele>653.80</ele>
	<time>2025-07-30T08:46:31.000Z</time>
</trkpt>
<trkpt lat="46.0325920" lon="10.3260880">
	<ele>653.80</ele>
	<time>2025-07-30T08:46:32.000Z</time>
</trkpt>
<trkpt lat="46.0325960" lon="10.3261100">
	<ele>653.60</ele>
	<time>2025-07-30T08:46:33.000Z</time>
</trkpt>
<trkpt lat="46.0326010" lon="10.3261360">
	<ele>653.60</ele>
	<time>2025-07-30T08:46:34.000Z</time>
</trkpt>
<trkpt lat="46.0326040" lon="10.3261650">
	<ele>653.40</ele>
	<time>2025-07-30T08:46:35.000Z</time>
</trkpt>
<trkpt lat="46.0326080" lon="10.3261920">
	<ele>653.20</ele>
	<time>2025-07-30T08:46:36.000Z</time>
</trkpt>
<trkpt lat="46.0326110" lon="10.3262270">
	<ele>653.20</ele>
	<time>2025-07-30T08:46:37.000Z</time>
</trkpt>
<trkpt lat="46.0326610" lon="10.3262380">
	<ele>653.00</ele>
	<time>2025-07-30T08:46:38.000Z</time>
</trkpt>
<trkpt lat="46.0327080" lon="10.3262340">
	<ele>653.00</ele>
	<time>2025-07-30T08:46:39.000Z</time>
</trkpt>
<trkpt lat="46.0327400" lon="10.3262370">
	<ele>652.80</ele>
	<time>2025-07-30T08:46:40.000Z</time>
</trkpt>
<trkpt lat="46.0327880" lon="10.3262270">
	<ele>652.80</ele>
	<time>2025-07-30T08:46:41.000Z</time>
</trkpt>
<trkpt lat="46.0327990" lon="10.3262400">
	<ele>652.60</ele>
	<time>2025-07-30T08:46:42.000Z</time>
</trkpt>
<trkpt lat="46.0327870" lon="10.3262570">
	<ele>652.40</ele>
	<time>2025-07-30T08:46:43.000Z</time>
</trkpt>
<trkpt lat="46.0327380" lon="10.3262790">
	<ele>652.40</ele>
	<time>2025-07-30T08:46:44.000Z</time>
</trkpt>
<trkpt lat="46.0327400" lon="10.3263060">
	<ele>652.20</ele>
	<time>2025-07-30T08:46:45.000Z</time>
</trkpt>
<trkpt lat="46.0327600" lon="10.3263290">
	<ele>652.20</ele>
	<time>2025-07-30T08:46:46.000Z</time>
</trkpt>
<trkpt lat="46.0327640" lon="10.3263590">
	<ele>652.00</ele>
	<time>2025-07-30T08:46:47.000Z</time>
</trkpt>
<trkpt lat="46.0327530" lon="10.3264070">
	<ele>652.00</ele>
	<time>2025-07-30T08:46:48.000Z</time>
</trkpt>
<trkpt lat="46.0327670" lon="10.3264200">
	<ele>652.00</ele>
	<time>2025-07-30T08:46:49.000Z</time>
</trkpt>
<trkpt lat="46.0327590" lon="10.3264470">
	<ele>652.00</ele>
	<time>2025-07-30T08:46:50.000Z</time>
</trkpt>
<trkpt lat="46.0327410" lon="10.3264840">
	<ele>652.00</ele>
	<time>2025-07-30T08:46:51.000Z</time>
</trkpt>
<trkpt lat="46.0327240" lon="10.3265180">
	<ele>652.00</ele>
	<time>2025-07-30T08:46:52.000Z</time>
</trkpt>
<trkpt lat="46.0327070" lon="10.3265490">
	<ele>651.80</ele>
	<time>2025-07-30T08:46:53.000Z</time>
</trkpt>
<trkpt lat="46.0326890" lon="10.3265900">
	<ele>651.80</ele>
	<time>2025-07-30T08:46:54.000Z</time>
</trkpt>
<trkpt lat="46.0326790" lon="10.3266220">
	<ele>651.80</ele>
	<time>2025-07-30T08:46:55.000Z</time>
</trkpt>
<trkpt lat="46.0326700" lon="10.3266160">
	<ele>651.60</ele>
	<time>2025-07-30T08:46:56.000Z</time>
</trkpt>
<trkpt lat="46.0326680" lon="10.3266180">
	<ele>651.60</ele>
	<time>2025-07-30T08:46:57.000Z</time>
</trkpt>
<trkpt lat="46.0326500" lon="10.3266250">
	<ele>651.60</ele>
	<time>2025-07-30T08:46:58.000Z</time>
</trkpt>
<trkpt lat="46.0326420" lon="10.3266330">
	<ele>651.60</ele>
	<time>2025-07-30T08:46:59.000Z</time>
</trkpt>
<trkpt lat="46.0326300" lon="10.3266440">
	<ele>651.60</ele>
	<time>2025-07-30T08:47:00.000Z</time>
</trkpt>
<trkpt lat="46.0326120" lon="10.3266580">
	<ele>651.60</ele>
	<time>2025-07-30T08:47:01.000Z</time>
</trkpt>
<trkpt lat="46.0325800" lon="10.3266890">
	<ele>651.40</ele>
	<time>2025-07-30T08:47:02.000Z</time>
</trkpt>
<trkpt lat="46.0325370" lon="10.3267000">
	<ele>651.40</ele>
	<time>2025-07-30T08:47:03.000Z</time>
</trkpt>
<trkpt lat="46.0325180" lon="10.3267040">
	<ele>651.40</ele>
	<time>2025-07-30T08:47:04.000Z</time>
</trkpt>
<trkpt lat="46.0324980" lon="10.3266830">
	<ele>651.40</ele>
	<time>2025-07-30T08:47:05.000Z</time>
</trkpt>
<trkpt lat="46.0324740" lon="10.3266770">
	<ele>651.40</ele>
	<time>2025-07-30T08:47:06.000Z</time>
</trkpt>
<trkpt lat="46.0324520" lon="10.3266720">
	<ele>651.40</ele>
	<time>2025-07-30T08:47:07.000Z</time>
</trkpt>
<trkpt lat="46.0324300" lon="10.3266680">
	<ele>651.40</ele>
	<time>2025-07-30T08:47:08.000Z</time>
</trkpt>
<trkpt lat="46.0324160" lon="10.3266690">
	<ele>651.40</ele>
	<time>2025-07-30T08:47:09.000Z</time>
</trkpt>
<trkpt lat="46.0324140" lon="10.3266460">
	<ele>651.40</ele>
	<time>2025-07-30T08:47:10.000Z</time>
</trkpt>
<trkpt lat="46.0324310" lon="10.3266400">
	<ele>651.40</ele>
	<time>2025-07-30T08:47:11.000Z</time>
</trkpt>
<trkpt lat="46.0324610" lon="10.3266460">
	<ele>651.40</ele>
	<time>2025-07-30T08:47:12.000Z</time>
</trkpt>
<trkpt lat="46.0325020" lon="10.3266530">
	<ele>651.40</ele>
	<time>2025-07-30T08:47:13.000Z</time>
</trkpt>
<trkpt lat="46.0325100" lon="10.3266760">
	<ele>651.40</ele>
	<time>2025-07-30T08:47:14.000Z</time>
</trkpt>
<trkpt lat="46.0325180" lon="10.3266920">
	<ele>651.20</ele>
	<time>2025-07-30T08:47:15.000Z</time>
</trkpt>
<trkpt lat="46.0325260" lon="10.3267030">
	<ele>651.20</ele>
	<time>2025-07-30T08:47:16.000Z</time>
</trkpt>
<trkpt lat="46.0325340" lon="10.3267200">
	<ele>651.20</ele>
	<time>2025-07-30T08:47:17.000Z</time>
</trkpt>
<trkpt lat="46.0325470" lon="10.3267290">
	<ele>651.00</ele>
	<time>2025-07-30T08:47:18.000Z</time>
</trkpt>
<trkpt lat="46.0325610" lon="10.3267330">
	<ele>651.00</ele>
	<time>2025-07-30T08:47:19.000Z</time>
</trkpt>
<trkpt lat="46.0325720" lon="10.3267370">
	<ele>651.00</ele>
	<time>2025-07-30T08:47:20.000Z</time>
</trkpt>
<trkpt lat="46.0325920" lon="10.3267220">
	<ele>651.00</ele>
	<time>2025-07-30T08:47:21.000Z</time>
</trkpt>
<trkpt lat="46.0326120" lon="10.3267050">
	<ele>651.00</ele>
	<time>2025-07-30T08:47:22.000Z</time>
</trkpt>
<trkpt lat="46.0326150" lon="10.3267020">
	<ele>650.80</ele>
	<time>2025-07-30T08:47:23.000Z</time>
</trkpt>
<trkpt lat="46.0326220" lon="10.3267030">
	<ele>650.80</ele>
	<time>2025-07-30T08:47:24.000Z</time>
</trkpt>
<trkpt lat="46.0326300" lon="10.3267100">
	<ele>650.80</ele>
	<time>2025-07-30T08:47:25.000Z</time>
</trkpt>
<trkpt lat="46.0326320" lon="10.3267170">
	<ele>650.60</ele>
	<time>2025-07-30T08:47:26.000Z</time>
</trkpt>
<trkpt lat="46.0326280" lon="10.3267190">
	<ele>650.40</ele>
	<time>2025-07-30T08:47:27.000Z</time>
</trkpt>
<trkpt lat="46.0326320" lon="10.3267130">
	<ele>650.40</ele>
	<time>2025-07-30T08:47:28.000Z</time>
</trkpt>
<trkpt lat="46.0326380" lon="10.3267120">
	<ele>650.20</ele>
	<time>2025-07-30T08:47:29.000Z</time>
</trkpt>
<trkpt lat="46.0326440" lon="10.3267110">
	<ele>650.20</ele>
	<time>2025-07-30T08:47:30.000Z</time>
</trkpt>
<trkpt lat="46.0326450" lon="10.3267110">
	<ele>650.40</ele>
	<time>2025-07-30T08:47:31.000Z</time>
</trkpt>
<trkpt lat="46.0326530" lon="10.3267100">
	<ele>650.40</ele>
	<time>2025-07-30T08:47:32.000Z</time>
</trkpt>
<trkpt lat="46.0326550" lon="10.3267100">
	<ele>650.40</ele>
	<time>2025-07-30T08:47:33.000Z</time>
</trkpt>
<trkpt lat="46.0326570" lon="10.3267090">
	<ele>650.60</ele>
	<time>2025-07-30T08:47:34.000Z</time>
</trkpt>
<trkpt lat="46.0326610" lon="10.3267100">
	<ele>650.60</ele>
	<time>2025-07-30T08:47:35.000Z</time>
</trkpt>
<trkpt lat="46.0326680" lon="10.3267080">
	<ele>650.60</ele>
	<time>2025-07-30T08:47:36.000Z</time>
</trkpt>
<trkpt lat="46.0326710" lon="10.3267070">
	<ele>650.60</ele>
	<time>2025-07-30T08:47:37.000Z</time>
</trkpt>
<trkpt lat="46.0326760" lon="10.3267130">
	<ele>650.60</ele>
	<time>2025-07-30T08:47:38.000Z</time>
</trkpt>
<trkpt lat="46.0326780" lon="10.3267190">
	<ele>650.60</ele>
	<time>2025-07-30T08:47:39.000Z</time>
</trkpt>
<trkpt lat="46.0326800" lon="10.3267220">
	<ele>650.20</ele>
	<time>2025-07-30T08:47:40.000Z</time>
</trkpt>
<trkpt lat="46.0326770" lon="10.3267250">
	<ele>650.00</ele>
	<time>2025-07-30T08:47:41.000Z</time>
</trkpt>
<trkpt lat="46.0326670" lon="10.3267310">
	<ele>649.80</ele>
	<time>2025-07-30T08:47:42.000Z</time>
</trkpt>
<trkpt lat="46.0326660" lon="10.3267350">
	<ele>649.80</ele>
	<time>2025-07-30T08:47:43.000Z</time>
</trkpt>
<trkpt lat="46.0326670" lon="10.3267340">
	<ele>649.80</ele>
	<time>2025-07-30T08:47:44.000Z</time>
</trkpt>
<trkpt lat="46.0326680" lon="10.3267330">
	<ele>649.80</ele>
	<time>2025-07-30T08:47:45.000Z</time>
</trkpt>
<trkpt lat="46.0326640" lon="10.3267390">
	<ele>649.80</ele>
	<time>2025-07-30T08:47:46.000Z</time>
</trkpt>
<trkpt lat="46.0326650" lon="10.3267390">
	<ele>649.80</ele>
	<time>2025-07-30T08:47:47.000Z</time>
</trkpt>
<trkpt lat="46.0326630" lon="10.3267470">
	<ele>649.80</ele>
	<time>2025-07-30T08:47:48.000Z</time>
</trkpt>
<trkpt lat="46.0326640" lon="10.3267680">
	<ele>649.60</ele>
	<time>2025-07-30T08:47:49.000Z</time>
</trkpt>
<trkpt lat="46.0326690" lon="10.3267750">
	<ele>649.60</ele>
	<time>2025-07-30T08:47:50.000Z</time>
</trkpt>
<trkpt lat="46.0326690" lon="10.3267770">
	<ele>649.60</ele>
	<time>2025-07-30T08:47:51.000Z</time>
</trkpt>
<trkpt lat="46.0326720" lon="10.3267730">
	<ele>649.60</ele>
	<time>2025-07-30T08:47:52.000Z</time>
</trkpt>
<trkpt lat="46.0326780" lon="10.3267760">
	<ele>649.60</ele>
	<time>2025-07-30T08:47:53.000Z</time>
</trkpt>
<trkpt lat="46.0326870" lon="10.3267760">
	<ele>649.60</ele>
	<time>2025-07-30T08:47:54.000Z</time>
</trkpt>
<trkpt lat="46.0327000" lon="10.3267740">
	<ele>649.60</ele>
	<time>2025-07-30T08:47:55.000Z</time>
</trkpt>
<trkpt lat="46.0327070" lon="10.3267840">
	<ele>649.80</ele>
	<time>2025-07-30T08:47:56.000Z</time>
</trkpt>
<trkpt lat="46.0327070" lon="10.3267930">
	<ele>649.80</ele>
	<time>2025-07-30T08:47:57.000Z</time>
</trkpt>
<trkpt lat="46.0327050" lon="10.3267980">
	<ele>649.80</ele>
	<time>2025-07-30T08:47:58.000Z</time>
</trkpt>
<trkpt lat="46.0327060" lon="10.3268030">
	<ele>650.40</ele>
	<time>2025-07-30T08:47:59.000Z</time>
</trkpt>
<trkpt lat="46.0327070" lon="10.3268030">
	<ele>650.60</ele>
	<time>2025-07-30T08:48:00.000Z</time>
</trkpt>
<trkpt lat="46.0327050" lon="10.3268070">
	<ele>650.80</ele>
	<time>2025-07-30T08:48:01.000Z</time>
</trkpt>
<trkpt lat="46.0327030" lon="10.3268130">
	<ele>650.80</ele>
	<time>2025-07-30T08:48:02.000Z</time>
</trkpt>
<trkpt lat="46.0326970" lon="10.3268250">
	<ele>650.80</ele>
	<time>2025-07-30T08:48:03.000Z</time>
</trkpt>
<trkpt lat="46.0326970" lon="10.3268240">
	<ele>650.80</ele>
	<time>2025-07-30T08:48:04.000Z</time>
</trkpt>
<trkpt lat="46.0327020" lon="10.3268240">
	<ele>650.60</ele>
	<time>2025-07-30T08:48:05.000Z</time>
</trkpt>
<trkpt lat="46.0327090" lon="10.3268230">
	<ele>650.60</ele>
	<time>2025-07-30T08:48:06.000Z</time>
</trkpt>
<trkpt lat="46.0327090" lon="10.3268280">
	<ele>650.40</ele>
	<time>2025-07-30T08:48:07.000Z</time>
</trkpt>
<trkpt lat="46.0327150" lon="10.3268290">
	<ele>650.40</ele>
	<time>2025-07-30T08:48:08.000Z</time>
</trkpt>
<trkpt lat="46.0327230" lon="10.3268310">
	<ele>650.40</ele>
	<time>2025-07-30T08:48:09.000Z</time>
</trkpt>
<trkpt lat="46.0327300" lon="10.3268230">
	<ele>650.40</ele>
	<time>2025-07-30T08:48:10.000Z</time>
</trkpt>
<trkpt lat="46.0327370" lon="10.3268230">
	<ele>650.40</ele>
	<time>2025-07-30T08:48:11.000Z</time>
</trkpt>
<trkpt lat="46.0327450" lon="10.3268220">
	<ele>650.40</ele>
	<time>2025-07-30T08:48:12.000Z</time>
</trkpt>
<trkpt lat="46.0327580" lon="10.3268180">
	<ele>650.40</ele>
	<time>2025-07-30T08:48:13.000Z</time>
</trkpt>
<trkpt lat="46.0327660" lon="10.3268080">
	<ele>650.40</ele>
	<time>2025-07-30T08:48:14.000Z</time>
</trkpt>
<trkpt lat="46.0327670" lon="10.3267970">
	<ele>650.40</ele>
	<time>2025-07-30T08:48:15.000Z</time>
</trkpt>
<trkpt lat="46.0327640" lon="10.3267870">
	<ele>650.40</ele>
	<time>2025-07-30T08:48:16.000Z</time>
</trkpt>
<trkpt lat="46.0327660" lon="10.3267810">
	<ele>650.40</ele>
	<time>2025-07-30T08:48:17.000Z</time>
</trkpt>
<trkpt lat="46.0327700" lon="10.3267760">
	<ele>650.40</ele>
	<time>2025-07-30T08:48:18.000Z</time>
</trkpt>
<trkpt lat="46.0327770" lon="10.3267530">
	<ele>650.40</ele>
	<time>2025-07-30T08:48:19.000Z</time>
</trkpt>
<trkpt lat="46.0327760" lon="10.3267350">
	<ele>650.40</ele>
	<time>2025-07-30T08:48:20.000Z</time>
</trkpt>
<trkpt lat="46.0327670" lon="10.3267300">
	<ele>650.40</ele>
	<time>2025-07-30T08:48:21.000Z</time>
</trkpt>
<trkpt lat="46.0327570" lon="10.3267340">
	<ele>650.40</ele>
	<time>2025-07-30T08:48:22.000Z</time>
</trkpt>
<trkpt lat="46.0327560" lon="10.3267320">
	<ele>650.40</ele>
	<time>2025-07-30T08:48:23.000Z</time>
</trkpt>
<trkpt lat="46.0327560" lon="10.3267310">
	<ele>650.60</ele>
	<time>2025-07-30T08:48:24.000Z</time>
</trkpt>
<trkpt lat="46.0327590" lon="10.3267310">
	<ele>650.60</ele>
	<time>2025-07-30T08:48:25.000Z</time>
</trkpt>
<trkpt lat="46.0327640" lon="10.3267160">
	<ele>650.80</ele>
	<time>2025-07-30T08:48:26.000Z</time>
</trkpt>
<trkpt lat="46.0327670" lon="10.3267090">
	<ele>650.80</ele>
	<time>2025-07-30T08:48:27.000Z</time>
</trkpt>
<trkpt lat="46.0327770" lon="10.3267000">
	<ele>650.40</ele>
	<time>2025-07-30T08:48:28.000Z</time>
</trkpt>
<trkpt lat="46.0327820" lon="10.3266980">
	<ele>650.40</ele>
	<time>2025-07-30T08:48:29.000Z</time>
</trkpt>
<trkpt lat="46.0327830" lon="10.3266960">
	<ele>650.20</ele>
	<time>2025-07-30T08:48:30.000Z</time>
</trkpt>
<trkpt lat="46.0327840" lon="10.3267040">
	<ele>650.20</ele>
	<time>2025-07-30T08:48:31.000Z</time>
</trkpt>
<trkpt lat="46.0327820" lon="10.3267050">
	<ele>650.20</ele>
	<time>2025-07-30T08:48:32.000Z</time>
</trkpt>
<trkpt lat="46.0327820" lon="10.3267060">
	<ele>650.20</ele>
	<time>2025-07-30T08:48:33.000Z</time>
</trkpt>
<trkpt lat="46.0327830" lon="10.3267050">
	<ele>650.40</ele>
	<time>2025-07-30T08:48:34.000Z</time>
</trkpt>
<trkpt lat="46.0327830" lon="10.3267050">
	<ele>650.60</ele>
	<time>2025-07-30T08:48:35.000Z</time>
</trkpt>
<trkpt lat="46.0327830" lon="10.3267040">
	<ele>650.80</ele>
	<time>2025-07-30T08:48:36.000Z</time>
</trkpt>
<trkpt lat="46.0327830" lon="10.3267040">
	<ele>650.80</ele>
	<time>2025-07-30T08:48:37.000Z</time>
</trkpt>
<trkpt lat="46.0327830" lon="10.3267030">
	<ele>650.80</ele>
	<time>2025-07-30T08:48:38.000Z</time>
</trkpt>
<trkpt lat="46.0327830" lon="10.3267030">
	<ele>650.80</ele>
	<time>2025-07-30T08:48:39.000Z</time>
</trkpt>
<trkpt lat="46.0327830" lon="10.3267030">
	<ele>650.40</ele>
	<time>2025-07-30T08:48:40.000Z</time>
</trkpt>
<trkpt lat="46.0327830" lon="10.3267030">
	<ele>650.40</ele>
	<time>2025-07-30T08:48:41.000Z</time>
</trkpt>
<trkpt lat="46.0327830" lon="10.3267030">
	<ele>650.20</ele>
	<time>2025-07-30T08:48:42.000Z</time>
</trkpt>
<trkpt lat="46.0327830" lon="10.3267030">
	<ele>650.20</ele>
	<time>2025-07-30T08:48:43.000Z</time>
</trkpt>
<trkpt lat="46.0327830" lon="10.3267030">
	<ele>650.20</ele>
	<time>2025-07-30T08:48:44.000Z</time>
</trkpt>
<trkpt lat="46.0327830" lon="10.3267030">
	<ele>650.20</ele>
	<time>2025-07-30T08:48:45.000Z</time>
</trkpt>
<trkpt lat="46.0327830" lon="10.3267030">
	<ele>650.20</ele>
	<time>2025-07-30T08:48:46.000Z</time>
</trkpt>
<trkpt lat="46.0327830" lon="10.3267030">
	<ele>650.60</ele>
	<time>2025-07-30T08:48:47.000Z</time>
</trkpt>
<trkpt lat="46.0327830" lon="10.3267030">
	<ele>650.80</ele>
	<time>2025-07-30T08:48:48.000Z</time>
</trkpt>
<trkpt lat="46.0327830" lon="10.3267040">
	<ele>650.80</ele>
	<time>2025-07-30T08:48:49.000Z</time>
</trkpt>
<trkpt lat="46.0327830" lon="10.3267040">
	<ele>650.80</ele>
	<time>2025-07-30T08:48:50.000Z</time>
</trkpt>
<trkpt lat="46.0327830" lon="10.3267040">
	<ele>650.80</ele>
	<time>2025-07-30T08:48:51.000Z</time>
</trkpt>
<trkpt lat="46.0327820" lon="10.3267050">
	<ele>650.60</ele>
	<time>2025-07-30T08:48:52.000Z</time>
</trkpt>
<trkpt lat="46.0327820" lon="10.3267050">
	<ele>650.40</ele>
	<time>2025-07-30T08:48:53.000Z</time>
</trkpt>
<trkpt lat="46.0327820" lon="10.3267050">
	<ele>650.20</ele>
	<time>2025-07-30T08:48:54.000Z</time>
</trkpt>
<trkpt lat="46.0327820" lon="10.3267060">
	<ele>650.20</ele>
	<time>2025-07-30T08:48:55.000Z</time>
</trkpt>
<trkpt lat="46.0327750" lon="10.3267060">
	<ele>650.20</ele>
	<time>2025-07-30T08:48:56.000Z</time>
</trkpt>
<trkpt lat="46.0327740" lon="10.3267110">
	<ele>650.20</ele>
	<time>2025-07-30T08:48:57.000Z</time>
</trkpt>
<trkpt lat="46.0327740" lon="10.3267120">
	<ele>650.40</ele>
	<time>2025-07-30T08:48:58.000Z</time>
</trkpt>
<trkpt lat="46.0327740" lon="10.3267130">
	<ele>650.60</ele>
	<time>2025-07-30T08:48:59.000Z</time>
</trkpt>
<trkpt lat="46.0327740" lon="10.3267130">
	<ele>650.80</ele>
	<time>2025-07-30T08:49:00.000Z</time>
</trkpt>
<trkpt lat="46.0327740" lon="10.3267140">
	<ele>650.80</ele>
	<time>2025-07-30T08:49:01.000Z</time>
</trkpt>
<trkpt lat="46.0327740" lon="10.3267140">
	<ele>650.80</ele>
	<time>2025-07-30T08:49:02.000Z</time>
</trkpt>
<trkpt lat="46.0327740" lon="10.3267150">
	<ele>650.80</ele>
	<time>2025-07-30T08:49:03.000Z</time>
</trkpt>
<trkpt lat="46.0327740" lon="10.3267150">
	<ele>650.80</ele>
	<time>2025-07-30T08:49:04.000Z</time>
</trkpt>
<trkpt lat="46.0327730" lon="10.3267190">
	<ele>650.60</ele>
	<time>2025-07-30T08:49:05.000Z</time>
</trkpt>
<trkpt lat="46.0327620" lon="10.3267120">
	<ele>650.60</ele>
	<time>2025-07-30T08:49:06.000Z</time>
</trkpt>
<trkpt lat="46.0327530" lon="10.3267040">
	<ele>650.60</ele>
	<time>2025-07-30T08:49:07.000Z</time>
</trkpt>
<trkpt lat="46.0327470" lon="10.3266940">
	<ele>650.60</ele>
	<time>2025-07-30T08:49:08.000Z</time>
</trkpt>
<trkpt lat="46.0327430" lon="10.3266900">
	<ele>650.60</ele>
	<time>2025-07-30T08:49:09.000Z</time>
</trkpt>
<trkpt lat="46.0327450" lon="10.3266910">
	<ele>650.40</ele>
	<time>2025-07-30T08:49:10.000Z</time>
</trkpt>
<trkpt lat="46.0327430" lon="10.3266920">
	<ele>650.40</ele>
	<time>2025-07-30T08:49:11.000Z</time>
</trkpt>
<trkpt lat="46.0327430" lon="10.3266920">
	<ele>650.40</ele>
	<time>2025-07-30T08:49:12.000Z</time>
</trkpt>
<trkpt lat="46.0327470" lon="10.3266900">
	<ele>650.40</ele>
	<time>2025-07-30T08:49:13.000Z</time>
</trkpt>
<trkpt lat="46.0327480" lon="10.3266910">
	<ele>650.40</ele>
	<time>2025-07-30T08:49:14.000Z</time>
</trkpt>
<trkpt lat="46.0327540" lon="10.3267040">
	<ele>650.40</ele>
	<time>2025-07-30T08:49:15.000Z</time>
</trkpt>
<trkpt lat="46.0327580" lon="10.3267130">
	<ele>650.60</ele>
	<time>2025-07-30T08:49:16.000Z</time>
</trkpt>
<trkpt lat="46.0327570" lon="10.3267180">
	<ele>650.80</ele>
	<time>2025-07-30T08:49:17.000Z</time>
</trkpt>
<trkpt lat="46.0327530" lon="10.3267200">
	<ele>651.00</ele>
	<time>2025-07-30T08:49:18.000Z</time>
</trkpt>
<trkpt lat="46.0327470" lon="10.3267290">
	<ele>651.00</ele>
	<time>2025-07-30T08:49:19.000Z</time>
</trkpt>
<trkpt lat="46.0327440" lon="10.3267450">
	<ele>651.00</ele>
	<time>2025-07-30T08:49:20.000Z</time>
</trkpt>
<trkpt lat="46.0327480" lon="10.3267480">
	<ele>651.00</ele>
	<time>2025-07-30T08:49:21.000Z</time>
</trkpt>
<trkpt lat="46.0327460" lon="10.3267520">
	<ele>651.00</ele>
	<time>2025-07-30T08:49:22.000Z</time>
</trkpt>
<trkpt lat="46.0327480" lon="10.3267540">
	<ele>651.00</ele>
	<time>2025-07-30T08:49:23.000Z</time>
</trkpt>
<trkpt lat="46.0327380" lon="10.3267680">
	<ele>650.80</ele>
	<time>2025-07-30T08:49:24.000Z</time>
</trkpt>
<trkpt lat="46.0327310" lon="10.3267810">
	<ele>650.80</ele>
	<time>2025-07-30T08:49:25.000Z</time>
</trkpt>
<trkpt lat="46.0327170" lon="10.3268000">
	<ele>650.80</ele>
	<time>2025-07-30T08:49:26.000Z</time>
</trkpt>
<trkpt lat="46.0327190" lon="10.3267920">
	<ele>650.60</ele>
	<time>2025-07-30T08:49:27.000Z</time>
</trkpt>
<trkpt lat="46.0327180" lon="10.3267970">
	<ele>650.40</ele>
	<time>2025-07-30T08:49:28.000Z</time>
</trkpt>
<trkpt lat="46.0327130" lon="10.3268020">
	<ele>650.40</ele>
	<time>2025-07-30T08:49:29.000Z</time>
</trkpt>
<trkpt lat="46.0327150" lon="10.3268010">
	<ele>650.20</ele>
	<time>2025-07-30T08:49:30.000Z</time>
</trkpt>
<trkpt lat="46.0327240" lon="10.3267980">
	<ele>650.20</ele>
	<time>2025-07-30T08:49:31.000Z</time>
</trkpt>
<trkpt lat="46.0327290" lon="10.3268100">
	<ele>650.20</ele>
	<time>2025-07-30T08:49:32.000Z</time>
</trkpt>
<trkpt lat="46.0327290" lon="10.3268310">
	<ele>650.20</ele>
	<time>2025-07-30T08:49:33.000Z</time>
</trkpt>
<trkpt lat="46.0327350" lon="10.3268430">
	<ele>650.20</ele>
	<time>2025-07-30T08:49:34.000Z</time>
</trkpt>
<trkpt lat="46.0327370" lon="10.3268560">
	<ele>650.20</ele>
	<time>2025-07-30T08:49:35.000Z</time>
</trkpt>
<trkpt lat="46.0327380" lon="10.3268710">
	<ele>650.20</ele>
	<time>2025-07-30T08:49:36.000Z</time>
</trkpt>
<trkpt lat="46.0327410" lon="10.3268910">
	<ele>650.20</ele>
	<time>2025-07-30T08:49:37.000Z</time>
</trkpt>
<trkpt lat="46.0327440" lon="10.3269080">
	<ele>650.20</ele>
	<time>2025-07-30T08:49:38.000Z</time>
</trkpt>
<trkpt lat="46.0327480" lon="10.3269260">
	<ele>650.20</ele>
	<time>2025-07-30T08:49:39.000Z</time>
</trkpt>
<trkpt lat="46.0327430" lon="10.3269400">
	<ele>650.20</ele>
	<time>2025-07-30T08:49:40.000Z</time>
</trkpt>
<trkpt lat="46.0327430" lon="10.3269530">
	<ele>650.40</ele>
	<time>2025-07-30T08:49:41.000Z</time>
</trkpt>
<trkpt lat="46.0327450" lon="10.3269660">
	<ele>650.40</ele>
	<time>2025-07-30T08:49:42.000Z</time>
</trkpt>
<trkpt lat="46.0327470" lon="10.3269790">
	<ele>650.60</ele>
	<time>2025-07-30T08:49:43.000Z</time>
</trkpt>
<trkpt lat="46.0327560" lon="10.3269880">
	<ele>650.60</ele>
	<time>2025-07-30T08:49:44.000Z</time>
</trkpt>
<trkpt lat="46.0327750" lon="10.3269950">
	<ele>650.60</ele>
	<time>2025-07-30T08:49:45.000Z</time>
</trkpt>
<trkpt lat="46.0327980" lon="10.3269960">
	<ele>650.80</ele>
	<time>2025-07-30T08:49:46.000Z</time>
</trkpt>
<trkpt lat="46.0328090" lon="10.3270000">
	<ele>650.80</ele>
	<time>2025-07-30T08:49:47.000Z</time>
</trkpt>
<trkpt lat="46.0328240" lon="10.3270000">
	<ele>650.80</ele>
	<time>2025-07-30T08:49:48.000Z</time>
</trkpt>
<trkpt lat="46.0328360" lon="10.3270140">
	<ele>650.80</ele>
	<time>2025-07-30T08:49:49.000Z</time>
</trkpt>
<trkpt lat="46.0328480" lon="10.3270270">
	<ele>651.00</ele>
	<time>2025-07-30T08:49:50.000Z</time>
</trkpt>
<trkpt lat="46.0328690" lon="10.3270330">
	<ele>651.00</ele>
	<time>2025-07-30T08:49:51.000Z</time>
</trkpt>
<trkpt lat="46.0328810" lon="10.3270470">
	<ele>651.20</ele>
	<time>2025-07-30T08:49:52.000Z</time>
</trkpt>
<trkpt lat="46.0328940" lon="10.3270610">
	<ele>651.20</ele>
	<time>2025-07-30T08:49:53.000Z</time>
</trkpt>
<trkpt lat="46.0329090" lon="10.3270690">
	<ele>651.20</ele>
	<time>2025-07-30T08:49:54.000Z</time>
</trkpt>
<trkpt lat="46.0329160" lon="10.3270820">
	<ele>651.20</ele>
	<time>2025-07-30T08:49:55.000Z</time>
</trkpt>
<trkpt lat="46.0329090" lon="10.3271020">
	<ele>651.40</ele>
	<time>2025-07-30T08:49:56.000Z</time>
</trkpt>
<trkpt lat="46.0329320" lon="10.3271010">
	<ele>651.40</ele>
	<time>2025-07-30T08:49:57.000Z</time>
</trkpt>
<trkpt lat="46.0329480" lon="10.3271000">
	<ele>651.60</ele>
	<time>2025-07-30T08:49:58.000Z</time>
</trkpt>
<trkpt lat="46.0329530" lon="10.3270960">
	<ele>651.60</ele>
	<time>2025-07-30T08:49:59.000Z</time>
</trkpt>
<trkpt lat="46.0329660" lon="10.3271030">
	<ele>651.80</ele>
	<time>2025-07-30T08:50:00.000Z</time>
</trkpt>
<trkpt lat="46.0329780" lon="10.3271090">
	<ele>651.80</ele>
	<time>2025-07-30T08:50:01.000Z</time>
</trkpt>
<trkpt lat="46.0329810" lon="10.3271230">
	<ele>651.80</ele>
	<time>2025-07-30T08:50:02.000Z</time>
</trkpt>
<trkpt lat="46.0329800" lon="10.3271370">
	<ele>652.00</ele>
	<time>2025-07-30T08:50:03.000Z</time>
</trkpt>
<trkpt lat="46.0329810" lon="10.3271540">
	<ele>652.20</ele>
	<time>2025-07-30T08:50:04.000Z</time>
</trkpt>
<trkpt lat="46.0329890" lon="10.3271620">
	<ele>652.40</ele>
	<time>2025-07-30T08:50:05.000Z</time>
</trkpt>
<trkpt lat="46.0329990" lon="10.3271770">
	<ele>652.60</ele>
	<time>2025-07-30T08:50:06.000Z</time>
</trkpt>
<trkpt lat="46.0330170" lon="10.3271870">
	<ele>652.80</ele>
	<time>2025-07-30T08:50:07.000Z</time>
</trkpt>
<trkpt lat="46.0330300" lon="10.3272080">
	<ele>652.80</ele>
	<time>2025-07-30T08:50:08.000Z</time>
</trkpt>
<trkpt lat="46.0330340" lon="10.3272300">
	<ele>652.80</ele>
	<time>2025-07-30T08:50:09.000Z</time>
</trkpt>
<trkpt lat="46.0330380" lon="10.3272480">
	<ele>652.80</ele>
	<time>2025-07-30T08:50:10.000Z</time>
</trkpt>
<trkpt lat="46.0330400" lon="10.3272690">
	<ele>652.80</ele>
	<time>2025-07-30T08:50:11.000Z</time>
</trkpt>
<trkpt lat="46.0330380" lon="10.3272860">
	<ele>652.80</ele>
	<time>2025-07-30T08:50:12.000Z</time>
</trkpt>
<trkpt lat="46.0330400" lon="10.3272960">
	<ele>652.80</ele>
	<time>2025-07-30T08:50:13.000Z</time>
</trkpt>
<trkpt lat="46.0330440" lon="10.3273070">
	<ele>652.80</ele>
	<time>2025-07-30T08:50:14.000Z</time>
</trkpt>
<trkpt lat="46.0330420" lon="10.3273240">
	<ele>653.00</ele>
	<time>2025-07-30T08:50:15.000Z</time>
</trkpt>
<trkpt lat="46.0330440" lon="10.3273450">
	<ele>653.00</ele>
	<time>2025-07-30T08:50:16.000Z</time>
</trkpt>
<trkpt lat="46.0330510" lon="10.3273580">
	<ele>653.00</ele>
	<time>2025-07-30T08:50:17.000Z</time>
</trkpt>
<trkpt lat="46.0330580" lon="10.3273700">
	<ele>653.00</ele>
	<time>2025-07-30T08:50:18.000Z</time>
</trkpt>
<trkpt lat="46.0330630" lon="10.3273840">
	<ele>653.00</ele>
	<time>2025-07-30T08:50:19.000Z</time>
</trkpt>
<trkpt lat="46.0330670" lon="10.3273980">
	<ele>653.00</ele>
	<time>2025-07-30T08:50:20.000Z</time>
</trkpt>
<trkpt lat="46.0330710" lon="10.3274100">
	<ele>653.00</ele>
	<time>2025-07-30T08:50:21.000Z</time>
</trkpt>
<trkpt lat="46.0330710" lon="10.3274270">
	<ele>653.00</ele>
	<time>2025-07-30T08:50:22.000Z</time>
</trkpt>
<trkpt lat="46.0330730" lon="10.3274470">
	<ele>653.00</ele>
	<time>2025-07-30T08:50:23.000Z</time>
</trkpt>
<trkpt lat="46.0330760" lon="10.3274640">
	<ele>653.00</ele>
	<time>2025-07-30T08:50:24.000Z</time>
</trkpt>
<trkpt lat="46.0330760" lon="10.3274860">
	<ele>653.00</ele>
	<time>2025-07-30T08:50:25.000Z</time>
</trkpt>
<trkpt lat="46.0330790" lon="10.3275030">
	<ele>653.00</ele>
	<time>2025-07-30T08:50:26.000Z</time>
</trkpt>
<trkpt lat="46.0330800" lon="10.3275170">
	<ele>653.20</ele>
	<time>2025-07-30T08:50:27.000Z</time>
</trkpt>
<trkpt lat="46.0330800" lon="10.3275330">
	<ele>653.20</ele>
	<time>2025-07-30T08:50:28.000Z</time>
</trkpt>
<trkpt lat="46.0330820" lon="10.3275500">
	<ele>653.20</ele>
	<time>2025-07-30T08:50:29.000Z</time>
</trkpt>
<trkpt lat="46.0330850" lon="10.3275730">
	<ele>653.20</ele>
	<time>2025-07-30T08:50:30.000Z</time>
</trkpt>
<trkpt lat="46.0330880" lon="10.3275870">
	<ele>653.20</ele>
	<time>2025-07-30T08:50:31.000Z</time>
</trkpt>
<trkpt lat="46.0330920" lon="10.3276050">
	<ele>653.20</ele>
	<time>2025-07-30T08:50:32.000Z</time>
</trkpt>
<trkpt lat="46.0330940" lon="10.3276210">
	<ele>653.20</ele>
	<time>2025-07-30T08:50:33.000Z</time>
</trkpt>
<trkpt lat="46.0330960" lon="10.3276450">
	<ele>653.20</ele>
	<time>2025-07-30T08:50:34.000Z</time>
</trkpt>
<trkpt lat="46.0330940" lon="10.3276620">
	<ele>653.40</ele>
	<time>2025-07-30T08:50:35.000Z</time>
</trkpt>
<trkpt lat="46.0330920" lon="10.3276730">
	<ele>653.40</ele>
	<time>2025-07-30T08:50:36.000Z</time>
</trkpt>
<trkpt lat="46.0330930" lon="10.3276890">
	<ele>653.40</ele>
	<time>2025-07-30T08:50:37.000Z</time>
</trkpt>
<trkpt lat="46.0330940" lon="10.3277030">
	<ele>653.20</ele>
	<time>2025-07-30T08:50:38.000Z</time>
</trkpt>
<trkpt lat="46.0330920" lon="10.3277200">
	<ele>653.20</ele>
	<time>2025-07-30T08:50:39.000Z</time>
</trkpt>
<trkpt lat="46.0330940" lon="10.3277370">
	<ele>653.40</ele>
	<time>2025-07-30T08:50:40.000Z</time>
</trkpt>
<trkpt lat="46.0330950" lon="10.3277500">
	<ele>653.40</ele>
	<time>2025-07-30T08:50:41.000Z</time>
</trkpt>
<trkpt lat="46.0330960" lon="10.3277650">
	<ele>653.40</ele>
	<time>2025-07-30T08:50:42.000Z</time>
</trkpt>
<trkpt lat="46.0330980" lon="10.3277780">
	<ele>653.40</ele>
	<time>2025-07-30T08:50:43.000Z</time>
</trkpt>
<trkpt lat="46.0331010" lon="10.3277970">
	<ele>653.40</ele>
	<time>2025-07-30T08:50:44.000Z</time>
</trkpt>
<trkpt lat="46.0331030" lon="10.3278170">
	<ele>653.20</ele>
	<time>2025-07-30T08:50:45.000Z</time>
</trkpt>
<trkpt lat="46.0331040" lon="10.3278360">
	<ele>653.20</ele>
	<time>2025-07-30T08:50:46.000Z</time>
</trkpt>
<trkpt lat="46.0331040" lon="10.3278460">
	<ele>653.20</ele>
	<time>2025-07-30T08:50:47.000Z</time>
</trkpt>
<trkpt lat="46.0331040" lon="10.3278580">
	<ele>653.20</ele>
	<time>2025-07-30T08:50:48.000Z</time>
</trkpt>
<trkpt lat="46.0331060" lon="10.3278750">
	<ele>653.20</ele>
	<time>2025-07-30T08:50:49.000Z</time>
</trkpt>
<trkpt lat="46.0331030" lon="10.3278860">
	<ele>653.20</ele>
	<time>2025-07-30T08:50:50.000Z</time>
</trkpt>
<trkpt lat="46.0331020" lon="10.3279010">
	<ele>653.20</ele>
	<time>2025-07-30T08:50:51.000Z</time>
</trkpt>
<trkpt lat="46.0330990" lon="10.3279190">
	<ele>653.20</ele>
	<time>2025-07-30T08:50:52.000Z</time>
</trkpt>
<trkpt lat="46.0330980" lon="10.3279290">
	<ele>653.20</ele>
	<time>2025-07-30T08:50:53.000Z</time>
</trkpt>
<trkpt lat="46.0330900" lon="10.3279460">
	<ele>653.40</ele>
	<time>2025-07-30T08:50:54.000Z</time>
</trkpt>
<trkpt lat="46.0330840" lon="10.3279630">
	<ele>653.40</ele>
	<time>2025-07-30T08:50:55.000Z</time>
</trkpt>
<trkpt lat="46.0330820" lon="10.3279800">
	<ele>653.40</ele>
	<time>2025-07-30T08:50:56.000Z</time>
</trkpt>
<trkpt lat="46.0330820" lon="10.3279940">
	<ele>653.40</ele>
	<time>2025-07-30T08:50:57.000Z</time>
</trkpt>
<trkpt lat="46.0330820" lon="10.3280080">
	<ele>653.40</ele>
	<time>2025-07-30T08:50:58.000Z</time>
</trkpt>
<trkpt lat="46.0330800" lon="10.3280260">
	<ele>653.40</ele>
	<time>2025-07-30T08:50:59.000Z</time>
</trkpt>
<trkpt lat="46.0330780" lon="10.3280380">
	<ele>653.20</ele>
	<time>2025-07-30T08:51:00.000Z</time>
</trkpt>
<trkpt lat="46.0330810" lon="10.3280500">
	<ele>653.20</ele>
	<time>2025-07-30T08:51:01.000Z</time>
</trkpt>
<trkpt lat="46.0330830" lon="10.3280670">
	<ele>653.20</ele>
	<time>2025-07-30T08:51:02.000Z</time>
</trkpt>
<trkpt lat="46.0330810" lon="10.3280850">
	<ele>653.20</ele>
	<time>2025-07-30T08:51:03.000Z</time>
</trkpt>
<trkpt lat="46.0330810" lon="10.3281010">
	<ele>653.20</ele>
	<time>2025-07-30T08:51:04.000Z</time>
</trkpt>
<trkpt lat="46.0330810" lon="10.3281140">
	<ele>653.20</ele>
	<time>2025-07-30T08:51:05.000Z</time>
</trkpt>
<trkpt lat="46.0330810" lon="10.3281310">
	<ele>653.20</ele>
	<time>2025-07-30T08:51:06.000Z</time>
</trkpt>
<trkpt lat="46.0330800" lon="10.3281450">
	<ele>653.20</ele>
	<time>2025-07-30T08:51:07.000Z</time>
</trkpt>
<trkpt lat="46.0330780" lon="10.3281600">
	<ele>653.00</ele>
	<time>2025-07-30T08:51:08.000Z</time>
</trkpt>
<trkpt lat="46.0330760" lon="10.3281730">
	<ele>652.80</ele>
	<time>2025-07-30T08:51:09.000Z</time>
</trkpt>
<trkpt lat="46.0330760" lon="10.3281900">
	<ele>652.60</ele>
	<time>2025-07-30T08:51:10.000Z</time>
</trkpt>
<trkpt lat="46.0330760" lon="10.3282040">
	<ele>652.40</ele>
	<time>2025-07-30T08:51:11.000Z</time>
</trkpt>
<trkpt lat="46.0330750" lon="10.3282100">
	<ele>652.40</ele>
	<time>2025-07-30T08:51:12.000Z</time>
</trkpt>
<trkpt lat="46.0330720" lon="10.3282270">
	<ele>652.20</ele>
	<time>2025-07-30T08:51:13.000Z</time>
</trkpt>
<trkpt lat="46.0330710" lon="10.3282430">
	<ele>652.00</ele>
	<time>2025-07-30T08:51:14.000Z</time>
</trkpt>
<trkpt lat="46.0330680" lon="10.3282590">
	<ele>651.80</ele>
	<time>2025-07-30T08:51:15.000Z</time>
</trkpt>
<trkpt lat="46.0330670" lon="10.3282710">
	<ele>651.80</ele>
	<time>2025-07-30T08:51:16.000Z</time>
</trkpt>
<trkpt lat="46.0330650" lon="10.3282810">
	<ele>651.60</ele>
	<time>2025-07-30T08:51:17.000Z</time>
</trkpt>
<trkpt lat="46.0330660" lon="10.3282930">
	<ele>651.60</ele>
	<time>2025-07-30T08:51:18.000Z</time>
</trkpt>
<trkpt lat="46.0330660" lon="10.3283050">
	<ele>651.40</ele>
	<time>2025-07-30T08:51:19.000Z</time>
</trkpt>
<trkpt lat="46.0330680" lon="10.3283210">
	<ele>651.20</ele>
	<time>2025-07-30T08:51:20.000Z</time>
</trkpt>
<trkpt lat="46.0330700" lon="10.3283330">
	<ele>651.20</ele>
	<time>2025-07-30T08:51:21.000Z</time>
</trkpt>
<trkpt lat="46.0330690" lon="10.3283480">
	<ele>651.00</ele>
	<time>2025-07-30T08:51:22.000Z</time>
</trkpt>
<trkpt lat="46.0330660" lon="10.3283610">
	<ele>651.00</ele>
	<time>2025-07-30T08:51:23.000Z</time>
</trkpt>
<trkpt lat="46.0330610" lon="10.3283830">
	<ele>650.60</ele>
	<time>2025-07-30T08:51:24.000Z</time>
</trkpt>
<trkpt lat="46.0330590" lon="10.3283990">
	<ele>650.60</ele>
	<time>2025-07-30T08:51:25.000Z</time>
</trkpt>
<trkpt lat="46.0330580" lon="10.3284150">
	<ele>650.40</ele>
	<time>2025-07-30T08:51:26.000Z</time>
</trkpt>
<trkpt lat="46.0330570" lon="10.3284270">
	<ele>650.40</ele>
	<time>2025-07-30T08:51:27.000Z</time>
</trkpt>
<trkpt lat="46.0330590" lon="10.3284410">
	<ele>650.20</ele>
	<time>2025-07-30T08:51:28.000Z</time>
</trkpt>
<trkpt lat="46.0330600" lon="10.3284480">
	<ele>650.00</ele>
	<time>2025-07-30T08:51:29.000Z</time>
</trkpt>
<trkpt lat="46.0330550" lon="10.3284540">
	<ele>650.00</ele>
	<time>2025-07-30T08:51:30.000Z</time>
</trkpt>
<trkpt lat="46.0330480" lon="10.3284730">
	<ele>649.80</ele>
	<time>2025-07-30T08:51:31.000Z</time>
</trkpt>
<trkpt lat="46.0330280" lon="10.3284940">
	<ele>649.80</ele>
	<time>2025-07-30T08:51:32.000Z</time>
</trkpt>
<trkpt lat="46.0330170" lon="10.3285120">
	<ele>649.80</ele>
	<time>2025-07-30T08:51:33.000Z</time>
</trkpt>
<trkpt lat="46.0330140" lon="10.3285280">
	<ele>649.60</ele>
	<time>2025-07-30T08:51:34.000Z</time>
</trkpt>
<trkpt lat="46.0330110" lon="10.3285340">
	<ele>649.40</ele>
	<time>2025-07-30T08:51:35.000Z</time>
</trkpt>
<trkpt lat="46.0330080" lon="10.3285450">
	<ele>649.40</ele>
	<time>2025-07-30T08:51:36.000Z</time>
</trkpt>
<trkpt lat="46.0330080" lon="10.3285630">
	<ele>649.20</ele>
	<time>2025-07-30T08:51:37.000Z</time>
</trkpt>
<trkpt lat="46.0329950" lon="10.3285850">
	<ele>649.00</ele>
	<time>2025-07-30T08:51:38.000Z</time>
</trkpt>
<trkpt lat="46.0329880" lon="10.3285920">
	<ele>648.80</ele>
	<time>2025-07-30T08:51:39.000Z</time>
</trkpt>
<trkpt lat="46.0329860" lon="10.3285930">
	<ele>648.80</ele>
	<time>2025-07-30T08:51:40.000Z</time>
</trkpt>
<trkpt lat="46.0329880" lon="10.3285930">
	<ele>648.60</ele>
	<time>2025-07-30T08:51:41.000Z</time>
</trkpt>
<trkpt lat="46.0329880" lon="10.3285960">
	<ele>648.60</ele>
	<time>2025-07-30T08:51:42.000Z</time>
</trkpt>
<trkpt lat="46.0329880" lon="10.3285960">
	<ele>648.60</ele>
	<time>2025-07-30T08:51:43.000Z</time>
</trkpt>
<trkpt lat="46.0329870" lon="10.3285970">
	<ele>648.60</ele>
	<time>2025-07-30T08:51:44.000Z</time>
</trkpt>
<trkpt lat="46.0329870" lon="10.3285970">
	<ele>648.60</ele>
	<time>2025-07-30T08:51:45.000Z</time>
</trkpt>
<trkpt lat="46.0329890" lon="10.3285960">
	<ele>648.60</ele>
	<time>2025-07-30T08:51:46.000Z</time>
</trkpt>
<trkpt lat="46.0329900" lon="10.3285970">
	<ele>648.60</ele>
	<time>2025-07-30T08:51:47.000Z</time>
</trkpt>
<trkpt lat="46.0329970" lon="10.3285920">
	<ele>648.60</ele>
	<time>2025-07-30T08:51:48.000Z</time>
</trkpt>
<trkpt lat="46.0329990" lon="10.3285980">
	<ele>648.60</ele>
	<time>2025-07-30T08:51:49.000Z</time>
</trkpt>
<trkpt lat="46.0330000" lon="10.3286020">
	<ele>648.60</ele>
	<time>2025-07-30T08:51:50.000Z</time>
</trkpt>
<trkpt lat="46.0330000" lon="10.3286010">
	<ele>648.60</ele>
	<time>2025-07-30T08:51:51.000Z</time>
</trkpt>
<trkpt lat="46.0329990" lon="10.3285980">
	<ele>648.60</ele>
	<time>2025-07-30T08:51:52.000Z</time>
</trkpt>
<trkpt lat="46.0329980" lon="10.3285960">
	<ele>648.60</ele>
	<time>2025-07-30T08:51:53.000Z</time>
</trkpt>
<trkpt lat="46.0330000" lon="10.3285960">
	<ele>648.60</ele>
	<time>2025-07-30T08:51:54.000Z</time>
</trkpt>
<trkpt lat="46.0330000" lon="10.3285960">
	<ele>648.60</ele>
	<time>2025-07-30T08:51:55.000Z</time>
</trkpt>
<trkpt lat="46.0330000" lon="10.3285960">
	<ele>648.60</ele>
	<time>2025-07-30T08:51:56.000Z</time>
</trkpt>
<trkpt lat="46.0330000" lon="10.3285960">
	<ele>648.60</ele>
	<time>2025-07-30T08:51:57.000Z</time>
</trkpt>
<trkpt lat="46.0330000" lon="10.3285960">
	<ele>648.60</ele>
	<time>2025-07-30T08:51:58.000Z</time>
</trkpt>
<trkpt lat="46.0330000" lon="10.3285960">
	<ele>648.60</ele>
	<time>2025-07-30T08:51:59.000Z</time>
</trkpt>
<trkpt lat="46.0330000" lon="10.3285960">
	<ele>648.60</ele>
	<time>2025-07-30T08:52:00.000Z</time>
</trkpt>
<trkpt lat="46.0330000" lon="10.3285960">
	<ele>648.40</ele>
	<time>2025-07-30T08:52:01.000Z</time>
</trkpt>
<trkpt lat="46.0330000" lon="10.3285960">
	<ele>648.40</ele>
	<time>2025-07-30T08:52:02.000Z</time>
</trkpt>
<trkpt lat="46.0330000" lon="10.3285960">
	<ele>648.40</ele>
	<time>2025-07-30T08:52:03.000Z</time>
</trkpt>
<trkpt lat="46.0330000" lon="10.3285960">
	<ele>648.40</ele>
	<time>2025-07-30T08:52:04.000Z</time>
</trkpt>
<trkpt lat="46.0330000" lon="10.3285960">
	<ele>648.40</ele>
	<time>2025-07-30T08:52:05.000Z</time>
</trkpt>
<trkpt lat="46.0330000" lon="10.3285960">
	<ele>648.40</ele>
	<time>2025-07-30T08:52:06.000Z</time>
</trkpt>
<trkpt lat="46.0329990" lon="10.3285960">
	<ele>648.40</ele>
	<time>2025-07-30T08:52:07.000Z</time>
</trkpt>
<trkpt lat="46.0329990" lon="10.3285960">
	<ele>648.40</ele>
	<time>2025-07-30T08:52:08.000Z</time>
</trkpt>
<trkpt lat="46.0329990" lon="10.3285960">
	<ele>648.40</ele>
	<time>2025-07-30T08:52:09.000Z</time>
</trkpt>
<trkpt lat="46.0329990" lon="10.3285960">
	<ele>648.40</ele>
	<time>2025-07-30T08:52:10.000Z</time>
</trkpt>
<trkpt lat="46.0329990" lon="10.3285960">
	<ele>648.40</ele>
	<time>2025-07-30T08:52:11.000Z</time>
</trkpt>
<trkpt lat="46.0329980" lon="10.3285960">
	<ele>648.40</ele>
	<time>2025-07-30T08:52:12.000Z</time>
</trkpt>
<trkpt lat="46.0329980" lon="10.3285960">
	<ele>648.40</ele>
	<time>2025-07-30T08:52:13.000Z</time>
</trkpt>
<trkpt lat="46.0329980" lon="10.3285960">
	<ele>648.60</ele>
	<time>2025-07-30T08:52:14.000Z</time>
</trkpt>
<trkpt lat="46.0329980" lon="10.3285960">
	<ele>648.60</ele>
	<time>2025-07-30T08:52:15.000Z</time>
</trkpt>
<trkpt lat="46.0329980" lon="10.3285960">
	<ele>648.60</ele>
	<time>2025-07-30T08:52:16.000Z</time>
</trkpt>
<trkpt lat="46.0329980" lon="10.3285960">
	<ele>648.60</ele>
	<time>2025-07-30T08:52:17.000Z</time>
</trkpt>
<trkpt lat="46.0329980" lon="10.3285960">
	<ele>648.60</ele>
	<time>2025-07-30T08:52:18.000Z</time>
</trkpt>
<trkpt lat="46.0329960" lon="10.3285950">
	<ele>648.60</ele>
	<time>2025-07-30T08:52:19.000Z</time>
</trkpt>
<trkpt lat="46.0329950" lon="10.3285940">
	<ele>648.60</ele>
	<time>2025-07-30T08:52:20.000Z</time>
</trkpt>
<trkpt lat="46.0329910" lon="10.3285930">
	<ele>648.40</ele>
	<time>2025-07-30T08:52:21.000Z</time>
</trkpt>
<trkpt lat="46.0329900" lon="10.3285930">
	<ele>648.20</ele>
	<time>2025-07-30T08:52:22.000Z</time>
</trkpt>
<trkpt lat="46.0329870" lon="10.3285870">
	<ele>648.00</ele>
	<time>2025-07-30T08:52:23.000Z</time>
</trkpt>
<trkpt lat="46.0329880" lon="10.3285610">
	<ele>647.80</ele>
	<time>2025-07-30T08:52:24.000Z</time>
</trkpt>
<trkpt lat="46.0329890" lon="10.3285340">
	<ele>647.60</ele>
	<time>2025-07-30T08:52:25.000Z</time>
</trkpt>
<trkpt lat="46.0329930" lon="10.3285090">
	<ele>647.60</ele>
	<time>2025-07-30T08:52:26.000Z</time>
</trkpt>
<trkpt lat="46.0329960" lon="10.3284870">
	<ele>647.40</ele>
	<time>2025-07-30T08:52:27.000Z</time>
</trkpt>
<trkpt lat="46.0329980" lon="10.3284670">
	<ele>647.40</ele>
	<time>2025-07-30T08:52:28.000Z</time>
</trkpt>
</trkseg>
</trk>
</gpx>
